<?xml version="1.0" encoding="UTF-8" standalone="no" ?>
<gpx xmlns="http://www.topografix.com/GPX/1/1" xmlns:xsi="http://www.w3.org/2001/XMLSchema-instance" xsi:schemaLocation="http://www.topografix.com/GPX/1/1 http://www.topografix.com/GPX/1/1/gpx.xsd" version="1.1" creator="VisuGPX - https://www.visugpx.com">
  <metadata>
    <name>rissas st amand robion</name>
    <desc><![CDATA[vol rare et genial !]]></desc>
  </metadata>
  <trk>
    <name><![CDATA[20090301]]></name>
    <extensions>
      <line xmlns="http://www.topografix.com/GPX/gpx_style/0/2">
        <color>00FF00</color>
        <width>4</width>
      </line>
    </extensions>
    <trkseg>
      <trkpt lat="44.19556" lon="5.16754">
        <ele>557.492</ele>
        <time>2020-09-03T11:44:00Z</time>
      </trkpt>
      <trkpt lat="44.19536" lon="5.16745">
        <ele>557.67</ele>
        <time>2020-09-03T11:44:04Z</time>
      </trkpt>
      <trkpt lat="44.19534" lon="5.16737">
        <ele>556.101</ele>
        <time>2020-09-03T11:44:05Z</time>
      </trkpt>
      <trkpt lat="44.19535" lon="5.16727">
        <ele>552.997</ele>
        <time>2020-09-03T11:44:06Z</time>
      </trkpt>
      <trkpt lat="44.19538" lon="5.16718">
        <ele>549.986</ele>
        <time>2020-09-03T11:44:07Z</time>
      </trkpt>
      <trkpt lat="44.19543" lon="5.1671">
        <ele>548.534</ele>
        <time>2020-09-03T11:44:08Z</time>
      </trkpt>
      <trkpt lat="44.19546" lon="5.16702">
        <ele>548.252</ele>
        <time>2020-09-03T11:44:09Z</time>
      </trkpt>
      <trkpt lat="44.1955" lon="5.16695">
        <ele>548.632</ele>
        <time>2020-09-03T11:44:10Z</time>
      </trkpt>
      <trkpt lat="44.19552" lon="5.16688">
        <ele>548.888</ele>
        <time>2020-09-03T11:44:11Z</time>
      </trkpt>
      <trkpt lat="44.19553" lon="5.16679">
        <ele>548.421</ele>
        <time>2020-09-03T11:44:12Z</time>
      </trkpt>
      <trkpt lat="44.19556" lon="5.16671">
        <ele>547.043</ele>
        <time>2020-09-03T11:44:13Z</time>
      </trkpt>
      <trkpt lat="44.19559" lon="5.16662">
        <ele>544.83</ele>
        <time>2020-09-03T11:44:14Z</time>
      </trkpt>
      <trkpt lat="44.19563" lon="5.16651">
        <ele>542.398</ele>
        <time>2020-09-03T11:44:15Z</time>
      </trkpt>
      <trkpt lat="44.19563" lon="5.16651">
        <ele>540.095</ele>
        <time>2020-09-03T11:44:15Z</time>
      </trkpt>
      <trkpt lat="44.19569" lon="5.16614">
        <ele>539.251</ele>
        <time>2020-09-03T11:44:18Z</time>
      </trkpt>
      <trkpt lat="44.19569" lon="5.16614">
        <ele>539.629</ele>
        <time>2020-09-03T11:44:18Z</time>
      </trkpt>
      <trkpt lat="44.19571" lon="5.16593">
        <ele>540.066</ele>
        <time>2020-09-03T11:44:20Z</time>
      </trkpt>
      <trkpt lat="44.19572" lon="5.16583">
        <ele>539.852</ele>
        <time>2020-09-03T11:44:21Z</time>
      </trkpt>
      <trkpt lat="44.19574" lon="5.16574">
        <ele>538.773</ele>
        <time>2020-09-03T11:44:22Z</time>
      </trkpt>
      <trkpt lat="44.19575" lon="5.16563">
        <ele>536.6</ele>
        <time>2020-09-03T11:44:23Z</time>
      </trkpt>
      <trkpt lat="44.19575" lon="5.16552">
        <ele>535.74</ele>
        <time>2020-09-03T11:44:24Z</time>
      </trkpt>
      <trkpt lat="44.19576" lon="5.16542">
        <ele>535.338</ele>
        <time>2020-09-03T11:44:25Z</time>
      </trkpt>
      <trkpt lat="44.19577" lon="5.16532">
        <ele>535.919</ele>
        <time>2020-09-03T11:44:26Z</time>
      </trkpt>
      <trkpt lat="44.19579" lon="5.16522">
        <ele>536.982</ele>
        <time>2020-09-03T11:44:27Z</time>
      </trkpt>
      <trkpt lat="44.19579" lon="5.16514">
        <ele>538.139</ele>
        <time>2020-09-03T11:44:28Z</time>
      </trkpt>
      <trkpt lat="44.19577" lon="5.16506">
        <ele>538.556</ele>
        <time>2020-09-03T11:44:29Z</time>
      </trkpt>
      <trkpt lat="44.19576" lon="5.16497">
        <ele>538.343</ele>
        <time>2020-09-03T11:44:30Z</time>
      </trkpt>
      <trkpt lat="44.19574" lon="5.16487">
        <ele>538.078</ele>
        <time>2020-09-03T11:44:31Z</time>
      </trkpt>
      <trkpt lat="44.19574" lon="5.16487">
        <ele>538.278</ele>
        <time>2020-09-03T11:44:31Z</time>
      </trkpt>
      <trkpt lat="44.19569" lon="5.16468">
        <ele>539.225</ele>
        <time>2020-09-03T11:44:33Z</time>
      </trkpt>
      <trkpt lat="44.19565" lon="5.16453">
        <ele>540.497</ele>
        <time>2020-09-03T11:44:35Z</time>
      </trkpt>
      <trkpt lat="44.19564" lon="5.16446">
        <ele>542.129</ele>
        <time>2020-09-03T11:44:36Z</time>
      </trkpt>
      <trkpt lat="44.19563" lon="5.16438">
        <ele>543.609</ele>
        <time>2020-09-03T11:44:37Z</time>
      </trkpt>
      <trkpt lat="44.19563" lon="5.1643">
        <ele>544.814</ele>
        <time>2020-09-03T11:44:38Z</time>
      </trkpt>
      <trkpt lat="44.19563" lon="5.16421">
        <ele>545.817</ele>
        <time>2020-09-03T11:44:39Z</time>
      </trkpt>
      <trkpt lat="44.19563" lon="5.16414">
        <ele>546.869</ele>
        <time>2020-09-03T11:44:40Z</time>
      </trkpt>
      <trkpt lat="44.19561" lon="5.16408">
        <ele>547.481</ele>
        <time>2020-09-03T11:44:41Z</time>
      </trkpt>
      <trkpt lat="44.19556" lon="5.16403">
        <ele>547.738</ele>
        <time>2020-09-03T11:44:42Z</time>
      </trkpt>
      <trkpt lat="44.1955" lon="5.16402">
        <ele>547.408</ele>
        <time>2020-09-03T11:44:43Z</time>
      </trkpt>
      <trkpt lat="44.19544" lon="5.16408">
        <ele>546.792</ele>
        <time>2020-09-03T11:44:44Z</time>
      </trkpt>
      <trkpt lat="44.19541" lon="5.16422">
        <ele>545.43</ele>
        <time>2020-09-03T11:44:45Z</time>
      </trkpt>
      <trkpt lat="44.19542" lon="5.16439">
        <ele>544.258</ele>
        <time>2020-09-03T11:44:46Z</time>
      </trkpt>
      <trkpt lat="44.19547" lon="5.16454">
        <ele>543.655</ele>
        <time>2020-09-03T11:44:47Z</time>
      </trkpt>
      <trkpt lat="44.19555" lon="5.16466">
        <ele>543.633</ele>
        <time>2020-09-03T11:44:48Z</time>
      </trkpt>
      <trkpt lat="44.19562" lon="5.16476">
        <ele>544.408</ele>
        <time>2020-09-03T11:44:49Z</time>
      </trkpt>
      <trkpt lat="44.1957" lon="5.16485">
        <ele>545.361</ele>
        <time>2020-09-03T11:44:50Z</time>
      </trkpt>
      <trkpt lat="44.19577" lon="5.16496">
        <ele>546.246</ele>
        <time>2020-09-03T11:44:51Z</time>
      </trkpt>
      <trkpt lat="44.19588" lon="5.16524">
        <ele>546.612</ele>
        <time>2020-09-03T11:44:53Z</time>
      </trkpt>
      <trkpt lat="44.19588" lon="5.16524">
        <ele>546.733</ele>
        <time>2020-09-03T11:44:53Z</time>
      </trkpt>
      <trkpt lat="44.19587" lon="5.16553">
        <ele>546.831</ele>
        <time>2020-09-03T11:44:55Z</time>
      </trkpt>
      <trkpt lat="44.19584" lon="5.16564">
        <ele>547.037</ele>
        <time>2020-09-03T11:44:56Z</time>
      </trkpt>
      <trkpt lat="44.19578" lon="5.16572">
        <ele>547.159</ele>
        <time>2020-09-03T11:44:57Z</time>
      </trkpt>
      <trkpt lat="44.19571" lon="5.16576">
        <ele>547.261</ele>
        <time>2020-09-03T11:44:58Z</time>
      </trkpt>
      <trkpt lat="44.19566" lon="5.16577">
        <ele>547.27</ele>
        <time>2020-09-03T11:44:59Z</time>
      </trkpt>
      <trkpt lat="44.19562" lon="5.16569">
        <ele>546.905</ele>
        <time>2020-09-03T11:45:00Z</time>
      </trkpt>
      <trkpt lat="44.19561" lon="5.16558">
        <ele>547.013</ele>
        <time>2020-09-03T11:45:01Z</time>
      </trkpt>
      <trkpt lat="44.19562" lon="5.16547">
        <ele>548.311</ele>
        <time>2020-09-03T11:45:02Z</time>
      </trkpt>
      <trkpt lat="44.19564" lon="5.16538">
        <ele>550.957</ele>
        <time>2020-09-03T11:45:03Z</time>
      </trkpt>
      <trkpt lat="44.19567" lon="5.16532">
        <ele>553.078</ele>
        <time>2020-09-03T11:45:04Z</time>
      </trkpt>
      <trkpt lat="44.19567" lon="5.16532">
        <ele>554.234</ele>
        <time>2020-09-03T11:45:04Z</time>
      </trkpt>
      <trkpt lat="44.19579" lon="5.16517">
        <ele>553.736</ele>
        <time>2020-09-03T11:45:07Z</time>
      </trkpt>
      <trkpt lat="44.19583" lon="5.16506">
        <ele>552.809</ele>
        <time>2020-09-03T11:45:08Z</time>
      </trkpt>
      <trkpt lat="44.19583" lon="5.16506">
        <ele>551.834</ele>
        <time>2020-09-03T11:45:08Z</time>
      </trkpt>
      <trkpt lat="44.19587" lon="5.16488">
        <ele>551.232</ele>
        <time>2020-09-03T11:45:10Z</time>
      </trkpt>
      <trkpt lat="44.19587" lon="5.16488">
        <ele>550.513</ele>
        <time>2020-09-03T11:45:10Z</time>
      </trkpt>
      <trkpt lat="44.19589" lon="5.16473">
        <ele>549.368</ele>
        <time>2020-09-03T11:45:12Z</time>
      </trkpt>
      <trkpt lat="44.19591" lon="5.16464">
        <ele>547.617</ele>
        <time>2020-09-03T11:45:13Z</time>
      </trkpt>
      <trkpt lat="44.19593" lon="5.16455">
        <ele>545.695</ele>
        <time>2020-09-03T11:45:14Z</time>
      </trkpt>
      <trkpt lat="44.19596" lon="5.16445">
        <ele>544.549</ele>
        <time>2020-09-03T11:45:15Z</time>
      </trkpt>
      <trkpt lat="44.19597" lon="5.16435">
        <ele>544.312</ele>
        <time>2020-09-03T11:45:16Z</time>
      </trkpt>
      <trkpt lat="44.19599" lon="5.16424">
        <ele>544.791</ele>
        <time>2020-09-03T11:45:17Z</time>
      </trkpt>
      <trkpt lat="44.196" lon="5.16415">
        <ele>545.022</ele>
        <time>2020-09-03T11:45:18Z</time>
      </trkpt>
      <trkpt lat="44.19602" lon="5.16406">
        <ele>544.958</ele>
        <time>2020-09-03T11:45:19Z</time>
      </trkpt>
      <trkpt lat="44.19602" lon="5.16406">
        <ele>544.767</ele>
        <time>2020-09-03T11:45:19Z</time>
      </trkpt>
      <trkpt lat="44.19605" lon="5.16387">
        <ele>544.707</ele>
        <time>2020-09-03T11:45:21Z</time>
      </trkpt>
      <trkpt lat="44.19608" lon="5.16369">
        <ele>545.354</ele>
        <time>2020-09-03T11:45:23Z</time>
      </trkpt>
      <trkpt lat="44.19608" lon="5.16369">
        <ele>546.672</ele>
        <time>2020-09-03T11:45:23Z</time>
      </trkpt>
      <trkpt lat="44.19613" lon="5.16353">
        <ele>548.344</ele>
        <time>2020-09-03T11:45:25Z</time>
      </trkpt>
      <trkpt lat="44.19617" lon="5.16347">
        <ele>550.062</ele>
        <time>2020-09-03T11:45:26Z</time>
      </trkpt>
      <trkpt lat="44.19619" lon="5.16341">
        <ele>551.632</ele>
        <time>2020-09-03T11:45:27Z</time>
      </trkpt>
      <trkpt lat="44.19621" lon="5.16335">
        <ele>553.115</ele>
        <time>2020-09-03T11:45:28Z</time>
      </trkpt>
      <trkpt lat="44.19622" lon="5.16328">
        <ele>554.495</ele>
        <time>2020-09-03T11:45:29Z</time>
      </trkpt>
      <trkpt lat="44.19623" lon="5.1632">
        <ele>556.139</ele>
        <time>2020-09-03T11:45:30Z</time>
      </trkpt>
      <trkpt lat="44.19622" lon="5.16313">
        <ele>557.907</ele>
        <time>2020-09-03T11:45:31Z</time>
      </trkpt>
      <trkpt lat="44.1962" lon="5.16309">
        <ele>559.382</ele>
        <time>2020-09-03T11:45:32Z</time>
      </trkpt>
      <trkpt lat="44.19614" lon="5.16309">
        <ele>560.171</ele>
        <time>2020-09-03T11:45:33Z</time>
      </trkpt>
      <trkpt lat="44.19608" lon="5.16315">
        <ele>560.876</ele>
        <time>2020-09-03T11:45:34Z</time>
      </trkpt>
      <trkpt lat="44.19602" lon="5.16326">
        <ele>561.459</ele>
        <time>2020-09-03T11:45:35Z</time>
      </trkpt>
      <trkpt lat="44.19602" lon="5.16326">
        <ele>562.367</ele>
        <time>2020-09-03T11:45:35Z</time>
      </trkpt>
      <trkpt lat="44.19602" lon="5.16326">
        <ele>563.381</ele>
        <time>2020-09-03T11:45:35Z</time>
      </trkpt>
      <trkpt lat="44.19602" lon="5.16366">
        <ele>564.149</ele>
        <time>2020-09-03T11:45:38Z</time>
      </trkpt>
      <trkpt lat="44.19611" lon="5.16396">
        <ele>565.292</ele>
        <time>2020-09-03T11:45:40Z</time>
      </trkpt>
      <trkpt lat="44.19614" lon="5.1641">
        <ele>566.681</ele>
        <time>2020-09-03T11:45:41Z</time>
      </trkpt>
      <trkpt lat="44.19617" lon="5.16425">
        <ele>568.131</ele>
        <time>2020-09-03T11:45:42Z</time>
      </trkpt>
      <trkpt lat="44.19618" lon="5.1644">
        <ele>569.158</ele>
        <time>2020-09-03T11:45:43Z</time>
      </trkpt>
      <trkpt lat="44.19618" lon="5.16453">
        <ele>569.487</ele>
        <time>2020-09-03T11:45:44Z</time>
      </trkpt>
      <trkpt lat="44.19614" lon="5.16465">
        <ele>569.588</ele>
        <time>2020-09-03T11:45:45Z</time>
      </trkpt>
      <trkpt lat="44.1961" lon="5.16474">
        <ele>569.877</ele>
        <time>2020-09-03T11:45:46Z</time>
      </trkpt>
      <trkpt lat="44.19606" lon="5.16477">
        <ele>569.995</ele>
        <time>2020-09-03T11:45:47Z</time>
      </trkpt>
      <trkpt lat="44.19601" lon="5.16478">
        <ele>569.825</ele>
        <time>2020-09-03T11:45:48Z</time>
      </trkpt>
      <trkpt lat="44.19601" lon="5.16478">
        <ele>569.628</ele>
        <time>2020-09-03T11:45:48Z</time>
      </trkpt>
      <trkpt lat="44.19601" lon="5.16478">
        <ele>569.877</ele>
        <time>2020-09-03T11:45:48Z</time>
      </trkpt>
      <trkpt lat="44.19599" lon="5.16449">
        <ele>571.275</ele>
        <time>2020-09-03T11:45:52Z</time>
      </trkpt>
      <trkpt lat="44.19602" lon="5.16443">
        <ele>573.973</ele>
        <time>2020-09-03T11:45:53Z</time>
      </trkpt>
      <trkpt lat="44.19602" lon="5.16443">
        <ele>575.981</ele>
        <time>2020-09-03T11:45:53Z</time>
      </trkpt>
      <trkpt lat="44.1961" lon="5.16431">
        <ele>577.67</ele>
        <time>2020-09-03T11:45:55Z</time>
      </trkpt>
      <trkpt lat="44.19615" lon="5.16425">
        <ele>578.026</ele>
        <time>2020-09-03T11:45:56Z</time>
      </trkpt>
      <trkpt lat="44.1962" lon="5.16417">
        <ele>577.833</ele>
        <time>2020-09-03T11:45:57Z</time>
      </trkpt>
      <trkpt lat="44.19625" lon="5.16409">
        <ele>577.552</ele>
        <time>2020-09-03T11:45:58Z</time>
      </trkpt>
      <trkpt lat="44.19628" lon="5.16401">
        <ele>577.581</ele>
        <time>2020-09-03T11:45:59Z</time>
      </trkpt>
      <trkpt lat="44.19629" lon="5.16391">
        <ele>577.789</ele>
        <time>2020-09-03T11:46:00Z</time>
      </trkpt>
      <trkpt lat="44.1963" lon="5.16382">
        <ele>578.025</ele>
        <time>2020-09-03T11:46:01Z</time>
      </trkpt>
      <trkpt lat="44.19629" lon="5.16374">
        <ele>578.205</ele>
        <time>2020-09-03T11:46:02Z</time>
      </trkpt>
      <trkpt lat="44.19629" lon="5.16374">
        <ele>579.182</ele>
        <time>2020-09-03T11:46:02Z</time>
      </trkpt>
      <trkpt lat="44.19618" lon="5.16354">
        <ele>581.04</ele>
        <time>2020-09-03T11:46:05Z</time>
      </trkpt>
      <trkpt lat="44.19612" lon="5.16352">
        <ele>583.165</ele>
        <time>2020-09-03T11:46:06Z</time>
      </trkpt>
      <trkpt lat="44.19606" lon="5.16353">
        <ele>585.054</ele>
        <time>2020-09-03T11:46:07Z</time>
      </trkpt>
      <trkpt lat="44.196" lon="5.16355">
        <ele>586.006</ele>
        <time>2020-09-03T11:46:08Z</time>
      </trkpt>
      <trkpt lat="44.19592" lon="5.16357">
        <ele>586.549</ele>
        <time>2020-09-03T11:46:09Z</time>
      </trkpt>
      <trkpt lat="44.19585" lon="5.16358">
        <ele>586.652</ele>
        <time>2020-09-03T11:46:10Z</time>
      </trkpt>
      <trkpt lat="44.19579" lon="5.16354">
        <ele>586.45</ele>
        <time>2020-09-03T11:46:11Z</time>
      </trkpt>
      <trkpt lat="44.19579" lon="5.16354">
        <ele>585.66</ele>
        <time>2020-09-03T11:46:11Z</time>
      </trkpt>
      <trkpt lat="44.19579" lon="5.16341">
        <ele>584.142</ele>
        <time>2020-09-03T11:46:13Z</time>
      </trkpt>
      <trkpt lat="44.19582" lon="5.16335">
        <ele>582.217</ele>
        <time>2020-09-03T11:46:14Z</time>
      </trkpt>
      <trkpt lat="44.19589" lon="5.16332">
        <ele>579.934</ele>
        <time>2020-09-03T11:46:15Z</time>
      </trkpt>
      <trkpt lat="44.19596" lon="5.16331">
        <ele>577.183</ele>
        <time>2020-09-03T11:46:16Z</time>
      </trkpt>
      <trkpt lat="44.19605" lon="5.16337">
        <ele>574.844</ele>
        <time>2020-09-03T11:46:17Z</time>
      </trkpt>
      <trkpt lat="44.19605" lon="5.16337">
        <ele>573.926</ele>
        <time>2020-09-03T11:46:17Z</time>
      </trkpt>
      <trkpt lat="44.19617" lon="5.16366">
        <ele>574.178</ele>
        <time>2020-09-03T11:46:19Z</time>
      </trkpt>
      <trkpt lat="44.19623" lon="5.16391">
        <ele>575.963</ele>
        <time>2020-09-03T11:46:21Z</time>
      </trkpt>
      <trkpt lat="44.19626" lon="5.16401">
        <ele>577.934</ele>
        <time>2020-09-03T11:46:22Z</time>
      </trkpt>
      <trkpt lat="44.1963" lon="5.16413">
        <ele>579.093</ele>
        <time>2020-09-03T11:46:23Z</time>
      </trkpt>
      <trkpt lat="44.19635" lon="5.16428">
        <ele>579.05</ele>
        <time>2020-09-03T11:46:24Z</time>
      </trkpt>
      <trkpt lat="44.19639" lon="5.16444">
        <ele>579.044</ele>
        <time>2020-09-03T11:46:25Z</time>
      </trkpt>
      <trkpt lat="44.19641" lon="5.1646">
        <ele>579.464</ele>
        <time>2020-09-03T11:46:26Z</time>
      </trkpt>
      <trkpt lat="44.19639" lon="5.16474">
        <ele>579.998</ele>
        <time>2020-09-03T11:46:27Z</time>
      </trkpt>
      <trkpt lat="44.19634" lon="5.16485">
        <ele>580.914</ele>
        <time>2020-09-03T11:46:28Z</time>
      </trkpt>
      <trkpt lat="44.19628" lon="5.16493">
        <ele>582.235</ele>
        <time>2020-09-03T11:46:29Z</time>
      </trkpt>
      <trkpt lat="44.19623" lon="5.16501">
        <ele>583.936</ele>
        <time>2020-09-03T11:46:30Z</time>
      </trkpt>
      <trkpt lat="44.19619" lon="5.16511">
        <ele>585.39</ele>
        <time>2020-09-03T11:46:31Z</time>
      </trkpt>
      <trkpt lat="44.19615" lon="5.16522">
        <ele>586.354</ele>
        <time>2020-09-03T11:46:32Z</time>
      </trkpt>
      <trkpt lat="44.1961" lon="5.16532">
        <ele>586.715</ele>
        <time>2020-09-03T11:46:33Z</time>
      </trkpt>
      <trkpt lat="44.19605" lon="5.16541">
        <ele>586.564</ele>
        <time>2020-09-03T11:46:34Z</time>
      </trkpt>
      <trkpt lat="44.19598" lon="5.16547">
        <ele>586.45</ele>
        <time>2020-09-03T11:46:35Z</time>
      </trkpt>
      <trkpt lat="44.19592" lon="5.16549">
        <ele>587.023</ele>
        <time>2020-09-03T11:46:36Z</time>
      </trkpt>
      <trkpt lat="44.19581" lon="5.16546">
        <ele>588.505</ele>
        <time>2020-09-03T11:46:38Z</time>
      </trkpt>
      <trkpt lat="44.19581" lon="5.16546">
        <ele>590.591</ele>
        <time>2020-09-03T11:46:38Z</time>
      </trkpt>
      <trkpt lat="44.19574" lon="5.16544">
        <ele>592.862</ele>
        <time>2020-09-03T11:46:40Z</time>
      </trkpt>
      <trkpt lat="44.19569" lon="5.16544">
        <ele>595.171</ele>
        <time>2020-09-03T11:46:41Z</time>
      </trkpt>
      <trkpt lat="44.19564" lon="5.16545">
        <ele>596.961</ele>
        <time>2020-09-03T11:46:42Z</time>
      </trkpt>
      <trkpt lat="44.1956" lon="5.16545">
        <ele>598.675</ele>
        <time>2020-09-03T11:46:43Z</time>
      </trkpt>
      <trkpt lat="44.19555" lon="5.16543">
        <ele>600.674</ele>
        <time>2020-09-03T11:46:44Z</time>
      </trkpt>
      <trkpt lat="44.19551" lon="5.16542">
        <ele>602.875</ele>
        <time>2020-09-03T11:46:45Z</time>
      </trkpt>
      <trkpt lat="44.19547" lon="5.16541">
        <ele>605.103</ele>
        <time>2020-09-03T11:46:46Z</time>
      </trkpt>
      <trkpt lat="44.19542" lon="5.16542">
        <ele>606.562</ele>
        <time>2020-09-03T11:46:47Z</time>
      </trkpt>
      <trkpt lat="44.19537" lon="5.16542">
        <ele>607.974</ele>
        <time>2020-09-03T11:46:48Z</time>
      </trkpt>
      <trkpt lat="44.19532" lon="5.16538">
        <ele>609.045</ele>
        <time>2020-09-03T11:46:49Z</time>
      </trkpt>
      <trkpt lat="44.1953" lon="5.1653">
        <ele>610.31</ele>
        <time>2020-09-03T11:46:50Z</time>
      </trkpt>
      <trkpt lat="44.19532" lon="5.1652">
        <ele>611.478</ele>
        <time>2020-09-03T11:46:51Z</time>
      </trkpt>
      <trkpt lat="44.19532" lon="5.1652">
        <ele>612.958</ele>
        <time>2020-09-03T11:46:51Z</time>
      </trkpt>
      <trkpt lat="44.19546" lon="5.16508">
        <ele>614.812</ele>
        <time>2020-09-03T11:46:53Z</time>
      </trkpt>
      <trkpt lat="44.19564" lon="5.16518">
        <ele>616.31</ele>
        <time>2020-09-03T11:46:55Z</time>
      </trkpt>
      <trkpt lat="44.19571" lon="5.16532">
        <ele>617.757</ele>
        <time>2020-09-03T11:46:56Z</time>
      </trkpt>
      <trkpt lat="44.19574" lon="5.16549">
        <ele>618.661</ele>
        <time>2020-09-03T11:46:57Z</time>
      </trkpt>
      <trkpt lat="44.19573" lon="5.16564">
        <ele>619.772</ele>
        <time>2020-09-03T11:46:58Z</time>
      </trkpt>
      <trkpt lat="44.19573" lon="5.16564">
        <ele>620.819</ele>
        <time>2020-09-03T11:46:58Z</time>
      </trkpt>
      <trkpt lat="44.19563" lon="5.16587">
        <ele>622.007</ele>
        <time>2020-09-03T11:47:00Z</time>
      </trkpt>
      <trkpt lat="44.19557" lon="5.16591">
        <ele>623.461</ele>
        <time>2020-09-03T11:47:01Z</time>
      </trkpt>
      <trkpt lat="44.19551" lon="5.16594">
        <ele>625.151</ele>
        <time>2020-09-03T11:47:02Z</time>
      </trkpt>
      <trkpt lat="44.19546" lon="5.16595">
        <ele>626.808</ele>
        <time>2020-09-03T11:47:03Z</time>
      </trkpt>
      <trkpt lat="44.19542" lon="5.16597">
        <ele>628.24</ele>
        <time>2020-09-03T11:47:04Z</time>
      </trkpt>
      <trkpt lat="44.19537" lon="5.16595">
        <ele>629.124</ele>
        <time>2020-09-03T11:47:05Z</time>
      </trkpt>
      <trkpt lat="44.19532" lon="5.16591">
        <ele>629.558</ele>
        <time>2020-09-03T11:47:06Z</time>
      </trkpt>
      <trkpt lat="44.19528" lon="5.16582">
        <ele>629.307</ele>
        <time>2020-09-03T11:47:07Z</time>
      </trkpt>
      <trkpt lat="44.19527" lon="5.16573">
        <ele>629.224</ele>
        <time>2020-09-03T11:47:08Z</time>
      </trkpt>
      <trkpt lat="44.19528" lon="5.16564">
        <ele>630.071</ele>
        <time>2020-09-03T11:47:09Z</time>
      </trkpt>
      <trkpt lat="44.19532" lon="5.16556">
        <ele>631.883</ele>
        <time>2020-09-03T11:47:10Z</time>
      </trkpt>
      <trkpt lat="44.19538" lon="5.16549">
        <ele>634.237</ele>
        <time>2020-09-03T11:47:11Z</time>
      </trkpt>
      <trkpt lat="44.19544" lon="5.16543">
        <ele>636.445</ele>
        <time>2020-09-03T11:47:12Z</time>
      </trkpt>
      <trkpt lat="44.19552" lon="5.1654">
        <ele>639.241</ele>
        <time>2020-09-03T11:47:13Z</time>
      </trkpt>
      <trkpt lat="44.19561" lon="5.16539">
        <ele>640.818</ele>
        <time>2020-09-03T11:47:14Z</time>
      </trkpt>
      <trkpt lat="44.19561" lon="5.16539">
        <ele>642.921</ele>
        <time>2020-09-03T11:47:14Z</time>
      </trkpt>
      <trkpt lat="44.19579" lon="5.1655">
        <ele>645.184</ele>
        <time>2020-09-03T11:47:16Z</time>
      </trkpt>
      <trkpt lat="44.19594" lon="5.16575">
        <ele>647.344</ele>
        <time>2020-09-03T11:47:18Z</time>
      </trkpt>
      <trkpt lat="44.19594" lon="5.16575">
        <ele>649.053</ele>
        <time>2020-09-03T11:47:18Z</time>
      </trkpt>
      <trkpt lat="44.19602" lon="5.16604">
        <ele>650.678</ele>
        <time>2020-09-03T11:47:20Z</time>
      </trkpt>
      <trkpt lat="44.196" lon="5.16618">
        <ele>652.42</ele>
        <time>2020-09-03T11:47:21Z</time>
      </trkpt>
      <trkpt lat="44.19597" lon="5.16631">
        <ele>654.868</ele>
        <time>2020-09-03T11:47:22Z</time>
      </trkpt>
      <trkpt lat="44.19593" lon="5.16642">
        <ele>657.253</ele>
        <time>2020-09-03T11:47:23Z</time>
      </trkpt>
      <trkpt lat="44.19588" lon="5.1665">
        <ele>659.454</ele>
        <time>2020-09-03T11:47:24Z</time>
      </trkpt>
      <trkpt lat="44.19582" lon="5.16652">
        <ele>661.214</ele>
        <time>2020-09-03T11:47:25Z</time>
      </trkpt>
      <trkpt lat="44.19576" lon="5.16652">
        <ele>662.723</ele>
        <time>2020-09-03T11:47:26Z</time>
      </trkpt>
      <trkpt lat="44.19569" lon="5.16651">
        <ele>664.226</ele>
        <time>2020-09-03T11:47:27Z</time>
      </trkpt>
      <trkpt lat="44.19563" lon="5.16651">
        <ele>666.09</ele>
        <time>2020-09-03T11:47:28Z</time>
      </trkpt>
      <trkpt lat="44.19558" lon="5.16652">
        <ele>668.848</ele>
        <time>2020-09-03T11:47:29Z</time>
      </trkpt>
      <trkpt lat="44.19553" lon="5.16654">
        <ele>671.638</ele>
        <time>2020-09-03T11:47:30Z</time>
      </trkpt>
      <trkpt lat="44.19547" lon="5.16655">
        <ele>674.434</ele>
        <time>2020-09-03T11:47:31Z</time>
      </trkpt>
      <trkpt lat="44.1954" lon="5.16656">
        <ele>677.489</ele>
        <time>2020-09-03T11:47:32Z</time>
      </trkpt>
      <trkpt lat="44.19535" lon="5.16655">
        <ele>680.287</ele>
        <time>2020-09-03T11:47:33Z</time>
      </trkpt>
      <trkpt lat="44.1953" lon="5.16645">
        <ele>682.877</ele>
        <time>2020-09-03T11:47:34Z</time>
      </trkpt>
      <trkpt lat="44.19531" lon="5.16636">
        <ele>684.989</ele>
        <time>2020-09-03T11:47:35Z</time>
      </trkpt>
      <trkpt lat="44.19535" lon="5.16627">
        <ele>687.453</ele>
        <time>2020-09-03T11:47:36Z</time>
      </trkpt>
      <trkpt lat="44.19542" lon="5.16621">
        <ele>689.608</ele>
        <time>2020-09-03T11:47:37Z</time>
      </trkpt>
      <trkpt lat="44.19551" lon="5.16619">
        <ele>691.313</ele>
        <time>2020-09-03T11:47:38Z</time>
      </trkpt>
      <trkpt lat="44.19561" lon="5.16623">
        <ele>693.364</ele>
        <time>2020-09-03T11:47:39Z</time>
      </trkpt>
      <trkpt lat="44.19577" lon="5.16644">
        <ele>694.929</ele>
        <time>2020-09-03T11:47:41Z</time>
      </trkpt>
      <trkpt lat="44.19581" lon="5.16658">
        <ele>696.676</ele>
        <time>2020-09-03T11:47:42Z</time>
      </trkpt>
      <trkpt lat="44.19583" lon="5.16672">
        <ele>697.645</ele>
        <time>2020-09-03T11:47:43Z</time>
      </trkpt>
      <trkpt lat="44.19579" lon="5.16686">
        <ele>699.333</ele>
        <time>2020-09-03T11:47:44Z</time>
      </trkpt>
      <trkpt lat="44.19575" lon="5.167">
        <ele>701.982</ele>
        <time>2020-09-03T11:47:45Z</time>
      </trkpt>
      <trkpt lat="44.19569" lon="5.16711">
        <ele>704.942</ele>
        <time>2020-09-03T11:47:46Z</time>
      </trkpt>
      <trkpt lat="44.19566" lon="5.16723">
        <ele>708.957</ele>
        <time>2020-09-03T11:47:47Z</time>
      </trkpt>
      <trkpt lat="44.19563" lon="5.16734">
        <ele>712.239</ele>
        <time>2020-09-03T11:47:48Z</time>
      </trkpt>
      <trkpt lat="44.19562" lon="5.16745">
        <ele>715.487</ele>
        <time>2020-09-03T11:47:49Z</time>
      </trkpt>
      <trkpt lat="44.19557" lon="5.16754">
        <ele>717.779</ele>
        <time>2020-09-03T11:47:50Z</time>
      </trkpt>
      <trkpt lat="44.19551" lon="5.16763">
        <ele>719.225</ele>
        <time>2020-09-03T11:47:51Z</time>
      </trkpt>
      <trkpt lat="44.19544" lon="5.16769">
        <ele>720.181</ele>
        <time>2020-09-03T11:47:52Z</time>
      </trkpt>
      <trkpt lat="44.19537" lon="5.16772">
        <ele>721.254</ele>
        <time>2020-09-03T11:47:53Z</time>
      </trkpt>
      <trkpt lat="44.19531" lon="5.16765">
        <ele>722.46</ele>
        <time>2020-09-03T11:47:54Z</time>
      </trkpt>
      <trkpt lat="44.19528" lon="5.16758">
        <ele>723.951</ele>
        <time>2020-09-03T11:47:55Z</time>
      </trkpt>
      <trkpt lat="44.19525" lon="5.16752">
        <ele>725.701</ele>
        <time>2020-09-03T11:47:56Z</time>
      </trkpt>
      <trkpt lat="44.19523" lon="5.16746">
        <ele>727.692</ele>
        <time>2020-09-03T11:47:57Z</time>
      </trkpt>
      <trkpt lat="44.19519" lon="5.1674">
        <ele>729.829</ele>
        <time>2020-09-03T11:47:58Z</time>
      </trkpt>
      <trkpt lat="44.19516" lon="5.16735">
        <ele>731.595</ele>
        <time>2020-09-03T11:47:59Z</time>
      </trkpt>
      <trkpt lat="44.19514" lon="5.16728">
        <ele>733.545</ele>
        <time>2020-09-03T11:48:00Z</time>
      </trkpt>
      <trkpt lat="44.19514" lon="5.16728">
        <ele>735.337</ele>
        <time>2020-09-03T11:48:00Z</time>
      </trkpt>
      <trkpt lat="44.19514" lon="5.16728">
        <ele>737.443</ele>
        <time>2020-09-03T11:48:00Z</time>
      </trkpt>
      <trkpt lat="44.19526" lon="5.16707">
        <ele>739.738</ele>
        <time>2020-09-03T11:48:03Z</time>
      </trkpt>
      <trkpt lat="44.19545" lon="5.16709">
        <ele>742.257</ele>
        <time>2020-09-03T11:48:05Z</time>
      </trkpt>
      <trkpt lat="44.19553" lon="5.16718">
        <ele>745.017</ele>
        <time>2020-09-03T11:48:06Z</time>
      </trkpt>
      <trkpt lat="44.19559" lon="5.16731">
        <ele>748.053</ele>
        <time>2020-09-03T11:48:07Z</time>
      </trkpt>
      <trkpt lat="44.19561" lon="5.16747">
        <ele>750.488</ele>
        <time>2020-09-03T11:48:08Z</time>
      </trkpt>
      <trkpt lat="44.19558" lon="5.16763">
        <ele>753.055</ele>
        <time>2020-09-03T11:48:09Z</time>
      </trkpt>
      <trkpt lat="44.19552" lon="5.16777">
        <ele>755.714</ele>
        <time>2020-09-03T11:48:10Z</time>
      </trkpt>
      <trkpt lat="44.19546" lon="5.16786">
        <ele>757.591</ele>
        <time>2020-09-03T11:48:11Z</time>
      </trkpt>
      <trkpt lat="44.19539" lon="5.16793">
        <ele>760.381</ele>
        <time>2020-09-03T11:48:12Z</time>
      </trkpt>
      <trkpt lat="44.19532" lon="5.16793">
        <ele>763.352</ele>
        <time>2020-09-03T11:48:13Z</time>
      </trkpt>
      <trkpt lat="44.19526" lon="5.16792">
        <ele>766.051</ele>
        <time>2020-09-03T11:48:14Z</time>
      </trkpt>
      <trkpt lat="44.19521" lon="5.16789">
        <ele>769.198</ele>
        <time>2020-09-03T11:48:15Z</time>
      </trkpt>
      <trkpt lat="44.19517" lon="5.16783">
        <ele>771.639</ele>
        <time>2020-09-03T11:48:16Z</time>
      </trkpt>
      <trkpt lat="44.19515" lon="5.16776">
        <ele>774.255</ele>
        <time>2020-09-03T11:48:17Z</time>
      </trkpt>
      <trkpt lat="44.19515" lon="5.16767">
        <ele>776.471</ele>
        <time>2020-09-03T11:48:18Z</time>
      </trkpt>
      <trkpt lat="44.19517" lon="5.16758">
        <ele>778.384</ele>
        <time>2020-09-03T11:48:19Z</time>
      </trkpt>
      <trkpt lat="44.19521" lon="5.16752">
        <ele>780.153</ele>
        <time>2020-09-03T11:48:20Z</time>
      </trkpt>
      <trkpt lat="44.19528" lon="5.16749">
        <ele>782.11</ele>
        <time>2020-09-03T11:48:21Z</time>
      </trkpt>
      <trkpt lat="44.19538" lon="5.16751">
        <ele>784.273</ele>
        <time>2020-09-03T11:48:22Z</time>
      </trkpt>
      <trkpt lat="44.19548" lon="5.16757">
        <ele>787.078</ele>
        <time>2020-09-03T11:48:23Z</time>
      </trkpt>
      <trkpt lat="44.19557" lon="5.16767">
        <ele>790.159</ele>
        <time>2020-09-03T11:48:24Z</time>
      </trkpt>
      <trkpt lat="44.19565" lon="5.1678">
        <ele>792.979</ele>
        <time>2020-09-03T11:48:25Z</time>
      </trkpt>
      <trkpt lat="44.19565" lon="5.1678">
        <ele>796.168</ele>
        <time>2020-09-03T11:48:25Z</time>
      </trkpt>
      <trkpt lat="44.19565" lon="5.1678">
        <ele>799.159</ele>
        <time>2020-09-03T11:48:25Z</time>
      </trkpt>
      <trkpt lat="44.19566" lon="5.16826">
        <ele>802.55</ele>
        <time>2020-09-03T11:48:28Z</time>
      </trkpt>
      <trkpt lat="44.19549" lon="5.16843">
        <ele>804.902</ele>
        <time>2020-09-03T11:48:30Z</time>
      </trkpt>
      <trkpt lat="44.19541" lon="5.16843">
        <ele>807.131</ele>
        <time>2020-09-03T11:48:31Z</time>
      </trkpt>
      <trkpt lat="44.19537" lon="5.16838">
        <ele>809.614</ele>
        <time>2020-09-03T11:48:32Z</time>
      </trkpt>
      <trkpt lat="44.19536" lon="5.1683">
        <ele>812.375</ele>
        <time>2020-09-03T11:48:33Z</time>
      </trkpt>
      <trkpt lat="44.19538" lon="5.16822">
        <ele>815.656</ele>
        <time>2020-09-03T11:48:34Z</time>
      </trkpt>
      <trkpt lat="44.19543" lon="5.16817">
        <ele>818.173</ele>
        <time>2020-09-03T11:48:35Z</time>
      </trkpt>
      <trkpt lat="44.19548" lon="5.16812">
        <ele>821.268</ele>
        <time>2020-09-03T11:48:36Z</time>
      </trkpt>
      <trkpt lat="44.19554" lon="5.16811">
        <ele>824.08</ele>
        <time>2020-09-03T11:48:37Z</time>
      </trkpt>
      <trkpt lat="44.19554" lon="5.16811">
        <ele>825.497</ele>
        <time>2020-09-03T11:48:37Z</time>
      </trkpt>
      <trkpt lat="44.19575" lon="5.16829">
        <ele>829.148</ele>
        <time>2020-09-03T11:48:39Z</time>
      </trkpt>
      <trkpt lat="44.19584" lon="5.16842">
        <ele>832.362</ele>
        <time>2020-09-03T11:48:40Z</time>
      </trkpt>
      <trkpt lat="44.19589" lon="5.16855">
        <ele>835.693</ele>
        <time>2020-09-03T11:48:41Z</time>
      </trkpt>
      <trkpt lat="44.19592" lon="5.1687">
        <ele>838.073</ele>
        <time>2020-09-03T11:48:42Z</time>
      </trkpt>
      <trkpt lat="44.19592" lon="5.16886">
        <ele>840.428</ele>
        <time>2020-09-03T11:48:43Z</time>
      </trkpt>
      <trkpt lat="44.19588" lon="5.16918">
        <ele>843.048</ele>
        <time>2020-09-03T11:48:45Z</time>
      </trkpt>
      <trkpt lat="44.19585" lon="5.16932">
        <ele>846.64</ele>
        <time>2020-09-03T11:48:46Z</time>
      </trkpt>
      <trkpt lat="44.19581" lon="5.16945">
        <ele>849.66</ele>
        <time>2020-09-03T11:48:47Z</time>
      </trkpt>
      <trkpt lat="44.19577" lon="5.16957">
        <ele>852.835</ele>
        <time>2020-09-03T11:48:48Z</time>
      </trkpt>
      <trkpt lat="44.19577" lon="5.16957">
        <ele>855.934</ele>
        <time>2020-09-03T11:48:48Z</time>
      </trkpt>
      <trkpt lat="44.19563" lon="5.16974">
        <ele>858.255</ele>
        <time>2020-09-03T11:48:50Z</time>
      </trkpt>
      <trkpt lat="44.19555" lon="5.16977">
        <ele>860.312</ele>
        <time>2020-09-03T11:48:51Z</time>
      </trkpt>
      <trkpt lat="44.19548" lon="5.16976">
        <ele>862.182</ele>
        <time>2020-09-03T11:48:52Z</time>
      </trkpt>
      <trkpt lat="44.19541" lon="5.16973">
        <ele>864.184</ele>
        <time>2020-09-03T11:48:53Z</time>
      </trkpt>
      <trkpt lat="44.19537" lon="5.1697">
        <ele>866.298</ele>
        <time>2020-09-03T11:48:54Z</time>
      </trkpt>
      <trkpt lat="44.19532" lon="5.16965">
        <ele>869.011</ele>
        <time>2020-09-03T11:48:55Z</time>
      </trkpt>
      <trkpt lat="44.19528" lon="5.1696">
        <ele>870.738</ele>
        <time>2020-09-03T11:48:56Z</time>
      </trkpt>
      <trkpt lat="44.19523" lon="5.16955">
        <ele>872.516</ele>
        <time>2020-09-03T11:48:57Z</time>
      </trkpt>
      <trkpt lat="44.19523" lon="5.16955">
        <ele>874.268</ele>
        <time>2020-09-03T11:48:57Z</time>
      </trkpt>
      <trkpt lat="44.19526" lon="5.16933">
        <ele>876.157</ele>
        <time>2020-09-03T11:49:00Z</time>
      </trkpt>
      <trkpt lat="44.19533" lon="5.16929">
        <ele>878.474</ele>
        <time>2020-09-03T11:49:01Z</time>
      </trkpt>
      <trkpt lat="44.19541" lon="5.16927">
        <ele>881.372</ele>
        <time>2020-09-03T11:49:02Z</time>
      </trkpt>
      <trkpt lat="44.1955" lon="5.16932">
        <ele>884.141</ele>
        <time>2020-09-03T11:49:03Z</time>
      </trkpt>
      <trkpt lat="44.19558" lon="5.16942">
        <ele>886.94</ele>
        <time>2020-09-03T11:49:04Z</time>
      </trkpt>
      <trkpt lat="44.19565" lon="5.16957">
        <ele>889.965</ele>
        <time>2020-09-03T11:49:05Z</time>
      </trkpt>
      <trkpt lat="44.1957" lon="5.16973">
        <ele>892.251</ele>
        <time>2020-09-03T11:49:06Z</time>
      </trkpt>
      <trkpt lat="44.1957" lon="5.16989">
        <ele>893.744</ele>
        <time>2020-09-03T11:49:07Z</time>
      </trkpt>
      <trkpt lat="44.19568" lon="5.17004">
        <ele>896.363</ele>
        <time>2020-09-03T11:49:08Z</time>
      </trkpt>
      <trkpt lat="44.19561" lon="5.17016">
        <ele>899.749</ele>
        <time>2020-09-03T11:49:09Z</time>
      </trkpt>
      <trkpt lat="44.19555" lon="5.17025">
        <ele>903.089</ele>
        <time>2020-09-03T11:49:10Z</time>
      </trkpt>
      <trkpt lat="44.19548" lon="5.17032">
        <ele>905.657</ele>
        <time>2020-09-03T11:49:11Z</time>
      </trkpt>
      <trkpt lat="44.19541" lon="5.17034">
        <ele>907.692</ele>
        <time>2020-09-03T11:49:12Z</time>
      </trkpt>
      <trkpt lat="44.19535" lon="5.17033">
        <ele>908.988</ele>
        <time>2020-09-03T11:49:13Z</time>
      </trkpt>
      <trkpt lat="44.1953" lon="5.17028">
        <ele>910.379</ele>
        <time>2020-09-03T11:49:14Z</time>
      </trkpt>
      <trkpt lat="44.19526" lon="5.17023">
        <ele>911.797</ele>
        <time>2020-09-03T11:49:15Z</time>
      </trkpt>
      <trkpt lat="44.19526" lon="5.17023">
        <ele>914.086</ele>
        <time>2020-09-03T11:49:15Z</time>
      </trkpt>
      <trkpt lat="44.19518" lon="5.17007">
        <ele>916.161</ele>
        <time>2020-09-03T11:49:18Z</time>
      </trkpt>
      <trkpt lat="44.19518" lon="5.17007">
        <ele>918.198</ele>
        <time>2020-09-03T11:49:18Z</time>
      </trkpt>
      <trkpt lat="44.19513" lon="5.16997">
        <ele>920.027</ele>
        <time>2020-09-03T11:49:20Z</time>
      </trkpt>
      <trkpt lat="44.1951" lon="5.16992">
        <ele>923.011</ele>
        <time>2020-09-03T11:49:21Z</time>
      </trkpt>
      <trkpt lat="44.19506" lon="5.16987">
        <ele>925.789</ele>
        <time>2020-09-03T11:49:22Z</time>
      </trkpt>
      <trkpt lat="44.19501" lon="5.16984">
        <ele>928.494</ele>
        <time>2020-09-03T11:49:23Z</time>
      </trkpt>
      <trkpt lat="44.19496" lon="5.16982">
        <ele>930.573</ele>
        <time>2020-09-03T11:49:24Z</time>
      </trkpt>
      <trkpt lat="44.19491" lon="5.16979">
        <ele>932.432</ele>
        <time>2020-09-03T11:49:25Z</time>
      </trkpt>
      <trkpt lat="44.19487" lon="5.16974">
        <ele>934.659</ele>
        <time>2020-09-03T11:49:26Z</time>
      </trkpt>
      <trkpt lat="44.19484" lon="5.16968">
        <ele>936.329</ele>
        <time>2020-09-03T11:49:27Z</time>
      </trkpt>
      <trkpt lat="44.19488" lon="5.16958">
        <ele>938.108</ele>
        <time>2020-09-03T11:49:28Z</time>
      </trkpt>
      <trkpt lat="44.19491" lon="5.16951">
        <ele>940.275</ele>
        <time>2020-09-03T11:49:29Z</time>
      </trkpt>
      <trkpt lat="44.19499" lon="5.16948">
        <ele>942.811</ele>
        <time>2020-09-03T11:49:30Z</time>
      </trkpt>
      <trkpt lat="44.19507" lon="5.16949">
        <ele>945.443</ele>
        <time>2020-09-03T11:49:31Z</time>
      </trkpt>
      <trkpt lat="44.19516" lon="5.16956">
        <ele>948.887</ele>
        <time>2020-09-03T11:49:32Z</time>
      </trkpt>
      <trkpt lat="44.19522" lon="5.16968">
        <ele>951.554</ele>
        <time>2020-09-03T11:49:33Z</time>
      </trkpt>
      <trkpt lat="44.19524" lon="5.16983">
        <ele>953.492</ele>
        <time>2020-09-03T11:49:34Z</time>
      </trkpt>
      <trkpt lat="44.19524" lon="5.16983">
        <ele>954.997</ele>
        <time>2020-09-03T11:49:34Z</time>
      </trkpt>
      <trkpt lat="44.19517" lon="5.17012">
        <ele>957.299</ele>
        <time>2020-09-03T11:49:36Z</time>
      </trkpt>
      <trkpt lat="44.19512" lon="5.17024">
        <ele>959.845</ele>
        <time>2020-09-03T11:49:37Z</time>
      </trkpt>
      <trkpt lat="44.19506" lon="5.17035">
        <ele>962.323</ele>
        <time>2020-09-03T11:49:38Z</time>
      </trkpt>
      <trkpt lat="44.195" lon="5.17046">
        <ele>965.396</ele>
        <time>2020-09-03T11:49:39Z</time>
      </trkpt>
      <trkpt lat="44.19494" lon="5.17057">
        <ele>968.617</ele>
        <time>2020-09-03T11:49:40Z</time>
      </trkpt>
      <trkpt lat="44.19494" lon="5.17057">
        <ele>971.497</ele>
        <time>2020-09-03T11:49:40Z</time>
      </trkpt>
      <trkpt lat="44.19472" lon="5.17084">
        <ele>973.663</ele>
        <time>2020-09-03T11:49:43Z</time>
      </trkpt>
      <trkpt lat="44.19472" lon="5.17084">
        <ele>975.119</ele>
        <time>2020-09-03T11:49:43Z</time>
      </trkpt>
      <trkpt lat="44.19457" lon="5.17085">
        <ele>976.459</ele>
        <time>2020-09-03T11:49:45Z</time>
      </trkpt>
      <trkpt lat="44.19452" lon="5.17082">
        <ele>977.561</ele>
        <time>2020-09-03T11:49:46Z</time>
      </trkpt>
      <trkpt lat="44.19449" lon="5.17078">
        <ele>979.184</ele>
        <time>2020-09-03T11:49:47Z</time>
      </trkpt>
      <trkpt lat="44.19446" lon="5.17072">
        <ele>981.055</ele>
        <time>2020-09-03T11:49:48Z</time>
      </trkpt>
      <trkpt lat="44.19444" lon="5.17066">
        <ele>982.538</ele>
        <time>2020-09-03T11:49:49Z</time>
      </trkpt>
      <trkpt lat="44.19443" lon="5.1706">
        <ele>984.272</ele>
        <time>2020-09-03T11:49:50Z</time>
      </trkpt>
      <trkpt lat="44.19441" lon="5.17054">
        <ele>985.832</ele>
        <time>2020-09-03T11:49:51Z</time>
      </trkpt>
      <trkpt lat="44.19439" lon="5.17047">
        <ele>987.877</ele>
        <time>2020-09-03T11:49:52Z</time>
      </trkpt>
      <trkpt lat="44.19437" lon="5.1704">
        <ele>990.221</ele>
        <time>2020-09-03T11:49:53Z</time>
      </trkpt>
      <trkpt lat="44.19435" lon="5.17034">
        <ele>993.069</ele>
        <time>2020-09-03T11:49:54Z</time>
      </trkpt>
      <trkpt lat="44.19433" lon="5.17028">
        <ele>996.171</ele>
        <time>2020-09-03T11:49:55Z</time>
      </trkpt>
      <trkpt lat="44.19431" lon="5.17022">
        <ele>999.192</ele>
        <time>2020-09-03T11:49:56Z</time>
      </trkpt>
      <trkpt lat="44.19428" lon="5.17016">
        <ele>1001.889</ele>
        <time>2020-09-03T11:49:57Z</time>
      </trkpt>
      <trkpt lat="44.19425" lon="5.17011">
        <ele>1004.16</ele>
        <time>2020-09-03T11:49:58Z</time>
      </trkpt>
      <trkpt lat="44.19422" lon="5.17005">
        <ele>1006.603</ele>
        <time>2020-09-03T11:49:59Z</time>
      </trkpt>
      <trkpt lat="44.19422" lon="5.17005">
        <ele>1008.708</ele>
        <time>2020-09-03T11:49:59Z</time>
      </trkpt>
      <trkpt lat="44.19422" lon="5.17005">
        <ele>1010.797</ele>
        <time>2020-09-03T11:49:59Z</time>
      </trkpt>
      <trkpt lat="44.19422" lon="5.17005">
        <ele>1012.398</ele>
        <time>2020-09-03T11:49:59Z</time>
      </trkpt>
      <trkpt lat="44.19422" lon="5.17005">
        <ele>1015.574</ele>
        <time>2020-09-03T11:49:59Z</time>
      </trkpt>
      <trkpt lat="44.19439" lon="5.16976">
        <ele>1019.293</ele>
        <time>2020-09-03T11:50:04Z</time>
      </trkpt>
      <trkpt lat="44.19456" lon="5.16987">
        <ele>1023.238</ele>
        <time>2020-09-03T11:50:06Z</time>
      </trkpt>
      <trkpt lat="44.19461" lon="5.17001">
        <ele>1026.713</ele>
        <time>2020-09-03T11:50:07Z</time>
      </trkpt>
      <trkpt lat="44.19465" lon="5.17015">
        <ele>1029.662</ele>
        <time>2020-09-03T11:50:08Z</time>
      </trkpt>
      <trkpt lat="44.19465" lon="5.17015">
        <ele>1032.724</ele>
        <time>2020-09-03T11:50:08Z</time>
      </trkpt>
      <trkpt lat="44.19458" lon="5.17042">
        <ele>1035.455</ele>
        <time>2020-09-03T11:50:10Z</time>
      </trkpt>
      <trkpt lat="44.1945" lon="5.17051">
        <ele>1037.942</ele>
        <time>2020-09-03T11:50:11Z</time>
      </trkpt>
      <trkpt lat="44.19442" lon="5.17056">
        <ele>1040.487</ele>
        <time>2020-09-03T11:50:12Z</time>
      </trkpt>
      <trkpt lat="44.19434" lon="5.17061">
        <ele>1043.697</ele>
        <time>2020-09-03T11:50:13Z</time>
      </trkpt>
      <trkpt lat="44.19427" lon="5.17057">
        <ele>1046.423</ele>
        <time>2020-09-03T11:50:14Z</time>
      </trkpt>
      <trkpt lat="44.19422" lon="5.17054">
        <ele>1049.536</ele>
        <time>2020-09-03T11:50:15Z</time>
      </trkpt>
      <trkpt lat="44.19417" lon="5.17049">
        <ele>1052.689</ele>
        <time>2020-09-03T11:50:16Z</time>
      </trkpt>
      <trkpt lat="44.19417" lon="5.17049">
        <ele>1055.497</ele>
        <time>2020-09-03T11:50:16Z</time>
      </trkpt>
      <trkpt lat="44.19409" lon="5.17039">
        <ele>1057.217</ele>
        <time>2020-09-03T11:50:18Z</time>
      </trkpt>
      <trkpt lat="44.19405" lon="5.17032">
        <ele>1058.558</ele>
        <time>2020-09-03T11:50:19Z</time>
      </trkpt>
      <trkpt lat="44.19405" lon="5.17024">
        <ele>1059.991</ele>
        <time>2020-09-03T11:50:20Z</time>
      </trkpt>
      <trkpt lat="44.19406" lon="5.17015">
        <ele>1061.863</ele>
        <time>2020-09-03T11:50:21Z</time>
      </trkpt>
      <trkpt lat="44.1941" lon="5.17007">
        <ele>1064.36</ele>
        <time>2020-09-03T11:50:22Z</time>
      </trkpt>
      <trkpt lat="44.19414" lon="5.17002">
        <ele>1067.263</ele>
        <time>2020-09-03T11:50:23Z</time>
      </trkpt>
      <trkpt lat="44.19424" lon="5.16998">
        <ele>1070.359</ele>
        <time>2020-09-03T11:50:25Z</time>
      </trkpt>
      <trkpt lat="44.19433" lon="5.16999">
        <ele>1073.544</ele>
        <time>2020-09-03T11:50:26Z</time>
      </trkpt>
      <trkpt lat="44.19441" lon="5.17001">
        <ele>1076.664</ele>
        <time>2020-09-03T11:50:27Z</time>
      </trkpt>
      <trkpt lat="44.1945" lon="5.17005">
        <ele>1079.548</ele>
        <time>2020-09-03T11:50:28Z</time>
      </trkpt>
      <trkpt lat="44.1945" lon="5.17005">
        <ele>1082.066</ele>
        <time>2020-09-03T11:50:28Z</time>
      </trkpt>
      <trkpt lat="44.19465" lon="5.17026">
        <ele>1084.485</ele>
        <time>2020-09-03T11:50:30Z</time>
      </trkpt>
      <trkpt lat="44.1947" lon="5.1704">
        <ele>1086.663</ele>
        <time>2020-09-03T11:50:31Z</time>
      </trkpt>
      <trkpt lat="44.1947" lon="5.17055">
        <ele>1089.292</ele>
        <time>2020-09-03T11:50:32Z</time>
      </trkpt>
      <trkpt lat="44.19469" lon="5.1707">
        <ele>1092.012</ele>
        <time>2020-09-03T11:50:33Z</time>
      </trkpt>
      <trkpt lat="44.19465" lon="5.17083">
        <ele>1095.214</ele>
        <time>2020-09-03T11:50:34Z</time>
      </trkpt>
      <trkpt lat="44.19458" lon="5.17094">
        <ele>1097.652</ele>
        <time>2020-09-03T11:50:35Z</time>
      </trkpt>
      <trkpt lat="44.1945" lon="5.17103">
        <ele>1099.766</ele>
        <time>2020-09-03T11:50:36Z</time>
      </trkpt>
      <trkpt lat="44.19437" lon="5.17106">
        <ele>1101.781</ele>
        <time>2020-09-03T11:50:37Z</time>
      </trkpt>
      <trkpt lat="44.19428" lon="5.17107">
        <ele>1104.754</ele>
        <time>2020-09-03T11:50:38Z</time>
      </trkpt>
      <trkpt lat="44.19419" lon="5.17104">
        <ele>1107.713</ele>
        <time>2020-09-03T11:50:39Z</time>
      </trkpt>
      <trkpt lat="44.19419" lon="5.17104">
        <ele>1110.488</ele>
        <time>2020-09-03T11:50:39Z</time>
      </trkpt>
      <trkpt lat="44.19398" lon="5.17088">
        <ele>1114.394</ele>
        <time>2020-09-03T11:50:42Z</time>
      </trkpt>
      <trkpt lat="44.19391" lon="5.17085">
        <ele>1118.25</ele>
        <time>2020-09-03T11:50:43Z</time>
      </trkpt>
      <trkpt lat="44.19383" lon="5.17083">
        <ele>1121.376</ele>
        <time>2020-09-03T11:50:44Z</time>
      </trkpt>
      <trkpt lat="44.19375" lon="5.1708">
        <ele>1124.512</ele>
        <time>2020-09-03T11:50:45Z</time>
      </trkpt>
      <trkpt lat="44.19369" lon="5.17075">
        <ele>1127.053</ele>
        <time>2020-09-03T11:50:46Z</time>
      </trkpt>
      <trkpt lat="44.19365" lon="5.17068">
        <ele>1129.259</ele>
        <time>2020-09-03T11:50:47Z</time>
      </trkpt>
      <trkpt lat="44.19365" lon="5.17061">
        <ele>1131.324</ele>
        <time>2020-09-03T11:50:48Z</time>
      </trkpt>
      <trkpt lat="44.19367" lon="5.17055">
        <ele>1133.172</ele>
        <time>2020-09-03T11:50:49Z</time>
      </trkpt>
      <trkpt lat="44.19372" lon="5.17052">
        <ele>1134.697</ele>
        <time>2020-09-03T11:50:50Z</time>
      </trkpt>
      <trkpt lat="44.19378" lon="5.1705">
        <ele>1136.317</ele>
        <time>2020-09-03T11:50:51Z</time>
      </trkpt>
      <trkpt lat="44.19385" lon="5.17052">
        <ele>1137.913</ele>
        <time>2020-09-03T11:50:52Z</time>
      </trkpt>
      <trkpt lat="44.19393" lon="5.17055">
        <ele>1139.79</ele>
        <time>2020-09-03T11:50:53Z</time>
      </trkpt>
      <trkpt lat="44.19401" lon="5.1706">
        <ele>1141.684</ele>
        <time>2020-09-03T11:50:54Z</time>
      </trkpt>
      <trkpt lat="44.19409" lon="5.17068">
        <ele>1143.673</ele>
        <time>2020-09-03T11:50:55Z</time>
      </trkpt>
      <trkpt lat="44.19415" lon="5.17079">
        <ele>1145.556</ele>
        <time>2020-09-03T11:50:56Z</time>
      </trkpt>
      <trkpt lat="44.19419" lon="5.17093">
        <ele>1147.83</ele>
        <time>2020-09-03T11:50:57Z</time>
      </trkpt>
      <trkpt lat="44.19419" lon="5.17093">
        <ele>1149.274</ele>
        <time>2020-09-03T11:50:57Z</time>
      </trkpt>
      <trkpt lat="44.19418" lon="5.17125">
        <ele>1151.926</ele>
        <time>2020-09-03T11:50:59Z</time>
      </trkpt>
      <trkpt lat="44.19418" lon="5.17125">
        <ele>1154.548</ele>
        <time>2020-09-03T11:50:59Z</time>
      </trkpt>
      <trkpt lat="44.19418" lon="5.17125">
        <ele>1158.155</ele>
        <time>2020-09-03T11:50:59Z</time>
      </trkpt>
      <trkpt lat="44.19418" lon="5.17125">
        <ele>1161.865</ele>
        <time>2020-09-03T11:50:59Z</time>
      </trkpt>
      <trkpt lat="44.19407" lon="5.17182">
        <ele>1164.918</ele>
        <time>2020-09-03T11:51:03Z</time>
      </trkpt>
      <trkpt lat="44.19413" lon="5.1721">
        <ele>1168.028</ele>
        <time>2020-09-03T11:51:05Z</time>
      </trkpt>
      <trkpt lat="44.19418" lon="5.17223">
        <ele>1170.335</ele>
        <time>2020-09-03T11:51:06Z</time>
      </trkpt>
      <trkpt lat="44.19426" lon="5.17233">
        <ele>1172.584</ele>
        <time>2020-09-03T11:51:07Z</time>
      </trkpt>
      <trkpt lat="44.19434" lon="5.17241">
        <ele>1175.431</ele>
        <time>2020-09-03T11:51:08Z</time>
      </trkpt>
      <trkpt lat="44.19434" lon="5.17241">
        <ele>1178.713</ele>
        <time>2020-09-03T11:51:08Z</time>
      </trkpt>
      <trkpt lat="44.19448" lon="5.17252">
        <ele>1181.717</ele>
        <time>2020-09-03T11:51:10Z</time>
      </trkpt>
      <trkpt lat="44.19456" lon="5.17256">
        <ele>1184.342</ele>
        <time>2020-09-03T11:51:11Z</time>
      </trkpt>
      <trkpt lat="44.19464" lon="5.17259">
        <ele>1187.229</ele>
        <time>2020-09-03T11:51:12Z</time>
      </trkpt>
      <trkpt lat="44.19473" lon="5.17258">
        <ele>1189.404</ele>
        <time>2020-09-03T11:51:13Z</time>
      </trkpt>
      <trkpt lat="44.19479" lon="5.17253">
        <ele>1191.688</ele>
        <time>2020-09-03T11:51:14Z</time>
      </trkpt>
      <trkpt lat="44.1948" lon="5.17244">
        <ele>1193.574</ele>
        <time>2020-09-03T11:51:15Z</time>
      </trkpt>
      <trkpt lat="44.19479" lon="5.17236">
        <ele>1195.195</ele>
        <time>2020-09-03T11:51:16Z</time>
      </trkpt>
      <trkpt lat="44.19474" lon="5.17231">
        <ele>1197.172</ele>
        <time>2020-09-03T11:51:17Z</time>
      </trkpt>
      <trkpt lat="44.19467" lon="5.1723">
        <ele>1199.03</ele>
        <time>2020-09-03T11:51:18Z</time>
      </trkpt>
      <trkpt lat="44.19459" lon="5.17233">
        <ele>1200.949</ele>
        <time>2020-09-03T11:51:19Z</time>
      </trkpt>
      <trkpt lat="44.19451" lon="5.17237">
        <ele>1203.456</ele>
        <time>2020-09-03T11:51:20Z</time>
      </trkpt>
      <trkpt lat="44.19444" lon="5.17244">
        <ele>1205.627</ele>
        <time>2020-09-03T11:51:21Z</time>
      </trkpt>
      <trkpt lat="44.19437" lon="5.17253">
        <ele>1208.169</ele>
        <time>2020-09-03T11:51:22Z</time>
      </trkpt>
      <trkpt lat="44.19431" lon="5.17265">
        <ele>1210.462</ele>
        <time>2020-09-03T11:51:23Z</time>
      </trkpt>
      <trkpt lat="44.19427" lon="5.17281">
        <ele>1213.461</ele>
        <time>2020-09-03T11:51:24Z</time>
      </trkpt>
      <trkpt lat="44.19425" lon="5.17297">
        <ele>1215.985</ele>
        <time>2020-09-03T11:51:25Z</time>
      </trkpt>
      <trkpt lat="44.19425" lon="5.17297">
        <ele>1218.202</ele>
        <time>2020-09-03T11:51:25Z</time>
      </trkpt>
      <trkpt lat="44.19429" lon="5.17326">
        <ele>1221.316</ele>
        <time>2020-09-03T11:51:27Z</time>
      </trkpt>
      <trkpt lat="44.19435" lon="5.17337">
        <ele>1223.31</ele>
        <time>2020-09-03T11:51:28Z</time>
      </trkpt>
      <trkpt lat="44.19442" lon="5.17344">
        <ele>1225.67</ele>
        <time>2020-09-03T11:51:29Z</time>
      </trkpt>
      <trkpt lat="44.1945" lon="5.1735">
        <ele>1227.953</ele>
        <time>2020-09-03T11:51:30Z</time>
      </trkpt>
      <trkpt lat="44.1945" lon="5.1735">
        <ele>1230.776</ele>
        <time>2020-09-03T11:51:30Z</time>
      </trkpt>
      <trkpt lat="44.1945" lon="5.1735">
        <ele>1233.632</ele>
        <time>2020-09-03T11:51:30Z</time>
      </trkpt>
      <trkpt lat="44.19469" lon="5.1736">
        <ele>1235.321</ele>
        <time>2020-09-03T11:51:33Z</time>
      </trkpt>
      <trkpt lat="44.19484" lon="5.17358">
        <ele>1236.47</ele>
        <time>2020-09-03T11:51:35Z</time>
      </trkpt>
      <trkpt lat="44.19491" lon="5.17353">
        <ele>1237.267</ele>
        <time>2020-09-03T11:51:36Z</time>
      </trkpt>
      <trkpt lat="44.19496" lon="5.17344">
        <ele>1238.55</ele>
        <time>2020-09-03T11:51:37Z</time>
      </trkpt>
      <trkpt lat="44.19499" lon="5.17335">
        <ele>1241.018</ele>
        <time>2020-09-03T11:51:38Z</time>
      </trkpt>
      <trkpt lat="44.19499" lon="5.17328">
        <ele>1244.402</ele>
        <time>2020-09-03T11:51:39Z</time>
      </trkpt>
      <trkpt lat="44.195" lon="5.17322">
        <ele>1247.092</ele>
        <time>2020-09-03T11:51:40Z</time>
      </trkpt>
      <trkpt lat="44.195" lon="5.17316">
        <ele>1248.942</ele>
        <time>2020-09-03T11:51:41Z</time>
      </trkpt>
      <trkpt lat="44.19501" lon="5.1731">
        <ele>1249.99</ele>
        <time>2020-09-03T11:51:42Z</time>
      </trkpt>
      <trkpt lat="44.19499" lon="5.17304">
        <ele>1250.187</ele>
        <time>2020-09-03T11:51:43Z</time>
      </trkpt>
      <trkpt lat="44.19495" lon="5.17299">
        <ele>1250.082</ele>
        <time>2020-09-03T11:51:44Z</time>
      </trkpt>
      <trkpt lat="44.19495" lon="5.17299">
        <ele>1249.966</ele>
        <time>2020-09-03T11:51:44Z</time>
      </trkpt>
      <trkpt lat="44.19479" lon="5.17294">
        <ele>1250.058</ele>
        <time>2020-09-03T11:51:46Z</time>
      </trkpt>
      <trkpt lat="44.19469" lon="5.17296">
        <ele>1250.352</ele>
        <time>2020-09-03T11:51:47Z</time>
      </trkpt>
      <trkpt lat="44.1946" lon="5.17303">
        <ele>1250.914</ele>
        <time>2020-09-03T11:51:48Z</time>
      </trkpt>
      <trkpt lat="44.19445" lon="5.17321">
        <ele>1251.306</ele>
        <time>2020-09-03T11:51:50Z</time>
      </trkpt>
      <trkpt lat="44.19437" lon="5.17332">
        <ele>1251.374</ele>
        <time>2020-09-03T11:51:51Z</time>
      </trkpt>
      <trkpt lat="44.1943" lon="5.17344">
        <ele>1251.437</ele>
        <time>2020-09-03T11:51:52Z</time>
      </trkpt>
      <trkpt lat="44.19423" lon="5.17358">
        <ele>1252.197</ele>
        <time>2020-09-03T11:51:53Z</time>
      </trkpt>
      <trkpt lat="44.19417" lon="5.17371">
        <ele>1253.354</ele>
        <time>2020-09-03T11:51:54Z</time>
      </trkpt>
      <trkpt lat="44.19411" lon="5.17384">
        <ele>1256.041</ele>
        <time>2020-09-03T11:51:55Z</time>
      </trkpt>
      <trkpt lat="44.19407" lon="5.17397">
        <ele>1259.082</ele>
        <time>2020-09-03T11:51:56Z</time>
      </trkpt>
      <trkpt lat="44.19403" lon="5.17411">
        <ele>1261.795</ele>
        <time>2020-09-03T11:51:57Z</time>
      </trkpt>
      <trkpt lat="44.19401" lon="5.17426">
        <ele>1263.807</ele>
        <time>2020-09-03T11:51:58Z</time>
      </trkpt>
      <trkpt lat="44.194" lon="5.17441">
        <ele>1265.392</ele>
        <time>2020-09-03T11:51:59Z</time>
      </trkpt>
      <trkpt lat="44.19402" lon="5.17457">
        <ele>1266.485</ele>
        <time>2020-09-03T11:52:00Z</time>
      </trkpt>
      <trkpt lat="44.19407" lon="5.17472">
        <ele>1267.265</ele>
        <time>2020-09-03T11:52:01Z</time>
      </trkpt>
      <trkpt lat="44.19414" lon="5.17485">
        <ele>1267.968</ele>
        <time>2020-09-03T11:52:02Z</time>
      </trkpt>
      <trkpt lat="44.19422" lon="5.17495">
        <ele>1269.026</ele>
        <time>2020-09-03T11:52:03Z</time>
      </trkpt>
      <trkpt lat="44.1943" lon="5.17504">
        <ele>1270.664</ele>
        <time>2020-09-03T11:52:04Z</time>
      </trkpt>
      <trkpt lat="44.19436" lon="5.17511">
        <ele>1272.182</ele>
        <time>2020-09-03T11:52:05Z</time>
      </trkpt>
      <trkpt lat="44.19448" lon="5.17524">
        <ele>1274.21</ele>
        <time>2020-09-03T11:52:07Z</time>
      </trkpt>
      <trkpt lat="44.19455" lon="5.1753">
        <ele>1275.615</ele>
        <time>2020-09-03T11:52:08Z</time>
      </trkpt>
      <trkpt lat="44.19455" lon="5.1753">
        <ele>1277.273</ele>
        <time>2020-09-03T11:52:08Z</time>
      </trkpt>
      <trkpt lat="44.19468" lon="5.17548">
        <ele>1278.845</ele>
        <time>2020-09-03T11:52:10Z</time>
      </trkpt>
      <trkpt lat="44.19472" lon="5.17563">
        <ele>1280.447</ele>
        <time>2020-09-03T11:52:11Z</time>
      </trkpt>
      <trkpt lat="44.19474" lon="5.1758">
        <ele>1281.702</ele>
        <time>2020-09-03T11:52:12Z</time>
      </trkpt>
      <trkpt lat="44.19474" lon="5.17597">
        <ele>1282.513</ele>
        <time>2020-09-03T11:52:13Z</time>
      </trkpt>
      <trkpt lat="44.19471" lon="5.17612">
        <ele>1282.906</ele>
        <time>2020-09-03T11:52:14Z</time>
      </trkpt>
      <trkpt lat="44.19468" lon="5.17627">
        <ele>1282.18</ele>
        <time>2020-09-03T11:52:15Z</time>
      </trkpt>
      <trkpt lat="44.19464" lon="5.17643">
        <ele>1280.252</ele>
        <time>2020-09-03T11:52:16Z</time>
      </trkpt>
      <trkpt lat="44.19459" lon="5.1766">
        <ele>1277.915</ele>
        <time>2020-09-03T11:52:17Z</time>
      </trkpt>
      <trkpt lat="44.19459" lon="5.1766">
        <ele>1276.393</ele>
        <time>2020-09-03T11:52:17Z</time>
      </trkpt>
      <trkpt lat="44.19447" lon="5.17694">
        <ele>1276.228</ele>
        <time>2020-09-03T11:52:19Z</time>
      </trkpt>
      <trkpt lat="44.19441" lon="5.1771">
        <ele>1277.573</ele>
        <time>2020-09-03T11:52:20Z</time>
      </trkpt>
      <trkpt lat="44.19429" lon="5.17736">
        <ele>1279.066</ele>
        <time>2020-09-03T11:52:22Z</time>
      </trkpt>
      <trkpt lat="44.19423" lon="5.17747">
        <ele>1279.706</ele>
        <time>2020-09-03T11:52:23Z</time>
      </trkpt>
      <trkpt lat="44.19416" lon="5.1776">
        <ele>1279.47</ele>
        <time>2020-09-03T11:52:24Z</time>
      </trkpt>
      <trkpt lat="44.19409" lon="5.17774">
        <ele>1278.291</ele>
        <time>2020-09-03T11:52:25Z</time>
      </trkpt>
      <trkpt lat="44.19402" lon="5.17789">
        <ele>1277.108</ele>
        <time>2020-09-03T11:52:26Z</time>
      </trkpt>
      <trkpt lat="44.19397" lon="5.17807">
        <ele>1276.473</ele>
        <time>2020-09-03T11:52:27Z</time>
      </trkpt>
      <trkpt lat="44.19393" lon="5.17825">
        <ele>1276.37</ele>
        <time>2020-09-03T11:52:28Z</time>
      </trkpt>
      <trkpt lat="44.19389" lon="5.17842">
        <ele>1276.393</ele>
        <time>2020-09-03T11:52:29Z</time>
      </trkpt>
      <trkpt lat="44.19387" lon="5.17859">
        <ele>1275.996</ele>
        <time>2020-09-03T11:52:30Z</time>
      </trkpt>
      <trkpt lat="44.19387" lon="5.17876">
        <ele>1274.679</ele>
        <time>2020-09-03T11:52:31Z</time>
      </trkpt>
      <trkpt lat="44.19387" lon="5.17876">
        <ele>1272.97</ele>
        <time>2020-09-03T11:52:31Z</time>
      </trkpt>
      <trkpt lat="44.19387" lon="5.17876">
        <ele>1271.256</ele>
        <time>2020-09-03T11:52:31Z</time>
      </trkpt>
      <trkpt lat="44.19386" lon="5.17947">
        <ele>1269.725</ele>
        <time>2020-09-03T11:52:35Z</time>
      </trkpt>
      <trkpt lat="44.19386" lon="5.17964">
        <ele>1268.649</ele>
        <time>2020-09-03T11:52:36Z</time>
      </trkpt>
      <trkpt lat="44.19387" lon="5.17981">
        <ele>1267.772</ele>
        <time>2020-09-03T11:52:37Z</time>
      </trkpt>
      <trkpt lat="44.19387" lon="5.17998">
        <ele>1266.966</ele>
        <time>2020-09-03T11:52:38Z</time>
      </trkpt>
      <trkpt lat="44.19387" lon="5.17998">
        <ele>1266.411</ele>
        <time>2020-09-03T11:52:38Z</time>
      </trkpt>
      <trkpt lat="44.19386" lon="5.18031">
        <ele>1265.67</ele>
        <time>2020-09-03T11:52:40Z</time>
      </trkpt>
      <trkpt lat="44.19386" lon="5.18046">
        <ele>1265.14</ele>
        <time>2020-09-03T11:52:41Z</time>
      </trkpt>
      <trkpt lat="44.19387" lon="5.18061">
        <ele>1264.274</ele>
        <time>2020-09-03T11:52:42Z</time>
      </trkpt>
      <trkpt lat="44.19388" lon="5.18077">
        <ele>1262.524</ele>
        <time>2020-09-03T11:52:43Z</time>
      </trkpt>
      <trkpt lat="44.19388" lon="5.18093">
        <ele>1260.408</ele>
        <time>2020-09-03T11:52:44Z</time>
      </trkpt>
      <trkpt lat="44.19387" lon="5.18111">
        <ele>1258.119</ele>
        <time>2020-09-03T11:52:45Z</time>
      </trkpt>
      <trkpt lat="44.19386" lon="5.18129">
        <ele>1256.345</ele>
        <time>2020-09-03T11:52:46Z</time>
      </trkpt>
      <trkpt lat="44.19386" lon="5.18146">
        <ele>1255.041</ele>
        <time>2020-09-03T11:52:47Z</time>
      </trkpt>
      <trkpt lat="44.19387" lon="5.18163">
        <ele>1254.187</ele>
        <time>2020-09-03T11:52:48Z</time>
      </trkpt>
      <trkpt lat="44.19389" lon="5.1818">
        <ele>1253.275</ele>
        <time>2020-09-03T11:52:49Z</time>
      </trkpt>
      <trkpt lat="44.19388" lon="5.18211">
        <ele>1252.319</ele>
        <time>2020-09-03T11:52:51Z</time>
      </trkpt>
      <trkpt lat="44.19386" lon="5.18227">
        <ele>1250.929</ele>
        <time>2020-09-03T11:52:52Z</time>
      </trkpt>
      <trkpt lat="44.19384" lon="5.18244">
        <ele>1249.291</ele>
        <time>2020-09-03T11:52:53Z</time>
      </trkpt>
      <trkpt lat="44.19384" lon="5.18244">
        <ele>1247.936</ele>
        <time>2020-09-03T11:52:53Z</time>
      </trkpt>
      <trkpt lat="44.19382" lon="5.18275">
        <ele>1246.54</ele>
        <time>2020-09-03T11:52:55Z</time>
      </trkpt>
      <trkpt lat="44.19381" lon="5.1829">
        <ele>1245.242</ele>
        <time>2020-09-03T11:52:56Z</time>
      </trkpt>
      <trkpt lat="44.19378" lon="5.18305">
        <ele>1243.768</ele>
        <time>2020-09-03T11:52:57Z</time>
      </trkpt>
      <trkpt lat="44.19376" lon="5.1832">
        <ele>1242.028</ele>
        <time>2020-09-03T11:52:58Z</time>
      </trkpt>
      <trkpt lat="44.19375" lon="5.18335">
        <ele>1240.603</ele>
        <time>2020-09-03T11:52:59Z</time>
      </trkpt>
      <trkpt lat="44.19375" lon="5.1835">
        <ele>1239.295</ele>
        <time>2020-09-03T11:53:00Z</time>
      </trkpt>
      <trkpt lat="44.19376" lon="5.18365">
        <ele>1238.132</ele>
        <time>2020-09-03T11:53:01Z</time>
      </trkpt>
      <trkpt lat="44.19377" lon="5.18379">
        <ele>1236.648</ele>
        <time>2020-09-03T11:53:02Z</time>
      </trkpt>
      <trkpt lat="44.19379" lon="5.18394">
        <ele>1235.333</ele>
        <time>2020-09-03T11:53:03Z</time>
      </trkpt>
      <trkpt lat="44.19381" lon="5.18409">
        <ele>1233.637</ele>
        <time>2020-09-03T11:53:04Z</time>
      </trkpt>
      <trkpt lat="44.19381" lon="5.18409">
        <ele>1231.777</ele>
        <time>2020-09-03T11:53:04Z</time>
      </trkpt>
      <trkpt lat="44.19381" lon="5.18409">
        <ele>1229.886</ele>
        <time>2020-09-03T11:53:04Z</time>
      </trkpt>
      <trkpt lat="44.19392" lon="5.18467">
        <ele>1228.433</ele>
        <time>2020-09-03T11:53:08Z</time>
      </trkpt>
      <trkpt lat="44.19392" lon="5.18467">
        <ele>1226.522</ele>
        <time>2020-09-03T11:53:08Z</time>
      </trkpt>
      <trkpt lat="44.19394" lon="5.18496">
        <ele>1225.042</ele>
        <time>2020-09-03T11:53:10Z</time>
      </trkpt>
      <trkpt lat="44.19397" lon="5.18512">
        <ele>1223.515</ele>
        <time>2020-09-03T11:53:11Z</time>
      </trkpt>
      <trkpt lat="44.19399" lon="5.18528">
        <ele>1222.354</ele>
        <time>2020-09-03T11:53:12Z</time>
      </trkpt>
      <trkpt lat="44.19403" lon="5.18542">
        <ele>1221.986</ele>
        <time>2020-09-03T11:53:13Z</time>
      </trkpt>
      <trkpt lat="44.19406" lon="5.18555">
        <ele>1221.96</ele>
        <time>2020-09-03T11:53:14Z</time>
      </trkpt>
      <trkpt lat="44.1941" lon="5.18569">
        <ele>1221.981</ele>
        <time>2020-09-03T11:53:15Z</time>
      </trkpt>
      <trkpt lat="44.19413" lon="5.18582">
        <ele>1221.808</ele>
        <time>2020-09-03T11:53:16Z</time>
      </trkpt>
      <trkpt lat="44.19414" lon="5.18597">
        <ele>1221.32</ele>
        <time>2020-09-03T11:53:17Z</time>
      </trkpt>
      <trkpt lat="44.19415" lon="5.18613">
        <ele>1220.767</ele>
        <time>2020-09-03T11:53:18Z</time>
      </trkpt>
      <trkpt lat="44.19415" lon="5.18629">
        <ele>1220.448</ele>
        <time>2020-09-03T11:53:19Z</time>
      </trkpt>
      <trkpt lat="44.19414" lon="5.18644">
        <ele>1220.096</ele>
        <time>2020-09-03T11:53:20Z</time>
      </trkpt>
      <trkpt lat="44.19413" lon="5.1866">
        <ele>1219.629</ele>
        <time>2020-09-03T11:53:21Z</time>
      </trkpt>
      <trkpt lat="44.19413" lon="5.1866">
        <ele>1218.686</ele>
        <time>2020-09-03T11:53:21Z</time>
      </trkpt>
      <trkpt lat="44.19412" lon="5.18689">
        <ele>1217.425</ele>
        <time>2020-09-03T11:53:23Z</time>
      </trkpt>
      <trkpt lat="44.19411" lon="5.18704">
        <ele>1215.971</ele>
        <time>2020-09-03T11:53:24Z</time>
      </trkpt>
      <trkpt lat="44.19409" lon="5.18737">
        <ele>1213.675</ele>
        <time>2020-09-03T11:53:26Z</time>
      </trkpt>
      <trkpt lat="44.19409" lon="5.18753">
        <ele>1211.901</ele>
        <time>2020-09-03T11:53:27Z</time>
      </trkpt>
      <trkpt lat="44.1941" lon="5.18769">
        <ele>1210.152</ele>
        <time>2020-09-03T11:53:28Z</time>
      </trkpt>
      <trkpt lat="44.19411" lon="5.18785">
        <ele>1208.361</ele>
        <time>2020-09-03T11:53:29Z</time>
      </trkpt>
      <trkpt lat="44.19411" lon="5.18785">
        <ele>1206.757</ele>
        <time>2020-09-03T11:53:29Z</time>
      </trkpt>
      <trkpt lat="44.19411" lon="5.18785">
        <ele>1203.936</ele>
        <time>2020-09-03T11:53:29Z</time>
      </trkpt>
      <trkpt lat="44.19416" lon="5.18837">
        <ele>1202.14</ele>
        <time>2020-09-03T11:53:32Z</time>
      </trkpt>
      <trkpt lat="44.19418" lon="5.18854">
        <ele>1201.625</ele>
        <time>2020-09-03T11:53:33Z</time>
      </trkpt>
      <trkpt lat="44.1942" lon="5.1887">
        <ele>1202.152</ele>
        <time>2020-09-03T11:53:34Z</time>
      </trkpt>
      <trkpt lat="44.19421" lon="5.18886">
        <ele>1203.397</ele>
        <time>2020-09-03T11:53:35Z</time>
      </trkpt>
      <trkpt lat="44.19422" lon="5.18902">
        <ele>1204.912</ele>
        <time>2020-09-03T11:53:36Z</time>
      </trkpt>
      <trkpt lat="44.19425" lon="5.18933">
        <ele>1206.544</ele>
        <time>2020-09-03T11:53:38Z</time>
      </trkpt>
      <trkpt lat="44.19425" lon="5.18933">
        <ele>1207.277</ele>
        <time>2020-09-03T11:53:38Z</time>
      </trkpt>
      <trkpt lat="44.19439" lon="5.18959">
        <ele>1207.511</ele>
        <time>2020-09-03T11:53:40Z</time>
      </trkpt>
      <trkpt lat="44.1945" lon="5.18966">
        <ele>1207.535</ele>
        <time>2020-09-03T11:53:41Z</time>
      </trkpt>
      <trkpt lat="44.19461" lon="5.18968">
        <ele>1208.226</ele>
        <time>2020-09-03T11:53:42Z</time>
      </trkpt>
      <trkpt lat="44.1947" lon="5.18966">
        <ele>1209.713</ele>
        <time>2020-09-03T11:53:43Z</time>
      </trkpt>
      <trkpt lat="44.19478" lon="5.18962">
        <ele>1211.809</ele>
        <time>2020-09-03T11:53:44Z</time>
      </trkpt>
      <trkpt lat="44.19483" lon="5.18957">
        <ele>1214.337</ele>
        <time>2020-09-03T11:53:45Z</time>
      </trkpt>
      <trkpt lat="44.19487" lon="5.1895">
        <ele>1217.403</ele>
        <time>2020-09-03T11:53:46Z</time>
      </trkpt>
      <trkpt lat="44.19487" lon="5.1895">
        <ele>1219.06</ele>
        <time>2020-09-03T11:53:46Z</time>
      </trkpt>
      <trkpt lat="44.19494" lon="5.18938">
        <ele>1222.491</ele>
        <time>2020-09-03T11:53:48Z</time>
      </trkpt>
      <trkpt lat="44.19496" lon="5.18934">
        <ele>1224.429</ele>
        <time>2020-09-03T11:53:49Z</time>
      </trkpt>
      <trkpt lat="44.19498" lon="5.18923">
        <ele>1225.494</ele>
        <time>2020-09-03T11:53:51Z</time>
      </trkpt>
      <trkpt lat="44.19498" lon="5.18917">
        <ele>1225.495</ele>
        <time>2020-09-03T11:53:52Z</time>
      </trkpt>
      <trkpt lat="44.19498" lon="5.18917">
        <ele>1224.933</ele>
        <time>2020-09-03T11:53:52Z</time>
      </trkpt>
      <trkpt lat="44.19483" lon="5.18909">
        <ele>1224.191</ele>
        <time>2020-09-03T11:53:54Z</time>
      </trkpt>
      <trkpt lat="44.19474" lon="5.18912">
        <ele>1223.904</ele>
        <time>2020-09-03T11:53:55Z</time>
      </trkpt>
      <trkpt lat="44.19466" lon="5.18916">
        <ele>1224.331</ele>
        <time>2020-09-03T11:53:56Z</time>
      </trkpt>
      <trkpt lat="44.19458" lon="5.18921">
        <ele>1225.021</ele>
        <time>2020-09-03T11:53:57Z</time>
      </trkpt>
      <trkpt lat="44.19452" lon="5.18925">
        <ele>1225.266</ele>
        <time>2020-09-03T11:53:58Z</time>
      </trkpt>
      <trkpt lat="44.19445" lon="5.18929">
        <ele>1224.457</ele>
        <time>2020-09-03T11:53:59Z</time>
      </trkpt>
      <trkpt lat="44.19437" lon="5.18936">
        <ele>1222.889</ele>
        <time>2020-09-03T11:54:00Z</time>
      </trkpt>
      <trkpt lat="44.19427" lon="5.18947">
        <ele>1222.036</ele>
        <time>2020-09-03T11:54:01Z</time>
      </trkpt>
      <trkpt lat="44.19419" lon="5.18962">
        <ele>1222.878</ele>
        <time>2020-09-03T11:54:02Z</time>
      </trkpt>
      <trkpt lat="44.19419" lon="5.18962">
        <ele>1225.44</ele>
        <time>2020-09-03T11:54:02Z</time>
      </trkpt>
      <trkpt lat="44.19406" lon="5.19009">
        <ele>1228.204</ele>
        <time>2020-09-03T11:54:05Z</time>
      </trkpt>
      <trkpt lat="44.19402" lon="5.19024">
        <ele>1231.158</ele>
        <time>2020-09-03T11:54:06Z</time>
      </trkpt>
      <trkpt lat="44.19398" lon="5.1904">
        <ele>1233.106</ele>
        <time>2020-09-03T11:54:07Z</time>
      </trkpt>
      <trkpt lat="44.19395" lon="5.19057">
        <ele>1235.512</ele>
        <time>2020-09-03T11:54:08Z</time>
      </trkpt>
      <trkpt lat="44.19392" lon="5.19074">
        <ele>1237.026</ele>
        <time>2020-09-03T11:54:09Z</time>
      </trkpt>
      <trkpt lat="44.19391" lon="5.19091">
        <ele>1238.08</ele>
        <time>2020-09-03T11:54:10Z</time>
      </trkpt>
      <trkpt lat="44.1939" lon="5.19106">
        <ele>1239.155</ele>
        <time>2020-09-03T11:54:11Z</time>
      </trkpt>
      <trkpt lat="44.19388" lon="5.1912">
        <ele>1240.327</ele>
        <time>2020-09-03T11:54:12Z</time>
      </trkpt>
      <trkpt lat="44.19385" lon="5.19132">
        <ele>1241.533</ele>
        <time>2020-09-03T11:54:13Z</time>
      </trkpt>
      <trkpt lat="44.19381" lon="5.19143">
        <ele>1242.914</ele>
        <time>2020-09-03T11:54:14Z</time>
      </trkpt>
      <trkpt lat="44.19381" lon="5.19143">
        <ele>1243.728</ele>
        <time>2020-09-03T11:54:14Z</time>
      </trkpt>
      <trkpt lat="44.19372" lon="5.1916">
        <ele>1243.843</ele>
        <time>2020-09-03T11:54:16Z</time>
      </trkpt>
      <trkpt lat="44.19365" lon="5.19168">
        <ele>1243.434</ele>
        <time>2020-09-03T11:54:17Z</time>
      </trkpt>
      <trkpt lat="44.19358" lon="5.19174">
        <ele>1242.377</ele>
        <time>2020-09-03T11:54:18Z</time>
      </trkpt>
      <trkpt lat="44.19341" lon="5.19175">
        <ele>1241.595</ele>
        <time>2020-09-03T11:54:20Z</time>
      </trkpt>
      <trkpt lat="44.19334" lon="5.19171">
        <ele>1241.123</ele>
        <time>2020-09-03T11:54:21Z</time>
      </trkpt>
      <trkpt lat="44.1933" lon="5.19165">
        <ele>1241.268</ele>
        <time>2020-09-03T11:54:22Z</time>
      </trkpt>
      <trkpt lat="44.19328" lon="5.19157">
        <ele>1242.027</ele>
        <time>2020-09-03T11:54:23Z</time>
      </trkpt>
      <trkpt lat="44.19327" lon="5.1915">
        <ele>1243.435</ele>
        <time>2020-09-03T11:54:24Z</time>
      </trkpt>
      <trkpt lat="44.19326" lon="5.19143">
        <ele>1245.031</ele>
        <time>2020-09-03T11:54:25Z</time>
      </trkpt>
      <trkpt lat="44.19324" lon="5.19137">
        <ele>1246.932</ele>
        <time>2020-09-03T11:54:26Z</time>
      </trkpt>
      <trkpt lat="44.1932" lon="5.19132">
        <ele>1248.772</ele>
        <time>2020-09-03T11:54:27Z</time>
      </trkpt>
      <trkpt lat="44.19315" lon="5.19128">
        <ele>1250.414</ele>
        <time>2020-09-03T11:54:28Z</time>
      </trkpt>
      <trkpt lat="44.1931" lon="5.19125">
        <ele>1252.368</ele>
        <time>2020-09-03T11:54:29Z</time>
      </trkpt>
      <trkpt lat="44.19305" lon="5.19124">
        <ele>1254.381</ele>
        <time>2020-09-03T11:54:30Z</time>
      </trkpt>
      <trkpt lat="44.193" lon="5.19123">
        <ele>1256.138</ele>
        <time>2020-09-03T11:54:31Z</time>
      </trkpt>
      <trkpt lat="44.193" lon="5.19123">
        <ele>1257.645</ele>
        <time>2020-09-03T11:54:31Z</time>
      </trkpt>
      <trkpt lat="44.1929" lon="5.1912">
        <ele>1258.673</ele>
        <time>2020-09-03T11:54:33Z</time>
      </trkpt>
      <trkpt lat="44.19284" lon="5.1911">
        <ele>1259.484</ele>
        <time>2020-09-03T11:54:35Z</time>
      </trkpt>
      <trkpt lat="44.19287" lon="5.19106">
        <ele>1259.887</ele>
        <time>2020-09-03T11:54:36Z</time>
      </trkpt>
      <trkpt lat="44.19295" lon="5.19106">
        <ele>1259.238</ele>
        <time>2020-09-03T11:54:37Z</time>
      </trkpt>
      <trkpt lat="44.19305" lon="5.19114">
        <ele>1258.38</ele>
        <time>2020-09-03T11:54:38Z</time>
      </trkpt>
      <trkpt lat="44.19314" lon="5.19127">
        <ele>1257.84</ele>
        <time>2020-09-03T11:54:39Z</time>
      </trkpt>
      <trkpt lat="44.1932" lon="5.19143">
        <ele>1258.16</ele>
        <time>2020-09-03T11:54:40Z</time>
      </trkpt>
      <trkpt lat="44.19325" lon="5.19159">
        <ele>1259.454</ele>
        <time>2020-09-03T11:54:41Z</time>
      </trkpt>
      <trkpt lat="44.1933" lon="5.19175">
        <ele>1261.421</ele>
        <time>2020-09-03T11:54:42Z</time>
      </trkpt>
      <trkpt lat="44.19335" lon="5.19189">
        <ele>1263.67</ele>
        <time>2020-09-03T11:54:43Z</time>
      </trkpt>
      <trkpt lat="44.19341" lon="5.19201">
        <ele>1264.911</ele>
        <time>2020-09-03T11:54:44Z</time>
      </trkpt>
      <trkpt lat="44.19346" lon="5.19214">
        <ele>1266.23</ele>
        <time>2020-09-03T11:54:45Z</time>
      </trkpt>
      <trkpt lat="44.19346" lon="5.19214">
        <ele>1267.205</ele>
        <time>2020-09-03T11:54:45Z</time>
      </trkpt>
      <trkpt lat="44.19346" lon="5.19214">
        <ele>1268.067</ele>
        <time>2020-09-03T11:54:45Z</time>
      </trkpt>
      <trkpt lat="44.19346" lon="5.19214">
        <ele>1269.413</ele>
        <time>2020-09-03T11:54:45Z</time>
      </trkpt>
      <trkpt lat="44.19353" lon="5.1929">
        <ele>1270.827</ele>
        <time>2020-09-03T11:54:50Z</time>
      </trkpt>
      <trkpt lat="44.19349" lon="5.19301">
        <ele>1271.887</ele>
        <time>2020-09-03T11:54:51Z</time>
      </trkpt>
      <trkpt lat="44.19343" lon="5.1931">
        <ele>1272.427</ele>
        <time>2020-09-03T11:54:52Z</time>
      </trkpt>
      <trkpt lat="44.19337" lon="5.19318">
        <ele>1272.08</ele>
        <time>2020-09-03T11:54:53Z</time>
      </trkpt>
      <trkpt lat="44.19329" lon="5.19322">
        <ele>1271.214</ele>
        <time>2020-09-03T11:54:54Z</time>
      </trkpt>
      <trkpt lat="44.19321" lon="5.19323">
        <ele>1270.237</ele>
        <time>2020-09-03T11:54:55Z</time>
      </trkpt>
      <trkpt lat="44.19314" lon="5.1932">
        <ele>1269.198</ele>
        <time>2020-09-03T11:54:56Z</time>
      </trkpt>
      <trkpt lat="44.19308" lon="5.19312">
        <ele>1268.621</ele>
        <time>2020-09-03T11:54:57Z</time>
      </trkpt>
      <trkpt lat="44.19304" lon="5.19304">
        <ele>1268.615</ele>
        <time>2020-09-03T11:54:58Z</time>
      </trkpt>
      <trkpt lat="44.19301" lon="5.19295">
        <ele>1268.977</ele>
        <time>2020-09-03T11:54:59Z</time>
      </trkpt>
      <trkpt lat="44.19298" lon="5.19287">
        <ele>1269.604</ele>
        <time>2020-09-03T11:55:00Z</time>
      </trkpt>
      <trkpt lat="44.19296" lon="5.19279">
        <ele>1270.265</ele>
        <time>2020-09-03T11:55:01Z</time>
      </trkpt>
      <trkpt lat="44.19293" lon="5.1927">
        <ele>1270.965</ele>
        <time>2020-09-03T11:55:02Z</time>
      </trkpt>
      <trkpt lat="44.1929" lon="5.19263">
        <ele>1271.942</ele>
        <time>2020-09-03T11:55:03Z</time>
      </trkpt>
      <trkpt lat="44.19285" lon="5.19256">
        <ele>1272.941</ele>
        <time>2020-09-03T11:55:04Z</time>
      </trkpt>
      <trkpt lat="44.19279" lon="5.19252">
        <ele>1273.831</ele>
        <time>2020-09-03T11:55:05Z</time>
      </trkpt>
      <trkpt lat="44.19272" lon="5.19249">
        <ele>1274.533</ele>
        <time>2020-09-03T11:55:06Z</time>
      </trkpt>
      <trkpt lat="44.19272" lon="5.19249">
        <ele>1275.31</ele>
        <time>2020-09-03T11:55:06Z</time>
      </trkpt>
      <trkpt lat="44.19272" lon="5.19249">
        <ele>1276.163</ele>
        <time>2020-09-03T11:55:06Z</time>
      </trkpt>
      <trkpt lat="44.19252" lon="5.19239">
        <ele>1277.161</ele>
        <time>2020-09-03T11:55:09Z</time>
      </trkpt>
      <trkpt lat="44.19252" lon="5.19239">
        <ele>1277.991</ele>
        <time>2020-09-03T11:55:09Z</time>
      </trkpt>
      <trkpt lat="44.19252" lon="5.19239">
        <ele>1278.584</ele>
        <time>2020-09-03T11:55:09Z</time>
      </trkpt>
      <trkpt lat="44.19233" lon="5.19214">
        <ele>1278.881</ele>
        <time>2020-09-03T11:55:13Z</time>
      </trkpt>
      <trkpt lat="44.19233" lon="5.19214">
        <ele>1278.52</ele>
        <time>2020-09-03T11:55:13Z</time>
      </trkpt>
      <trkpt lat="44.19236" lon="5.19194">
        <ele>1277.404</ele>
        <time>2020-09-03T11:55:15Z</time>
      </trkpt>
      <trkpt lat="44.19244" lon="5.19186">
        <ele>1275.893</ele>
        <time>2020-09-03T11:55:16Z</time>
      </trkpt>
      <trkpt lat="44.19253" lon="5.1918">
        <ele>1274.459</ele>
        <time>2020-09-03T11:55:17Z</time>
      </trkpt>
      <trkpt lat="44.19261" lon="5.19177">
        <ele>1273.504</ele>
        <time>2020-09-03T11:55:18Z</time>
      </trkpt>
      <trkpt lat="44.19267" lon="5.19177">
        <ele>1272.977</ele>
        <time>2020-09-03T11:55:19Z</time>
      </trkpt>
      <trkpt lat="44.19274" lon="5.19178">
        <ele>1272.252</ele>
        <time>2020-09-03T11:55:20Z</time>
      </trkpt>
      <trkpt lat="44.19281" lon="5.1918">
        <ele>1270.954</ele>
        <time>2020-09-03T11:55:21Z</time>
      </trkpt>
      <trkpt lat="44.19289" lon="5.19185">
        <ele>1269.109</ele>
        <time>2020-09-03T11:55:22Z</time>
      </trkpt>
      <trkpt lat="44.19296" lon="5.1919">
        <ele>1267.134</ele>
        <time>2020-09-03T11:55:23Z</time>
      </trkpt>
      <trkpt lat="44.19304" lon="5.19195">
        <ele>1264.651</ele>
        <time>2020-09-03T11:55:24Z</time>
      </trkpt>
      <trkpt lat="44.19312" lon="5.192">
        <ele>1261.995</ele>
        <time>2020-09-03T11:55:25Z</time>
      </trkpt>
      <trkpt lat="44.19312" lon="5.192">
        <ele>1260.113</ele>
        <time>2020-09-03T11:55:25Z</time>
      </trkpt>
      <trkpt lat="44.19312" lon="5.192">
        <ele>1258.866</ele>
        <time>2020-09-03T11:55:25Z</time>
      </trkpt>
      <trkpt lat="44.19312" lon="5.192">
        <ele>1258.395</ele>
        <time>2020-09-03T11:55:25Z</time>
      </trkpt>
      <trkpt lat="44.19312" lon="5.192">
        <ele>1258.456</ele>
        <time>2020-09-03T11:55:25Z</time>
      </trkpt>
      <trkpt lat="44.19312" lon="5.192">
        <ele>1258.968</ele>
        <time>2020-09-03T11:55:25Z</time>
      </trkpt>
      <trkpt lat="44.19312" lon="5.192">
        <ele>1259.506</ele>
        <time>2020-09-03T11:55:25Z</time>
      </trkpt>
      <trkpt lat="44.19312" lon="5.192">
        <ele>1259.643</ele>
        <time>2020-09-03T11:55:25Z</time>
      </trkpt>
      <trkpt lat="44.19312" lon="5.192">
        <ele>1259.474</ele>
        <time>2020-09-03T11:55:25Z</time>
      </trkpt>
      <trkpt lat="44.19368" lon="5.19278">
        <ele>1259.263</ele>
        <time>2020-09-03T11:55:34Z</time>
      </trkpt>
      <trkpt lat="44.19368" lon="5.19278">
        <ele>1259.416</ele>
        <time>2020-09-03T11:55:34Z</time>
      </trkpt>
      <trkpt lat="44.19368" lon="5.19278">
        <ele>1259.837</ele>
        <time>2020-09-03T11:55:34Z</time>
      </trkpt>
      <trkpt lat="44.19368" lon="5.19278">
        <ele>1260.182</ele>
        <time>2020-09-03T11:55:34Z</time>
      </trkpt>
      <trkpt lat="44.19368" lon="5.19278">
        <ele>1260.735</ele>
        <time>2020-09-03T11:55:34Z</time>
      </trkpt>
      <trkpt lat="44.194" lon="5.19366">
        <ele>1261.502</ele>
        <time>2020-09-03T11:55:40Z</time>
      </trkpt>
      <trkpt lat="44.19405" lon="5.19379">
        <ele>1262.718</ele>
        <time>2020-09-03T11:55:41Z</time>
      </trkpt>
      <trkpt lat="44.1941" lon="5.19392">
        <ele>1264.05</ele>
        <time>2020-09-03T11:55:42Z</time>
      </trkpt>
      <trkpt lat="44.19416" lon="5.19405">
        <ele>1264.698</ele>
        <time>2020-09-03T11:55:43Z</time>
      </trkpt>
      <trkpt lat="44.19421" lon="5.19419">
        <ele>1264.707</ele>
        <time>2020-09-03T11:55:44Z</time>
      </trkpt>
      <trkpt lat="44.19427" lon="5.19434">
        <ele>1264.421</ele>
        <time>2020-09-03T11:55:45Z</time>
      </trkpt>
      <trkpt lat="44.19432" lon="5.19451">
        <ele>1263.899</ele>
        <time>2020-09-03T11:55:46Z</time>
      </trkpt>
      <trkpt lat="44.19436" lon="5.19467">
        <ele>1263.358</ele>
        <time>2020-09-03T11:55:47Z</time>
      </trkpt>
      <trkpt lat="44.19439" lon="5.19483">
        <ele>1262.567</ele>
        <time>2020-09-03T11:55:48Z</time>
      </trkpt>
      <trkpt lat="44.19441" lon="5.19513">
        <ele>1261.668</ele>
        <time>2020-09-03T11:55:50Z</time>
      </trkpt>
      <trkpt lat="44.19441" lon="5.19528">
        <ele>1260.818</ele>
        <time>2020-09-03T11:55:51Z</time>
      </trkpt>
      <trkpt lat="44.19441" lon="5.19543">
        <ele>1259.913</ele>
        <time>2020-09-03T11:55:52Z</time>
      </trkpt>
      <trkpt lat="44.19442" lon="5.19558">
        <ele>1258.919</ele>
        <time>2020-09-03T11:55:53Z</time>
      </trkpt>
      <trkpt lat="44.19442" lon="5.19558">
        <ele>1258.061</ele>
        <time>2020-09-03T11:55:53Z</time>
      </trkpt>
      <trkpt lat="44.19442" lon="5.19573">
        <ele>1257.455</ele>
        <time>2020-09-03T11:55:54Z</time>
      </trkpt>
      <trkpt lat="44.19441" lon="5.19601">
        <ele>1257.25</ele>
        <time>2020-09-03T11:55:56Z</time>
      </trkpt>
      <trkpt lat="44.19441" lon="5.19613">
        <ele>1257.108</ele>
        <time>2020-09-03T11:55:57Z</time>
      </trkpt>
      <trkpt lat="44.19442" lon="5.19625">
        <ele>1256.683</ele>
        <time>2020-09-03T11:55:58Z</time>
      </trkpt>
      <trkpt lat="44.19444" lon="5.19637">
        <ele>1256.117</ele>
        <time>2020-09-03T11:55:59Z</time>
      </trkpt>
      <trkpt lat="44.19447" lon="5.1965">
        <ele>1255.682</ele>
        <time>2020-09-03T11:56:00Z</time>
      </trkpt>
      <trkpt lat="44.19447" lon="5.1965">
        <ele>1255.444</ele>
        <time>2020-09-03T11:56:00Z</time>
      </trkpt>
      <trkpt lat="44.1945" lon="5.19677">
        <ele>1255.566</ele>
        <time>2020-09-03T11:56:02Z</time>
      </trkpt>
      <trkpt lat="44.19452" lon="5.1969">
        <ele>1256.036</ele>
        <time>2020-09-03T11:56:03Z</time>
      </trkpt>
      <trkpt lat="44.19454" lon="5.19703">
        <ele>1256.957</ele>
        <time>2020-09-03T11:56:04Z</time>
      </trkpt>
      <trkpt lat="44.19457" lon="5.19716">
        <ele>1258.785</ele>
        <time>2020-09-03T11:56:05Z</time>
      </trkpt>
      <trkpt lat="44.19462" lon="5.19728">
        <ele>1260.877</ele>
        <time>2020-09-03T11:56:06Z</time>
      </trkpt>
      <trkpt lat="44.19466" lon="5.19739">
        <ele>1263.457</ele>
        <time>2020-09-03T11:56:07Z</time>
      </trkpt>
      <trkpt lat="44.19466" lon="5.19739">
        <ele>1265.213</ele>
        <time>2020-09-03T11:56:07Z</time>
      </trkpt>
      <trkpt lat="44.19466" lon="5.19739">
        <ele>1268.704</ele>
        <time>2020-09-03T11:56:07Z</time>
      </trkpt>
      <trkpt lat="44.19477" lon="5.1977">
        <ele>1272.097</ele>
        <time>2020-09-03T11:56:10Z</time>
      </trkpt>
      <trkpt lat="44.19477" lon="5.1977">
        <ele>1275.256</ele>
        <time>2020-09-03T11:56:10Z</time>
      </trkpt>
      <trkpt lat="44.19477" lon="5.1977">
        <ele>1278.891</ele>
        <time>2020-09-03T11:56:10Z</time>
      </trkpt>
      <trkpt lat="44.195" lon="5.19791">
        <ele>1281.429</ele>
        <time>2020-09-03T11:56:13Z</time>
      </trkpt>
      <trkpt lat="44.19514" lon="5.19773">
        <ele>1283.744</ele>
        <time>2020-09-03T11:56:15Z</time>
      </trkpt>
      <trkpt lat="44.19513" lon="5.19763">
        <ele>1286.065</ele>
        <time>2020-09-03T11:56:16Z</time>
      </trkpt>
      <trkpt lat="44.19507" lon="5.19757">
        <ele>1288.444</ele>
        <time>2020-09-03T11:56:17Z</time>
      </trkpt>
      <trkpt lat="44.19499" lon="5.19756">
        <ele>1290.474</ele>
        <time>2020-09-03T11:56:18Z</time>
      </trkpt>
      <trkpt lat="44.19499" lon="5.19756">
        <ele>1292.273</ele>
        <time>2020-09-03T11:56:18Z</time>
      </trkpt>
      <trkpt lat="44.19484" lon="5.19773">
        <ele>1294.145</ele>
        <time>2020-09-03T11:56:20Z</time>
      </trkpt>
      <trkpt lat="44.1948" lon="5.19786">
        <ele>1296.627</ele>
        <time>2020-09-03T11:56:21Z</time>
      </trkpt>
      <trkpt lat="44.19479" lon="5.19798">
        <ele>1299.63</ele>
        <time>2020-09-03T11:56:22Z</time>
      </trkpt>
      <trkpt lat="44.19479" lon="5.1981">
        <ele>1302.906</ele>
        <time>2020-09-03T11:56:23Z</time>
      </trkpt>
      <trkpt lat="44.19479" lon="5.1981">
        <ele>1305.756</ele>
        <time>2020-09-03T11:56:23Z</time>
      </trkpt>
      <trkpt lat="44.19487" lon="5.19834">
        <ele>1308.761</ele>
        <time>2020-09-03T11:56:25Z</time>
      </trkpt>
      <trkpt lat="44.19494" lon="5.19846">
        <ele>1311.011</ele>
        <time>2020-09-03T11:56:26Z</time>
      </trkpt>
      <trkpt lat="44.19494" lon="5.19846">
        <ele>1313.192</ele>
        <time>2020-09-03T11:56:26Z</time>
      </trkpt>
      <trkpt lat="44.19513" lon="5.19858">
        <ele>1315.188</ele>
        <time>2020-09-03T11:56:28Z</time>
      </trkpt>
      <trkpt lat="44.19523" lon="5.19855">
        <ele>1317.081</ele>
        <time>2020-09-03T11:56:29Z</time>
      </trkpt>
      <trkpt lat="44.19531" lon="5.19849">
        <ele>1319.691</ele>
        <time>2020-09-03T11:56:30Z</time>
      </trkpt>
      <trkpt lat="44.19536" lon="5.19842">
        <ele>1322.506</ele>
        <time>2020-09-03T11:56:31Z</time>
      </trkpt>
      <trkpt lat="44.1954" lon="5.19834">
        <ele>1325.96</ele>
        <time>2020-09-03T11:56:32Z</time>
      </trkpt>
      <trkpt lat="44.19541" lon="5.19826">
        <ele>1328.531</ele>
        <time>2020-09-03T11:56:33Z</time>
      </trkpt>
      <trkpt lat="44.19542" lon="5.19819">
        <ele>1331.236</ele>
        <time>2020-09-03T11:56:34Z</time>
      </trkpt>
      <trkpt lat="44.19542" lon="5.19819">
        <ele>1332.233</ele>
        <time>2020-09-03T11:56:34Z</time>
      </trkpt>
      <trkpt lat="44.19542" lon="5.19819">
        <ele>1333.867</ele>
        <time>2020-09-03T11:56:34Z</time>
      </trkpt>
      <trkpt lat="44.19521" lon="5.19805">
        <ele>1335.117</ele>
        <time>2020-09-03T11:56:38Z</time>
      </trkpt>
      <trkpt lat="44.19521" lon="5.19805">
        <ele>1336.104</ele>
        <time>2020-09-03T11:56:38Z</time>
      </trkpt>
      <trkpt lat="44.19507" lon="5.19825">
        <ele>1337.282</ele>
        <time>2020-09-03T11:56:40Z</time>
      </trkpt>
      <trkpt lat="44.19504" lon="5.1984">
        <ele>1338.604</ele>
        <time>2020-09-03T11:56:41Z</time>
      </trkpt>
      <trkpt lat="44.19504" lon="5.1984">
        <ele>1340.143</ele>
        <time>2020-09-03T11:56:41Z</time>
      </trkpt>
      <trkpt lat="44.19505" lon="5.19872">
        <ele>1342.37</ele>
        <time>2020-09-03T11:56:43Z</time>
      </trkpt>
      <trkpt lat="44.19506" lon="5.19887">
        <ele>1344.93</ele>
        <time>2020-09-03T11:56:44Z</time>
      </trkpt>
      <trkpt lat="44.19509" lon="5.19901">
        <ele>1347.767</ele>
        <time>2020-09-03T11:56:45Z</time>
      </trkpt>
      <trkpt lat="44.19512" lon="5.19915">
        <ele>1350.724</ele>
        <time>2020-09-03T11:56:46Z</time>
      </trkpt>
      <trkpt lat="44.19518" lon="5.19928">
        <ele>1352.984</ele>
        <time>2020-09-03T11:56:47Z</time>
      </trkpt>
      <trkpt lat="44.19526" lon="5.19936">
        <ele>1355.32</ele>
        <time>2020-09-03T11:56:48Z</time>
      </trkpt>
      <trkpt lat="44.19535" lon="5.19938">
        <ele>1356.535</ele>
        <time>2020-09-03T11:56:49Z</time>
      </trkpt>
      <trkpt lat="44.19543" lon="5.19934">
        <ele>1357.835</ele>
        <time>2020-09-03T11:56:50Z</time>
      </trkpt>
      <trkpt lat="44.19548" lon="5.19927">
        <ele>1359.299</ele>
        <time>2020-09-03T11:56:51Z</time>
      </trkpt>
      <trkpt lat="44.19551" lon="5.19919">
        <ele>1360.898</ele>
        <time>2020-09-03T11:56:52Z</time>
      </trkpt>
      <trkpt lat="44.19549" lon="5.1991">
        <ele>1363.072</ele>
        <time>2020-09-03T11:56:53Z</time>
      </trkpt>
      <trkpt lat="44.19546" lon="5.19904">
        <ele>1364.856</ele>
        <time>2020-09-03T11:56:54Z</time>
      </trkpt>
      <trkpt lat="44.19539" lon="5.19898">
        <ele>1366.815</ele>
        <time>2020-09-03T11:56:55Z</time>
      </trkpt>
      <trkpt lat="44.19531" lon="5.19897">
        <ele>1368.553</ele>
        <time>2020-09-03T11:56:56Z</time>
      </trkpt>
      <trkpt lat="44.19531" lon="5.19897">
        <ele>1370.81</ele>
        <time>2020-09-03T11:56:56Z</time>
      </trkpt>
      <trkpt lat="44.19531" lon="5.19897">
        <ele>1372.454</ele>
        <time>2020-09-03T11:56:56Z</time>
      </trkpt>
      <trkpt lat="44.19531" lon="5.19897">
        <ele>1374.365</ele>
        <time>2020-09-03T11:56:56Z</time>
      </trkpt>
      <trkpt lat="44.19504" lon="5.19958">
        <ele>1376.43</ele>
        <time>2020-09-03T11:57:01Z</time>
      </trkpt>
      <trkpt lat="44.19503" lon="5.19974">
        <ele>1378.16</ele>
        <time>2020-09-03T11:57:02Z</time>
      </trkpt>
      <trkpt lat="44.19503" lon="5.19991">
        <ele>1379.555</ele>
        <time>2020-09-03T11:57:03Z</time>
      </trkpt>
      <trkpt lat="44.19506" lon="5.20006">
        <ele>1380.238</ele>
        <time>2020-09-03T11:57:04Z</time>
      </trkpt>
      <trkpt lat="44.19509" lon="5.20021">
        <ele>1381.023</ele>
        <time>2020-09-03T11:57:05Z</time>
      </trkpt>
      <trkpt lat="44.19514" lon="5.20034">
        <ele>1380.905</ele>
        <time>2020-09-03T11:57:06Z</time>
      </trkpt>
      <trkpt lat="44.19521" lon="5.20045">
        <ele>1379.891</ele>
        <time>2020-09-03T11:57:07Z</time>
      </trkpt>
      <trkpt lat="44.19528" lon="5.20053">
        <ele>1378.537</ele>
        <time>2020-09-03T11:57:08Z</time>
      </trkpt>
      <trkpt lat="44.19537" lon="5.20056">
        <ele>1376.885</ele>
        <time>2020-09-03T11:57:09Z</time>
      </trkpt>
      <trkpt lat="44.19545" lon="5.20056">
        <ele>1375.57</ele>
        <time>2020-09-03T11:57:10Z</time>
      </trkpt>
      <trkpt lat="44.19552" lon="5.20053">
        <ele>1374.742</ele>
        <time>2020-09-03T11:57:11Z</time>
      </trkpt>
      <trkpt lat="44.19558" lon="5.20047">
        <ele>1374.334</ele>
        <time>2020-09-03T11:57:12Z</time>
      </trkpt>
      <trkpt lat="44.19561" lon="5.2004">
        <ele>1374.396</ele>
        <time>2020-09-03T11:57:13Z</time>
      </trkpt>
      <trkpt lat="44.19563" lon="5.20033">
        <ele>1374.986</ele>
        <time>2020-09-03T11:57:14Z</time>
      </trkpt>
      <trkpt lat="44.19565" lon="5.20027">
        <ele>1376.023</ele>
        <time>2020-09-03T11:57:15Z</time>
      </trkpt>
      <trkpt lat="44.19568" lon="5.20022">
        <ele>1377.216</ele>
        <time>2020-09-03T11:57:16Z</time>
      </trkpt>
      <trkpt lat="44.1957" lon="5.20017">
        <ele>1378.368</ele>
        <time>2020-09-03T11:57:17Z</time>
      </trkpt>
      <trkpt lat="44.19572" lon="5.20014">
        <ele>1379.251</ele>
        <time>2020-09-03T11:57:18Z</time>
      </trkpt>
      <trkpt lat="44.19575" lon="5.2001">
        <ele>1379.988</ele>
        <time>2020-09-03T11:57:19Z</time>
      </trkpt>
      <trkpt lat="44.19575" lon="5.2001">
        <ele>1380.334</ele>
        <time>2020-09-03T11:57:19Z</time>
      </trkpt>
      <trkpt lat="44.19575" lon="5.2001">
        <ele>1380.807</ele>
        <time>2020-09-03T11:57:19Z</time>
      </trkpt>
      <trkpt lat="44.19572" lon="5.1998">
        <ele>1381.975</ele>
        <time>2020-09-03T11:57:23Z</time>
      </trkpt>
      <trkpt lat="44.19572" lon="5.1998">
        <ele>1383.803</ele>
        <time>2020-09-03T11:57:23Z</time>
      </trkpt>
      <trkpt lat="44.1957" lon="5.19967">
        <ele>1386.046</ele>
        <time>2020-09-03T11:57:25Z</time>
      </trkpt>
      <trkpt lat="44.1957" lon="5.19961">
        <ele>1388.188</ele>
        <time>2020-09-03T11:57:26Z</time>
      </trkpt>
      <trkpt lat="44.19571" lon="5.19954">
        <ele>1390.348</ele>
        <time>2020-09-03T11:57:27Z</time>
      </trkpt>
      <trkpt lat="44.19571" lon="5.19947">
        <ele>1391.966</ele>
        <time>2020-09-03T11:57:28Z</time>
      </trkpt>
      <trkpt lat="44.19573" lon="5.19938">
        <ele>1393.214</ele>
        <time>2020-09-03T11:57:29Z</time>
      </trkpt>
      <trkpt lat="44.19574" lon="5.19929">
        <ele>1394.261</ele>
        <time>2020-09-03T11:57:30Z</time>
      </trkpt>
      <trkpt lat="44.19574" lon="5.1992">
        <ele>1394.934</ele>
        <time>2020-09-03T11:57:31Z</time>
      </trkpt>
      <trkpt lat="44.19573" lon="5.19911">
        <ele>1395.61</ele>
        <time>2020-09-03T11:57:32Z</time>
      </trkpt>
      <trkpt lat="44.19568" lon="5.19903">
        <ele>1396.058</ele>
        <time>2020-09-03T11:57:33Z</time>
      </trkpt>
      <trkpt lat="44.19561" lon="5.19897">
        <ele>1396.331</ele>
        <time>2020-09-03T11:57:34Z</time>
      </trkpt>
      <trkpt lat="44.19553" lon="5.19893">
        <ele>1396.758</ele>
        <time>2020-09-03T11:57:35Z</time>
      </trkpt>
      <trkpt lat="44.19545" lon="5.19892">
        <ele>1397.45</ele>
        <time>2020-09-03T11:57:36Z</time>
      </trkpt>
      <trkpt lat="44.19537" lon="5.19894">
        <ele>1398.335</ele>
        <time>2020-09-03T11:57:37Z</time>
      </trkpt>
      <trkpt lat="44.19531" lon="5.19898">
        <ele>1399.142</ele>
        <time>2020-09-03T11:57:38Z</time>
      </trkpt>
      <trkpt lat="44.19524" lon="5.19903">
        <ele>1399.444</ele>
        <time>2020-09-03T11:57:39Z</time>
      </trkpt>
      <trkpt lat="44.19517" lon="5.19909">
        <ele>1398.934</ele>
        <time>2020-09-03T11:57:40Z</time>
      </trkpt>
      <trkpt lat="44.1951" lon="5.19917">
        <ele>1397.98</ele>
        <time>2020-09-03T11:57:41Z</time>
      </trkpt>
      <trkpt lat="44.19502" lon="5.19928">
        <ele>1397.02</ele>
        <time>2020-09-03T11:57:42Z</time>
      </trkpt>
      <trkpt lat="44.19495" lon="5.19942">
        <ele>1395.99</ele>
        <time>2020-09-03T11:57:43Z</time>
      </trkpt>
      <trkpt lat="44.1949" lon="5.19957">
        <ele>1395.441</ele>
        <time>2020-09-03T11:57:44Z</time>
      </trkpt>
      <trkpt lat="44.1949" lon="5.19957">
        <ele>1395.415</ele>
        <time>2020-09-03T11:57:44Z</time>
      </trkpt>
      <trkpt lat="44.1949" lon="5.19957">
        <ele>1395.769</ele>
        <time>2020-09-03T11:57:44Z</time>
      </trkpt>
      <trkpt lat="44.19483" lon="5.20024">
        <ele>1396.244</ele>
        <time>2020-09-03T11:57:48Z</time>
      </trkpt>
      <trkpt lat="44.19483" lon="5.20024">
        <ele>1396.449</ele>
        <time>2020-09-03T11:57:48Z</time>
      </trkpt>
      <trkpt lat="44.19484" lon="5.20056">
        <ele>1396.572</ele>
        <time>2020-09-03T11:57:50Z</time>
      </trkpt>
      <trkpt lat="44.19484" lon="5.20072">
        <ele>1396.574</ele>
        <time>2020-09-03T11:57:51Z</time>
      </trkpt>
      <trkpt lat="44.19486" lon="5.20089">
        <ele>1396.527</ele>
        <time>2020-09-03T11:57:52Z</time>
      </trkpt>
      <trkpt lat="44.19487" lon="5.20107">
        <ele>1396.598</ele>
        <time>2020-09-03T11:57:53Z</time>
      </trkpt>
      <trkpt lat="44.19489" lon="5.20125">
        <ele>1396.779</ele>
        <time>2020-09-03T11:57:54Z</time>
      </trkpt>
      <trkpt lat="44.19491" lon="5.20142">
        <ele>1396.911</ele>
        <time>2020-09-03T11:57:55Z</time>
      </trkpt>
      <trkpt lat="44.19492" lon="5.20159">
        <ele>1396.795</ele>
        <time>2020-09-03T11:57:56Z</time>
      </trkpt>
      <trkpt lat="44.19493" lon="5.20175">
        <ele>1396.511</ele>
        <time>2020-09-03T11:57:57Z</time>
      </trkpt>
      <trkpt lat="44.19495" lon="5.20192">
        <ele>1396.024</ele>
        <time>2020-09-03T11:57:58Z</time>
      </trkpt>
      <trkpt lat="44.19497" lon="5.20209">
        <ele>1395.805</ele>
        <time>2020-09-03T11:57:59Z</time>
      </trkpt>
      <trkpt lat="44.19498" lon="5.20226">
        <ele>1395.935</ele>
        <time>2020-09-03T11:58:00Z</time>
      </trkpt>
      <trkpt lat="44.19499" lon="5.20243">
        <ele>1396.389</ele>
        <time>2020-09-03T11:58:01Z</time>
      </trkpt>
      <trkpt lat="44.19499" lon="5.20243">
        <ele>1396.714</ele>
        <time>2020-09-03T11:58:01Z</time>
      </trkpt>
      <trkpt lat="44.19499" lon="5.20243">
        <ele>1396.49</ele>
        <time>2020-09-03T11:58:01Z</time>
      </trkpt>
      <trkpt lat="44.19503" lon="5.20289">
        <ele>1395.721</ele>
        <time>2020-09-03T11:58:04Z</time>
      </trkpt>
      <trkpt lat="44.19503" lon="5.20289">
        <ele>1393.83</ele>
        <time>2020-09-03T11:58:04Z</time>
      </trkpt>
      <trkpt lat="44.19505" lon="5.2032">
        <ele>1392.004</ele>
        <time>2020-09-03T11:58:06Z</time>
      </trkpt>
      <trkpt lat="44.19507" lon="5.20335">
        <ele>1390.435</ele>
        <time>2020-09-03T11:58:07Z</time>
      </trkpt>
      <trkpt lat="44.19508" lon="5.2035">
        <ele>1388.72</ele>
        <time>2020-09-03T11:58:08Z</time>
      </trkpt>
      <trkpt lat="44.19513" lon="5.20376">
        <ele>1387.194</ele>
        <time>2020-09-03T11:58:10Z</time>
      </trkpt>
      <trkpt lat="44.19515" lon="5.20389">
        <ele>1385.408</ele>
        <time>2020-09-03T11:58:11Z</time>
      </trkpt>
      <trkpt lat="44.19517" lon="5.20404">
        <ele>1382.995</ele>
        <time>2020-09-03T11:58:12Z</time>
      </trkpt>
      <trkpt lat="44.19519" lon="5.2042">
        <ele>1379.737</ele>
        <time>2020-09-03T11:58:13Z</time>
      </trkpt>
      <trkpt lat="44.19519" lon="5.2042">
        <ele>1376.504</ele>
        <time>2020-09-03T11:58:13Z</time>
      </trkpt>
      <trkpt lat="44.19524" lon="5.20454">
        <ele>1374.064</ele>
        <time>2020-09-03T11:58:15Z</time>
      </trkpt>
      <trkpt lat="44.19527" lon="5.2047">
        <ele>1372.343</ele>
        <time>2020-09-03T11:58:16Z</time>
      </trkpt>
      <trkpt lat="44.19529" lon="5.20486">
        <ele>1371.125</ele>
        <time>2020-09-03T11:58:17Z</time>
      </trkpt>
      <trkpt lat="44.19531" lon="5.20501">
        <ele>1369.721</ele>
        <time>2020-09-03T11:58:18Z</time>
      </trkpt>
      <trkpt lat="44.19532" lon="5.20517">
        <ele>1368.152</ele>
        <time>2020-09-03T11:58:19Z</time>
      </trkpt>
      <trkpt lat="44.19534" lon="5.20532">
        <ele>1366.529</ele>
        <time>2020-09-03T11:58:20Z</time>
      </trkpt>
      <trkpt lat="44.19536" lon="5.20548">
        <ele>1364.145</ele>
        <time>2020-09-03T11:58:21Z</time>
      </trkpt>
      <trkpt lat="44.19539" lon="5.20563">
        <ele>1362.111</ele>
        <time>2020-09-03T11:58:22Z</time>
      </trkpt>
      <trkpt lat="44.19539" lon="5.20563">
        <ele>1359.974</ele>
        <time>2020-09-03T11:58:22Z</time>
      </trkpt>
      <trkpt lat="44.19549" lon="5.20608">
        <ele>1357.088</ele>
        <time>2020-09-03T11:58:25Z</time>
      </trkpt>
      <trkpt lat="44.19552" lon="5.20624">
        <ele>1355.102</ele>
        <time>2020-09-03T11:58:26Z</time>
      </trkpt>
      <trkpt lat="44.19555" lon="5.20639">
        <ele>1353.97</ele>
        <time>2020-09-03T11:58:27Z</time>
      </trkpt>
      <trkpt lat="44.19559" lon="5.20654">
        <ele>1352.089</ele>
        <time>2020-09-03T11:58:28Z</time>
      </trkpt>
      <trkpt lat="44.19559" lon="5.20654">
        <ele>1350.822</ele>
        <time>2020-09-03T11:58:28Z</time>
      </trkpt>
      <trkpt lat="44.19565" lon="5.20681">
        <ele>1349.76</ele>
        <time>2020-09-03T11:58:30Z</time>
      </trkpt>
      <trkpt lat="44.19569" lon="5.20694">
        <ele>1348.95</ele>
        <time>2020-09-03T11:58:31Z</time>
      </trkpt>
      <trkpt lat="44.19571" lon="5.20707">
        <ele>1348.182</ele>
        <time>2020-09-03T11:58:32Z</time>
      </trkpt>
      <trkpt lat="44.19573" lon="5.20721">
        <ele>1347.289</ele>
        <time>2020-09-03T11:58:33Z</time>
      </trkpt>
      <trkpt lat="44.19573" lon="5.20721">
        <ele>1346.18</ele>
        <time>2020-09-03T11:58:33Z</time>
      </trkpt>
      <trkpt lat="44.19577" lon="5.2075">
        <ele>1345.218</ele>
        <time>2020-09-03T11:58:35Z</time>
      </trkpt>
      <trkpt lat="44.19579" lon="5.20764">
        <ele>1344.363</ele>
        <time>2020-09-03T11:58:36Z</time>
      </trkpt>
      <trkpt lat="44.19581" lon="5.20777">
        <ele>1343.687</ele>
        <time>2020-09-03T11:58:37Z</time>
      </trkpt>
      <trkpt lat="44.19583" lon="5.2079">
        <ele>1342.889</ele>
        <time>2020-09-03T11:58:38Z</time>
      </trkpt>
      <trkpt lat="44.19586" lon="5.20804">
        <ele>1342.046</ele>
        <time>2020-09-03T11:58:39Z</time>
      </trkpt>
      <trkpt lat="44.19588" lon="5.20819">
        <ele>1340.997</ele>
        <time>2020-09-03T11:58:40Z</time>
      </trkpt>
      <trkpt lat="44.19591" lon="5.20834">
        <ele>1339.918</ele>
        <time>2020-09-03T11:58:41Z</time>
      </trkpt>
      <trkpt lat="44.19593" lon="5.20848">
        <ele>1339.066</ele>
        <time>2020-09-03T11:58:42Z</time>
      </trkpt>
      <trkpt lat="44.19596" lon="5.20861">
        <ele>1338.247</ele>
        <time>2020-09-03T11:58:43Z</time>
      </trkpt>
      <trkpt lat="44.19599" lon="5.20874">
        <ele>1336.977</ele>
        <time>2020-09-03T11:58:44Z</time>
      </trkpt>
      <trkpt lat="44.19599" lon="5.20874">
        <ele>1335.294</ele>
        <time>2020-09-03T11:58:44Z</time>
      </trkpt>
      <trkpt lat="44.19607" lon="5.20914">
        <ele>1333.694</ele>
        <time>2020-09-03T11:58:47Z</time>
      </trkpt>
      <trkpt lat="44.19609" lon="5.20928">
        <ele>1331.479</ele>
        <time>2020-09-03T11:58:48Z</time>
      </trkpt>
      <trkpt lat="44.19609" lon="5.20928">
        <ele>1328.821</ele>
        <time>2020-09-03T11:58:48Z</time>
      </trkpt>
      <trkpt lat="44.19614" lon="5.20955">
        <ele>1326.544</ele>
        <time>2020-09-03T11:58:50Z</time>
      </trkpt>
      <trkpt lat="44.19617" lon="5.20968">
        <ele>1324.476</ele>
        <time>2020-09-03T11:58:51Z</time>
      </trkpt>
      <trkpt lat="44.19617" lon="5.20968">
        <ele>1322.781</ele>
        <time>2020-09-03T11:58:51Z</time>
      </trkpt>
      <trkpt lat="44.19624" lon="5.20993">
        <ele>1321.215</ele>
        <time>2020-09-03T11:58:53Z</time>
      </trkpt>
      <trkpt lat="44.19626" lon="5.21006">
        <ele>1319.466</ele>
        <time>2020-09-03T11:58:54Z</time>
      </trkpt>
      <trkpt lat="44.19628" lon="5.2102">
        <ele>1318.176</ele>
        <time>2020-09-03T11:58:55Z</time>
      </trkpt>
      <trkpt lat="44.1963" lon="5.21035">
        <ele>1316.051</ele>
        <time>2020-09-03T11:58:56Z</time>
      </trkpt>
      <trkpt lat="44.19632" lon="5.21049">
        <ele>1313.922</ele>
        <time>2020-09-03T11:58:57Z</time>
      </trkpt>
      <trkpt lat="44.19634" lon="5.21064">
        <ele>1312.031</ele>
        <time>2020-09-03T11:58:58Z</time>
      </trkpt>
      <trkpt lat="44.19637" lon="5.21078">
        <ele>1310.368</ele>
        <time>2020-09-03T11:58:59Z</time>
      </trkpt>
      <trkpt lat="44.19641" lon="5.21091">
        <ele>1308.981</ele>
        <time>2020-09-03T11:59:00Z</time>
      </trkpt>
      <trkpt lat="44.19646" lon="5.21103">
        <ele>1307.986</ele>
        <time>2020-09-03T11:59:01Z</time>
      </trkpt>
      <trkpt lat="44.1965" lon="5.21115">
        <ele>1307.105</ele>
        <time>2020-09-03T11:59:02Z</time>
      </trkpt>
      <trkpt lat="44.19654" lon="5.21128">
        <ele>1306.291</ele>
        <time>2020-09-03T11:59:03Z</time>
      </trkpt>
      <trkpt lat="44.19656" lon="5.21142">
        <ele>1305.366</ele>
        <time>2020-09-03T11:59:04Z</time>
      </trkpt>
      <trkpt lat="44.19657" lon="5.21157">
        <ele>1304.037</ele>
        <time>2020-09-03T11:59:05Z</time>
      </trkpt>
      <trkpt lat="44.19658" lon="5.21172">
        <ele>1301.859</ele>
        <time>2020-09-03T11:59:06Z</time>
      </trkpt>
      <trkpt lat="44.19658" lon="5.21187">
        <ele>1299.742</ele>
        <time>2020-09-03T11:59:07Z</time>
      </trkpt>
      <trkpt lat="44.19658" lon="5.21187">
        <ele>1298.33</ele>
        <time>2020-09-03T11:59:07Z</time>
      </trkpt>
      <trkpt lat="44.19663" lon="5.21215">
        <ele>1296.249</ele>
        <time>2020-09-03T11:59:09Z</time>
      </trkpt>
      <trkpt lat="44.19663" lon="5.21215">
        <ele>1293.972</ele>
        <time>2020-09-03T11:59:09Z</time>
      </trkpt>
      <trkpt lat="44.1967" lon="5.21254">
        <ele>1292.156</ele>
        <time>2020-09-03T11:59:12Z</time>
      </trkpt>
      <trkpt lat="44.19673" lon="5.21267">
        <ele>1289.64</ele>
        <time>2020-09-03T11:59:13Z</time>
      </trkpt>
      <trkpt lat="44.19673" lon="5.21267">
        <ele>1288.106</ele>
        <time>2020-09-03T11:59:13Z</time>
      </trkpt>
      <trkpt lat="44.19673" lon="5.21267">
        <ele>1286.717</ele>
        <time>2020-09-03T11:59:13Z</time>
      </trkpt>
      <trkpt lat="44.19679" lon="5.21306">
        <ele>1285.633</ele>
        <time>2020-09-03T11:59:16Z</time>
      </trkpt>
      <trkpt lat="44.1968" lon="5.21319">
        <ele>1284.532</ele>
        <time>2020-09-03T11:59:17Z</time>
      </trkpt>
      <trkpt lat="44.1968" lon="5.21331">
        <ele>1283.108</ele>
        <time>2020-09-03T11:59:18Z</time>
      </trkpt>
      <trkpt lat="44.19681" lon="5.21344">
        <ele>1281.585</ele>
        <time>2020-09-03T11:59:19Z</time>
      </trkpt>
      <trkpt lat="44.19683" lon="5.21357">
        <ele>1279.377</ele>
        <time>2020-09-03T11:59:20Z</time>
      </trkpt>
      <trkpt lat="44.19684" lon="5.2137">
        <ele>1277.615</ele>
        <time>2020-09-03T11:59:21Z</time>
      </trkpt>
      <trkpt lat="44.19684" lon="5.2137">
        <ele>1276.488</ele>
        <time>2020-09-03T11:59:21Z</time>
      </trkpt>
      <trkpt lat="44.19686" lon="5.21398">
        <ele>1274.882</ele>
        <time>2020-09-03T11:59:23Z</time>
      </trkpt>
      <trkpt lat="44.19688" lon="5.21412">
        <ele>1273.459</ele>
        <time>2020-09-03T11:59:24Z</time>
      </trkpt>
      <trkpt lat="44.1969" lon="5.21425">
        <ele>1272.082</ele>
        <time>2020-09-03T11:59:25Z</time>
      </trkpt>
      <trkpt lat="44.19692" lon="5.21437">
        <ele>1270.928</ele>
        <time>2020-09-03T11:59:26Z</time>
      </trkpt>
      <trkpt lat="44.19692" lon="5.21437">
        <ele>1269.337</ele>
        <time>2020-09-03T11:59:26Z</time>
      </trkpt>
      <trkpt lat="44.19692" lon="5.21437">
        <ele>1267.122</ele>
        <time>2020-09-03T11:59:26Z</time>
      </trkpt>
      <trkpt lat="44.19703" lon="5.21487">
        <ele>1263.833</ele>
        <time>2020-09-03T11:59:30Z</time>
      </trkpt>
      <trkpt lat="44.19707" lon="5.21499">
        <ele>1261.594</ele>
        <time>2020-09-03T11:59:31Z</time>
      </trkpt>
      <trkpt lat="44.19707" lon="5.21499">
        <ele>1259.281</ele>
        <time>2020-09-03T11:59:31Z</time>
      </trkpt>
      <trkpt lat="44.19716" lon="5.21524">
        <ele>1257.266</ele>
        <time>2020-09-03T11:59:33Z</time>
      </trkpt>
      <trkpt lat="44.1972" lon="5.21536">
        <ele>1255.845</ele>
        <time>2020-09-03T11:59:34Z</time>
      </trkpt>
      <trkpt lat="44.19725" lon="5.21547">
        <ele>1254.787</ele>
        <time>2020-09-03T11:59:35Z</time>
      </trkpt>
      <trkpt lat="44.19729" lon="5.21558">
        <ele>1253.688</ele>
        <time>2020-09-03T11:59:36Z</time>
      </trkpt>
      <trkpt lat="44.19732" lon="5.21569">
        <ele>1251.988</ele>
        <time>2020-09-03T11:59:37Z</time>
      </trkpt>
      <trkpt lat="44.19736" lon="5.21581">
        <ele>1249.841</ele>
        <time>2020-09-03T11:59:38Z</time>
      </trkpt>
      <trkpt lat="44.1974" lon="5.21594">
        <ele>1247.616</ele>
        <time>2020-09-03T11:59:39Z</time>
      </trkpt>
      <trkpt lat="44.19744" lon="5.21606">
        <ele>1245.825</ele>
        <time>2020-09-03T11:59:40Z</time>
      </trkpt>
      <trkpt lat="44.19747" lon="5.21618">
        <ele>1243.424</ele>
        <time>2020-09-03T11:59:41Z</time>
      </trkpt>
      <trkpt lat="44.1975" lon="5.21643">
        <ele>1241.206</ele>
        <time>2020-09-03T11:59:43Z</time>
      </trkpt>
      <trkpt lat="44.1975" lon="5.21643">
        <ele>1238.605</ele>
        <time>2020-09-03T11:59:43Z</time>
      </trkpt>
      <trkpt lat="44.19754" lon="5.21666">
        <ele>1235.716</ele>
        <time>2020-09-03T11:59:45Z</time>
      </trkpt>
      <trkpt lat="44.19754" lon="5.21666">
        <ele>1234.204</ele>
        <time>2020-09-03T11:59:45Z</time>
      </trkpt>
      <trkpt lat="44.19754" lon="5.21666">
        <ele>1233.841</ele>
        <time>2020-09-03T11:59:45Z</time>
      </trkpt>
      <trkpt lat="44.19769" lon="5.21698">
        <ele>1234.73</ele>
        <time>2020-09-03T11:59:48Z</time>
      </trkpt>
      <trkpt lat="44.19772" lon="5.2171">
        <ele>1236.72</ele>
        <time>2020-09-03T11:59:49Z</time>
      </trkpt>
      <trkpt lat="44.19772" lon="5.2171">
        <ele>1239.452</ele>
        <time>2020-09-03T11:59:49Z</time>
      </trkpt>
      <trkpt lat="44.19776" lon="5.21734">
        <ele>1241.167</ele>
        <time>2020-09-03T11:59:51Z</time>
      </trkpt>
      <trkpt lat="44.19777" lon="5.21746">
        <ele>1245.003</ele>
        <time>2020-09-03T11:59:52Z</time>
      </trkpt>
      <trkpt lat="44.19777" lon="5.21758">
        <ele>1247.895</ele>
        <time>2020-09-03T11:59:53Z</time>
      </trkpt>
      <trkpt lat="44.19777" lon="5.21758">
        <ele>1250.427</ele>
        <time>2020-09-03T11:59:53Z</time>
      </trkpt>
      <trkpt lat="44.1978" lon="5.21785">
        <ele>1252.676</ele>
        <time>2020-09-03T11:59:55Z</time>
      </trkpt>
      <trkpt lat="44.19784" lon="5.21796">
        <ele>1254.681</ele>
        <time>2020-09-03T11:59:56Z</time>
      </trkpt>
      <trkpt lat="44.1979" lon="5.21802">
        <ele>1256.09</ele>
        <time>2020-09-03T11:59:57Z</time>
      </trkpt>
      <trkpt lat="44.1979" lon="5.21802">
        <ele>1257.106</ele>
        <time>2020-09-03T11:59:57Z</time>
      </trkpt>
      <trkpt lat="44.19805" lon="5.21792">
        <ele>1258.241</ele>
        <time>2020-09-03T12:00:00Z</time>
      </trkpt>
      <trkpt lat="44.19805" lon="5.21792">
        <ele>1259.407</ele>
        <time>2020-09-03T12:00:00Z</time>
      </trkpt>
      <trkpt lat="44.19797" lon="5.21771">
        <ele>1262.098</ele>
        <time>2020-09-03T12:00:02Z</time>
      </trkpt>
      <trkpt lat="44.19789" lon="5.21765">
        <ele>1264.35</ele>
        <time>2020-09-03T12:00:03Z</time>
      </trkpt>
      <trkpt lat="44.19779" lon="5.21765">
        <ele>1267.913</ele>
        <time>2020-09-03T12:00:04Z</time>
      </trkpt>
      <trkpt lat="44.1977" lon="5.21768">
        <ele>1271.003</ele>
        <time>2020-09-03T12:00:05Z</time>
      </trkpt>
      <trkpt lat="44.19762" lon="5.21774">
        <ele>1273.85</ele>
        <time>2020-09-03T12:00:06Z</time>
      </trkpt>
      <trkpt lat="44.19756" lon="5.21785">
        <ele>1276.332</ele>
        <time>2020-09-03T12:00:07Z</time>
      </trkpt>
      <trkpt lat="44.19754" lon="5.21798">
        <ele>1278.766</ele>
        <time>2020-09-03T12:00:08Z</time>
      </trkpt>
      <trkpt lat="44.19754" lon="5.21809">
        <ele>1281.531</ele>
        <time>2020-09-03T12:00:09Z</time>
      </trkpt>
      <trkpt lat="44.19757" lon="5.21818">
        <ele>1283.631</ele>
        <time>2020-09-03T12:00:10Z</time>
      </trkpt>
      <trkpt lat="44.19762" lon="5.21824">
        <ele>1285.487</ele>
        <time>2020-09-03T12:00:11Z</time>
      </trkpt>
      <trkpt lat="44.19768" lon="5.21825">
        <ele>1286.804</ele>
        <time>2020-09-03T12:00:12Z</time>
      </trkpt>
      <trkpt lat="44.19774" lon="5.21825">
        <ele>1287.89</ele>
        <time>2020-09-03T12:00:13Z</time>
      </trkpt>
      <trkpt lat="44.1978" lon="5.21821">
        <ele>1288.956</ele>
        <time>2020-09-03T12:00:14Z</time>
      </trkpt>
      <trkpt lat="44.1978" lon="5.21821">
        <ele>1291.418</ele>
        <time>2020-09-03T12:00:14Z</time>
      </trkpt>
      <trkpt lat="44.1978" lon="5.21821">
        <ele>1294.758</ele>
        <time>2020-09-03T12:00:14Z</time>
      </trkpt>
      <trkpt lat="44.1978" lon="5.21821">
        <ele>1298.528</ele>
        <time>2020-09-03T12:00:14Z</time>
      </trkpt>
      <trkpt lat="44.1978" lon="5.21821">
        <ele>1301.215</ele>
        <time>2020-09-03T12:00:14Z</time>
      </trkpt>
      <trkpt lat="44.19806" lon="5.21804">
        <ele>1305.36</ele>
        <time>2020-09-03T12:00:19Z</time>
      </trkpt>
      <trkpt lat="44.19806" lon="5.21804">
        <ele>1309.46</ele>
        <time>2020-09-03T12:00:19Z</time>
      </trkpt>
      <trkpt lat="44.19813" lon="5.21791">
        <ele>1312.505</ele>
        <time>2020-09-03T12:00:22Z</time>
      </trkpt>
      <trkpt lat="44.1981" lon="5.21783">
        <ele>1314.866</ele>
        <time>2020-09-03T12:00:23Z</time>
      </trkpt>
      <trkpt lat="44.19805" lon="5.21777">
        <ele>1315.617</ele>
        <time>2020-09-03T12:00:24Z</time>
      </trkpt>
      <trkpt lat="44.19796" lon="5.21773">
        <ele>1315.477</ele>
        <time>2020-09-03T12:00:25Z</time>
      </trkpt>
      <trkpt lat="44.19785" lon="5.21773">
        <ele>1314.944</ele>
        <time>2020-09-03T12:00:26Z</time>
      </trkpt>
      <trkpt lat="44.19774" lon="5.21779">
        <ele>1314.566</ele>
        <time>2020-09-03T12:00:27Z</time>
      </trkpt>
      <trkpt lat="44.19765" lon="5.21792">
        <ele>1315.141</ele>
        <time>2020-09-03T12:00:28Z</time>
      </trkpt>
      <trkpt lat="44.19759" lon="5.21806">
        <ele>1317.084</ele>
        <time>2020-09-03T12:00:29Z</time>
      </trkpt>
      <trkpt lat="44.19757" lon="5.2182">
        <ele>1321.198</ele>
        <time>2020-09-03T12:00:30Z</time>
      </trkpt>
      <trkpt lat="44.19757" lon="5.21831">
        <ele>1325.815</ele>
        <time>2020-09-03T12:00:31Z</time>
      </trkpt>
      <trkpt lat="44.19758" lon="5.21841">
        <ele>1330.215</ele>
        <time>2020-09-03T12:00:32Z</time>
      </trkpt>
      <trkpt lat="44.1976" lon="5.2185">
        <ele>1334.19</ele>
        <time>2020-09-03T12:00:33Z</time>
      </trkpt>
      <trkpt lat="44.19765" lon="5.21856">
        <ele>1337.568</ele>
        <time>2020-09-03T12:00:34Z</time>
      </trkpt>
      <trkpt lat="44.19765" lon="5.21856">
        <ele>1340.32</ele>
        <time>2020-09-03T12:00:34Z</time>
      </trkpt>
      <trkpt lat="44.19777" lon="5.21862">
        <ele>1342.619</ele>
        <time>2020-09-03T12:00:36Z</time>
      </trkpt>
      <trkpt lat="44.19781" lon="5.21857">
        <ele>1345.251</ele>
        <time>2020-09-03T12:00:37Z</time>
      </trkpt>
      <trkpt lat="44.1978" lon="5.2185">
        <ele>1347.399</ele>
        <time>2020-09-03T12:00:38Z</time>
      </trkpt>
      <trkpt lat="44.19767" lon="5.21837">
        <ele>1349.025</ele>
        <time>2020-09-03T12:00:40Z</time>
      </trkpt>
      <trkpt lat="44.19757" lon="5.21832">
        <ele>1350.841</ele>
        <time>2020-09-03T12:00:41Z</time>
      </trkpt>
      <trkpt lat="44.19746" lon="5.2183">
        <ele>1352.138</ele>
        <time>2020-09-03T12:00:42Z</time>
      </trkpt>
      <trkpt lat="44.19735" lon="5.21835">
        <ele>1354.406</ele>
        <time>2020-09-03T12:00:43Z</time>
      </trkpt>
      <trkpt lat="44.19727" lon="5.21844">
        <ele>1356.874</ele>
        <time>2020-09-03T12:00:44Z</time>
      </trkpt>
      <trkpt lat="44.1972" lon="5.21855">
        <ele>1359.609</ele>
        <time>2020-09-03T12:00:45Z</time>
      </trkpt>
      <trkpt lat="44.19714" lon="5.21867">
        <ele>1363.56</ele>
        <time>2020-09-03T12:00:46Z</time>
      </trkpt>
      <trkpt lat="44.19709" lon="5.21877">
        <ele>1366.521</ele>
        <time>2020-09-03T12:00:47Z</time>
      </trkpt>
      <trkpt lat="44.19704" lon="5.21886">
        <ele>1371.093</ele>
        <time>2020-09-03T12:00:48Z</time>
      </trkpt>
      <trkpt lat="44.19699" lon="5.21896">
        <ele>1376.619</ele>
        <time>2020-09-03T12:00:49Z</time>
      </trkpt>
      <trkpt lat="44.19695" lon="5.21907">
        <ele>1382.508</ele>
        <time>2020-09-03T12:00:50Z</time>
      </trkpt>
      <trkpt lat="44.19691" lon="5.21918">
        <ele>1387.342</ele>
        <time>2020-09-03T12:00:51Z</time>
      </trkpt>
      <trkpt lat="44.19688" lon="5.21929">
        <ele>1392.688</ele>
        <time>2020-09-03T12:00:52Z</time>
      </trkpt>
      <trkpt lat="44.19689" lon="5.21941">
        <ele>1398.499</ele>
        <time>2020-09-03T12:00:53Z</time>
      </trkpt>
      <trkpt lat="44.19693" lon="5.2195">
        <ele>1403.41</ele>
        <time>2020-09-03T12:00:54Z</time>
      </trkpt>
      <trkpt lat="44.19701" lon="5.21952">
        <ele>1408.96</ele>
        <time>2020-09-03T12:00:55Z</time>
      </trkpt>
      <trkpt lat="44.19708" lon="5.21949">
        <ele>1413.731</ele>
        <time>2020-09-03T12:00:56Z</time>
      </trkpt>
      <trkpt lat="44.19713" lon="5.21941">
        <ele>1419.3</ele>
        <time>2020-09-03T12:00:57Z</time>
      </trkpt>
      <trkpt lat="44.19716" lon="5.21931">
        <ele>1424.772</ele>
        <time>2020-09-03T12:00:58Z</time>
      </trkpt>
      <trkpt lat="44.19715" lon="5.21912">
        <ele>1430.574</ele>
        <time>2020-09-03T12:01:00Z</time>
      </trkpt>
      <trkpt lat="44.1971" lon="5.21904">
        <ele>1435.477</ele>
        <time>2020-09-03T12:01:01Z</time>
      </trkpt>
      <trkpt lat="44.19702" lon="5.21897">
        <ele>1439.319</ele>
        <time>2020-09-03T12:01:02Z</time>
      </trkpt>
      <trkpt lat="44.19691" lon="5.21895">
        <ele>1443.029</ele>
        <time>2020-09-03T12:01:03Z</time>
      </trkpt>
      <trkpt lat="44.19679" lon="5.21899">
        <ele>1447.477</ele>
        <time>2020-09-03T12:01:04Z</time>
      </trkpt>
      <trkpt lat="44.19669" lon="5.21908">
        <ele>1451.574</ele>
        <time>2020-09-03T12:01:05Z</time>
      </trkpt>
      <trkpt lat="44.19663" lon="5.2192">
        <ele>1455.974</ele>
        <time>2020-09-03T12:01:06Z</time>
      </trkpt>
      <trkpt lat="44.19661" lon="5.21932">
        <ele>1461.961</ele>
        <time>2020-09-03T12:01:07Z</time>
      </trkpt>
      <trkpt lat="44.19661" lon="5.21943">
        <ele>1467.953</ele>
        <time>2020-09-03T12:01:08Z</time>
      </trkpt>
      <trkpt lat="44.19665" lon="5.21951">
        <ele>1474.021</ele>
        <time>2020-09-03T12:01:09Z</time>
      </trkpt>
      <trkpt lat="44.1967" lon="5.21955">
        <ele>1479.518</ele>
        <time>2020-09-03T12:01:10Z</time>
      </trkpt>
      <trkpt lat="44.19676" lon="5.21955">
        <ele>1485.556</ele>
        <time>2020-09-03T12:01:11Z</time>
      </trkpt>
      <trkpt lat="44.19682" lon="5.21949">
        <ele>1492.332</ele>
        <time>2020-09-03T12:01:12Z</time>
      </trkpt>
      <trkpt lat="44.19684" lon="5.21938">
        <ele>1498.9</ele>
        <time>2020-09-03T12:01:13Z</time>
      </trkpt>
      <trkpt lat="44.1968" lon="5.21927">
        <ele>1502.312</ele>
        <time>2020-09-03T12:01:14Z</time>
      </trkpt>
      <trkpt lat="44.19672" lon="5.21918">
        <ele>1510.104</ele>
        <time>2020-09-03T12:01:15Z</time>
      </trkpt>
      <trkpt lat="44.19672" lon="5.21918">
        <ele>1516.131</ele>
        <time>2020-09-03T12:01:15Z</time>
      </trkpt>
      <trkpt lat="44.19638" lon="5.21917">
        <ele>1522.899</ele>
        <time>2020-09-03T12:01:18Z</time>
      </trkpt>
      <trkpt lat="44.19638" lon="5.21917">
        <ele>1528.022</ele>
        <time>2020-09-03T12:01:18Z</time>
      </trkpt>
      <trkpt lat="44.19621" lon="5.21935">
        <ele>1533.715</ele>
        <time>2020-09-03T12:01:20Z</time>
      </trkpt>
      <trkpt lat="44.19617" lon="5.21947">
        <ele>1538.998</ele>
        <time>2020-09-03T12:01:21Z</time>
      </trkpt>
      <trkpt lat="44.19615" lon="5.21959">
        <ele>1544.54</ele>
        <time>2020-09-03T12:01:22Z</time>
      </trkpt>
      <trkpt lat="44.19613" lon="5.2197">
        <ele>1549.774</ele>
        <time>2020-09-03T12:01:23Z</time>
      </trkpt>
      <trkpt lat="44.19612" lon="5.21982">
        <ele>1554.735</ele>
        <time>2020-09-03T12:01:24Z</time>
      </trkpt>
      <trkpt lat="44.19611" lon="5.21993">
        <ele>1559.755</ele>
        <time>2020-09-03T12:01:25Z</time>
      </trkpt>
      <trkpt lat="44.19611" lon="5.22004">
        <ele>1564.512</ele>
        <time>2020-09-03T12:01:26Z</time>
      </trkpt>
      <trkpt lat="44.19615" lon="5.22013">
        <ele>1568.426</ele>
        <time>2020-09-03T12:01:27Z</time>
      </trkpt>
      <trkpt lat="44.19621" lon="5.22018">
        <ele>1572.692</ele>
        <time>2020-09-03T12:01:28Z</time>
      </trkpt>
      <trkpt lat="44.19628" lon="5.22018">
        <ele>1577.052</ele>
        <time>2020-09-03T12:01:29Z</time>
      </trkpt>
      <trkpt lat="44.19634" lon="5.22013">
        <ele>1581.936</ele>
        <time>2020-09-03T12:01:30Z</time>
      </trkpt>
      <trkpt lat="44.19638" lon="5.22006">
        <ele>1588.699</ele>
        <time>2020-09-03T12:01:31Z</time>
      </trkpt>
      <trkpt lat="44.19641" lon="5.22">
        <ele>1594.944</ele>
        <time>2020-09-03T12:01:32Z</time>
      </trkpt>
      <trkpt lat="44.19644" lon="5.21994">
        <ele>1602.019</ele>
        <time>2020-09-03T12:01:33Z</time>
      </trkpt>
      <trkpt lat="44.19648" lon="5.2199">
        <ele>1609.764</ele>
        <time>2020-09-03T12:01:34Z</time>
      </trkpt>
      <trkpt lat="44.19652" lon="5.21986">
        <ele>1615.953</ele>
        <time>2020-09-03T12:01:35Z</time>
      </trkpt>
      <trkpt lat="44.19657" lon="5.21982">
        <ele>1622.393</ele>
        <time>2020-09-03T12:01:36Z</time>
      </trkpt>
      <trkpt lat="44.19661" lon="5.21976">
        <ele>1627.364</ele>
        <time>2020-09-03T12:01:37Z</time>
      </trkpt>
      <trkpt lat="44.19666" lon="5.21969">
        <ele>1631.641</ele>
        <time>2020-09-03T12:01:38Z</time>
      </trkpt>
      <trkpt lat="44.19669" lon="5.21961">
        <ele>1635.376</ele>
        <time>2020-09-03T12:01:39Z</time>
      </trkpt>
      <trkpt lat="44.19669" lon="5.21961">
        <ele>1639.324</ele>
        <time>2020-09-03T12:01:39Z</time>
      </trkpt>
      <trkpt lat="44.19669" lon="5.21961">
        <ele>1642.672</ele>
        <time>2020-09-03T12:01:39Z</time>
      </trkpt>
      <trkpt lat="44.19642" lon="5.2194">
        <ele>1644.461</ele>
        <time>2020-09-03T12:01:43Z</time>
      </trkpt>
      <trkpt lat="44.19642" lon="5.2194">
        <ele>1647.434</ele>
        <time>2020-09-03T12:01:43Z</time>
      </trkpt>
      <trkpt lat="44.19623" lon="5.21958">
        <ele>1652.176</ele>
        <time>2020-09-03T12:01:45Z</time>
      </trkpt>
      <trkpt lat="44.19615" lon="5.21966">
        <ele>1658.257</ele>
        <time>2020-09-03T12:01:46Z</time>
      </trkpt>
      <trkpt lat="44.1961" lon="5.21975">
        <ele>1666.684</ele>
        <time>2020-09-03T12:01:47Z</time>
      </trkpt>
      <trkpt lat="44.19607" lon="5.21983">
        <ele>1675.834</ele>
        <time>2020-09-03T12:01:48Z</time>
      </trkpt>
      <trkpt lat="44.19605" lon="5.21989">
        <ele>1682.63</ele>
        <time>2020-09-03T12:01:49Z</time>
      </trkpt>
      <trkpt lat="44.19603" lon="5.21996">
        <ele>1690.675</ele>
        <time>2020-09-03T12:01:50Z</time>
      </trkpt>
      <trkpt lat="44.19603" lon="5.22005">
        <ele>1696.264</ele>
        <time>2020-09-03T12:01:51Z</time>
      </trkpt>
      <trkpt lat="44.19604" lon="5.22017">
        <ele>1701.52</ele>
        <time>2020-09-03T12:01:52Z</time>
      </trkpt>
      <trkpt lat="44.19609" lon="5.22028">
        <ele>1706.511</ele>
        <time>2020-09-03T12:01:53Z</time>
      </trkpt>
      <trkpt lat="44.19617" lon="5.22031">
        <ele>1712.927</ele>
        <time>2020-09-03T12:01:54Z</time>
      </trkpt>
      <trkpt lat="44.19625" lon="5.22027">
        <ele>1718.652</ele>
        <time>2020-09-03T12:01:55Z</time>
      </trkpt>
      <trkpt lat="44.19625" lon="5.22027">
        <ele>1725.374</ele>
        <time>2020-09-03T12:01:55Z</time>
      </trkpt>
      <trkpt lat="44.19625" lon="5.22027">
        <ele>1731.328</ele>
        <time>2020-09-03T12:01:55Z</time>
      </trkpt>
      <trkpt lat="44.19625" lon="5.22027">
        <ele>1736.419</ele>
        <time>2020-09-03T12:01:55Z</time>
      </trkpt>
      <trkpt lat="44.19639" lon="5.21998">
        <ele>1741.515</ele>
        <time>2020-09-03T12:01:59Z</time>
      </trkpt>
      <trkpt lat="44.19639" lon="5.21998">
        <ele>1745.125</ele>
        <time>2020-09-03T12:01:59Z</time>
      </trkpt>
      <trkpt lat="44.19639" lon="5.21998">
        <ele>1748.371</ele>
        <time>2020-09-03T12:01:59Z</time>
      </trkpt>
      <trkpt lat="44.19639" lon="5.21998">
        <ele>1752.204</ele>
        <time>2020-09-03T12:01:59Z</time>
      </trkpt>
      <trkpt lat="44.19613" lon="5.21963">
        <ele>1756.829</ele>
        <time>2020-09-03T12:02:03Z</time>
      </trkpt>
      <trkpt lat="44.19594" lon="5.2197">
        <ele>1760.717</ele>
        <time>2020-09-03T12:02:05Z</time>
      </trkpt>
      <trkpt lat="44.19588" lon="5.21979">
        <ele>1765.214</ele>
        <time>2020-09-03T12:02:06Z</time>
      </trkpt>
      <trkpt lat="44.19583" lon="5.2199">
        <ele>1771.139</ele>
        <time>2020-09-03T12:02:07Z</time>
      </trkpt>
      <trkpt lat="44.1958" lon="5.22">
        <ele>1777.439</ele>
        <time>2020-09-03T12:02:08Z</time>
      </trkpt>
      <trkpt lat="44.19579" lon="5.22011">
        <ele>1783.613</ele>
        <time>2020-09-03T12:02:09Z</time>
      </trkpt>
      <trkpt lat="44.19579" lon="5.22011">
        <ele>1787.545</ele>
        <time>2020-09-03T12:02:09Z</time>
      </trkpt>
      <trkpt lat="44.19579" lon="5.22011">
        <ele>1793.93</ele>
        <time>2020-09-03T12:02:09Z</time>
      </trkpt>
      <trkpt lat="44.19586" lon="5.22045">
        <ele>1800.731</ele>
        <time>2020-09-03T12:02:12Z</time>
      </trkpt>
      <trkpt lat="44.19586" lon="5.22045">
        <ele>1806.791</ele>
        <time>2020-09-03T12:02:12Z</time>
      </trkpt>
      <trkpt lat="44.19602" lon="5.22042">
        <ele>1811.963</ele>
        <time>2020-09-03T12:02:14Z</time>
      </trkpt>
      <trkpt lat="44.19608" lon="5.22032">
        <ele>1817.008</ele>
        <time>2020-09-03T12:02:15Z</time>
      </trkpt>
      <trkpt lat="44.1961" lon="5.2202">
        <ele>1822.617</ele>
        <time>2020-09-03T12:02:16Z</time>
      </trkpt>
      <trkpt lat="44.19606" lon="5.21999">
        <ele>1827.807</ele>
        <time>2020-09-03T12:02:18Z</time>
      </trkpt>
      <trkpt lat="44.19606" lon="5.21999">
        <ele>1832.492</ele>
        <time>2020-09-03T12:02:18Z</time>
      </trkpt>
      <trkpt lat="44.19594" lon="5.21979">
        <ele>1836.373</ele>
        <time>2020-09-03T12:02:20Z</time>
      </trkpt>
      <trkpt lat="44.19586" lon="5.21971">
        <ele>1840.333</ele>
        <time>2020-09-03T12:02:21Z</time>
      </trkpt>
      <trkpt lat="44.19576" lon="5.21968">
        <ele>1844.15</ele>
        <time>2020-09-03T12:02:22Z</time>
      </trkpt>
      <trkpt lat="44.19567" lon="5.21973">
        <ele>1847.268</ele>
        <time>2020-09-03T12:02:23Z</time>
      </trkpt>
      <trkpt lat="44.19567" lon="5.21973">
        <ele>1850.312</ele>
        <time>2020-09-03T12:02:23Z</time>
      </trkpt>
      <trkpt lat="44.19557" lon="5.21993">
        <ele>1854.749</ele>
        <time>2020-09-03T12:02:25Z</time>
      </trkpt>
      <trkpt lat="44.19558" lon="5.22005">
        <ele>1859.312</ele>
        <time>2020-09-03T12:02:26Z</time>
      </trkpt>
      <trkpt lat="44.19564" lon="5.22013">
        <ele>1863.062</ele>
        <time>2020-09-03T12:02:27Z</time>
      </trkpt>
      <trkpt lat="44.19572" lon="5.22015">
        <ele>1866.631</ele>
        <time>2020-09-03T12:02:28Z</time>
      </trkpt>
      <trkpt lat="44.19579" lon="5.22007">
        <ele>1870.196</ele>
        <time>2020-09-03T12:02:29Z</time>
      </trkpt>
      <trkpt lat="44.19583" lon="5.21992">
        <ele>1873.067</ele>
        <time>2020-09-03T12:02:30Z</time>
      </trkpt>
      <trkpt lat="44.19582" lon="5.21977">
        <ele>1877.046</ele>
        <time>2020-09-03T12:02:31Z</time>
      </trkpt>
      <trkpt lat="44.19576" lon="5.21965">
        <ele>1881.112</ele>
        <time>2020-09-03T12:02:32Z</time>
      </trkpt>
      <trkpt lat="44.19567" lon="5.21959">
        <ele>1884.334</ele>
        <time>2020-09-03T12:02:33Z</time>
      </trkpt>
      <trkpt lat="44.19557" lon="5.2196">
        <ele>1889.112</ele>
        <time>2020-09-03T12:02:34Z</time>
      </trkpt>
      <trkpt lat="44.19549" lon="5.21965">
        <ele>1892.9</ele>
        <time>2020-09-03T12:02:35Z</time>
      </trkpt>
      <trkpt lat="44.19542" lon="5.21972">
        <ele>1896.293</ele>
        <time>2020-09-03T12:02:36Z</time>
      </trkpt>
      <trkpt lat="44.19542" lon="5.21972">
        <ele>1899.571</ele>
        <time>2020-09-03T12:02:36Z</time>
      </trkpt>
      <trkpt lat="44.19542" lon="5.21972">
        <ele>1901.646</ele>
        <time>2020-09-03T12:02:36Z</time>
      </trkpt>
      <trkpt lat="44.1953" lon="5.22001">
        <ele>1904.116</ele>
        <time>2020-09-03T12:02:40Z</time>
      </trkpt>
      <trkpt lat="44.19531" lon="5.22009">
        <ele>1905.841</ele>
        <time>2020-09-03T12:02:41Z</time>
      </trkpt>
      <trkpt lat="44.19534" lon="5.22019">
        <ele>1907.106</ele>
        <time>2020-09-03T12:02:42Z</time>
      </trkpt>
      <trkpt lat="44.1954" lon="5.22026">
        <ele>1908.277</ele>
        <time>2020-09-03T12:02:43Z</time>
      </trkpt>
      <trkpt lat="44.1954" lon="5.22026">
        <ele>1909.983</ele>
        <time>2020-09-03T12:02:43Z</time>
      </trkpt>
      <trkpt lat="44.19555" lon="5.22024">
        <ele>1912.315</ele>
        <time>2020-09-03T12:02:45Z</time>
      </trkpt>
      <trkpt lat="44.19561" lon="5.22018">
        <ele>1915.952</ele>
        <time>2020-09-03T12:02:46Z</time>
      </trkpt>
      <trkpt lat="44.19565" lon="5.2201">
        <ele>1919.891</ele>
        <time>2020-09-03T12:02:47Z</time>
      </trkpt>
      <trkpt lat="44.19568" lon="5.22003">
        <ele>1923.896</ele>
        <time>2020-09-03T12:02:48Z</time>
      </trkpt>
      <trkpt lat="44.1957" lon="5.21994">
        <ele>1927.566</ele>
        <time>2020-09-03T12:02:49Z</time>
      </trkpt>
      <trkpt lat="44.19573" lon="5.21987">
        <ele>1930.55</ele>
        <time>2020-09-03T12:02:50Z</time>
      </trkpt>
      <trkpt lat="44.19576" lon="5.21978">
        <ele>1932.777</ele>
        <time>2020-09-03T12:02:51Z</time>
      </trkpt>
      <trkpt lat="44.19577" lon="5.21967">
        <ele>1934.253</ele>
        <time>2020-09-03T12:02:52Z</time>
      </trkpt>
      <trkpt lat="44.19576" lon="5.21954">
        <ele>1935.509</ele>
        <time>2020-09-03T12:02:53Z</time>
      </trkpt>
      <trkpt lat="44.19572" lon="5.21942">
        <ele>1936.752</ele>
        <time>2020-09-03T12:02:54Z</time>
      </trkpt>
      <trkpt lat="44.19565" lon="5.21931">
        <ele>1938.124</ele>
        <time>2020-09-03T12:02:55Z</time>
      </trkpt>
      <trkpt lat="44.19557" lon="5.21922">
        <ele>1939.802</ele>
        <time>2020-09-03T12:02:56Z</time>
      </trkpt>
      <trkpt lat="44.19548" lon="5.21917">
        <ele>1942.58</ele>
        <time>2020-09-03T12:02:57Z</time>
      </trkpt>
      <trkpt lat="44.1954" lon="5.21914">
        <ele>1945.352</ele>
        <time>2020-09-03T12:02:58Z</time>
      </trkpt>
      <trkpt lat="44.19531" lon="5.21915">
        <ele>1947.634</ele>
        <time>2020-09-03T12:02:59Z</time>
      </trkpt>
      <trkpt lat="44.19523" lon="5.21917">
        <ele>1950.991</ele>
        <time>2020-09-03T12:03:00Z</time>
      </trkpt>
      <trkpt lat="44.19517" lon="5.2192">
        <ele>1953.97</ele>
        <time>2020-09-03T12:03:01Z</time>
      </trkpt>
      <trkpt lat="44.1951" lon="5.21926">
        <ele>1956.586</ele>
        <time>2020-09-03T12:03:02Z</time>
      </trkpt>
      <trkpt lat="44.19505" lon="5.21932">
        <ele>1960.315</ele>
        <time>2020-09-03T12:03:03Z</time>
      </trkpt>
      <trkpt lat="44.19502" lon="5.2194">
        <ele>1961.803</ele>
        <time>2020-09-03T12:03:04Z</time>
      </trkpt>
      <trkpt lat="44.19502" lon="5.2194">
        <ele>1962.334</ele>
        <time>2020-09-03T12:03:04Z</time>
      </trkpt>
      <trkpt lat="44.19502" lon="5.2194">
        <ele>1962.75</ele>
        <time>2020-09-03T12:03:04Z</time>
      </trkpt>
      <trkpt lat="44.19502" lon="5.2194">
        <ele>1963.392</ele>
        <time>2020-09-03T12:03:04Z</time>
      </trkpt>
      <trkpt lat="44.19502" lon="5.2194">
        <ele>1964.641</ele>
        <time>2020-09-03T12:03:04Z</time>
      </trkpt>
      <trkpt lat="44.1952" lon="5.21994">
        <ele>1966.743</ele>
        <time>2020-09-03T12:03:10Z</time>
      </trkpt>
      <trkpt lat="44.1952" lon="5.21994">
        <ele>1969.44</ele>
        <time>2020-09-03T12:03:10Z</time>
      </trkpt>
      <trkpt lat="44.19527" lon="5.22007">
        <ele>1972.229</ele>
        <time>2020-09-03T12:03:12Z</time>
      </trkpt>
      <trkpt lat="44.19527" lon="5.22007">
        <ele>1974.81</ele>
        <time>2020-09-03T12:03:12Z</time>
      </trkpt>
      <trkpt lat="44.19527" lon="5.22007">
        <ele>1976.981</ele>
        <time>2020-09-03T12:03:12Z</time>
      </trkpt>
      <trkpt lat="44.1953" lon="5.22036">
        <ele>1979.231</ele>
        <time>2020-09-03T12:03:15Z</time>
      </trkpt>
      <trkpt lat="44.1953" lon="5.22036">
        <ele>1981.44</ele>
        <time>2020-09-03T12:03:15Z</time>
      </trkpt>
      <trkpt lat="44.19523" lon="5.22059">
        <ele>1983.731</ele>
        <time>2020-09-03T12:03:17Z</time>
      </trkpt>
      <trkpt lat="44.19516" lon="5.22069">
        <ele>1986.037</ele>
        <time>2020-09-03T12:03:18Z</time>
      </trkpt>
      <trkpt lat="44.19516" lon="5.22069">
        <ele>1988.225</ele>
        <time>2020-09-03T12:03:18Z</time>
      </trkpt>
      <trkpt lat="44.19497" lon="5.22074">
        <ele>1990.732</ele>
        <time>2020-09-03T12:03:20Z</time>
      </trkpt>
      <trkpt lat="44.19487" lon="5.22071">
        <ele>1993.412</ele>
        <time>2020-09-03T12:03:21Z</time>
      </trkpt>
      <trkpt lat="44.19478" lon="5.22065">
        <ele>1995.291</ele>
        <time>2020-09-03T12:03:22Z</time>
      </trkpt>
      <trkpt lat="44.19472" lon="5.22056">
        <ele>1996.886</ele>
        <time>2020-09-03T12:03:23Z</time>
      </trkpt>
      <trkpt lat="44.1947" lon="5.22046">
        <ele>1997.696</ele>
        <time>2020-09-03T12:03:24Z</time>
      </trkpt>
      <trkpt lat="44.19469" lon="5.22035">
        <ele>1997.683</ele>
        <time>2020-09-03T12:03:25Z</time>
      </trkpt>
      <trkpt lat="44.19469" lon="5.22024">
        <ele>1997.273</ele>
        <time>2020-09-03T12:03:26Z</time>
      </trkpt>
      <trkpt lat="44.19471" lon="5.22014">
        <ele>1997.014</ele>
        <time>2020-09-03T12:03:27Z</time>
      </trkpt>
      <trkpt lat="44.19476" lon="5.22007">
        <ele>1997.169</ele>
        <time>2020-09-03T12:03:28Z</time>
      </trkpt>
      <trkpt lat="44.19481" lon="5.22001">
        <ele>1997.866</ele>
        <time>2020-09-03T12:03:29Z</time>
      </trkpt>
      <trkpt lat="44.19481" lon="5.22001">
        <ele>1998.968</ele>
        <time>2020-09-03T12:03:29Z</time>
      </trkpt>
      <trkpt lat="44.19481" lon="5.22001">
        <ele>2000.12</ele>
        <time>2020-09-03T12:03:29Z</time>
      </trkpt>
      <trkpt lat="44.19506" lon="5.22">
        <ele>2000.984</ele>
        <time>2020-09-03T12:03:33Z</time>
      </trkpt>
      <trkpt lat="44.19506" lon="5.22">
        <ele>2002.935</ele>
        <time>2020-09-03T12:03:33Z</time>
      </trkpt>
      <trkpt lat="44.1952" lon="5.22">
        <ele>2006.314</ele>
        <time>2020-09-03T12:03:35Z</time>
      </trkpt>
      <trkpt lat="44.19526" lon="5.21999">
        <ele>2009.671</ele>
        <time>2020-09-03T12:03:36Z</time>
      </trkpt>
      <trkpt lat="44.19531" lon="5.21999">
        <ele>2013.315</ele>
        <time>2020-09-03T12:03:37Z</time>
      </trkpt>
      <trkpt lat="44.19537" lon="5.22">
        <ele>2016.782</ele>
        <time>2020-09-03T12:03:38Z</time>
      </trkpt>
      <trkpt lat="44.19537" lon="5.22">
        <ele>2019.194</ele>
        <time>2020-09-03T12:03:38Z</time>
      </trkpt>
      <trkpt lat="44.19547" lon="5.22011">
        <ele>2020.789</ele>
        <time>2020-09-03T12:03:40Z</time>
      </trkpt>
      <trkpt lat="44.1955" lon="5.22022">
        <ele>2021.858</ele>
        <time>2020-09-03T12:03:41Z</time>
      </trkpt>
      <trkpt lat="44.19551" lon="5.22032">
        <ele>2022.533</ele>
        <time>2020-09-03T12:03:42Z</time>
      </trkpt>
      <trkpt lat="44.19551" lon="5.22044">
        <ele>2023.561</ele>
        <time>2020-09-03T12:03:43Z</time>
      </trkpt>
      <trkpt lat="44.19551" lon="5.22056">
        <ele>2024.637</ele>
        <time>2020-09-03T12:03:44Z</time>
      </trkpt>
      <trkpt lat="44.1955" lon="5.22068">
        <ele>2025.936</ele>
        <time>2020-09-03T12:03:45Z</time>
      </trkpt>
      <trkpt lat="44.19549" lon="5.22081">
        <ele>2027.567</ele>
        <time>2020-09-03T12:03:46Z</time>
      </trkpt>
      <trkpt lat="44.19547" lon="5.22093">
        <ele>2029.353</ele>
        <time>2020-09-03T12:03:47Z</time>
      </trkpt>
      <trkpt lat="44.19544" lon="5.22104">
        <ele>2030.945</ele>
        <time>2020-09-03T12:03:48Z</time>
      </trkpt>
      <trkpt lat="44.19539" lon="5.22114">
        <ele>2032.439</ele>
        <time>2020-09-03T12:03:49Z</time>
      </trkpt>
      <trkpt lat="44.19533" lon="5.22124">
        <ele>2033.08</ele>
        <time>2020-09-03T12:03:50Z</time>
      </trkpt>
      <trkpt lat="44.19525" lon="5.22133">
        <ele>2033.109</ele>
        <time>2020-09-03T12:03:51Z</time>
      </trkpt>
      <trkpt lat="44.19516" lon="5.22138">
        <ele>2032.997</ele>
        <time>2020-09-03T12:03:52Z</time>
      </trkpt>
      <trkpt lat="44.19506" lon="5.2214">
        <ele>2033.102</ele>
        <time>2020-09-03T12:03:53Z</time>
      </trkpt>
      <trkpt lat="44.19496" lon="5.2214">
        <ele>2033.64</ele>
        <time>2020-09-03T12:03:54Z</time>
      </trkpt>
      <trkpt lat="44.19485" lon="5.22139">
        <ele>2034.414</ele>
        <time>2020-09-03T12:03:55Z</time>
      </trkpt>
      <trkpt lat="44.19485" lon="5.22139">
        <ele>2035.481</ele>
        <time>2020-09-03T12:03:55Z</time>
      </trkpt>
      <trkpt lat="44.19485" lon="5.22139">
        <ele>2036.932</ele>
        <time>2020-09-03T12:03:55Z</time>
      </trkpt>
      <trkpt lat="44.19454" lon="5.2213">
        <ele>2039.083</ele>
        <time>2020-09-03T12:03:58Z</time>
      </trkpt>
      <trkpt lat="44.19434" lon="5.22125">
        <ele>2040.634</ele>
        <time>2020-09-03T12:04:00Z</time>
      </trkpt>
      <trkpt lat="44.19424" lon="5.22123">
        <ele>2041.54</ele>
        <time>2020-09-03T12:04:01Z</time>
      </trkpt>
      <trkpt lat="44.19414" lon="5.2212">
        <ele>2043.05</ele>
        <time>2020-09-03T12:04:02Z</time>
      </trkpt>
      <trkpt lat="44.19404" lon="5.22114">
        <ele>2043.944</ele>
        <time>2020-09-03T12:04:03Z</time>
      </trkpt>
      <trkpt lat="44.19404" lon="5.22114">
        <ele>2044.499</ele>
        <time>2020-09-03T12:04:03Z</time>
      </trkpt>
      <trkpt lat="44.19391" lon="5.22092">
        <ele>2044.86</ele>
        <time>2020-09-03T12:04:05Z</time>
      </trkpt>
      <trkpt lat="44.1939" lon="5.22079">
        <ele>2045.308</ele>
        <time>2020-09-03T12:04:06Z</time>
      </trkpt>
      <trkpt lat="44.19393" lon="5.22071">
        <ele>2046.117</ele>
        <time>2020-09-03T12:04:07Z</time>
      </trkpt>
      <trkpt lat="44.19397" lon="5.22065">
        <ele>2047.107</ele>
        <time>2020-09-03T12:04:08Z</time>
      </trkpt>
      <trkpt lat="44.19403" lon="5.22063">
        <ele>2048.363</ele>
        <time>2020-09-03T12:04:09Z</time>
      </trkpt>
      <trkpt lat="44.1941" lon="5.22064">
        <ele>2049.887</ele>
        <time>2020-09-03T12:04:10Z</time>
      </trkpt>
      <trkpt lat="44.19417" lon="5.22065">
        <ele>2052.016</ele>
        <time>2020-09-03T12:04:11Z</time>
      </trkpt>
      <trkpt lat="44.19424" lon="5.22068">
        <ele>2054.866</ele>
        <time>2020-09-03T12:04:12Z</time>
      </trkpt>
      <trkpt lat="44.1943" lon="5.22071">
        <ele>2058.003</ele>
        <time>2020-09-03T12:04:13Z</time>
      </trkpt>
      <trkpt lat="44.19434" lon="5.22074">
        <ele>2061.547</ele>
        <time>2020-09-03T12:04:14Z</time>
      </trkpt>
      <trkpt lat="44.19436" lon="5.2208">
        <ele>2065.182</ele>
        <time>2020-09-03T12:04:15Z</time>
      </trkpt>
      <trkpt lat="44.19436" lon="5.22087">
        <ele>2067.957</ele>
        <time>2020-09-03T12:04:16Z</time>
      </trkpt>
      <trkpt lat="44.19436" lon="5.22097">
        <ele>2069.108</ele>
        <time>2020-09-03T12:04:17Z</time>
      </trkpt>
      <trkpt lat="44.19435" lon="5.22109">
        <ele>2069.531</ele>
        <time>2020-09-03T12:04:18Z</time>
      </trkpt>
      <trkpt lat="44.19426" lon="5.22127">
        <ele>2069.631</ele>
        <time>2020-09-03T12:04:20Z</time>
      </trkpt>
      <trkpt lat="44.19418" lon="5.22135">
        <ele>2069.536</ele>
        <time>2020-09-03T12:04:21Z</time>
      </trkpt>
      <trkpt lat="44.19408" lon="5.22142">
        <ele>2069.058</ele>
        <time>2020-09-03T12:04:22Z</time>
      </trkpt>
      <trkpt lat="44.19399" lon="5.22149">
        <ele>2068.603</ele>
        <time>2020-09-03T12:04:23Z</time>
      </trkpt>
      <trkpt lat="44.1939" lon="5.22155">
        <ele>2068.23</ele>
        <time>2020-09-03T12:04:24Z</time>
      </trkpt>
      <trkpt lat="44.19383" lon="5.22164">
        <ele>2067.586</ele>
        <time>2020-09-03T12:04:25Z</time>
      </trkpt>
      <trkpt lat="44.19379" lon="5.22175">
        <ele>2066.284</ele>
        <time>2020-09-03T12:04:26Z</time>
      </trkpt>
      <trkpt lat="44.19374" lon="5.22187">
        <ele>2064.629</ele>
        <time>2020-09-03T12:04:27Z</time>
      </trkpt>
      <trkpt lat="44.19374" lon="5.22187">
        <ele>2063.676</ele>
        <time>2020-09-03T12:04:27Z</time>
      </trkpt>
      <trkpt lat="44.19368" lon="5.22211">
        <ele>2062.09</ele>
        <time>2020-09-03T12:04:29Z</time>
      </trkpt>
      <trkpt lat="44.19366" lon="5.22222">
        <ele>2060.947</ele>
        <time>2020-09-03T12:04:30Z</time>
      </trkpt>
      <trkpt lat="44.19362" lon="5.22232">
        <ele>2059.569</ele>
        <time>2020-09-03T12:04:31Z</time>
      </trkpt>
      <trkpt lat="44.19359" lon="5.22244">
        <ele>2058.091</ele>
        <time>2020-09-03T12:04:32Z</time>
      </trkpt>
      <trkpt lat="44.19356" lon="5.22256">
        <ele>2056.735</ele>
        <time>2020-09-03T12:04:33Z</time>
      </trkpt>
      <trkpt lat="44.19355" lon="5.22269">
        <ele>2055.827</ele>
        <time>2020-09-03T12:04:34Z</time>
      </trkpt>
      <trkpt lat="44.19354" lon="5.22279">
        <ele>2055.809</ele>
        <time>2020-09-03T12:04:35Z</time>
      </trkpt>
      <trkpt lat="44.19352" lon="5.22285">
        <ele>2056.58</ele>
        <time>2020-09-03T12:04:36Z</time>
      </trkpt>
      <trkpt lat="44.19349" lon="5.2229">
        <ele>2056.949</ele>
        <time>2020-09-03T12:04:37Z</time>
      </trkpt>
      <trkpt lat="44.19349" lon="5.2229">
        <ele>2055.972</ele>
        <time>2020-09-03T12:04:37Z</time>
      </trkpt>
      <trkpt lat="44.19344" lon="5.22304">
        <ele>2054.022</ele>
        <time>2020-09-03T12:04:39Z</time>
      </trkpt>
      <trkpt lat="44.19339" lon="5.22323">
        <ele>2051.606</ele>
        <time>2020-09-03T12:04:41Z</time>
      </trkpt>
      <trkpt lat="44.19336" lon="5.22331">
        <ele>2050.706</ele>
        <time>2020-09-03T12:04:42Z</time>
      </trkpt>
      <trkpt lat="44.19334" lon="5.22337">
        <ele>2050.466</ele>
        <time>2020-09-03T12:04:43Z</time>
      </trkpt>
      <trkpt lat="44.19334" lon="5.22337">
        <ele>2050.433</ele>
        <time>2020-09-03T12:04:43Z</time>
      </trkpt>
      <trkpt lat="44.19331" lon="5.22348">
        <ele>2049.891</ele>
        <time>2020-09-03T12:04:45Z</time>
      </trkpt>
      <trkpt lat="44.1933" lon="5.22354">
        <ele>2048.134</ele>
        <time>2020-09-03T12:04:46Z</time>
      </trkpt>
      <trkpt lat="44.19329" lon="5.22361">
        <ele>2045.901</ele>
        <time>2020-09-03T12:04:47Z</time>
      </trkpt>
      <trkpt lat="44.19328" lon="5.2237">
        <ele>2043.717</ele>
        <time>2020-09-03T12:04:48Z</time>
      </trkpt>
      <trkpt lat="44.19324" lon="5.22385">
        <ele>2042.297</ele>
        <time>2020-09-03T12:04:50Z</time>
      </trkpt>
      <trkpt lat="44.19322" lon="5.22391">
        <ele>2041.245</ele>
        <time>2020-09-03T12:04:51Z</time>
      </trkpt>
      <trkpt lat="44.1932" lon="5.22398">
        <ele>2040.319</ele>
        <time>2020-09-03T12:04:52Z</time>
      </trkpt>
      <trkpt lat="44.19318" lon="5.22405">
        <ele>2039.174</ele>
        <time>2020-09-03T12:04:53Z</time>
      </trkpt>
      <trkpt lat="44.19318" lon="5.22405">
        <ele>2037.446</ele>
        <time>2020-09-03T12:04:53Z</time>
      </trkpt>
      <trkpt lat="44.19318" lon="5.22422">
        <ele>2035.028</ele>
        <time>2020-09-03T12:04:55Z</time>
      </trkpt>
      <trkpt lat="44.19317" lon="5.22431">
        <ele>2032.739</ele>
        <time>2020-09-03T12:04:56Z</time>
      </trkpt>
      <trkpt lat="44.19318" lon="5.22441">
        <ele>2031.306</ele>
        <time>2020-09-03T12:04:57Z</time>
      </trkpt>
      <trkpt lat="44.1932" lon="5.22451">
        <ele>2028.798</ele>
        <time>2020-09-03T12:04:58Z</time>
      </trkpt>
      <trkpt lat="44.1932" lon="5.22451">
        <ele>2026.651</ele>
        <time>2020-09-03T12:04:58Z</time>
      </trkpt>
      <trkpt lat="44.19322" lon="5.22469">
        <ele>2024.633</ele>
        <time>2020-09-03T12:05:00Z</time>
      </trkpt>
      <trkpt lat="44.19322" lon="5.22479">
        <ele>2022.121</ele>
        <time>2020-09-03T12:05:01Z</time>
      </trkpt>
      <trkpt lat="44.19322" lon="5.22489">
        <ele>2019.844</ele>
        <time>2020-09-03T12:05:02Z</time>
      </trkpt>
      <trkpt lat="44.19322" lon="5.22499">
        <ele>2017.719</ele>
        <time>2020-09-03T12:05:03Z</time>
      </trkpt>
      <trkpt lat="44.19322" lon="5.22508">
        <ele>2015.556</ele>
        <time>2020-09-03T12:05:04Z</time>
      </trkpt>
      <trkpt lat="44.19322" lon="5.22518">
        <ele>2013.016</ele>
        <time>2020-09-03T12:05:05Z</time>
      </trkpt>
      <trkpt lat="44.19323" lon="5.22527">
        <ele>2011.198</ele>
        <time>2020-09-03T12:05:06Z</time>
      </trkpt>
      <trkpt lat="44.19323" lon="5.22537">
        <ele>2009.307</ele>
        <time>2020-09-03T12:05:07Z</time>
      </trkpt>
      <trkpt lat="44.19323" lon="5.22546">
        <ele>2007.988</ele>
        <time>2020-09-03T12:05:08Z</time>
      </trkpt>
      <trkpt lat="44.19322" lon="5.22555">
        <ele>2006.377</ele>
        <time>2020-09-03T12:05:09Z</time>
      </trkpt>
      <trkpt lat="44.19321" lon="5.22564">
        <ele>2005.037</ele>
        <time>2020-09-03T12:05:10Z</time>
      </trkpt>
      <trkpt lat="44.1932" lon="5.22583">
        <ele>2003.14</ele>
        <time>2020-09-03T12:05:12Z</time>
      </trkpt>
      <trkpt lat="44.1932" lon="5.22592">
        <ele>2001.713</ele>
        <time>2020-09-03T12:05:13Z</time>
      </trkpt>
      <trkpt lat="44.1932" lon="5.22592">
        <ele>2000.338</ele>
        <time>2020-09-03T12:05:13Z</time>
      </trkpt>
      <trkpt lat="44.19319" lon="5.22609">
        <ele>1998.672</ele>
        <time>2020-09-03T12:05:15Z</time>
      </trkpt>
      <trkpt lat="44.19316" lon="5.22619">
        <ele>1997.3</ele>
        <time>2020-09-03T12:05:16Z</time>
      </trkpt>
      <trkpt lat="44.19313" lon="5.22628">
        <ele>1996.227</ele>
        <time>2020-09-03T12:05:17Z</time>
      </trkpt>
      <trkpt lat="44.19315" lon="5.22637">
        <ele>1995.797</ele>
        <time>2020-09-03T12:05:18Z</time>
      </trkpt>
      <trkpt lat="44.19317" lon="5.22645">
        <ele>1995.958</ele>
        <time>2020-09-03T12:05:19Z</time>
      </trkpt>
      <trkpt lat="44.19318" lon="5.22651">
        <ele>1996.371</ele>
        <time>2020-09-03T12:05:20Z</time>
      </trkpt>
      <trkpt lat="44.1932" lon="5.22655">
        <ele>1996.594</ele>
        <time>2020-09-03T12:05:21Z</time>
      </trkpt>
      <trkpt lat="44.19323" lon="5.22659">
        <ele>1996.309</ele>
        <time>2020-09-03T12:05:22Z</time>
      </trkpt>
      <trkpt lat="44.19327" lon="5.22663">
        <ele>1995.538</ele>
        <time>2020-09-03T12:05:23Z</time>
      </trkpt>
      <trkpt lat="44.19332" lon="5.22668">
        <ele>1994.801</ele>
        <time>2020-09-03T12:05:24Z</time>
      </trkpt>
      <trkpt lat="44.19338" lon="5.22671">
        <ele>1994.236</ele>
        <time>2020-09-03T12:05:25Z</time>
      </trkpt>
      <trkpt lat="44.19343" lon="5.22674">
        <ele>1994.278</ele>
        <time>2020-09-03T12:05:26Z</time>
      </trkpt>
      <trkpt lat="44.19349" lon="5.22676">
        <ele>1994.624</ele>
        <time>2020-09-03T12:05:27Z</time>
      </trkpt>
      <trkpt lat="44.19354" lon="5.22674">
        <ele>1994.71</ele>
        <time>2020-09-03T12:05:28Z</time>
      </trkpt>
      <trkpt lat="44.19361" lon="5.22672">
        <ele>1994.159</ele>
        <time>2020-09-03T12:05:29Z</time>
      </trkpt>
      <trkpt lat="44.19368" lon="5.22673">
        <ele>1993.156</ele>
        <time>2020-09-03T12:05:30Z</time>
      </trkpt>
      <trkpt lat="44.19368" lon="5.22673">
        <ele>1992.721</ele>
        <time>2020-09-03T12:05:30Z</time>
      </trkpt>
      <trkpt lat="44.19387" lon="5.2269">
        <ele>1992.957</ele>
        <time>2020-09-03T12:05:33Z</time>
      </trkpt>
      <trkpt lat="44.19387" lon="5.2269">
        <ele>1993.531</ele>
        <time>2020-09-03T12:05:33Z</time>
      </trkpt>
      <trkpt lat="44.19393" lon="5.22705">
        <ele>1994.223</ele>
        <time>2020-09-03T12:05:35Z</time>
      </trkpt>
      <trkpt lat="44.19395" lon="5.22712">
        <ele>1994.719</ele>
        <time>2020-09-03T12:05:36Z</time>
      </trkpt>
      <trkpt lat="44.19397" lon="5.2272">
        <ele>1994.498</ele>
        <time>2020-09-03T12:05:37Z</time>
      </trkpt>
      <trkpt lat="44.19398" lon="5.2273">
        <ele>1993.649</ele>
        <time>2020-09-03T12:05:38Z</time>
      </trkpt>
      <trkpt lat="44.19399" lon="5.2274">
        <ele>1992.313</ele>
        <time>2020-09-03T12:05:39Z</time>
      </trkpt>
      <trkpt lat="44.19401" lon="5.2275">
        <ele>1991.503</ele>
        <time>2020-09-03T12:05:40Z</time>
      </trkpt>
      <trkpt lat="44.19404" lon="5.22759">
        <ele>1991.354</ele>
        <time>2020-09-03T12:05:41Z</time>
      </trkpt>
      <trkpt lat="44.19405" lon="5.22766">
        <ele>1991.301</ele>
        <time>2020-09-03T12:05:42Z</time>
      </trkpt>
      <trkpt lat="44.19403" lon="5.22772">
        <ele>1990.98</ele>
        <time>2020-09-03T12:05:43Z</time>
      </trkpt>
      <trkpt lat="44.19401" lon="5.2278">
        <ele>1990.102</ele>
        <time>2020-09-03T12:05:44Z</time>
      </trkpt>
      <trkpt lat="44.194" lon="5.22789">
        <ele>1988.67</ele>
        <time>2020-09-03T12:05:45Z</time>
      </trkpt>
      <trkpt lat="44.194" lon="5.22799">
        <ele>1987.159</ele>
        <time>2020-09-03T12:05:46Z</time>
      </trkpt>
      <trkpt lat="44.194" lon="5.22808">
        <ele>1985.949</ele>
        <time>2020-09-03T12:05:47Z</time>
      </trkpt>
      <trkpt lat="44.19401" lon="5.22817">
        <ele>1985.107</ele>
        <time>2020-09-03T12:05:48Z</time>
      </trkpt>
      <trkpt lat="44.19402" lon="5.22825">
        <ele>1984.475</ele>
        <time>2020-09-03T12:05:49Z</time>
      </trkpt>
      <trkpt lat="44.19402" lon="5.22832">
        <ele>1983.872</ele>
        <time>2020-09-03T12:05:50Z</time>
      </trkpt>
      <trkpt lat="44.19401" lon="5.22839">
        <ele>1982.971</ele>
        <time>2020-09-03T12:05:51Z</time>
      </trkpt>
      <trkpt lat="44.19401" lon="5.22839">
        <ele>1982.071</ele>
        <time>2020-09-03T12:05:51Z</time>
      </trkpt>
      <trkpt lat="44.19401" lon="5.22839">
        <ele>1980.104</ele>
        <time>2020-09-03T12:05:51Z</time>
      </trkpt>
      <trkpt lat="44.19396" lon="5.2287">
        <ele>1978.209</ele>
        <time>2020-09-03T12:05:55Z</time>
      </trkpt>
      <trkpt lat="44.19394" lon="5.22879">
        <ele>1976.887</ele>
        <time>2020-09-03T12:05:56Z</time>
      </trkpt>
      <trkpt lat="44.19392" lon="5.22887">
        <ele>1975.35</ele>
        <time>2020-09-03T12:05:57Z</time>
      </trkpt>
      <trkpt lat="44.19389" lon="5.22896">
        <ele>1973.671</ele>
        <time>2020-09-03T12:05:58Z</time>
      </trkpt>
      <trkpt lat="44.19385" lon="5.22905">
        <ele>1972.014</ele>
        <time>2020-09-03T12:05:59Z</time>
      </trkpt>
      <trkpt lat="44.19381" lon="5.22913">
        <ele>1970.525</ele>
        <time>2020-09-03T12:06:00Z</time>
      </trkpt>
      <trkpt lat="44.19377" lon="5.22921">
        <ele>1968.927</ele>
        <time>2020-09-03T12:06:01Z</time>
      </trkpt>
      <trkpt lat="44.19373" lon="5.22927">
        <ele>1967.943</ele>
        <time>2020-09-03T12:06:02Z</time>
      </trkpt>
      <trkpt lat="44.19371" lon="5.22934">
        <ele>1966.667</ele>
        <time>2020-09-03T12:06:03Z</time>
      </trkpt>
      <trkpt lat="44.19367" lon="5.22947">
        <ele>1965.194</ele>
        <time>2020-09-03T12:06:05Z</time>
      </trkpt>
      <trkpt lat="44.19363" lon="5.22954">
        <ele>1963.578</ele>
        <time>2020-09-03T12:06:06Z</time>
      </trkpt>
      <trkpt lat="44.19361" lon="5.2296">
        <ele>1962.174</ele>
        <time>2020-09-03T12:06:07Z</time>
      </trkpt>
      <trkpt lat="44.19359" lon="5.22967">
        <ele>1960.604</ele>
        <time>2020-09-03T12:06:08Z</time>
      </trkpt>
      <trkpt lat="44.19359" lon="5.22967">
        <ele>1958.748</ele>
        <time>2020-09-03T12:06:08Z</time>
      </trkpt>
      <trkpt lat="44.19362" lon="5.22982">
        <ele>1956.835</ele>
        <time>2020-09-03T12:06:10Z</time>
      </trkpt>
      <trkpt lat="44.19363" lon="5.22989">
        <ele>1954.308</ele>
        <time>2020-09-03T12:06:11Z</time>
      </trkpt>
      <trkpt lat="44.19364" lon="5.22996">
        <ele>1951.565</ele>
        <time>2020-09-03T12:06:12Z</time>
      </trkpt>
      <trkpt lat="44.19365" lon="5.23005">
        <ele>1948.889</ele>
        <time>2020-09-03T12:06:13Z</time>
      </trkpt>
      <trkpt lat="44.19365" lon="5.23005">
        <ele>1946.077</ele>
        <time>2020-09-03T12:06:13Z</time>
      </trkpt>
      <trkpt lat="44.19368" lon="5.23023">
        <ele>1943.441</ele>
        <time>2020-09-03T12:06:15Z</time>
      </trkpt>
      <trkpt lat="44.1937" lon="5.23031">
        <ele>1941.764</ele>
        <time>2020-09-03T12:06:16Z</time>
      </trkpt>
      <trkpt lat="44.19371" lon="5.23039">
        <ele>1939.973</ele>
        <time>2020-09-03T12:06:17Z</time>
      </trkpt>
      <trkpt lat="44.19373" lon="5.23047">
        <ele>1938.075</ele>
        <time>2020-09-03T12:06:18Z</time>
      </trkpt>
      <trkpt lat="44.19375" lon="5.23055">
        <ele>1936.152</ele>
        <time>2020-09-03T12:06:19Z</time>
      </trkpt>
      <trkpt lat="44.19378" lon="5.23064">
        <ele>1934.339</ele>
        <time>2020-09-03T12:06:20Z</time>
      </trkpt>
      <trkpt lat="44.1938" lon="5.23076">
        <ele>1929.94</ele>
        <time>2020-09-03T12:06:21Z</time>
      </trkpt>
      <trkpt lat="44.19381" lon="5.23088">
        <ele>1926.028</ele>
        <time>2020-09-03T12:06:22Z</time>
      </trkpt>
      <trkpt lat="44.19382" lon="5.23101">
        <ele>1923.725</ele>
        <time>2020-09-03T12:06:23Z</time>
      </trkpt>
      <trkpt lat="44.19383" lon="5.23112">
        <ele>1922.525</ele>
        <time>2020-09-03T12:06:24Z</time>
      </trkpt>
      <trkpt lat="44.19383" lon="5.23112">
        <ele>1921.616</ele>
        <time>2020-09-03T12:06:24Z</time>
      </trkpt>
      <trkpt lat="44.1939" lon="5.23141">
        <ele>1920.141</ele>
        <time>2020-09-03T12:06:27Z</time>
      </trkpt>
      <trkpt lat="44.19393" lon="5.23152">
        <ele>1917.492</ele>
        <time>2020-09-03T12:06:28Z</time>
      </trkpt>
      <trkpt lat="44.19394" lon="5.23163">
        <ele>1915.439</ele>
        <time>2020-09-03T12:06:29Z</time>
      </trkpt>
      <trkpt lat="44.19395" lon="5.23173">
        <ele>1913.601</ele>
        <time>2020-09-03T12:06:30Z</time>
      </trkpt>
      <trkpt lat="44.19396" lon="5.23182">
        <ele>1911.901</ele>
        <time>2020-09-03T12:06:31Z</time>
      </trkpt>
      <trkpt lat="44.19397" lon="5.23191">
        <ele>1910.291</ele>
        <time>2020-09-03T12:06:32Z</time>
      </trkpt>
      <trkpt lat="44.19399" lon="5.23198">
        <ele>1908.604</ele>
        <time>2020-09-03T12:06:33Z</time>
      </trkpt>
      <trkpt lat="44.19401" lon="5.23207">
        <ele>1906.618</ele>
        <time>2020-09-03T12:06:34Z</time>
      </trkpt>
      <trkpt lat="44.19402" lon="5.23217">
        <ele>1903.76</ele>
        <time>2020-09-03T12:06:35Z</time>
      </trkpt>
      <trkpt lat="44.19403" lon="5.23228">
        <ele>1900.701</ele>
        <time>2020-09-03T12:06:36Z</time>
      </trkpt>
      <trkpt lat="44.19403" lon="5.23239">
        <ele>1898.658</ele>
        <time>2020-09-03T12:06:37Z</time>
      </trkpt>
      <trkpt lat="44.19404" lon="5.2325">
        <ele>1897.089</ele>
        <time>2020-09-03T12:06:38Z</time>
      </trkpt>
      <trkpt lat="44.19404" lon="5.2326">
        <ele>1895.821</ele>
        <time>2020-09-03T12:06:39Z</time>
      </trkpt>
      <trkpt lat="44.19405" lon="5.23269">
        <ele>1894.215</ele>
        <time>2020-09-03T12:06:40Z</time>
      </trkpt>
      <trkpt lat="44.19404" lon="5.23279">
        <ele>1892.395</ele>
        <time>2020-09-03T12:06:41Z</time>
      </trkpt>
      <trkpt lat="44.19403" lon="5.23288">
        <ele>1890.113</ele>
        <time>2020-09-03T12:06:42Z</time>
      </trkpt>
      <trkpt lat="44.19402" lon="5.23298">
        <ele>1887.836</ele>
        <time>2020-09-03T12:06:43Z</time>
      </trkpt>
      <trkpt lat="44.19401" lon="5.23307">
        <ele>1884.993</ele>
        <time>2020-09-03T12:06:44Z</time>
      </trkpt>
      <trkpt lat="44.194" lon="5.23317">
        <ele>1881.635</ele>
        <time>2020-09-03T12:06:45Z</time>
      </trkpt>
      <trkpt lat="44.194" lon="5.23338">
        <ele>1877.993</ele>
        <time>2020-09-03T12:06:47Z</time>
      </trkpt>
      <trkpt lat="44.19401" lon="5.2335">
        <ele>1874.018</ele>
        <time>2020-09-03T12:06:48Z</time>
      </trkpt>
      <trkpt lat="44.19401" lon="5.2335">
        <ele>1872.252</ele>
        <time>2020-09-03T12:06:48Z</time>
      </trkpt>
      <trkpt lat="44.19403" lon="5.23372">
        <ele>1869.616</ele>
        <time>2020-09-03T12:06:50Z</time>
      </trkpt>
      <trkpt lat="44.19405" lon="5.23382">
        <ele>1867.484</ele>
        <time>2020-09-03T12:06:51Z</time>
      </trkpt>
      <trkpt lat="44.19407" lon="5.23392">
        <ele>1865.964</ele>
        <time>2020-09-03T12:06:52Z</time>
      </trkpt>
      <trkpt lat="44.19409" lon="5.23403">
        <ele>1864.165</ele>
        <time>2020-09-03T12:06:53Z</time>
      </trkpt>
      <trkpt lat="44.19411" lon="5.23414">
        <ele>1862.696</ele>
        <time>2020-09-03T12:06:54Z</time>
      </trkpt>
      <trkpt lat="44.19413" lon="5.23434">
        <ele>1861.741</ele>
        <time>2020-09-03T12:06:56Z</time>
      </trkpt>
      <trkpt lat="44.19414" lon="5.23443">
        <ele>1860.694</ele>
        <time>2020-09-03T12:06:57Z</time>
      </trkpt>
      <trkpt lat="44.19415" lon="5.23452">
        <ele>1859.43</ele>
        <time>2020-09-03T12:06:58Z</time>
      </trkpt>
      <trkpt lat="44.19415" lon="5.23452">
        <ele>1857.604</ele>
        <time>2020-09-03T12:06:58Z</time>
      </trkpt>
      <trkpt lat="44.19417" lon="5.23473">
        <ele>1855.445</ele>
        <time>2020-09-03T12:07:00Z</time>
      </trkpt>
      <trkpt lat="44.19417" lon="5.23486">
        <ele>1853.565</ele>
        <time>2020-09-03T12:07:01Z</time>
      </trkpt>
      <trkpt lat="44.19417" lon="5.235">
        <ele>1852.01</ele>
        <time>2020-09-03T12:07:02Z</time>
      </trkpt>
      <trkpt lat="44.19417" lon="5.23513">
        <ele>1851.122</ele>
        <time>2020-09-03T12:07:03Z</time>
      </trkpt>
      <trkpt lat="44.19417" lon="5.23513">
        <ele>1850.88</ele>
        <time>2020-09-03T12:07:03Z</time>
      </trkpt>
      <trkpt lat="44.19419" lon="5.23536">
        <ele>1850.715</ele>
        <time>2020-09-03T12:07:05Z</time>
      </trkpt>
      <trkpt lat="44.1942" lon="5.23548">
        <ele>1850.326</ele>
        <time>2020-09-03T12:07:06Z</time>
      </trkpt>
      <trkpt lat="44.19419" lon="5.2356">
        <ele>1849.316</ele>
        <time>2020-09-03T12:07:07Z</time>
      </trkpt>
      <trkpt lat="44.19419" lon="5.23571">
        <ele>1847.836</ele>
        <time>2020-09-03T12:07:08Z</time>
      </trkpt>
      <trkpt lat="44.19419" lon="5.23571">
        <ele>1846.054</ele>
        <time>2020-09-03T12:07:08Z</time>
      </trkpt>
      <trkpt lat="44.19419" lon="5.23595">
        <ele>1844.433</ele>
        <time>2020-09-03T12:07:10Z</time>
      </trkpt>
      <trkpt lat="44.1942" lon="5.23607">
        <ele>1843.389</ele>
        <time>2020-09-03T12:07:11Z</time>
      </trkpt>
      <trkpt lat="44.1942" lon="5.23616">
        <ele>1842.806</ele>
        <time>2020-09-03T12:07:12Z</time>
      </trkpt>
      <trkpt lat="44.19421" lon="5.23626">
        <ele>1841.72</ele>
        <time>2020-09-03T12:07:13Z</time>
      </trkpt>
      <trkpt lat="44.19421" lon="5.23634">
        <ele>1839.66</ele>
        <time>2020-09-03T12:07:14Z</time>
      </trkpt>
      <trkpt lat="44.19421" lon="5.23644">
        <ele>1836.724</ele>
        <time>2020-09-03T12:07:15Z</time>
      </trkpt>
      <trkpt lat="44.19421" lon="5.23644">
        <ele>1834.226</ele>
        <time>2020-09-03T12:07:15Z</time>
      </trkpt>
      <trkpt lat="44.1942" lon="5.23681">
        <ele>1831.359</ele>
        <time>2020-09-03T12:07:18Z</time>
      </trkpt>
      <trkpt lat="44.1942" lon="5.23681">
        <ele>1829.344</ele>
        <time>2020-09-03T12:07:18Z</time>
      </trkpt>
      <trkpt lat="44.19419" lon="5.23705">
        <ele>1828.11</ele>
        <time>2020-09-03T12:07:20Z</time>
      </trkpt>
      <trkpt lat="44.19419" lon="5.23716">
        <ele>1827.097</ele>
        <time>2020-09-03T12:07:21Z</time>
      </trkpt>
      <trkpt lat="44.1942" lon="5.23728">
        <ele>1825.607</ele>
        <time>2020-09-03T12:07:22Z</time>
      </trkpt>
      <trkpt lat="44.1942" lon="5.23741">
        <ele>1823.878</ele>
        <time>2020-09-03T12:07:23Z</time>
      </trkpt>
      <trkpt lat="44.1942" lon="5.23754">
        <ele>1822.659</ele>
        <time>2020-09-03T12:07:24Z</time>
      </trkpt>
      <trkpt lat="44.1942" lon="5.23767">
        <ele>1822.049</ele>
        <time>2020-09-03T12:07:25Z</time>
      </trkpt>
      <trkpt lat="44.1942" lon="5.23779">
        <ele>1821.8</ele>
        <time>2020-09-03T12:07:26Z</time>
      </trkpt>
      <trkpt lat="44.19421" lon="5.2379">
        <ele>1821.445</ele>
        <time>2020-09-03T12:07:27Z</time>
      </trkpt>
      <trkpt lat="44.19422" lon="5.23799">
        <ele>1820.263</ele>
        <time>2020-09-03T12:07:28Z</time>
      </trkpt>
      <trkpt lat="44.19422" lon="5.23808">
        <ele>1818.114</ele>
        <time>2020-09-03T12:07:29Z</time>
      </trkpt>
      <trkpt lat="44.19423" lon="5.23819">
        <ele>1814.754</ele>
        <time>2020-09-03T12:07:30Z</time>
      </trkpt>
      <trkpt lat="44.19424" lon="5.23833">
        <ele>1810.973</ele>
        <time>2020-09-03T12:07:31Z</time>
      </trkpt>
      <trkpt lat="44.19425" lon="5.23848">
        <ele>1807.852</ele>
        <time>2020-09-03T12:07:32Z</time>
      </trkpt>
      <trkpt lat="44.19426" lon="5.23861">
        <ele>1806.186</ele>
        <time>2020-09-03T12:07:33Z</time>
      </trkpt>
      <trkpt lat="44.19428" lon="5.23872">
        <ele>1806.009</ele>
        <time>2020-09-03T12:07:34Z</time>
      </trkpt>
      <trkpt lat="44.1943" lon="5.23879">
        <ele>1806.738</ele>
        <time>2020-09-03T12:07:35Z</time>
      </trkpt>
      <trkpt lat="44.19434" lon="5.23885">
        <ele>1807.406</ele>
        <time>2020-09-03T12:07:36Z</time>
      </trkpt>
      <trkpt lat="44.19437" lon="5.2389">
        <ele>1807.19</ele>
        <time>2020-09-03T12:07:37Z</time>
      </trkpt>
      <trkpt lat="44.19441" lon="5.23895">
        <ele>1805.777</ele>
        <time>2020-09-03T12:07:38Z</time>
      </trkpt>
      <trkpt lat="44.19443" lon="5.23901">
        <ele>1803.286</ele>
        <time>2020-09-03T12:07:39Z</time>
      </trkpt>
      <trkpt lat="44.19445" lon="5.23909">
        <ele>1800.245</ele>
        <time>2020-09-03T12:07:40Z</time>
      </trkpt>
      <trkpt lat="44.19445" lon="5.23909">
        <ele>1797.415</ele>
        <time>2020-09-03T12:07:40Z</time>
      </trkpt>
      <trkpt lat="44.19445" lon="5.23909">
        <ele>1795.459</ele>
        <time>2020-09-03T12:07:40Z</time>
      </trkpt>
      <trkpt lat="44.19445" lon="5.23909">
        <ele>1794.613</ele>
        <time>2020-09-03T12:07:40Z</time>
      </trkpt>
      <trkpt lat="44.19448" lon="5.23971">
        <ele>1794.288</ele>
        <time>2020-09-03T12:07:45Z</time>
      </trkpt>
      <trkpt lat="44.19449" lon="5.23982">
        <ele>1793.565</ele>
        <time>2020-09-03T12:07:46Z</time>
      </trkpt>
      <trkpt lat="44.1945" lon="5.23994">
        <ele>1792.286</ele>
        <time>2020-09-03T12:07:47Z</time>
      </trkpt>
      <trkpt lat="44.1945" lon="5.24008">
        <ele>1790.567</ele>
        <time>2020-09-03T12:07:48Z</time>
      </trkpt>
      <trkpt lat="44.1945" lon="5.24022">
        <ele>1789.285</ele>
        <time>2020-09-03T12:07:49Z</time>
      </trkpt>
      <trkpt lat="44.1945" lon="5.24035">
        <ele>1788.419</ele>
        <time>2020-09-03T12:07:50Z</time>
      </trkpt>
      <trkpt lat="44.19449" lon="5.24048">
        <ele>1787.725</ele>
        <time>2020-09-03T12:07:51Z</time>
      </trkpt>
      <trkpt lat="44.19448" lon="5.2406">
        <ele>1787.017</ele>
        <time>2020-09-03T12:07:52Z</time>
      </trkpt>
      <trkpt lat="44.19446" lon="5.24072">
        <ele>1786.306</ele>
        <time>2020-09-03T12:07:53Z</time>
      </trkpt>
      <trkpt lat="44.19445" lon="5.24085">
        <ele>1785.736</ele>
        <time>2020-09-03T12:07:54Z</time>
      </trkpt>
      <trkpt lat="44.19443" lon="5.24098">
        <ele>1785.693</ele>
        <time>2020-09-03T12:07:55Z</time>
      </trkpt>
      <trkpt lat="44.19442" lon="5.24111">
        <ele>1786.299</ele>
        <time>2020-09-03T12:07:56Z</time>
      </trkpt>
      <trkpt lat="44.19441" lon="5.24123">
        <ele>1787.649</ele>
        <time>2020-09-03T12:07:57Z</time>
      </trkpt>
      <trkpt lat="44.1944" lon="5.24134">
        <ele>1788.969</ele>
        <time>2020-09-03T12:07:58Z</time>
      </trkpt>
      <trkpt lat="44.19439" lon="5.24145">
        <ele>1790.289</ele>
        <time>2020-09-03T12:07:59Z</time>
      </trkpt>
      <trkpt lat="44.19437" lon="5.24156">
        <ele>1791.301</ele>
        <time>2020-09-03T12:08:00Z</time>
      </trkpt>
      <trkpt lat="44.19437" lon="5.24167">
        <ele>1792.155</ele>
        <time>2020-09-03T12:08:01Z</time>
      </trkpt>
      <trkpt lat="44.1944" lon="5.24179">
        <ele>1792.658</ele>
        <time>2020-09-03T12:08:02Z</time>
      </trkpt>
      <trkpt lat="44.19446" lon="5.24189">
        <ele>1792.664</ele>
        <time>2020-09-03T12:08:03Z</time>
      </trkpt>
      <trkpt lat="44.19454" lon="5.24193">
        <ele>1792.365</ele>
        <time>2020-09-03T12:08:04Z</time>
      </trkpt>
      <trkpt lat="44.19472" lon="5.24188">
        <ele>1792.096</ele>
        <time>2020-09-03T12:08:06Z</time>
      </trkpt>
      <trkpt lat="44.1948" lon="5.2418">
        <ele>1791.949</ele>
        <time>2020-09-03T12:08:07Z</time>
      </trkpt>
      <trkpt lat="44.19487" lon="5.24171">
        <ele>1791.688</ele>
        <time>2020-09-03T12:08:08Z</time>
      </trkpt>
      <trkpt lat="44.19493" lon="5.2416">
        <ele>1791.314</ele>
        <time>2020-09-03T12:08:09Z</time>
      </trkpt>
      <trkpt lat="44.19497" lon="5.24146">
        <ele>1790.791</ele>
        <time>2020-09-03T12:08:10Z</time>
      </trkpt>
      <trkpt lat="44.19496" lon="5.24131">
        <ele>1790.255</ele>
        <time>2020-09-03T12:08:11Z</time>
      </trkpt>
      <trkpt lat="44.19496" lon="5.24131">
        <ele>1790.112</ele>
        <time>2020-09-03T12:08:11Z</time>
      </trkpt>
      <trkpt lat="44.19487" lon="5.24106">
        <ele>1790.561</ele>
        <time>2020-09-03T12:08:13Z</time>
      </trkpt>
      <trkpt lat="44.19481" lon="5.24096">
        <ele>1791.562</ele>
        <time>2020-09-03T12:08:14Z</time>
      </trkpt>
      <trkpt lat="44.19481" lon="5.24096">
        <ele>1793.109</ele>
        <time>2020-09-03T12:08:14Z</time>
      </trkpt>
      <trkpt lat="44.19481" lon="5.24096">
        <ele>1794.346</ele>
        <time>2020-09-03T12:08:14Z</time>
      </trkpt>
      <trkpt lat="44.19481" lon="5.24096">
        <ele>1795.432</ele>
        <time>2020-09-03T12:08:14Z</time>
      </trkpt>
      <trkpt lat="44.19481" lon="5.24096">
        <ele>1796.305</ele>
        <time>2020-09-03T12:08:14Z</time>
      </trkpt>
      <trkpt lat="44.19448" lon="5.24065">
        <ele>1796.898</ele>
        <time>2020-09-03T12:08:19Z</time>
      </trkpt>
      <trkpt lat="44.19448" lon="5.24065">
        <ele>1797.387</ele>
        <time>2020-09-03T12:08:19Z</time>
      </trkpt>
      <trkpt lat="44.19431" lon="5.24063">
        <ele>1797.933</ele>
        <time>2020-09-03T12:08:21Z</time>
      </trkpt>
      <trkpt lat="44.19423" lon="5.24063">
        <ele>1798.585</ele>
        <time>2020-09-03T12:08:22Z</time>
      </trkpt>
      <trkpt lat="44.19416" lon="5.24061">
        <ele>1799.372</ele>
        <time>2020-09-03T12:08:23Z</time>
      </trkpt>
      <trkpt lat="44.19408" lon="5.24056">
        <ele>1800.162</ele>
        <time>2020-09-03T12:08:24Z</time>
      </trkpt>
      <trkpt lat="44.19392" lon="5.24044">
        <ele>1801.246</ele>
        <time>2020-09-03T12:08:26Z</time>
      </trkpt>
      <trkpt lat="44.19385" lon="5.24038">
        <ele>1802.682</ele>
        <time>2020-09-03T12:08:27Z</time>
      </trkpt>
      <trkpt lat="44.19378" lon="5.24033">
        <ele>1804.469</ele>
        <time>2020-09-03T12:08:28Z</time>
      </trkpt>
      <trkpt lat="44.19378" lon="5.24033">
        <ele>1806.007</ele>
        <time>2020-09-03T12:08:28Z</time>
      </trkpt>
      <trkpt lat="44.19363" lon="5.24024">
        <ele>1807.322</ele>
        <time>2020-09-03T12:08:30Z</time>
      </trkpt>
      <trkpt lat="44.19355" lon="5.24025">
        <ele>1807.882</ele>
        <time>2020-09-03T12:08:31Z</time>
      </trkpt>
      <trkpt lat="44.19347" lon="5.2403">
        <ele>1808.131</ele>
        <time>2020-09-03T12:08:32Z</time>
      </trkpt>
      <trkpt lat="44.19343" lon="5.24041">
        <ele>1808.498</ele>
        <time>2020-09-03T12:08:33Z</time>
      </trkpt>
      <trkpt lat="44.19342" lon="5.24052">
        <ele>1808.813</ele>
        <time>2020-09-03T12:08:34Z</time>
      </trkpt>
      <trkpt lat="44.19344" lon="5.24062">
        <ele>1808.647</ele>
        <time>2020-09-03T12:08:35Z</time>
      </trkpt>
      <trkpt lat="44.19354" lon="5.24077">
        <ele>1807.929</ele>
        <time>2020-09-03T12:08:37Z</time>
      </trkpt>
      <trkpt lat="44.19362" lon="5.24081">
        <ele>1806.953</ele>
        <time>2020-09-03T12:08:38Z</time>
      </trkpt>
      <trkpt lat="44.19372" lon="5.24081">
        <ele>1805.718</ele>
        <time>2020-09-03T12:08:39Z</time>
      </trkpt>
      <trkpt lat="44.19381" lon="5.24078">
        <ele>1804.389</ele>
        <time>2020-09-03T12:08:40Z</time>
      </trkpt>
      <trkpt lat="44.19381" lon="5.24078">
        <ele>1803.561</ele>
        <time>2020-09-03T12:08:40Z</time>
      </trkpt>
      <trkpt lat="44.19397" lon="5.24064">
        <ele>1802.307</ele>
        <time>2020-09-03T12:08:42Z</time>
      </trkpt>
      <trkpt lat="44.19406" lon="5.24056">
        <ele>1801.019</ele>
        <time>2020-09-03T12:08:43Z</time>
      </trkpt>
      <trkpt lat="44.19415" lon="5.24047">
        <ele>1800.474</ele>
        <time>2020-09-03T12:08:44Z</time>
      </trkpt>
      <trkpt lat="44.19422" lon="5.24038">
        <ele>1800.867</ele>
        <time>2020-09-03T12:08:45Z</time>
      </trkpt>
      <trkpt lat="44.19427" lon="5.24028">
        <ele>1802.301</ele>
        <time>2020-09-03T12:08:46Z</time>
      </trkpt>
      <trkpt lat="44.19431" lon="5.24019">
        <ele>1804.092</ele>
        <time>2020-09-03T12:08:47Z</time>
      </trkpt>
      <trkpt lat="44.19435" lon="5.24011">
        <ele>1805.663</ele>
        <time>2020-09-03T12:08:48Z</time>
      </trkpt>
      <trkpt lat="44.19439" lon="5.24003">
        <ele>1806.758</ele>
        <time>2020-09-03T12:08:49Z</time>
      </trkpt>
      <trkpt lat="44.19444" lon="5.23993">
        <ele>1807.239</ele>
        <time>2020-09-03T12:08:50Z</time>
      </trkpt>
      <trkpt lat="44.19447" lon="5.23981">
        <ele>1807.239</ele>
        <time>2020-09-03T12:08:51Z</time>
      </trkpt>
      <trkpt lat="44.19447" lon="5.23981">
        <ele>1806.97</ele>
        <time>2020-09-03T12:08:51Z</time>
      </trkpt>
      <trkpt lat="44.19437" lon="5.23959">
        <ele>1806.652</ele>
        <time>2020-09-03T12:08:53Z</time>
      </trkpt>
      <trkpt lat="44.1942" lon="5.23956">
        <ele>1807.077</ele>
        <time>2020-09-03T12:08:55Z</time>
      </trkpt>
      <trkpt lat="44.19413" lon="5.23958">
        <ele>1808.405</ele>
        <time>2020-09-03T12:08:56Z</time>
      </trkpt>
      <trkpt lat="44.19408" lon="5.23961">
        <ele>1810.09</ele>
        <time>2020-09-03T12:08:57Z</time>
      </trkpt>
      <trkpt lat="44.19402" lon="5.23964">
        <ele>1811.447</ele>
        <time>2020-09-03T12:08:58Z</time>
      </trkpt>
      <trkpt lat="44.19397" lon="5.23967">
        <ele>1812.12</ele>
        <time>2020-09-03T12:08:59Z</time>
      </trkpt>
      <trkpt lat="44.1939" lon="5.23972">
        <ele>1812.234</ele>
        <time>2020-09-03T12:09:00Z</time>
      </trkpt>
      <trkpt lat="44.19384" lon="5.23981">
        <ele>1812.381</ele>
        <time>2020-09-03T12:09:01Z</time>
      </trkpt>
      <trkpt lat="44.19379" lon="5.23993">
        <ele>1813.043</ele>
        <time>2020-09-03T12:09:02Z</time>
      </trkpt>
      <trkpt lat="44.19377" lon="5.24004">
        <ele>1813.897</ele>
        <time>2020-09-03T12:09:03Z</time>
      </trkpt>
      <trkpt lat="44.19379" lon="5.24024">
        <ele>1815.161</ele>
        <time>2020-09-03T12:09:05Z</time>
      </trkpt>
      <trkpt lat="44.19382" lon="5.24033">
        <ele>1815.656</ele>
        <time>2020-09-03T12:09:06Z</time>
      </trkpt>
      <trkpt lat="44.19385" lon="5.2404">
        <ele>1815.196</ele>
        <time>2020-09-03T12:09:07Z</time>
      </trkpt>
      <trkpt lat="44.19392" lon="5.24045">
        <ele>1813.637</ele>
        <time>2020-09-03T12:09:08Z</time>
      </trkpt>
      <trkpt lat="44.19401" lon="5.24047">
        <ele>1812.048</ele>
        <time>2020-09-03T12:09:09Z</time>
      </trkpt>
      <trkpt lat="44.19411" lon="5.24045">
        <ele>1809.138</ele>
        <time>2020-09-03T12:09:10Z</time>
      </trkpt>
      <trkpt lat="44.19422" lon="5.24039">
        <ele>1806.612</ele>
        <time>2020-09-03T12:09:11Z</time>
      </trkpt>
      <trkpt lat="44.19432" lon="5.24032">
        <ele>1804.537</ele>
        <time>2020-09-03T12:09:12Z</time>
      </trkpt>
      <trkpt lat="44.19441" lon="5.24024">
        <ele>1803.593</ele>
        <time>2020-09-03T12:09:13Z</time>
      </trkpt>
      <trkpt lat="44.19448" lon="5.24014">
        <ele>1803.473</ele>
        <time>2020-09-03T12:09:14Z</time>
      </trkpt>
      <trkpt lat="44.19453" lon="5.24004">
        <ele>1803.985</ele>
        <time>2020-09-03T12:09:15Z</time>
      </trkpt>
      <trkpt lat="44.19459" lon="5.23994">
        <ele>1804.688</ele>
        <time>2020-09-03T12:09:16Z</time>
      </trkpt>
      <trkpt lat="44.19466" lon="5.23985">
        <ele>1805.429</ele>
        <time>2020-09-03T12:09:17Z</time>
      </trkpt>
      <trkpt lat="44.19472" lon="5.23976">
        <ele>1805.803</ele>
        <time>2020-09-03T12:09:18Z</time>
      </trkpt>
      <trkpt lat="44.19477" lon="5.23966">
        <ele>1805.751</ele>
        <time>2020-09-03T12:09:19Z</time>
      </trkpt>
      <trkpt lat="44.19481" lon="5.23955">
        <ele>1805.111</ele>
        <time>2020-09-03T12:09:20Z</time>
      </trkpt>
      <trkpt lat="44.19484" lon="5.23943">
        <ele>1803.799</ele>
        <time>2020-09-03T12:09:21Z</time>
      </trkpt>
      <trkpt lat="44.19485" lon="5.23929">
        <ele>1802.437</ele>
        <time>2020-09-03T12:09:22Z</time>
      </trkpt>
      <trkpt lat="44.19483" lon="5.23916">
        <ele>1800.662</ele>
        <time>2020-09-03T12:09:23Z</time>
      </trkpt>
      <trkpt lat="44.19479" lon="5.23906">
        <ele>1799.073</ele>
        <time>2020-09-03T12:09:24Z</time>
      </trkpt>
      <trkpt lat="44.19473" lon="5.239">
        <ele>1796.991</ele>
        <time>2020-09-03T12:09:25Z</time>
      </trkpt>
      <trkpt lat="44.19456" lon="5.23899">
        <ele>1795.593</ele>
        <time>2020-09-03T12:09:27Z</time>
      </trkpt>
      <trkpt lat="44.19449" lon="5.23901">
        <ele>1794.642</ele>
        <time>2020-09-03T12:09:28Z</time>
      </trkpt>
      <trkpt lat="44.19441" lon="5.23904">
        <ele>1794.596</ele>
        <time>2020-09-03T12:09:29Z</time>
      </trkpt>
      <trkpt lat="44.19435" lon="5.23909">
        <ele>1795.018</ele>
        <time>2020-09-03T12:09:30Z</time>
      </trkpt>
      <trkpt lat="44.19428" lon="5.23914">
        <ele>1795.666</ele>
        <time>2020-09-03T12:09:31Z</time>
      </trkpt>
      <trkpt lat="44.1942" lon="5.23917">
        <ele>1796.226</ele>
        <time>2020-09-03T12:09:32Z</time>
      </trkpt>
      <trkpt lat="44.19412" lon="5.23916">
        <ele>1796.829</ele>
        <time>2020-09-03T12:09:33Z</time>
      </trkpt>
      <trkpt lat="44.19404" lon="5.23912">
        <ele>1797.211</ele>
        <time>2020-09-03T12:09:34Z</time>
      </trkpt>
      <trkpt lat="44.19398" lon="5.23904">
        <ele>1797.484</ele>
        <time>2020-09-03T12:09:35Z</time>
      </trkpt>
      <trkpt lat="44.19394" lon="5.23893">
        <ele>1797.676</ele>
        <time>2020-09-03T12:09:36Z</time>
      </trkpt>
      <trkpt lat="44.19394" lon="5.23893">
        <ele>1797.965</ele>
        <time>2020-09-03T12:09:36Z</time>
      </trkpt>
      <trkpt lat="44.19394" lon="5.23893">
        <ele>1798.89</ele>
        <time>2020-09-03T12:09:36Z</time>
      </trkpt>
      <trkpt lat="44.19404" lon="5.23859">
        <ele>1800.272</ele>
        <time>2020-09-03T12:09:39Z</time>
      </trkpt>
      <trkpt lat="44.19404" lon="5.23859">
        <ele>1801.707</ele>
        <time>2020-09-03T12:09:39Z</time>
      </trkpt>
      <trkpt lat="44.19404" lon="5.23859">
        <ele>1802.338</ele>
        <time>2020-09-03T12:09:39Z</time>
      </trkpt>
      <trkpt lat="44.19404" lon="5.23859">
        <ele>1801.733</ele>
        <time>2020-09-03T12:09:39Z</time>
      </trkpt>
      <trkpt lat="44.1943" lon="5.23836">
        <ele>1799.331</ele>
        <time>2020-09-03T12:09:43Z</time>
      </trkpt>
      <trkpt lat="44.19451" lon="5.23829">
        <ele>1795.877</ele>
        <time>2020-09-03T12:09:45Z</time>
      </trkpt>
      <trkpt lat="44.19464" lon="5.23831">
        <ele>1792.7</ele>
        <time>2020-09-03T12:09:46Z</time>
      </trkpt>
      <trkpt lat="44.19475" lon="5.23837">
        <ele>1790.135</ele>
        <time>2020-09-03T12:09:47Z</time>
      </trkpt>
      <trkpt lat="44.1948" lon="5.23847">
        <ele>1788.837</ele>
        <time>2020-09-03T12:09:48Z</time>
      </trkpt>
      <trkpt lat="44.19482" lon="5.23858">
        <ele>1787.23</ele>
        <time>2020-09-03T12:09:49Z</time>
      </trkpt>
      <trkpt lat="44.19483" lon="5.23869">
        <ele>1785.274</ele>
        <time>2020-09-03T12:09:50Z</time>
      </trkpt>
      <trkpt lat="44.19485" lon="5.2388">
        <ele>1782.728</ele>
        <time>2020-09-03T12:09:51Z</time>
      </trkpt>
      <trkpt lat="44.19485" lon="5.2389">
        <ele>1779.624</ele>
        <time>2020-09-03T12:09:52Z</time>
      </trkpt>
      <trkpt lat="44.19485" lon="5.23902">
        <ele>1775.516</ele>
        <time>2020-09-03T12:09:53Z</time>
      </trkpt>
      <trkpt lat="44.19484" lon="5.23915">
        <ele>1771.709</ele>
        <time>2020-09-03T12:09:54Z</time>
      </trkpt>
      <trkpt lat="44.1948" lon="5.2394">
        <ele>1769.241</ele>
        <time>2020-09-03T12:09:56Z</time>
      </trkpt>
      <trkpt lat="44.19478" lon="5.23949">
        <ele>1768.05</ele>
        <time>2020-09-03T12:09:57Z</time>
      </trkpt>
      <trkpt lat="44.19476" lon="5.23957">
        <ele>1768.065</ele>
        <time>2020-09-03T12:09:58Z</time>
      </trkpt>
      <trkpt lat="44.19475" lon="5.23965">
        <ele>1767.863</ele>
        <time>2020-09-03T12:09:59Z</time>
      </trkpt>
      <trkpt lat="44.19473" lon="5.23973">
        <ele>1766.733</ele>
        <time>2020-09-03T12:10:00Z</time>
      </trkpt>
      <trkpt lat="44.19471" lon="5.23984">
        <ele>1764.652</ele>
        <time>2020-09-03T12:10:01Z</time>
      </trkpt>
      <trkpt lat="44.19469" lon="5.23995">
        <ele>1762.303</ele>
        <time>2020-09-03T12:10:02Z</time>
      </trkpt>
      <trkpt lat="44.19466" lon="5.24007">
        <ele>1759.787</ele>
        <time>2020-09-03T12:10:03Z</time>
      </trkpt>
      <trkpt lat="44.19463" lon="5.24018">
        <ele>1757.91</ele>
        <time>2020-09-03T12:10:04Z</time>
      </trkpt>
      <trkpt lat="44.1946" lon="5.24028">
        <ele>1757.113</ele>
        <time>2020-09-03T12:10:05Z</time>
      </trkpt>
      <trkpt lat="44.19456" lon="5.24037">
        <ele>1756.575</ele>
        <time>2020-09-03T12:10:06Z</time>
      </trkpt>
      <trkpt lat="44.19453" lon="5.24045">
        <ele>1756.043</ele>
        <time>2020-09-03T12:10:07Z</time>
      </trkpt>
      <trkpt lat="44.19449" lon="5.24054">
        <ele>1755.151</ele>
        <time>2020-09-03T12:10:08Z</time>
      </trkpt>
      <trkpt lat="44.19445" lon="5.24064">
        <ele>1754.059</ele>
        <time>2020-09-03T12:10:09Z</time>
      </trkpt>
      <trkpt lat="44.19442" lon="5.24075">
        <ele>1752.948</ele>
        <time>2020-09-03T12:10:10Z</time>
      </trkpt>
      <trkpt lat="44.19439" lon="5.24086">
        <ele>1752.396</ele>
        <time>2020-09-03T12:10:11Z</time>
      </trkpt>
      <trkpt lat="44.19438" lon="5.24097">
        <ele>1752.116</ele>
        <time>2020-09-03T12:10:12Z</time>
      </trkpt>
      <trkpt lat="44.19437" lon="5.24108">
        <ele>1751.905</ele>
        <time>2020-09-03T12:10:13Z</time>
      </trkpt>
      <trkpt lat="44.19436" lon="5.24119">
        <ele>1751.52</ele>
        <time>2020-09-03T12:10:14Z</time>
      </trkpt>
      <trkpt lat="44.19436" lon="5.24119">
        <ele>1750.932</ele>
        <time>2020-09-03T12:10:14Z</time>
      </trkpt>
      <trkpt lat="44.19435" lon="5.24157">
        <ele>1750.492</ele>
        <time>2020-09-03T12:10:17Z</time>
      </trkpt>
      <trkpt lat="44.19434" lon="5.24169">
        <ele>1750.499</ele>
        <time>2020-09-03T12:10:18Z</time>
      </trkpt>
      <trkpt lat="44.19434" lon="5.24169">
        <ele>1751.078</ele>
        <time>2020-09-03T12:10:18Z</time>
      </trkpt>
      <trkpt lat="44.19431" lon="5.24189">
        <ele>1751.688</ele>
        <time>2020-09-03T12:10:20Z</time>
      </trkpt>
      <trkpt lat="44.1943" lon="5.24198">
        <ele>1752.116</ele>
        <time>2020-09-03T12:10:21Z</time>
      </trkpt>
      <trkpt lat="44.19428" lon="5.24207">
        <ele>1752.023</ele>
        <time>2020-09-03T12:10:22Z</time>
      </trkpt>
      <trkpt lat="44.19427" lon="5.24216">
        <ele>1751.393</ele>
        <time>2020-09-03T12:10:23Z</time>
      </trkpt>
      <trkpt lat="44.19425" lon="5.24225">
        <ele>1750.51</ele>
        <time>2020-09-03T12:10:24Z</time>
      </trkpt>
      <trkpt lat="44.19423" lon="5.24235">
        <ele>1749.3</ele>
        <time>2020-09-03T12:10:25Z</time>
      </trkpt>
      <trkpt lat="44.19419" lon="5.24245">
        <ele>1748.347</ele>
        <time>2020-09-03T12:10:26Z</time>
      </trkpt>
      <trkpt lat="44.19416" lon="5.24255">
        <ele>1747.662</ele>
        <time>2020-09-03T12:10:27Z</time>
      </trkpt>
      <trkpt lat="44.19413" lon="5.24266">
        <ele>1747.848</ele>
        <time>2020-09-03T12:10:28Z</time>
      </trkpt>
      <trkpt lat="44.19411" lon="5.24275">
        <ele>1748.784</ele>
        <time>2020-09-03T12:10:29Z</time>
      </trkpt>
      <trkpt lat="44.1941" lon="5.24282">
        <ele>1749.878</ele>
        <time>2020-09-03T12:10:30Z</time>
      </trkpt>
      <trkpt lat="44.19408" lon="5.24289">
        <ele>1750.794</ele>
        <time>2020-09-03T12:10:31Z</time>
      </trkpt>
      <trkpt lat="44.19405" lon="5.24298">
        <ele>1751.169</ele>
        <time>2020-09-03T12:10:32Z</time>
      </trkpt>
      <trkpt lat="44.19405" lon="5.24298">
        <ele>1751.239</ele>
        <time>2020-09-03T12:10:32Z</time>
      </trkpt>
      <trkpt lat="44.19402" lon="5.24314">
        <ele>1751.2</ele>
        <time>2020-09-03T12:10:34Z</time>
      </trkpt>
      <trkpt lat="44.194" lon="5.2433">
        <ele>1750.997</ele>
        <time>2020-09-03T12:10:36Z</time>
      </trkpt>
      <trkpt lat="44.19399" lon="5.24337">
        <ele>1750.541</ele>
        <time>2020-09-03T12:10:37Z</time>
      </trkpt>
      <trkpt lat="44.19397" lon="5.24345">
        <ele>1749.845</ele>
        <time>2020-09-03T12:10:38Z</time>
      </trkpt>
      <trkpt lat="44.19395" lon="5.24354">
        <ele>1749.092</ele>
        <time>2020-09-03T12:10:39Z</time>
      </trkpt>
      <trkpt lat="44.19393" lon="5.24363">
        <ele>1748.139</ele>
        <time>2020-09-03T12:10:40Z</time>
      </trkpt>
      <trkpt lat="44.1939" lon="5.24372">
        <ele>1746.983</ele>
        <time>2020-09-03T12:10:41Z</time>
      </trkpt>
      <trkpt lat="44.19387" lon="5.24382">
        <ele>1745.905</ele>
        <time>2020-09-03T12:10:42Z</time>
      </trkpt>
      <trkpt lat="44.19383" lon="5.24393">
        <ele>1745.261</ele>
        <time>2020-09-03T12:10:43Z</time>
      </trkpt>
      <trkpt lat="44.19377" lon="5.24412">
        <ele>1744.883</ele>
        <time>2020-09-03T12:10:45Z</time>
      </trkpt>
      <trkpt lat="44.19374" lon="5.2442">
        <ele>1744.566</ele>
        <time>2020-09-03T12:10:46Z</time>
      </trkpt>
      <trkpt lat="44.19371" lon="5.24428">
        <ele>1743.987</ele>
        <time>2020-09-03T12:10:47Z</time>
      </trkpt>
      <trkpt lat="44.19368" lon="5.24435">
        <ele>1743.072</ele>
        <time>2020-09-03T12:10:48Z</time>
      </trkpt>
      <trkpt lat="44.19363" lon="5.24442">
        <ele>1741.977</ele>
        <time>2020-09-03T12:10:49Z</time>
      </trkpt>
      <trkpt lat="44.19356" lon="5.24448">
        <ele>1741.046</ele>
        <time>2020-09-03T12:10:50Z</time>
      </trkpt>
      <trkpt lat="44.19347" lon="5.24452">
        <ele>1740.096</ele>
        <time>2020-09-03T12:10:51Z</time>
      </trkpt>
      <trkpt lat="44.19337" lon="5.24454">
        <ele>1739.581</ele>
        <time>2020-09-03T12:10:52Z</time>
      </trkpt>
      <trkpt lat="44.19327" lon="5.24457">
        <ele>1739.439</ele>
        <time>2020-09-03T12:10:53Z</time>
      </trkpt>
      <trkpt lat="44.19318" lon="5.24461">
        <ele>1739.639</ele>
        <time>2020-09-03T12:10:54Z</time>
      </trkpt>
      <trkpt lat="44.1931" lon="5.24465">
        <ele>1739.888</ele>
        <time>2020-09-03T12:10:55Z</time>
      </trkpt>
      <trkpt lat="44.19303" lon="5.24469">
        <ele>1739.889</ele>
        <time>2020-09-03T12:10:56Z</time>
      </trkpt>
      <trkpt lat="44.19297" lon="5.24473">
        <ele>1739.38</ele>
        <time>2020-09-03T12:10:57Z</time>
      </trkpt>
      <trkpt lat="44.19291" lon="5.24479">
        <ele>1738.373</ele>
        <time>2020-09-03T12:10:58Z</time>
      </trkpt>
      <trkpt lat="44.19285" lon="5.24487">
        <ele>1736.891</ele>
        <time>2020-09-03T12:10:59Z</time>
      </trkpt>
      <trkpt lat="44.1928" lon="5.24496">
        <ele>1735.496</ele>
        <time>2020-09-03T12:11:00Z</time>
      </trkpt>
      <trkpt lat="44.1928" lon="5.24496">
        <ele>1734.918</ele>
        <time>2020-09-03T12:11:00Z</time>
      </trkpt>
      <trkpt lat="44.19271" lon="5.24515">
        <ele>1733.858</ele>
        <time>2020-09-03T12:11:02Z</time>
      </trkpt>
      <trkpt lat="44.19271" lon="5.24515">
        <ele>1733.296</ele>
        <time>2020-09-03T12:11:02Z</time>
      </trkpt>
      <trkpt lat="44.19262" lon="5.24529">
        <ele>1732.259</ele>
        <time>2020-09-03T12:11:04Z</time>
      </trkpt>
      <trkpt lat="44.19257" lon="5.24537">
        <ele>1731.149</ele>
        <time>2020-09-03T12:11:05Z</time>
      </trkpt>
      <trkpt lat="44.1925" lon="5.24555">
        <ele>1729.59</ele>
        <time>2020-09-03T12:11:07Z</time>
      </trkpt>
      <trkpt lat="44.19247" lon="5.24565">
        <ele>1728.297</ele>
        <time>2020-09-03T12:11:08Z</time>
      </trkpt>
      <trkpt lat="44.19243" lon="5.24575">
        <ele>1727.674</ele>
        <time>2020-09-03T12:11:09Z</time>
      </trkpt>
      <trkpt lat="44.19243" lon="5.24575">
        <ele>1727.371</ele>
        <time>2020-09-03T12:11:09Z</time>
      </trkpt>
      <trkpt lat="44.19237" lon="5.24592">
        <ele>1727.159</ele>
        <time>2020-09-03T12:11:11Z</time>
      </trkpt>
      <trkpt lat="44.19233" lon="5.24601">
        <ele>1726.662</ele>
        <time>2020-09-03T12:11:12Z</time>
      </trkpt>
      <trkpt lat="44.1923" lon="5.2461">
        <ele>1725.677</ele>
        <time>2020-09-03T12:11:13Z</time>
      </trkpt>
      <trkpt lat="44.19226" lon="5.24619">
        <ele>1724.456</ele>
        <time>2020-09-03T12:11:14Z</time>
      </trkpt>
      <trkpt lat="44.19226" lon="5.24619">
        <ele>1723.299</ele>
        <time>2020-09-03T12:11:14Z</time>
      </trkpt>
      <trkpt lat="44.19226" lon="5.24619">
        <ele>1722.529</ele>
        <time>2020-09-03T12:11:14Z</time>
      </trkpt>
      <trkpt lat="44.19226" lon="5.24619">
        <ele>1722.206</ele>
        <time>2020-09-03T12:11:14Z</time>
      </trkpt>
      <trkpt lat="44.19226" lon="5.24619">
        <ele>1722.044</ele>
        <time>2020-09-03T12:11:14Z</time>
      </trkpt>
      <trkpt lat="44.19209" lon="5.24665">
        <ele>1721.772</ele>
        <time>2020-09-03T12:11:19Z</time>
      </trkpt>
      <trkpt lat="44.19207" lon="5.24674">
        <ele>1721.103</ele>
        <time>2020-09-03T12:11:20Z</time>
      </trkpt>
      <trkpt lat="44.19204" lon="5.24684">
        <ele>1720.213</ele>
        <time>2020-09-03T12:11:21Z</time>
      </trkpt>
      <trkpt lat="44.19202" lon="5.24696">
        <ele>1719.724</ele>
        <time>2020-09-03T12:11:22Z</time>
      </trkpt>
      <trkpt lat="44.19201" lon="5.24707">
        <ele>1719.744</ele>
        <time>2020-09-03T12:11:23Z</time>
      </trkpt>
      <trkpt lat="44.192" lon="5.24718">
        <ele>1720.329</ele>
        <time>2020-09-03T12:11:24Z</time>
      </trkpt>
      <trkpt lat="44.19201" lon="5.24733">
        <ele>1720.984</ele>
        <time>2020-09-03T12:11:26Z</time>
      </trkpt>
      <trkpt lat="44.19203" lon="5.24741">
        <ele>1721.101</ele>
        <time>2020-09-03T12:11:27Z</time>
      </trkpt>
      <trkpt lat="44.19205" lon="5.24748">
        <ele>1720.225</ele>
        <time>2020-09-03T12:11:28Z</time>
      </trkpt>
      <trkpt lat="44.19206" lon="5.24756">
        <ele>1718.434</ele>
        <time>2020-09-03T12:11:29Z</time>
      </trkpt>
      <trkpt lat="44.19206" lon="5.24764">
        <ele>1716.977</ele>
        <time>2020-09-03T12:11:30Z</time>
      </trkpt>
      <trkpt lat="44.19205" lon="5.24773">
        <ele>1713.755</ele>
        <time>2020-09-03T12:11:31Z</time>
      </trkpt>
      <trkpt lat="44.19202" lon="5.2478">
        <ele>1710.216</ele>
        <time>2020-09-03T12:11:32Z</time>
      </trkpt>
      <trkpt lat="44.19195" lon="5.24784">
        <ele>1706.533</ele>
        <time>2020-09-03T12:11:33Z</time>
      </trkpt>
      <trkpt lat="44.19186" lon="5.24782">
        <ele>1702.776</ele>
        <time>2020-09-03T12:11:34Z</time>
      </trkpt>
      <trkpt lat="44.19186" lon="5.24782">
        <ele>1699.405</ele>
        <time>2020-09-03T12:11:34Z</time>
      </trkpt>
      <trkpt lat="44.19163" lon="5.24759">
        <ele>1697.659</ele>
        <time>2020-09-03T12:11:37Z</time>
      </trkpt>
      <trkpt lat="44.19157" lon="5.2475">
        <ele>1696.775</ele>
        <time>2020-09-03T12:11:38Z</time>
      </trkpt>
      <trkpt lat="44.19157" lon="5.2475">
        <ele>1695.768</ele>
        <time>2020-09-03T12:11:38Z</time>
      </trkpt>
      <trkpt lat="44.19147" lon="5.24735">
        <ele>1694.438</ele>
        <time>2020-09-03T12:11:40Z</time>
      </trkpt>
      <trkpt lat="44.19141" lon="5.24727">
        <ele>1692.073</ele>
        <time>2020-09-03T12:11:41Z</time>
      </trkpt>
      <trkpt lat="44.19136" lon="5.24717">
        <ele>1689.611</ele>
        <time>2020-09-03T12:11:42Z</time>
      </trkpt>
      <trkpt lat="44.1913" lon="5.24706">
        <ele>1686.854</ele>
        <time>2020-09-03T12:11:43Z</time>
      </trkpt>
      <trkpt lat="44.19124" lon="5.24695">
        <ele>1684.731</ele>
        <time>2020-09-03T12:11:44Z</time>
      </trkpt>
      <trkpt lat="44.1912" lon="5.24685">
        <ele>1682.913</ele>
        <time>2020-09-03T12:11:45Z</time>
      </trkpt>
      <trkpt lat="44.19116" lon="5.24675">
        <ele>1681.177</ele>
        <time>2020-09-03T12:11:46Z</time>
      </trkpt>
      <trkpt lat="44.19114" lon="5.24663">
        <ele>1679.332</ele>
        <time>2020-09-03T12:11:47Z</time>
      </trkpt>
      <trkpt lat="44.19112" lon="5.24649">
        <ele>1677.472</ele>
        <time>2020-09-03T12:11:48Z</time>
      </trkpt>
      <trkpt lat="44.19112" lon="5.24635">
        <ele>1675.834</ele>
        <time>2020-09-03T12:11:49Z</time>
      </trkpt>
      <trkpt lat="44.19113" lon="5.24621">
        <ele>1674.018</ele>
        <time>2020-09-03T12:11:50Z</time>
      </trkpt>
      <trkpt lat="44.19113" lon="5.24607">
        <ele>1672.508</ele>
        <time>2020-09-03T12:11:51Z</time>
      </trkpt>
      <trkpt lat="44.19115" lon="5.24593">
        <ele>1671.079</ele>
        <time>2020-09-03T12:11:52Z</time>
      </trkpt>
      <trkpt lat="44.19117" lon="5.24579">
        <ele>1669.729</ele>
        <time>2020-09-03T12:11:53Z</time>
      </trkpt>
      <trkpt lat="44.1912" lon="5.24566">
        <ele>1669.027</ele>
        <time>2020-09-03T12:11:54Z</time>
      </trkpt>
      <trkpt lat="44.19123" lon="5.24554">
        <ele>1668.7</ele>
        <time>2020-09-03T12:11:55Z</time>
      </trkpt>
      <trkpt lat="44.19126" lon="5.24543">
        <ele>1668.109</ele>
        <time>2020-09-03T12:11:56Z</time>
      </trkpt>
      <trkpt lat="44.19126" lon="5.24543">
        <ele>1667.345</ele>
        <time>2020-09-03T12:11:56Z</time>
      </trkpt>
      <trkpt lat="44.19133" lon="5.2452">
        <ele>1665.716</ele>
        <time>2020-09-03T12:11:58Z</time>
      </trkpt>
      <trkpt lat="44.19138" lon="5.24492">
        <ele>1663.425</ele>
        <time>2020-09-03T12:12:00Z</time>
      </trkpt>
      <trkpt lat="44.19141" lon="5.24476">
        <ele>1661.688</ele>
        <time>2020-09-03T12:12:01Z</time>
      </trkpt>
      <trkpt lat="44.19145" lon="5.24462">
        <ele>1660.386</ele>
        <time>2020-09-03T12:12:02Z</time>
      </trkpt>
      <trkpt lat="44.19148" lon="5.24449">
        <ele>1659.114</ele>
        <time>2020-09-03T12:12:03Z</time>
      </trkpt>
      <trkpt lat="44.19152" lon="5.24437">
        <ele>1657.897</ele>
        <time>2020-09-03T12:12:04Z</time>
      </trkpt>
      <trkpt lat="44.19155" lon="5.24426">
        <ele>1656.136</ele>
        <time>2020-09-03T12:12:05Z</time>
      </trkpt>
      <trkpt lat="44.19158" lon="5.24414">
        <ele>1654.175</ele>
        <time>2020-09-03T12:12:06Z</time>
      </trkpt>
      <trkpt lat="44.19161" lon="5.24402">
        <ele>1651.095</ele>
        <time>2020-09-03T12:12:07Z</time>
      </trkpt>
      <trkpt lat="44.19165" lon="5.24388">
        <ele>1648.686</ele>
        <time>2020-09-03T12:12:08Z</time>
      </trkpt>
      <trkpt lat="44.19169" lon="5.24374">
        <ele>1645.318</ele>
        <time>2020-09-03T12:12:09Z</time>
      </trkpt>
      <trkpt lat="44.19172" lon="5.24359">
        <ele>1642.615</ele>
        <time>2020-09-03T12:12:10Z</time>
      </trkpt>
      <trkpt lat="44.19176" lon="5.24346">
        <ele>1640.901</ele>
        <time>2020-09-03T12:12:11Z</time>
      </trkpt>
      <trkpt lat="44.19179" lon="5.24332">
        <ele>1639.48</ele>
        <time>2020-09-03T12:12:12Z</time>
      </trkpt>
      <trkpt lat="44.19183" lon="5.24319">
        <ele>1638.478</ele>
        <time>2020-09-03T12:12:13Z</time>
      </trkpt>
      <trkpt lat="44.19185" lon="5.24305">
        <ele>1637.419</ele>
        <time>2020-09-03T12:12:14Z</time>
      </trkpt>
      <trkpt lat="44.19187" lon="5.24291">
        <ele>1635.898</ele>
        <time>2020-09-03T12:12:15Z</time>
      </trkpt>
      <trkpt lat="44.19187" lon="5.24291">
        <ele>1634.389</ele>
        <time>2020-09-03T12:12:15Z</time>
      </trkpt>
      <trkpt lat="44.19192" lon="5.24265">
        <ele>1632.53</ele>
        <time>2020-09-03T12:12:17Z</time>
      </trkpt>
      <trkpt lat="44.19192" lon="5.24265">
        <ele>1629.804</ele>
        <time>2020-09-03T12:12:17Z</time>
      </trkpt>
      <trkpt lat="44.19199" lon="5.24239">
        <ele>1626.802</ele>
        <time>2020-09-03T12:12:19Z</time>
      </trkpt>
      <trkpt lat="44.19207" lon="5.2421">
        <ele>1623.779</ele>
        <time>2020-09-03T12:12:21Z</time>
      </trkpt>
      <trkpt lat="44.1921" lon="5.24197">
        <ele>1622.677</ele>
        <time>2020-09-03T12:12:22Z</time>
      </trkpt>
      <trkpt lat="44.19213" lon="5.24187">
        <ele>1622.75</ele>
        <time>2020-09-03T12:12:23Z</time>
      </trkpt>
      <trkpt lat="44.19215" lon="5.24178">
        <ele>1622.686</ele>
        <time>2020-09-03T12:12:24Z</time>
      </trkpt>
      <trkpt lat="44.19216" lon="5.24168">
        <ele>1621.484</ele>
        <time>2020-09-03T12:12:25Z</time>
      </trkpt>
      <trkpt lat="44.19218" lon="5.24158">
        <ele>1619.834</ele>
        <time>2020-09-03T12:12:26Z</time>
      </trkpt>
      <trkpt lat="44.19222" lon="5.24147">
        <ele>1616.311</ele>
        <time>2020-09-03T12:12:27Z</time>
      </trkpt>
      <trkpt lat="44.19226" lon="5.24135">
        <ele>1612.709</ele>
        <time>2020-09-03T12:12:28Z</time>
      </trkpt>
      <trkpt lat="44.19235" lon="5.24113">
        <ele>1610.415</ele>
        <time>2020-09-03T12:12:30Z</time>
      </trkpt>
      <trkpt lat="44.19239" lon="5.24103">
        <ele>1609.072</ele>
        <time>2020-09-03T12:12:31Z</time>
      </trkpt>
      <trkpt lat="44.19242" lon="5.24093">
        <ele>1608.127</ele>
        <time>2020-09-03T12:12:32Z</time>
      </trkpt>
      <trkpt lat="44.19247" lon="5.24082">
        <ele>1607.03</ele>
        <time>2020-09-03T12:12:33Z</time>
      </trkpt>
      <trkpt lat="44.19247" lon="5.24082">
        <ele>1605.901</ele>
        <time>2020-09-03T12:12:33Z</time>
      </trkpt>
      <trkpt lat="44.19257" lon="5.24059">
        <ele>1605.318</ele>
        <time>2020-09-03T12:12:35Z</time>
      </trkpt>
      <trkpt lat="44.19261" lon="5.24048">
        <ele>1605.481</ele>
        <time>2020-09-03T12:12:36Z</time>
      </trkpt>
      <trkpt lat="44.19265" lon="5.24038">
        <ele>1605.863</ele>
        <time>2020-09-03T12:12:37Z</time>
      </trkpt>
      <trkpt lat="44.19269" lon="5.24028">
        <ele>1606.053</ele>
        <time>2020-09-03T12:12:38Z</time>
      </trkpt>
      <trkpt lat="44.19269" lon="5.24028">
        <ele>1605.921</ele>
        <time>2020-09-03T12:12:38Z</time>
      </trkpt>
      <trkpt lat="44.1928" lon="5.24011">
        <ele>1605.812</ele>
        <time>2020-09-03T12:12:40Z</time>
      </trkpt>
      <trkpt lat="44.19286" lon="5.24004">
        <ele>1606.27</ele>
        <time>2020-09-03T12:12:41Z</time>
      </trkpt>
      <trkpt lat="44.19291" lon="5.23999">
        <ele>1607.176</ele>
        <time>2020-09-03T12:12:42Z</time>
      </trkpt>
      <trkpt lat="44.19294" lon="5.23993">
        <ele>1608.208</ele>
        <time>2020-09-03T12:12:43Z</time>
      </trkpt>
      <trkpt lat="44.19298" lon="5.23986">
        <ele>1609.091</ele>
        <time>2020-09-03T12:12:44Z</time>
      </trkpt>
      <trkpt lat="44.19303" lon="5.2398">
        <ele>1609.388</ele>
        <time>2020-09-03T12:12:45Z</time>
      </trkpt>
      <trkpt lat="44.19308" lon="5.23973">
        <ele>1608.939</ele>
        <time>2020-09-03T12:12:46Z</time>
      </trkpt>
      <trkpt lat="44.19313" lon="5.23964">
        <ele>1607.692</ele>
        <time>2020-09-03T12:12:47Z</time>
      </trkpt>
      <trkpt lat="44.19318" lon="5.23955">
        <ele>1605.411</ele>
        <time>2020-09-03T12:12:48Z</time>
      </trkpt>
      <trkpt lat="44.19322" lon="5.23945">
        <ele>1602.76</ele>
        <time>2020-09-03T12:12:49Z</time>
      </trkpt>
      <trkpt lat="44.19326" lon="5.23935">
        <ele>1600.696</ele>
        <time>2020-09-03T12:12:50Z</time>
      </trkpt>
      <trkpt lat="44.1933" lon="5.23925">
        <ele>1599.207</ele>
        <time>2020-09-03T12:12:51Z</time>
      </trkpt>
      <trkpt lat="44.19334" lon="5.23905">
        <ele>1598.668</ele>
        <time>2020-09-03T12:12:53Z</time>
      </trkpt>
      <trkpt lat="44.19334" lon="5.23905">
        <ele>1598.788</ele>
        <time>2020-09-03T12:12:53Z</time>
      </trkpt>
      <trkpt lat="44.19336" lon="5.23888">
        <ele>1598.838</ele>
        <time>2020-09-03T12:12:55Z</time>
      </trkpt>
      <trkpt lat="44.19337" lon="5.23879">
        <ele>1598.116</ele>
        <time>2020-09-03T12:12:56Z</time>
      </trkpt>
      <trkpt lat="44.19338" lon="5.2387">
        <ele>1596.567</ele>
        <time>2020-09-03T12:12:57Z</time>
      </trkpt>
      <trkpt lat="44.19339" lon="5.2386">
        <ele>1594.562</ele>
        <time>2020-09-03T12:12:58Z</time>
      </trkpt>
      <trkpt lat="44.19339" lon="5.23851">
        <ele>1592.449</ele>
        <time>2020-09-03T12:12:59Z</time>
      </trkpt>
      <trkpt lat="44.1934" lon="5.23841">
        <ele>1590.911</ele>
        <time>2020-09-03T12:13:00Z</time>
      </trkpt>
      <trkpt lat="44.19341" lon="5.23833">
        <ele>1589.949</ele>
        <time>2020-09-03T12:13:01Z</time>
      </trkpt>
      <trkpt lat="44.19343" lon="5.23825">
        <ele>1589.322</ele>
        <time>2020-09-03T12:13:02Z</time>
      </trkpt>
      <trkpt lat="44.19346" lon="5.23818">
        <ele>1588.721</ele>
        <time>2020-09-03T12:13:03Z</time>
      </trkpt>
      <trkpt lat="44.19347" lon="5.2381">
        <ele>1588.019</ele>
        <time>2020-09-03T12:13:04Z</time>
      </trkpt>
      <trkpt lat="44.19349" lon="5.23802">
        <ele>1587.345</ele>
        <time>2020-09-03T12:13:05Z</time>
      </trkpt>
      <trkpt lat="44.1935" lon="5.23794">
        <ele>1586.457</ele>
        <time>2020-09-03T12:13:06Z</time>
      </trkpt>
      <trkpt lat="44.19352" lon="5.23786">
        <ele>1585.56</ele>
        <time>2020-09-03T12:13:07Z</time>
      </trkpt>
      <trkpt lat="44.19354" lon="5.23779">
        <ele>1584.192</ele>
        <time>2020-09-03T12:13:08Z</time>
      </trkpt>
      <trkpt lat="44.19356" lon="5.23771">
        <ele>1582.418</ele>
        <time>2020-09-03T12:13:09Z</time>
      </trkpt>
      <trkpt lat="44.19359" lon="5.23762">
        <ele>1579.312</ele>
        <time>2020-09-03T12:13:10Z</time>
      </trkpt>
      <trkpt lat="44.19361" lon="5.23753">
        <ele>1576.515</ele>
        <time>2020-09-03T12:13:11Z</time>
      </trkpt>
      <trkpt lat="44.19364" lon="5.23743">
        <ele>1574.863</ele>
        <time>2020-09-03T12:13:12Z</time>
      </trkpt>
      <trkpt lat="44.19364" lon="5.23743">
        <ele>1573.981</ele>
        <time>2020-09-03T12:13:12Z</time>
      </trkpt>
      <trkpt lat="44.19374" lon="5.23729">
        <ele>1573.508</ele>
        <time>2020-09-03T12:13:14Z</time>
      </trkpt>
      <trkpt lat="44.19386" lon="5.23721">
        <ele>1573.769</ele>
        <time>2020-09-03T12:13:16Z</time>
      </trkpt>
      <trkpt lat="44.19392" lon="5.23718">
        <ele>1574.669</ele>
        <time>2020-09-03T12:13:17Z</time>
      </trkpt>
      <trkpt lat="44.19397" lon="5.23716">
        <ele>1575.95</ele>
        <time>2020-09-03T12:13:18Z</time>
      </trkpt>
      <trkpt lat="44.19402" lon="5.23714">
        <ele>1576.523</ele>
        <time>2020-09-03T12:13:19Z</time>
      </trkpt>
      <trkpt lat="44.19407" lon="5.23712">
        <ele>1576.216</ele>
        <time>2020-09-03T12:13:20Z</time>
      </trkpt>
      <trkpt lat="44.19412" lon="5.23709">
        <ele>1575.233</ele>
        <time>2020-09-03T12:13:21Z</time>
      </trkpt>
      <trkpt lat="44.19412" lon="5.23709">
        <ele>1574.527</ele>
        <time>2020-09-03T12:13:21Z</time>
      </trkpt>
      <trkpt lat="44.19423" lon="5.23697">
        <ele>1573.201</ele>
        <time>2020-09-03T12:13:23Z</time>
      </trkpt>
      <trkpt lat="44.19427" lon="5.2369">
        <ele>1571.719</ele>
        <time>2020-09-03T12:13:24Z</time>
      </trkpt>
      <trkpt lat="44.1943" lon="5.23681">
        <ele>1570.039</ele>
        <time>2020-09-03T12:13:25Z</time>
      </trkpt>
      <trkpt lat="44.1943" lon="5.23671">
        <ele>1567.67</ele>
        <time>2020-09-03T12:13:26Z</time>
      </trkpt>
      <trkpt lat="44.19431" lon="5.23647">
        <ele>1565.382</ele>
        <time>2020-09-03T12:13:28Z</time>
      </trkpt>
      <trkpt lat="44.19431" lon="5.23647">
        <ele>1562.512</ele>
        <time>2020-09-03T12:13:28Z</time>
      </trkpt>
      <trkpt lat="44.19434" lon="5.23624">
        <ele>1560.216</ele>
        <time>2020-09-03T12:13:30Z</time>
      </trkpt>
      <trkpt lat="44.19436" lon="5.23613">
        <ele>1557.919</ele>
        <time>2020-09-03T12:13:31Z</time>
      </trkpt>
      <trkpt lat="44.19436" lon="5.23601">
        <ele>1556.19</ele>
        <time>2020-09-03T12:13:32Z</time>
      </trkpt>
      <trkpt lat="44.19436" lon="5.2359">
        <ele>1554.613</ele>
        <time>2020-09-03T12:13:33Z</time>
      </trkpt>
      <trkpt lat="44.19436" lon="5.2359">
        <ele>1552.694</ele>
        <time>2020-09-03T12:13:33Z</time>
      </trkpt>
      <trkpt lat="44.19438" lon="5.23567">
        <ele>1550.374</ele>
        <time>2020-09-03T12:13:35Z</time>
      </trkpt>
      <trkpt lat="44.19439" lon="5.23556">
        <ele>1548.231</ele>
        <time>2020-09-03T12:13:36Z</time>
      </trkpt>
      <trkpt lat="44.19442" lon="5.23545">
        <ele>1547.272</ele>
        <time>2020-09-03T12:13:37Z</time>
      </trkpt>
      <trkpt lat="44.19444" lon="5.23535">
        <ele>1547.184</ele>
        <time>2020-09-03T12:13:38Z</time>
      </trkpt>
      <trkpt lat="44.19446" lon="5.23526">
        <ele>1547.255</ele>
        <time>2020-09-03T12:13:39Z</time>
      </trkpt>
      <trkpt lat="44.19449" lon="5.23517">
        <ele>1546.853</ele>
        <time>2020-09-03T12:13:40Z</time>
      </trkpt>
      <trkpt lat="44.19452" lon="5.23506">
        <ele>1545.952</ele>
        <time>2020-09-03T12:13:41Z</time>
      </trkpt>
      <trkpt lat="44.19455" lon="5.23495">
        <ele>1544.959</ele>
        <time>2020-09-03T12:13:42Z</time>
      </trkpt>
      <trkpt lat="44.19458" lon="5.23482">
        <ele>1544.405</ele>
        <time>2020-09-03T12:13:43Z</time>
      </trkpt>
      <trkpt lat="44.1946" lon="5.23469">
        <ele>1544.858</ele>
        <time>2020-09-03T12:13:44Z</time>
      </trkpt>
      <trkpt lat="44.1946" lon="5.23469">
        <ele>1545.953</ele>
        <time>2020-09-03T12:13:44Z</time>
      </trkpt>
      <trkpt lat="44.1946" lon="5.23469">
        <ele>1547.214</ele>
        <time>2020-09-03T12:13:44Z</time>
      </trkpt>
      <trkpt lat="44.1946" lon="5.23429">
        <ele>1548.086</ele>
        <time>2020-09-03T12:13:48Z</time>
      </trkpt>
      <trkpt lat="44.1946" lon="5.23429">
        <ele>1548.47</ele>
        <time>2020-09-03T12:13:48Z</time>
      </trkpt>
      <trkpt lat="44.19463" lon="5.2341">
        <ele>1548.609</ele>
        <time>2020-09-03T12:13:50Z</time>
      </trkpt>
      <trkpt lat="44.19465" lon="5.23403">
        <ele>1548.69</ele>
        <time>2020-09-03T12:13:51Z</time>
      </trkpt>
      <trkpt lat="44.19467" lon="5.23398">
        <ele>1548.44</ele>
        <time>2020-09-03T12:13:52Z</time>
      </trkpt>
      <trkpt lat="44.1947" lon="5.23393">
        <ele>1547.614</ele>
        <time>2020-09-03T12:13:53Z</time>
      </trkpt>
      <trkpt lat="44.1947" lon="5.23393">
        <ele>1546.131</ele>
        <time>2020-09-03T12:13:53Z</time>
      </trkpt>
      <trkpt lat="44.19478" lon="5.23384">
        <ele>1544.112</ele>
        <time>2020-09-03T12:13:55Z</time>
      </trkpt>
      <trkpt lat="44.19484" lon="5.23378">
        <ele>1541.347</ele>
        <time>2020-09-03T12:13:56Z</time>
      </trkpt>
      <trkpt lat="44.19489" lon="5.2337">
        <ele>1538.349</ele>
        <time>2020-09-03T12:13:57Z</time>
      </trkpt>
      <trkpt lat="44.19494" lon="5.2336">
        <ele>1535.242</ele>
        <time>2020-09-03T12:13:58Z</time>
      </trkpt>
      <trkpt lat="44.19494" lon="5.2336">
        <ele>1533.053</ele>
        <time>2020-09-03T12:13:58Z</time>
      </trkpt>
      <trkpt lat="44.19499" lon="5.23341">
        <ele>1531.333</ele>
        <time>2020-09-03T12:14:00Z</time>
      </trkpt>
      <trkpt lat="44.19503" lon="5.23332">
        <ele>1529.456</ele>
        <time>2020-09-03T12:14:01Z</time>
      </trkpt>
      <trkpt lat="44.19506" lon="5.23323">
        <ele>1527.738</ele>
        <time>2020-09-03T12:14:02Z</time>
      </trkpt>
      <trkpt lat="44.19509" lon="5.23313">
        <ele>1525.966</ele>
        <time>2020-09-03T12:14:03Z</time>
      </trkpt>
      <trkpt lat="44.19512" lon="5.23303">
        <ele>1523.302</ele>
        <time>2020-09-03T12:14:04Z</time>
      </trkpt>
      <trkpt lat="44.19515" lon="5.23292">
        <ele>1520.965</ele>
        <time>2020-09-03T12:14:05Z</time>
      </trkpt>
      <trkpt lat="44.19517" lon="5.2328">
        <ele>1518.93</ele>
        <time>2020-09-03T12:14:06Z</time>
      </trkpt>
      <trkpt lat="44.19519" lon="5.2327">
        <ele>1517.682</ele>
        <time>2020-09-03T12:14:07Z</time>
      </trkpt>
      <trkpt lat="44.19519" lon="5.2327">
        <ele>1516.773</ele>
        <time>2020-09-03T12:14:07Z</time>
      </trkpt>
      <trkpt lat="44.19524" lon="5.23244">
        <ele>1515.754</ele>
        <time>2020-09-03T12:14:10Z</time>
      </trkpt>
      <trkpt lat="44.19526" lon="5.23235">
        <ele>1514.815</ele>
        <time>2020-09-03T12:14:11Z</time>
      </trkpt>
      <trkpt lat="44.1953" lon="5.23226">
        <ele>1514.07</ele>
        <time>2020-09-03T12:14:12Z</time>
      </trkpt>
      <trkpt lat="44.19534" lon="5.23219">
        <ele>1513.606</ele>
        <time>2020-09-03T12:14:13Z</time>
      </trkpt>
      <trkpt lat="44.19539" lon="5.23212">
        <ele>1513.453</ele>
        <time>2020-09-03T12:14:14Z</time>
      </trkpt>
      <trkpt lat="44.19543" lon="5.23206">
        <ele>1513.314</ele>
        <time>2020-09-03T12:14:15Z</time>
      </trkpt>
      <trkpt lat="44.19545" lon="5.23198">
        <ele>1513.123</ele>
        <time>2020-09-03T12:14:16Z</time>
      </trkpt>
      <trkpt lat="44.19548" lon="5.23191">
        <ele>1513.083</ele>
        <time>2020-09-03T12:14:17Z</time>
      </trkpt>
      <trkpt lat="44.19551" lon="5.23184">
        <ele>1513.171</ele>
        <time>2020-09-03T12:14:18Z</time>
      </trkpt>
      <trkpt lat="44.19555" lon="5.23177">
        <ele>1513.235</ele>
        <time>2020-09-03T12:14:19Z</time>
      </trkpt>
      <trkpt lat="44.19559" lon="5.23171">
        <ele>1512.903</ele>
        <time>2020-09-03T12:14:20Z</time>
      </trkpt>
      <trkpt lat="44.19562" lon="5.23164">
        <ele>1511.992</ele>
        <time>2020-09-03T12:14:21Z</time>
      </trkpt>
      <trkpt lat="44.19566" lon="5.23157">
        <ele>1510.521</ele>
        <time>2020-09-03T12:14:22Z</time>
      </trkpt>
      <trkpt lat="44.1957" lon="5.23148">
        <ele>1508.18</ele>
        <time>2020-09-03T12:14:23Z</time>
      </trkpt>
      <trkpt lat="44.19573" lon="5.23139">
        <ele>1505.999</ele>
        <time>2020-09-03T12:14:24Z</time>
      </trkpt>
      <trkpt lat="44.19575" lon="5.23129">
        <ele>1503.378</ele>
        <time>2020-09-03T12:14:25Z</time>
      </trkpt>
      <trkpt lat="44.19576" lon="5.23119">
        <ele>1500.863</ele>
        <time>2020-09-03T12:14:26Z</time>
      </trkpt>
      <trkpt lat="44.19578" lon="5.23109">
        <ele>1497.69</ele>
        <time>2020-09-03T12:14:27Z</time>
      </trkpt>
      <trkpt lat="44.19579" lon="5.23099">
        <ele>1493.643</ele>
        <time>2020-09-03T12:14:28Z</time>
      </trkpt>
      <trkpt lat="44.1958" lon="5.23076">
        <ele>1489.365</ele>
        <time>2020-09-03T12:14:30Z</time>
      </trkpt>
      <trkpt lat="44.19581" lon="5.23061">
        <ele>1485.282</ele>
        <time>2020-09-03T12:14:31Z</time>
      </trkpt>
      <trkpt lat="44.1958" lon="5.23047">
        <ele>1482.431</ele>
        <time>2020-09-03T12:14:32Z</time>
      </trkpt>
      <trkpt lat="44.1958" lon="5.23035">
        <ele>1480.511</ele>
        <time>2020-09-03T12:14:33Z</time>
      </trkpt>
      <trkpt lat="44.19581" lon="5.23026">
        <ele>1479.386</ele>
        <time>2020-09-03T12:14:34Z</time>
      </trkpt>
      <trkpt lat="44.19582" lon="5.23017">
        <ele>1477.804</ele>
        <time>2020-09-03T12:14:35Z</time>
      </trkpt>
      <trkpt lat="44.19584" lon="5.23007">
        <ele>1475.532</ele>
        <time>2020-09-03T12:14:36Z</time>
      </trkpt>
      <trkpt lat="44.19586" lon="5.22996">
        <ele>1472.176</ele>
        <time>2020-09-03T12:14:37Z</time>
      </trkpt>
      <trkpt lat="44.19588" lon="5.22983">
        <ele>1469.981</ele>
        <time>2020-09-03T12:14:38Z</time>
      </trkpt>
      <trkpt lat="44.19591" lon="5.22973">
        <ele>1469.305</ele>
        <time>2020-09-03T12:14:39Z</time>
      </trkpt>
      <trkpt lat="44.19594" lon="5.22963">
        <ele>1469.713</ele>
        <time>2020-09-03T12:14:40Z</time>
      </trkpt>
      <trkpt lat="44.19596" lon="5.22958">
        <ele>1470.218</ele>
        <time>2020-09-03T12:14:41Z</time>
      </trkpt>
      <trkpt lat="44.19599" lon="5.22948">
        <ele>1469.858</ele>
        <time>2020-09-03T12:14:43Z</time>
      </trkpt>
      <trkpt lat="44.19599" lon="5.22948">
        <ele>1468.554</ele>
        <time>2020-09-03T12:14:43Z</time>
      </trkpt>
      <trkpt lat="44.19604" lon="5.2293">
        <ele>1466.245</ele>
        <time>2020-09-03T12:14:45Z</time>
      </trkpt>
      <trkpt lat="44.19608" lon="5.2292">
        <ele>1464.659</ele>
        <time>2020-09-03T12:14:46Z</time>
      </trkpt>
      <trkpt lat="44.19612" lon="5.2291">
        <ele>1461.61</ele>
        <time>2020-09-03T12:14:47Z</time>
      </trkpt>
      <trkpt lat="44.19616" lon="5.229">
        <ele>1459.632</ele>
        <time>2020-09-03T12:14:48Z</time>
      </trkpt>
      <trkpt lat="44.19616" lon="5.229">
        <ele>1458.192</ele>
        <time>2020-09-03T12:14:48Z</time>
      </trkpt>
      <trkpt lat="44.19623" lon="5.22881">
        <ele>1457.134</ele>
        <time>2020-09-03T12:14:50Z</time>
      </trkpt>
      <trkpt lat="44.19625" lon="5.2287">
        <ele>1455.977</ele>
        <time>2020-09-03T12:14:51Z</time>
      </trkpt>
      <trkpt lat="44.19627" lon="5.22859">
        <ele>1454.376</ele>
        <time>2020-09-03T12:14:52Z</time>
      </trkpt>
      <trkpt lat="44.19628" lon="5.22847">
        <ele>1452.897</ele>
        <time>2020-09-03T12:14:53Z</time>
      </trkpt>
      <trkpt lat="44.19629" lon="5.22836">
        <ele>1451.444</ele>
        <time>2020-09-03T12:14:54Z</time>
      </trkpt>
      <trkpt lat="44.1963" lon="5.22825">
        <ele>1450.572</ele>
        <time>2020-09-03T12:14:55Z</time>
      </trkpt>
      <trkpt lat="44.1963" lon="5.22815">
        <ele>1449.967</ele>
        <time>2020-09-03T12:14:56Z</time>
      </trkpt>
      <trkpt lat="44.1963" lon="5.22805">
        <ele>1449.392</ele>
        <time>2020-09-03T12:14:57Z</time>
      </trkpt>
      <trkpt lat="44.19631" lon="5.22796">
        <ele>1448.162</ele>
        <time>2020-09-03T12:14:58Z</time>
      </trkpt>
      <trkpt lat="44.19632" lon="5.22786">
        <ele>1446.394</ele>
        <time>2020-09-03T12:14:59Z</time>
      </trkpt>
      <trkpt lat="44.19632" lon="5.22786">
        <ele>1444.286</ele>
        <time>2020-09-03T12:14:59Z</time>
      </trkpt>
      <trkpt lat="44.19633" lon="5.22763">
        <ele>1442.785</ele>
        <time>2020-09-03T12:15:01Z</time>
      </trkpt>
      <trkpt lat="44.19633" lon="5.22763">
        <ele>1441.679</ele>
        <time>2020-09-03T12:15:01Z</time>
      </trkpt>
      <trkpt lat="44.19633" lon="5.22763">
        <ele>1441.016</ele>
        <time>2020-09-03T12:15:01Z</time>
      </trkpt>
      <trkpt lat="44.19634" lon="5.22722">
        <ele>1440.161</ele>
        <time>2020-09-03T12:15:05Z</time>
      </trkpt>
      <trkpt lat="44.19634" lon="5.22711">
        <ele>1439.145</ele>
        <time>2020-09-03T12:15:06Z</time>
      </trkpt>
      <trkpt lat="44.19634" lon="5.22699">
        <ele>1438.013</ele>
        <time>2020-09-03T12:15:07Z</time>
      </trkpt>
      <trkpt lat="44.19635" lon="5.22688">
        <ele>1437.155</ele>
        <time>2020-09-03T12:15:08Z</time>
      </trkpt>
      <trkpt lat="44.19635" lon="5.22688">
        <ele>1436.751</ele>
        <time>2020-09-03T12:15:08Z</time>
      </trkpt>
      <trkpt lat="44.19635" lon="5.22667">
        <ele>1436.89</ele>
        <time>2020-09-03T12:15:10Z</time>
      </trkpt>
      <trkpt lat="44.19637" lon="5.22657">
        <ele>1437.041</ele>
        <time>2020-09-03T12:15:11Z</time>
      </trkpt>
      <trkpt lat="44.19638" lon="5.22647">
        <ele>1436.971</ele>
        <time>2020-09-03T12:15:12Z</time>
      </trkpt>
      <trkpt lat="44.19641" lon="5.22636">
        <ele>1436.629</ele>
        <time>2020-09-03T12:15:13Z</time>
      </trkpt>
      <trkpt lat="44.19641" lon="5.22636">
        <ele>1436.352</ele>
        <time>2020-09-03T12:15:13Z</time>
      </trkpt>
      <trkpt lat="44.19645" lon="5.22614">
        <ele>1436.205</ele>
        <time>2020-09-03T12:15:15Z</time>
      </trkpt>
      <trkpt lat="44.19646" lon="5.22603">
        <ele>1436.446</ele>
        <time>2020-09-03T12:15:16Z</time>
      </trkpt>
      <trkpt lat="44.19648" lon="5.22593">
        <ele>1436.967</ele>
        <time>2020-09-03T12:15:17Z</time>
      </trkpt>
      <trkpt lat="44.19648" lon="5.22584">
        <ele>1437.605</ele>
        <time>2020-09-03T12:15:18Z</time>
      </trkpt>
      <trkpt lat="44.19649" lon="5.22575">
        <ele>1438.1</ele>
        <time>2020-09-03T12:15:19Z</time>
      </trkpt>
      <trkpt lat="44.19648" lon="5.22565">
        <ele>1438.013</ele>
        <time>2020-09-03T12:15:20Z</time>
      </trkpt>
      <trkpt lat="44.19648" lon="5.22554">
        <ele>1437.598</ele>
        <time>2020-09-03T12:15:21Z</time>
      </trkpt>
      <trkpt lat="44.19648" lon="5.22543">
        <ele>1436.801</ele>
        <time>2020-09-03T12:15:22Z</time>
      </trkpt>
      <trkpt lat="44.19648" lon="5.22543">
        <ele>1436.099</ele>
        <time>2020-09-03T12:15:22Z</time>
      </trkpt>
      <trkpt lat="44.19647" lon="5.22521">
        <ele>1434.667</ele>
        <time>2020-09-03T12:15:24Z</time>
      </trkpt>
      <trkpt lat="44.19647" lon="5.2251">
        <ele>1432.753</ele>
        <time>2020-09-03T12:15:25Z</time>
      </trkpt>
      <trkpt lat="44.19648" lon="5.22487">
        <ele>1430.415</ele>
        <time>2020-09-03T12:15:27Z</time>
      </trkpt>
      <trkpt lat="44.19648" lon="5.22474">
        <ele>1427.751</ele>
        <time>2020-09-03T12:15:28Z</time>
      </trkpt>
      <trkpt lat="44.19648" lon="5.22474">
        <ele>1425.156</ele>
        <time>2020-09-03T12:15:28Z</time>
      </trkpt>
      <trkpt lat="44.1965" lon="5.22452">
        <ele>1422.428</ele>
        <time>2020-09-03T12:15:30Z</time>
      </trkpt>
      <trkpt lat="44.1965" lon="5.2244">
        <ele>1419.645</ele>
        <time>2020-09-03T12:15:31Z</time>
      </trkpt>
      <trkpt lat="44.1965" lon="5.22428">
        <ele>1416.6</ele>
        <time>2020-09-03T12:15:32Z</time>
      </trkpt>
      <trkpt lat="44.19649" lon="5.22414">
        <ele>1412.64</ele>
        <time>2020-09-03T12:15:33Z</time>
      </trkpt>
      <trkpt lat="44.1965" lon="5.22399">
        <ele>1409.278</ele>
        <time>2020-09-03T12:15:34Z</time>
      </trkpt>
      <trkpt lat="44.19651" lon="5.22384">
        <ele>1406.903</ele>
        <time>2020-09-03T12:15:35Z</time>
      </trkpt>
      <trkpt lat="44.19652" lon="5.2237">
        <ele>1405.41</ele>
        <time>2020-09-03T12:15:36Z</time>
      </trkpt>
      <trkpt lat="44.19652" lon="5.22357">
        <ele>1405.007</ele>
        <time>2020-09-03T12:15:37Z</time>
      </trkpt>
      <trkpt lat="44.19651" lon="5.22344">
        <ele>1405.862</ele>
        <time>2020-09-03T12:15:38Z</time>
      </trkpt>
      <trkpt lat="44.1965" lon="5.22333">
        <ele>1407.789</ele>
        <time>2020-09-03T12:15:39Z</time>
      </trkpt>
      <trkpt lat="44.19649" lon="5.22324">
        <ele>1410.569</ele>
        <time>2020-09-03T12:15:40Z</time>
      </trkpt>
      <trkpt lat="44.19649" lon="5.22315">
        <ele>1412.133</ele>
        <time>2020-09-03T12:15:41Z</time>
      </trkpt>
      <trkpt lat="44.19649" lon="5.22308">
        <ele>1415.586</ele>
        <time>2020-09-03T12:15:42Z</time>
      </trkpt>
      <trkpt lat="44.19649" lon="5.22299">
        <ele>1418.333</ele>
        <time>2020-09-03T12:15:43Z</time>
      </trkpt>
      <trkpt lat="44.19651" lon="5.2229">
        <ele>1420.562</ele>
        <time>2020-09-03T12:15:44Z</time>
      </trkpt>
      <trkpt lat="44.19656" lon="5.22284">
        <ele>1422.073</ele>
        <time>2020-09-03T12:15:45Z</time>
      </trkpt>
      <trkpt lat="44.19663" lon="5.2228">
        <ele>1422.927</ele>
        <time>2020-09-03T12:15:46Z</time>
      </trkpt>
      <trkpt lat="44.19672" lon="5.22279">
        <ele>1424.454</ele>
        <time>2020-09-03T12:15:47Z</time>
      </trkpt>
      <trkpt lat="44.19681" lon="5.2228">
        <ele>1427.357</ele>
        <time>2020-09-03T12:15:48Z</time>
      </trkpt>
      <trkpt lat="44.1969" lon="5.22284">
        <ele>1431.271</ele>
        <time>2020-09-03T12:15:49Z</time>
      </trkpt>
      <trkpt lat="44.19696" lon="5.22288">
        <ele>1436.366</ele>
        <time>2020-09-03T12:15:50Z</time>
      </trkpt>
      <trkpt lat="44.19703" lon="5.22292">
        <ele>1440.342</ele>
        <time>2020-09-03T12:15:51Z</time>
      </trkpt>
      <trkpt lat="44.19709" lon="5.22296">
        <ele>1444.764</ele>
        <time>2020-09-03T12:15:52Z</time>
      </trkpt>
      <trkpt lat="44.19709" lon="5.22296">
        <ele>1447.759</ele>
        <time>2020-09-03T12:15:52Z</time>
      </trkpt>
      <trkpt lat="44.19709" lon="5.22296">
        <ele>1450.503</ele>
        <time>2020-09-03T12:15:52Z</time>
      </trkpt>
      <trkpt lat="44.19709" lon="5.22296">
        <ele>1453.092</ele>
        <time>2020-09-03T12:15:52Z</time>
      </trkpt>
      <trkpt lat="44.19709" lon="5.22296">
        <ele>1456.013</ele>
        <time>2020-09-03T12:15:52Z</time>
      </trkpt>
      <trkpt lat="44.19722" lon="5.22363">
        <ele>1459.299</ele>
        <time>2020-09-03T12:15:57Z</time>
      </trkpt>
      <trkpt lat="44.19717" lon="5.22374">
        <ele>1463.765</ele>
        <time>2020-09-03T12:15:58Z</time>
      </trkpt>
      <trkpt lat="44.19712" lon="5.2238">
        <ele>1467.89</ele>
        <time>2020-09-03T12:15:59Z</time>
      </trkpt>
      <trkpt lat="44.19706" lon="5.22383">
        <ele>1471.543</ele>
        <time>2020-09-03T12:16:00Z</time>
      </trkpt>
      <trkpt lat="44.19692" lon="5.22384">
        <ele>1474.022</ele>
        <time>2020-09-03T12:16:02Z</time>
      </trkpt>
      <trkpt lat="44.19685" lon="5.2238">
        <ele>1476.031</ele>
        <time>2020-09-03T12:16:03Z</time>
      </trkpt>
      <trkpt lat="44.19685" lon="5.2238">
        <ele>1477.793</ele>
        <time>2020-09-03T12:16:03Z</time>
      </trkpt>
      <trkpt lat="44.19674" lon="5.22367">
        <ele>1479.65</ele>
        <time>2020-09-03T12:16:05Z</time>
      </trkpt>
      <trkpt lat="44.1967" lon="5.22358">
        <ele>1482.037</ele>
        <time>2020-09-03T12:16:06Z</time>
      </trkpt>
      <trkpt lat="44.19669" lon="5.22348">
        <ele>1484.778</ele>
        <time>2020-09-03T12:16:07Z</time>
      </trkpt>
      <trkpt lat="44.1967" lon="5.2234">
        <ele>1488.153</ele>
        <time>2020-09-03T12:16:08Z</time>
      </trkpt>
      <trkpt lat="44.1967" lon="5.2234">
        <ele>1490.812</ele>
        <time>2020-09-03T12:16:08Z</time>
      </trkpt>
      <trkpt lat="44.19672" lon="5.22325">
        <ele>1495.247</ele>
        <time>2020-09-03T12:16:10Z</time>
      </trkpt>
      <trkpt lat="44.19671" lon="5.22318">
        <ele>1499.641</ele>
        <time>2020-09-03T12:16:11Z</time>
      </trkpt>
      <trkpt lat="44.19671" lon="5.2231">
        <ele>1503.495</ele>
        <time>2020-09-03T12:16:12Z</time>
      </trkpt>
      <trkpt lat="44.19672" lon="5.22304">
        <ele>1507.841</ele>
        <time>2020-09-03T12:16:13Z</time>
      </trkpt>
      <trkpt lat="44.19677" lon="5.22302">
        <ele>1511.282</ele>
        <time>2020-09-03T12:16:14Z</time>
      </trkpt>
      <trkpt lat="44.19677" lon="5.22302">
        <ele>1514.314</ele>
        <time>2020-09-03T12:16:14Z</time>
      </trkpt>
      <trkpt lat="44.19692" lon="5.22313">
        <ele>1516.112</ele>
        <time>2020-09-03T12:16:16Z</time>
      </trkpt>
      <trkpt lat="44.19697" lon="5.22324">
        <ele>1517.846</ele>
        <time>2020-09-03T12:16:17Z</time>
      </trkpt>
      <trkpt lat="44.197" lon="5.22337">
        <ele>1519.49</ele>
        <time>2020-09-03T12:16:18Z</time>
      </trkpt>
      <trkpt lat="44.197" lon="5.22353">
        <ele>1520.919</ele>
        <time>2020-09-03T12:16:19Z</time>
      </trkpt>
      <trkpt lat="44.19698" lon="5.2237">
        <ele>1522.968</ele>
        <time>2020-09-03T12:16:20Z</time>
      </trkpt>
      <trkpt lat="44.19698" lon="5.2237">
        <ele>1525.263</ele>
        <time>2020-09-03T12:16:20Z</time>
      </trkpt>
      <trkpt lat="44.19698" lon="5.2237">
        <ele>1528.536</ele>
        <time>2020-09-03T12:16:20Z</time>
      </trkpt>
      <trkpt lat="44.19698" lon="5.2237">
        <ele>1531.495</ele>
        <time>2020-09-03T12:16:20Z</time>
      </trkpt>
      <trkpt lat="44.19672" lon="5.22409">
        <ele>1534.571</ele>
        <time>2020-09-03T12:16:24Z</time>
      </trkpt>
      <trkpt lat="44.19664" lon="5.22409">
        <ele>1537.578</ele>
        <time>2020-09-03T12:16:25Z</time>
      </trkpt>
      <trkpt lat="44.19648" lon="5.22404">
        <ele>1539.776</ele>
        <time>2020-09-03T12:16:27Z</time>
      </trkpt>
      <trkpt lat="44.1964" lon="5.22399">
        <ele>1541.905</ele>
        <time>2020-09-03T12:16:28Z</time>
      </trkpt>
      <trkpt lat="44.1964" lon="5.22399">
        <ele>1543.879</ele>
        <time>2020-09-03T12:16:28Z</time>
      </trkpt>
      <trkpt lat="44.19628" lon="5.22384">
        <ele>1545.642</ele>
        <time>2020-09-03T12:16:30Z</time>
      </trkpt>
      <trkpt lat="44.19626" lon="5.22375">
        <ele>1547.622</ele>
        <time>2020-09-03T12:16:31Z</time>
      </trkpt>
      <trkpt lat="44.19626" lon="5.22365">
        <ele>1549.5</ele>
        <time>2020-09-03T12:16:32Z</time>
      </trkpt>
      <trkpt lat="44.19629" lon="5.22358">
        <ele>1551.804</ele>
        <time>2020-09-03T12:16:33Z</time>
      </trkpt>
      <trkpt lat="44.19629" lon="5.22358">
        <ele>1554.621</ele>
        <time>2020-09-03T12:16:33Z</time>
      </trkpt>
      <trkpt lat="44.19642" lon="5.22359">
        <ele>1557.306</ele>
        <time>2020-09-03T12:16:35Z</time>
      </trkpt>
      <trkpt lat="44.19642" lon="5.22359">
        <ele>1558.547</ele>
        <time>2020-09-03T12:16:35Z</time>
      </trkpt>
      <trkpt lat="44.19655" lon="5.22373">
        <ele>1560.905</ele>
        <time>2020-09-03T12:16:37Z</time>
      </trkpt>
      <trkpt lat="44.1966" lon="5.22384">
        <ele>1562.729</ele>
        <time>2020-09-03T12:16:38Z</time>
      </trkpt>
      <trkpt lat="44.19665" lon="5.22397">
        <ele>1564.104</ele>
        <time>2020-09-03T12:16:39Z</time>
      </trkpt>
      <trkpt lat="44.19666" lon="5.22412">
        <ele>1565.865</ele>
        <time>2020-09-03T12:16:40Z</time>
      </trkpt>
      <trkpt lat="44.19665" lon="5.22424">
        <ele>1567.64</ele>
        <time>2020-09-03T12:16:41Z</time>
      </trkpt>
      <trkpt lat="44.19659" lon="5.22434">
        <ele>1570.008</ele>
        <time>2020-09-03T12:16:42Z</time>
      </trkpt>
      <trkpt lat="44.19652" lon="5.22442">
        <ele>1571.725</ele>
        <time>2020-09-03T12:16:43Z</time>
      </trkpt>
      <trkpt lat="44.19643" lon="5.22448">
        <ele>1573.054</ele>
        <time>2020-09-03T12:16:44Z</time>
      </trkpt>
      <trkpt lat="44.19643" lon="5.22448">
        <ele>1573.245</ele>
        <time>2020-09-03T12:16:44Z</time>
      </trkpt>
      <trkpt lat="44.19614" lon="5.22445">
        <ele>1572.756</ele>
        <time>2020-09-03T12:16:47Z</time>
      </trkpt>
      <trkpt lat="44.19606" lon="5.22439">
        <ele>1572.131</ele>
        <time>2020-09-03T12:16:48Z</time>
      </trkpt>
      <trkpt lat="44.19606" lon="5.22439">
        <ele>1571.665</ele>
        <time>2020-09-03T12:16:48Z</time>
      </trkpt>
      <trkpt lat="44.19592" lon="5.22424">
        <ele>1571.33</ele>
        <time>2020-09-03T12:16:50Z</time>
      </trkpt>
      <trkpt lat="44.19586" lon="5.22415">
        <ele>1571.232</ele>
        <time>2020-09-03T12:16:51Z</time>
      </trkpt>
      <trkpt lat="44.19581" lon="5.22404">
        <ele>1571.484</ele>
        <time>2020-09-03T12:16:52Z</time>
      </trkpt>
      <trkpt lat="44.19579" lon="5.22393">
        <ele>1572.186</ele>
        <time>2020-09-03T12:16:53Z</time>
      </trkpt>
      <trkpt lat="44.19579" lon="5.22393">
        <ele>1573.355</ele>
        <time>2020-09-03T12:16:53Z</time>
      </trkpt>
      <trkpt lat="44.19577" lon="5.22374">
        <ele>1574.702</ele>
        <time>2020-09-03T12:16:55Z</time>
      </trkpt>
      <trkpt lat="44.19575" lon="5.22364">
        <ele>1576.234</ele>
        <time>2020-09-03T12:16:56Z</time>
      </trkpt>
      <trkpt lat="44.19574" lon="5.22354">
        <ele>1577.655</ele>
        <time>2020-09-03T12:16:57Z</time>
      </trkpt>
      <trkpt lat="44.19571" lon="5.22345">
        <ele>1579.238</ele>
        <time>2020-09-03T12:16:58Z</time>
      </trkpt>
      <trkpt lat="44.19571" lon="5.22345">
        <ele>1580.557</ele>
        <time>2020-09-03T12:16:58Z</time>
      </trkpt>
      <trkpt lat="44.19564" lon="5.22327">
        <ele>1581.747</ele>
        <time>2020-09-03T12:17:00Z</time>
      </trkpt>
      <trkpt lat="44.19559" lon="5.22319">
        <ele>1582.727</ele>
        <time>2020-09-03T12:17:01Z</time>
      </trkpt>
      <trkpt lat="44.19555" lon="5.22311">
        <ele>1583.326</ele>
        <time>2020-09-03T12:17:02Z</time>
      </trkpt>
      <trkpt lat="44.19554" lon="5.22302">
        <ele>1583.291</ele>
        <time>2020-09-03T12:17:03Z</time>
      </trkpt>
      <trkpt lat="44.19556" lon="5.22293">
        <ele>1582.57</ele>
        <time>2020-09-03T12:17:04Z</time>
      </trkpt>
      <trkpt lat="44.1956" lon="5.22284">
        <ele>1581.611</ele>
        <time>2020-09-03T12:17:05Z</time>
      </trkpt>
      <trkpt lat="44.19564" lon="5.22277">
        <ele>1581.411</ele>
        <time>2020-09-03T12:17:06Z</time>
      </trkpt>
      <trkpt lat="44.19568" lon="5.22271">
        <ele>1582.383</ele>
        <time>2020-09-03T12:17:07Z</time>
      </trkpt>
      <trkpt lat="44.19572" lon="5.22269">
        <ele>1584.38</ele>
        <time>2020-09-03T12:17:08Z</time>
      </trkpt>
      <trkpt lat="44.19579" lon="5.22266">
        <ele>1586.216</ele>
        <time>2020-09-03T12:17:10Z</time>
      </trkpt>
      <trkpt lat="44.19579" lon="5.22266">
        <ele>1587.676</ele>
        <time>2020-09-03T12:17:10Z</time>
      </trkpt>
      <trkpt lat="44.19589" lon="5.22267">
        <ele>1588.49</ele>
        <time>2020-09-03T12:17:12Z</time>
      </trkpt>
      <trkpt lat="44.19589" lon="5.22267">
        <ele>1589.056</ele>
        <time>2020-09-03T12:17:12Z</time>
      </trkpt>
      <trkpt lat="44.19601" lon="5.22273">
        <ele>1589.627</ele>
        <time>2020-09-03T12:17:14Z</time>
      </trkpt>
      <trkpt lat="44.19608" lon="5.22278">
        <ele>1590.766</ele>
        <time>2020-09-03T12:17:15Z</time>
      </trkpt>
      <trkpt lat="44.19613" lon="5.22284">
        <ele>1592.388</ele>
        <time>2020-09-03T12:17:16Z</time>
      </trkpt>
      <trkpt lat="44.19613" lon="5.22284">
        <ele>1594.145</ele>
        <time>2020-09-03T12:17:16Z</time>
      </trkpt>
      <trkpt lat="44.19624" lon="5.22293">
        <ele>1596.04</ele>
        <time>2020-09-03T12:17:18Z</time>
      </trkpt>
      <trkpt lat="44.1963" lon="5.22297">
        <ele>1597.906</ele>
        <time>2020-09-03T12:17:19Z</time>
      </trkpt>
      <trkpt lat="44.19636" lon="5.22301">
        <ele>1599.445</ele>
        <time>2020-09-03T12:17:20Z</time>
      </trkpt>
      <trkpt lat="44.19642" lon="5.22305">
        <ele>1601.356</ele>
        <time>2020-09-03T12:17:21Z</time>
      </trkpt>
      <trkpt lat="44.19642" lon="5.22305">
        <ele>1602.977</ele>
        <time>2020-09-03T12:17:21Z</time>
      </trkpt>
      <trkpt lat="44.19653" lon="5.22314">
        <ele>1604.494</ele>
        <time>2020-09-03T12:17:23Z</time>
      </trkpt>
      <trkpt lat="44.19658" lon="5.22318">
        <ele>1605.442</ele>
        <time>2020-09-03T12:17:24Z</time>
      </trkpt>
      <trkpt lat="44.19663" lon="5.22318">
        <ele>1605.519</ele>
        <time>2020-09-03T12:17:25Z</time>
      </trkpt>
      <trkpt lat="44.19668" lon="5.22314">
        <ele>1604.484</ele>
        <time>2020-09-03T12:17:26Z</time>
      </trkpt>
      <trkpt lat="44.19672" lon="5.22305">
        <ele>1602.923</ele>
        <time>2020-09-03T12:17:27Z</time>
      </trkpt>
      <trkpt lat="44.19674" lon="5.22294">
        <ele>1601.661</ele>
        <time>2020-09-03T12:17:28Z</time>
      </trkpt>
      <trkpt lat="44.19671" lon="5.22283">
        <ele>1601.312</ele>
        <time>2020-09-03T12:17:29Z</time>
      </trkpt>
      <trkpt lat="44.19665" lon="5.22275">
        <ele>1602.157</ele>
        <time>2020-09-03T12:17:30Z</time>
      </trkpt>
      <trkpt lat="44.19665" lon="5.22275">
        <ele>1603.14</ele>
        <time>2020-09-03T12:17:30Z</time>
      </trkpt>
      <trkpt lat="44.19665" lon="5.22275">
        <ele>1604.521</ele>
        <time>2020-09-03T12:17:30Z</time>
      </trkpt>
      <trkpt lat="44.19665" lon="5.22275">
        <ele>1605.42</ele>
        <time>2020-09-03T12:17:30Z</time>
      </trkpt>
      <trkpt lat="44.19632" lon="5.22262">
        <ele>1605.68</ele>
        <time>2020-09-03T12:17:34Z</time>
      </trkpt>
      <trkpt lat="44.19611" lon="5.22263">
        <ele>1605.442</ele>
        <time>2020-09-03T12:17:36Z</time>
      </trkpt>
      <trkpt lat="44.19599" lon="5.22268">
        <ele>1605.339</ele>
        <time>2020-09-03T12:17:37Z</time>
      </trkpt>
      <trkpt lat="44.19588" lon="5.22275">
        <ele>1606.147</ele>
        <time>2020-09-03T12:17:38Z</time>
      </trkpt>
      <trkpt lat="44.19588" lon="5.22275">
        <ele>1608.297</ele>
        <time>2020-09-03T12:17:38Z</time>
      </trkpt>
      <trkpt lat="44.1957" lon="5.2229">
        <ele>1610.989</ele>
        <time>2020-09-03T12:17:40Z</time>
      </trkpt>
      <trkpt lat="44.19563" lon="5.22298">
        <ele>1613.4</ele>
        <time>2020-09-03T12:17:41Z</time>
      </trkpt>
      <trkpt lat="44.19558" lon="5.22308">
        <ele>1615.437</ele>
        <time>2020-09-03T12:17:42Z</time>
      </trkpt>
      <trkpt lat="44.19555" lon="5.22321">
        <ele>1616.361</ele>
        <time>2020-09-03T12:17:43Z</time>
      </trkpt>
      <trkpt lat="44.19555" lon="5.22321">
        <ele>1616.466</ele>
        <time>2020-09-03T12:17:43Z</time>
      </trkpt>
      <trkpt lat="44.19553" lon="5.22349">
        <ele>1616.06</ele>
        <time>2020-09-03T12:17:45Z</time>
      </trkpt>
      <trkpt lat="44.19555" lon="5.22362">
        <ele>1615.669</ele>
        <time>2020-09-03T12:17:46Z</time>
      </trkpt>
      <trkpt lat="44.19559" lon="5.22373">
        <ele>1616.123</ele>
        <time>2020-09-03T12:17:47Z</time>
      </trkpt>
      <trkpt lat="44.19563" lon="5.22383">
        <ele>1617.702</ele>
        <time>2020-09-03T12:17:48Z</time>
      </trkpt>
      <trkpt lat="44.19567" lon="5.22391">
        <ele>1620.128</ele>
        <time>2020-09-03T12:17:49Z</time>
      </trkpt>
      <trkpt lat="44.1957" lon="5.22397">
        <ele>1623.571</ele>
        <time>2020-09-03T12:17:50Z</time>
      </trkpt>
      <trkpt lat="44.19573" lon="5.22403">
        <ele>1626.137</ele>
        <time>2020-09-03T12:17:51Z</time>
      </trkpt>
      <trkpt lat="44.19577" lon="5.22409">
        <ele>1627.354</ele>
        <time>2020-09-03T12:17:52Z</time>
      </trkpt>
      <trkpt lat="44.19581" lon="5.22417">
        <ele>1626.489</ele>
        <time>2020-09-03T12:17:53Z</time>
      </trkpt>
      <trkpt lat="44.19589" lon="5.22421">
        <ele>1624.796</ele>
        <time>2020-09-03T12:17:54Z</time>
      </trkpt>
      <trkpt lat="44.19599" lon="5.22419">
        <ele>1622.375</ele>
        <time>2020-09-03T12:17:55Z</time>
      </trkpt>
      <trkpt lat="44.19607" lon="5.22411">
        <ele>1620.602</ele>
        <time>2020-09-03T12:17:56Z</time>
      </trkpt>
      <trkpt lat="44.19613" lon="5.22403">
        <ele>1620.389</ele>
        <time>2020-09-03T12:17:57Z</time>
      </trkpt>
      <trkpt lat="44.19613" lon="5.22403">
        <ele>1621.044</ele>
        <time>2020-09-03T12:17:57Z</time>
      </trkpt>
      <trkpt lat="44.1963" lon="5.22382">
        <ele>1622.87</ele>
        <time>2020-09-03T12:18:00Z</time>
      </trkpt>
      <trkpt lat="44.19635" lon="5.22377">
        <ele>1624.215</ele>
        <time>2020-09-03T12:18:01Z</time>
      </trkpt>
      <trkpt lat="44.19638" lon="5.22373">
        <ele>1624.694</ele>
        <time>2020-09-03T12:18:02Z</time>
      </trkpt>
      <trkpt lat="44.19641" lon="5.22368">
        <ele>1624.3</ele>
        <time>2020-09-03T12:18:03Z</time>
      </trkpt>
      <trkpt lat="44.19643" lon="5.22361">
        <ele>1622.939</ele>
        <time>2020-09-03T12:18:04Z</time>
      </trkpt>
      <trkpt lat="44.19645" lon="5.22351">
        <ele>1621.028</ele>
        <time>2020-09-03T12:18:05Z</time>
      </trkpt>
      <trkpt lat="44.19645" lon="5.22341">
        <ele>1619.281</ele>
        <time>2020-09-03T12:18:06Z</time>
      </trkpt>
      <trkpt lat="44.19644" lon="5.2233">
        <ele>1617.988</ele>
        <time>2020-09-03T12:18:07Z</time>
      </trkpt>
      <trkpt lat="44.19642" lon="5.2232">
        <ele>1617.914</ele>
        <time>2020-09-03T12:18:08Z</time>
      </trkpt>
      <trkpt lat="44.19641" lon="5.2231">
        <ele>1618.947</ele>
        <time>2020-09-03T12:18:09Z</time>
      </trkpt>
      <trkpt lat="44.19639" lon="5.223">
        <ele>1620.935</ele>
        <time>2020-09-03T12:18:10Z</time>
      </trkpt>
      <trkpt lat="44.19639" lon="5.22293">
        <ele>1623.23</ele>
        <time>2020-09-03T12:18:11Z</time>
      </trkpt>
      <trkpt lat="44.19638" lon="5.22286">
        <ele>1625.192</ele>
        <time>2020-09-03T12:18:12Z</time>
      </trkpt>
      <trkpt lat="44.19637" lon="5.22278">
        <ele>1626.358</ele>
        <time>2020-09-03T12:18:13Z</time>
      </trkpt>
      <trkpt lat="44.19631" lon="5.2227">
        <ele>1626.658</ele>
        <time>2020-09-03T12:18:14Z</time>
      </trkpt>
      <trkpt lat="44.19621" lon="5.22266">
        <ele>1626.283</ele>
        <time>2020-09-03T12:18:15Z</time>
      </trkpt>
      <trkpt lat="44.1961" lon="5.22268">
        <ele>1625.485</ele>
        <time>2020-09-03T12:18:16Z</time>
      </trkpt>
      <trkpt lat="44.19599" lon="5.22276">
        <ele>1625.199</ele>
        <time>2020-09-03T12:18:17Z</time>
      </trkpt>
      <trkpt lat="44.19591" lon="5.22288">
        <ele>1626.662</ele>
        <time>2020-09-03T12:18:18Z</time>
      </trkpt>
      <trkpt lat="44.19584" lon="5.22301">
        <ele>1629.256</ele>
        <time>2020-09-03T12:18:19Z</time>
      </trkpt>
      <trkpt lat="44.19581" lon="5.22315">
        <ele>1632.392</ele>
        <time>2020-09-03T12:18:20Z</time>
      </trkpt>
      <trkpt lat="44.19582" lon="5.22328">
        <ele>1635.96</ele>
        <time>2020-09-03T12:18:21Z</time>
      </trkpt>
      <trkpt lat="44.19585" lon="5.22336">
        <ele>1638.534</ele>
        <time>2020-09-03T12:18:22Z</time>
      </trkpt>
      <trkpt lat="44.19585" lon="5.22336">
        <ele>1640.77</ele>
        <time>2020-09-03T12:18:22Z</time>
      </trkpt>
      <trkpt lat="44.19599" lon="5.22344">
        <ele>1642.508</ele>
        <time>2020-09-03T12:18:24Z</time>
      </trkpt>
      <trkpt lat="44.19612" lon="5.22347">
        <ele>1644.69</ele>
        <time>2020-09-03T12:18:26Z</time>
      </trkpt>
      <trkpt lat="44.19617" lon="5.22346">
        <ele>1645.72</ele>
        <time>2020-09-03T12:18:27Z</time>
      </trkpt>
      <trkpt lat="44.1962" lon="5.22342">
        <ele>1647.072</ele>
        <time>2020-09-03T12:18:28Z</time>
      </trkpt>
      <trkpt lat="44.19624" lon="5.22334">
        <ele>1647.288</ele>
        <time>2020-09-03T12:18:29Z</time>
      </trkpt>
      <trkpt lat="44.19625" lon="5.22324">
        <ele>1647.162</ele>
        <time>2020-09-03T12:18:30Z</time>
      </trkpt>
      <trkpt lat="44.19625" lon="5.22314">
        <ele>1647.235</ele>
        <time>2020-09-03T12:18:31Z</time>
      </trkpt>
      <trkpt lat="44.19622" lon="5.22302">
        <ele>1647.559</ele>
        <time>2020-09-03T12:18:32Z</time>
      </trkpt>
      <trkpt lat="44.19619" lon="5.22293">
        <ele>1648.051</ele>
        <time>2020-09-03T12:18:33Z</time>
      </trkpt>
      <trkpt lat="44.19617" lon="5.22285">
        <ele>1648.297</ele>
        <time>2020-09-03T12:18:34Z</time>
      </trkpt>
      <trkpt lat="44.19617" lon="5.2228">
        <ele>1647.968</ele>
        <time>2020-09-03T12:18:35Z</time>
      </trkpt>
      <trkpt lat="44.19616" lon="5.22272">
        <ele>1646.442</ele>
        <time>2020-09-03T12:18:36Z</time>
      </trkpt>
      <trkpt lat="44.19615" lon="5.22262">
        <ele>1644.023</ele>
        <time>2020-09-03T12:18:37Z</time>
      </trkpt>
      <trkpt lat="44.19614" lon="5.22251">
        <ele>1641.231</ele>
        <time>2020-09-03T12:18:38Z</time>
      </trkpt>
      <trkpt lat="44.19612" lon="5.22238">
        <ele>1638.949</ele>
        <time>2020-09-03T12:18:39Z</time>
      </trkpt>
      <trkpt lat="44.1961" lon="5.22225">
        <ele>1636.92</ele>
        <time>2020-09-03T12:18:40Z</time>
      </trkpt>
      <trkpt lat="44.19609" lon="5.22213">
        <ele>1635.813</ele>
        <time>2020-09-03T12:18:41Z</time>
      </trkpt>
      <trkpt lat="44.19609" lon="5.22201">
        <ele>1634.945</ele>
        <time>2020-09-03T12:18:42Z</time>
      </trkpt>
      <trkpt lat="44.1961" lon="5.2219">
        <ele>1634.481</ele>
        <time>2020-09-03T12:18:43Z</time>
      </trkpt>
      <trkpt lat="44.1961" lon="5.2218">
        <ele>1633.831</ele>
        <time>2020-09-03T12:18:44Z</time>
      </trkpt>
      <trkpt lat="44.1961" lon="5.2218">
        <ele>1633.038</ele>
        <time>2020-09-03T12:18:44Z</time>
      </trkpt>
      <trkpt lat="44.1961" lon="5.2218">
        <ele>1632.36</ele>
        <time>2020-09-03T12:18:44Z</time>
      </trkpt>
      <trkpt lat="44.1961" lon="5.2218">
        <ele>1632.258</ele>
        <time>2020-09-03T12:18:44Z</time>
      </trkpt>
      <trkpt lat="44.19609" lon="5.22135">
        <ele>1633.397</ele>
        <time>2020-09-03T12:18:48Z</time>
      </trkpt>
      <trkpt lat="44.19611" lon="5.22117">
        <ele>1634.933</ele>
        <time>2020-09-03T12:18:50Z</time>
      </trkpt>
      <trkpt lat="44.19611" lon="5.2211">
        <ele>1637.308</ele>
        <time>2020-09-03T12:18:51Z</time>
      </trkpt>
      <trkpt lat="44.19611" lon="5.22103">
        <ele>1639.904</ele>
        <time>2020-09-03T12:18:52Z</time>
      </trkpt>
      <trkpt lat="44.19611" lon="5.22096">
        <ele>1642.039</ele>
        <time>2020-09-03T12:18:53Z</time>
      </trkpt>
      <trkpt lat="44.19612" lon="5.22089">
        <ele>1643.452</ele>
        <time>2020-09-03T12:18:54Z</time>
      </trkpt>
      <trkpt lat="44.19613" lon="5.22081">
        <ele>1645.746</ele>
        <time>2020-09-03T12:18:55Z</time>
      </trkpt>
      <trkpt lat="44.19612" lon="5.22075">
        <ele>1648.774</ele>
        <time>2020-09-03T12:18:56Z</time>
      </trkpt>
      <trkpt lat="44.19611" lon="5.22072">
        <ele>1651.516</ele>
        <time>2020-09-03T12:18:57Z</time>
      </trkpt>
      <trkpt lat="44.19609" lon="5.2207">
        <ele>1653.541</ele>
        <time>2020-09-03T12:18:58Z</time>
      </trkpt>
      <trkpt lat="44.19605" lon="5.22069">
        <ele>1654.841</ele>
        <time>2020-09-03T12:18:59Z</time>
      </trkpt>
      <trkpt lat="44.19598" lon="5.22069">
        <ele>1654.792</ele>
        <time>2020-09-03T12:19:00Z</time>
      </trkpt>
      <trkpt lat="44.19588" lon="5.22071">
        <ele>1654.339</ele>
        <time>2020-09-03T12:19:01Z</time>
      </trkpt>
      <trkpt lat="44.19578" lon="5.22077">
        <ele>1654.081</ele>
        <time>2020-09-03T12:19:02Z</time>
      </trkpt>
      <trkpt lat="44.19569" lon="5.22088">
        <ele>1654.818</ele>
        <time>2020-09-03T12:19:03Z</time>
      </trkpt>
      <trkpt lat="44.19563" lon="5.22102">
        <ele>1656.359</ele>
        <time>2020-09-03T12:19:04Z</time>
      </trkpt>
      <trkpt lat="44.1956" lon="5.22118">
        <ele>1658.627</ele>
        <time>2020-09-03T12:19:05Z</time>
      </trkpt>
      <trkpt lat="44.19559" lon="5.22135">
        <ele>1660.835</ele>
        <time>2020-09-03T12:19:06Z</time>
      </trkpt>
      <trkpt lat="44.1956" lon="5.22152">
        <ele>1662.553</ele>
        <time>2020-09-03T12:19:07Z</time>
      </trkpt>
      <trkpt lat="44.19565" lon="5.22167">
        <ele>1664.062</ele>
        <time>2020-09-03T12:19:08Z</time>
      </trkpt>
      <trkpt lat="44.1958" lon="5.22187">
        <ele>1665.332</ele>
        <time>2020-09-03T12:19:10Z</time>
      </trkpt>
      <trkpt lat="44.1958" lon="5.22187">
        <ele>1667.261</ele>
        <time>2020-09-03T12:19:10Z</time>
      </trkpt>
      <trkpt lat="44.19591" lon="5.22202">
        <ele>1669.289</ele>
        <time>2020-09-03T12:19:12Z</time>
      </trkpt>
      <trkpt lat="44.19591" lon="5.22202">
        <ele>1670.678</ele>
        <time>2020-09-03T12:19:12Z</time>
      </trkpt>
      <trkpt lat="44.19603" lon="5.22209">
        <ele>1670.977</ele>
        <time>2020-09-03T12:19:14Z</time>
      </trkpt>
      <trkpt lat="44.19612" lon="5.22208">
        <ele>1670.634</ele>
        <time>2020-09-03T12:19:15Z</time>
      </trkpt>
      <trkpt lat="44.19618" lon="5.22201">
        <ele>1670.092</ele>
        <time>2020-09-03T12:19:16Z</time>
      </trkpt>
      <trkpt lat="44.19622" lon="5.22193">
        <ele>1670.26</ele>
        <time>2020-09-03T12:19:17Z</time>
      </trkpt>
      <trkpt lat="44.19622" lon="5.22186">
        <ele>1671.347</ele>
        <time>2020-09-03T12:19:18Z</time>
      </trkpt>
      <trkpt lat="44.1962" lon="5.2218">
        <ele>1673.465</ele>
        <time>2020-09-03T12:19:19Z</time>
      </trkpt>
      <trkpt lat="44.19617" lon="5.22169">
        <ele>1676.009</ele>
        <time>2020-09-03T12:19:21Z</time>
      </trkpt>
      <trkpt lat="44.19617" lon="5.22164">
        <ele>1678.118</ele>
        <time>2020-09-03T12:19:22Z</time>
      </trkpt>
      <trkpt lat="44.19616" lon="5.22159">
        <ele>1679.291</ele>
        <time>2020-09-03T12:19:23Z</time>
      </trkpt>
      <trkpt lat="44.19616" lon="5.22159">
        <ele>1680.616</ele>
        <time>2020-09-03T12:19:23Z</time>
      </trkpt>
      <trkpt lat="44.19613" lon="5.22148">
        <ele>1681.929</ele>
        <time>2020-09-03T12:19:25Z</time>
      </trkpt>
      <trkpt lat="44.19612" lon="5.22142">
        <ele>1683.711</ele>
        <time>2020-09-03T12:19:26Z</time>
      </trkpt>
      <trkpt lat="44.19612" lon="5.22136">
        <ele>1685.876</ele>
        <time>2020-09-03T12:19:27Z</time>
      </trkpt>
      <trkpt lat="44.19614" lon="5.2213">
        <ele>1688.86</ele>
        <time>2020-09-03T12:19:28Z</time>
      </trkpt>
      <trkpt lat="44.19614" lon="5.2213">
        <ele>1691.7</ele>
        <time>2020-09-03T12:19:28Z</time>
      </trkpt>
      <trkpt lat="44.19615" lon="5.2212">
        <ele>1693.938</ele>
        <time>2020-09-03T12:19:30Z</time>
      </trkpt>
      <trkpt lat="44.19612" lon="5.22116">
        <ele>1694.964</ele>
        <time>2020-09-03T12:19:31Z</time>
      </trkpt>
      <trkpt lat="44.19606" lon="5.22114">
        <ele>1694.562</ele>
        <time>2020-09-03T12:19:32Z</time>
      </trkpt>
      <trkpt lat="44.19597" lon="5.22113">
        <ele>1693.336</ele>
        <time>2020-09-03T12:19:33Z</time>
      </trkpt>
      <trkpt lat="44.19589" lon="5.22112">
        <ele>1692.618</ele>
        <time>2020-09-03T12:19:34Z</time>
      </trkpt>
      <trkpt lat="44.19583" lon="5.22109">
        <ele>1693.218</ele>
        <time>2020-09-03T12:19:35Z</time>
      </trkpt>
      <trkpt lat="44.19579" lon="5.22106">
        <ele>1694.734</ele>
        <time>2020-09-03T12:19:36Z</time>
      </trkpt>
      <trkpt lat="44.19579" lon="5.22106">
        <ele>1696.485</ele>
        <time>2020-09-03T12:19:36Z</time>
      </trkpt>
      <trkpt lat="44.19573" lon="5.22102">
        <ele>1697.641</ele>
        <time>2020-09-03T12:19:38Z</time>
      </trkpt>
      <trkpt lat="44.19565" lon="5.22092">
        <ele>1698.116</ele>
        <time>2020-09-03T12:19:40Z</time>
      </trkpt>
      <trkpt lat="44.19562" lon="5.22083">
        <ele>1697.928</ele>
        <time>2020-09-03T12:19:41Z</time>
      </trkpt>
      <trkpt lat="44.19559" lon="5.22074">
        <ele>1697.658</ele>
        <time>2020-09-03T12:19:42Z</time>
      </trkpt>
      <trkpt lat="44.19558" lon="5.22066">
        <ele>1697.929</ele>
        <time>2020-09-03T12:19:43Z</time>
      </trkpt>
      <trkpt lat="44.19558" lon="5.22066">
        <ele>1698.673</ele>
        <time>2020-09-03T12:19:43Z</time>
      </trkpt>
      <trkpt lat="44.19555" lon="5.22052">
        <ele>1699.668</ele>
        <time>2020-09-03T12:19:45Z</time>
      </trkpt>
      <trkpt lat="44.19553" lon="5.22043">
        <ele>1700.38</ele>
        <time>2020-09-03T12:19:46Z</time>
      </trkpt>
      <trkpt lat="44.19552" lon="5.22033">
        <ele>1700.927</ele>
        <time>2020-09-03T12:19:47Z</time>
      </trkpt>
      <trkpt lat="44.1955" lon="5.22023">
        <ele>1702.133</ele>
        <time>2020-09-03T12:19:48Z</time>
      </trkpt>
      <trkpt lat="44.19549" lon="5.22012">
        <ele>1703.662</ele>
        <time>2020-09-03T12:19:49Z</time>
      </trkpt>
      <trkpt lat="44.19549" lon="5.22012">
        <ele>1704.81</ele>
        <time>2020-09-03T12:19:49Z</time>
      </trkpt>
      <trkpt lat="44.19548" lon="5.21994">
        <ele>1706.974</ele>
        <time>2020-09-03T12:19:51Z</time>
      </trkpt>
      <trkpt lat="44.19548" lon="5.21986">
        <ele>1708.451</ele>
        <time>2020-09-03T12:19:52Z</time>
      </trkpt>
      <trkpt lat="44.19546" lon="5.21978">
        <ele>1709.521</ele>
        <time>2020-09-03T12:19:53Z</time>
      </trkpt>
      <trkpt lat="44.19545" lon="5.21969">
        <ele>1710.246</ele>
        <time>2020-09-03T12:19:54Z</time>
      </trkpt>
      <trkpt lat="44.19543" lon="5.2196">
        <ele>1710.768</ele>
        <time>2020-09-03T12:19:55Z</time>
      </trkpt>
      <trkpt lat="44.19539" lon="5.21952">
        <ele>1711.486</ele>
        <time>2020-09-03T12:19:56Z</time>
      </trkpt>
      <trkpt lat="44.19532" lon="5.21946">
        <ele>1712.798</ele>
        <time>2020-09-03T12:19:57Z</time>
      </trkpt>
      <trkpt lat="44.19523" lon="5.21943">
        <ele>1714.904</ele>
        <time>2020-09-03T12:19:58Z</time>
      </trkpt>
      <trkpt lat="44.19514" lon="5.21943">
        <ele>1717.846</ele>
        <time>2020-09-03T12:19:59Z</time>
      </trkpt>
      <trkpt lat="44.19505" lon="5.21947">
        <ele>1720.971</ele>
        <time>2020-09-03T12:20:00Z</time>
      </trkpt>
      <trkpt lat="44.19498" lon="5.21955">
        <ele>1724.24</ele>
        <time>2020-09-03T12:20:01Z</time>
      </trkpt>
      <trkpt lat="44.19489" lon="5.2198">
        <ele>1726.65</ele>
        <time>2020-09-03T12:20:03Z</time>
      </trkpt>
      <trkpt lat="44.19489" lon="5.2198">
        <ele>1727.74</ele>
        <time>2020-09-03T12:20:03Z</time>
      </trkpt>
      <trkpt lat="44.19498" lon="5.22007">
        <ele>1728.701</ele>
        <time>2020-09-03T12:20:05Z</time>
      </trkpt>
      <trkpt lat="44.19498" lon="5.22007">
        <ele>1729.346</ele>
        <time>2020-09-03T12:20:05Z</time>
      </trkpt>
      <trkpt lat="44.19517" lon="5.22015">
        <ele>1730.287</ele>
        <time>2020-09-03T12:20:07Z</time>
      </trkpt>
      <trkpt lat="44.19525" lon="5.2201">
        <ele>1731.818</ele>
        <time>2020-09-03T12:20:08Z</time>
      </trkpt>
      <trkpt lat="44.19531" lon="5.22001">
        <ele>1733.64</ele>
        <time>2020-09-03T12:20:09Z</time>
      </trkpt>
      <trkpt lat="44.19535" lon="5.21991">
        <ele>1735.493</ele>
        <time>2020-09-03T12:20:10Z</time>
      </trkpt>
      <trkpt lat="44.19535" lon="5.21991">
        <ele>1738.028</ele>
        <time>2020-09-03T12:20:10Z</time>
      </trkpt>
      <trkpt lat="44.19539" lon="5.21966">
        <ele>1740.484</ele>
        <time>2020-09-03T12:20:12Z</time>
      </trkpt>
      <trkpt lat="44.19538" lon="5.21954">
        <ele>1743.445</ele>
        <time>2020-09-03T12:20:13Z</time>
      </trkpt>
      <trkpt lat="44.19525" lon="5.2194">
        <ele>1746.125</ele>
        <time>2020-09-03T12:20:15Z</time>
      </trkpt>
      <trkpt lat="44.19517" lon="5.21939">
        <ele>1749.117</ele>
        <time>2020-09-03T12:20:16Z</time>
      </trkpt>
      <trkpt lat="44.19509" lon="5.21942">
        <ele>1751.66</ele>
        <time>2020-09-03T12:20:17Z</time>
      </trkpt>
      <trkpt lat="44.19502" lon="5.21948">
        <ele>1753.845</ele>
        <time>2020-09-03T12:20:18Z</time>
      </trkpt>
      <trkpt lat="44.19502" lon="5.21948">
        <ele>1755.219</ele>
        <time>2020-09-03T12:20:18Z</time>
      </trkpt>
      <trkpt lat="44.19493" lon="5.21973">
        <ele>1757.532</ele>
        <time>2020-09-03T12:20:20Z</time>
      </trkpt>
      <trkpt lat="44.19494" lon="5.21986">
        <ele>1760.109</ele>
        <time>2020-09-03T12:20:21Z</time>
      </trkpt>
      <trkpt lat="44.19498" lon="5.21996">
        <ele>1762.669</ele>
        <time>2020-09-03T12:20:22Z</time>
      </trkpt>
      <trkpt lat="44.19505" lon="5.22001">
        <ele>1765.046</ele>
        <time>2020-09-03T12:20:23Z</time>
      </trkpt>
      <trkpt lat="44.19505" lon="5.22001">
        <ele>1767.244</ele>
        <time>2020-09-03T12:20:23Z</time>
      </trkpt>
      <trkpt lat="44.19524" lon="5.21994">
        <ele>1769.449</ele>
        <time>2020-09-03T12:20:25Z</time>
      </trkpt>
      <trkpt lat="44.19532" lon="5.21985">
        <ele>1771.627</ele>
        <time>2020-09-03T12:20:26Z</time>
      </trkpt>
      <trkpt lat="44.19537" lon="5.21975">
        <ele>1774.413</ele>
        <time>2020-09-03T12:20:27Z</time>
      </trkpt>
      <trkpt lat="44.19542" lon="5.21964">
        <ele>1776.912</ele>
        <time>2020-09-03T12:20:28Z</time>
      </trkpt>
      <trkpt lat="44.19547" lon="5.21954">
        <ele>1779.767</ele>
        <time>2020-09-03T12:20:29Z</time>
      </trkpt>
      <trkpt lat="44.19551" lon="5.21944">
        <ele>1782.904</ele>
        <time>2020-09-03T12:20:30Z</time>
      </trkpt>
      <trkpt lat="44.19554" lon="5.21934">
        <ele>1785.459</ele>
        <time>2020-09-03T12:20:31Z</time>
      </trkpt>
      <trkpt lat="44.19556" lon="5.21923">
        <ele>1787.708</ele>
        <time>2020-09-03T12:20:32Z</time>
      </trkpt>
      <trkpt lat="44.19556" lon="5.21912">
        <ele>1789.41</ele>
        <time>2020-09-03T12:20:33Z</time>
      </trkpt>
      <trkpt lat="44.19553" lon="5.219">
        <ele>1791.153</ele>
        <time>2020-09-03T12:20:34Z</time>
      </trkpt>
      <trkpt lat="44.19548" lon="5.21892">
        <ele>1792.836</ele>
        <time>2020-09-03T12:20:35Z</time>
      </trkpt>
      <trkpt lat="44.1954" lon="5.21888">
        <ele>1795.073</ele>
        <time>2020-09-03T12:20:36Z</time>
      </trkpt>
      <trkpt lat="44.19531" lon="5.2189">
        <ele>1796.921</ele>
        <time>2020-09-03T12:20:37Z</time>
      </trkpt>
      <trkpt lat="44.19522" lon="5.21896">
        <ele>1799.133</ele>
        <time>2020-09-03T12:20:38Z</time>
      </trkpt>
      <trkpt lat="44.19514" lon="5.21904">
        <ele>1801.332</ele>
        <time>2020-09-03T12:20:39Z</time>
      </trkpt>
      <trkpt lat="44.19507" lon="5.21916">
        <ele>1803.277</ele>
        <time>2020-09-03T12:20:40Z</time>
      </trkpt>
      <trkpt lat="44.19502" lon="5.2193">
        <ele>1804.522</ele>
        <time>2020-09-03T12:20:41Z</time>
      </trkpt>
      <trkpt lat="44.19501" lon="5.21945">
        <ele>1805.507</ele>
        <time>2020-09-03T12:20:42Z</time>
      </trkpt>
      <trkpt lat="44.19504" lon="5.2196">
        <ele>1806.828</ele>
        <time>2020-09-03T12:20:43Z</time>
      </trkpt>
      <trkpt lat="44.1951" lon="5.21973">
        <ele>1808.344</ele>
        <time>2020-09-03T12:20:44Z</time>
      </trkpt>
      <trkpt lat="44.1951" lon="5.21973">
        <ele>1810.061</ele>
        <time>2020-09-03T12:20:44Z</time>
      </trkpt>
      <trkpt lat="44.1951" lon="5.21973">
        <ele>1813.597</ele>
        <time>2020-09-03T12:20:44Z</time>
      </trkpt>
      <trkpt lat="44.1951" lon="5.21973">
        <ele>1816.662</ele>
        <time>2020-09-03T12:20:44Z</time>
      </trkpt>
      <trkpt lat="44.1951" lon="5.21973">
        <ele>1819.851</ele>
        <time>2020-09-03T12:20:44Z</time>
      </trkpt>
      <trkpt lat="44.19541" lon="5.22007">
        <ele>1821.967</ele>
        <time>2020-09-03T12:20:49Z</time>
      </trkpt>
      <trkpt lat="44.19541" lon="5.22007">
        <ele>1823.166</ele>
        <time>2020-09-03T12:20:49Z</time>
      </trkpt>
      <trkpt lat="44.19566" lon="5.2199">
        <ele>1824.179</ele>
        <time>2020-09-03T12:20:52Z</time>
      </trkpt>
      <trkpt lat="44.19571" lon="5.21977">
        <ele>1825.041</ele>
        <time>2020-09-03T12:20:53Z</time>
      </trkpt>
      <trkpt lat="44.19571" lon="5.21977">
        <ele>1825.46</ele>
        <time>2020-09-03T12:20:53Z</time>
      </trkpt>
      <trkpt lat="44.1957" lon="5.21952">
        <ele>1826.504</ele>
        <time>2020-09-03T12:20:55Z</time>
      </trkpt>
      <trkpt lat="44.19569" lon="5.21941">
        <ele>1828.372</ele>
        <time>2020-09-03T12:20:56Z</time>
      </trkpt>
      <trkpt lat="44.19567" lon="5.21932">
        <ele>1830.737</ele>
        <time>2020-09-03T12:20:57Z</time>
      </trkpt>
      <trkpt lat="44.19566" lon="5.21923">
        <ele>1832.973</ele>
        <time>2020-09-03T12:20:58Z</time>
      </trkpt>
      <trkpt lat="44.19565" lon="5.21915">
        <ele>1835.565</ele>
        <time>2020-09-03T12:20:59Z</time>
      </trkpt>
      <trkpt lat="44.19564" lon="5.21907">
        <ele>1837.022</ele>
        <time>2020-09-03T12:21:00Z</time>
      </trkpt>
      <trkpt lat="44.19562" lon="5.21897">
        <ele>1838.129</ele>
        <time>2020-09-03T12:21:01Z</time>
      </trkpt>
      <trkpt lat="44.1956" lon="5.21886">
        <ele>1839.342</ele>
        <time>2020-09-03T12:21:02Z</time>
      </trkpt>
      <trkpt lat="44.19558" lon="5.21875">
        <ele>1841.18</ele>
        <time>2020-09-03T12:21:03Z</time>
      </trkpt>
      <trkpt lat="44.19556" lon="5.21866">
        <ele>1843.342</ele>
        <time>2020-09-03T12:21:04Z</time>
      </trkpt>
      <trkpt lat="44.19555" lon="5.21857">
        <ele>1845.509</ele>
        <time>2020-09-03T12:21:05Z</time>
      </trkpt>
      <trkpt lat="44.19556" lon="5.21849">
        <ele>1847.519</ele>
        <time>2020-09-03T12:21:06Z</time>
      </trkpt>
      <trkpt lat="44.19557" lon="5.21841">
        <ele>1849.095</ele>
        <time>2020-09-03T12:21:07Z</time>
      </trkpt>
      <trkpt lat="44.19558" lon="5.21831">
        <ele>1850.475</ele>
        <time>2020-09-03T12:21:08Z</time>
      </trkpt>
      <trkpt lat="44.19558" lon="5.21821">
        <ele>1851.423</ele>
        <time>2020-09-03T12:21:09Z</time>
      </trkpt>
      <trkpt lat="44.19557" lon="5.2181">
        <ele>1852.535</ele>
        <time>2020-09-03T12:21:10Z</time>
      </trkpt>
      <trkpt lat="44.19551" lon="5.21802">
        <ele>1854.149</ele>
        <time>2020-09-03T12:21:11Z</time>
      </trkpt>
      <trkpt lat="44.19543" lon="5.218">
        <ele>1856.774</ele>
        <time>2020-09-03T12:21:12Z</time>
      </trkpt>
      <trkpt lat="44.19543" lon="5.218">
        <ele>1858.791</ele>
        <time>2020-09-03T12:21:12Z</time>
      </trkpt>
      <trkpt lat="44.19527" lon="5.2181">
        <ele>1861.682</ele>
        <time>2020-09-03T12:21:14Z</time>
      </trkpt>
      <trkpt lat="44.19527" lon="5.2181">
        <ele>1864.314</ele>
        <time>2020-09-03T12:21:14Z</time>
      </trkpt>
      <trkpt lat="44.19527" lon="5.2181">
        <ele>1866.11</ele>
        <time>2020-09-03T12:21:14Z</time>
      </trkpt>
      <trkpt lat="44.19524" lon="5.21853">
        <ele>1867.744</ele>
        <time>2020-09-03T12:21:18Z</time>
      </trkpt>
      <trkpt lat="44.19524" lon="5.21853">
        <ele>1868.677</ele>
        <time>2020-09-03T12:21:18Z</time>
      </trkpt>
      <trkpt lat="44.19529" lon="5.21862">
        <ele>1869.485</ele>
        <time>2020-09-03T12:21:19Z</time>
      </trkpt>
      <trkpt lat="44.19542" lon="5.21879">
        <ele>1870.246</ele>
        <time>2020-09-03T12:21:21Z</time>
      </trkpt>
      <trkpt lat="44.19551" lon="5.21885">
        <ele>1870.832</ele>
        <time>2020-09-03T12:21:22Z</time>
      </trkpt>
      <trkpt lat="44.1956" lon="5.21887">
        <ele>1871.708</ele>
        <time>2020-09-03T12:21:23Z</time>
      </trkpt>
      <trkpt lat="44.1956" lon="5.21887">
        <ele>1873.12</ele>
        <time>2020-09-03T12:21:23Z</time>
      </trkpt>
      <trkpt lat="44.19575" lon="5.21881">
        <ele>1875.564</ele>
        <time>2020-09-03T12:21:25Z</time>
      </trkpt>
      <trkpt lat="44.19583" lon="5.21877">
        <ele>1877.952</ele>
        <time>2020-09-03T12:21:26Z</time>
      </trkpt>
      <trkpt lat="44.19589" lon="5.21873">
        <ele>1879.787</ele>
        <time>2020-09-03T12:21:27Z</time>
      </trkpt>
      <trkpt lat="44.19596" lon="5.21867">
        <ele>1881.32</ele>
        <time>2020-09-03T12:21:28Z</time>
      </trkpt>
      <trkpt lat="44.19601" lon="5.21858">
        <ele>1882.474</ele>
        <time>2020-09-03T12:21:29Z</time>
      </trkpt>
      <trkpt lat="44.19605" lon="5.21846">
        <ele>1883.502</ele>
        <time>2020-09-03T12:21:30Z</time>
      </trkpt>
      <trkpt lat="44.19607" lon="5.21834">
        <ele>1884.263</ele>
        <time>2020-09-03T12:21:31Z</time>
      </trkpt>
      <trkpt lat="44.19604" lon="5.21822">
        <ele>1884.945</ele>
        <time>2020-09-03T12:21:32Z</time>
      </trkpt>
      <trkpt lat="44.19598" lon="5.21814">
        <ele>1885.885</ele>
        <time>2020-09-03T12:21:33Z</time>
      </trkpt>
      <trkpt lat="44.19589" lon="5.2181">
        <ele>1887.316</ele>
        <time>2020-09-03T12:21:34Z</time>
      </trkpt>
      <trkpt lat="44.19581" lon="5.2181">
        <ele>1888.968</ele>
        <time>2020-09-03T12:21:35Z</time>
      </trkpt>
      <trkpt lat="44.19573" lon="5.21814">
        <ele>1891.273</ele>
        <time>2020-09-03T12:21:36Z</time>
      </trkpt>
      <trkpt lat="44.19567" lon="5.21821">
        <ele>1893.829</ele>
        <time>2020-09-03T12:21:37Z</time>
      </trkpt>
      <trkpt lat="44.19563" lon="5.21831">
        <ele>1896.204</ele>
        <time>2020-09-03T12:21:38Z</time>
      </trkpt>
      <trkpt lat="44.19563" lon="5.21843">
        <ele>1898.973</ele>
        <time>2020-09-03T12:21:39Z</time>
      </trkpt>
      <trkpt lat="44.19563" lon="5.21843">
        <ele>1900.589</ele>
        <time>2020-09-03T12:21:39Z</time>
      </trkpt>
      <trkpt lat="44.19576" lon="5.2186">
        <ele>1902.697</ele>
        <time>2020-09-03T12:21:41Z</time>
      </trkpt>
      <trkpt lat="44.19585" lon="5.21859">
        <ele>1904.929</ele>
        <time>2020-09-03T12:21:42Z</time>
      </trkpt>
      <trkpt lat="44.19594" lon="5.21853">
        <ele>1906.934</ele>
        <time>2020-09-03T12:21:43Z</time>
      </trkpt>
      <trkpt lat="44.196" lon="5.21843">
        <ele>1908.548</ele>
        <time>2020-09-03T12:21:44Z</time>
      </trkpt>
      <trkpt lat="44.19604" lon="5.2183">
        <ele>1909.866</ele>
        <time>2020-09-03T12:21:45Z</time>
      </trkpt>
      <trkpt lat="44.19601" lon="5.21804">
        <ele>1911.149</ele>
        <time>2020-09-03T12:21:47Z</time>
      </trkpt>
      <trkpt lat="44.19596" lon="5.21794">
        <ele>1912.361</ele>
        <time>2020-09-03T12:21:48Z</time>
      </trkpt>
      <trkpt lat="44.19596" lon="5.21794">
        <ele>1913.891</ele>
        <time>2020-09-03T12:21:48Z</time>
      </trkpt>
      <trkpt lat="44.1958" lon="5.21783">
        <ele>1915.849</ele>
        <time>2020-09-03T12:21:50Z</time>
      </trkpt>
      <trkpt lat="44.19572" lon="5.21781">
        <ele>1918.571</ele>
        <time>2020-09-03T12:21:51Z</time>
      </trkpt>
      <trkpt lat="44.19565" lon="5.21781">
        <ele>1921.964</ele>
        <time>2020-09-03T12:21:52Z</time>
      </trkpt>
      <trkpt lat="44.19559" lon="5.21785">
        <ele>1924.897</ele>
        <time>2020-09-03T12:21:53Z</time>
      </trkpt>
      <trkpt lat="44.19553" lon="5.21793">
        <ele>1927.798</ele>
        <time>2020-09-03T12:21:54Z</time>
      </trkpt>
      <trkpt lat="44.19549" lon="5.21804">
        <ele>1929.935</ele>
        <time>2020-09-03T12:21:55Z</time>
      </trkpt>
      <trkpt lat="44.19549" lon="5.21804">
        <ele>1932.028</ele>
        <time>2020-09-03T12:21:55Z</time>
      </trkpt>
      <trkpt lat="44.19551" lon="5.21829">
        <ele>1933.907</ele>
        <time>2020-09-03T12:21:57Z</time>
      </trkpt>
      <trkpt lat="44.19557" lon="5.21837">
        <ele>1935.562</ele>
        <time>2020-09-03T12:21:58Z</time>
      </trkpt>
      <trkpt lat="44.19566" lon="5.2184">
        <ele>1937.489</ele>
        <time>2020-09-03T12:21:59Z</time>
      </trkpt>
      <trkpt lat="44.19574" lon="5.2184">
        <ele>1939.873</ele>
        <time>2020-09-03T12:22:00Z</time>
      </trkpt>
      <trkpt lat="44.19581" lon="5.21841">
        <ele>1942.373</ele>
        <time>2020-09-03T12:22:01Z</time>
      </trkpt>
      <trkpt lat="44.19588" lon="5.21841">
        <ele>1944.438</ele>
        <time>2020-09-03T12:22:02Z</time>
      </trkpt>
      <trkpt lat="44.19595" lon="5.21841">
        <ele>1946.071</ele>
        <time>2020-09-03T12:22:03Z</time>
      </trkpt>
      <trkpt lat="44.19602" lon="5.21835">
        <ele>1946.891</ele>
        <time>2020-09-03T12:22:04Z</time>
      </trkpt>
      <trkpt lat="44.1961" lon="5.21826">
        <ele>1947.323</ele>
        <time>2020-09-03T12:22:05Z</time>
      </trkpt>
      <trkpt lat="44.19618" lon="5.21812">
        <ele>1947.981</ele>
        <time>2020-09-03T12:22:06Z</time>
      </trkpt>
      <trkpt lat="44.19623" lon="5.21797">
        <ele>1949.421</ele>
        <time>2020-09-03T12:22:07Z</time>
      </trkpt>
      <trkpt lat="44.19623" lon="5.21797">
        <ele>1950.585</ele>
        <time>2020-09-03T12:22:07Z</time>
      </trkpt>
      <trkpt lat="44.19627" lon="5.21768">
        <ele>1953.27</ele>
        <time>2020-09-03T12:22:09Z</time>
      </trkpt>
      <trkpt lat="44.19625" lon="5.21753">
        <ele>1956.297</ele>
        <time>2020-09-03T12:22:10Z</time>
      </trkpt>
      <trkpt lat="44.19625" lon="5.21753">
        <ele>1958.032</ele>
        <time>2020-09-03T12:22:10Z</time>
      </trkpt>
      <trkpt lat="44.19613" lon="5.21712">
        <ele>1959.939</ele>
        <time>2020-09-03T12:22:13Z</time>
      </trkpt>
      <trkpt lat="44.19613" lon="5.21712">
        <ele>1961.616</ele>
        <time>2020-09-03T12:22:13Z</time>
      </trkpt>
      <trkpt lat="44.19598" lon="5.217">
        <ele>1963.231</ele>
        <time>2020-09-03T12:22:15Z</time>
      </trkpt>
      <trkpt lat="44.1959" lon="5.21698">
        <ele>1965.066</ele>
        <time>2020-09-03T12:22:16Z</time>
      </trkpt>
      <trkpt lat="44.19583" lon="5.21699">
        <ele>1967.313</ele>
        <time>2020-09-03T12:22:17Z</time>
      </trkpt>
      <trkpt lat="44.19577" lon="5.21704">
        <ele>1969.545</ele>
        <time>2020-09-03T12:22:18Z</time>
      </trkpt>
      <trkpt lat="44.19575" lon="5.21712">
        <ele>1971.357</ele>
        <time>2020-09-03T12:22:19Z</time>
      </trkpt>
      <trkpt lat="44.19577" lon="5.21723">
        <ele>1973.119</ele>
        <time>2020-09-03T12:22:20Z</time>
      </trkpt>
      <trkpt lat="44.19583" lon="5.21733">
        <ele>1974.679</ele>
        <time>2020-09-03T12:22:21Z</time>
      </trkpt>
      <trkpt lat="44.19589" lon="5.2174">
        <ele>1976.184</ele>
        <time>2020-09-03T12:22:22Z</time>
      </trkpt>
      <trkpt lat="44.19596" lon="5.21744">
        <ele>1977.781</ele>
        <time>2020-09-03T12:22:23Z</time>
      </trkpt>
      <trkpt lat="44.19604" lon="5.21743">
        <ele>1979.02</ele>
        <time>2020-09-03T12:22:24Z</time>
      </trkpt>
      <trkpt lat="44.19604" lon="5.21743">
        <ele>1979.994</ele>
        <time>2020-09-03T12:22:24Z</time>
      </trkpt>
      <trkpt lat="44.19604" lon="5.21743">
        <ele>1980.807</ele>
        <time>2020-09-03T12:22:24Z</time>
      </trkpt>
      <trkpt lat="44.19604" lon="5.21743">
        <ele>1981.983</ele>
        <time>2020-09-03T12:22:24Z</time>
      </trkpt>
      <trkpt lat="44.19604" lon="5.21743">
        <ele>1983.56</ele>
        <time>2020-09-03T12:22:24Z</time>
      </trkpt>
      <trkpt lat="44.19646" lon="5.21699">
        <ele>1985.265</ele>
        <time>2020-09-03T12:22:29Z</time>
      </trkpt>
      <trkpt lat="44.19646" lon="5.21699">
        <ele>1986.789</ele>
        <time>2020-09-03T12:22:29Z</time>
      </trkpt>
      <trkpt lat="44.19646" lon="5.21699">
        <ele>1988.002</ele>
        <time>2020-09-03T12:22:29Z</time>
      </trkpt>
      <trkpt lat="44.19662" lon="5.21662">
        <ele>1988.726</ele>
        <time>2020-09-03T12:22:32Z</time>
      </trkpt>
      <trkpt lat="44.19665" lon="5.21647">
        <ele>1989.312</ele>
        <time>2020-09-03T12:22:33Z</time>
      </trkpt>
      <trkpt lat="44.19658" lon="5.21617">
        <ele>1989.46</ele>
        <time>2020-09-03T12:22:35Z</time>
      </trkpt>
      <trkpt lat="44.1965" lon="5.21607">
        <ele>1989.546</ele>
        <time>2020-09-03T12:22:36Z</time>
      </trkpt>
      <trkpt lat="44.19641" lon="5.216">
        <ele>1990.208</ele>
        <time>2020-09-03T12:22:37Z</time>
      </trkpt>
      <trkpt lat="44.19633" lon="5.21595">
        <ele>1992.004</ele>
        <time>2020-09-03T12:22:38Z</time>
      </trkpt>
      <trkpt lat="44.19626" lon="5.21592">
        <ele>1993.792</ele>
        <time>2020-09-03T12:22:39Z</time>
      </trkpt>
      <trkpt lat="44.19618" lon="5.21591">
        <ele>1995.977</ele>
        <time>2020-09-03T12:22:40Z</time>
      </trkpt>
      <trkpt lat="44.19611" lon="5.21589">
        <ele>1998.222</ele>
        <time>2020-09-03T12:22:41Z</time>
      </trkpt>
      <trkpt lat="44.19604" lon="5.21588">
        <ele>2000.147</ele>
        <time>2020-09-03T12:22:42Z</time>
      </trkpt>
      <trkpt lat="44.19598" lon="5.21587">
        <ele>2002.023</ele>
        <time>2020-09-03T12:22:43Z</time>
      </trkpt>
      <trkpt lat="44.19592" lon="5.21587">
        <ele>2003.026</ele>
        <time>2020-09-03T12:22:44Z</time>
      </trkpt>
      <trkpt lat="44.19587" lon="5.21589">
        <ele>2003.333</ele>
        <time>2020-09-03T12:22:45Z</time>
      </trkpt>
      <trkpt lat="44.19587" lon="5.21589">
        <ele>2003.228</ele>
        <time>2020-09-03T12:22:45Z</time>
      </trkpt>
      <trkpt lat="44.19578" lon="5.21597">
        <ele>2002.733</ele>
        <time>2020-09-03T12:22:47Z</time>
      </trkpt>
      <trkpt lat="44.19578" lon="5.21597">
        <ele>2002.375</ele>
        <time>2020-09-03T12:22:47Z</time>
      </trkpt>
      <trkpt lat="44.19576" lon="5.21613">
        <ele>2002.311</ele>
        <time>2020-09-03T12:22:49Z</time>
      </trkpt>
      <trkpt lat="44.19576" lon="5.21613">
        <ele>2002.714</ele>
        <time>2020-09-03T12:22:49Z</time>
      </trkpt>
      <trkpt lat="44.19576" lon="5.21613">
        <ele>2003.381</ele>
        <time>2020-09-03T12:22:49Z</time>
      </trkpt>
      <trkpt lat="44.19576" lon="5.21613">
        <ele>2003.823</ele>
        <time>2020-09-03T12:22:49Z</time>
      </trkpt>
      <trkpt lat="44.196" lon="5.21616">
        <ele>2003.697</ele>
        <time>2020-09-03T12:22:53Z</time>
      </trkpt>
      <trkpt lat="44.19615" lon="5.21603">
        <ele>2002.739</ele>
        <time>2020-09-03T12:22:55Z</time>
      </trkpt>
      <trkpt lat="44.19625" lon="5.21593">
        <ele>2001.603</ele>
        <time>2020-09-03T12:22:56Z</time>
      </trkpt>
      <trkpt lat="44.19633" lon="5.21582">
        <ele>2000.511</ele>
        <time>2020-09-03T12:22:57Z</time>
      </trkpt>
      <trkpt lat="44.1964" lon="5.21569">
        <ele>2000.236</ele>
        <time>2020-09-03T12:22:58Z</time>
      </trkpt>
      <trkpt lat="44.1964" lon="5.21569">
        <ele>2000.682</ele>
        <time>2020-09-03T12:22:58Z</time>
      </trkpt>
      <trkpt lat="44.19649" lon="5.21542">
        <ele>2001.402</ele>
        <time>2020-09-03T12:23:00Z</time>
      </trkpt>
      <trkpt lat="44.19652" lon="5.21528">
        <ele>2001.891</ele>
        <time>2020-09-03T12:23:01Z</time>
      </trkpt>
      <trkpt lat="44.19655" lon="5.21512">
        <ele>2001.825</ele>
        <time>2020-09-03T12:23:02Z</time>
      </trkpt>
      <trkpt lat="44.19657" lon="5.21495">
        <ele>2001.442</ele>
        <time>2020-09-03T12:23:03Z</time>
      </trkpt>
      <trkpt lat="44.19657" lon="5.21478">
        <ele>2001.309</ele>
        <time>2020-09-03T12:23:04Z</time>
      </trkpt>
      <trkpt lat="44.19657" lon="5.2146">
        <ele>2001.776</ele>
        <time>2020-09-03T12:23:05Z</time>
      </trkpt>
      <trkpt lat="44.19656" lon="5.21444">
        <ele>2003.479</ele>
        <time>2020-09-03T12:23:06Z</time>
      </trkpt>
      <trkpt lat="44.19656" lon="5.21414">
        <ele>2005.668</ele>
        <time>2020-09-03T12:23:08Z</time>
      </trkpt>
      <trkpt lat="44.19656" lon="5.21414">
        <ele>2007.493</ele>
        <time>2020-09-03T12:23:08Z</time>
      </trkpt>
      <trkpt lat="44.19657" lon="5.21388">
        <ele>2008.462</ele>
        <time>2020-09-03T12:23:10Z</time>
      </trkpt>
      <trkpt lat="44.19658" lon="5.21373">
        <ele>2008.585</ele>
        <time>2020-09-03T12:23:11Z</time>
      </trkpt>
      <trkpt lat="44.19659" lon="5.21356">
        <ele>2008.017</ele>
        <time>2020-09-03T12:23:12Z</time>
      </trkpt>
      <trkpt lat="44.1966" lon="5.21339">
        <ele>2007.055</ele>
        <time>2020-09-03T12:23:13Z</time>
      </trkpt>
      <trkpt lat="44.19661" lon="5.21322">
        <ele>2006.202</ele>
        <time>2020-09-03T12:23:14Z</time>
      </trkpt>
      <trkpt lat="44.19661" lon="5.21304">
        <ele>2005.698</ele>
        <time>2020-09-03T12:23:15Z</time>
      </trkpt>
      <trkpt lat="44.19661" lon="5.21287">
        <ele>2005.647</ele>
        <time>2020-09-03T12:23:16Z</time>
      </trkpt>
      <trkpt lat="44.1966" lon="5.2127">
        <ele>2006.031</ele>
        <time>2020-09-03T12:23:17Z</time>
      </trkpt>
      <trkpt lat="44.19658" lon="5.21254">
        <ele>2006.895</ele>
        <time>2020-09-03T12:23:18Z</time>
      </trkpt>
      <trkpt lat="44.19658" lon="5.21238">
        <ele>2007.987</ele>
        <time>2020-09-03T12:23:19Z</time>
      </trkpt>
      <trkpt lat="44.19657" lon="5.21221">
        <ele>2008.98</ele>
        <time>2020-09-03T12:23:20Z</time>
      </trkpt>
      <trkpt lat="44.19658" lon="5.21205">
        <ele>2009.38</ele>
        <time>2020-09-03T12:23:21Z</time>
      </trkpt>
      <trkpt lat="44.19659" lon="5.21189">
        <ele>2008.566</ele>
        <time>2020-09-03T12:23:22Z</time>
      </trkpt>
      <trkpt lat="44.19661" lon="5.21174">
        <ele>2006.17</ele>
        <time>2020-09-03T12:23:23Z</time>
      </trkpt>
      <trkpt lat="44.19663" lon="5.21158">
        <ele>2001.573</ele>
        <time>2020-09-03T12:23:24Z</time>
      </trkpt>
      <trkpt lat="44.19666" lon="5.21141">
        <ele>1996.882</ele>
        <time>2020-09-03T12:23:25Z</time>
      </trkpt>
      <trkpt lat="44.19668" lon="5.21123">
        <ele>1991.392</ele>
        <time>2020-09-03T12:23:26Z</time>
      </trkpt>
      <trkpt lat="44.19668" lon="5.21123">
        <ele>1986.409</ele>
        <time>2020-09-03T12:23:26Z</time>
      </trkpt>
      <trkpt lat="44.19668" lon="5.21123">
        <ele>1981.854</ele>
        <time>2020-09-03T12:23:26Z</time>
      </trkpt>
      <trkpt lat="44.19678" lon="5.21044">
        <ele>1978.394</ele>
        <time>2020-09-03T12:23:30Z</time>
      </trkpt>
      <trkpt lat="44.19681" lon="5.21024">
        <ele>1975.279</ele>
        <time>2020-09-03T12:23:31Z</time>
      </trkpt>
      <trkpt lat="44.19681" lon="5.21004">
        <ele>1973.91</ele>
        <time>2020-09-03T12:23:32Z</time>
      </trkpt>
      <trkpt lat="44.1968" lon="5.20987">
        <ele>1972.375</ele>
        <time>2020-09-03T12:23:33Z</time>
      </trkpt>
      <trkpt lat="44.19679" lon="5.2097">
        <ele>1970.337</ele>
        <time>2020-09-03T12:23:34Z</time>
      </trkpt>
      <trkpt lat="44.19678" lon="5.20953">
        <ele>1967.666</ele>
        <time>2020-09-03T12:23:35Z</time>
      </trkpt>
      <trkpt lat="44.19678" lon="5.20935">
        <ele>1964.105</ele>
        <time>2020-09-03T12:23:36Z</time>
      </trkpt>
      <trkpt lat="44.19678" lon="5.20915">
        <ele>1959.864</ele>
        <time>2020-09-03T12:23:37Z</time>
      </trkpt>
      <trkpt lat="44.19679" lon="5.20894">
        <ele>1955.58</ele>
        <time>2020-09-03T12:23:38Z</time>
      </trkpt>
      <trkpt lat="44.19679" lon="5.20872">
        <ele>1951.54</ele>
        <time>2020-09-03T12:23:39Z</time>
      </trkpt>
      <trkpt lat="44.1968" lon="5.20851">
        <ele>1948.265</ele>
        <time>2020-09-03T12:23:40Z</time>
      </trkpt>
      <trkpt lat="44.19679" lon="5.20832">
        <ele>1945.887</ele>
        <time>2020-09-03T12:23:41Z</time>
      </trkpt>
      <trkpt lat="44.19678" lon="5.20813">
        <ele>1943.594</ele>
        <time>2020-09-03T12:23:42Z</time>
      </trkpt>
      <trkpt lat="44.19676" lon="5.20795">
        <ele>1941.767</ele>
        <time>2020-09-03T12:23:43Z</time>
      </trkpt>
      <trkpt lat="44.19674" lon="5.20777">
        <ele>1940.169</ele>
        <time>2020-09-03T12:23:44Z</time>
      </trkpt>
      <trkpt lat="44.19672" lon="5.2076">
        <ele>1938.758</ele>
        <time>2020-09-03T12:23:45Z</time>
      </trkpt>
      <trkpt lat="44.19669" lon="5.20743">
        <ele>1937.411</ele>
        <time>2020-09-03T12:23:46Z</time>
      </trkpt>
      <trkpt lat="44.19666" lon="5.20726">
        <ele>1935.479</ele>
        <time>2020-09-03T12:23:47Z</time>
      </trkpt>
      <trkpt lat="44.19663" lon="5.2071">
        <ele>1933.449</ele>
        <time>2020-09-03T12:23:48Z</time>
      </trkpt>
      <trkpt lat="44.1966" lon="5.20693">
        <ele>1930.647</ele>
        <time>2020-09-03T12:23:49Z</time>
      </trkpt>
      <trkpt lat="44.19657" lon="5.20675">
        <ele>1927.499</ele>
        <time>2020-09-03T12:23:50Z</time>
      </trkpt>
      <trkpt lat="44.19655" lon="5.20656">
        <ele>1924.884</ele>
        <time>2020-09-03T12:23:51Z</time>
      </trkpt>
      <trkpt lat="44.19654" lon="5.20637">
        <ele>1923.533</ele>
        <time>2020-09-03T12:23:52Z</time>
      </trkpt>
      <trkpt lat="44.19654" lon="5.20637">
        <ele>1922.833</ele>
        <time>2020-09-03T12:23:52Z</time>
      </trkpt>
      <trkpt lat="44.1965" lon="5.20584">
        <ele>1922.697</ele>
        <time>2020-09-03T12:23:55Z</time>
      </trkpt>
      <trkpt lat="44.19647" lon="5.20568">
        <ele>1922.852</ele>
        <time>2020-09-03T12:23:56Z</time>
      </trkpt>
      <trkpt lat="44.19644" lon="5.20551">
        <ele>1922.991</ele>
        <time>2020-09-03T12:23:57Z</time>
      </trkpt>
      <trkpt lat="44.19642" lon="5.20533">
        <ele>1922.901</ele>
        <time>2020-09-03T12:23:58Z</time>
      </trkpt>
      <trkpt lat="44.19641" lon="5.20516">
        <ele>1922.701</ele>
        <time>2020-09-03T12:23:59Z</time>
      </trkpt>
      <trkpt lat="44.19639" lon="5.205">
        <ele>1922.557</ele>
        <time>2020-09-03T12:24:00Z</time>
      </trkpt>
      <trkpt lat="44.19638" lon="5.20484">
        <ele>1922.245</ele>
        <time>2020-09-03T12:24:01Z</time>
      </trkpt>
      <trkpt lat="44.19637" lon="5.20468">
        <ele>1921.839</ele>
        <time>2020-09-03T12:24:02Z</time>
      </trkpt>
      <trkpt lat="44.19636" lon="5.20451">
        <ele>1921.263</ele>
        <time>2020-09-03T12:24:03Z</time>
      </trkpt>
      <trkpt lat="44.19637" lon="5.20432">
        <ele>1920.812</ele>
        <time>2020-09-03T12:24:04Z</time>
      </trkpt>
      <trkpt lat="44.19636" lon="5.20414">
        <ele>1920.608</ele>
        <time>2020-09-03T12:24:05Z</time>
      </trkpt>
      <trkpt lat="44.19634" lon="5.20396">
        <ele>1920.722</ele>
        <time>2020-09-03T12:24:06Z</time>
      </trkpt>
      <trkpt lat="44.19629" lon="5.20378">
        <ele>1921.173</ele>
        <time>2020-09-03T12:24:07Z</time>
      </trkpt>
      <trkpt lat="44.19624" lon="5.20361">
        <ele>1921.847</ele>
        <time>2020-09-03T12:24:08Z</time>
      </trkpt>
      <trkpt lat="44.19621" lon="5.20344">
        <ele>1922.893</ele>
        <time>2020-09-03T12:24:09Z</time>
      </trkpt>
      <trkpt lat="44.19619" lon="5.20328">
        <ele>1923.549</ele>
        <time>2020-09-03T12:24:10Z</time>
      </trkpt>
      <trkpt lat="44.19617" lon="5.20312">
        <ele>1923.747</ele>
        <time>2020-09-03T12:24:11Z</time>
      </trkpt>
      <trkpt lat="44.19613" lon="5.20295">
        <ele>1923.57</ele>
        <time>2020-09-03T12:24:12Z</time>
      </trkpt>
      <trkpt lat="44.19609" lon="5.20278">
        <ele>1923.561</ele>
        <time>2020-09-03T12:24:13Z</time>
      </trkpt>
      <trkpt lat="44.19605" lon="5.20261">
        <ele>1923.739</ele>
        <time>2020-09-03T12:24:14Z</time>
      </trkpt>
      <trkpt lat="44.19603" lon="5.20242">
        <ele>1924.336</ele>
        <time>2020-09-03T12:24:15Z</time>
      </trkpt>
      <trkpt lat="44.19603" lon="5.20224">
        <ele>1925.561</ele>
        <time>2020-09-03T12:24:16Z</time>
      </trkpt>
      <trkpt lat="44.19603" lon="5.20208">
        <ele>1927.123</ele>
        <time>2020-09-03T12:24:17Z</time>
      </trkpt>
      <trkpt lat="44.19604" lon="5.20193">
        <ele>1928.193</ele>
        <time>2020-09-03T12:24:18Z</time>
      </trkpt>
      <trkpt lat="44.19606" lon="5.20162">
        <ele>1928.199</ele>
        <time>2020-09-03T12:24:20Z</time>
      </trkpt>
      <trkpt lat="44.19608" lon="5.20147">
        <ele>1926.966</ele>
        <time>2020-09-03T12:24:21Z</time>
      </trkpt>
      <trkpt lat="44.1961" lon="5.2013">
        <ele>1925.532</ele>
        <time>2020-09-03T12:24:22Z</time>
      </trkpt>
      <trkpt lat="44.19612" lon="5.20114">
        <ele>1924.005</ele>
        <time>2020-09-03T12:24:23Z</time>
      </trkpt>
      <trkpt lat="44.19615" lon="5.20099">
        <ele>1922.774</ele>
        <time>2020-09-03T12:24:24Z</time>
      </trkpt>
      <trkpt lat="44.1962" lon="5.20085">
        <ele>1921.492</ele>
        <time>2020-09-03T12:24:25Z</time>
      </trkpt>
      <trkpt lat="44.19626" lon="5.20074">
        <ele>1920.185</ele>
        <time>2020-09-03T12:24:26Z</time>
      </trkpt>
      <trkpt lat="44.19626" lon="5.20074">
        <ele>1919.518</ele>
        <time>2020-09-03T12:24:26Z</time>
      </trkpt>
      <trkpt lat="44.19626" lon="5.20074">
        <ele>1918.375</ele>
        <time>2020-09-03T12:24:26Z</time>
      </trkpt>
      <trkpt lat="44.19646" lon="5.20053">
        <ele>1917.06</ele>
        <time>2020-09-03T12:24:29Z</time>
      </trkpt>
      <trkpt lat="44.19652" lon="5.20053">
        <ele>1915.837</ele>
        <time>2020-09-03T12:24:30Z</time>
      </trkpt>
      <trkpt lat="44.19655" lon="5.20056">
        <ele>1914.666</ele>
        <time>2020-09-03T12:24:31Z</time>
      </trkpt>
      <trkpt lat="44.19658" lon="5.20061">
        <ele>1913.779</ele>
        <time>2020-09-03T12:24:32Z</time>
      </trkpt>
      <trkpt lat="44.1966" lon="5.20065">
        <ele>1912.598</ele>
        <time>2020-09-03T12:24:33Z</time>
      </trkpt>
      <trkpt lat="44.1966" lon="5.20069">
        <ele>1911.386</ele>
        <time>2020-09-03T12:24:34Z</time>
      </trkpt>
      <trkpt lat="44.19654" lon="5.20079">
        <ele>1909.87</ele>
        <time>2020-09-03T12:24:36Z</time>
      </trkpt>
      <trkpt lat="44.19648" lon="5.20084">
        <ele>1908.548</ele>
        <time>2020-09-03T12:24:37Z</time>
      </trkpt>
      <trkpt lat="44.1964" lon="5.20088">
        <ele>1907.537</ele>
        <time>2020-09-03T12:24:38Z</time>
      </trkpt>
      <trkpt lat="44.1964" lon="5.20088">
        <ele>1906.815</ele>
        <time>2020-09-03T12:24:38Z</time>
      </trkpt>
      <trkpt lat="44.19624" lon="5.2009">
        <ele>1906.186</ele>
        <time>2020-09-03T12:24:40Z</time>
      </trkpt>
      <trkpt lat="44.19615" lon="5.20087">
        <ele>1905.206</ele>
        <time>2020-09-03T12:24:41Z</time>
      </trkpt>
      <trkpt lat="44.19606" lon="5.20082">
        <ele>1903.827</ele>
        <time>2020-09-03T12:24:42Z</time>
      </trkpt>
      <trkpt lat="44.19597" lon="5.20074">
        <ele>1902.323</ele>
        <time>2020-09-03T12:24:43Z</time>
      </trkpt>
      <trkpt lat="44.19588" lon="5.20064">
        <ele>1901.504</ele>
        <time>2020-09-03T12:24:44Z</time>
      </trkpt>
      <trkpt lat="44.19579" lon="5.20055">
        <ele>1901.086</ele>
        <time>2020-09-03T12:24:45Z</time>
      </trkpt>
      <trkpt lat="44.19571" lon="5.20047">
        <ele>1900.812</ele>
        <time>2020-09-03T12:24:46Z</time>
      </trkpt>
      <trkpt lat="44.19563" lon="5.20041">
        <ele>1900.162</ele>
        <time>2020-09-03T12:24:47Z</time>
      </trkpt>
      <trkpt lat="44.19554" lon="5.20035">
        <ele>1899.181</ele>
        <time>2020-09-03T12:24:48Z</time>
      </trkpt>
      <trkpt lat="44.19546" lon="5.20029">
        <ele>1898.027</ele>
        <time>2020-09-03T12:24:49Z</time>
      </trkpt>
      <trkpt lat="44.19537" lon="5.20021">
        <ele>1897.085</ele>
        <time>2020-09-03T12:24:50Z</time>
      </trkpt>
      <trkpt lat="44.19529" lon="5.20011">
        <ele>1896.395</ele>
        <time>2020-09-03T12:24:51Z</time>
      </trkpt>
      <trkpt lat="44.1952" lon="5.20001">
        <ele>1896.201</ele>
        <time>2020-09-03T12:24:52Z</time>
      </trkpt>
      <trkpt lat="44.19512" lon="5.19992">
        <ele>1896.247</ele>
        <time>2020-09-03T12:24:53Z</time>
      </trkpt>
      <trkpt lat="44.19497" lon="5.19971">
        <ele>1896.231</ele>
        <time>2020-09-03T12:24:55Z</time>
      </trkpt>
      <trkpt lat="44.19489" lon="5.19959">
        <ele>1896.19</ele>
        <time>2020-09-03T12:24:56Z</time>
      </trkpt>
      <trkpt lat="44.19482" lon="5.19947">
        <ele>1896.113</ele>
        <time>2020-09-03T12:24:57Z</time>
      </trkpt>
      <trkpt lat="44.19475" lon="5.19934">
        <ele>1896.246</ele>
        <time>2020-09-03T12:24:58Z</time>
      </trkpt>
      <trkpt lat="44.19475" lon="5.19934">
        <ele>1896.621</ele>
        <time>2020-09-03T12:24:58Z</time>
      </trkpt>
      <trkpt lat="44.19464" lon="5.19905">
        <ele>1897.161</ele>
        <time>2020-09-03T12:25:00Z</time>
      </trkpt>
      <trkpt lat="44.19462" lon="5.19887">
        <ele>1897.683</ele>
        <time>2020-09-03T12:25:01Z</time>
      </trkpt>
      <trkpt lat="44.19461" lon="5.1987">
        <ele>1898.15</ele>
        <time>2020-09-03T12:25:02Z</time>
      </trkpt>
      <trkpt lat="44.1946" lon="5.19854">
        <ele>1898.873</ele>
        <time>2020-09-03T12:25:03Z</time>
      </trkpt>
      <trkpt lat="44.19459" lon="5.19838">
        <ele>1899.311</ele>
        <time>2020-09-03T12:25:04Z</time>
      </trkpt>
      <trkpt lat="44.19456" lon="5.19822">
        <ele>1899.277</ele>
        <time>2020-09-03T12:25:05Z</time>
      </trkpt>
      <trkpt lat="44.19455" lon="5.19805">
        <ele>1898.804</ele>
        <time>2020-09-03T12:25:06Z</time>
      </trkpt>
      <trkpt lat="44.19453" lon="5.19788">
        <ele>1897.923</ele>
        <time>2020-09-03T12:25:07Z</time>
      </trkpt>
      <trkpt lat="44.19452" lon="5.19771">
        <ele>1896.962</ele>
        <time>2020-09-03T12:25:08Z</time>
      </trkpt>
      <trkpt lat="44.19451" lon="5.19754">
        <ele>1896.307</ele>
        <time>2020-09-03T12:25:09Z</time>
      </trkpt>
      <trkpt lat="44.19451" lon="5.19736">
        <ele>1895.684</ele>
        <time>2020-09-03T12:25:10Z</time>
      </trkpt>
      <trkpt lat="44.19451" lon="5.19718">
        <ele>1895.31</ele>
        <time>2020-09-03T12:25:11Z</time>
      </trkpt>
      <trkpt lat="44.19451" lon="5.197">
        <ele>1895.487</ele>
        <time>2020-09-03T12:25:12Z</time>
      </trkpt>
      <trkpt lat="44.19451" lon="5.197">
        <ele>1896.231</ele>
        <time>2020-09-03T12:25:12Z</time>
      </trkpt>
      <trkpt lat="44.19452" lon="5.19651">
        <ele>1896.834</ele>
        <time>2020-09-03T12:25:15Z</time>
      </trkpt>
      <trkpt lat="44.19451" lon="5.19635">
        <ele>1896.589</ele>
        <time>2020-09-03T12:25:16Z</time>
      </trkpt>
      <trkpt lat="44.19449" lon="5.19618">
        <ele>1895.386</ele>
        <time>2020-09-03T12:25:17Z</time>
      </trkpt>
      <trkpt lat="44.19447" lon="5.196">
        <ele>1893.974</ele>
        <time>2020-09-03T12:25:18Z</time>
      </trkpt>
      <trkpt lat="44.19446" lon="5.19582">
        <ele>1892.843</ele>
        <time>2020-09-03T12:25:19Z</time>
      </trkpt>
      <trkpt lat="44.19447" lon="5.19564">
        <ele>1892.621</ele>
        <time>2020-09-03T12:25:20Z</time>
      </trkpt>
      <trkpt lat="44.19447" lon="5.19548">
        <ele>1893.023</ele>
        <time>2020-09-03T12:25:21Z</time>
      </trkpt>
      <trkpt lat="44.19446" lon="5.19533">
        <ele>1893.525</ele>
        <time>2020-09-03T12:25:22Z</time>
      </trkpt>
      <trkpt lat="44.19446" lon="5.19533">
        <ele>1893.61</ele>
        <time>2020-09-03T12:25:22Z</time>
      </trkpt>
      <trkpt lat="44.19444" lon="5.19502">
        <ele>1893.156</ele>
        <time>2020-09-03T12:25:24Z</time>
      </trkpt>
      <trkpt lat="44.19443" lon="5.19486">
        <ele>1892.111</ele>
        <time>2020-09-03T12:25:25Z</time>
      </trkpt>
      <trkpt lat="44.19443" lon="5.19468">
        <ele>1890.819</ele>
        <time>2020-09-03T12:25:26Z</time>
      </trkpt>
      <trkpt lat="44.19442" lon="5.1945">
        <ele>1889.9</ele>
        <time>2020-09-03T12:25:27Z</time>
      </trkpt>
      <trkpt lat="44.19441" lon="5.19432">
        <ele>1889.371</ele>
        <time>2020-09-03T12:25:28Z</time>
      </trkpt>
      <trkpt lat="44.19439" lon="5.19415">
        <ele>1889.437</ele>
        <time>2020-09-03T12:25:29Z</time>
      </trkpt>
      <trkpt lat="44.19438" lon="5.194">
        <ele>1889.925</ele>
        <time>2020-09-03T12:25:30Z</time>
      </trkpt>
      <trkpt lat="44.19436" lon="5.19387">
        <ele>1890.186</ele>
        <time>2020-09-03T12:25:31Z</time>
      </trkpt>
      <trkpt lat="44.19435" lon="5.19374">
        <ele>1890.149</ele>
        <time>2020-09-03T12:25:32Z</time>
      </trkpt>
      <trkpt lat="44.19434" lon="5.19361">
        <ele>1890.116</ele>
        <time>2020-09-03T12:25:33Z</time>
      </trkpt>
      <trkpt lat="44.19432" lon="5.19349">
        <ele>1890.139</ele>
        <time>2020-09-03T12:25:34Z</time>
      </trkpt>
      <trkpt lat="44.19426" lon="5.19325">
        <ele>1890.269</ele>
        <time>2020-09-03T12:25:36Z</time>
      </trkpt>
      <trkpt lat="44.19423" lon="5.19314">
        <ele>1890.183</ele>
        <time>2020-09-03T12:25:37Z</time>
      </trkpt>
      <trkpt lat="44.19422" lon="5.19303">
        <ele>1889.66</ele>
        <time>2020-09-03T12:25:38Z</time>
      </trkpt>
      <trkpt lat="44.19422" lon="5.19292">
        <ele>1888.753</ele>
        <time>2020-09-03T12:25:39Z</time>
      </trkpt>
      <trkpt lat="44.19423" lon="5.1928">
        <ele>1887.972</ele>
        <time>2020-09-03T12:25:40Z</time>
      </trkpt>
      <trkpt lat="44.19425" lon="5.19268">
        <ele>1887.441</ele>
        <time>2020-09-03T12:25:41Z</time>
      </trkpt>
      <trkpt lat="44.19426" lon="5.19256">
        <ele>1887.974</ele>
        <time>2020-09-03T12:25:42Z</time>
      </trkpt>
      <trkpt lat="44.19428" lon="5.19244">
        <ele>1889.436</ele>
        <time>2020-09-03T12:25:43Z</time>
      </trkpt>
      <trkpt lat="44.19429" lon="5.19231">
        <ele>1891.688</ele>
        <time>2020-09-03T12:25:44Z</time>
      </trkpt>
      <trkpt lat="44.19428" lon="5.1922">
        <ele>1893.424</ele>
        <time>2020-09-03T12:25:45Z</time>
      </trkpt>
      <trkpt lat="44.19427" lon="5.19207">
        <ele>1895.001</ele>
        <time>2020-09-03T12:25:46Z</time>
      </trkpt>
      <trkpt lat="44.19425" lon="5.19193">
        <ele>1895.4</ele>
        <time>2020-09-03T12:25:47Z</time>
      </trkpt>
      <trkpt lat="44.19424" lon="5.1918">
        <ele>1894.809</ele>
        <time>2020-09-03T12:25:48Z</time>
      </trkpt>
      <trkpt lat="44.19424" lon="5.19165">
        <ele>1893.71</ele>
        <time>2020-09-03T12:25:49Z</time>
      </trkpt>
      <trkpt lat="44.19424" lon="5.19165">
        <ele>1892.388</ele>
        <time>2020-09-03T12:25:49Z</time>
      </trkpt>
      <trkpt lat="44.19424" lon="5.19165">
        <ele>1891.204</ele>
        <time>2020-09-03T12:25:49Z</time>
      </trkpt>
      <trkpt lat="44.19424" lon="5.19165">
        <ele>1889.119</ele>
        <time>2020-09-03T12:25:49Z</time>
      </trkpt>
      <trkpt lat="44.19424" lon="5.19165">
        <ele>1887.093</ele>
        <time>2020-09-03T12:25:49Z</time>
      </trkpt>
      <trkpt lat="44.19413" lon="5.19096">
        <ele>1885.202</ele>
        <time>2020-09-03T12:25:54Z</time>
      </trkpt>
      <trkpt lat="44.19409" lon="5.19082">
        <ele>1884.196</ele>
        <time>2020-09-03T12:25:55Z</time>
      </trkpt>
      <trkpt lat="44.19405" lon="5.19067">
        <ele>1883.753</ele>
        <time>2020-09-03T12:25:56Z</time>
      </trkpt>
      <trkpt lat="44.19401" lon="5.19053">
        <ele>1883.579</ele>
        <time>2020-09-03T12:25:57Z</time>
      </trkpt>
      <trkpt lat="44.19399" lon="5.1904">
        <ele>1882.814</ele>
        <time>2020-09-03T12:25:58Z</time>
      </trkpt>
      <trkpt lat="44.19401" lon="5.19016">
        <ele>1881.378</ele>
        <time>2020-09-03T12:26:00Z</time>
      </trkpt>
      <trkpt lat="44.19401" lon="5.19004">
        <ele>1877.69</ele>
        <time>2020-09-03T12:26:01Z</time>
      </trkpt>
      <trkpt lat="44.194" lon="5.1899">
        <ele>1873.644</ele>
        <time>2020-09-03T12:26:02Z</time>
      </trkpt>
      <trkpt lat="44.19398" lon="5.18973">
        <ele>1868.261</ele>
        <time>2020-09-03T12:26:03Z</time>
      </trkpt>
      <trkpt lat="44.19396" lon="5.18955">
        <ele>1863.612</ele>
        <time>2020-09-03T12:26:04Z</time>
      </trkpt>
      <trkpt lat="44.19395" lon="5.18937">
        <ele>1858.497</ele>
        <time>2020-09-03T12:26:05Z</time>
      </trkpt>
      <trkpt lat="44.19393" lon="5.18919">
        <ele>1854.13</ele>
        <time>2020-09-03T12:26:06Z</time>
      </trkpt>
      <trkpt lat="44.19389" lon="5.18886">
        <ele>1851.995</ele>
        <time>2020-09-03T12:26:08Z</time>
      </trkpt>
      <trkpt lat="44.19389" lon="5.18886">
        <ele>1849.859</ele>
        <time>2020-09-03T12:26:08Z</time>
      </trkpt>
      <trkpt lat="44.19386" lon="5.18854">
        <ele>1848.532</ele>
        <time>2020-09-03T12:26:10Z</time>
      </trkpt>
      <trkpt lat="44.19386" lon="5.18837">
        <ele>1847.854</ele>
        <time>2020-09-03T12:26:11Z</time>
      </trkpt>
      <trkpt lat="44.19387" lon="5.18823">
        <ele>1847.377</ele>
        <time>2020-09-03T12:26:12Z</time>
      </trkpt>
      <trkpt lat="44.1939" lon="5.18811">
        <ele>1846.726</ele>
        <time>2020-09-03T12:26:13Z</time>
      </trkpt>
      <trkpt lat="44.1939" lon="5.18811">
        <ele>1845.761</ele>
        <time>2020-09-03T12:26:13Z</time>
      </trkpt>
      <trkpt lat="44.19393" lon="5.18784">
        <ele>1844.148</ele>
        <time>2020-09-03T12:26:15Z</time>
      </trkpt>
      <trkpt lat="44.19395" lon="5.18767">
        <ele>1842.051</ele>
        <time>2020-09-03T12:26:16Z</time>
      </trkpt>
      <trkpt lat="44.19396" lon="5.18751">
        <ele>1840.417</ele>
        <time>2020-09-03T12:26:17Z</time>
      </trkpt>
      <trkpt lat="44.19396" lon="5.18735">
        <ele>1839.448</ele>
        <time>2020-09-03T12:26:18Z</time>
      </trkpt>
      <trkpt lat="44.19396" lon="5.18735">
        <ele>1839.236</ele>
        <time>2020-09-03T12:26:18Z</time>
      </trkpt>
      <trkpt lat="44.19396" lon="5.18705">
        <ele>1839.211</ele>
        <time>2020-09-03T12:26:20Z</time>
      </trkpt>
      <trkpt lat="44.19398" lon="5.1869">
        <ele>1839.331</ele>
        <time>2020-09-03T12:26:21Z</time>
      </trkpt>
      <trkpt lat="44.19399" lon="5.18676">
        <ele>1839.356</ele>
        <time>2020-09-03T12:26:22Z</time>
      </trkpt>
      <trkpt lat="44.194" lon="5.18662">
        <ele>1839.12</ele>
        <time>2020-09-03T12:26:23Z</time>
      </trkpt>
      <trkpt lat="44.19401" lon="5.18648">
        <ele>1838.289</ele>
        <time>2020-09-03T12:26:24Z</time>
      </trkpt>
      <trkpt lat="44.19402" lon="5.18632">
        <ele>1837.248</ele>
        <time>2020-09-03T12:26:25Z</time>
      </trkpt>
      <trkpt lat="44.19404" lon="5.18617">
        <ele>1836.036</ele>
        <time>2020-09-03T12:26:26Z</time>
      </trkpt>
      <trkpt lat="44.19406" lon="5.18601">
        <ele>1835.081</ele>
        <time>2020-09-03T12:26:27Z</time>
      </trkpt>
      <trkpt lat="44.19407" lon="5.18586">
        <ele>1834.195</ele>
        <time>2020-09-03T12:26:28Z</time>
      </trkpt>
      <trkpt lat="44.19408" lon="5.18571">
        <ele>1833.885</ele>
        <time>2020-09-03T12:26:29Z</time>
      </trkpt>
      <trkpt lat="44.19408" lon="5.18571">
        <ele>1833.73</ele>
        <time>2020-09-03T12:26:29Z</time>
      </trkpt>
      <trkpt lat="44.19411" lon="5.18529">
        <ele>1833.795</ele>
        <time>2020-09-03T12:26:32Z</time>
      </trkpt>
      <trkpt lat="44.19411" lon="5.18516">
        <ele>1833.973</ele>
        <time>2020-09-03T12:26:33Z</time>
      </trkpt>
      <trkpt lat="44.19412" lon="5.18503">
        <ele>1833.82</ele>
        <time>2020-09-03T12:26:34Z</time>
      </trkpt>
      <trkpt lat="44.19413" lon="5.18489">
        <ele>1833.357</ele>
        <time>2020-09-03T12:26:35Z</time>
      </trkpt>
      <trkpt lat="44.19414" lon="5.18474">
        <ele>1832.673</ele>
        <time>2020-09-03T12:26:36Z</time>
      </trkpt>
      <trkpt lat="44.19415" lon="5.18459">
        <ele>1832.136</ele>
        <time>2020-09-03T12:26:37Z</time>
      </trkpt>
      <trkpt lat="44.19416" lon="5.18445">
        <ele>1831.936</ele>
        <time>2020-09-03T12:26:38Z</time>
      </trkpt>
      <trkpt lat="44.19417" lon="5.18433">
        <ele>1831.842</ele>
        <time>2020-09-03T12:26:39Z</time>
      </trkpt>
      <trkpt lat="44.19418" lon="5.18422">
        <ele>1831.285</ele>
        <time>2020-09-03T12:26:40Z</time>
      </trkpt>
      <trkpt lat="44.1942" lon="5.18412">
        <ele>1830.101</ele>
        <time>2020-09-03T12:26:41Z</time>
      </trkpt>
      <trkpt lat="44.19422" lon="5.18402">
        <ele>1827.919</ele>
        <time>2020-09-03T12:26:42Z</time>
      </trkpt>
      <trkpt lat="44.19424" lon="5.18389">
        <ele>1824.97</ele>
        <time>2020-09-03T12:26:43Z</time>
      </trkpt>
      <trkpt lat="44.19426" lon="5.18376">
        <ele>1821.694</ele>
        <time>2020-09-03T12:26:44Z</time>
      </trkpt>
      <trkpt lat="44.19426" lon="5.18362">
        <ele>1818.265</ele>
        <time>2020-09-03T12:26:45Z</time>
      </trkpt>
      <trkpt lat="44.19424" lon="5.18348">
        <ele>1814.519</ele>
        <time>2020-09-03T12:26:46Z</time>
      </trkpt>
      <trkpt lat="44.19424" lon="5.18348">
        <ele>1811.639</ele>
        <time>2020-09-03T12:26:46Z</time>
      </trkpt>
      <trkpt lat="44.19419" lon="5.18318">
        <ele>1807.06</ele>
        <time>2020-09-03T12:26:48Z</time>
      </trkpt>
      <trkpt lat="44.19418" lon="5.18301">
        <ele>1800.605</ele>
        <time>2020-09-03T12:26:49Z</time>
      </trkpt>
      <trkpt lat="44.19419" lon="5.18268">
        <ele>1795.733</ele>
        <time>2020-09-03T12:26:51Z</time>
      </trkpt>
      <trkpt lat="44.19419" lon="5.18253">
        <ele>1791.089</ele>
        <time>2020-09-03T12:26:52Z</time>
      </trkpt>
      <trkpt lat="44.19419" lon="5.18239">
        <ele>1787.439</ele>
        <time>2020-09-03T12:26:53Z</time>
      </trkpt>
      <trkpt lat="44.19418" lon="5.18225">
        <ele>1784.198</ele>
        <time>2020-09-03T12:26:54Z</time>
      </trkpt>
      <trkpt lat="44.19419" lon="5.1821">
        <ele>1780.906</ele>
        <time>2020-09-03T12:26:55Z</time>
      </trkpt>
      <trkpt lat="44.19419" lon="5.18195">
        <ele>1777.673</ele>
        <time>2020-09-03T12:26:56Z</time>
      </trkpt>
      <trkpt lat="44.19419" lon="5.18179">
        <ele>1774.869</ele>
        <time>2020-09-03T12:26:57Z</time>
      </trkpt>
      <trkpt lat="44.19419" lon="5.18164">
        <ele>1771.911</ele>
        <time>2020-09-03T12:26:58Z</time>
      </trkpt>
      <trkpt lat="44.19419" lon="5.1815">
        <ele>1768.583</ele>
        <time>2020-09-03T12:26:59Z</time>
      </trkpt>
      <trkpt lat="44.19419" lon="5.1815">
        <ele>1765.004</ele>
        <time>2020-09-03T12:26:59Z</time>
      </trkpt>
      <trkpt lat="44.19418" lon="5.181">
        <ele>1761.464</ele>
        <time>2020-09-03T12:27:02Z</time>
      </trkpt>
      <trkpt lat="44.19418" lon="5.18083">
        <ele>1758.315</ele>
        <time>2020-09-03T12:27:03Z</time>
      </trkpt>
      <trkpt lat="44.19418" lon="5.18083">
        <ele>1756.118</ele>
        <time>2020-09-03T12:27:03Z</time>
      </trkpt>
      <trkpt lat="44.19421" lon="5.18051">
        <ele>1754.008</ele>
        <time>2020-09-03T12:27:05Z</time>
      </trkpt>
      <trkpt lat="44.19422" lon="5.18034">
        <ele>1752.557</ele>
        <time>2020-09-03T12:27:06Z</time>
      </trkpt>
      <trkpt lat="44.19422" lon="5.18018">
        <ele>1751.127</ele>
        <time>2020-09-03T12:27:07Z</time>
      </trkpt>
      <trkpt lat="44.19423" lon="5.18002">
        <ele>1749.956</ele>
        <time>2020-09-03T12:27:08Z</time>
      </trkpt>
      <trkpt lat="44.19423" lon="5.18002">
        <ele>1748.853</ele>
        <time>2020-09-03T12:27:08Z</time>
      </trkpt>
      <trkpt lat="44.19425" lon="5.17968">
        <ele>1747.745</ele>
        <time>2020-09-03T12:27:10Z</time>
      </trkpt>
      <trkpt lat="44.19426" lon="5.17952">
        <ele>1746.605</ele>
        <time>2020-09-03T12:27:11Z</time>
      </trkpt>
      <trkpt lat="44.19427" lon="5.17936">
        <ele>1745.582</ele>
        <time>2020-09-03T12:27:12Z</time>
      </trkpt>
      <trkpt lat="44.19428" lon="5.1792">
        <ele>1744.066</ele>
        <time>2020-09-03T12:27:13Z</time>
      </trkpt>
      <trkpt lat="44.19428" lon="5.1792">
        <ele>1741.882</ele>
        <time>2020-09-03T12:27:13Z</time>
      </trkpt>
      <trkpt lat="44.1943" lon="5.17888">
        <ele>1740.256</ele>
        <time>2020-09-03T12:27:15Z</time>
      </trkpt>
      <trkpt lat="44.1943" lon="5.17871">
        <ele>1737.017</ele>
        <time>2020-09-03T12:27:16Z</time>
      </trkpt>
      <trkpt lat="44.19429" lon="5.17854">
        <ele>1734.685</ele>
        <time>2020-09-03T12:27:17Z</time>
      </trkpt>
      <trkpt lat="44.19429" lon="5.17838">
        <ele>1732.514</ele>
        <time>2020-09-03T12:27:18Z</time>
      </trkpt>
      <trkpt lat="44.1943" lon="5.17821">
        <ele>1731.083</ele>
        <time>2020-09-03T12:27:19Z</time>
      </trkpt>
      <trkpt lat="44.1943" lon="5.17805">
        <ele>1729.513</ele>
        <time>2020-09-03T12:27:20Z</time>
      </trkpt>
      <trkpt lat="44.19431" lon="5.17788">
        <ele>1727.83</ele>
        <time>2020-09-03T12:27:21Z</time>
      </trkpt>
      <trkpt lat="44.19432" lon="5.1777">
        <ele>1726.129</ele>
        <time>2020-09-03T12:27:22Z</time>
      </trkpt>
      <trkpt lat="44.19432" lon="5.1777">
        <ele>1724.751</ele>
        <time>2020-09-03T12:27:22Z</time>
      </trkpt>
      <trkpt lat="44.19436" lon="5.17713">
        <ele>1723.989</ele>
        <time>2020-09-03T12:27:25Z</time>
      </trkpt>
      <trkpt lat="44.19438" lon="5.17695">
        <ele>1723.967</ele>
        <time>2020-09-03T12:27:26Z</time>
      </trkpt>
      <trkpt lat="44.19439" lon="5.17678">
        <ele>1724.552</ele>
        <time>2020-09-03T12:27:27Z</time>
      </trkpt>
      <trkpt lat="44.19442" lon="5.17663">
        <ele>1725.213</ele>
        <time>2020-09-03T12:27:28Z</time>
      </trkpt>
      <trkpt lat="44.19442" lon="5.17663">
        <ele>1725.946</ele>
        <time>2020-09-03T12:27:28Z</time>
      </trkpt>
      <trkpt lat="44.19448" lon="5.17635">
        <ele>1726.424</ele>
        <time>2020-09-03T12:27:30Z</time>
      </trkpt>
      <trkpt lat="44.1945" lon="5.17621">
        <ele>1726.644</ele>
        <time>2020-09-03T12:27:31Z</time>
      </trkpt>
      <trkpt lat="44.19451" lon="5.17608">
        <ele>1726.51</ele>
        <time>2020-09-03T12:27:32Z</time>
      </trkpt>
      <trkpt lat="44.1945" lon="5.17595">
        <ele>1725.859</ele>
        <time>2020-09-03T12:27:33Z</time>
      </trkpt>
      <trkpt lat="44.19449" lon="5.17581">
        <ele>1724.915</ele>
        <time>2020-09-03T12:27:34Z</time>
      </trkpt>
      <trkpt lat="44.19447" lon="5.17567">
        <ele>1723.521</ele>
        <time>2020-09-03T12:27:35Z</time>
      </trkpt>
      <trkpt lat="44.19445" lon="5.17552">
        <ele>1722.271</ele>
        <time>2020-09-03T12:27:36Z</time>
      </trkpt>
      <trkpt lat="44.19444" lon="5.17537">
        <ele>1721.337</ele>
        <time>2020-09-03T12:27:37Z</time>
      </trkpt>
      <trkpt lat="44.19442" lon="5.17523">
        <ele>1720.518</ele>
        <time>2020-09-03T12:27:38Z</time>
      </trkpt>
      <trkpt lat="44.19439" lon="5.17511">
        <ele>1719.699</ele>
        <time>2020-09-03T12:27:39Z</time>
      </trkpt>
      <trkpt lat="44.19436" lon="5.17498">
        <ele>1718.665</ele>
        <time>2020-09-03T12:27:40Z</time>
      </trkpt>
      <trkpt lat="44.19434" lon="5.17483">
        <ele>1716.595</ele>
        <time>2020-09-03T12:27:41Z</time>
      </trkpt>
      <trkpt lat="44.19433" lon="5.17467">
        <ele>1714.26</ele>
        <time>2020-09-03T12:27:42Z</time>
      </trkpt>
      <trkpt lat="44.19433" lon="5.17467">
        <ele>1712.259</ele>
        <time>2020-09-03T12:27:42Z</time>
      </trkpt>
      <trkpt lat="44.19432" lon="5.17432">
        <ele>1709.307</ele>
        <time>2020-09-03T12:27:44Z</time>
      </trkpt>
      <trkpt lat="44.19431" lon="5.17414">
        <ele>1707.637</ele>
        <time>2020-09-03T12:27:45Z</time>
      </trkpt>
      <trkpt lat="44.1943" lon="5.17398">
        <ele>1706.82</ele>
        <time>2020-09-03T12:27:46Z</time>
      </trkpt>
      <trkpt lat="44.1943" lon="5.17398">
        <ele>1706.877</ele>
        <time>2020-09-03T12:27:46Z</time>
      </trkpt>
      <trkpt lat="44.19427" lon="5.1737">
        <ele>1707.182</ele>
        <time>2020-09-03T12:27:48Z</time>
      </trkpt>
      <trkpt lat="44.19424" lon="5.17343">
        <ele>1707.154</ele>
        <time>2020-09-03T12:27:50Z</time>
      </trkpt>
      <trkpt lat="44.19423" lon="5.17329">
        <ele>1706.401</ele>
        <time>2020-09-03T12:27:51Z</time>
      </trkpt>
      <trkpt lat="44.19422" lon="5.17315">
        <ele>1705.12</ele>
        <time>2020-09-03T12:27:52Z</time>
      </trkpt>
      <trkpt lat="44.1942" lon="5.17299">
        <ele>1703.473</ele>
        <time>2020-09-03T12:27:53Z</time>
      </trkpt>
      <trkpt lat="44.19419" lon="5.17282">
        <ele>1702.306</ele>
        <time>2020-09-03T12:27:54Z</time>
      </trkpt>
      <trkpt lat="44.19418" lon="5.17265">
        <ele>1701.761</ele>
        <time>2020-09-03T12:27:55Z</time>
      </trkpt>
      <trkpt lat="44.19418" lon="5.1725">
        <ele>1701.896</ele>
        <time>2020-09-03T12:27:56Z</time>
      </trkpt>
      <trkpt lat="44.19419" lon="5.17235">
        <ele>1702.356</ele>
        <time>2020-09-03T12:27:57Z</time>
      </trkpt>
      <trkpt lat="44.19418" lon="5.17222">
        <ele>1702.604</ele>
        <time>2020-09-03T12:27:58Z</time>
      </trkpt>
      <trkpt lat="44.19418" lon="5.17208">
        <ele>1702.431</ele>
        <time>2020-09-03T12:27:59Z</time>
      </trkpt>
      <trkpt lat="44.19417" lon="5.17193">
        <ele>1701.783</ele>
        <time>2020-09-03T12:28:00Z</time>
      </trkpt>
      <trkpt lat="44.19415" lon="5.17178">
        <ele>1701.035</ele>
        <time>2020-09-03T12:28:01Z</time>
      </trkpt>
      <trkpt lat="44.19414" lon="5.17163">
        <ele>1700.431</ele>
        <time>2020-09-03T12:28:02Z</time>
      </trkpt>
      <trkpt lat="44.19413" lon="5.17148">
        <ele>1699.73</ele>
        <time>2020-09-03T12:28:03Z</time>
      </trkpt>
      <trkpt lat="44.1941" lon="5.17135">
        <ele>1698.989</ele>
        <time>2020-09-03T12:28:04Z</time>
      </trkpt>
      <trkpt lat="44.19407" lon="5.17121">
        <ele>1697.827</ele>
        <time>2020-09-03T12:28:05Z</time>
      </trkpt>
      <trkpt lat="44.19405" lon="5.17106">
        <ele>1696.218</ele>
        <time>2020-09-03T12:28:06Z</time>
      </trkpt>
      <trkpt lat="44.19404" lon="5.1709">
        <ele>1694.356</ele>
        <time>2020-09-03T12:28:07Z</time>
      </trkpt>
      <trkpt lat="44.19404" lon="5.1709">
        <ele>1693.441</ele>
        <time>2020-09-03T12:28:07Z</time>
      </trkpt>
      <trkpt lat="44.19404" lon="5.17043">
        <ele>1693.072</ele>
        <time>2020-09-03T12:28:10Z</time>
      </trkpt>
      <trkpt lat="44.19404" lon="5.17029">
        <ele>1692.874</ele>
        <time>2020-09-03T12:28:11Z</time>
      </trkpt>
      <trkpt lat="44.19404" lon="5.17014">
        <ele>1691.942</ele>
        <time>2020-09-03T12:28:12Z</time>
      </trkpt>
      <trkpt lat="44.19404" lon="5.16999">
        <ele>1690.551</ele>
        <time>2020-09-03T12:28:13Z</time>
      </trkpt>
      <trkpt lat="44.19404" lon="5.16982">
        <ele>1688.914</ele>
        <time>2020-09-03T12:28:14Z</time>
      </trkpt>
      <trkpt lat="44.19403" lon="5.16966">
        <ele>1687.575</ele>
        <time>2020-09-03T12:28:15Z</time>
      </trkpt>
      <trkpt lat="44.19402" lon="5.16951">
        <ele>1686.752</ele>
        <time>2020-09-03T12:28:16Z</time>
      </trkpt>
      <trkpt lat="44.19402" lon="5.16951">
        <ele>1686.365</ele>
        <time>2020-09-03T12:28:16Z</time>
      </trkpt>
      <trkpt lat="44.19401" lon="5.16923">
        <ele>1685.739</ele>
        <time>2020-09-03T12:28:18Z</time>
      </trkpt>
      <trkpt lat="44.194" lon="5.16908">
        <ele>1684.64</ele>
        <time>2020-09-03T12:28:19Z</time>
      </trkpt>
      <trkpt lat="44.194" lon="5.16894">
        <ele>1683.603</ele>
        <time>2020-09-03T12:28:20Z</time>
      </trkpt>
      <trkpt lat="44.194" lon="5.1688">
        <ele>1682.496</ele>
        <time>2020-09-03T12:28:21Z</time>
      </trkpt>
      <trkpt lat="44.19399" lon="5.16866">
        <ele>1681.306</ele>
        <time>2020-09-03T12:28:22Z</time>
      </trkpt>
      <trkpt lat="44.19399" lon="5.16866">
        <ele>1680.047</ele>
        <time>2020-09-03T12:28:22Z</time>
      </trkpt>
      <trkpt lat="44.19401" lon="5.16839">
        <ele>1678.602</ele>
        <time>2020-09-03T12:28:24Z</time>
      </trkpt>
      <trkpt lat="44.19402" lon="5.16825">
        <ele>1677.257</ele>
        <time>2020-09-03T12:28:25Z</time>
      </trkpt>
      <trkpt lat="44.19402" lon="5.16825">
        <ele>1676.202</ele>
        <time>2020-09-03T12:28:25Z</time>
      </trkpt>
      <trkpt lat="44.19402" lon="5.16825">
        <ele>1675.464</ele>
        <time>2020-09-03T12:28:25Z</time>
      </trkpt>
      <trkpt lat="44.19402" lon="5.16825">
        <ele>1674.941</ele>
        <time>2020-09-03T12:28:25Z</time>
      </trkpt>
      <trkpt lat="44.19405" lon="5.16774">
        <ele>1674.439</ele>
        <time>2020-09-03T12:28:29Z</time>
      </trkpt>
      <trkpt lat="44.19405" lon="5.16774">
        <ele>1674.176</ele>
        <time>2020-09-03T12:28:29Z</time>
      </trkpt>
      <trkpt lat="44.19408" lon="5.16738">
        <ele>1674.055</ele>
        <time>2020-09-03T12:28:32Z</time>
      </trkpt>
      <trkpt lat="44.1941" lon="5.16726">
        <ele>1673.84</ele>
        <time>2020-09-03T12:28:33Z</time>
      </trkpt>
      <trkpt lat="44.1941" lon="5.16726">
        <ele>1673.242</ele>
        <time>2020-09-03T12:28:33Z</time>
      </trkpt>
      <trkpt lat="44.19413" lon="5.16703">
        <ele>1672.368</ele>
        <time>2020-09-03T12:28:35Z</time>
      </trkpt>
      <trkpt lat="44.19414" lon="5.1669">
        <ele>1671.12</ele>
        <time>2020-09-03T12:28:36Z</time>
      </trkpt>
      <trkpt lat="44.19414" lon="5.16677">
        <ele>1669.574</ele>
        <time>2020-09-03T12:28:37Z</time>
      </trkpt>
      <trkpt lat="44.19413" lon="5.16663">
        <ele>1668.44</ele>
        <time>2020-09-03T12:28:38Z</time>
      </trkpt>
      <trkpt lat="44.19413" lon="5.1665">
        <ele>1668.039</ele>
        <time>2020-09-03T12:28:39Z</time>
      </trkpt>
      <trkpt lat="44.19413" lon="5.16637">
        <ele>1667.468</ele>
        <time>2020-09-03T12:28:40Z</time>
      </trkpt>
      <trkpt lat="44.19414" lon="5.16624">
        <ele>1666.734</ele>
        <time>2020-09-03T12:28:41Z</time>
      </trkpt>
      <trkpt lat="44.19416" lon="5.16598">
        <ele>1665.646</ele>
        <time>2020-09-03T12:28:43Z</time>
      </trkpt>
      <trkpt lat="44.19416" lon="5.16598">
        <ele>1664.615</ele>
        <time>2020-09-03T12:28:43Z</time>
      </trkpt>
      <trkpt lat="44.1942" lon="5.16571">
        <ele>1663.499</ele>
        <time>2020-09-03T12:28:45Z</time>
      </trkpt>
      <trkpt lat="44.19423" lon="5.16557">
        <ele>1662.559</ele>
        <time>2020-09-03T12:28:46Z</time>
      </trkpt>
      <trkpt lat="44.19425" lon="5.16545">
        <ele>1661.627</ele>
        <time>2020-09-03T12:28:47Z</time>
      </trkpt>
      <trkpt lat="44.19427" lon="5.16532">
        <ele>1660.519</ele>
        <time>2020-09-03T12:28:48Z</time>
      </trkpt>
      <trkpt lat="44.19427" lon="5.16532">
        <ele>1659.121</ele>
        <time>2020-09-03T12:28:48Z</time>
      </trkpt>
      <trkpt lat="44.19427" lon="5.16505">
        <ele>1657.566</ele>
        <time>2020-09-03T12:28:50Z</time>
      </trkpt>
      <trkpt lat="44.19427" lon="5.1649">
        <ele>1655.548</ele>
        <time>2020-09-03T12:28:51Z</time>
      </trkpt>
      <trkpt lat="44.19426" lon="5.16474">
        <ele>1653.924</ele>
        <time>2020-09-03T12:28:52Z</time>
      </trkpt>
      <trkpt lat="44.19425" lon="5.16459">
        <ele>1652.758</ele>
        <time>2020-09-03T12:28:53Z</time>
      </trkpt>
      <trkpt lat="44.19425" lon="5.16444">
        <ele>1652.143</ele>
        <time>2020-09-03T12:28:54Z</time>
      </trkpt>
      <trkpt lat="44.19426" lon="5.1643">
        <ele>1651.844</ele>
        <time>2020-09-03T12:28:55Z</time>
      </trkpt>
      <trkpt lat="44.19427" lon="5.16416">
        <ele>1651.66</ele>
        <time>2020-09-03T12:28:56Z</time>
      </trkpt>
      <trkpt lat="44.19428" lon="5.16403">
        <ele>1651.242</ele>
        <time>2020-09-03T12:28:57Z</time>
      </trkpt>
      <trkpt lat="44.19429" lon="5.16389">
        <ele>1650.439</ele>
        <time>2020-09-03T12:28:58Z</time>
      </trkpt>
      <trkpt lat="44.1943" lon="5.16375">
        <ele>1649.336</ele>
        <time>2020-09-03T12:28:59Z</time>
      </trkpt>
      <trkpt lat="44.19431" lon="5.16361">
        <ele>1648.116</ele>
        <time>2020-09-03T12:29:00Z</time>
      </trkpt>
      <trkpt lat="44.19432" lon="5.16346">
        <ele>1647.133</ele>
        <time>2020-09-03T12:29:01Z</time>
      </trkpt>
      <trkpt lat="44.19433" lon="5.16332">
        <ele>1646.452</ele>
        <time>2020-09-03T12:29:02Z</time>
      </trkpt>
      <trkpt lat="44.19434" lon="5.16318">
        <ele>1645.968</ele>
        <time>2020-09-03T12:29:03Z</time>
      </trkpt>
      <trkpt lat="44.19434" lon="5.16291">
        <ele>1645.505</ele>
        <time>2020-09-03T12:29:05Z</time>
      </trkpt>
      <trkpt lat="44.19434" lon="5.16277">
        <ele>1644.962</ele>
        <time>2020-09-03T12:29:06Z</time>
      </trkpt>
      <trkpt lat="44.19435" lon="5.16263">
        <ele>1644.538</ele>
        <time>2020-09-03T12:29:07Z</time>
      </trkpt>
      <trkpt lat="44.19436" lon="5.16249">
        <ele>1643.821</ele>
        <time>2020-09-03T12:29:08Z</time>
      </trkpt>
      <trkpt lat="44.19438" lon="5.16235">
        <ele>1643.075</ele>
        <time>2020-09-03T12:29:09Z</time>
      </trkpt>
      <trkpt lat="44.19439" lon="5.16221">
        <ele>1642.546</ele>
        <time>2020-09-03T12:29:10Z</time>
      </trkpt>
      <trkpt lat="44.1944" lon="5.16209">
        <ele>1641.868</ele>
        <time>2020-09-03T12:29:11Z</time>
      </trkpt>
      <trkpt lat="44.19441" lon="5.16196">
        <ele>1641.012</ele>
        <time>2020-09-03T12:29:12Z</time>
      </trkpt>
      <trkpt lat="44.19443" lon="5.16182">
        <ele>1639.62</ele>
        <time>2020-09-03T12:29:13Z</time>
      </trkpt>
      <trkpt lat="44.19444" lon="5.16168">
        <ele>1638.097</ele>
        <time>2020-09-03T12:29:14Z</time>
      </trkpt>
      <trkpt lat="44.19446" lon="5.16153">
        <ele>1636.489</ele>
        <time>2020-09-03T12:29:15Z</time>
      </trkpt>
      <trkpt lat="44.19447" lon="5.16138">
        <ele>1634.886</ele>
        <time>2020-09-03T12:29:16Z</time>
      </trkpt>
      <trkpt lat="44.19448" lon="5.16124">
        <ele>1633.458</ele>
        <time>2020-09-03T12:29:17Z</time>
      </trkpt>
      <trkpt lat="44.19449" lon="5.1611">
        <ele>1631.783</ele>
        <time>2020-09-03T12:29:18Z</time>
      </trkpt>
      <trkpt lat="44.1945" lon="5.16095">
        <ele>1630.317</ele>
        <time>2020-09-03T12:29:19Z</time>
      </trkpt>
      <trkpt lat="44.19451" lon="5.1608">
        <ele>1628.669</ele>
        <time>2020-09-03T12:29:20Z</time>
      </trkpt>
      <trkpt lat="44.19453" lon="5.16065">
        <ele>1627.481</ele>
        <time>2020-09-03T12:29:21Z</time>
      </trkpt>
      <trkpt lat="44.19454" lon="5.1605">
        <ele>1626.56</ele>
        <time>2020-09-03T12:29:22Z</time>
      </trkpt>
      <trkpt lat="44.19456" lon="5.16036">
        <ele>1625.702</ele>
        <time>2020-09-03T12:29:23Z</time>
      </trkpt>
      <trkpt lat="44.19458" lon="5.16023">
        <ele>1624.914</ele>
        <time>2020-09-03T12:29:24Z</time>
      </trkpt>
      <trkpt lat="44.1946" lon="5.1601">
        <ele>1624.213</ele>
        <time>2020-09-03T12:29:25Z</time>
      </trkpt>
      <trkpt lat="44.19462" lon="5.15997">
        <ele>1623.583</ele>
        <time>2020-09-03T12:29:26Z</time>
      </trkpt>
      <trkpt lat="44.19466" lon="5.15972">
        <ele>1622.723</ele>
        <time>2020-09-03T12:29:28Z</time>
      </trkpt>
      <trkpt lat="44.19466" lon="5.15972">
        <ele>1621.707</ele>
        <time>2020-09-03T12:29:28Z</time>
      </trkpt>
      <trkpt lat="44.19471" lon="5.15945">
        <ele>1620.34</ele>
        <time>2020-09-03T12:29:30Z</time>
      </trkpt>
      <trkpt lat="44.19472" lon="5.15931">
        <ele>1619.364</ele>
        <time>2020-09-03T12:29:31Z</time>
      </trkpt>
      <trkpt lat="44.19474" lon="5.15918">
        <ele>1618.59</ele>
        <time>2020-09-03T12:29:32Z</time>
      </trkpt>
      <trkpt lat="44.19476" lon="5.15905">
        <ele>1618.035</ele>
        <time>2020-09-03T12:29:33Z</time>
      </trkpt>
      <trkpt lat="44.19479" lon="5.15893">
        <ele>1617.495</ele>
        <time>2020-09-03T12:29:34Z</time>
      </trkpt>
      <trkpt lat="44.19484" lon="5.15882">
        <ele>1616.896</ele>
        <time>2020-09-03T12:29:35Z</time>
      </trkpt>
      <trkpt lat="44.19488" lon="5.15869">
        <ele>1615.678</ele>
        <time>2020-09-03T12:29:36Z</time>
      </trkpt>
      <trkpt lat="44.19491" lon="5.15856">
        <ele>1613.943</ele>
        <time>2020-09-03T12:29:37Z</time>
      </trkpt>
      <trkpt lat="44.19493" lon="5.15842">
        <ele>1612.33</ele>
        <time>2020-09-03T12:29:38Z</time>
      </trkpt>
      <trkpt lat="44.19495" lon="5.15828">
        <ele>1611.122</ele>
        <time>2020-09-03T12:29:39Z</time>
      </trkpt>
      <trkpt lat="44.19496" lon="5.15813">
        <ele>1610.055</ele>
        <time>2020-09-03T12:29:40Z</time>
      </trkpt>
      <trkpt lat="44.19498" lon="5.15798">
        <ele>1609.353</ele>
        <time>2020-09-03T12:29:41Z</time>
      </trkpt>
      <trkpt lat="44.195" lon="5.15783">
        <ele>1608.805</ele>
        <time>2020-09-03T12:29:42Z</time>
      </trkpt>
      <trkpt lat="44.19501" lon="5.15767">
        <ele>1608.352</ele>
        <time>2020-09-03T12:29:43Z</time>
      </trkpt>
      <trkpt lat="44.19502" lon="5.15752">
        <ele>1607.94</ele>
        <time>2020-09-03T12:29:44Z</time>
      </trkpt>
      <trkpt lat="44.19503" lon="5.15737">
        <ele>1607.584</ele>
        <time>2020-09-03T12:29:45Z</time>
      </trkpt>
      <trkpt lat="44.19505" lon="5.15722">
        <ele>1607.121</ele>
        <time>2020-09-03T12:29:46Z</time>
      </trkpt>
      <trkpt lat="44.19507" lon="5.15708">
        <ele>1606.714</ele>
        <time>2020-09-03T12:29:47Z</time>
      </trkpt>
      <trkpt lat="44.19509" lon="5.15693">
        <ele>1606.4</ele>
        <time>2020-09-03T12:29:48Z</time>
      </trkpt>
      <trkpt lat="44.1951" lon="5.15679">
        <ele>1606.506</ele>
        <time>2020-09-03T12:29:49Z</time>
      </trkpt>
      <trkpt lat="44.19512" lon="5.15665">
        <ele>1606.705</ele>
        <time>2020-09-03T12:29:50Z</time>
      </trkpt>
      <trkpt lat="44.19513" lon="5.15638">
        <ele>1606.63</ele>
        <time>2020-09-03T12:29:52Z</time>
      </trkpt>
      <trkpt lat="44.19514" lon="5.15623">
        <ele>1606.169</ele>
        <time>2020-09-03T12:29:53Z</time>
      </trkpt>
      <trkpt lat="44.19514" lon="5.15608">
        <ele>1605.049</ele>
        <time>2020-09-03T12:29:54Z</time>
      </trkpt>
      <trkpt lat="44.19514" lon="5.15592">
        <ele>1603.706</ele>
        <time>2020-09-03T12:29:55Z</time>
      </trkpt>
      <trkpt lat="44.19514" lon="5.15577">
        <ele>1602.665</ele>
        <time>2020-09-03T12:29:56Z</time>
      </trkpt>
      <trkpt lat="44.19514" lon="5.15561">
        <ele>1601.965</ele>
        <time>2020-09-03T12:29:57Z</time>
      </trkpt>
      <trkpt lat="44.19514" lon="5.15547">
        <ele>1601.794</ele>
        <time>2020-09-03T12:29:58Z</time>
      </trkpt>
      <trkpt lat="44.19515" lon="5.15533">
        <ele>1601.734</ele>
        <time>2020-09-03T12:29:59Z</time>
      </trkpt>
      <trkpt lat="44.19516" lon="5.1552">
        <ele>1601.302</ele>
        <time>2020-09-03T12:30:00Z</time>
      </trkpt>
      <trkpt lat="44.19518" lon="5.15506">
        <ele>1600.581</ele>
        <time>2020-09-03T12:30:01Z</time>
      </trkpt>
      <trkpt lat="44.19522" lon="5.15478">
        <ele>1600.197</ele>
        <time>2020-09-03T12:30:03Z</time>
      </trkpt>
      <trkpt lat="44.19522" lon="5.15478">
        <ele>1600.032</ele>
        <time>2020-09-03T12:30:03Z</time>
      </trkpt>
      <trkpt lat="44.19526" lon="5.15451">
        <ele>1600.417</ele>
        <time>2020-09-03T12:30:05Z</time>
      </trkpt>
      <trkpt lat="44.19529" lon="5.1544">
        <ele>1600.867</ele>
        <time>2020-09-03T12:30:06Z</time>
      </trkpt>
      <trkpt lat="44.19532" lon="5.15429">
        <ele>1601.083</ele>
        <time>2020-09-03T12:30:07Z</time>
      </trkpt>
      <trkpt lat="44.19536" lon="5.15418">
        <ele>1600.79</ele>
        <time>2020-09-03T12:30:08Z</time>
      </trkpt>
      <trkpt lat="44.19536" lon="5.15418">
        <ele>1600.042</ele>
        <time>2020-09-03T12:30:08Z</time>
      </trkpt>
      <trkpt lat="44.19542" lon="5.15395">
        <ele>1599.018</ele>
        <time>2020-09-03T12:30:10Z</time>
      </trkpt>
      <trkpt lat="44.19544" lon="5.15383">
        <ele>1597.769</ele>
        <time>2020-09-03T12:30:11Z</time>
      </trkpt>
      <trkpt lat="44.19546" lon="5.1537">
        <ele>1596.513</ele>
        <time>2020-09-03T12:30:12Z</time>
      </trkpt>
      <trkpt lat="44.19548" lon="5.15357">
        <ele>1595.508</ele>
        <time>2020-09-03T12:30:13Z</time>
      </trkpt>
      <trkpt lat="44.19551" lon="5.15344">
        <ele>1594.712</ele>
        <time>2020-09-03T12:30:14Z</time>
      </trkpt>
      <trkpt lat="44.19553" lon="5.15332">
        <ele>1594.513</ele>
        <time>2020-09-03T12:30:15Z</time>
      </trkpt>
      <trkpt lat="44.19555" lon="5.1532">
        <ele>1594.337</ele>
        <time>2020-09-03T12:30:16Z</time>
      </trkpt>
      <trkpt lat="44.19556" lon="5.15309">
        <ele>1593.886</ele>
        <time>2020-09-03T12:30:17Z</time>
      </trkpt>
      <trkpt lat="44.19558" lon="5.15296">
        <ele>1592.938</ele>
        <time>2020-09-03T12:30:18Z</time>
      </trkpt>
      <trkpt lat="44.19559" lon="5.15282">
        <ele>1591.366</ele>
        <time>2020-09-03T12:30:19Z</time>
      </trkpt>
      <trkpt lat="44.19561" lon="5.15267">
        <ele>1590.375</ele>
        <time>2020-09-03T12:30:20Z</time>
      </trkpt>
      <trkpt lat="44.19564" lon="5.15241">
        <ele>1590.031</ele>
        <time>2020-09-03T12:30:22Z</time>
      </trkpt>
      <trkpt lat="44.19564" lon="5.1523">
        <ele>1589.831</ele>
        <time>2020-09-03T12:30:23Z</time>
      </trkpt>
      <trkpt lat="44.19564" lon="5.1523">
        <ele>1589.482</ele>
        <time>2020-09-03T12:30:23Z</time>
      </trkpt>
      <trkpt lat="44.19566" lon="5.15206">
        <ele>1588.819</ele>
        <time>2020-09-03T12:30:25Z</time>
      </trkpt>
      <trkpt lat="44.19568" lon="5.15194">
        <ele>1587.931</ele>
        <time>2020-09-03T12:30:26Z</time>
      </trkpt>
      <trkpt lat="44.1957" lon="5.15181">
        <ele>1587.227</ele>
        <time>2020-09-03T12:30:27Z</time>
      </trkpt>
      <trkpt lat="44.19572" lon="5.15168">
        <ele>1586.495</ele>
        <time>2020-09-03T12:30:28Z</time>
      </trkpt>
      <trkpt lat="44.19573" lon="5.15154">
        <ele>1585.892</ele>
        <time>2020-09-03T12:30:29Z</time>
      </trkpt>
      <trkpt lat="44.19574" lon="5.1514">
        <ele>1585.699</ele>
        <time>2020-09-03T12:30:30Z</time>
      </trkpt>
      <trkpt lat="44.19574" lon="5.15127">
        <ele>1585.69</ele>
        <time>2020-09-03T12:30:31Z</time>
      </trkpt>
      <trkpt lat="44.19573" lon="5.15113">
        <ele>1585.947</ele>
        <time>2020-09-03T12:30:32Z</time>
      </trkpt>
      <trkpt lat="44.19572" lon="5.151">
        <ele>1586.38</ele>
        <time>2020-09-03T12:30:33Z</time>
      </trkpt>
      <trkpt lat="44.19573" lon="5.15086">
        <ele>1586.828</ele>
        <time>2020-09-03T12:30:34Z</time>
      </trkpt>
      <trkpt lat="44.19574" lon="5.15072">
        <ele>1587.094</ele>
        <time>2020-09-03T12:30:35Z</time>
      </trkpt>
      <trkpt lat="44.19575" lon="5.15057">
        <ele>1587.156</ele>
        <time>2020-09-03T12:30:36Z</time>
      </trkpt>
      <trkpt lat="44.19575" lon="5.15043">
        <ele>1586.98</ele>
        <time>2020-09-03T12:30:37Z</time>
      </trkpt>
      <trkpt lat="44.19575" lon="5.15028">
        <ele>1586.637</ele>
        <time>2020-09-03T12:30:38Z</time>
      </trkpt>
      <trkpt lat="44.19575" lon="5.15012">
        <ele>1586.001</ele>
        <time>2020-09-03T12:30:39Z</time>
      </trkpt>
      <trkpt lat="44.19576" lon="5.14996">
        <ele>1585.404</ele>
        <time>2020-09-03T12:30:40Z</time>
      </trkpt>
      <trkpt lat="44.19576" lon="5.1498">
        <ele>1584.933</ele>
        <time>2020-09-03T12:30:41Z</time>
      </trkpt>
      <trkpt lat="44.19576" lon="5.14965">
        <ele>1585.019</ele>
        <time>2020-09-03T12:30:42Z</time>
      </trkpt>
      <trkpt lat="44.19576" lon="5.14949">
        <ele>1585.479</ele>
        <time>2020-09-03T12:30:43Z</time>
      </trkpt>
      <trkpt lat="44.19578" lon="5.14919">
        <ele>1586.063</ele>
        <time>2020-09-03T12:30:45Z</time>
      </trkpt>
      <trkpt lat="44.19579" lon="5.14905">
        <ele>1586.745</ele>
        <time>2020-09-03T12:30:46Z</time>
      </trkpt>
      <trkpt lat="44.1958" lon="5.14891">
        <ele>1587.276</ele>
        <time>2020-09-03T12:30:47Z</time>
      </trkpt>
      <trkpt lat="44.19581" lon="5.14877">
        <ele>1587.639</ele>
        <time>2020-09-03T12:30:48Z</time>
      </trkpt>
      <trkpt lat="44.1958" lon="5.14863">
        <ele>1587.573</ele>
        <time>2020-09-03T12:30:49Z</time>
      </trkpt>
      <trkpt lat="44.1958" lon="5.14849">
        <ele>1587.136</ele>
        <time>2020-09-03T12:30:50Z</time>
      </trkpt>
      <trkpt lat="44.1958" lon="5.14834">
        <ele>1586.513</ele>
        <time>2020-09-03T12:30:51Z</time>
      </trkpt>
      <trkpt lat="44.1958" lon="5.14819">
        <ele>1585.666</ele>
        <time>2020-09-03T12:30:52Z</time>
      </trkpt>
      <trkpt lat="44.19581" lon="5.14804">
        <ele>1585.022</ele>
        <time>2020-09-03T12:30:53Z</time>
      </trkpt>
      <trkpt lat="44.1958" lon="5.14789">
        <ele>1584.271</ele>
        <time>2020-09-03T12:30:54Z</time>
      </trkpt>
      <trkpt lat="44.1958" lon="5.14774">
        <ele>1583.585</ele>
        <time>2020-09-03T12:30:55Z</time>
      </trkpt>
      <trkpt lat="44.1958" lon="5.14758">
        <ele>1583.042</ele>
        <time>2020-09-03T12:30:56Z</time>
      </trkpt>
      <trkpt lat="44.1958" lon="5.14758">
        <ele>1582.583</ele>
        <time>2020-09-03T12:30:56Z</time>
      </trkpt>
      <trkpt lat="44.1958" lon="5.14758">
        <ele>1582.111</ele>
        <time>2020-09-03T12:30:56Z</time>
      </trkpt>
      <trkpt lat="44.19582" lon="5.14714">
        <ele>1581.014</ele>
        <time>2020-09-03T12:30:59Z</time>
      </trkpt>
      <trkpt lat="44.19582" lon="5.14714">
        <ele>1579.545</ele>
        <time>2020-09-03T12:30:59Z</time>
      </trkpt>
      <trkpt lat="44.19582" lon="5.14714">
        <ele>1577.911</ele>
        <time>2020-09-03T12:30:59Z</time>
      </trkpt>
      <trkpt lat="44.19582" lon="5.14714">
        <ele>1575.745</ele>
        <time>2020-09-03T12:30:59Z</time>
      </trkpt>
      <trkpt lat="44.19582" lon="5.14714">
        <ele>1573.831</ele>
        <time>2020-09-03T12:30:59Z</time>
      </trkpt>
      <trkpt lat="44.1958" lon="5.14637">
        <ele>1571.68</ele>
        <time>2020-09-03T12:31:04Z</time>
      </trkpt>
      <trkpt lat="44.19577" lon="5.14602">
        <ele>1569.997</ele>
        <time>2020-09-03T12:31:06Z</time>
      </trkpt>
      <trkpt lat="44.19576" lon="5.14585">
        <ele>1568.522</ele>
        <time>2020-09-03T12:31:07Z</time>
      </trkpt>
      <trkpt lat="44.19575" lon="5.14569">
        <ele>1567.431</ele>
        <time>2020-09-03T12:31:08Z</time>
      </trkpt>
      <trkpt lat="44.19573" lon="5.14553">
        <ele>1566.61</ele>
        <time>2020-09-03T12:31:09Z</time>
      </trkpt>
      <trkpt lat="44.19572" lon="5.14537">
        <ele>1565.45</ele>
        <time>2020-09-03T12:31:10Z</time>
      </trkpt>
      <trkpt lat="44.19571" lon="5.14522">
        <ele>1564.083</ele>
        <time>2020-09-03T12:31:11Z</time>
      </trkpt>
      <trkpt lat="44.19569" lon="5.14506">
        <ele>1561.966</ele>
        <time>2020-09-03T12:31:12Z</time>
      </trkpt>
      <trkpt lat="44.19567" lon="5.14489">
        <ele>1559.428</ele>
        <time>2020-09-03T12:31:13Z</time>
      </trkpt>
      <trkpt lat="44.19561" lon="5.14455">
        <ele>1556.31</ele>
        <time>2020-09-03T12:31:15Z</time>
      </trkpt>
      <trkpt lat="44.19558" lon="5.14438">
        <ele>1554.504</ele>
        <time>2020-09-03T12:31:16Z</time>
      </trkpt>
      <trkpt lat="44.19557" lon="5.14422">
        <ele>1552.836</ele>
        <time>2020-09-03T12:31:17Z</time>
      </trkpt>
      <trkpt lat="44.19554" lon="5.14406">
        <ele>1550.873</ele>
        <time>2020-09-03T12:31:18Z</time>
      </trkpt>
      <trkpt lat="44.19552" lon="5.14391">
        <ele>1549.255</ele>
        <time>2020-09-03T12:31:19Z</time>
      </trkpt>
      <trkpt lat="44.1955" lon="5.14376">
        <ele>1547.666</ele>
        <time>2020-09-03T12:31:20Z</time>
      </trkpt>
      <trkpt lat="44.19548" lon="5.14362">
        <ele>1546.062</ele>
        <time>2020-09-03T12:31:21Z</time>
      </trkpt>
      <trkpt lat="44.19548" lon="5.14347">
        <ele>1544.364</ele>
        <time>2020-09-03T12:31:22Z</time>
      </trkpt>
      <trkpt lat="44.19546" lon="5.14332">
        <ele>1542.582</ele>
        <time>2020-09-03T12:31:23Z</time>
      </trkpt>
      <trkpt lat="44.19545" lon="5.14315">
        <ele>1540.251</ele>
        <time>2020-09-03T12:31:24Z</time>
      </trkpt>
      <trkpt lat="44.19543" lon="5.14299">
        <ele>1538.399</ele>
        <time>2020-09-03T12:31:25Z</time>
      </trkpt>
      <trkpt lat="44.19542" lon="5.14283">
        <ele>1537.357</ele>
        <time>2020-09-03T12:31:26Z</time>
      </trkpt>
      <trkpt lat="44.19541" lon="5.14267">
        <ele>1535.315</ele>
        <time>2020-09-03T12:31:27Z</time>
      </trkpt>
      <trkpt lat="44.19539" lon="5.14251">
        <ele>1533.332</ele>
        <time>2020-09-03T12:31:28Z</time>
      </trkpt>
      <trkpt lat="44.19538" lon="5.14235">
        <ele>1531.364</ele>
        <time>2020-09-03T12:31:29Z</time>
      </trkpt>
      <trkpt lat="44.19537" lon="5.14218">
        <ele>1528.985</ele>
        <time>2020-09-03T12:31:30Z</time>
      </trkpt>
      <trkpt lat="44.19536" lon="5.14201">
        <ele>1527.396</ele>
        <time>2020-09-03T12:31:31Z</time>
      </trkpt>
      <trkpt lat="44.19535" lon="5.14184">
        <ele>1525.01</ele>
        <time>2020-09-03T12:31:32Z</time>
      </trkpt>
      <trkpt lat="44.19533" lon="5.14167">
        <ele>1522.788</ele>
        <time>2020-09-03T12:31:33Z</time>
      </trkpt>
      <trkpt lat="44.19532" lon="5.14151">
        <ele>1520.58</ele>
        <time>2020-09-03T12:31:34Z</time>
      </trkpt>
      <trkpt lat="44.19531" lon="5.14134">
        <ele>1518.665</ele>
        <time>2020-09-03T12:31:35Z</time>
      </trkpt>
      <trkpt lat="44.19531" lon="5.14134">
        <ele>1516.222</ele>
        <time>2020-09-03T12:31:35Z</time>
      </trkpt>
      <trkpt lat="44.19531" lon="5.14134">
        <ele>1513.452</ele>
        <time>2020-09-03T12:31:35Z</time>
      </trkpt>
      <trkpt lat="44.19528" lon="5.14083">
        <ele>1510.537</ele>
        <time>2020-09-03T12:31:38Z</time>
      </trkpt>
      <trkpt lat="44.19524" lon="5.14047">
        <ele>1507.97</ele>
        <time>2020-09-03T12:31:40Z</time>
      </trkpt>
      <trkpt lat="44.19523" lon="5.14029">
        <ele>1505.654</ele>
        <time>2020-09-03T12:31:41Z</time>
      </trkpt>
      <trkpt lat="44.19522" lon="5.14011">
        <ele>1503.888</ele>
        <time>2020-09-03T12:31:42Z</time>
      </trkpt>
      <trkpt lat="44.19521" lon="5.13995">
        <ele>1502.698</ele>
        <time>2020-09-03T12:31:43Z</time>
      </trkpt>
      <trkpt lat="44.1952" lon="5.1398">
        <ele>1501.874</ele>
        <time>2020-09-03T12:31:44Z</time>
      </trkpt>
      <trkpt lat="44.1952" lon="5.13965">
        <ele>1500.562</ele>
        <time>2020-09-03T12:31:45Z</time>
      </trkpt>
      <trkpt lat="44.1952" lon="5.1395">
        <ele>1498.737</ele>
        <time>2020-09-03T12:31:46Z</time>
      </trkpt>
      <trkpt lat="44.19519" lon="5.13933">
        <ele>1496.45</ele>
        <time>2020-09-03T12:31:47Z</time>
      </trkpt>
      <trkpt lat="44.19518" lon="5.13916">
        <ele>1494.234</ele>
        <time>2020-09-03T12:31:48Z</time>
      </trkpt>
      <trkpt lat="44.19517" lon="5.13898">
        <ele>1492.022</ele>
        <time>2020-09-03T12:31:49Z</time>
      </trkpt>
      <trkpt lat="44.19516" lon="5.13882">
        <ele>1490.301</ele>
        <time>2020-09-03T12:31:50Z</time>
      </trkpt>
      <trkpt lat="44.19515" lon="5.13866">
        <ele>1488.863</ele>
        <time>2020-09-03T12:31:51Z</time>
      </trkpt>
      <trkpt lat="44.19514" lon="5.1385">
        <ele>1487.376</ele>
        <time>2020-09-03T12:31:52Z</time>
      </trkpt>
      <trkpt lat="44.19512" lon="5.13834">
        <ele>1485.665</ele>
        <time>2020-09-03T12:31:53Z</time>
      </trkpt>
      <trkpt lat="44.19511" lon="5.13817">
        <ele>1484.738</ele>
        <time>2020-09-03T12:31:54Z</time>
      </trkpt>
      <trkpt lat="44.1951" lon="5.138">
        <ele>1482.634</ele>
        <time>2020-09-03T12:31:55Z</time>
      </trkpt>
      <trkpt lat="44.19508" lon="5.13783">
        <ele>1480.724</ele>
        <time>2020-09-03T12:31:56Z</time>
      </trkpt>
      <trkpt lat="44.19507" lon="5.13766">
        <ele>1478.763</ele>
        <time>2020-09-03T12:31:57Z</time>
      </trkpt>
      <trkpt lat="44.19506" lon="5.1375">
        <ele>1477.17</ele>
        <time>2020-09-03T12:31:58Z</time>
      </trkpt>
      <trkpt lat="44.19504" lon="5.13734">
        <ele>1475.751</ele>
        <time>2020-09-03T12:31:59Z</time>
      </trkpt>
      <trkpt lat="44.19502" lon="5.13702">
        <ele>1474.27</ele>
        <time>2020-09-03T12:32:01Z</time>
      </trkpt>
      <trkpt lat="44.195" lon="5.13687">
        <ele>1472.601</ele>
        <time>2020-09-03T12:32:02Z</time>
      </trkpt>
      <trkpt lat="44.19497" lon="5.13671">
        <ele>1470.876</ele>
        <time>2020-09-03T12:32:03Z</time>
      </trkpt>
      <trkpt lat="44.19495" lon="5.13656">
        <ele>1468.728</ele>
        <time>2020-09-03T12:32:04Z</time>
      </trkpt>
      <trkpt lat="44.19493" lon="5.1364">
        <ele>1466.556</ele>
        <time>2020-09-03T12:32:05Z</time>
      </trkpt>
      <trkpt lat="44.19491" lon="5.13624">
        <ele>1464.311</ele>
        <time>2020-09-03T12:32:06Z</time>
      </trkpt>
      <trkpt lat="44.19488" lon="5.13608">
        <ele>1462.14</ele>
        <time>2020-09-03T12:32:07Z</time>
      </trkpt>
      <trkpt lat="44.19488" lon="5.13608">
        <ele>1460.387</ele>
        <time>2020-09-03T12:32:07Z</time>
      </trkpt>
      <trkpt lat="44.19482" lon="5.13559">
        <ele>1458.965</ele>
        <time>2020-09-03T12:32:10Z</time>
      </trkpt>
      <trkpt lat="44.19479" lon="5.13543">
        <ele>1457.839</ele>
        <time>2020-09-03T12:32:11Z</time>
      </trkpt>
      <trkpt lat="44.19477" lon="5.13528">
        <ele>1456.836</ele>
        <time>2020-09-03T12:32:12Z</time>
      </trkpt>
      <trkpt lat="44.19474" lon="5.13513">
        <ele>1455.87</ele>
        <time>2020-09-03T12:32:13Z</time>
      </trkpt>
      <trkpt lat="44.19474" lon="5.13513">
        <ele>1454.73</ele>
        <time>2020-09-03T12:32:13Z</time>
      </trkpt>
      <trkpt lat="44.19469" lon="5.13482">
        <ele>1453.395</ele>
        <time>2020-09-03T12:32:15Z</time>
      </trkpt>
      <trkpt lat="44.19466" lon="5.13466">
        <ele>1451.479</ele>
        <time>2020-09-03T12:32:16Z</time>
      </trkpt>
      <trkpt lat="44.19464" lon="5.1345">
        <ele>1449.669</ele>
        <time>2020-09-03T12:32:17Z</time>
      </trkpt>
      <trkpt lat="44.19462" lon="5.13434">
        <ele>1447.724</ele>
        <time>2020-09-03T12:32:18Z</time>
      </trkpt>
      <trkpt lat="44.19462" lon="5.13434">
        <ele>1446.028</ele>
        <time>2020-09-03T12:32:18Z</time>
      </trkpt>
      <trkpt lat="44.19457" lon="5.13403">
        <ele>1444.398</ele>
        <time>2020-09-03T12:32:20Z</time>
      </trkpt>
      <trkpt lat="44.19454" lon="5.13388">
        <ele>1443.042</ele>
        <time>2020-09-03T12:32:21Z</time>
      </trkpt>
      <trkpt lat="44.19451" lon="5.13374">
        <ele>1442.265</ele>
        <time>2020-09-03T12:32:22Z</time>
      </trkpt>
      <trkpt lat="44.19448" lon="5.13359">
        <ele>1441.293</ele>
        <time>2020-09-03T12:32:23Z</time>
      </trkpt>
      <trkpt lat="44.19446" lon="5.13344">
        <ele>1440.216</ele>
        <time>2020-09-03T12:32:24Z</time>
      </trkpt>
      <trkpt lat="44.19442" lon="5.13329">
        <ele>1439.134</ele>
        <time>2020-09-03T12:32:25Z</time>
      </trkpt>
      <trkpt lat="44.19439" lon="5.13314">
        <ele>1437.666</ele>
        <time>2020-09-03T12:32:26Z</time>
      </trkpt>
      <trkpt lat="44.19435" lon="5.13299">
        <ele>1436.019</ele>
        <time>2020-09-03T12:32:27Z</time>
      </trkpt>
      <trkpt lat="44.19435" lon="5.13299">
        <ele>1435.029</ele>
        <time>2020-09-03T12:32:27Z</time>
      </trkpt>
      <trkpt lat="44.19425" lon="5.13255">
        <ele>1434.019</ele>
        <time>2020-09-03T12:32:30Z</time>
      </trkpt>
      <trkpt lat="44.19421" lon="5.13241">
        <ele>1432.619</ele>
        <time>2020-09-03T12:32:31Z</time>
      </trkpt>
      <trkpt lat="44.19417" lon="5.13227">
        <ele>1430.715</ele>
        <time>2020-09-03T12:32:32Z</time>
      </trkpt>
      <trkpt lat="44.19413" lon="5.13212">
        <ele>1428.798</ele>
        <time>2020-09-03T12:32:33Z</time>
      </trkpt>
      <trkpt lat="44.19409" lon="5.13197">
        <ele>1426.916</ele>
        <time>2020-09-03T12:32:34Z</time>
      </trkpt>
      <trkpt lat="44.19405" lon="5.1318">
        <ele>1425.1</ele>
        <time>2020-09-03T12:32:35Z</time>
      </trkpt>
      <trkpt lat="44.19401" lon="5.13165">
        <ele>1424.189</ele>
        <time>2020-09-03T12:32:36Z</time>
      </trkpt>
      <trkpt lat="44.19397" lon="5.1315">
        <ele>1423.714</ele>
        <time>2020-09-03T12:32:37Z</time>
      </trkpt>
      <trkpt lat="44.19393" lon="5.13136">
        <ele>1423.111</ele>
        <time>2020-09-03T12:32:38Z</time>
      </trkpt>
      <trkpt lat="44.19389" lon="5.13121">
        <ele>1422.177</ele>
        <time>2020-09-03T12:32:39Z</time>
      </trkpt>
      <trkpt lat="44.19389" lon="5.13121">
        <ele>1420.905</ele>
        <time>2020-09-03T12:32:39Z</time>
      </trkpt>
      <trkpt lat="44.19389" lon="5.13121">
        <ele>1419.412</ele>
        <time>2020-09-03T12:32:39Z</time>
      </trkpt>
      <trkpt lat="44.19389" lon="5.13121">
        <ele>1417.854</ele>
        <time>2020-09-03T12:32:39Z</time>
      </trkpt>
      <trkpt lat="44.19389" lon="5.13121">
        <ele>1416.833</ele>
        <time>2020-09-03T12:32:39Z</time>
      </trkpt>
      <trkpt lat="44.19366" lon="5.1305">
        <ele>1415.929</ele>
        <time>2020-09-03T12:32:44Z</time>
      </trkpt>
      <trkpt lat="44.19361" lon="5.13036">
        <ele>1415.024</ele>
        <time>2020-09-03T12:32:45Z</time>
      </trkpt>
      <trkpt lat="44.19356" lon="5.13023">
        <ele>1414.108</ele>
        <time>2020-09-03T12:32:46Z</time>
      </trkpt>
      <trkpt lat="44.1935" lon="5.1301">
        <ele>1413.224</ele>
        <time>2020-09-03T12:32:47Z</time>
      </trkpt>
      <trkpt lat="44.19344" lon="5.12997">
        <ele>1412.463</ele>
        <time>2020-09-03T12:32:48Z</time>
      </trkpt>
      <trkpt lat="44.19334" lon="5.12969">
        <ele>1411.586</ele>
        <time>2020-09-03T12:32:50Z</time>
      </trkpt>
      <trkpt lat="44.19329" lon="5.12956">
        <ele>1411.019</ele>
        <time>2020-09-03T12:32:51Z</time>
      </trkpt>
      <trkpt lat="44.19324" lon="5.12943">
        <ele>1409.69</ele>
        <time>2020-09-03T12:32:52Z</time>
      </trkpt>
      <trkpt lat="44.19318" lon="5.1293">
        <ele>1408.137</ele>
        <time>2020-09-03T12:32:53Z</time>
      </trkpt>
      <trkpt lat="44.19313" lon="5.12917">
        <ele>1406.605</ele>
        <time>2020-09-03T12:32:54Z</time>
      </trkpt>
      <trkpt lat="44.19308" lon="5.12903">
        <ele>1405.648</ele>
        <time>2020-09-03T12:32:55Z</time>
      </trkpt>
      <trkpt lat="44.19303" lon="5.12889">
        <ele>1404.974</ele>
        <time>2020-09-03T12:32:56Z</time>
      </trkpt>
      <trkpt lat="44.19303" lon="5.12889">
        <ele>1404.314</ele>
        <time>2020-09-03T12:32:56Z</time>
      </trkpt>
      <trkpt lat="44.19303" lon="5.12889">
        <ele>1403.649</ele>
        <time>2020-09-03T12:32:56Z</time>
      </trkpt>
      <trkpt lat="44.19287" lon="5.12848">
        <ele>1402.524</ele>
        <time>2020-09-03T12:32:59Z</time>
      </trkpt>
      <trkpt lat="44.19281" lon="5.12834">
        <ele>1401.746</ele>
        <time>2020-09-03T12:33:00Z</time>
      </trkpt>
      <trkpt lat="44.19276" lon="5.12819">
        <ele>1401.546</ele>
        <time>2020-09-03T12:33:01Z</time>
      </trkpt>
      <trkpt lat="44.19272" lon="5.12805">
        <ele>1401.852</ele>
        <time>2020-09-03T12:33:02Z</time>
      </trkpt>
      <trkpt lat="44.19267" lon="5.12792">
        <ele>1402.287</ele>
        <time>2020-09-03T12:33:03Z</time>
      </trkpt>
      <trkpt lat="44.19259" lon="5.12769">
        <ele>1402.481</ele>
        <time>2020-09-03T12:33:05Z</time>
      </trkpt>
      <trkpt lat="44.19256" lon="5.12755">
        <ele>1402.224</ele>
        <time>2020-09-03T12:33:06Z</time>
      </trkpt>
      <trkpt lat="44.19253" lon="5.12741">
        <ele>1401.508</ele>
        <time>2020-09-03T12:33:07Z</time>
      </trkpt>
      <trkpt lat="44.19251" lon="5.12727">
        <ele>1400.744</ele>
        <time>2020-09-03T12:33:08Z</time>
      </trkpt>
      <trkpt lat="44.19251" lon="5.12727">
        <ele>1400.105</ele>
        <time>2020-09-03T12:33:08Z</time>
      </trkpt>
      <trkpt lat="44.1925" lon="5.12698">
        <ele>1399.589</ele>
        <time>2020-09-03T12:33:10Z</time>
      </trkpt>
      <trkpt lat="44.1925" lon="5.12684">
        <ele>1399.053</ele>
        <time>2020-09-03T12:33:11Z</time>
      </trkpt>
      <trkpt lat="44.19251" lon="5.1267">
        <ele>1398.523</ele>
        <time>2020-09-03T12:33:12Z</time>
      </trkpt>
      <trkpt lat="44.19253" lon="5.12655">
        <ele>1397.805</ele>
        <time>2020-09-03T12:33:13Z</time>
      </trkpt>
      <trkpt lat="44.19253" lon="5.12655">
        <ele>1396.705</ele>
        <time>2020-09-03T12:33:13Z</time>
      </trkpt>
      <trkpt lat="44.19256" lon="5.12624">
        <ele>1395.609</ele>
        <time>2020-09-03T12:33:15Z</time>
      </trkpt>
      <trkpt lat="44.19257" lon="5.12609">
        <ele>1394.62</ele>
        <time>2020-09-03T12:33:16Z</time>
      </trkpt>
      <trkpt lat="44.19258" lon="5.12593">
        <ele>1393.822</ele>
        <time>2020-09-03T12:33:17Z</time>
      </trkpt>
      <trkpt lat="44.19258" lon="5.12593">
        <ele>1393.314</ele>
        <time>2020-09-03T12:33:17Z</time>
      </trkpt>
      <trkpt lat="44.19259" lon="5.12562">
        <ele>1392.768</ele>
        <time>2020-09-03T12:33:19Z</time>
      </trkpt>
      <trkpt lat="44.19259" lon="5.12546">
        <ele>1392.196</ele>
        <time>2020-09-03T12:33:20Z</time>
      </trkpt>
      <trkpt lat="44.19259" lon="5.12546">
        <ele>1391.287</ele>
        <time>2020-09-03T12:33:20Z</time>
      </trkpt>
      <trkpt lat="44.19258" lon="5.12515">
        <ele>1390.104</ele>
        <time>2020-09-03T12:33:22Z</time>
      </trkpt>
      <trkpt lat="44.19257" lon="5.125">
        <ele>1388.938</ele>
        <time>2020-09-03T12:33:23Z</time>
      </trkpt>
      <trkpt lat="44.19255" lon="5.1247">
        <ele>1388.214</ele>
        <time>2020-09-03T12:33:25Z</time>
      </trkpt>
      <trkpt lat="44.19254" lon="5.12455">
        <ele>1387.602</ele>
        <time>2020-09-03T12:33:26Z</time>
      </trkpt>
      <trkpt lat="44.19252" lon="5.12441">
        <ele>1386.711</ele>
        <time>2020-09-03T12:33:27Z</time>
      </trkpt>
      <trkpt lat="44.19251" lon="5.12428">
        <ele>1385.563</ele>
        <time>2020-09-03T12:33:28Z</time>
      </trkpt>
      <trkpt lat="44.1925" lon="5.12414">
        <ele>1383.994</ele>
        <time>2020-09-03T12:33:29Z</time>
      </trkpt>
      <trkpt lat="44.19247" lon="5.12398">
        <ele>1382.06</ele>
        <time>2020-09-03T12:33:30Z</time>
      </trkpt>
      <trkpt lat="44.19244" lon="5.12383">
        <ele>1380.245</ele>
        <time>2020-09-03T12:33:31Z</time>
      </trkpt>
      <trkpt lat="44.19241" lon="5.12367">
        <ele>1378.582</ele>
        <time>2020-09-03T12:33:32Z</time>
      </trkpt>
      <trkpt lat="44.19238" lon="5.12352">
        <ele>1377.281</ele>
        <time>2020-09-03T12:33:33Z</time>
      </trkpt>
      <trkpt lat="44.19234" lon="5.12338">
        <ele>1376.514</ele>
        <time>2020-09-03T12:33:34Z</time>
      </trkpt>
      <trkpt lat="44.19231" lon="5.12325">
        <ele>1376.116</ele>
        <time>2020-09-03T12:33:35Z</time>
      </trkpt>
      <trkpt lat="44.19228" lon="5.12312">
        <ele>1375.841</ele>
        <time>2020-09-03T12:33:36Z</time>
      </trkpt>
      <trkpt lat="44.19225" lon="5.12299">
        <ele>1375.38</ele>
        <time>2020-09-03T12:33:37Z</time>
      </trkpt>
      <trkpt lat="44.19222" lon="5.12284">
        <ele>1374.884</ele>
        <time>2020-09-03T12:33:38Z</time>
      </trkpt>
      <trkpt lat="44.19221" lon="5.12269">
        <ele>1374.249</ele>
        <time>2020-09-03T12:33:39Z</time>
      </trkpt>
      <trkpt lat="44.19221" lon="5.12254">
        <ele>1373.811</ele>
        <time>2020-09-03T12:33:40Z</time>
      </trkpt>
      <trkpt lat="44.19221" lon="5.12254">
        <ele>1373.6</ele>
        <time>2020-09-03T12:33:40Z</time>
      </trkpt>
      <trkpt lat="44.1922" lon="5.12226">
        <ele>1373.257</ele>
        <time>2020-09-03T12:33:42Z</time>
      </trkpt>
      <trkpt lat="44.1922" lon="5.12212">
        <ele>1372.671</ele>
        <time>2020-09-03T12:33:43Z</time>
      </trkpt>
      <trkpt lat="44.19218" lon="5.12197">
        <ele>1371.768</ele>
        <time>2020-09-03T12:33:44Z</time>
      </trkpt>
      <trkpt lat="44.19217" lon="5.12182">
        <ele>1370.652</ele>
        <time>2020-09-03T12:33:45Z</time>
      </trkpt>
      <trkpt lat="44.19214" lon="5.12166">
        <ele>1369.998</ele>
        <time>2020-09-03T12:33:46Z</time>
      </trkpt>
      <trkpt lat="44.1921" lon="5.12133">
        <ele>1368.872</ele>
        <time>2020-09-03T12:33:48Z</time>
      </trkpt>
      <trkpt lat="44.1921" lon="5.12133">
        <ele>1368.163</ele>
        <time>2020-09-03T12:33:48Z</time>
      </trkpt>
      <trkpt lat="44.19207" lon="5.12101">
        <ele>1367.612</ele>
        <time>2020-09-03T12:33:50Z</time>
      </trkpt>
      <trkpt lat="44.19205" lon="5.12086">
        <ele>1367.218</ele>
        <time>2020-09-03T12:33:51Z</time>
      </trkpt>
      <trkpt lat="44.19203" lon="5.1207">
        <ele>1366.882</ele>
        <time>2020-09-03T12:33:52Z</time>
      </trkpt>
      <trkpt lat="44.19202" lon="5.12055">
        <ele>1366.625</ele>
        <time>2020-09-03T12:33:53Z</time>
      </trkpt>
      <trkpt lat="44.19201" lon="5.1204">
        <ele>1366.327</ele>
        <time>2020-09-03T12:33:54Z</time>
      </trkpt>
      <trkpt lat="44.192" lon="5.12025">
        <ele>1365.801</ele>
        <time>2020-09-03T12:33:55Z</time>
      </trkpt>
      <trkpt lat="44.19198" lon="5.12009">
        <ele>1365.061</ele>
        <time>2020-09-03T12:33:56Z</time>
      </trkpt>
      <trkpt lat="44.19197" lon="5.11993">
        <ele>1364.108</ele>
        <time>2020-09-03T12:33:57Z</time>
      </trkpt>
      <trkpt lat="44.19195" lon="5.11978">
        <ele>1363.427</ele>
        <time>2020-09-03T12:33:58Z</time>
      </trkpt>
      <trkpt lat="44.19193" lon="5.11964">
        <ele>1362.791</ele>
        <time>2020-09-03T12:33:59Z</time>
      </trkpt>
      <trkpt lat="44.19191" lon="5.11949">
        <ele>1362.229</ele>
        <time>2020-09-03T12:34:00Z</time>
      </trkpt>
      <trkpt lat="44.19189" lon="5.11935">
        <ele>1361.603</ele>
        <time>2020-09-03T12:34:01Z</time>
      </trkpt>
      <trkpt lat="44.19188" lon="5.1192">
        <ele>1360.616</ele>
        <time>2020-09-03T12:34:02Z</time>
      </trkpt>
      <trkpt lat="44.19187" lon="5.11905">
        <ele>1359.433</ele>
        <time>2020-09-03T12:34:03Z</time>
      </trkpt>
      <trkpt lat="44.19186" lon="5.11889">
        <ele>1358.316</ele>
        <time>2020-09-03T12:34:04Z</time>
      </trkpt>
      <trkpt lat="44.19185" lon="5.11873">
        <ele>1356.969</ele>
        <time>2020-09-03T12:34:05Z</time>
      </trkpt>
      <trkpt lat="44.19184" lon="5.11858">
        <ele>1355.638</ele>
        <time>2020-09-03T12:34:06Z</time>
      </trkpt>
      <trkpt lat="44.19183" lon="5.11843">
        <ele>1354.319</ele>
        <time>2020-09-03T12:34:07Z</time>
      </trkpt>
      <trkpt lat="44.19181" lon="5.11828">
        <ele>1353.139</ele>
        <time>2020-09-03T12:34:08Z</time>
      </trkpt>
      <trkpt lat="44.19179" lon="5.11796">
        <ele>1352.106</ele>
        <time>2020-09-03T12:34:10Z</time>
      </trkpt>
      <trkpt lat="44.19177" lon="5.1178">
        <ele>1351.068</ele>
        <time>2020-09-03T12:34:11Z</time>
      </trkpt>
      <trkpt lat="44.19176" lon="5.11765">
        <ele>1350.356</ele>
        <time>2020-09-03T12:34:12Z</time>
      </trkpt>
      <trkpt lat="44.19175" lon="5.11751">
        <ele>1349.812</ele>
        <time>2020-09-03T12:34:13Z</time>
      </trkpt>
      <trkpt lat="44.19173" lon="5.11737">
        <ele>1349.436</ele>
        <time>2020-09-03T12:34:14Z</time>
      </trkpt>
      <trkpt lat="44.19171" lon="5.11724">
        <ele>1348.527</ele>
        <time>2020-09-03T12:34:15Z</time>
      </trkpt>
      <trkpt lat="44.19169" lon="5.1171">
        <ele>1347.284</ele>
        <time>2020-09-03T12:34:16Z</time>
      </trkpt>
      <trkpt lat="44.19167" lon="5.11697">
        <ele>1345.558</ele>
        <time>2020-09-03T12:34:17Z</time>
      </trkpt>
      <trkpt lat="44.19166" lon="5.11684">
        <ele>1343.717</ele>
        <time>2020-09-03T12:34:18Z</time>
      </trkpt>
      <trkpt lat="44.19166" lon="5.1167">
        <ele>1342.042</ele>
        <time>2020-09-03T12:34:19Z</time>
      </trkpt>
      <trkpt lat="44.19165" lon="5.11656">
        <ele>1340.44</ele>
        <time>2020-09-03T12:34:20Z</time>
      </trkpt>
      <trkpt lat="44.19164" lon="5.11643">
        <ele>1338.922</ele>
        <time>2020-09-03T12:34:21Z</time>
      </trkpt>
      <trkpt lat="44.19163" lon="5.11629">
        <ele>1337.503</ele>
        <time>2020-09-03T12:34:22Z</time>
      </trkpt>
      <trkpt lat="44.19163" lon="5.11616">
        <ele>1335.767</ele>
        <time>2020-09-03T12:34:23Z</time>
      </trkpt>
      <trkpt lat="44.19162" lon="5.11602">
        <ele>1334.142</ele>
        <time>2020-09-03T12:34:24Z</time>
      </trkpt>
      <trkpt lat="44.19161" lon="5.11588">
        <ele>1332.77</ele>
        <time>2020-09-03T12:34:25Z</time>
      </trkpt>
      <trkpt lat="44.1916" lon="5.11574">
        <ele>1331.528</ele>
        <time>2020-09-03T12:34:26Z</time>
      </trkpt>
      <trkpt lat="44.19158" lon="5.11561">
        <ele>1330.746</ele>
        <time>2020-09-03T12:34:27Z</time>
      </trkpt>
      <trkpt lat="44.19157" lon="5.11547">
        <ele>1330.152</ele>
        <time>2020-09-03T12:34:28Z</time>
      </trkpt>
      <trkpt lat="44.19157" lon="5.11547">
        <ele>1329.319</ele>
        <time>2020-09-03T12:34:28Z</time>
      </trkpt>
      <trkpt lat="44.19155" lon="5.1152">
        <ele>1328.052</ele>
        <time>2020-09-03T12:34:30Z</time>
      </trkpt>
      <trkpt lat="44.19154" lon="5.11489">
        <ele>1326.603</ele>
        <time>2020-09-03T12:34:32Z</time>
      </trkpt>
      <trkpt lat="44.19154" lon="5.11475">
        <ele>1325.503</ele>
        <time>2020-09-03T12:34:33Z</time>
      </trkpt>
      <trkpt lat="44.19153" lon="5.11463">
        <ele>1324.428</ele>
        <time>2020-09-03T12:34:34Z</time>
      </trkpt>
      <trkpt lat="44.19153" lon="5.11452">
        <ele>1323.079</ele>
        <time>2020-09-03T12:34:35Z</time>
      </trkpt>
      <trkpt lat="44.19152" lon="5.11441">
        <ele>1321.361</ele>
        <time>2020-09-03T12:34:36Z</time>
      </trkpt>
      <trkpt lat="44.19152" lon="5.1143">
        <ele>1318.734</ele>
        <time>2020-09-03T12:34:37Z</time>
      </trkpt>
      <trkpt lat="44.19151" lon="5.11417">
        <ele>1315.846</ele>
        <time>2020-09-03T12:34:38Z</time>
      </trkpt>
      <trkpt lat="44.19151" lon="5.11405">
        <ele>1313.45</ele>
        <time>2020-09-03T12:34:39Z</time>
      </trkpt>
      <trkpt lat="44.19149" lon="5.11393">
        <ele>1311.741</ele>
        <time>2020-09-03T12:34:40Z</time>
      </trkpt>
      <trkpt lat="44.19148" lon="5.11381">
        <ele>1310.387</ele>
        <time>2020-09-03T12:34:41Z</time>
      </trkpt>
      <trkpt lat="44.19148" lon="5.11381">
        <ele>1309.58</ele>
        <time>2020-09-03T12:34:41Z</time>
      </trkpt>
      <trkpt lat="44.19145" lon="5.11356">
        <ele>1307.661</ele>
        <time>2020-09-03T12:34:43Z</time>
      </trkpt>
      <trkpt lat="44.19144" lon="5.11343">
        <ele>1305.949</ele>
        <time>2020-09-03T12:34:44Z</time>
      </trkpt>
      <trkpt lat="44.19141" lon="5.11329">
        <ele>1304.302</ele>
        <time>2020-09-03T12:34:45Z</time>
      </trkpt>
      <trkpt lat="44.19141" lon="5.11329">
        <ele>1303.088</ele>
        <time>2020-09-03T12:34:45Z</time>
      </trkpt>
      <trkpt lat="44.19141" lon="5.11329">
        <ele>1301.892</ele>
        <time>2020-09-03T12:34:45Z</time>
      </trkpt>
      <trkpt lat="44.19141" lon="5.11329">
        <ele>1300.815</ele>
        <time>2020-09-03T12:34:45Z</time>
      </trkpt>
      <trkpt lat="44.19132" lon="5.11283">
        <ele>1299.902</ele>
        <time>2020-09-03T12:34:49Z</time>
      </trkpt>
      <trkpt lat="44.1913" lon="5.11271">
        <ele>1299.378</ele>
        <time>2020-09-03T12:34:50Z</time>
      </trkpt>
      <trkpt lat="44.19126" lon="5.1126">
        <ele>1299.305</ele>
        <time>2020-09-03T12:34:51Z</time>
      </trkpt>
      <trkpt lat="44.19121" lon="5.1125">
        <ele>1299.753</ele>
        <time>2020-09-03T12:34:52Z</time>
      </trkpt>
      <trkpt lat="44.19117" lon="5.1124">
        <ele>1300.589</ele>
        <time>2020-09-03T12:34:53Z</time>
      </trkpt>
      <trkpt lat="44.19113" lon="5.1123">
        <ele>1301.397</ele>
        <time>2020-09-03T12:34:54Z</time>
      </trkpt>
      <trkpt lat="44.1911" lon="5.1122">
        <ele>1302.028</ele>
        <time>2020-09-03T12:34:55Z</time>
      </trkpt>
      <trkpt lat="44.19105" lon="5.112">
        <ele>1302.593</ele>
        <time>2020-09-03T12:34:57Z</time>
      </trkpt>
      <trkpt lat="44.19102" lon="5.1119">
        <ele>1302.759</ele>
        <time>2020-09-03T12:34:58Z</time>
      </trkpt>
      <trkpt lat="44.19098" lon="5.1118">
        <ele>1302.915</ele>
        <time>2020-09-03T12:34:59Z</time>
      </trkpt>
      <trkpt lat="44.19096" lon="5.1117">
        <ele>1303.175</ele>
        <time>2020-09-03T12:35:00Z</time>
      </trkpt>
      <trkpt lat="44.19094" lon="5.11162">
        <ele>1303.535</ele>
        <time>2020-09-03T12:35:01Z</time>
      </trkpt>
      <trkpt lat="44.19093" lon="5.11153">
        <ele>1303.825</ele>
        <time>2020-09-03T12:35:02Z</time>
      </trkpt>
      <trkpt lat="44.19092" lon="5.11145">
        <ele>1303.776</ele>
        <time>2020-09-03T12:35:03Z</time>
      </trkpt>
      <trkpt lat="44.19091" lon="5.11136">
        <ele>1303.517</ele>
        <time>2020-09-03T12:35:04Z</time>
      </trkpt>
      <trkpt lat="44.19089" lon="5.11115">
        <ele>1303.12</ele>
        <time>2020-09-03T12:35:06Z</time>
      </trkpt>
      <trkpt lat="44.19087" lon="5.11104">
        <ele>1302.889</ele>
        <time>2020-09-03T12:35:07Z</time>
      </trkpt>
      <trkpt lat="44.19085" lon="5.11093">
        <ele>1302.987</ele>
        <time>2020-09-03T12:35:08Z</time>
      </trkpt>
      <trkpt lat="44.19083" lon="5.11082">
        <ele>1303.779</ele>
        <time>2020-09-03T12:35:09Z</time>
      </trkpt>
      <trkpt lat="44.19081" lon="5.11073">
        <ele>1304.32</ele>
        <time>2020-09-03T12:35:10Z</time>
      </trkpt>
      <trkpt lat="44.19078" lon="5.11064">
        <ele>1305.049</ele>
        <time>2020-09-03T12:35:11Z</time>
      </trkpt>
      <trkpt lat="44.19076" lon="5.11054">
        <ele>1305.637</ele>
        <time>2020-09-03T12:35:12Z</time>
      </trkpt>
      <trkpt lat="44.19074" lon="5.11044">
        <ele>1306.057</ele>
        <time>2020-09-03T12:35:13Z</time>
      </trkpt>
      <trkpt lat="44.19072" lon="5.11034">
        <ele>1306.416</ele>
        <time>2020-09-03T12:35:14Z</time>
      </trkpt>
      <trkpt lat="44.1907" lon="5.11025">
        <ele>1306.994</ele>
        <time>2020-09-03T12:35:15Z</time>
      </trkpt>
      <trkpt lat="44.19069" lon="5.11015">
        <ele>1307.841</ele>
        <time>2020-09-03T12:35:16Z</time>
      </trkpt>
      <trkpt lat="44.19067" lon="5.11006">
        <ele>1308.753</ele>
        <time>2020-09-03T12:35:17Z</time>
      </trkpt>
      <trkpt lat="44.19065" lon="5.10998">
        <ele>1309.43</ele>
        <time>2020-09-03T12:35:18Z</time>
      </trkpt>
      <trkpt lat="44.19063" lon="5.10989">
        <ele>1309.733</ele>
        <time>2020-09-03T12:35:19Z</time>
      </trkpt>
      <trkpt lat="44.1906" lon="5.10981">
        <ele>1309.67</ele>
        <time>2020-09-03T12:35:20Z</time>
      </trkpt>
      <trkpt lat="44.19057" lon="5.10974">
        <ele>1309.402</ele>
        <time>2020-09-03T12:35:21Z</time>
      </trkpt>
      <trkpt lat="44.19053" lon="5.10967">
        <ele>1308.935</ele>
        <time>2020-09-03T12:35:22Z</time>
      </trkpt>
      <trkpt lat="44.19048" lon="5.10961">
        <ele>1308.397</ele>
        <time>2020-09-03T12:35:23Z</time>
      </trkpt>
      <trkpt lat="44.19044" lon="5.10954">
        <ele>1308.044</ele>
        <time>2020-09-03T12:35:24Z</time>
      </trkpt>
      <trkpt lat="44.1904" lon="5.10946">
        <ele>1308.069</ele>
        <time>2020-09-03T12:35:25Z</time>
      </trkpt>
      <trkpt lat="44.19034" lon="5.10931">
        <ele>1308.455</ele>
        <time>2020-09-03T12:35:27Z</time>
      </trkpt>
      <trkpt lat="44.19032" lon="5.10924">
        <ele>1309.17</ele>
        <time>2020-09-03T12:35:28Z</time>
      </trkpt>
      <trkpt lat="44.19032" lon="5.10924">
        <ele>1309.777</ele>
        <time>2020-09-03T12:35:28Z</time>
      </trkpt>
      <trkpt lat="44.19028" lon="5.10911">
        <ele>1309.761</ele>
        <time>2020-09-03T12:35:30Z</time>
      </trkpt>
      <trkpt lat="44.19026" lon="5.10904">
        <ele>1308.834</ele>
        <time>2020-09-03T12:35:31Z</time>
      </trkpt>
      <trkpt lat="44.19025" lon="5.10897">
        <ele>1306.928</ele>
        <time>2020-09-03T12:35:32Z</time>
      </trkpt>
      <trkpt lat="44.19026" lon="5.10887">
        <ele>1304.904</ele>
        <time>2020-09-03T12:35:33Z</time>
      </trkpt>
      <trkpt lat="44.19026" lon="5.10877">
        <ele>1302.686</ele>
        <time>2020-09-03T12:35:34Z</time>
      </trkpt>
      <trkpt lat="44.19025" lon="5.10866">
        <ele>1301.41</ele>
        <time>2020-09-03T12:35:35Z</time>
      </trkpt>
      <trkpt lat="44.19023" lon="5.10857">
        <ele>1300.784</ele>
        <time>2020-09-03T12:35:36Z</time>
      </trkpt>
      <trkpt lat="44.1902" lon="5.10848">
        <ele>1300.543</ele>
        <time>2020-09-03T12:35:37Z</time>
      </trkpt>
      <trkpt lat="44.1902" lon="5.10848">
        <ele>1300.387</ele>
        <time>2020-09-03T12:35:37Z</time>
      </trkpt>
      <trkpt lat="44.19014" lon="5.10834">
        <ele>1299.486</ele>
        <time>2020-09-03T12:35:39Z</time>
      </trkpt>
      <trkpt lat="44.19014" lon="5.10834">
        <ele>1298.212</ele>
        <time>2020-09-03T12:35:39Z</time>
      </trkpt>
      <trkpt lat="44.19014" lon="5.10834">
        <ele>1296.396</ele>
        <time>2020-09-03T12:35:39Z</time>
      </trkpt>
      <trkpt lat="44.19014" lon="5.10834">
        <ele>1295.047</ele>
        <time>2020-09-03T12:35:39Z</time>
      </trkpt>
      <trkpt lat="44.19014" lon="5.10834">
        <ele>1294.248</ele>
        <time>2020-09-03T12:35:39Z</time>
      </trkpt>
      <trkpt lat="44.19001" lon="5.10789">
        <ele>1293.775</ele>
        <time>2020-09-03T12:35:44Z</time>
      </trkpt>
      <trkpt lat="44.18998" lon="5.1078">
        <ele>1293.507</ele>
        <time>2020-09-03T12:35:45Z</time>
      </trkpt>
      <trkpt lat="44.18995" lon="5.10772">
        <ele>1293.218</ele>
        <time>2020-09-03T12:35:46Z</time>
      </trkpt>
      <trkpt lat="44.18989" lon="5.10752">
        <ele>1292.863</ele>
        <time>2020-09-03T12:35:48Z</time>
      </trkpt>
      <trkpt lat="44.18985" lon="5.10743">
        <ele>1292.902</ele>
        <time>2020-09-03T12:35:49Z</time>
      </trkpt>
      <trkpt lat="44.18982" lon="5.10735">
        <ele>1293.205</ele>
        <time>2020-09-03T12:35:50Z</time>
      </trkpt>
      <trkpt lat="44.18978" lon="5.10728">
        <ele>1293.6</ele>
        <time>2020-09-03T12:35:51Z</time>
      </trkpt>
      <trkpt lat="44.18975" lon="5.10721">
        <ele>1293.796</ele>
        <time>2020-09-03T12:35:52Z</time>
      </trkpt>
      <trkpt lat="44.18973" lon="5.10714">
        <ele>1293.669</ele>
        <time>2020-09-03T12:35:53Z</time>
      </trkpt>
      <trkpt lat="44.18971" lon="5.10707">
        <ele>1293.318</ele>
        <time>2020-09-03T12:35:54Z</time>
      </trkpt>
      <trkpt lat="44.18965" lon="5.10691">
        <ele>1292.769</ele>
        <time>2020-09-03T12:35:56Z</time>
      </trkpt>
      <trkpt lat="44.18963" lon="5.10683">
        <ele>1292.126</ele>
        <time>2020-09-03T12:35:57Z</time>
      </trkpt>
      <trkpt lat="44.1896" lon="5.10675">
        <ele>1291.507</ele>
        <time>2020-09-03T12:35:58Z</time>
      </trkpt>
      <trkpt lat="44.18957" lon="5.10667">
        <ele>1290.878</ele>
        <time>2020-09-03T12:35:59Z</time>
      </trkpt>
      <trkpt lat="44.18954" lon="5.1066">
        <ele>1290.273</ele>
        <time>2020-09-03T12:36:00Z</time>
      </trkpt>
      <trkpt lat="44.18952" lon="5.10652">
        <ele>1289.689</ele>
        <time>2020-09-03T12:36:01Z</time>
      </trkpt>
      <trkpt lat="44.18951" lon="5.10644">
        <ele>1289.048</ele>
        <time>2020-09-03T12:36:02Z</time>
      </trkpt>
      <trkpt lat="44.18949" lon="5.10634">
        <ele>1288.508</ele>
        <time>2020-09-03T12:36:03Z</time>
      </trkpt>
      <trkpt lat="44.18945" lon="5.10625">
        <ele>1288.078</ele>
        <time>2020-09-03T12:36:04Z</time>
      </trkpt>
      <trkpt lat="44.18941" lon="5.10615">
        <ele>1287.992</ele>
        <time>2020-09-03T12:36:05Z</time>
      </trkpt>
      <trkpt lat="44.18941" lon="5.10615">
        <ele>1288.023</ele>
        <time>2020-09-03T12:36:05Z</time>
      </trkpt>
      <trkpt lat="44.18933" lon="5.10599">
        <ele>1287.91</ele>
        <time>2020-09-03T12:36:07Z</time>
      </trkpt>
      <trkpt lat="44.1893" lon="5.10591">
        <ele>1287.419</ele>
        <time>2020-09-03T12:36:08Z</time>
      </trkpt>
      <trkpt lat="44.18928" lon="5.10581">
        <ele>1286.763</ele>
        <time>2020-09-03T12:36:09Z</time>
      </trkpt>
      <trkpt lat="44.18926" lon="5.10571">
        <ele>1285.928</ele>
        <time>2020-09-03T12:36:10Z</time>
      </trkpt>
      <trkpt lat="44.18924" lon="5.1056">
        <ele>1285.556</ele>
        <time>2020-09-03T12:36:11Z</time>
      </trkpt>
      <trkpt lat="44.18922" lon="5.10551">
        <ele>1285.741</ele>
        <time>2020-09-03T12:36:12Z</time>
      </trkpt>
      <trkpt lat="44.1892" lon="5.10541">
        <ele>1286.368</ele>
        <time>2020-09-03T12:36:13Z</time>
      </trkpt>
      <trkpt lat="44.18917" lon="5.10532">
        <ele>1287.52</ele>
        <time>2020-09-03T12:36:14Z</time>
      </trkpt>
      <trkpt lat="44.18917" lon="5.10532">
        <ele>1288.905</ele>
        <time>2020-09-03T12:36:14Z</time>
      </trkpt>
      <trkpt lat="44.18917" lon="5.10532">
        <ele>1290.4</ele>
        <time>2020-09-03T12:36:14Z</time>
      </trkpt>
      <trkpt lat="44.18917" lon="5.10532">
        <ele>1292.538</ele>
        <time>2020-09-03T12:36:14Z</time>
      </trkpt>
      <trkpt lat="44.18917" lon="5.10532">
        <ele>1294.764</ele>
        <time>2020-09-03T12:36:14Z</time>
      </trkpt>
      <trkpt lat="44.1891" lon="5.10488">
        <ele>1297.095</ele>
        <time>2020-09-03T12:36:19Z</time>
      </trkpt>
      <trkpt lat="44.1891" lon="5.10475">
        <ele>1299.185</ele>
        <time>2020-09-03T12:36:21Z</time>
      </trkpt>
      <trkpt lat="44.18907" lon="5.10468">
        <ele>1300.124</ele>
        <time>2020-09-03T12:36:22Z</time>
      </trkpt>
      <trkpt lat="44.18901" lon="5.10461">
        <ele>1300.216</ele>
        <time>2020-09-03T12:36:23Z</time>
      </trkpt>
      <trkpt lat="44.18891" lon="5.10457">
        <ele>1299.884</ele>
        <time>2020-09-03T12:36:24Z</time>
      </trkpt>
      <trkpt lat="44.18879" lon="5.10459">
        <ele>1299.636</ele>
        <time>2020-09-03T12:36:25Z</time>
      </trkpt>
      <trkpt lat="44.18869" lon="5.10467">
        <ele>1300.136</ele>
        <time>2020-09-03T12:36:26Z</time>
      </trkpt>
      <trkpt lat="44.1886" lon="5.10479">
        <ele>1301.359</ele>
        <time>2020-09-03T12:36:27Z</time>
      </trkpt>
      <trkpt lat="44.18852" lon="5.10492">
        <ele>1303.751</ele>
        <time>2020-09-03T12:36:28Z</time>
      </trkpt>
      <trkpt lat="44.18848" lon="5.10506">
        <ele>1306.393</ele>
        <time>2020-09-03T12:36:29Z</time>
      </trkpt>
      <trkpt lat="44.18846" lon="5.10522">
        <ele>1309.85</ele>
        <time>2020-09-03T12:36:30Z</time>
      </trkpt>
      <trkpt lat="44.18849" lon="5.10537">
        <ele>1313.117</ele>
        <time>2020-09-03T12:36:31Z</time>
      </trkpt>
      <trkpt lat="44.18855" lon="5.10548">
        <ele>1315.996</ele>
        <time>2020-09-03T12:36:32Z</time>
      </trkpt>
      <trkpt lat="44.18863" lon="5.10553">
        <ele>1319.198</ele>
        <time>2020-09-03T12:36:33Z</time>
      </trkpt>
      <trkpt lat="44.1887" lon="5.10554">
        <ele>1320.657</ele>
        <time>2020-09-03T12:36:34Z</time>
      </trkpt>
      <trkpt lat="44.18876" lon="5.1055">
        <ele>1323.797</ele>
        <time>2020-09-03T12:36:35Z</time>
      </trkpt>
      <trkpt lat="44.18879" lon="5.10542">
        <ele>1326.521</ele>
        <time>2020-09-03T12:36:36Z</time>
      </trkpt>
      <trkpt lat="44.18879" lon="5.10533">
        <ele>1328.13</ele>
        <time>2020-09-03T12:36:37Z</time>
      </trkpt>
      <trkpt lat="44.18874" lon="5.10526">
        <ele>1329.264</ele>
        <time>2020-09-03T12:36:38Z</time>
      </trkpt>
      <trkpt lat="44.18864" lon="5.10525">
        <ele>1329.811</ele>
        <time>2020-09-03T12:36:39Z</time>
      </trkpt>
      <trkpt lat="44.18864" lon="5.10525">
        <ele>1330.522</ele>
        <time>2020-09-03T12:36:39Z</time>
      </trkpt>
      <trkpt lat="44.18834" lon="5.10557">
        <ele>1332.416</ele>
        <time>2020-09-03T12:36:42Z</time>
      </trkpt>
      <trkpt lat="44.18828" lon="5.10573">
        <ele>1335.048</ele>
        <time>2020-09-03T12:36:43Z</time>
      </trkpt>
      <trkpt lat="44.18828" lon="5.10573">
        <ele>1338.777</ele>
        <time>2020-09-03T12:36:43Z</time>
      </trkpt>
      <trkpt lat="44.1882" lon="5.10599">
        <ele>1342.602</ele>
        <time>2020-09-03T12:36:45Z</time>
      </trkpt>
      <trkpt lat="44.18816" lon="5.10611">
        <ele>1346.278</ele>
        <time>2020-09-03T12:36:46Z</time>
      </trkpt>
      <trkpt lat="44.18814" lon="5.10624">
        <ele>1349.877</ele>
        <time>2020-09-03T12:36:47Z</time>
      </trkpt>
      <trkpt lat="44.18814" lon="5.10637">
        <ele>1352.591</ele>
        <time>2020-09-03T12:36:48Z</time>
      </trkpt>
      <trkpt lat="44.18818" lon="5.10649">
        <ele>1354.467</ele>
        <time>2020-09-03T12:36:49Z</time>
      </trkpt>
      <trkpt lat="44.18825" lon="5.10657">
        <ele>1356.291</ele>
        <time>2020-09-03T12:36:50Z</time>
      </trkpt>
      <trkpt lat="44.18833" lon="5.10659">
        <ele>1358.208</ele>
        <time>2020-09-03T12:36:51Z</time>
      </trkpt>
      <trkpt lat="44.1884" lon="5.10658">
        <ele>1360.628</ele>
        <time>2020-09-03T12:36:52Z</time>
      </trkpt>
      <trkpt lat="44.18846" lon="5.10655">
        <ele>1363.454</ele>
        <time>2020-09-03T12:36:53Z</time>
      </trkpt>
      <trkpt lat="44.1885" lon="5.1065">
        <ele>1366.401</ele>
        <time>2020-09-03T12:36:54Z</time>
      </trkpt>
      <trkpt lat="44.18851" lon="5.10645">
        <ele>1369.123</ele>
        <time>2020-09-03T12:36:55Z</time>
      </trkpt>
      <trkpt lat="44.18851" lon="5.10638">
        <ele>1371.751</ele>
        <time>2020-09-03T12:36:56Z</time>
      </trkpt>
      <trkpt lat="44.1885" lon="5.10632">
        <ele>1374.192</ele>
        <time>2020-09-03T12:36:57Z</time>
      </trkpt>
      <trkpt lat="44.18839" lon="5.10628">
        <ele>1376.564</ele>
        <time>2020-09-03T12:36:58Z</time>
      </trkpt>
      <trkpt lat="44.18829" lon="5.10631">
        <ele>1379.067</ele>
        <time>2020-09-03T12:36:59Z</time>
      </trkpt>
      <trkpt lat="44.18819" lon="5.10639">
        <ele>1381.471</ele>
        <time>2020-09-03T12:37:00Z</time>
      </trkpt>
      <trkpt lat="44.18819" lon="5.10639">
        <ele>1383.244</ele>
        <time>2020-09-03T12:37:00Z</time>
      </trkpt>
      <trkpt lat="44.18819" lon="5.10639">
        <ele>1385.364</ele>
        <time>2020-09-03T12:37:00Z</time>
      </trkpt>
      <trkpt lat="44.18819" lon="5.10639">
        <ele>1388.425</ele>
        <time>2020-09-03T12:37:00Z</time>
      </trkpt>
      <trkpt lat="44.18811" lon="5.10701">
        <ele>1391.953</ele>
        <time>2020-09-03T12:37:05Z</time>
      </trkpt>
      <trkpt lat="44.18816" lon="5.1071">
        <ele>1395.232</ele>
        <time>2020-09-03T12:37:06Z</time>
      </trkpt>
      <trkpt lat="44.18821" lon="5.10718">
        <ele>1398.423</ele>
        <time>2020-09-03T12:37:07Z</time>
      </trkpt>
      <trkpt lat="44.18827" lon="5.10723">
        <ele>1400.567</ele>
        <time>2020-09-03T12:37:08Z</time>
      </trkpt>
      <trkpt lat="44.18834" lon="5.10723">
        <ele>1402.322</ele>
        <time>2020-09-03T12:37:09Z</time>
      </trkpt>
      <trkpt lat="44.1884" lon="5.1072">
        <ele>1404.04</ele>
        <time>2020-09-03T12:37:10Z</time>
      </trkpt>
      <trkpt lat="44.18845" lon="5.10715">
        <ele>1405.91</ele>
        <time>2020-09-03T12:37:11Z</time>
      </trkpt>
      <trkpt lat="44.18848" lon="5.10708">
        <ele>1408.621</ele>
        <time>2020-09-03T12:37:12Z</time>
      </trkpt>
      <trkpt lat="44.18848" lon="5.10708">
        <ele>1411.855</ele>
        <time>2020-09-03T12:37:12Z</time>
      </trkpt>
      <trkpt lat="44.18835" lon="5.10688">
        <ele>1414.918</ele>
        <time>2020-09-03T12:37:15Z</time>
      </trkpt>
      <trkpt lat="44.18826" lon="5.10688">
        <ele>1417.837</ele>
        <time>2020-09-03T12:37:16Z</time>
      </trkpt>
      <trkpt lat="44.18816" lon="5.10693">
        <ele>1420.07</ele>
        <time>2020-09-03T12:37:17Z</time>
      </trkpt>
      <trkpt lat="44.18806" lon="5.10699">
        <ele>1422.346</ele>
        <time>2020-09-03T12:37:18Z</time>
      </trkpt>
      <trkpt lat="44.18797" lon="5.10708">
        <ele>1424.426</ele>
        <time>2020-09-03T12:37:19Z</time>
      </trkpt>
      <trkpt lat="44.18789" lon="5.10719">
        <ele>1426.692</ele>
        <time>2020-09-03T12:37:20Z</time>
      </trkpt>
      <trkpt lat="44.18786" lon="5.10734">
        <ele>1428.558</ele>
        <time>2020-09-03T12:37:21Z</time>
      </trkpt>
      <trkpt lat="44.18785" lon="5.10749">
        <ele>1430.229</ele>
        <time>2020-09-03T12:37:22Z</time>
      </trkpt>
      <trkpt lat="44.18786" lon="5.10763">
        <ele>1432.385</ele>
        <time>2020-09-03T12:37:23Z</time>
      </trkpt>
      <trkpt lat="44.18789" lon="5.10778">
        <ele>1434.53</ele>
        <time>2020-09-03T12:37:24Z</time>
      </trkpt>
      <trkpt lat="44.18794" lon="5.1079">
        <ele>1436.513</ele>
        <time>2020-09-03T12:37:25Z</time>
      </trkpt>
      <trkpt lat="44.188" lon="5.10799">
        <ele>1438.541</ele>
        <time>2020-09-03T12:37:26Z</time>
      </trkpt>
      <trkpt lat="44.18806" lon="5.10804">
        <ele>1440.601</ele>
        <time>2020-09-03T12:37:27Z</time>
      </trkpt>
      <trkpt lat="44.18806" lon="5.10804">
        <ele>1442.375</ele>
        <time>2020-09-03T12:37:27Z</time>
      </trkpt>
      <trkpt lat="44.18818" lon="5.10803">
        <ele>1443.862</ele>
        <time>2020-09-03T12:37:29Z</time>
      </trkpt>
      <trkpt lat="44.18823" lon="5.10799">
        <ele>1444.699</ele>
        <time>2020-09-03T12:37:30Z</time>
      </trkpt>
      <trkpt lat="44.18827" lon="5.10792">
        <ele>1445.954</ele>
        <time>2020-09-03T12:37:31Z</time>
      </trkpt>
      <trkpt lat="44.18829" lon="5.10783">
        <ele>1447.325</ele>
        <time>2020-09-03T12:37:32Z</time>
      </trkpt>
      <trkpt lat="44.1883" lon="5.10775">
        <ele>1449.045</ele>
        <time>2020-09-03T12:37:33Z</time>
      </trkpt>
      <trkpt lat="44.18829" lon="5.10766">
        <ele>1451.663</ele>
        <time>2020-09-03T12:37:34Z</time>
      </trkpt>
      <trkpt lat="44.18827" lon="5.10757">
        <ele>1454.61</ele>
        <time>2020-09-03T12:37:35Z</time>
      </trkpt>
      <trkpt lat="44.18822" lon="5.10741">
        <ele>1458.196</ele>
        <time>2020-09-03T12:37:37Z</time>
      </trkpt>
      <trkpt lat="44.18818" lon="5.10735">
        <ele>1461.384</ele>
        <time>2020-09-03T12:37:38Z</time>
      </trkpt>
      <trkpt lat="44.1881" lon="5.10732">
        <ele>1464.271</ele>
        <time>2020-09-03T12:37:39Z</time>
      </trkpt>
      <trkpt lat="44.18801" lon="5.10734">
        <ele>1466.638</ele>
        <time>2020-09-03T12:37:40Z</time>
      </trkpt>
      <trkpt lat="44.18792" lon="5.10741">
        <ele>1468.437</ele>
        <time>2020-09-03T12:37:41Z</time>
      </trkpt>
      <trkpt lat="44.18783" lon="5.10752">
        <ele>1469.77</ele>
        <time>2020-09-03T12:37:42Z</time>
      </trkpt>
      <trkpt lat="44.18783" lon="5.10752">
        <ele>1471.218</ele>
        <time>2020-09-03T12:37:42Z</time>
      </trkpt>
      <trkpt lat="44.18773" lon="5.10778">
        <ele>1472.823</ele>
        <time>2020-09-03T12:37:44Z</time>
      </trkpt>
      <trkpt lat="44.18773" lon="5.10778">
        <ele>1474.423</ele>
        <time>2020-09-03T12:37:44Z</time>
      </trkpt>
      <trkpt lat="44.18773" lon="5.10778">
        <ele>1476.394</ele>
        <time>2020-09-03T12:37:44Z</time>
      </trkpt>
      <trkpt lat="44.18773" lon="5.10778">
        <ele>1478.076</ele>
        <time>2020-09-03T12:37:44Z</time>
      </trkpt>
      <trkpt lat="44.18773" lon="5.10778">
        <ele>1479.937</ele>
        <time>2020-09-03T12:37:44Z</time>
      </trkpt>
      <trkpt lat="44.18792" lon="5.10832">
        <ele>1481.685</ele>
        <time>2020-09-03T12:37:49Z</time>
      </trkpt>
      <trkpt lat="44.18792" lon="5.10832">
        <ele>1483.208</ele>
        <time>2020-09-03T12:37:49Z</time>
      </trkpt>
      <trkpt lat="44.18792" lon="5.10832">
        <ele>1484.854</ele>
        <time>2020-09-03T12:37:49Z</time>
      </trkpt>
      <trkpt lat="44.18806" lon="5.10811">
        <ele>1486.933</ele>
        <time>2020-09-03T12:37:52Z</time>
      </trkpt>
      <trkpt lat="44.18805" lon="5.10801">
        <ele>1489.4</ele>
        <time>2020-09-03T12:37:53Z</time>
      </trkpt>
      <trkpt lat="44.18801" lon="5.10793">
        <ele>1492.394</ele>
        <time>2020-09-03T12:37:54Z</time>
      </trkpt>
      <trkpt lat="44.1879" lon="5.10784">
        <ele>1495.953</ele>
        <time>2020-09-03T12:37:56Z</time>
      </trkpt>
      <trkpt lat="44.18783" lon="5.10783">
        <ele>1498.651</ele>
        <time>2020-09-03T12:37:57Z</time>
      </trkpt>
      <trkpt lat="44.18776" lon="5.10784">
        <ele>1500.228</ele>
        <time>2020-09-03T12:37:58Z</time>
      </trkpt>
      <trkpt lat="44.18767" lon="5.10788">
        <ele>1502.672</ele>
        <time>2020-09-03T12:37:59Z</time>
      </trkpt>
      <trkpt lat="44.18758" lon="5.10797">
        <ele>1504.58</ele>
        <time>2020-09-03T12:38:00Z</time>
      </trkpt>
      <trkpt lat="44.18751" lon="5.1081">
        <ele>1505.835</ele>
        <time>2020-09-03T12:38:01Z</time>
      </trkpt>
      <trkpt lat="44.18747" lon="5.10824">
        <ele>1507.403</ele>
        <time>2020-09-03T12:38:02Z</time>
      </trkpt>
      <trkpt lat="44.18744" lon="5.10839">
        <ele>1508.748</ele>
        <time>2020-09-03T12:38:03Z</time>
      </trkpt>
      <trkpt lat="44.18745" lon="5.10853">
        <ele>1510.068</ele>
        <time>2020-09-03T12:38:04Z</time>
      </trkpt>
      <trkpt lat="44.18751" lon="5.10866">
        <ele>1511.027</ele>
        <time>2020-09-03T12:38:05Z</time>
      </trkpt>
      <trkpt lat="44.18757" lon="5.10876">
        <ele>1511.996</ele>
        <time>2020-09-03T12:38:06Z</time>
      </trkpt>
      <trkpt lat="44.18774" lon="5.10885">
        <ele>1512.923</ele>
        <time>2020-09-03T12:38:08Z</time>
      </trkpt>
      <trkpt lat="44.18774" lon="5.10885">
        <ele>1513.847</ele>
        <time>2020-09-03T12:38:08Z</time>
      </trkpt>
      <trkpt lat="44.18789" lon="5.10876">
        <ele>1514.991</ele>
        <time>2020-09-03T12:38:10Z</time>
      </trkpt>
      <trkpt lat="44.18794" lon="5.10869">
        <ele>1516.57</ele>
        <time>2020-09-03T12:38:11Z</time>
      </trkpt>
      <trkpt lat="44.18798" lon="5.10862">
        <ele>1518.805</ele>
        <time>2020-09-03T12:38:12Z</time>
      </trkpt>
      <trkpt lat="44.188" lon="5.10854">
        <ele>1521.65</ele>
        <time>2020-09-03T12:38:13Z</time>
      </trkpt>
      <trkpt lat="44.188" lon="5.10854">
        <ele>1524.313</ele>
        <time>2020-09-03T12:38:13Z</time>
      </trkpt>
      <trkpt lat="44.188" lon="5.10838">
        <ele>1526.759</ele>
        <time>2020-09-03T12:38:15Z</time>
      </trkpt>
      <trkpt lat="44.18791" lon="5.10832">
        <ele>1528.709</ele>
        <time>2020-09-03T12:38:16Z</time>
      </trkpt>
      <trkpt lat="44.18782" lon="5.10832">
        <ele>1530.123</ele>
        <time>2020-09-03T12:38:17Z</time>
      </trkpt>
      <trkpt lat="44.18772" lon="5.10837">
        <ele>1531.413</ele>
        <time>2020-09-03T12:38:18Z</time>
      </trkpt>
      <trkpt lat="44.18772" lon="5.10837">
        <ele>1532.924</ele>
        <time>2020-09-03T12:38:18Z</time>
      </trkpt>
      <trkpt lat="44.18757" lon="5.10856">
        <ele>1534.721</ele>
        <time>2020-09-03T12:38:20Z</time>
      </trkpt>
      <trkpt lat="44.18755" lon="5.1087">
        <ele>1536.207</ele>
        <time>2020-09-03T12:38:21Z</time>
      </trkpt>
      <trkpt lat="44.18758" lon="5.10887">
        <ele>1537.637</ele>
        <time>2020-09-03T12:38:22Z</time>
      </trkpt>
      <trkpt lat="44.18764" lon="5.109">
        <ele>1539.655</ele>
        <time>2020-09-03T12:38:23Z</time>
      </trkpt>
      <trkpt lat="44.18771" lon="5.1091">
        <ele>1541.608</ele>
        <time>2020-09-03T12:38:24Z</time>
      </trkpt>
      <trkpt lat="44.18779" lon="5.10918">
        <ele>1543.455</ele>
        <time>2020-09-03T12:38:25Z</time>
      </trkpt>
      <trkpt lat="44.18779" lon="5.10918">
        <ele>1544.611</ele>
        <time>2020-09-03T12:38:25Z</time>
      </trkpt>
      <trkpt lat="44.18796" lon="5.10923">
        <ele>1546.419</ele>
        <time>2020-09-03T12:38:27Z</time>
      </trkpt>
      <trkpt lat="44.18804" lon="5.1092">
        <ele>1548.359</ele>
        <time>2020-09-03T12:38:28Z</time>
      </trkpt>
      <trkpt lat="44.18818" lon="5.10908">
        <ele>1550.866</ele>
        <time>2020-09-03T12:38:30Z</time>
      </trkpt>
      <trkpt lat="44.18823" lon="5.10901">
        <ele>1553.073</ele>
        <time>2020-09-03T12:38:31Z</time>
      </trkpt>
      <trkpt lat="44.18828" lon="5.10893">
        <ele>1555.629</ele>
        <time>2020-09-03T12:38:32Z</time>
      </trkpt>
      <trkpt lat="44.1883" lon="5.10885">
        <ele>1557.646</ele>
        <time>2020-09-03T12:38:33Z</time>
      </trkpt>
      <trkpt lat="44.1883" lon="5.10876">
        <ele>1559.523</ele>
        <time>2020-09-03T12:38:34Z</time>
      </trkpt>
      <trkpt lat="44.18828" lon="5.10867">
        <ele>1561.197</ele>
        <time>2020-09-03T12:38:35Z</time>
      </trkpt>
      <trkpt lat="44.1882" lon="5.10863">
        <ele>1562.64</ele>
        <time>2020-09-03T12:38:36Z</time>
      </trkpt>
      <trkpt lat="44.18811" lon="5.10865">
        <ele>1563.947</ele>
        <time>2020-09-03T12:38:37Z</time>
      </trkpt>
      <trkpt lat="44.18802" lon="5.10872">
        <ele>1564.965</ele>
        <time>2020-09-03T12:38:38Z</time>
      </trkpt>
      <trkpt lat="44.18794" lon="5.10881">
        <ele>1565.922</ele>
        <time>2020-09-03T12:38:39Z</time>
      </trkpt>
      <trkpt lat="44.18788" lon="5.10893">
        <ele>1566.791</ele>
        <time>2020-09-03T12:38:40Z</time>
      </trkpt>
      <trkpt lat="44.18784" lon="5.10907">
        <ele>1568.012</ele>
        <time>2020-09-03T12:38:41Z</time>
      </trkpt>
      <trkpt lat="44.18784" lon="5.10923">
        <ele>1569.114</ele>
        <time>2020-09-03T12:38:42Z</time>
      </trkpt>
      <trkpt lat="44.18786" lon="5.10937">
        <ele>1570.123</ele>
        <time>2020-09-03T12:38:43Z</time>
      </trkpt>
      <trkpt lat="44.18789" lon="5.1095">
        <ele>1571.046</ele>
        <time>2020-09-03T12:38:44Z</time>
      </trkpt>
      <trkpt lat="44.18798" lon="5.10961">
        <ele>1572.054</ele>
        <time>2020-09-03T12:38:45Z</time>
      </trkpt>
      <trkpt lat="44.18806" lon="5.10969">
        <ele>1573.058</ele>
        <time>2020-09-03T12:38:46Z</time>
      </trkpt>
      <trkpt lat="44.18815" lon="5.10975">
        <ele>1574.882</ele>
        <time>2020-09-03T12:38:47Z</time>
      </trkpt>
      <trkpt lat="44.18825" lon="5.10976">
        <ele>1576.658</ele>
        <time>2020-09-03T12:38:48Z</time>
      </trkpt>
      <trkpt lat="44.18833" lon="5.10974">
        <ele>1578.303</ele>
        <time>2020-09-03T12:38:49Z</time>
      </trkpt>
      <trkpt lat="44.18833" lon="5.10974">
        <ele>1580.056</ele>
        <time>2020-09-03T12:38:49Z</time>
      </trkpt>
      <trkpt lat="44.18851" lon="5.10959">
        <ele>1581.837</ele>
        <time>2020-09-03T12:38:52Z</time>
      </trkpt>
      <trkpt lat="44.18855" lon="5.1095">
        <ele>1583.533</ele>
        <time>2020-09-03T12:38:53Z</time>
      </trkpt>
      <trkpt lat="44.18856" lon="5.10941">
        <ele>1584.351</ele>
        <time>2020-09-03T12:38:54Z</time>
      </trkpt>
      <trkpt lat="44.18856" lon="5.10931">
        <ele>1585.66</ele>
        <time>2020-09-03T12:38:55Z</time>
      </trkpt>
      <trkpt lat="44.18854" lon="5.10921">
        <ele>1587.339</ele>
        <time>2020-09-03T12:38:56Z</time>
      </trkpt>
      <trkpt lat="44.18851" lon="5.10913">
        <ele>1588.968</ele>
        <time>2020-09-03T12:38:57Z</time>
      </trkpt>
      <trkpt lat="44.18848" lon="5.10905">
        <ele>1590.74</ele>
        <time>2020-09-03T12:38:58Z</time>
      </trkpt>
      <trkpt lat="44.18844" lon="5.10899">
        <ele>1592.569</ele>
        <time>2020-09-03T12:38:59Z</time>
      </trkpt>
      <trkpt lat="44.1884" lon="5.10894">
        <ele>1594.876</ele>
        <time>2020-09-03T12:39:00Z</time>
      </trkpt>
      <trkpt lat="44.18835" lon="5.10889">
        <ele>1596.866</ele>
        <time>2020-09-03T12:39:01Z</time>
      </trkpt>
      <trkpt lat="44.18831" lon="5.10882">
        <ele>1598.927</ele>
        <time>2020-09-03T12:39:02Z</time>
      </trkpt>
      <trkpt lat="44.18828" lon="5.10874">
        <ele>1600.652</ele>
        <time>2020-09-03T12:39:03Z</time>
      </trkpt>
      <trkpt lat="44.18825" lon="5.10865">
        <ele>1602.198</ele>
        <time>2020-09-03T12:39:04Z</time>
      </trkpt>
      <trkpt lat="44.18821" lon="5.10857">
        <ele>1603.477</ele>
        <time>2020-09-03T12:39:05Z</time>
      </trkpt>
      <trkpt lat="44.18821" lon="5.10857">
        <ele>1604.248</ele>
        <time>2020-09-03T12:39:05Z</time>
      </trkpt>
      <trkpt lat="44.18821" lon="5.10857">
        <ele>1605.197</ele>
        <time>2020-09-03T12:39:05Z</time>
      </trkpt>
      <trkpt lat="44.18797" lon="5.10861">
        <ele>1606.41</ele>
        <time>2020-09-03T12:39:08Z</time>
      </trkpt>
      <trkpt lat="44.18789" lon="5.10871">
        <ele>1608.262</ele>
        <time>2020-09-03T12:39:09Z</time>
      </trkpt>
      <trkpt lat="44.18789" lon="5.10871">
        <ele>1610.236</ele>
        <time>2020-09-03T12:39:09Z</time>
      </trkpt>
      <trkpt lat="44.18789" lon="5.10871">
        <ele>1612.363</ele>
        <time>2020-09-03T12:39:09Z</time>
      </trkpt>
      <trkpt lat="44.18789" lon="5.10871">
        <ele>1614.34</ele>
        <time>2020-09-03T12:39:09Z</time>
      </trkpt>
      <trkpt lat="44.18789" lon="5.10871">
        <ele>1616.618</ele>
        <time>2020-09-03T12:39:09Z</time>
      </trkpt>
      <trkpt lat="44.18792" lon="5.1095">
        <ele>1618.453</ele>
        <time>2020-09-03T12:39:15Z</time>
      </trkpt>
      <trkpt lat="44.18802" lon="5.10954">
        <ele>1619.549</ele>
        <time>2020-09-03T12:39:16Z</time>
      </trkpt>
      <trkpt lat="44.18811" lon="5.10952">
        <ele>1620.63</ele>
        <time>2020-09-03T12:39:17Z</time>
      </trkpt>
      <trkpt lat="44.18819" lon="5.10947">
        <ele>1622.12</ele>
        <time>2020-09-03T12:39:18Z</time>
      </trkpt>
      <trkpt lat="44.18823" lon="5.10939">
        <ele>1623.998</ele>
        <time>2020-09-03T12:39:19Z</time>
      </trkpt>
      <trkpt lat="44.18826" lon="5.1093">
        <ele>1625.683</ele>
        <time>2020-09-03T12:39:20Z</time>
      </trkpt>
      <trkpt lat="44.18826" lon="5.10921">
        <ele>1627.363</ele>
        <time>2020-09-03T12:39:21Z</time>
      </trkpt>
      <trkpt lat="44.18826" lon="5.10921">
        <ele>1628.433</ele>
        <time>2020-09-03T12:39:21Z</time>
      </trkpt>
      <trkpt lat="44.18816" lon="5.10909">
        <ele>1629.562</ele>
        <time>2020-09-03T12:39:23Z</time>
      </trkpt>
      <trkpt lat="44.18806" lon="5.1091">
        <ele>1630.827</ele>
        <time>2020-09-03T12:39:24Z</time>
      </trkpt>
      <trkpt lat="44.18797" lon="5.10917">
        <ele>1632.319</ele>
        <time>2020-09-03T12:39:25Z</time>
      </trkpt>
      <trkpt lat="44.1879" lon="5.10929">
        <ele>1634.096</ele>
        <time>2020-09-03T12:39:26Z</time>
      </trkpt>
      <trkpt lat="44.18787" lon="5.10943">
        <ele>1636.312</ele>
        <time>2020-09-03T12:39:27Z</time>
      </trkpt>
      <trkpt lat="44.18788" lon="5.10957">
        <ele>1637.996</ele>
        <time>2020-09-03T12:39:28Z</time>
      </trkpt>
      <trkpt lat="44.18792" lon="5.1097">
        <ele>1639.638</ele>
        <time>2020-09-03T12:39:29Z</time>
      </trkpt>
      <trkpt lat="44.18798" lon="5.10983">
        <ele>1641.011</ele>
        <time>2020-09-03T12:39:30Z</time>
      </trkpt>
      <trkpt lat="44.18805" lon="5.10991">
        <ele>1642.333</ele>
        <time>2020-09-03T12:39:31Z</time>
      </trkpt>
      <trkpt lat="44.18813" lon="5.10997">
        <ele>1643.459</ele>
        <time>2020-09-03T12:39:32Z</time>
      </trkpt>
      <trkpt lat="44.18813" lon="5.10997">
        <ele>1644.285</ele>
        <time>2020-09-03T12:39:32Z</time>
      </trkpt>
      <trkpt lat="44.18831" lon="5.10998">
        <ele>1644.921</ele>
        <time>2020-09-03T12:39:34Z</time>
      </trkpt>
      <trkpt lat="44.18831" lon="5.10998">
        <ele>1645.775</ele>
        <time>2020-09-03T12:39:34Z</time>
      </trkpt>
      <trkpt lat="44.18831" lon="5.10998">
        <ele>1646.737</ele>
        <time>2020-09-03T12:39:34Z</time>
      </trkpt>
      <trkpt lat="44.18831" lon="5.10998">
        <ele>1647.702</ele>
        <time>2020-09-03T12:39:34Z</time>
      </trkpt>
      <trkpt lat="44.18831" lon="5.10998">
        <ele>1648.777</ele>
        <time>2020-09-03T12:39:34Z</time>
      </trkpt>
      <trkpt lat="44.18863" lon="5.10949">
        <ele>1649.694</ele>
        <time>2020-09-03T12:39:40Z</time>
      </trkpt>
      <trkpt lat="44.18863" lon="5.10938">
        <ele>1650.471</ele>
        <time>2020-09-03T12:39:41Z</time>
      </trkpt>
      <trkpt lat="44.1886" lon="5.10928">
        <ele>1651.115</ele>
        <time>2020-09-03T12:39:42Z</time>
      </trkpt>
      <trkpt lat="44.18855" lon="5.10919">
        <ele>1651.689</ele>
        <time>2020-09-03T12:39:43Z</time>
      </trkpt>
      <trkpt lat="44.18849" lon="5.10913">
        <ele>1652.421</ele>
        <time>2020-09-03T12:39:44Z</time>
      </trkpt>
      <trkpt lat="44.18842" lon="5.10908">
        <ele>1653.388</ele>
        <time>2020-09-03T12:39:45Z</time>
      </trkpt>
      <trkpt lat="44.18834" lon="5.10907">
        <ele>1654.284</ele>
        <time>2020-09-03T12:39:46Z</time>
      </trkpt>
      <trkpt lat="44.18827" lon="5.10907">
        <ele>1654.968</ele>
        <time>2020-09-03T12:39:47Z</time>
      </trkpt>
      <trkpt lat="44.18827" lon="5.10907">
        <ele>1655.757</ele>
        <time>2020-09-03T12:39:47Z</time>
      </trkpt>
      <trkpt lat="44.18827" lon="5.10907">
        <ele>1656.299</ele>
        <time>2020-09-03T12:39:47Z</time>
      </trkpt>
      <trkpt lat="44.18794" lon="5.10926">
        <ele>1657.344</ele>
        <time>2020-09-03T12:39:51Z</time>
      </trkpt>
      <trkpt lat="44.18786" lon="5.10933">
        <ele>1658.611</ele>
        <time>2020-09-03T12:39:52Z</time>
      </trkpt>
      <trkpt lat="44.18777" lon="5.10939">
        <ele>1660.216</ele>
        <time>2020-09-03T12:39:53Z</time>
      </trkpt>
      <trkpt lat="44.18777" lon="5.10939">
        <ele>1662.334</ele>
        <time>2020-09-03T12:39:53Z</time>
      </trkpt>
      <trkpt lat="44.1876" lon="5.10955">
        <ele>1664.552</ele>
        <time>2020-09-03T12:39:55Z</time>
      </trkpt>
      <trkpt lat="44.18753" lon="5.10965">
        <ele>1666.848</ele>
        <time>2020-09-03T12:39:56Z</time>
      </trkpt>
      <trkpt lat="44.18747" lon="5.10979">
        <ele>1669.159</ele>
        <time>2020-09-03T12:39:57Z</time>
      </trkpt>
      <trkpt lat="44.18746" lon="5.10996">
        <ele>1671.429</ele>
        <time>2020-09-03T12:39:58Z</time>
      </trkpt>
      <trkpt lat="44.18746" lon="5.10996">
        <ele>1674.318</ele>
        <time>2020-09-03T12:39:58Z</time>
      </trkpt>
      <trkpt lat="44.18751" lon="5.11023">
        <ele>1677.829</ele>
        <time>2020-09-03T12:40:00Z</time>
      </trkpt>
      <trkpt lat="44.18758" lon="5.11032">
        <ele>1680.897</ele>
        <time>2020-09-03T12:40:01Z</time>
      </trkpt>
      <trkpt lat="44.18767" lon="5.11037">
        <ele>1683.402</ele>
        <time>2020-09-03T12:40:02Z</time>
      </trkpt>
      <trkpt lat="44.18777" lon="5.11034">
        <ele>1684.881</ele>
        <time>2020-09-03T12:40:03Z</time>
      </trkpt>
      <trkpt lat="44.18777" lon="5.11034">
        <ele>1685.295</ele>
        <time>2020-09-03T12:40:03Z</time>
      </trkpt>
      <trkpt lat="44.18787" lon="5.11012">
        <ele>1685.102</ele>
        <time>2020-09-03T12:40:05Z</time>
      </trkpt>
      <trkpt lat="44.18784" lon="5.11">
        <ele>1685.105</ele>
        <time>2020-09-03T12:40:06Z</time>
      </trkpt>
      <trkpt lat="44.18779" lon="5.1099">
        <ele>1685.835</ele>
        <time>2020-09-03T12:40:07Z</time>
      </trkpt>
      <trkpt lat="44.18772" lon="5.10984">
        <ele>1687.298</ele>
        <time>2020-09-03T12:40:08Z</time>
      </trkpt>
      <trkpt lat="44.18763" lon="5.10981">
        <ele>1689.123</ele>
        <time>2020-09-03T12:40:09Z</time>
      </trkpt>
      <trkpt lat="44.18754" lon="5.10979">
        <ele>1691.178</ele>
        <time>2020-09-03T12:40:10Z</time>
      </trkpt>
      <trkpt lat="44.18744" lon="5.10979">
        <ele>1694.805</ele>
        <time>2020-09-03T12:40:11Z</time>
      </trkpt>
      <trkpt lat="44.18744" lon="5.10979">
        <ele>1698.553</ele>
        <time>2020-09-03T12:40:11Z</time>
      </trkpt>
      <trkpt lat="44.18726" lon="5.10983">
        <ele>1702.324</ele>
        <time>2020-09-03T12:40:13Z</time>
      </trkpt>
      <trkpt lat="44.18712" lon="5.10995">
        <ele>1704.866</ele>
        <time>2020-09-03T12:40:15Z</time>
      </trkpt>
      <trkpt lat="44.18706" lon="5.11004">
        <ele>1707.217</ele>
        <time>2020-09-03T12:40:16Z</time>
      </trkpt>
      <trkpt lat="44.18702" lon="5.11016">
        <ele>1708.511</ele>
        <time>2020-09-03T12:40:17Z</time>
      </trkpt>
      <trkpt lat="44.18701" lon="5.11029">
        <ele>1708.922</ele>
        <time>2020-09-03T12:40:18Z</time>
      </trkpt>
      <trkpt lat="44.18704" lon="5.11044">
        <ele>1709.301</ele>
        <time>2020-09-03T12:40:19Z</time>
      </trkpt>
      <trkpt lat="44.18707" lon="5.11057">
        <ele>1709.685</ele>
        <time>2020-09-03T12:40:20Z</time>
      </trkpt>
      <trkpt lat="44.18713" lon="5.11068">
        <ele>1710.088</ele>
        <time>2020-09-03T12:40:21Z</time>
      </trkpt>
      <trkpt lat="44.1872" lon="5.11078">
        <ele>1710.842</ele>
        <time>2020-09-03T12:40:22Z</time>
      </trkpt>
      <trkpt lat="44.18727" lon="5.11087">
        <ele>1712.029</ele>
        <time>2020-09-03T12:40:23Z</time>
      </trkpt>
      <trkpt lat="44.18734" lon="5.11095">
        <ele>1713.604</ele>
        <time>2020-09-03T12:40:24Z</time>
      </trkpt>
      <trkpt lat="44.18741" lon="5.11105">
        <ele>1715.338</ele>
        <time>2020-09-03T12:40:25Z</time>
      </trkpt>
      <trkpt lat="44.18747" lon="5.11116">
        <ele>1717.174</ele>
        <time>2020-09-03T12:40:26Z</time>
      </trkpt>
      <trkpt lat="44.18754" lon="5.11127">
        <ele>1718.945</ele>
        <time>2020-09-03T12:40:27Z</time>
      </trkpt>
      <trkpt lat="44.18761" lon="5.11139">
        <ele>1720.214</ele>
        <time>2020-09-03T12:40:28Z</time>
      </trkpt>
      <trkpt lat="44.18767" lon="5.11151">
        <ele>1720.92</ele>
        <time>2020-09-03T12:40:29Z</time>
      </trkpt>
      <trkpt lat="44.18771" lon="5.11164">
        <ele>1721.17</ele>
        <time>2020-09-03T12:40:30Z</time>
      </trkpt>
      <trkpt lat="44.18772" lon="5.11175">
        <ele>1720.566</ele>
        <time>2020-09-03T12:40:31Z</time>
      </trkpt>
      <trkpt lat="44.18772" lon="5.11175">
        <ele>1719.192</ele>
        <time>2020-09-03T12:40:31Z</time>
      </trkpt>
      <trkpt lat="44.18765" lon="5.11195">
        <ele>1717.029</ele>
        <time>2020-09-03T12:40:33Z</time>
      </trkpt>
      <trkpt lat="44.1875" lon="5.11202">
        <ele>1714.522</ele>
        <time>2020-09-03T12:40:35Z</time>
      </trkpt>
      <trkpt lat="44.18741" lon="5.11202">
        <ele>1712.348</ele>
        <time>2020-09-03T12:40:36Z</time>
      </trkpt>
      <trkpt lat="44.18733" lon="5.112">
        <ele>1710.62</ele>
        <time>2020-09-03T12:40:37Z</time>
      </trkpt>
      <trkpt lat="44.18726" lon="5.11197">
        <ele>1709.293</ele>
        <time>2020-09-03T12:40:38Z</time>
      </trkpt>
      <trkpt lat="44.18719" lon="5.11192">
        <ele>1708.321</ele>
        <time>2020-09-03T12:40:39Z</time>
      </trkpt>
      <trkpt lat="44.18715" lon="5.11184">
        <ele>1707.738</ele>
        <time>2020-09-03T12:40:40Z</time>
      </trkpt>
      <trkpt lat="44.18715" lon="5.11184">
        <ele>1707.899</ele>
        <time>2020-09-03T12:40:40Z</time>
      </trkpt>
      <trkpt lat="44.18711" lon="5.11164">
        <ele>1708.458</ele>
        <time>2020-09-03T12:40:42Z</time>
      </trkpt>
      <trkpt lat="44.18709" lon="5.11155">
        <ele>1709.229</ele>
        <time>2020-09-03T12:40:43Z</time>
      </trkpt>
      <trkpt lat="44.18705" lon="5.11137">
        <ele>1710.286</ele>
        <time>2020-09-03T12:40:45Z</time>
      </trkpt>
      <trkpt lat="44.18701" lon="5.11129">
        <ele>1710.926</ele>
        <time>2020-09-03T12:40:46Z</time>
      </trkpt>
      <trkpt lat="44.18697" lon="5.11121">
        <ele>1711.849</ele>
        <time>2020-09-03T12:40:47Z</time>
      </trkpt>
      <trkpt lat="44.18694" lon="5.11112">
        <ele>1712.544</ele>
        <time>2020-09-03T12:40:48Z</time>
      </trkpt>
      <trkpt lat="44.18694" lon="5.11112">
        <ele>1713.096</ele>
        <time>2020-09-03T12:40:48Z</time>
      </trkpt>
      <trkpt lat="44.18688" lon="5.11092">
        <ele>1713.457</ele>
        <time>2020-09-03T12:40:50Z</time>
      </trkpt>
      <trkpt lat="44.18687" lon="5.11082">
        <ele>1713.696</ele>
        <time>2020-09-03T12:40:51Z</time>
      </trkpt>
      <trkpt lat="44.18686" lon="5.11071">
        <ele>1713.777</ele>
        <time>2020-09-03T12:40:52Z</time>
      </trkpt>
      <trkpt lat="44.18686" lon="5.1106">
        <ele>1713.901</ele>
        <time>2020-09-03T12:40:53Z</time>
      </trkpt>
      <trkpt lat="44.18686" lon="5.1106">
        <ele>1714.058</ele>
        <time>2020-09-03T12:40:53Z</time>
      </trkpt>
      <trkpt lat="44.18685" lon="5.11035">
        <ele>1714.463</ele>
        <time>2020-09-03T12:40:55Z</time>
      </trkpt>
      <trkpt lat="44.18685" lon="5.11023">
        <ele>1715.1</ele>
        <time>2020-09-03T12:40:56Z</time>
      </trkpt>
      <trkpt lat="44.18685" lon="5.1101">
        <ele>1715.989</ele>
        <time>2020-09-03T12:40:57Z</time>
      </trkpt>
      <trkpt lat="44.18687" lon="5.10998">
        <ele>1717.4</ele>
        <time>2020-09-03T12:40:58Z</time>
      </trkpt>
      <trkpt lat="44.18688" lon="5.10987">
        <ele>1718.918</ele>
        <time>2020-09-03T12:40:59Z</time>
      </trkpt>
      <trkpt lat="44.18689" lon="5.10976">
        <ele>1720.409</ele>
        <time>2020-09-03T12:41:00Z</time>
      </trkpt>
      <trkpt lat="44.18689" lon="5.10966">
        <ele>1721.662</ele>
        <time>2020-09-03T12:41:01Z</time>
      </trkpt>
      <trkpt lat="44.18689" lon="5.10966">
        <ele>1722.53</ele>
        <time>2020-09-03T12:41:01Z</time>
      </trkpt>
      <trkpt lat="44.1869" lon="5.10945">
        <ele>1723.433</ele>
        <time>2020-09-03T12:41:03Z</time>
      </trkpt>
      <trkpt lat="44.18688" lon="5.10923">
        <ele>1724.416</ele>
        <time>2020-09-03T12:41:05Z</time>
      </trkpt>
      <trkpt lat="44.18688" lon="5.10912">
        <ele>1726.426</ele>
        <time>2020-09-03T12:41:06Z</time>
      </trkpt>
      <trkpt lat="44.18688" lon="5.10902">
        <ele>1727.971</ele>
        <time>2020-09-03T12:41:07Z</time>
      </trkpt>
      <trkpt lat="44.18688" lon="5.10902">
        <ele>1728.714</ele>
        <time>2020-09-03T12:41:07Z</time>
      </trkpt>
      <trkpt lat="44.18691" lon="5.1088">
        <ele>1728.926</ele>
        <time>2020-09-03T12:41:09Z</time>
      </trkpt>
      <trkpt lat="44.1869" lon="5.10869">
        <ele>1728.831</ele>
        <time>2020-09-03T12:41:10Z</time>
      </trkpt>
      <trkpt lat="44.18688" lon="5.10856">
        <ele>1728.749</ele>
        <time>2020-09-03T12:41:11Z</time>
      </trkpt>
      <trkpt lat="44.18682" lon="5.10845">
        <ele>1729.163</ele>
        <time>2020-09-03T12:41:12Z</time>
      </trkpt>
      <trkpt lat="44.18675" lon="5.10837">
        <ele>1730.385</ele>
        <time>2020-09-03T12:41:13Z</time>
      </trkpt>
      <trkpt lat="44.18667" lon="5.10832">
        <ele>1731.633</ele>
        <time>2020-09-03T12:41:14Z</time>
      </trkpt>
      <trkpt lat="44.18659" lon="5.10832">
        <ele>1733.818</ele>
        <time>2020-09-03T12:41:15Z</time>
      </trkpt>
      <trkpt lat="44.18651" lon="5.10832">
        <ele>1735.311</ele>
        <time>2020-09-03T12:41:16Z</time>
      </trkpt>
      <trkpt lat="44.18642" lon="5.10832">
        <ele>1736.959</ele>
        <time>2020-09-03T12:41:17Z</time>
      </trkpt>
      <trkpt lat="44.18633" lon="5.10833">
        <ele>1737.658</ele>
        <time>2020-09-03T12:41:18Z</time>
      </trkpt>
      <trkpt lat="44.18624" lon="5.10838">
        <ele>1737.961</ele>
        <time>2020-09-03T12:41:19Z</time>
      </trkpt>
      <trkpt lat="44.18615" lon="5.10847">
        <ele>1738.151</ele>
        <time>2020-09-03T12:41:20Z</time>
      </trkpt>
      <trkpt lat="44.18615" lon="5.10847">
        <ele>1738.423</ele>
        <time>2020-09-03T12:41:20Z</time>
      </trkpt>
      <trkpt lat="44.18615" lon="5.10847">
        <ele>1739.269</ele>
        <time>2020-09-03T12:41:20Z</time>
      </trkpt>
      <trkpt lat="44.18603" lon="5.10887">
        <ele>1740.773</ele>
        <time>2020-09-03T12:41:23Z</time>
      </trkpt>
      <trkpt lat="44.18606" lon="5.10911">
        <ele>1742.742</ele>
        <time>2020-09-03T12:41:25Z</time>
      </trkpt>
      <trkpt lat="44.1861" lon="5.10919">
        <ele>1744.597</ele>
        <time>2020-09-03T12:41:26Z</time>
      </trkpt>
      <trkpt lat="44.18614" lon="5.10925">
        <ele>1746.141</ele>
        <time>2020-09-03T12:41:27Z</time>
      </trkpt>
      <trkpt lat="44.18622" lon="5.10928">
        <ele>1746.649</ele>
        <time>2020-09-03T12:41:28Z</time>
      </trkpt>
      <trkpt lat="44.1863" lon="5.10927">
        <ele>1746.852</ele>
        <time>2020-09-03T12:41:29Z</time>
      </trkpt>
      <trkpt lat="44.1863" lon="5.10927">
        <ele>1747.468</ele>
        <time>2020-09-03T12:41:29Z</time>
      </trkpt>
      <trkpt lat="44.18654" lon="5.10912">
        <ele>1748.854</ele>
        <time>2020-09-03T12:41:32Z</time>
      </trkpt>
      <trkpt lat="44.1866" lon="5.10905">
        <ele>1750.836</ele>
        <time>2020-09-03T12:41:33Z</time>
      </trkpt>
      <trkpt lat="44.18665" lon="5.10898">
        <ele>1752.396</ele>
        <time>2020-09-03T12:41:34Z</time>
      </trkpt>
      <trkpt lat="44.1867" lon="5.10889">
        <ele>1753.405</ele>
        <time>2020-09-03T12:41:35Z</time>
      </trkpt>
      <trkpt lat="44.18674" lon="5.10878">
        <ele>1753.758</ele>
        <time>2020-09-03T12:41:36Z</time>
      </trkpt>
      <trkpt lat="44.18676" lon="5.10865">
        <ele>1753.751</ele>
        <time>2020-09-03T12:41:37Z</time>
      </trkpt>
      <trkpt lat="44.18673" lon="5.10852">
        <ele>1753.995</ele>
        <time>2020-09-03T12:41:38Z</time>
      </trkpt>
      <trkpt lat="44.18667" lon="5.10842">
        <ele>1754.882</ele>
        <time>2020-09-03T12:41:39Z</time>
      </trkpt>
      <trkpt lat="44.18661" lon="5.10834">
        <ele>1756.218</ele>
        <time>2020-09-03T12:41:40Z</time>
      </trkpt>
      <trkpt lat="44.18653" lon="5.10827">
        <ele>1758.052</ele>
        <time>2020-09-03T12:41:41Z</time>
      </trkpt>
      <trkpt lat="44.18645" lon="5.10823">
        <ele>1758.817</ele>
        <time>2020-09-03T12:41:42Z</time>
      </trkpt>
      <trkpt lat="44.18636" lon="5.10819">
        <ele>1760.204</ele>
        <time>2020-09-03T12:41:43Z</time>
      </trkpt>
      <trkpt lat="44.18628" lon="5.10816">
        <ele>1760.68</ele>
        <time>2020-09-03T12:41:44Z</time>
      </trkpt>
      <trkpt lat="44.18619" lon="5.10814">
        <ele>1760.631</ele>
        <time>2020-09-03T12:41:45Z</time>
      </trkpt>
      <trkpt lat="44.18609" lon="5.10813">
        <ele>1760.168</ele>
        <time>2020-09-03T12:41:46Z</time>
      </trkpt>
      <trkpt lat="44.18601" lon="5.10815">
        <ele>1759.588</ele>
        <time>2020-09-03T12:41:47Z</time>
      </trkpt>
      <trkpt lat="44.18591" lon="5.10819">
        <ele>1758.934</ele>
        <time>2020-09-03T12:41:48Z</time>
      </trkpt>
      <trkpt lat="44.18582" lon="5.10823">
        <ele>1758.538</ele>
        <time>2020-09-03T12:41:49Z</time>
      </trkpt>
      <trkpt lat="44.18563" lon="5.10831">
        <ele>1758.23</ele>
        <time>2020-09-03T12:41:51Z</time>
      </trkpt>
      <trkpt lat="44.18554" lon="5.10833">
        <ele>1758.147</ele>
        <time>2020-09-03T12:41:52Z</time>
      </trkpt>
      <trkpt lat="44.18544" lon="5.10834">
        <ele>1758.191</ele>
        <time>2020-09-03T12:41:53Z</time>
      </trkpt>
      <trkpt lat="44.18535" lon="5.10834">
        <ele>1758.266</ele>
        <time>2020-09-03T12:41:54Z</time>
      </trkpt>
      <trkpt lat="44.18527" lon="5.10831">
        <ele>1758.215</ele>
        <time>2020-09-03T12:41:55Z</time>
      </trkpt>
      <trkpt lat="44.18519" lon="5.10827">
        <ele>1757.877</ele>
        <time>2020-09-03T12:41:56Z</time>
      </trkpt>
      <trkpt lat="44.18511" lon="5.1082">
        <ele>1757.35</ele>
        <time>2020-09-03T12:41:57Z</time>
      </trkpt>
      <trkpt lat="44.18505" lon="5.10811">
        <ele>1756.96</ele>
        <time>2020-09-03T12:41:58Z</time>
      </trkpt>
      <trkpt lat="44.18501" lon="5.108">
        <ele>1757.155</ele>
        <time>2020-09-03T12:41:59Z</time>
      </trkpt>
      <trkpt lat="44.18498" lon="5.10788">
        <ele>1758.08</ele>
        <time>2020-09-03T12:42:00Z</time>
      </trkpt>
      <trkpt lat="44.18496" lon="5.10778">
        <ele>1759.506</ele>
        <time>2020-09-03T12:42:01Z</time>
      </trkpt>
      <trkpt lat="44.18495" lon="5.10768">
        <ele>1761.4</ele>
        <time>2020-09-03T12:42:02Z</time>
      </trkpt>
      <trkpt lat="44.18494" lon="5.1076">
        <ele>1762.75</ele>
        <time>2020-09-03T12:42:03Z</time>
      </trkpt>
      <trkpt lat="44.18492" lon="5.10751">
        <ele>1763.727</ele>
        <time>2020-09-03T12:42:04Z</time>
      </trkpt>
      <trkpt lat="44.1849" lon="5.1074">
        <ele>1764.388</ele>
        <time>2020-09-03T12:42:05Z</time>
      </trkpt>
      <trkpt lat="44.18486" lon="5.10729">
        <ele>1764.806</ele>
        <time>2020-09-03T12:42:06Z</time>
      </trkpt>
      <trkpt lat="44.18481" lon="5.10719">
        <ele>1765.245</ele>
        <time>2020-09-03T12:42:07Z</time>
      </trkpt>
      <trkpt lat="44.18476" lon="5.10711">
        <ele>1765.961</ele>
        <time>2020-09-03T12:42:08Z</time>
      </trkpt>
      <trkpt lat="44.18468" lon="5.10704">
        <ele>1767.083</ele>
        <time>2020-09-03T12:42:09Z</time>
      </trkpt>
      <trkpt lat="44.18468" lon="5.10704">
        <ele>1768.143</ele>
        <time>2020-09-03T12:42:09Z</time>
      </trkpt>
      <trkpt lat="44.18468" lon="5.10704">
        <ele>1770.059</ele>
        <time>2020-09-03T12:42:09Z</time>
      </trkpt>
      <trkpt lat="44.18439" lon="5.10679">
        <ele>1771.881</ele>
        <time>2020-09-03T12:42:13Z</time>
      </trkpt>
      <trkpt lat="44.18439" lon="5.10679">
        <ele>1772.284</ele>
        <time>2020-09-03T12:42:13Z</time>
      </trkpt>
      <trkpt lat="44.18422" lon="5.10673">
        <ele>1771.552</ele>
        <time>2020-09-03T12:42:15Z</time>
      </trkpt>
      <trkpt lat="44.1841" lon="5.10676">
        <ele>1770.385</ele>
        <time>2020-09-03T12:42:16Z</time>
      </trkpt>
      <trkpt lat="44.18399" lon="5.10683">
        <ele>1770.364</ele>
        <time>2020-09-03T12:42:17Z</time>
      </trkpt>
      <trkpt lat="44.18391" lon="5.10692">
        <ele>1771.946</ele>
        <time>2020-09-03T12:42:18Z</time>
      </trkpt>
      <trkpt lat="44.18384" lon="5.10702">
        <ele>1774.114</ele>
        <time>2020-09-03T12:42:19Z</time>
      </trkpt>
      <trkpt lat="44.18378" lon="5.10712">
        <ele>1776.808</ele>
        <time>2020-09-03T12:42:20Z</time>
      </trkpt>
      <trkpt lat="44.18378" lon="5.10712">
        <ele>1778.03</ele>
        <time>2020-09-03T12:42:20Z</time>
      </trkpt>
      <trkpt lat="44.18373" lon="5.10751">
        <ele>1778.545</ele>
        <time>2020-09-03T12:42:23Z</time>
      </trkpt>
      <trkpt lat="44.18373" lon="5.10751">
        <ele>1778.269</ele>
        <time>2020-09-03T12:42:23Z</time>
      </trkpt>
      <trkpt lat="44.18384" lon="5.10766">
        <ele>1778.046</ele>
        <time>2020-09-03T12:42:25Z</time>
      </trkpt>
      <trkpt lat="44.18391" lon="5.10766">
        <ele>1778.255</ele>
        <time>2020-09-03T12:42:26Z</time>
      </trkpt>
      <trkpt lat="44.18399" lon="5.10764">
        <ele>1778.793</ele>
        <time>2020-09-03T12:42:27Z</time>
      </trkpt>
      <trkpt lat="44.18406" lon="5.10761">
        <ele>1779.818</ele>
        <time>2020-09-03T12:42:28Z</time>
      </trkpt>
      <trkpt lat="44.18413" lon="5.10758">
        <ele>1781.077</ele>
        <time>2020-09-03T12:42:29Z</time>
      </trkpt>
      <trkpt lat="44.1842" lon="5.10754">
        <ele>1782.404</ele>
        <time>2020-09-03T12:42:30Z</time>
      </trkpt>
      <trkpt lat="44.18427" lon="5.1075">
        <ele>1783.667</ele>
        <time>2020-09-03T12:42:31Z</time>
      </trkpt>
      <trkpt lat="44.18433" lon="5.10744">
        <ele>1784.762</ele>
        <time>2020-09-03T12:42:32Z</time>
      </trkpt>
      <trkpt lat="44.18438" lon="5.10735">
        <ele>1785.884</ele>
        <time>2020-09-03T12:42:33Z</time>
      </trkpt>
      <trkpt lat="44.18442" lon="5.10724">
        <ele>1787.043</ele>
        <time>2020-09-03T12:42:34Z</time>
      </trkpt>
      <trkpt lat="44.18443" lon="5.1071">
        <ele>1788.149</ele>
        <time>2020-09-03T12:42:35Z</time>
      </trkpt>
      <trkpt lat="44.18441" lon="5.10696">
        <ele>1789.529</ele>
        <time>2020-09-03T12:42:36Z</time>
      </trkpt>
      <trkpt lat="44.18438" lon="5.10682">
        <ele>1790.589</ele>
        <time>2020-09-03T12:42:37Z</time>
      </trkpt>
      <trkpt lat="44.1843" lon="5.10672">
        <ele>1791.281</ele>
        <time>2020-09-03T12:42:38Z</time>
      </trkpt>
      <trkpt lat="44.1842" lon="5.10668">
        <ele>1792.233</ele>
        <time>2020-09-03T12:42:39Z</time>
      </trkpt>
      <trkpt lat="44.18409" lon="5.10668">
        <ele>1792.787</ele>
        <time>2020-09-03T12:42:40Z</time>
      </trkpt>
      <trkpt lat="44.18399" lon="5.10672">
        <ele>1793.104</ele>
        <time>2020-09-03T12:42:41Z</time>
      </trkpt>
      <trkpt lat="44.1839" lon="5.10679">
        <ele>1793.233</ele>
        <time>2020-09-03T12:42:42Z</time>
      </trkpt>
      <trkpt lat="44.1839" lon="5.10679">
        <ele>1792.924</ele>
        <time>2020-09-03T12:42:42Z</time>
      </trkpt>
      <trkpt lat="44.18375" lon="5.10709">
        <ele>1792.486</ele>
        <time>2020-09-03T12:42:45Z</time>
      </trkpt>
      <trkpt lat="44.18375" lon="5.1072">
        <ele>1792.416</ele>
        <time>2020-09-03T12:42:46Z</time>
      </trkpt>
      <trkpt lat="44.18379" lon="5.10728">
        <ele>1792.401</ele>
        <time>2020-09-03T12:42:47Z</time>
      </trkpt>
      <trkpt lat="44.18385" lon="5.10732">
        <ele>1792.407</ele>
        <time>2020-09-03T12:42:48Z</time>
      </trkpt>
      <trkpt lat="44.18392" lon="5.10732">
        <ele>1792.494</ele>
        <time>2020-09-03T12:42:49Z</time>
      </trkpt>
      <trkpt lat="44.184" lon="5.10731">
        <ele>1792.576</ele>
        <time>2020-09-03T12:42:50Z</time>
      </trkpt>
      <trkpt lat="44.18408" lon="5.10728">
        <ele>1792.665</ele>
        <time>2020-09-03T12:42:51Z</time>
      </trkpt>
      <trkpt lat="44.18416" lon="5.10723">
        <ele>1792.86</ele>
        <time>2020-09-03T12:42:52Z</time>
      </trkpt>
      <trkpt lat="44.18423" lon="5.10714">
        <ele>1793.302</ele>
        <time>2020-09-03T12:42:53Z</time>
      </trkpt>
      <trkpt lat="44.18429" lon="5.10703">
        <ele>1793.929</ele>
        <time>2020-09-03T12:42:54Z</time>
      </trkpt>
      <trkpt lat="44.18433" lon="5.10692">
        <ele>1794.818</ele>
        <time>2020-09-03T12:42:55Z</time>
      </trkpt>
      <trkpt lat="44.18437" lon="5.10681">
        <ele>1795.656</ele>
        <time>2020-09-03T12:42:56Z</time>
      </trkpt>
      <trkpt lat="44.1844" lon="5.10669">
        <ele>1796.316</ele>
        <time>2020-09-03T12:42:57Z</time>
      </trkpt>
      <trkpt lat="44.18441" lon="5.10656">
        <ele>1797.002</ele>
        <time>2020-09-03T12:42:58Z</time>
      </trkpt>
      <trkpt lat="44.18443" lon="5.10642">
        <ele>1798.08</ele>
        <time>2020-09-03T12:42:59Z</time>
      </trkpt>
      <trkpt lat="44.18446" lon="5.10629">
        <ele>1799.083</ele>
        <time>2020-09-03T12:43:00Z</time>
      </trkpt>
      <trkpt lat="44.18451" lon="5.10617">
        <ele>1800.003</ele>
        <time>2020-09-03T12:43:01Z</time>
      </trkpt>
      <trkpt lat="44.18455" lon="5.10607">
        <ele>1801.087</ele>
        <time>2020-09-03T12:43:02Z</time>
      </trkpt>
      <trkpt lat="44.18459" lon="5.10597">
        <ele>1802.007</ele>
        <time>2020-09-03T12:43:03Z</time>
      </trkpt>
      <trkpt lat="44.18463" lon="5.10575">
        <ele>1802.257</ele>
        <time>2020-09-03T12:43:05Z</time>
      </trkpt>
      <trkpt lat="44.18464" lon="5.10561">
        <ele>1801.77</ele>
        <time>2020-09-03T12:43:06Z</time>
      </trkpt>
      <trkpt lat="44.18462" lon="5.10548">
        <ele>1800.928</ele>
        <time>2020-09-03T12:43:07Z</time>
      </trkpt>
      <trkpt lat="44.18456" lon="5.10536">
        <ele>1799.166</ele>
        <time>2020-09-03T12:43:08Z</time>
      </trkpt>
      <trkpt lat="44.18449" lon="5.10525">
        <ele>1796.903</ele>
        <time>2020-09-03T12:43:09Z</time>
      </trkpt>
      <trkpt lat="44.18439" lon="5.10517">
        <ele>1795.008</ele>
        <time>2020-09-03T12:43:10Z</time>
      </trkpt>
      <trkpt lat="44.18428" lon="5.10512">
        <ele>1793.949</ele>
        <time>2020-09-03T12:43:11Z</time>
      </trkpt>
      <trkpt lat="44.18417" lon="5.10508">
        <ele>1793.461</ele>
        <time>2020-09-03T12:43:12Z</time>
      </trkpt>
      <trkpt lat="44.18417" lon="5.10508">
        <ele>1793.33</ele>
        <time>2020-09-03T12:43:12Z</time>
      </trkpt>
      <trkpt lat="44.18384" lon="5.10509">
        <ele>1793.468</ele>
        <time>2020-09-03T12:43:15Z</time>
      </trkpt>
      <trkpt lat="44.18374" lon="5.10509">
        <ele>1793.522</ele>
        <time>2020-09-03T12:43:16Z</time>
      </trkpt>
      <trkpt lat="44.18363" lon="5.10506">
        <ele>1793.59</ele>
        <time>2020-09-03T12:43:17Z</time>
      </trkpt>
      <trkpt lat="44.18352" lon="5.10503">
        <ele>1793.63</ele>
        <time>2020-09-03T12:43:18Z</time>
      </trkpt>
      <trkpt lat="44.18352" lon="5.10503">
        <ele>1793.66</ele>
        <time>2020-09-03T12:43:18Z</time>
      </trkpt>
      <trkpt lat="44.18331" lon="5.10496">
        <ele>1793.676</ele>
        <time>2020-09-03T12:43:20Z</time>
      </trkpt>
      <trkpt lat="44.18321" lon="5.10492">
        <ele>1793.663</ele>
        <time>2020-09-03T12:43:21Z</time>
      </trkpt>
      <trkpt lat="44.1831" lon="5.10486">
        <ele>1793.428</ele>
        <time>2020-09-03T12:43:22Z</time>
      </trkpt>
      <trkpt lat="44.18299" lon="5.10476">
        <ele>1793.06</ele>
        <time>2020-09-03T12:43:23Z</time>
      </trkpt>
      <trkpt lat="44.18299" lon="5.10476">
        <ele>1792.788</ele>
        <time>2020-09-03T12:43:23Z</time>
      </trkpt>
      <trkpt lat="44.18286" lon="5.10451">
        <ele>1792.687</ele>
        <time>2020-09-03T12:43:25Z</time>
      </trkpt>
      <trkpt lat="44.18281" lon="5.10438">
        <ele>1792.536</ele>
        <time>2020-09-03T12:43:26Z</time>
      </trkpt>
      <trkpt lat="44.18278" lon="5.10426">
        <ele>1792.189</ele>
        <time>2020-09-03T12:43:27Z</time>
      </trkpt>
      <trkpt lat="44.18275" lon="5.10413">
        <ele>1791.179</ele>
        <time>2020-09-03T12:43:28Z</time>
      </trkpt>
      <trkpt lat="44.18273" lon="5.104">
        <ele>1789.841</ele>
        <time>2020-09-03T12:43:29Z</time>
      </trkpt>
      <trkpt lat="44.18272" lon="5.10386">
        <ele>1788.507</ele>
        <time>2020-09-03T12:43:30Z</time>
      </trkpt>
      <trkpt lat="44.18272" lon="5.10371">
        <ele>1787.13</ele>
        <time>2020-09-03T12:43:31Z</time>
      </trkpt>
      <trkpt lat="44.18272" lon="5.10357">
        <ele>1786.099</ele>
        <time>2020-09-03T12:43:32Z</time>
      </trkpt>
      <trkpt lat="44.18272" lon="5.10343">
        <ele>1785.283</ele>
        <time>2020-09-03T12:43:33Z</time>
      </trkpt>
      <trkpt lat="44.18272" lon="5.10343">
        <ele>1784.81</ele>
        <time>2020-09-03T12:43:33Z</time>
      </trkpt>
      <trkpt lat="44.18272" lon="5.10303">
        <ele>1783.962</ele>
        <time>2020-09-03T12:43:36Z</time>
      </trkpt>
      <trkpt lat="44.18273" lon="5.10291">
        <ele>1783.099</ele>
        <time>2020-09-03T12:43:37Z</time>
      </trkpt>
      <trkpt lat="44.18275" lon="5.10279">
        <ele>1781.939</ele>
        <time>2020-09-03T12:43:38Z</time>
      </trkpt>
      <trkpt lat="44.18275" lon="5.10269">
        <ele>1780.293</ele>
        <time>2020-09-03T12:43:39Z</time>
      </trkpt>
      <trkpt lat="44.18277" lon="5.10257">
        <ele>1777.807</ele>
        <time>2020-09-03T12:43:40Z</time>
      </trkpt>
      <trkpt lat="44.1828" lon="5.10243">
        <ele>1774.866</ele>
        <time>2020-09-03T12:43:41Z</time>
      </trkpt>
      <trkpt lat="44.18282" lon="5.1023">
        <ele>1772.887</ele>
        <time>2020-09-03T12:43:42Z</time>
      </trkpt>
      <trkpt lat="44.18285" lon="5.10217">
        <ele>1771.399</ele>
        <time>2020-09-03T12:43:43Z</time>
      </trkpt>
      <trkpt lat="44.18287" lon="5.10206">
        <ele>1769.875</ele>
        <time>2020-09-03T12:43:44Z</time>
      </trkpt>
      <trkpt lat="44.18289" lon="5.10195">
        <ele>1768.246</ele>
        <time>2020-09-03T12:43:45Z</time>
      </trkpt>
      <trkpt lat="44.18291" lon="5.10184">
        <ele>1766.449</ele>
        <time>2020-09-03T12:43:46Z</time>
      </trkpt>
      <trkpt lat="44.18294" lon="5.10171">
        <ele>1763.734</ele>
        <time>2020-09-03T12:43:47Z</time>
      </trkpt>
      <trkpt lat="44.18298" lon="5.10156">
        <ele>1761.191</ele>
        <time>2020-09-03T12:43:48Z</time>
      </trkpt>
      <trkpt lat="44.18301" lon="5.10142">
        <ele>1759.13</ele>
        <time>2020-09-03T12:43:49Z</time>
      </trkpt>
      <trkpt lat="44.18304" lon="5.10129">
        <ele>1757.153</ele>
        <time>2020-09-03T12:43:50Z</time>
      </trkpt>
      <trkpt lat="44.18307" lon="5.10115">
        <ele>1755.673</ele>
        <time>2020-09-03T12:43:51Z</time>
      </trkpt>
      <trkpt lat="44.18309" lon="5.10102">
        <ele>1754.2</ele>
        <time>2020-09-03T12:43:52Z</time>
      </trkpt>
      <trkpt lat="44.18312" lon="5.10087">
        <ele>1752.745</ele>
        <time>2020-09-03T12:43:53Z</time>
      </trkpt>
      <trkpt lat="44.18314" lon="5.10073">
        <ele>1750.556</ele>
        <time>2020-09-03T12:43:54Z</time>
      </trkpt>
      <trkpt lat="44.18321" lon="5.10043">
        <ele>1748.664</ele>
        <time>2020-09-03T12:43:56Z</time>
      </trkpt>
      <trkpt lat="44.18324" lon="5.10029">
        <ele>1747.028</ele>
        <time>2020-09-03T12:43:57Z</time>
      </trkpt>
      <trkpt lat="44.18326" lon="5.10014">
        <ele>1745.749</ele>
        <time>2020-09-03T12:43:58Z</time>
      </trkpt>
      <trkpt lat="44.18329" lon="5.09999">
        <ele>1744.567</ele>
        <time>2020-09-03T12:43:59Z</time>
      </trkpt>
      <trkpt lat="44.18331" lon="5.09983">
        <ele>1743.522</ele>
        <time>2020-09-03T12:44:00Z</time>
      </trkpt>
      <trkpt lat="44.18335" lon="5.09968">
        <ele>1742.872</ele>
        <time>2020-09-03T12:44:01Z</time>
      </trkpt>
      <trkpt lat="44.18335" lon="5.09968">
        <ele>1742.696</ele>
        <time>2020-09-03T12:44:01Z</time>
      </trkpt>
      <trkpt lat="44.1834" lon="5.0994">
        <ele>1741.926</ele>
        <time>2020-09-03T12:44:03Z</time>
      </trkpt>
      <trkpt lat="44.18341" lon="5.09926">
        <ele>1740.5</ele>
        <time>2020-09-03T12:44:04Z</time>
      </trkpt>
      <trkpt lat="44.18344" lon="5.09897">
        <ele>1738.444</ele>
        <time>2020-09-03T12:44:06Z</time>
      </trkpt>
      <trkpt lat="44.18348" lon="5.09881">
        <ele>1736.234</ele>
        <time>2020-09-03T12:44:07Z</time>
      </trkpt>
      <trkpt lat="44.18352" lon="5.09868">
        <ele>1735.207</ele>
        <time>2020-09-03T12:44:08Z</time>
      </trkpt>
      <trkpt lat="44.18355" lon="5.09857">
        <ele>1734.73</ele>
        <time>2020-09-03T12:44:09Z</time>
      </trkpt>
      <trkpt lat="44.18355" lon="5.09846">
        <ele>1734.185</ele>
        <time>2020-09-03T12:44:10Z</time>
      </trkpt>
      <trkpt lat="44.18353" lon="5.09834">
        <ele>1733.38</ele>
        <time>2020-09-03T12:44:11Z</time>
      </trkpt>
      <trkpt lat="44.1835" lon="5.09822">
        <ele>1732.145</ele>
        <time>2020-09-03T12:44:12Z</time>
      </trkpt>
      <trkpt lat="44.18349" lon="5.09809">
        <ele>1730.84</ele>
        <time>2020-09-03T12:44:13Z</time>
      </trkpt>
      <trkpt lat="44.1835" lon="5.09796">
        <ele>1729.486</ele>
        <time>2020-09-03T12:44:14Z</time>
      </trkpt>
      <trkpt lat="44.18354" lon="5.09783">
        <ele>1728.406</ele>
        <time>2020-09-03T12:44:15Z</time>
      </trkpt>
      <trkpt lat="44.18357" lon="5.0977">
        <ele>1727.95</ele>
        <time>2020-09-03T12:44:16Z</time>
      </trkpt>
      <trkpt lat="44.18358" lon="5.09759">
        <ele>1727.916</ele>
        <time>2020-09-03T12:44:17Z</time>
      </trkpt>
      <trkpt lat="44.18358" lon="5.09748">
        <ele>1728.057</ele>
        <time>2020-09-03T12:44:18Z</time>
      </trkpt>
      <trkpt lat="44.18358" lon="5.09738">
        <ele>1728.018</ele>
        <time>2020-09-03T12:44:19Z</time>
      </trkpt>
      <trkpt lat="44.18359" lon="5.09727">
        <ele>1727.428</ele>
        <time>2020-09-03T12:44:20Z</time>
      </trkpt>
      <trkpt lat="44.18361" lon="5.09716">
        <ele>1726.084</ele>
        <time>2020-09-03T12:44:21Z</time>
      </trkpt>
      <trkpt lat="44.18362" lon="5.09703">
        <ele>1725.067</ele>
        <time>2020-09-03T12:44:22Z</time>
      </trkpt>
      <trkpt lat="44.18362" lon="5.09703">
        <ele>1724.609</ele>
        <time>2020-09-03T12:44:22Z</time>
      </trkpt>
      <trkpt lat="44.18361" lon="5.09679">
        <ele>1724.248</ele>
        <time>2020-09-03T12:44:24Z</time>
      </trkpt>
      <trkpt lat="44.18352" lon="5.09658">
        <ele>1723.277</ele>
        <time>2020-09-03T12:44:26Z</time>
      </trkpt>
      <trkpt lat="44.18345" lon="5.09648">
        <ele>1721.954</ele>
        <time>2020-09-03T12:44:27Z</time>
      </trkpt>
      <trkpt lat="44.18339" lon="5.09636">
        <ele>1719.747</ele>
        <time>2020-09-03T12:44:28Z</time>
      </trkpt>
      <trkpt lat="44.18335" lon="5.09622">
        <ele>1717.398</ele>
        <time>2020-09-03T12:44:29Z</time>
      </trkpt>
      <trkpt lat="44.18334" lon="5.09607">
        <ele>1715.683</ele>
        <time>2020-09-03T12:44:30Z</time>
      </trkpt>
      <trkpt lat="44.18334" lon="5.09607">
        <ele>1714.897</ele>
        <time>2020-09-03T12:44:30Z</time>
      </trkpt>
      <trkpt lat="44.18334" lon="5.09581">
        <ele>1713.993</ele>
        <time>2020-09-03T12:44:32Z</time>
      </trkpt>
      <trkpt lat="44.18335" lon="5.09568">
        <ele>1712.566</ele>
        <time>2020-09-03T12:44:33Z</time>
      </trkpt>
      <trkpt lat="44.18335" lon="5.09554">
        <ele>1711.068</ele>
        <time>2020-09-03T12:44:34Z</time>
      </trkpt>
      <trkpt lat="44.18335" lon="5.09541">
        <ele>1709.402</ele>
        <time>2020-09-03T12:44:35Z</time>
      </trkpt>
      <trkpt lat="44.18336" lon="5.09526">
        <ele>1707.687</ele>
        <time>2020-09-03T12:44:36Z</time>
      </trkpt>
      <trkpt lat="44.18337" lon="5.09511">
        <ele>1706.613</ele>
        <time>2020-09-03T12:44:37Z</time>
      </trkpt>
      <trkpt lat="44.18339" lon="5.09497">
        <ele>1705.785</ele>
        <time>2020-09-03T12:44:38Z</time>
      </trkpt>
      <trkpt lat="44.18339" lon="5.09484">
        <ele>1704.475</ele>
        <time>2020-09-03T12:44:39Z</time>
      </trkpt>
      <trkpt lat="44.18339" lon="5.0947">
        <ele>1702.501</ele>
        <time>2020-09-03T12:44:40Z</time>
      </trkpt>
      <trkpt lat="44.18339" lon="5.09457">
        <ele>1699.891</ele>
        <time>2020-09-03T12:44:41Z</time>
      </trkpt>
      <trkpt lat="44.18339" lon="5.09444">
        <ele>1697.446</ele>
        <time>2020-09-03T12:44:42Z</time>
      </trkpt>
      <trkpt lat="44.18339" lon="5.0943">
        <ele>1694.686</ele>
        <time>2020-09-03T12:44:43Z</time>
      </trkpt>
      <trkpt lat="44.18339" lon="5.09416">
        <ele>1691.733</ele>
        <time>2020-09-03T12:44:44Z</time>
      </trkpt>
      <trkpt lat="44.1834" lon="5.09402">
        <ele>1689.015</ele>
        <time>2020-09-03T12:44:45Z</time>
      </trkpt>
      <trkpt lat="44.18343" lon="5.09376">
        <ele>1687.061</ele>
        <time>2020-09-03T12:44:47Z</time>
      </trkpt>
      <trkpt lat="44.18345" lon="5.09364">
        <ele>1685.336</ele>
        <time>2020-09-03T12:44:48Z</time>
      </trkpt>
      <trkpt lat="44.18345" lon="5.09364">
        <ele>1683.54</ele>
        <time>2020-09-03T12:44:48Z</time>
      </trkpt>
      <trkpt lat="44.18352" lon="5.09342">
        <ele>1681.277</ele>
        <time>2020-09-03T12:44:50Z</time>
      </trkpt>
      <trkpt lat="44.18356" lon="5.09329">
        <ele>1678.772</ele>
        <time>2020-09-03T12:44:51Z</time>
      </trkpt>
      <trkpt lat="44.18359" lon="5.09316">
        <ele>1676.83</ele>
        <time>2020-09-03T12:44:52Z</time>
      </trkpt>
      <trkpt lat="44.18362" lon="5.09304">
        <ele>1675.601</ele>
        <time>2020-09-03T12:44:53Z</time>
      </trkpt>
      <trkpt lat="44.18365" lon="5.0929">
        <ele>1676.008</ele>
        <time>2020-09-03T12:44:54Z</time>
      </trkpt>
      <trkpt lat="44.18368" lon="5.09279">
        <ele>1677.247</ele>
        <time>2020-09-03T12:44:55Z</time>
      </trkpt>
      <trkpt lat="44.1837" lon="5.0927">
        <ele>1678.764</ele>
        <time>2020-09-03T12:44:56Z</time>
      </trkpt>
      <trkpt lat="44.1837" lon="5.0927">
        <ele>1680.186</ele>
        <time>2020-09-03T12:44:56Z</time>
      </trkpt>
      <trkpt lat="44.1837" lon="5.0927">
        <ele>1680.777</ele>
        <time>2020-09-03T12:44:56Z</time>
      </trkpt>
      <trkpt lat="44.18372" lon="5.0924">
        <ele>1682.491</ele>
        <time>2020-09-03T12:44:59Z</time>
      </trkpt>
      <trkpt lat="44.18372" lon="5.09228">
        <ele>1684.573</ele>
        <time>2020-09-03T12:45:00Z</time>
      </trkpt>
      <trkpt lat="44.18369" lon="5.09206">
        <ele>1687.293</ele>
        <time>2020-09-03T12:45:02Z</time>
      </trkpt>
      <trkpt lat="44.18367" lon="5.09196">
        <ele>1690.287</ele>
        <time>2020-09-03T12:45:03Z</time>
      </trkpt>
      <trkpt lat="44.18367" lon="5.09196">
        <ele>1692.973</ele>
        <time>2020-09-03T12:45:03Z</time>
      </trkpt>
      <trkpt lat="44.18363" lon="5.09178">
        <ele>1694.971</ele>
        <time>2020-09-03T12:45:05Z</time>
      </trkpt>
      <trkpt lat="44.18363" lon="5.09166">
        <ele>1696.126</ele>
        <time>2020-09-03T12:45:06Z</time>
      </trkpt>
      <trkpt lat="44.18367" lon="5.09156">
        <ele>1696.521</ele>
        <time>2020-09-03T12:45:07Z</time>
      </trkpt>
      <trkpt lat="44.18373" lon="5.09146">
        <ele>1696.314</ele>
        <time>2020-09-03T12:45:08Z</time>
      </trkpt>
      <trkpt lat="44.18373" lon="5.09146">
        <ele>1696.337</ele>
        <time>2020-09-03T12:45:08Z</time>
      </trkpt>
      <trkpt lat="44.18388" lon="5.09139">
        <ele>1697.066</ele>
        <time>2020-09-03T12:45:10Z</time>
      </trkpt>
      <trkpt lat="44.18394" lon="5.09141">
        <ele>1698.42</ele>
        <time>2020-09-03T12:45:11Z</time>
      </trkpt>
      <trkpt lat="44.18399" lon="5.09144">
        <ele>1700.407</ele>
        <time>2020-09-03T12:45:12Z</time>
      </trkpt>
      <trkpt lat="44.18401" lon="5.09151">
        <ele>1702.61</ele>
        <time>2020-09-03T12:45:13Z</time>
      </trkpt>
      <trkpt lat="44.18401" lon="5.09151">
        <ele>1704.75</ele>
        <time>2020-09-03T12:45:13Z</time>
      </trkpt>
      <trkpt lat="44.184" lon="5.09166">
        <ele>1706.613</ele>
        <time>2020-09-03T12:45:15Z</time>
      </trkpt>
      <trkpt lat="44.18396" lon="5.09175">
        <ele>1708.244</ele>
        <time>2020-09-03T12:45:16Z</time>
      </trkpt>
      <trkpt lat="44.18386" lon="5.09184">
        <ele>1710.002</ele>
        <time>2020-09-03T12:45:17Z</time>
      </trkpt>
      <trkpt lat="44.18376" lon="5.09189">
        <ele>1711.519</ele>
        <time>2020-09-03T12:45:18Z</time>
      </trkpt>
      <trkpt lat="44.18364" lon="5.09192">
        <ele>1713.096</ele>
        <time>2020-09-03T12:45:19Z</time>
      </trkpt>
      <trkpt lat="44.1835" lon="5.09191">
        <ele>1714.586</ele>
        <time>2020-09-03T12:45:20Z</time>
      </trkpt>
      <trkpt lat="44.18337" lon="5.09189">
        <ele>1716.521</ele>
        <time>2020-09-03T12:45:21Z</time>
      </trkpt>
      <trkpt lat="44.18327" lon="5.09182">
        <ele>1719.259</ele>
        <time>2020-09-03T12:45:22Z</time>
      </trkpt>
      <trkpt lat="44.18318" lon="5.09172">
        <ele>1722.153</ele>
        <time>2020-09-03T12:45:23Z</time>
      </trkpt>
      <trkpt lat="44.18312" lon="5.0916">
        <ele>1724.255</ele>
        <time>2020-09-03T12:45:24Z</time>
      </trkpt>
      <trkpt lat="44.18307" lon="5.09148">
        <ele>1726.286</ele>
        <time>2020-09-03T12:45:25Z</time>
      </trkpt>
      <trkpt lat="44.18303" lon="5.09123">
        <ele>1727.103</ele>
        <time>2020-09-03T12:45:27Z</time>
      </trkpt>
      <trkpt lat="44.18304" lon="5.09109">
        <ele>1727.612</ele>
        <time>2020-09-03T12:45:28Z</time>
      </trkpt>
      <trkpt lat="44.18304" lon="5.09109">
        <ele>1727.573</ele>
        <time>2020-09-03T12:45:28Z</time>
      </trkpt>
      <trkpt lat="44.18309" lon="5.09083">
        <ele>1727.283</ele>
        <time>2020-09-03T12:45:30Z</time>
      </trkpt>
      <trkpt lat="44.18313" lon="5.09072">
        <ele>1726.918</ele>
        <time>2020-09-03T12:45:31Z</time>
      </trkpt>
      <trkpt lat="44.18317" lon="5.09065">
        <ele>1726.5</ele>
        <time>2020-09-03T12:45:32Z</time>
      </trkpt>
      <trkpt lat="44.18323" lon="5.0906">
        <ele>1725.909</ele>
        <time>2020-09-03T12:45:33Z</time>
      </trkpt>
      <trkpt lat="44.18323" lon="5.0906">
        <ele>1725.533</ele>
        <time>2020-09-03T12:45:33Z</time>
      </trkpt>
      <trkpt lat="44.18337" lon="5.09059">
        <ele>1725.291</ele>
        <time>2020-09-03T12:45:35Z</time>
      </trkpt>
      <trkpt lat="44.18344" lon="5.0906">
        <ele>1725.422</ele>
        <time>2020-09-03T12:45:36Z</time>
      </trkpt>
      <trkpt lat="44.18349" lon="5.09063">
        <ele>1725.811</ele>
        <time>2020-09-03T12:45:37Z</time>
      </trkpt>
      <trkpt lat="44.18353" lon="5.09069">
        <ele>1726.261</ele>
        <time>2020-09-03T12:45:38Z</time>
      </trkpt>
      <trkpt lat="44.18355" lon="5.09076">
        <ele>1726.263</ele>
        <time>2020-09-03T12:45:39Z</time>
      </trkpt>
      <trkpt lat="44.18356" lon="5.09085">
        <ele>1726.444</ele>
        <time>2020-09-03T12:45:40Z</time>
      </trkpt>
      <trkpt lat="44.18357" lon="5.09093">
        <ele>1727.297</ele>
        <time>2020-09-03T12:45:41Z</time>
      </trkpt>
      <trkpt lat="44.18357" lon="5.091">
        <ele>1729.092</ele>
        <time>2020-09-03T12:45:42Z</time>
      </trkpt>
      <trkpt lat="44.18358" lon="5.09106">
        <ele>1731.534</ele>
        <time>2020-09-03T12:45:43Z</time>
      </trkpt>
      <trkpt lat="44.18362" lon="5.09118">
        <ele>1733.858</ele>
        <time>2020-09-03T12:45:45Z</time>
      </trkpt>
      <trkpt lat="44.18364" lon="5.09124">
        <ele>1736.417</ele>
        <time>2020-09-03T12:45:46Z</time>
      </trkpt>
      <trkpt lat="44.18367" lon="5.09131">
        <ele>1738.749</ele>
        <time>2020-09-03T12:45:47Z</time>
      </trkpt>
      <trkpt lat="44.18371" lon="5.09137">
        <ele>1740.637</ele>
        <time>2020-09-03T12:45:48Z</time>
      </trkpt>
      <trkpt lat="44.18376" lon="5.09139">
        <ele>1741.943</ele>
        <time>2020-09-03T12:45:49Z</time>
      </trkpt>
      <trkpt lat="44.18381" lon="5.09133">
        <ele>1741.806</ele>
        <time>2020-09-03T12:45:50Z</time>
      </trkpt>
      <trkpt lat="44.18386" lon="5.09121">
        <ele>1740.314</ele>
        <time>2020-09-03T12:45:51Z</time>
      </trkpt>
      <trkpt lat="44.18388" lon="5.09106">
        <ele>1738.104</ele>
        <time>2020-09-03T12:45:52Z</time>
      </trkpt>
      <trkpt lat="44.18388" lon="5.0909">
        <ele>1735.606</ele>
        <time>2020-09-03T12:45:53Z</time>
      </trkpt>
      <trkpt lat="44.18388" lon="5.0909">
        <ele>1733.996</ele>
        <time>2020-09-03T12:45:53Z</time>
      </trkpt>
      <trkpt lat="44.18388" lon="5.0909">
        <ele>1731.826</ele>
        <time>2020-09-03T12:45:53Z</time>
      </trkpt>
      <trkpt lat="44.18388" lon="5.0909">
        <ele>1730.081</ele>
        <time>2020-09-03T12:45:53Z</time>
      </trkpt>
      <trkpt lat="44.18388" lon="5.0909">
        <ele>1728.59</ele>
        <time>2020-09-03T12:45:53Z</time>
      </trkpt>
      <trkpt lat="44.18388" lon="5.0909">
        <ele>1727.058</ele>
        <time>2020-09-03T12:45:53Z</time>
      </trkpt>
      <trkpt lat="44.18356" lon="5.09021">
        <ele>1725.465</ele>
        <time>2020-09-03T12:45:59Z</time>
      </trkpt>
      <trkpt lat="44.18337" lon="5.09005">
        <ele>1723.711</ele>
        <time>2020-09-03T12:46:01Z</time>
      </trkpt>
      <trkpt lat="44.18328" lon="5.08997">
        <ele>1722.324</ele>
        <time>2020-09-03T12:46:02Z</time>
      </trkpt>
      <trkpt lat="44.18319" lon="5.08989">
        <ele>1720.885</ele>
        <time>2020-09-03T12:46:03Z</time>
      </trkpt>
      <trkpt lat="44.1831" lon="5.08982">
        <ele>1719.68</ele>
        <time>2020-09-03T12:46:04Z</time>
      </trkpt>
      <trkpt lat="44.18301" lon="5.08974">
        <ele>1717.956</ele>
        <time>2020-09-03T12:46:05Z</time>
      </trkpt>
      <trkpt lat="44.18293" lon="5.08964">
        <ele>1716.082</ele>
        <time>2020-09-03T12:46:06Z</time>
      </trkpt>
      <trkpt lat="44.18286" lon="5.08952">
        <ele>1713.867</ele>
        <time>2020-09-03T12:46:07Z</time>
      </trkpt>
      <trkpt lat="44.1828" lon="5.08939">
        <ele>1711.38</ele>
        <time>2020-09-03T12:46:08Z</time>
      </trkpt>
      <trkpt lat="44.18274" lon="5.08909">
        <ele>1709.095</ele>
        <time>2020-09-03T12:46:10Z</time>
      </trkpt>
      <trkpt lat="44.18275" lon="5.08894">
        <ele>1707.643</ele>
        <time>2020-09-03T12:46:11Z</time>
      </trkpt>
      <trkpt lat="44.18277" lon="5.08879">
        <ele>1706.261</ele>
        <time>2020-09-03T12:46:12Z</time>
      </trkpt>
      <trkpt lat="44.1828" lon="5.08865">
        <ele>1705.304</ele>
        <time>2020-09-03T12:46:13Z</time>
      </trkpt>
      <trkpt lat="44.18283" lon="5.08852">
        <ele>1704.817</ele>
        <time>2020-09-03T12:46:14Z</time>
      </trkpt>
      <trkpt lat="44.18284" lon="5.08839">
        <ele>1704.469</ele>
        <time>2020-09-03T12:46:15Z</time>
      </trkpt>
      <trkpt lat="44.18285" lon="5.08826">
        <ele>1704.015</ele>
        <time>2020-09-03T12:46:16Z</time>
      </trkpt>
      <trkpt lat="44.18285" lon="5.08814">
        <ele>1703.302</ele>
        <time>2020-09-03T12:46:17Z</time>
      </trkpt>
      <trkpt lat="44.18287" lon="5.08801">
        <ele>1702.341</ele>
        <time>2020-09-03T12:46:18Z</time>
      </trkpt>
      <trkpt lat="44.18288" lon="5.08787">
        <ele>1701.302</ele>
        <time>2020-09-03T12:46:19Z</time>
      </trkpt>
      <trkpt lat="44.18288" lon="5.08773">
        <ele>1700.53</ele>
        <time>2020-09-03T12:46:20Z</time>
      </trkpt>
      <trkpt lat="44.18286" lon="5.08759">
        <ele>1700.046</ele>
        <time>2020-09-03T12:46:21Z</time>
      </trkpt>
      <trkpt lat="44.18285" lon="5.08747">
        <ele>1699.775</ele>
        <time>2020-09-03T12:46:22Z</time>
      </trkpt>
      <trkpt lat="44.18285" lon="5.08747">
        <ele>1699.562</ele>
        <time>2020-09-03T12:46:22Z</time>
      </trkpt>
      <trkpt lat="44.18283" lon="5.08721">
        <ele>1699.187</ele>
        <time>2020-09-03T12:46:24Z</time>
      </trkpt>
      <trkpt lat="44.18283" lon="5.08721">
        <ele>1698.773</ele>
        <time>2020-09-03T12:46:24Z</time>
      </trkpt>
      <trkpt lat="44.18283" lon="5.08691">
        <ele>1698.431</ele>
        <time>2020-09-03T12:46:26Z</time>
      </trkpt>
      <trkpt lat="44.18282" lon="5.08677">
        <ele>1698.119</ele>
        <time>2020-09-03T12:46:27Z</time>
      </trkpt>
      <trkpt lat="44.18282" lon="5.08662">
        <ele>1697.762</ele>
        <time>2020-09-03T12:46:28Z</time>
      </trkpt>
      <trkpt lat="44.18281" lon="5.08648">
        <ele>1697.284</ele>
        <time>2020-09-03T12:46:29Z</time>
      </trkpt>
      <trkpt lat="44.18282" lon="5.08617">
        <ele>1696.259</ele>
        <time>2020-09-03T12:46:31Z</time>
      </trkpt>
      <trkpt lat="44.18282" lon="5.086">
        <ele>1695.334</ele>
        <time>2020-09-03T12:46:32Z</time>
      </trkpt>
      <trkpt lat="44.18281" lon="5.08583">
        <ele>1694.204</ele>
        <time>2020-09-03T12:46:33Z</time>
      </trkpt>
      <trkpt lat="44.1828" lon="5.08565">
        <ele>1693.269</ele>
        <time>2020-09-03T12:46:34Z</time>
      </trkpt>
      <trkpt lat="44.18278" lon="5.08547">
        <ele>1692.387</ele>
        <time>2020-09-03T12:46:35Z</time>
      </trkpt>
      <trkpt lat="44.18277" lon="5.08529">
        <ele>1690.883</ele>
        <time>2020-09-03T12:46:36Z</time>
      </trkpt>
      <trkpt lat="44.18276" lon="5.08509">
        <ele>1688.786</ele>
        <time>2020-09-03T12:46:37Z</time>
      </trkpt>
      <trkpt lat="44.18275" lon="5.0849">
        <ele>1685.48</ele>
        <time>2020-09-03T12:46:38Z</time>
      </trkpt>
      <trkpt lat="44.18275" lon="5.0847">
        <ele>1680.992</ele>
        <time>2020-09-03T12:46:39Z</time>
      </trkpt>
      <trkpt lat="44.18276" lon="5.08451">
        <ele>1676.273</ele>
        <time>2020-09-03T12:46:40Z</time>
      </trkpt>
      <trkpt lat="44.18276" lon="5.08431">
        <ele>1671.959</ele>
        <time>2020-09-03T12:46:41Z</time>
      </trkpt>
      <trkpt lat="44.18276" lon="5.08411">
        <ele>1668.718</ele>
        <time>2020-09-03T12:46:42Z</time>
      </trkpt>
      <trkpt lat="44.18276" lon="5.08391">
        <ele>1664.107</ele>
        <time>2020-09-03T12:46:43Z</time>
      </trkpt>
      <trkpt lat="44.18274" lon="5.08352">
        <ele>1659.974</ele>
        <time>2020-09-03T12:46:45Z</time>
      </trkpt>
      <trkpt lat="44.18272" lon="5.08336">
        <ele>1656.443</ele>
        <time>2020-09-03T12:46:46Z</time>
      </trkpt>
      <trkpt lat="44.18272" lon="5.08319">
        <ele>1652.548</ele>
        <time>2020-09-03T12:46:47Z</time>
      </trkpt>
      <trkpt lat="44.18273" lon="5.08303">
        <ele>1649.552</ele>
        <time>2020-09-03T12:46:48Z</time>
      </trkpt>
      <trkpt lat="44.18273" lon="5.08303">
        <ele>1646.666</ele>
        <time>2020-09-03T12:46:48Z</time>
      </trkpt>
      <trkpt lat="44.18276" lon="5.08272">
        <ele>1644.776</ele>
        <time>2020-09-03T12:46:50Z</time>
      </trkpt>
      <trkpt lat="44.18277" lon="5.08258">
        <ele>1643.709</ele>
        <time>2020-09-03T12:46:51Z</time>
      </trkpt>
      <trkpt lat="44.18279" lon="5.08243">
        <ele>1642</ele>
        <time>2020-09-03T12:46:52Z</time>
      </trkpt>
      <trkpt lat="44.18281" lon="5.08228">
        <ele>1640.074</ele>
        <time>2020-09-03T12:46:53Z</time>
      </trkpt>
      <trkpt lat="44.18281" lon="5.08228">
        <ele>1637.982</ele>
        <time>2020-09-03T12:46:53Z</time>
      </trkpt>
      <trkpt lat="44.18283" lon="5.08192">
        <ele>1635.528</ele>
        <time>2020-09-03T12:46:55Z</time>
      </trkpt>
      <trkpt lat="44.18283" lon="5.08175">
        <ele>1633.438</ele>
        <time>2020-09-03T12:46:56Z</time>
      </trkpt>
      <trkpt lat="44.18282" lon="5.08159">
        <ele>1631.137</ele>
        <time>2020-09-03T12:46:57Z</time>
      </trkpt>
      <trkpt lat="44.18282" lon="5.08142">
        <ele>1628.813</ele>
        <time>2020-09-03T12:46:58Z</time>
      </trkpt>
      <trkpt lat="44.18282" lon="5.08126">
        <ele>1626.927</ele>
        <time>2020-09-03T12:46:59Z</time>
      </trkpt>
      <trkpt lat="44.18282" lon="5.08109">
        <ele>1625.002</ele>
        <time>2020-09-03T12:47:00Z</time>
      </trkpt>
      <trkpt lat="44.18283" lon="5.08092">
        <ele>1623.519</ele>
        <time>2020-09-03T12:47:01Z</time>
      </trkpt>
      <trkpt lat="44.18283" lon="5.08077">
        <ele>1621.804</ele>
        <time>2020-09-03T12:47:02Z</time>
      </trkpt>
      <trkpt lat="44.18283" lon="5.08061">
        <ele>1620.079</ele>
        <time>2020-09-03T12:47:03Z</time>
      </trkpt>
      <trkpt lat="44.18283" lon="5.08044">
        <ele>1617.849</ele>
        <time>2020-09-03T12:47:04Z</time>
      </trkpt>
      <trkpt lat="44.18283" lon="5.08044">
        <ele>1615.908</ele>
        <time>2020-09-03T12:47:04Z</time>
      </trkpt>
      <trkpt lat="44.18283" lon="5.08044">
        <ele>1614.612</ele>
        <time>2020-09-03T12:47:04Z</time>
      </trkpt>
      <trkpt lat="44.18283" lon="5.08044">
        <ele>1613.465</ele>
        <time>2020-09-03T12:47:04Z</time>
      </trkpt>
      <trkpt lat="44.18283" lon="5.08044">
        <ele>1612.294</ele>
        <time>2020-09-03T12:47:04Z</time>
      </trkpt>
      <trkpt lat="44.18283" lon="5.07962">
        <ele>1610.432</ele>
        <time>2020-09-03T12:47:09Z</time>
      </trkpt>
      <trkpt lat="44.18283" lon="5.07962">
        <ele>1608.272</ele>
        <time>2020-09-03T12:47:09Z</time>
      </trkpt>
      <trkpt lat="44.18283" lon="5.07962">
        <ele>1606.044</ele>
        <time>2020-09-03T12:47:09Z</time>
      </trkpt>
      <trkpt lat="44.18288" lon="5.07909">
        <ele>1604.403</ele>
        <time>2020-09-03T12:47:12Z</time>
      </trkpt>
      <trkpt lat="44.1829" lon="5.07891">
        <ele>1603.258</ele>
        <time>2020-09-03T12:47:13Z</time>
      </trkpt>
      <trkpt lat="44.18291" lon="5.07874">
        <ele>1602.593</ele>
        <time>2020-09-03T12:47:14Z</time>
      </trkpt>
      <trkpt lat="44.18291" lon="5.07857">
        <ele>1602.081</ele>
        <time>2020-09-03T12:47:15Z</time>
      </trkpt>
      <trkpt lat="44.18291" lon="5.07841">
        <ele>1601.377</ele>
        <time>2020-09-03T12:47:16Z</time>
      </trkpt>
      <trkpt lat="44.1829" lon="5.07806">
        <ele>1600.472</ele>
        <time>2020-09-03T12:47:18Z</time>
      </trkpt>
      <trkpt lat="44.1829" lon="5.07806">
        <ele>1599.451</ele>
        <time>2020-09-03T12:47:18Z</time>
      </trkpt>
      <trkpt lat="44.18287" lon="5.0777">
        <ele>1597.159</ele>
        <time>2020-09-03T12:47:20Z</time>
      </trkpt>
      <trkpt lat="44.18285" lon="5.07753">
        <ele>1594.384</ele>
        <time>2020-09-03T12:47:21Z</time>
      </trkpt>
      <trkpt lat="44.18285" lon="5.07735">
        <ele>1591.325</ele>
        <time>2020-09-03T12:47:22Z</time>
      </trkpt>
      <trkpt lat="44.18286" lon="5.07717">
        <ele>1587.839</ele>
        <time>2020-09-03T12:47:23Z</time>
      </trkpt>
      <trkpt lat="44.18288" lon="5.07699">
        <ele>1585.066</ele>
        <time>2020-09-03T12:47:24Z</time>
      </trkpt>
      <trkpt lat="44.18289" lon="5.07682">
        <ele>1582.121</ele>
        <time>2020-09-03T12:47:25Z</time>
      </trkpt>
      <trkpt lat="44.18289" lon="5.07666">
        <ele>1579.76</ele>
        <time>2020-09-03T12:47:26Z</time>
      </trkpt>
      <trkpt lat="44.18289" lon="5.07648">
        <ele>1577.047</ele>
        <time>2020-09-03T12:47:27Z</time>
      </trkpt>
      <trkpt lat="44.18289" lon="5.07631">
        <ele>1574.809</ele>
        <time>2020-09-03T12:47:28Z</time>
      </trkpt>
      <trkpt lat="44.18287" lon="5.07614">
        <ele>1572.888</ele>
        <time>2020-09-03T12:47:29Z</time>
      </trkpt>
      <trkpt lat="44.18287" lon="5.07614">
        <ele>1570.432</ele>
        <time>2020-09-03T12:47:29Z</time>
      </trkpt>
      <trkpt lat="44.18288" lon="5.07564">
        <ele>1567.973</ele>
        <time>2020-09-03T12:47:32Z</time>
      </trkpt>
      <trkpt lat="44.1829" lon="5.07547">
        <ele>1566.125</ele>
        <time>2020-09-03T12:47:33Z</time>
      </trkpt>
      <trkpt lat="44.1829" lon="5.07547">
        <ele>1564.922</ele>
        <time>2020-09-03T12:47:33Z</time>
      </trkpt>
      <trkpt lat="44.1829" lon="5.07516">
        <ele>1564.638</ele>
        <time>2020-09-03T12:47:35Z</time>
      </trkpt>
      <trkpt lat="44.18287" lon="5.07506">
        <ele>1565.068</ele>
        <time>2020-09-03T12:47:36Z</time>
      </trkpt>
      <trkpt lat="44.18283" lon="5.07498">
        <ele>1565.815</ele>
        <time>2020-09-03T12:47:37Z</time>
      </trkpt>
      <trkpt lat="44.18281" lon="5.07489">
        <ele>1565.978</ele>
        <time>2020-09-03T12:47:38Z</time>
      </trkpt>
      <trkpt lat="44.18281" lon="5.07489">
        <ele>1565.162</ele>
        <time>2020-09-03T12:47:38Z</time>
      </trkpt>
      <trkpt lat="44.18279" lon="5.07467">
        <ele>1563.473</ele>
        <time>2020-09-03T12:47:40Z</time>
      </trkpt>
      <trkpt lat="44.18277" lon="5.07453">
        <ele>1561.357</ele>
        <time>2020-09-03T12:47:41Z</time>
      </trkpt>
      <trkpt lat="44.18276" lon="5.07437">
        <ele>1559.289</ele>
        <time>2020-09-03T12:47:42Z</time>
      </trkpt>
      <trkpt lat="44.18273" lon="5.07424">
        <ele>1557.698</ele>
        <time>2020-09-03T12:47:43Z</time>
      </trkpt>
      <trkpt lat="44.18273" lon="5.07424">
        <ele>1557.063</ele>
        <time>2020-09-03T12:47:43Z</time>
      </trkpt>
      <trkpt lat="44.18266" lon="5.074">
        <ele>1557.339</ele>
        <time>2020-09-03T12:47:45Z</time>
      </trkpt>
      <trkpt lat="44.18264" lon="5.0739">
        <ele>1557.791</ele>
        <time>2020-09-03T12:47:46Z</time>
      </trkpt>
      <trkpt lat="44.18262" lon="5.07379">
        <ele>1558.37</ele>
        <time>2020-09-03T12:47:47Z</time>
      </trkpt>
      <trkpt lat="44.18261" lon="5.07368">
        <ele>1558.305</ele>
        <time>2020-09-03T12:47:48Z</time>
      </trkpt>
      <trkpt lat="44.1826" lon="5.07354">
        <ele>1557.367</ele>
        <time>2020-09-03T12:47:49Z</time>
      </trkpt>
      <trkpt lat="44.18259" lon="5.07339">
        <ele>1555.895</ele>
        <time>2020-09-03T12:47:50Z</time>
      </trkpt>
      <trkpt lat="44.18259" lon="5.07323">
        <ele>1554.117</ele>
        <time>2020-09-03T12:47:51Z</time>
      </trkpt>
      <trkpt lat="44.18258" lon="5.07307">
        <ele>1553.091</ele>
        <time>2020-09-03T12:47:52Z</time>
      </trkpt>
      <trkpt lat="44.18257" lon="5.07293">
        <ele>1552.871</ele>
        <time>2020-09-03T12:47:53Z</time>
      </trkpt>
      <trkpt lat="44.18257" lon="5.07267">
        <ele>1553.192</ele>
        <time>2020-09-03T12:47:55Z</time>
      </trkpt>
      <trkpt lat="44.18257" lon="5.07255">
        <ele>1553.604</ele>
        <time>2020-09-03T12:47:56Z</time>
      </trkpt>
      <trkpt lat="44.18257" lon="5.07242">
        <ele>1553.734</ele>
        <time>2020-09-03T12:47:57Z</time>
      </trkpt>
      <trkpt lat="44.18256" lon="5.0723">
        <ele>1553.51</ele>
        <time>2020-09-03T12:47:58Z</time>
      </trkpt>
      <trkpt lat="44.18255" lon="5.07216">
        <ele>1552.797</ele>
        <time>2020-09-03T12:47:59Z</time>
      </trkpt>
      <trkpt lat="44.18253" lon="5.07203">
        <ele>1551.587</ele>
        <time>2020-09-03T12:48:00Z</time>
      </trkpt>
      <trkpt lat="44.18251" lon="5.07189">
        <ele>1550.271</ele>
        <time>2020-09-03T12:48:01Z</time>
      </trkpt>
      <trkpt lat="44.18251" lon="5.07175">
        <ele>1549.19</ele>
        <time>2020-09-03T12:48:02Z</time>
      </trkpt>
      <trkpt lat="44.18251" lon="5.07161">
        <ele>1548.317</ele>
        <time>2020-09-03T12:48:03Z</time>
      </trkpt>
      <trkpt lat="44.18251" lon="5.07148">
        <ele>1547.596</ele>
        <time>2020-09-03T12:48:04Z</time>
      </trkpt>
      <trkpt lat="44.18252" lon="5.07136">
        <ele>1546.678</ele>
        <time>2020-09-03T12:48:05Z</time>
      </trkpt>
      <trkpt lat="44.18253" lon="5.07123">
        <ele>1545.52</ele>
        <time>2020-09-03T12:48:06Z</time>
      </trkpt>
      <trkpt lat="44.18255" lon="5.07109">
        <ele>1544.296</ele>
        <time>2020-09-03T12:48:07Z</time>
      </trkpt>
      <trkpt lat="44.18256" lon="5.07095">
        <ele>1543.395</ele>
        <time>2020-09-03T12:48:08Z</time>
      </trkpt>
      <trkpt lat="44.18255" lon="5.0708">
        <ele>1543.128</ele>
        <time>2020-09-03T12:48:09Z</time>
      </trkpt>
      <trkpt lat="44.18253" lon="5.07067">
        <ele>1543.603</ele>
        <time>2020-09-03T12:48:10Z</time>
      </trkpt>
      <trkpt lat="44.18252" lon="5.07055">
        <ele>1544.375</ele>
        <time>2020-09-03T12:48:11Z</time>
      </trkpt>
      <trkpt lat="44.18251" lon="5.07045">
        <ele>1544.74</ele>
        <time>2020-09-03T12:48:12Z</time>
      </trkpt>
      <trkpt lat="44.18251" lon="5.07045">
        <ele>1544.338</ele>
        <time>2020-09-03T12:48:12Z</time>
      </trkpt>
      <trkpt lat="44.18247" lon="5.07012">
        <ele>1543.633</ele>
        <time>2020-09-03T12:48:15Z</time>
      </trkpt>
      <trkpt lat="44.18244" lon="5.07001">
        <ele>1542.727</ele>
        <time>2020-09-03T12:48:16Z</time>
      </trkpt>
      <trkpt lat="44.18241" lon="5.06991">
        <ele>1541.921</ele>
        <time>2020-09-03T12:48:17Z</time>
      </trkpt>
      <trkpt lat="44.18238" lon="5.06981">
        <ele>1540.779</ele>
        <time>2020-09-03T12:48:18Z</time>
      </trkpt>
      <trkpt lat="44.18235" lon="5.06971">
        <ele>1538.819</ele>
        <time>2020-09-03T12:48:19Z</time>
      </trkpt>
      <trkpt lat="44.18232" lon="5.06959">
        <ele>1536.414</ele>
        <time>2020-09-03T12:48:20Z</time>
      </trkpt>
      <trkpt lat="44.18228" lon="5.06945">
        <ele>1533.41</ele>
        <time>2020-09-03T12:48:21Z</time>
      </trkpt>
      <trkpt lat="44.18225" lon="5.0693">
        <ele>1531.378</ele>
        <time>2020-09-03T12:48:22Z</time>
      </trkpt>
      <trkpt lat="44.18225" lon="5.0693">
        <ele>1530.123</ele>
        <time>2020-09-03T12:48:22Z</time>
      </trkpt>
      <trkpt lat="44.1822" lon="5.06904">
        <ele>1529.436</ele>
        <time>2020-09-03T12:48:24Z</time>
      </trkpt>
      <trkpt lat="44.1822" lon="5.06904">
        <ele>1528.945</ele>
        <time>2020-09-03T12:48:24Z</time>
      </trkpt>
      <trkpt lat="44.1822" lon="5.06904">
        <ele>1528.437</ele>
        <time>2020-09-03T12:48:24Z</time>
      </trkpt>
      <trkpt lat="44.1822" lon="5.06904">
        <ele>1527.695</ele>
        <time>2020-09-03T12:48:24Z</time>
      </trkpt>
      <trkpt lat="44.18206" lon="5.06861">
        <ele>1526.375</ele>
        <time>2020-09-03T12:48:28Z</time>
      </trkpt>
      <trkpt lat="44.18203" lon="5.0685">
        <ele>1525.18</ele>
        <time>2020-09-03T12:48:29Z</time>
      </trkpt>
      <trkpt lat="44.182" lon="5.06839">
        <ele>1523.692</ele>
        <time>2020-09-03T12:48:30Z</time>
      </trkpt>
      <trkpt lat="44.18197" lon="5.06827">
        <ele>1521.998</ele>
        <time>2020-09-03T12:48:31Z</time>
      </trkpt>
      <trkpt lat="44.18193" lon="5.06802">
        <ele>1520.156</ele>
        <time>2020-09-03T12:48:33Z</time>
      </trkpt>
      <trkpt lat="44.18193" lon="5.06802">
        <ele>1518.454</ele>
        <time>2020-09-03T12:48:33Z</time>
      </trkpt>
      <trkpt lat="44.18187" lon="5.06776">
        <ele>1516.698</ele>
        <time>2020-09-03T12:48:35Z</time>
      </trkpt>
      <trkpt lat="44.18185" lon="5.06764">
        <ele>1515.056</ele>
        <time>2020-09-03T12:48:36Z</time>
      </trkpt>
      <trkpt lat="44.18183" lon="5.06751">
        <ele>1512.561</ele>
        <time>2020-09-03T12:48:37Z</time>
      </trkpt>
      <trkpt lat="44.18181" lon="5.06738">
        <ele>1509.969</ele>
        <time>2020-09-03T12:48:38Z</time>
      </trkpt>
      <trkpt lat="44.18178" lon="5.06723">
        <ele>1508.016</ele>
        <time>2020-09-03T12:48:39Z</time>
      </trkpt>
      <trkpt lat="44.18175" lon="5.0671">
        <ele>1506.107</ele>
        <time>2020-09-03T12:48:40Z</time>
      </trkpt>
      <trkpt lat="44.18172" lon="5.06696">
        <ele>1504.517</ele>
        <time>2020-09-03T12:48:41Z</time>
      </trkpt>
      <trkpt lat="44.18172" lon="5.06696">
        <ele>1503.73</ele>
        <time>2020-09-03T12:48:41Z</time>
      </trkpt>
      <trkpt lat="44.18164" lon="5.06669">
        <ele>1502.487</ele>
        <time>2020-09-03T12:48:43Z</time>
      </trkpt>
      <trkpt lat="44.1816" lon="5.06655">
        <ele>1501.674</ele>
        <time>2020-09-03T12:48:44Z</time>
      </trkpt>
      <trkpt lat="44.18158" lon="5.06641">
        <ele>1500.887</ele>
        <time>2020-09-03T12:48:45Z</time>
      </trkpt>
      <trkpt lat="44.1815" lon="5.06614">
        <ele>1500.043</ele>
        <time>2020-09-03T12:48:47Z</time>
      </trkpt>
      <trkpt lat="44.18146" lon="5.066">
        <ele>1499.255</ele>
        <time>2020-09-03T12:48:48Z</time>
      </trkpt>
      <trkpt lat="44.18142" lon="5.06586">
        <ele>1498.368</ele>
        <time>2020-09-03T12:48:49Z</time>
      </trkpt>
      <trkpt lat="44.18138" lon="5.06572">
        <ele>1497.597</ele>
        <time>2020-09-03T12:48:50Z</time>
      </trkpt>
      <trkpt lat="44.18134" lon="5.06558">
        <ele>1496.585</ele>
        <time>2020-09-03T12:48:51Z</time>
      </trkpt>
      <trkpt lat="44.1813" lon="5.06544">
        <ele>1495.993</ele>
        <time>2020-09-03T12:48:52Z</time>
      </trkpt>
      <trkpt lat="44.18125" lon="5.0653">
        <ele>1495.514</ele>
        <time>2020-09-03T12:48:53Z</time>
      </trkpt>
      <trkpt lat="44.18119" lon="5.06517">
        <ele>1495.143</ele>
        <time>2020-09-03T12:48:54Z</time>
      </trkpt>
      <trkpt lat="44.18114" lon="5.06503">
        <ele>1494.496</ele>
        <time>2020-09-03T12:48:55Z</time>
      </trkpt>
      <trkpt lat="44.18109" lon="5.06489">
        <ele>1493.603</ele>
        <time>2020-09-03T12:48:56Z</time>
      </trkpt>
      <trkpt lat="44.18104" lon="5.06476">
        <ele>1492.778</ele>
        <time>2020-09-03T12:48:57Z</time>
      </trkpt>
      <trkpt lat="44.18099" lon="5.06461">
        <ele>1491.844</ele>
        <time>2020-09-03T12:48:58Z</time>
      </trkpt>
      <trkpt lat="44.18094" lon="5.06447">
        <ele>1490.928</ele>
        <time>2020-09-03T12:48:59Z</time>
      </trkpt>
      <trkpt lat="44.18088" lon="5.06432">
        <ele>1490.007</ele>
        <time>2020-09-03T12:49:00Z</time>
      </trkpt>
      <trkpt lat="44.18082" lon="5.06418">
        <ele>1489.249</ele>
        <time>2020-09-03T12:49:01Z</time>
      </trkpt>
      <trkpt lat="44.18076" lon="5.06405">
        <ele>1488.629</ele>
        <time>2020-09-03T12:49:02Z</time>
      </trkpt>
      <trkpt lat="44.18071" lon="5.06392">
        <ele>1488.03</ele>
        <time>2020-09-03T12:49:03Z</time>
      </trkpt>
      <trkpt lat="44.18067" lon="5.06379">
        <ele>1487.377</ele>
        <time>2020-09-03T12:49:04Z</time>
      </trkpt>
      <trkpt lat="44.18063" lon="5.06365">
        <ele>1486.706</ele>
        <time>2020-09-03T12:49:05Z</time>
      </trkpt>
      <trkpt lat="44.18063" lon="5.06365">
        <ele>1485.716</ele>
        <time>2020-09-03T12:49:05Z</time>
      </trkpt>
      <trkpt lat="44.18053" lon="5.06325">
        <ele>1484.599</ele>
        <time>2020-09-03T12:49:08Z</time>
      </trkpt>
      <trkpt lat="44.18053" lon="5.06325">
        <ele>1483.173</ele>
        <time>2020-09-03T12:49:08Z</time>
      </trkpt>
      <trkpt lat="44.18046" lon="5.06298">
        <ele>1481.572</ele>
        <time>2020-09-03T12:49:10Z</time>
      </trkpt>
      <trkpt lat="44.18042" lon="5.06285">
        <ele>1480.779</ele>
        <time>2020-09-03T12:49:11Z</time>
      </trkpt>
      <trkpt lat="44.18039" lon="5.06271">
        <ele>1479.522</ele>
        <time>2020-09-03T12:49:12Z</time>
      </trkpt>
      <trkpt lat="44.18034" lon="5.06258">
        <ele>1478.256</ele>
        <time>2020-09-03T12:49:13Z</time>
      </trkpt>
      <trkpt lat="44.1803" lon="5.06246">
        <ele>1477.303</ele>
        <time>2020-09-03T12:49:14Z</time>
      </trkpt>
      <trkpt lat="44.18026" lon="5.06233">
        <ele>1476.223</ele>
        <time>2020-09-03T12:49:15Z</time>
      </trkpt>
      <trkpt lat="44.18023" lon="5.0622">
        <ele>1475.198</ele>
        <time>2020-09-03T12:49:16Z</time>
      </trkpt>
      <trkpt lat="44.18019" lon="5.06207">
        <ele>1473.872</ele>
        <time>2020-09-03T12:49:17Z</time>
      </trkpt>
      <trkpt lat="44.18019" lon="5.06207">
        <ele>1472.381</ele>
        <time>2020-09-03T12:49:17Z</time>
      </trkpt>
      <trkpt lat="44.18012" lon="5.06181">
        <ele>1470.473</ele>
        <time>2020-09-03T12:49:19Z</time>
      </trkpt>
      <trkpt lat="44.18012" lon="5.06181">
        <ele>1468.857</ele>
        <time>2020-09-03T12:49:19Z</time>
      </trkpt>
      <trkpt lat="44.18012" lon="5.06181">
        <ele>1467.153</ele>
        <time>2020-09-03T12:49:19Z</time>
      </trkpt>
      <trkpt lat="44.18012" lon="5.06181">
        <ele>1465.981</ele>
        <time>2020-09-03T12:49:19Z</time>
      </trkpt>
      <trkpt lat="44.18012" lon="5.06181">
        <ele>1465.132</ele>
        <time>2020-09-03T12:49:19Z</time>
      </trkpt>
      <trkpt lat="44.17995" lon="5.06119">
        <ele>1464.285</ele>
        <time>2020-09-03T12:49:24Z</time>
      </trkpt>
      <trkpt lat="44.17992" lon="5.06108">
        <ele>1463.034</ele>
        <time>2020-09-03T12:49:25Z</time>
      </trkpt>
      <trkpt lat="44.1799" lon="5.06097">
        <ele>1461.237</ele>
        <time>2020-09-03T12:49:26Z</time>
      </trkpt>
      <trkpt lat="44.17989" lon="5.06071">
        <ele>1458.742</ele>
        <time>2020-09-03T12:49:28Z</time>
      </trkpt>
      <trkpt lat="44.17991" lon="5.06059">
        <ele>1456.628</ele>
        <time>2020-09-03T12:49:29Z</time>
      </trkpt>
      <trkpt lat="44.17995" lon="5.0605">
        <ele>1454.713</ele>
        <time>2020-09-03T12:49:30Z</time>
      </trkpt>
      <trkpt lat="44.18" lon="5.06042">
        <ele>1452.838</ele>
        <time>2020-09-03T12:49:31Z</time>
      </trkpt>
      <trkpt lat="44.18007" lon="5.0604">
        <ele>1451.639</ele>
        <time>2020-09-03T12:49:32Z</time>
      </trkpt>
      <trkpt lat="44.18012" lon="5.0604">
        <ele>1450.315</ele>
        <time>2020-09-03T12:49:33Z</time>
      </trkpt>
      <trkpt lat="44.18012" lon="5.0604">
        <ele>1448.882</ele>
        <time>2020-09-03T12:49:33Z</time>
      </trkpt>
      <trkpt lat="44.18023" lon="5.06042">
        <ele>1446.962</ele>
        <time>2020-09-03T12:49:35Z</time>
      </trkpt>
      <trkpt lat="44.18029" lon="5.06043">
        <ele>1444.569</ele>
        <time>2020-09-03T12:49:36Z</time>
      </trkpt>
      <trkpt lat="44.18041" lon="5.06048">
        <ele>1442.349</ele>
        <time>2020-09-03T12:49:38Z</time>
      </trkpt>
      <trkpt lat="44.18041" lon="5.06048">
        <ele>1441.199</ele>
        <time>2020-09-03T12:49:38Z</time>
      </trkpt>
      <trkpt lat="44.18053" lon="5.06059">
        <ele>1439.458</ele>
        <time>2020-09-03T12:49:40Z</time>
      </trkpt>
      <trkpt lat="44.18058" lon="5.06065">
        <ele>1438.217</ele>
        <time>2020-09-03T12:49:41Z</time>
      </trkpt>
      <trkpt lat="44.18063" lon="5.06071">
        <ele>1436.726</ele>
        <time>2020-09-03T12:49:42Z</time>
      </trkpt>
      <trkpt lat="44.18068" lon="5.06078">
        <ele>1435.261</ele>
        <time>2020-09-03T12:49:43Z</time>
      </trkpt>
      <trkpt lat="44.18073" lon="5.06085">
        <ele>1433.548</ele>
        <time>2020-09-03T12:49:44Z</time>
      </trkpt>
      <trkpt lat="44.18078" lon="5.06092">
        <ele>1432.095</ele>
        <time>2020-09-03T12:49:45Z</time>
      </trkpt>
      <trkpt lat="44.18083" lon="5.061">
        <ele>1431.285</ele>
        <time>2020-09-03T12:49:46Z</time>
      </trkpt>
      <trkpt lat="44.18088" lon="5.06108">
        <ele>1430.776</ele>
        <time>2020-09-03T12:49:47Z</time>
      </trkpt>
      <trkpt lat="44.18092" lon="5.06116">
        <ele>1430.78</ele>
        <time>2020-09-03T12:49:48Z</time>
      </trkpt>
      <trkpt lat="44.18095" lon="5.06123">
        <ele>1430.99</ele>
        <time>2020-09-03T12:49:49Z</time>
      </trkpt>
      <trkpt lat="44.18099" lon="5.06131">
        <ele>1431.069</ele>
        <time>2020-09-03T12:49:50Z</time>
      </trkpt>
      <trkpt lat="44.18102" lon="5.06139">
        <ele>1430.963</ele>
        <time>2020-09-03T12:49:51Z</time>
      </trkpt>
      <trkpt lat="44.18104" lon="5.06147">
        <ele>1430.687</ele>
        <time>2020-09-03T12:49:52Z</time>
      </trkpt>
      <trkpt lat="44.18107" lon="5.06155">
        <ele>1430.188</ele>
        <time>2020-09-03T12:49:53Z</time>
      </trkpt>
      <trkpt lat="44.18111" lon="5.06163">
        <ele>1429.589</ele>
        <time>2020-09-03T12:49:54Z</time>
      </trkpt>
      <trkpt lat="44.18114" lon="5.06171">
        <ele>1428.976</ele>
        <time>2020-09-03T12:49:55Z</time>
      </trkpt>
      <trkpt lat="44.18117" lon="5.06181">
        <ele>1428.76</ele>
        <time>2020-09-03T12:49:56Z</time>
      </trkpt>
      <trkpt lat="44.18117" lon="5.06181">
        <ele>1428.979</ele>
        <time>2020-09-03T12:49:56Z</time>
      </trkpt>
      <trkpt lat="44.18117" lon="5.06181">
        <ele>1429.447</ele>
        <time>2020-09-03T12:49:56Z</time>
      </trkpt>
      <trkpt lat="44.18127" lon="5.06213">
        <ele>1429.969</ele>
        <time>2020-09-03T12:50:00Z</time>
      </trkpt>
      <trkpt lat="44.1813" lon="5.0622">
        <ele>1430.172</ele>
        <time>2020-09-03T12:50:01Z</time>
      </trkpt>
      <trkpt lat="44.18132" lon="5.06227">
        <ele>1430.183</ele>
        <time>2020-09-03T12:50:02Z</time>
      </trkpt>
      <trkpt lat="44.18135" lon="5.06234">
        <ele>1429.768</ele>
        <time>2020-09-03T12:50:03Z</time>
      </trkpt>
      <trkpt lat="44.18138" lon="5.06239">
        <ele>1429.146</ele>
        <time>2020-09-03T12:50:04Z</time>
      </trkpt>
      <trkpt lat="44.1814" lon="5.06242">
        <ele>1428.91</ele>
        <time>2020-09-03T12:50:05Z</time>
      </trkpt>
      <trkpt lat="44.18143" lon="5.06243">
        <ele>1428.599</ele>
        <time>2020-09-03T12:50:06Z</time>
      </trkpt>
      <trkpt lat="44.18146" lon="5.06244">
        <ele>1428.085</ele>
        <time>2020-09-03T12:50:07Z</time>
      </trkpt>
      <trkpt lat="44.18148" lon="5.06245">
        <ele>1426.736</ele>
        <time>2020-09-03T12:50:08Z</time>
      </trkpt>
      <trkpt lat="44.18152" lon="5.06246">
        <ele>1424.93</ele>
        <time>2020-09-03T12:50:09Z</time>
      </trkpt>
      <trkpt lat="44.18156" lon="5.06248">
        <ele>1423.297</ele>
        <time>2020-09-03T12:50:10Z</time>
      </trkpt>
      <trkpt lat="44.18159" lon="5.06251">
        <ele>1421.86</ele>
        <time>2020-09-03T12:50:11Z</time>
      </trkpt>
      <trkpt lat="44.18162" lon="5.06254">
        <ele>1420.794</ele>
        <time>2020-09-03T12:50:12Z</time>
      </trkpt>
      <trkpt lat="44.18164" lon="5.06257">
        <ele>1419.75</ele>
        <time>2020-09-03T12:50:13Z</time>
      </trkpt>
      <trkpt lat="44.18167" lon="5.06259">
        <ele>1418.349</ele>
        <time>2020-09-03T12:50:14Z</time>
      </trkpt>
      <trkpt lat="44.18168" lon="5.06263">
        <ele>1415.734</ele>
        <time>2020-09-03T12:50:15Z</time>
      </trkpt>
      <trkpt lat="44.18171" lon="5.06267">
        <ele>1412.845</ele>
        <time>2020-09-03T12:50:16Z</time>
      </trkpt>
      <trkpt lat="44.18174" lon="5.06273">
        <ele>1409.517</ele>
        <time>2020-09-03T12:50:17Z</time>
      </trkpt>
      <trkpt lat="44.18178" lon="5.0628">
        <ele>1406.124</ele>
        <time>2020-09-03T12:50:18Z</time>
      </trkpt>
      <trkpt lat="44.18182" lon="5.06288">
        <ele>1403.334</ele>
        <time>2020-09-03T12:50:19Z</time>
      </trkpt>
      <trkpt lat="44.18189" lon="5.06306">
        <ele>1400.345</ele>
        <time>2020-09-03T12:50:21Z</time>
      </trkpt>
      <trkpt lat="44.18191" lon="5.06316">
        <ele>1398.115</ele>
        <time>2020-09-03T12:50:22Z</time>
      </trkpt>
      <trkpt lat="44.18193" lon="5.06327">
        <ele>1395.515</ele>
        <time>2020-09-03T12:50:23Z</time>
      </trkpt>
      <trkpt lat="44.18193" lon="5.06327">
        <ele>1392.813</ele>
        <time>2020-09-03T12:50:23Z</time>
      </trkpt>
      <trkpt lat="44.18198" lon="5.0635">
        <ele>1389.955</ele>
        <time>2020-09-03T12:50:25Z</time>
      </trkpt>
      <trkpt lat="44.18202" lon="5.06361">
        <ele>1387.767</ele>
        <time>2020-09-03T12:50:26Z</time>
      </trkpt>
      <trkpt lat="44.18205" lon="5.06374">
        <ele>1385.265</ele>
        <time>2020-09-03T12:50:27Z</time>
      </trkpt>
      <trkpt lat="44.18207" lon="5.06386">
        <ele>1383.562</ele>
        <time>2020-09-03T12:50:28Z</time>
      </trkpt>
      <trkpt lat="44.18209" lon="5.06398">
        <ele>1381.666</ele>
        <time>2020-09-03T12:50:29Z</time>
      </trkpt>
      <trkpt lat="44.18212" lon="5.06409">
        <ele>1379.484</ele>
        <time>2020-09-03T12:50:30Z</time>
      </trkpt>
      <trkpt lat="44.18214" lon="5.0642">
        <ele>1377.185</ele>
        <time>2020-09-03T12:50:31Z</time>
      </trkpt>
      <trkpt lat="44.18216" lon="5.06433">
        <ele>1374.611</ele>
        <time>2020-09-03T12:50:32Z</time>
      </trkpt>
      <trkpt lat="44.18217" lon="5.06446">
        <ele>1371.421</ele>
        <time>2020-09-03T12:50:33Z</time>
      </trkpt>
      <trkpt lat="44.18217" lon="5.06446">
        <ele>1369.828</ele>
        <time>2020-09-03T12:50:33Z</time>
      </trkpt>
      <trkpt lat="44.18217" lon="5.06446">
        <ele>1366.353</ele>
        <time>2020-09-03T12:50:33Z</time>
      </trkpt>
      <trkpt lat="44.18217" lon="5.06446">
        <ele>1363.428</ele>
        <time>2020-09-03T12:50:33Z</time>
      </trkpt>
      <trkpt lat="44.18217" lon="5.06446">
        <ele>1361.118</ele>
        <time>2020-09-03T12:50:33Z</time>
      </trkpt>
      <trkpt lat="44.18217" lon="5.06446">
        <ele>1358.994</ele>
        <time>2020-09-03T12:50:33Z</time>
      </trkpt>
      <trkpt lat="44.18236" lon="5.06524">
        <ele>1356.987</ele>
        <time>2020-09-03T12:50:39Z</time>
      </trkpt>
      <trkpt lat="44.18236" lon="5.06524">
        <ele>1354.698</ele>
        <time>2020-09-03T12:50:39Z</time>
      </trkpt>
      <trkpt lat="44.18236" lon="5.06524">
        <ele>1351.993</ele>
        <time>2020-09-03T12:50:39Z</time>
      </trkpt>
      <trkpt lat="44.18246" lon="5.06563">
        <ele>1348.7</ele>
        <time>2020-09-03T12:50:42Z</time>
      </trkpt>
      <trkpt lat="44.1825" lon="5.06577">
        <ele>1345.939</ele>
        <time>2020-09-03T12:50:43Z</time>
      </trkpt>
      <trkpt lat="44.18256" lon="5.06604">
        <ele>1342.717</ele>
        <time>2020-09-03T12:50:45Z</time>
      </trkpt>
      <trkpt lat="44.1826" lon="5.06616">
        <ele>1340.456</ele>
        <time>2020-09-03T12:50:46Z</time>
      </trkpt>
      <trkpt lat="44.18264" lon="5.06626">
        <ele>1338.114</ele>
        <time>2020-09-03T12:50:47Z</time>
      </trkpt>
      <trkpt lat="44.18268" lon="5.06638">
        <ele>1335.87</ele>
        <time>2020-09-03T12:50:48Z</time>
      </trkpt>
      <trkpt lat="44.18271" lon="5.06652">
        <ele>1333.098</ele>
        <time>2020-09-03T12:50:49Z</time>
      </trkpt>
      <trkpt lat="44.18275" lon="5.06667">
        <ele>1329.766</ele>
        <time>2020-09-03T12:50:50Z</time>
      </trkpt>
      <trkpt lat="44.18279" lon="5.0668">
        <ele>1327.001</ele>
        <time>2020-09-03T12:50:51Z</time>
      </trkpt>
      <trkpt lat="44.18284" lon="5.06693">
        <ele>1324.897</ele>
        <time>2020-09-03T12:50:52Z</time>
      </trkpt>
      <trkpt lat="44.18289" lon="5.06705">
        <ele>1323.218</ele>
        <time>2020-09-03T12:50:53Z</time>
      </trkpt>
      <trkpt lat="44.18293" lon="5.06717">
        <ele>1321.388</ele>
        <time>2020-09-03T12:50:54Z</time>
      </trkpt>
      <trkpt lat="44.18297" lon="5.0673">
        <ele>1319.162</ele>
        <time>2020-09-03T12:50:55Z</time>
      </trkpt>
      <trkpt lat="44.18297" lon="5.0673">
        <ele>1316.801</ele>
        <time>2020-09-03T12:50:55Z</time>
      </trkpt>
      <trkpt lat="44.18308" lon="5.06774">
        <ele>1313.855</ele>
        <time>2020-09-03T12:50:58Z</time>
      </trkpt>
      <trkpt lat="44.18308" lon="5.06774">
        <ele>1311.118</ele>
        <time>2020-09-03T12:50:58Z</time>
      </trkpt>
      <trkpt lat="44.18316" lon="5.068">
        <ele>1308.706</ele>
        <time>2020-09-03T12:51:00Z</time>
      </trkpt>
      <trkpt lat="44.1832" lon="5.06813">
        <ele>1306.572</ele>
        <time>2020-09-03T12:51:01Z</time>
      </trkpt>
      <trkpt lat="44.18323" lon="5.06826">
        <ele>1304.303</ele>
        <time>2020-09-03T12:51:02Z</time>
      </trkpt>
      <trkpt lat="44.18326" lon="5.06841">
        <ele>1302.833</ele>
        <time>2020-09-03T12:51:03Z</time>
      </trkpt>
      <trkpt lat="44.18326" lon="5.06841">
        <ele>1300.88</ele>
        <time>2020-09-03T12:51:03Z</time>
      </trkpt>
      <trkpt lat="44.18333" lon="5.06869">
        <ele>1299.145</ele>
        <time>2020-09-03T12:51:05Z</time>
      </trkpt>
      <trkpt lat="44.18336" lon="5.06883">
        <ele>1298.01</ele>
        <time>2020-09-03T12:51:06Z</time>
      </trkpt>
      <trkpt lat="44.18338" lon="5.06897">
        <ele>1297.408</ele>
        <time>2020-09-03T12:51:07Z</time>
      </trkpt>
      <trkpt lat="44.1834" lon="5.06912">
        <ele>1296.773</ele>
        <time>2020-09-03T12:51:08Z</time>
      </trkpt>
      <trkpt lat="44.1834" lon="5.06912">
        <ele>1295.866</ele>
        <time>2020-09-03T12:51:08Z</time>
      </trkpt>
      <trkpt lat="44.18343" lon="5.06944">
        <ele>1294.16</ele>
        <time>2020-09-03T12:51:10Z</time>
      </trkpt>
      <trkpt lat="44.18346" lon="5.0696">
        <ele>1291.993</ele>
        <time>2020-09-03T12:51:11Z</time>
      </trkpt>
      <trkpt lat="44.18349" lon="5.06975">
        <ele>1289.845</ele>
        <time>2020-09-03T12:51:12Z</time>
      </trkpt>
      <trkpt lat="44.18352" lon="5.06991">
        <ele>1287.384</ele>
        <time>2020-09-03T12:51:13Z</time>
      </trkpt>
      <trkpt lat="44.18353" lon="5.07009">
        <ele>1284.868</ele>
        <time>2020-09-03T12:51:14Z</time>
      </trkpt>
      <trkpt lat="44.18353" lon="5.07027">
        <ele>1282.458</ele>
        <time>2020-09-03T12:51:15Z</time>
      </trkpt>
      <trkpt lat="44.18357" lon="5.07061">
        <ele>1280.259</ele>
        <time>2020-09-03T12:51:17Z</time>
      </trkpt>
      <trkpt lat="44.1836" lon="5.07078">
        <ele>1278.699</ele>
        <time>2020-09-03T12:51:18Z</time>
      </trkpt>
      <trkpt lat="44.1836" lon="5.07078">
        <ele>1276.459</ele>
        <time>2020-09-03T12:51:18Z</time>
      </trkpt>
      <trkpt lat="44.18362" lon="5.07112">
        <ele>1274.636</ele>
        <time>2020-09-03T12:51:20Z</time>
      </trkpt>
      <trkpt lat="44.18363" lon="5.07129">
        <ele>1272.466</ele>
        <time>2020-09-03T12:51:21Z</time>
      </trkpt>
      <trkpt lat="44.18366" lon="5.07145">
        <ele>1270.126</ele>
        <time>2020-09-03T12:51:22Z</time>
      </trkpt>
      <trkpt lat="44.18368" lon="5.07159">
        <ele>1268.277</ele>
        <time>2020-09-03T12:51:23Z</time>
      </trkpt>
      <trkpt lat="44.18371" lon="5.07173">
        <ele>1266.85</ele>
        <time>2020-09-03T12:51:24Z</time>
      </trkpt>
      <trkpt lat="44.18372" lon="5.07187">
        <ele>1265.387</ele>
        <time>2020-09-03T12:51:25Z</time>
      </trkpt>
      <trkpt lat="44.18372" lon="5.07202">
        <ele>1263.829</ele>
        <time>2020-09-03T12:51:26Z</time>
      </trkpt>
      <trkpt lat="44.18371" lon="5.07217">
        <ele>1262.103</ele>
        <time>2020-09-03T12:51:27Z</time>
      </trkpt>
      <trkpt lat="44.18372" lon="5.07232">
        <ele>1260.221</ele>
        <time>2020-09-03T12:51:28Z</time>
      </trkpt>
      <trkpt lat="44.18373" lon="5.07246">
        <ele>1257.828</ele>
        <time>2020-09-03T12:51:29Z</time>
      </trkpt>
      <trkpt lat="44.18374" lon="5.0726">
        <ele>1256.247</ele>
        <time>2020-09-03T12:51:30Z</time>
      </trkpt>
      <trkpt lat="44.18376" lon="5.07274">
        <ele>1253.077</ele>
        <time>2020-09-03T12:51:31Z</time>
      </trkpt>
      <trkpt lat="44.18378" lon="5.07288">
        <ele>1249.235</ele>
        <time>2020-09-03T12:51:32Z</time>
      </trkpt>
      <trkpt lat="44.18379" lon="5.07303">
        <ele>1245.519</ele>
        <time>2020-09-03T12:51:33Z</time>
      </trkpt>
      <trkpt lat="44.18381" lon="5.07318">
        <ele>1242.039</ele>
        <time>2020-09-03T12:51:34Z</time>
      </trkpt>
      <trkpt lat="44.18385" lon="5.07333">
        <ele>1239.046</ele>
        <time>2020-09-03T12:51:35Z</time>
      </trkpt>
      <trkpt lat="44.18389" lon="5.07346">
        <ele>1236.322</ele>
        <time>2020-09-03T12:51:36Z</time>
      </trkpt>
      <trkpt lat="44.18395" lon="5.07358">
        <ele>1234.43</ele>
        <time>2020-09-03T12:51:37Z</time>
      </trkpt>
      <trkpt lat="44.184" lon="5.0737">
        <ele>1232.296</ele>
        <time>2020-09-03T12:51:38Z</time>
      </trkpt>
      <trkpt lat="44.18404" lon="5.07383">
        <ele>1229.865</ele>
        <time>2020-09-03T12:51:39Z</time>
      </trkpt>
      <trkpt lat="44.18407" lon="5.07397">
        <ele>1227.099</ele>
        <time>2020-09-03T12:51:40Z</time>
      </trkpt>
      <trkpt lat="44.18417" lon="5.07425">
        <ele>1223.623</ele>
        <time>2020-09-03T12:51:42Z</time>
      </trkpt>
      <trkpt lat="44.18423" lon="5.07438">
        <ele>1220.665</ele>
        <time>2020-09-03T12:51:43Z</time>
      </trkpt>
      <trkpt lat="44.18427" lon="5.07453">
        <ele>1216.575</ele>
        <time>2020-09-03T12:51:44Z</time>
      </trkpt>
      <trkpt lat="44.1843" lon="5.07469">
        <ele>1213.45</ele>
        <time>2020-09-03T12:51:45Z</time>
      </trkpt>
      <trkpt lat="44.18432" lon="5.07485">
        <ele>1210.967</ele>
        <time>2020-09-03T12:51:46Z</time>
      </trkpt>
      <trkpt lat="44.18434" lon="5.075">
        <ele>1208.823</ele>
        <time>2020-09-03T12:51:47Z</time>
      </trkpt>
      <trkpt lat="44.18437" lon="5.07514">
        <ele>1206.942</ele>
        <time>2020-09-03T12:51:48Z</time>
      </trkpt>
      <trkpt lat="44.1844" lon="5.07528">
        <ele>1204.353</ele>
        <time>2020-09-03T12:51:49Z</time>
      </trkpt>
      <trkpt lat="44.18443" lon="5.07544">
        <ele>1201.35</ele>
        <time>2020-09-03T12:51:50Z</time>
      </trkpt>
      <trkpt lat="44.18445" lon="5.07561">
        <ele>1198.043</ele>
        <time>2020-09-03T12:51:51Z</time>
      </trkpt>
      <trkpt lat="44.18447" lon="5.07579">
        <ele>1194.993</ele>
        <time>2020-09-03T12:51:52Z</time>
      </trkpt>
      <trkpt lat="44.18449" lon="5.07597">
        <ele>1192.532</ele>
        <time>2020-09-03T12:51:53Z</time>
      </trkpt>
      <trkpt lat="44.1845" lon="5.07614">
        <ele>1190.462</ele>
        <time>2020-09-03T12:51:54Z</time>
      </trkpt>
      <trkpt lat="44.18451" lon="5.0763">
        <ele>1188.283</ele>
        <time>2020-09-03T12:51:55Z</time>
      </trkpt>
      <trkpt lat="44.18452" lon="5.07647">
        <ele>1185.734</ele>
        <time>2020-09-03T12:51:56Z</time>
      </trkpt>
      <trkpt lat="44.18453" lon="5.07664">
        <ele>1183.087</ele>
        <time>2020-09-03T12:51:57Z</time>
      </trkpt>
      <trkpt lat="44.18453" lon="5.07664">
        <ele>1181.245</ele>
        <time>2020-09-03T12:51:57Z</time>
      </trkpt>
      <trkpt lat="44.18457" lon="5.07698">
        <ele>1177.361</ele>
        <time>2020-09-03T12:51:59Z</time>
      </trkpt>
      <trkpt lat="44.18458" lon="5.07716">
        <ele>1173.894</ele>
        <time>2020-09-03T12:52:00Z</time>
      </trkpt>
      <trkpt lat="44.18459" lon="5.07734">
        <ele>1169.777</ele>
        <time>2020-09-03T12:52:01Z</time>
      </trkpt>
      <trkpt lat="44.18461" lon="5.07753">
        <ele>1166.529</ele>
        <time>2020-09-03T12:52:02Z</time>
      </trkpt>
      <trkpt lat="44.18463" lon="5.07771">
        <ele>1163.398</ele>
        <time>2020-09-03T12:52:03Z</time>
      </trkpt>
      <trkpt lat="44.18469" lon="5.07807">
        <ele>1160.492</ele>
        <time>2020-09-03T12:52:05Z</time>
      </trkpt>
      <trkpt lat="44.18471" lon="5.07825">
        <ele>1157.672</ele>
        <time>2020-09-03T12:52:06Z</time>
      </trkpt>
      <trkpt lat="44.18474" lon="5.07843">
        <ele>1155.829</ele>
        <time>2020-09-03T12:52:07Z</time>
      </trkpt>
      <trkpt lat="44.18477" lon="5.0786">
        <ele>1152.855</ele>
        <time>2020-09-03T12:52:08Z</time>
      </trkpt>
      <trkpt lat="44.1848" lon="5.07877">
        <ele>1150.671</ele>
        <time>2020-09-03T12:52:09Z</time>
      </trkpt>
      <trkpt lat="44.18483" lon="5.07894">
        <ele>1147.966</ele>
        <time>2020-09-03T12:52:10Z</time>
      </trkpt>
      <trkpt lat="44.18486" lon="5.07912">
        <ele>1145.152</ele>
        <time>2020-09-03T12:52:11Z</time>
      </trkpt>
      <trkpt lat="44.18493" lon="5.0795">
        <ele>1142.711</ele>
        <time>2020-09-03T12:52:13Z</time>
      </trkpt>
      <trkpt lat="44.18493" lon="5.0795">
        <ele>1141.248</ele>
        <time>2020-09-03T12:52:13Z</time>
      </trkpt>
      <trkpt lat="44.185" lon="5.07987">
        <ele>1139.967</ele>
        <time>2020-09-03T12:52:15Z</time>
      </trkpt>
      <trkpt lat="44.18503" lon="5.08006">
        <ele>1138.968</ele>
        <time>2020-09-03T12:52:16Z</time>
      </trkpt>
      <trkpt lat="44.18505" lon="5.08025">
        <ele>1137.832</ele>
        <time>2020-09-03T12:52:17Z</time>
      </trkpt>
      <trkpt lat="44.18509" lon="5.08043">
        <ele>1136.742</ele>
        <time>2020-09-03T12:52:18Z</time>
      </trkpt>
      <trkpt lat="44.18512" lon="5.08063">
        <ele>1135.248</ele>
        <time>2020-09-03T12:52:19Z</time>
      </trkpt>
      <trkpt lat="44.18515" lon="5.08082">
        <ele>1133.483</ele>
        <time>2020-09-03T12:52:20Z</time>
      </trkpt>
      <trkpt lat="44.18516" lon="5.08102">
        <ele>1131.811</ele>
        <time>2020-09-03T12:52:21Z</time>
      </trkpt>
      <trkpt lat="44.18518" lon="5.08121">
        <ele>1130.082</ele>
        <time>2020-09-03T12:52:22Z</time>
      </trkpt>
      <trkpt lat="44.1852" lon="5.08139">
        <ele>1128.919</ele>
        <time>2020-09-03T12:52:23Z</time>
      </trkpt>
      <trkpt lat="44.18522" lon="5.08156">
        <ele>1128.083</ele>
        <time>2020-09-03T12:52:24Z</time>
      </trkpt>
      <trkpt lat="44.18524" lon="5.08174">
        <ele>1127.23</ele>
        <time>2020-09-03T12:52:25Z</time>
      </trkpt>
      <trkpt lat="44.18525" lon="5.08192">
        <ele>1126.669</ele>
        <time>2020-09-03T12:52:26Z</time>
      </trkpt>
      <trkpt lat="44.18527" lon="5.0821">
        <ele>1125.162</ele>
        <time>2020-09-03T12:52:27Z</time>
      </trkpt>
      <trkpt lat="44.18528" lon="5.08229">
        <ele>1123.327</ele>
        <time>2020-09-03T12:52:28Z</time>
      </trkpt>
      <trkpt lat="44.18531" lon="5.08248">
        <ele>1121.996</ele>
        <time>2020-09-03T12:52:29Z</time>
      </trkpt>
      <trkpt lat="44.18532" lon="5.08268">
        <ele>1120.432</ele>
        <time>2020-09-03T12:52:30Z</time>
      </trkpt>
      <trkpt lat="44.18532" lon="5.08287">
        <ele>1119.262</ele>
        <time>2020-09-03T12:52:31Z</time>
      </trkpt>
      <trkpt lat="44.18532" lon="5.08287">
        <ele>1118.244</ele>
        <time>2020-09-03T12:52:31Z</time>
      </trkpt>
      <trkpt lat="44.18532" lon="5.08324">
        <ele>1116.786</ele>
        <time>2020-09-03T12:52:33Z</time>
      </trkpt>
      <trkpt lat="44.18535" lon="5.08357">
        <ele>1115.139</ele>
        <time>2020-09-03T12:52:35Z</time>
      </trkpt>
      <trkpt lat="44.18536" lon="5.08375">
        <ele>1112.852</ele>
        <time>2020-09-03T12:52:36Z</time>
      </trkpt>
      <trkpt lat="44.18538" lon="5.08393">
        <ele>1110.082</ele>
        <time>2020-09-03T12:52:37Z</time>
      </trkpt>
      <trkpt lat="44.1854" lon="5.0841">
        <ele>1108.247</ele>
        <time>2020-09-03T12:52:38Z</time>
      </trkpt>
      <trkpt lat="44.18542" lon="5.08426">
        <ele>1106.683</ele>
        <time>2020-09-03T12:52:39Z</time>
      </trkpt>
      <trkpt lat="44.18545" lon="5.0844">
        <ele>1105.672</ele>
        <time>2020-09-03T12:52:40Z</time>
      </trkpt>
      <trkpt lat="44.18547" lon="5.08454">
        <ele>1104.066</ele>
        <time>2020-09-03T12:52:41Z</time>
      </trkpt>
      <trkpt lat="44.18548" lon="5.08469">
        <ele>1101.895</ele>
        <time>2020-09-03T12:52:42Z</time>
      </trkpt>
      <trkpt lat="44.1855" lon="5.08484">
        <ele>1098.992</ele>
        <time>2020-09-03T12:52:43Z</time>
      </trkpt>
      <trkpt lat="44.18553" lon="5.085">
        <ele>1095.773</ele>
        <time>2020-09-03T12:52:44Z</time>
      </trkpt>
      <trkpt lat="44.18556" lon="5.08517">
        <ele>1092.952</ele>
        <time>2020-09-03T12:52:45Z</time>
      </trkpt>
      <trkpt lat="44.18559" lon="5.08533">
        <ele>1090.802</ele>
        <time>2020-09-03T12:52:46Z</time>
      </trkpt>
      <trkpt lat="44.18562" lon="5.08548">
        <ele>1089.238</ele>
        <time>2020-09-03T12:52:47Z</time>
      </trkpt>
      <trkpt lat="44.18566" lon="5.08562">
        <ele>1087.918</ele>
        <time>2020-09-03T12:52:48Z</time>
      </trkpt>
      <trkpt lat="44.18569" lon="5.08576">
        <ele>1086.468</ele>
        <time>2020-09-03T12:52:49Z</time>
      </trkpt>
      <trkpt lat="44.18572" lon="5.0859">
        <ele>1084.634</ele>
        <time>2020-09-03T12:52:50Z</time>
      </trkpt>
      <trkpt lat="44.18575" lon="5.08606">
        <ele>1082.586</ele>
        <time>2020-09-03T12:52:51Z</time>
      </trkpt>
      <trkpt lat="44.18577" lon="5.08622">
        <ele>1080.759</ele>
        <time>2020-09-03T12:52:52Z</time>
      </trkpt>
      <trkpt lat="44.18577" lon="5.08622">
        <ele>1079.137</ele>
        <time>2020-09-03T12:52:52Z</time>
      </trkpt>
      <trkpt lat="44.18577" lon="5.08622">
        <ele>1078.33</ele>
        <time>2020-09-03T12:52:52Z</time>
      </trkpt>
      <trkpt lat="44.1859" lon="5.0868">
        <ele>1076.333</ele>
        <time>2020-09-03T12:52:56Z</time>
      </trkpt>
      <trkpt lat="44.18594" lon="5.08695">
        <ele>1074.675</ele>
        <time>2020-09-03T12:52:57Z</time>
      </trkpt>
      <trkpt lat="44.18598" lon="5.08711">
        <ele>1072.892</ele>
        <time>2020-09-03T12:52:58Z</time>
      </trkpt>
      <trkpt lat="44.18603" lon="5.08726">
        <ele>1071.548</ele>
        <time>2020-09-03T12:52:59Z</time>
      </trkpt>
      <trkpt lat="44.18608" lon="5.0874">
        <ele>1070.753</ele>
        <time>2020-09-03T12:53:00Z</time>
      </trkpt>
      <trkpt lat="44.18613" lon="5.08754">
        <ele>1070.087</ele>
        <time>2020-09-03T12:53:01Z</time>
      </trkpt>
      <trkpt lat="44.18616" lon="5.08768">
        <ele>1069.25</ele>
        <time>2020-09-03T12:53:02Z</time>
      </trkpt>
      <trkpt lat="44.1862" lon="5.08783">
        <ele>1067.839</ele>
        <time>2020-09-03T12:53:03Z</time>
      </trkpt>
      <trkpt lat="44.18624" lon="5.08799">
        <ele>1066.43</ele>
        <time>2020-09-03T12:53:04Z</time>
      </trkpt>
      <trkpt lat="44.18627" lon="5.08816">
        <ele>1065.326</ele>
        <time>2020-09-03T12:53:05Z</time>
      </trkpt>
      <trkpt lat="44.1863" lon="5.08835">
        <ele>1064.595</ele>
        <time>2020-09-03T12:53:06Z</time>
      </trkpt>
      <trkpt lat="44.18631" lon="5.08853">
        <ele>1064.435</ele>
        <time>2020-09-03T12:53:07Z</time>
      </trkpt>
      <trkpt lat="44.18631" lon="5.08853">
        <ele>1064.286</ele>
        <time>2020-09-03T12:53:07Z</time>
      </trkpt>
      <trkpt lat="44.18637" lon="5.08881">
        <ele>1063.874</ele>
        <time>2020-09-03T12:53:09Z</time>
      </trkpt>
      <trkpt lat="44.18637" lon="5.08881">
        <ele>1063.029</ele>
        <time>2020-09-03T12:53:09Z</time>
      </trkpt>
      <trkpt lat="44.18637" lon="5.08881">
        <ele>1061.945</ele>
        <time>2020-09-03T12:53:09Z</time>
      </trkpt>
      <trkpt lat="44.18637" lon="5.08881">
        <ele>1060.139</ele>
        <time>2020-09-03T12:53:09Z</time>
      </trkpt>
      <trkpt lat="44.18637" lon="5.08881">
        <ele>1058.18</ele>
        <time>2020-09-03T12:53:09Z</time>
      </trkpt>
      <trkpt lat="44.18657" lon="5.08951">
        <ele>1056.51</ele>
        <time>2020-09-03T12:53:14Z</time>
      </trkpt>
      <trkpt lat="44.18661" lon="5.08968">
        <ele>1055.363</ele>
        <time>2020-09-03T12:53:15Z</time>
      </trkpt>
      <trkpt lat="44.18664" lon="5.08984">
        <ele>1054.757</ele>
        <time>2020-09-03T12:53:16Z</time>
      </trkpt>
      <trkpt lat="44.18667" lon="5.08999">
        <ele>1054.193</ele>
        <time>2020-09-03T12:53:17Z</time>
      </trkpt>
      <trkpt lat="44.1867" lon="5.09014">
        <ele>1053.248</ele>
        <time>2020-09-03T12:53:18Z</time>
      </trkpt>
      <trkpt lat="44.18673" lon="5.09046">
        <ele>1052.064</ele>
        <time>2020-09-03T12:53:20Z</time>
      </trkpt>
      <trkpt lat="44.18675" lon="5.09062">
        <ele>1050.637</ele>
        <time>2020-09-03T12:53:21Z</time>
      </trkpt>
      <trkpt lat="44.18678" lon="5.09077">
        <ele>1049.566</ele>
        <time>2020-09-03T12:53:22Z</time>
      </trkpt>
      <trkpt lat="44.18681" lon="5.09093">
        <ele>1048.047</ele>
        <time>2020-09-03T12:53:23Z</time>
      </trkpt>
      <trkpt lat="44.18684" lon="5.09109">
        <ele>1046.106</ele>
        <time>2020-09-03T12:53:24Z</time>
      </trkpt>
      <trkpt lat="44.18686" lon="5.09124">
        <ele>1044.247</ele>
        <time>2020-09-03T12:53:25Z</time>
      </trkpt>
      <trkpt lat="44.18689" lon="5.0914">
        <ele>1042.823</ele>
        <time>2020-09-03T12:53:26Z</time>
      </trkpt>
      <trkpt lat="44.18691" lon="5.09155">
        <ele>1041.328</ele>
        <time>2020-09-03T12:53:27Z</time>
      </trkpt>
      <trkpt lat="44.18694" lon="5.0917">
        <ele>1040.046</ele>
        <time>2020-09-03T12:53:28Z</time>
      </trkpt>
      <trkpt lat="44.18696" lon="5.09185">
        <ele>1038.49</ele>
        <time>2020-09-03T12:53:29Z</time>
      </trkpt>
      <trkpt lat="44.18696" lon="5.09185">
        <ele>1036.926</ele>
        <time>2020-09-03T12:53:29Z</time>
      </trkpt>
      <trkpt lat="44.18704" lon="5.09231">
        <ele>1034.872</ele>
        <time>2020-09-03T12:53:32Z</time>
      </trkpt>
      <trkpt lat="44.18706" lon="5.09248">
        <ele>1032.954</ele>
        <time>2020-09-03T12:53:33Z</time>
      </trkpt>
      <trkpt lat="44.18706" lon="5.09248">
        <ele>1030.652</ele>
        <time>2020-09-03T12:53:33Z</time>
      </trkpt>
      <trkpt lat="44.18711" lon="5.09283">
        <ele>1028.685</ele>
        <time>2020-09-03T12:53:35Z</time>
      </trkpt>
      <trkpt lat="44.18714" lon="5.093">
        <ele>1026.916</ele>
        <time>2020-09-03T12:53:36Z</time>
      </trkpt>
      <trkpt lat="44.18717" lon="5.09316">
        <ele>1025.269</ele>
        <time>2020-09-03T12:53:37Z</time>
      </trkpt>
      <trkpt lat="44.18719" lon="5.09333">
        <ele>1023.307</ele>
        <time>2020-09-03T12:53:38Z</time>
      </trkpt>
      <trkpt lat="44.18719" lon="5.09333">
        <ele>1021.076</ele>
        <time>2020-09-03T12:53:38Z</time>
      </trkpt>
      <trkpt lat="44.18722" lon="5.0937">
        <ele>1019.133</ele>
        <time>2020-09-03T12:53:40Z</time>
      </trkpt>
      <trkpt lat="44.18723" lon="5.09389">
        <ele>1017.643</ele>
        <time>2020-09-03T12:53:41Z</time>
      </trkpt>
      <trkpt lat="44.18723" lon="5.09408">
        <ele>1016.702</ele>
        <time>2020-09-03T12:53:42Z</time>
      </trkpt>
      <trkpt lat="44.18723" lon="5.09426">
        <ele>1016.208</ele>
        <time>2020-09-03T12:53:43Z</time>
      </trkpt>
      <trkpt lat="44.18722" lon="5.09443">
        <ele>1015.837</ele>
        <time>2020-09-03T12:53:44Z</time>
      </trkpt>
      <trkpt lat="44.18722" lon="5.09461">
        <ele>1015.347</ele>
        <time>2020-09-03T12:53:45Z</time>
      </trkpt>
      <trkpt lat="44.18722" lon="5.09479">
        <ele>1014.989</ele>
        <time>2020-09-03T12:53:46Z</time>
      </trkpt>
      <trkpt lat="44.18722" lon="5.09496">
        <ele>1015.034</ele>
        <time>2020-09-03T12:53:47Z</time>
      </trkpt>
      <trkpt lat="44.18722" lon="5.09514">
        <ele>1015.981</ele>
        <time>2020-09-03T12:53:48Z</time>
      </trkpt>
      <trkpt lat="44.18722" lon="5.09531">
        <ele>1017.825</ele>
        <time>2020-09-03T12:53:49Z</time>
      </trkpt>
      <trkpt lat="44.18723" lon="5.09546">
        <ele>1019.456</ele>
        <time>2020-09-03T12:53:50Z</time>
      </trkpt>
      <trkpt lat="44.18726" lon="5.09559">
        <ele>1022.322</ele>
        <time>2020-09-03T12:53:51Z</time>
      </trkpt>
      <trkpt lat="44.18735" lon="5.09579">
        <ele>1025.414</ele>
        <time>2020-09-03T12:53:53Z</time>
      </trkpt>
      <trkpt lat="44.1874" lon="5.09588">
        <ele>1027.864</ele>
        <time>2020-09-03T12:53:54Z</time>
      </trkpt>
      <trkpt lat="44.18744" lon="5.09597">
        <ele>1030.167</ele>
        <time>2020-09-03T12:53:55Z</time>
      </trkpt>
      <trkpt lat="44.18749" lon="5.09607">
        <ele>1032.138</ele>
        <time>2020-09-03T12:53:56Z</time>
      </trkpt>
      <trkpt lat="44.18753" lon="5.09617">
        <ele>1033.805</ele>
        <time>2020-09-03T12:53:57Z</time>
      </trkpt>
      <trkpt lat="44.18758" lon="5.09626">
        <ele>1035.932</ele>
        <time>2020-09-03T12:53:58Z</time>
      </trkpt>
      <trkpt lat="44.18763" lon="5.09633">
        <ele>1037.844</ele>
        <time>2020-09-03T12:53:59Z</time>
      </trkpt>
      <trkpt lat="44.18771" lon="5.09636">
        <ele>1039.478</ele>
        <time>2020-09-03T12:54:00Z</time>
      </trkpt>
      <trkpt lat="44.18778" lon="5.09632">
        <ele>1040.527</ele>
        <time>2020-09-03T12:54:01Z</time>
      </trkpt>
      <trkpt lat="44.18783" lon="5.09623">
        <ele>1041.446</ele>
        <time>2020-09-03T12:54:02Z</time>
      </trkpt>
      <trkpt lat="44.18785" lon="5.09611">
        <ele>1042.405</ele>
        <time>2020-09-03T12:54:03Z</time>
      </trkpt>
      <trkpt lat="44.18782" lon="5.09599">
        <ele>1043.987</ele>
        <time>2020-09-03T12:54:04Z</time>
      </trkpt>
      <trkpt lat="44.18775" lon="5.0959">
        <ele>1045.713</ele>
        <time>2020-09-03T12:54:05Z</time>
      </trkpt>
      <trkpt lat="44.18765" lon="5.09587">
        <ele>1047.491</ele>
        <time>2020-09-03T12:54:06Z</time>
      </trkpt>
      <trkpt lat="44.18753" lon="5.0959">
        <ele>1049.101</ele>
        <time>2020-09-03T12:54:07Z</time>
      </trkpt>
      <trkpt lat="44.18742" lon="5.09596">
        <ele>1050.544</ele>
        <time>2020-09-03T12:54:08Z</time>
      </trkpt>
      <trkpt lat="44.18732" lon="5.09604">
        <ele>1052.221</ele>
        <time>2020-09-03T12:54:09Z</time>
      </trkpt>
      <trkpt lat="44.18725" lon="5.09615">
        <ele>1053.383</ele>
        <time>2020-09-03T12:54:10Z</time>
      </trkpt>
      <trkpt lat="44.18725" lon="5.09615">
        <ele>1054.061</ele>
        <time>2020-09-03T12:54:10Z</time>
      </trkpt>
      <trkpt lat="44.18721" lon="5.09656">
        <ele>1054.81</ele>
        <time>2020-09-03T12:54:13Z</time>
      </trkpt>
      <trkpt lat="44.18721" lon="5.0967">
        <ele>1056.325</ele>
        <time>2020-09-03T12:54:14Z</time>
      </trkpt>
      <trkpt lat="44.18722" lon="5.09683">
        <ele>1057.702</ele>
        <time>2020-09-03T12:54:15Z</time>
      </trkpt>
      <trkpt lat="44.18725" lon="5.09696">
        <ele>1059.294</ele>
        <time>2020-09-03T12:54:16Z</time>
      </trkpt>
      <trkpt lat="44.18727" lon="5.09708">
        <ele>1060.287</ele>
        <time>2020-09-03T12:54:17Z</time>
      </trkpt>
      <trkpt lat="44.18727" lon="5.09708">
        <ele>1061.209</ele>
        <time>2020-09-03T12:54:17Z</time>
      </trkpt>
      <trkpt lat="44.18731" lon="5.09733">
        <ele>1063.068</ele>
        <time>2020-09-03T12:54:19Z</time>
      </trkpt>
      <trkpt lat="44.18738" lon="5.09752">
        <ele>1065.344</ele>
        <time>2020-09-03T12:54:21Z</time>
      </trkpt>
      <trkpt lat="44.18743" lon="5.09762">
        <ele>1067.374</ele>
        <time>2020-09-03T12:54:22Z</time>
      </trkpt>
      <trkpt lat="44.18746" lon="5.09772">
        <ele>1069.819</ele>
        <time>2020-09-03T12:54:23Z</time>
      </trkpt>
      <trkpt lat="44.18746" lon="5.09772">
        <ele>1072.304</ele>
        <time>2020-09-03T12:54:23Z</time>
      </trkpt>
      <trkpt lat="44.18755" lon="5.09793">
        <ele>1074.808</ele>
        <time>2020-09-03T12:54:25Z</time>
      </trkpt>
      <trkpt lat="44.18762" lon="5.09798">
        <ele>1077.148</ele>
        <time>2020-09-03T12:54:26Z</time>
      </trkpt>
      <trkpt lat="44.18771" lon="5.09798">
        <ele>1078.963</ele>
        <time>2020-09-03T12:54:27Z</time>
      </trkpt>
      <trkpt lat="44.18779" lon="5.09791">
        <ele>1080.587</ele>
        <time>2020-09-03T12:54:28Z</time>
      </trkpt>
      <trkpt lat="44.18779" lon="5.09791">
        <ele>1081.97</ele>
        <time>2020-09-03T12:54:28Z</time>
      </trkpt>
      <trkpt lat="44.1878" lon="5.09772">
        <ele>1082.903</ele>
        <time>2020-09-03T12:54:30Z</time>
      </trkpt>
      <trkpt lat="44.18775" lon="5.09766">
        <ele>1083.86</ele>
        <time>2020-09-03T12:54:31Z</time>
      </trkpt>
      <trkpt lat="44.18767" lon="5.09764">
        <ele>1084.732</ele>
        <time>2020-09-03T12:54:32Z</time>
      </trkpt>
      <trkpt lat="44.18757" lon="5.09767">
        <ele>1085.811</ele>
        <time>2020-09-03T12:54:33Z</time>
      </trkpt>
      <trkpt lat="44.18757" lon="5.09767">
        <ele>1086.589</ele>
        <time>2020-09-03T12:54:33Z</time>
      </trkpt>
      <trkpt lat="44.1874" lon="5.09786">
        <ele>1087.593</ele>
        <time>2020-09-03T12:54:35Z</time>
      </trkpt>
      <trkpt lat="44.18735" lon="5.09798">
        <ele>1089.651</ele>
        <time>2020-09-03T12:54:36Z</time>
      </trkpt>
      <trkpt lat="44.18731" lon="5.09809">
        <ele>1091.944</ele>
        <time>2020-09-03T12:54:37Z</time>
      </trkpt>
      <trkpt lat="44.18729" lon="5.09821">
        <ele>1094.81</ele>
        <time>2020-09-03T12:54:38Z</time>
      </trkpt>
      <trkpt lat="44.18727" lon="5.09833">
        <ele>1098.157</ele>
        <time>2020-09-03T12:54:39Z</time>
      </trkpt>
      <trkpt lat="44.18726" lon="5.09845">
        <ele>1101.178</ele>
        <time>2020-09-03T12:54:40Z</time>
      </trkpt>
      <trkpt lat="44.18725" lon="5.09858">
        <ele>1104.42</ele>
        <time>2020-09-03T12:54:41Z</time>
      </trkpt>
      <trkpt lat="44.18728" lon="5.09872">
        <ele>1107.04</ele>
        <time>2020-09-03T12:54:42Z</time>
      </trkpt>
      <trkpt lat="44.18734" lon="5.09882">
        <ele>1109.753</ele>
        <time>2020-09-03T12:54:43Z</time>
      </trkpt>
      <trkpt lat="44.18743" lon="5.09887">
        <ele>1111.772</ele>
        <time>2020-09-03T12:54:44Z</time>
      </trkpt>
      <trkpt lat="44.18752" lon="5.09886">
        <ele>1113.599</ele>
        <time>2020-09-03T12:54:45Z</time>
      </trkpt>
      <trkpt lat="44.18752" lon="5.09886">
        <ele>1115.231</ele>
        <time>2020-09-03T12:54:45Z</time>
      </trkpt>
      <trkpt lat="44.18752" lon="5.09886">
        <ele>1117.434</ele>
        <time>2020-09-03T12:54:45Z</time>
      </trkpt>
      <trkpt lat="44.18764" lon="5.09862">
        <ele>1120.181</ele>
        <time>2020-09-03T12:54:48Z</time>
      </trkpt>
      <trkpt lat="44.18761" lon="5.09853">
        <ele>1122.736</ele>
        <time>2020-09-03T12:54:49Z</time>
      </trkpt>
      <trkpt lat="44.18754" lon="5.09848">
        <ele>1125.264</ele>
        <time>2020-09-03T12:54:50Z</time>
      </trkpt>
      <trkpt lat="44.18746" lon="5.09847">
        <ele>1126.922</ele>
        <time>2020-09-03T12:54:51Z</time>
      </trkpt>
      <trkpt lat="44.18737" lon="5.09849">
        <ele>1128.716</ele>
        <time>2020-09-03T12:54:52Z</time>
      </trkpt>
      <trkpt lat="44.18728" lon="5.09853">
        <ele>1130.83</ele>
        <time>2020-09-03T12:54:53Z</time>
      </trkpt>
      <trkpt lat="44.18712" lon="5.09863">
        <ele>1133.382</ele>
        <time>2020-09-03T12:54:55Z</time>
      </trkpt>
      <trkpt lat="44.18706" lon="5.09869">
        <ele>1136.244</ele>
        <time>2020-09-03T12:54:56Z</time>
      </trkpt>
      <trkpt lat="44.187" lon="5.09876">
        <ele>1139.049</ele>
        <time>2020-09-03T12:54:57Z</time>
      </trkpt>
      <trkpt lat="44.18696" lon="5.09886">
        <ele>1141.398</ele>
        <time>2020-09-03T12:54:58Z</time>
      </trkpt>
      <trkpt lat="44.18696" lon="5.09886">
        <ele>1143.079</ele>
        <time>2020-09-03T12:54:58Z</time>
      </trkpt>
      <trkpt lat="44.18696" lon="5.09916">
        <ele>1144.95</ele>
        <time>2020-09-03T12:55:00Z</time>
      </trkpt>
      <trkpt lat="44.187" lon="5.09931">
        <ele>1147.623</ele>
        <time>2020-09-03T12:55:01Z</time>
      </trkpt>
      <trkpt lat="44.18707" lon="5.09939">
        <ele>1150.198</ele>
        <time>2020-09-03T12:55:02Z</time>
      </trkpt>
      <trkpt lat="44.18716" lon="5.09941">
        <ele>1153.814</ele>
        <time>2020-09-03T12:55:03Z</time>
      </trkpt>
      <trkpt lat="44.18724" lon="5.09936">
        <ele>1157.028</ele>
        <time>2020-09-03T12:55:04Z</time>
      </trkpt>
      <trkpt lat="44.18728" lon="5.09926">
        <ele>1159.607</ele>
        <time>2020-09-03T12:55:05Z</time>
      </trkpt>
      <trkpt lat="44.18726" lon="5.09904">
        <ele>1161.728</ele>
        <time>2020-09-03T12:55:07Z</time>
      </trkpt>
      <trkpt lat="44.1872" lon="5.09897">
        <ele>1163.647</ele>
        <time>2020-09-03T12:55:08Z</time>
      </trkpt>
      <trkpt lat="44.1872" lon="5.09897">
        <ele>1165.895</ele>
        <time>2020-09-03T12:55:08Z</time>
      </trkpt>
      <trkpt lat="44.18707" lon="5.09898">
        <ele>1168.298</ele>
        <time>2020-09-03T12:55:10Z</time>
      </trkpt>
      <trkpt lat="44.18701" lon="5.09905">
        <ele>1170.362</ele>
        <time>2020-09-03T12:55:11Z</time>
      </trkpt>
      <trkpt lat="44.18695" lon="5.09913">
        <ele>1172.748</ele>
        <time>2020-09-03T12:55:12Z</time>
      </trkpt>
      <trkpt lat="44.1869" lon="5.09922">
        <ele>1175.001</ele>
        <time>2020-09-03T12:55:13Z</time>
      </trkpt>
      <trkpt lat="44.18686" lon="5.09932">
        <ele>1176.603</ele>
        <time>2020-09-03T12:55:14Z</time>
      </trkpt>
      <trkpt lat="44.18682" lon="5.09944">
        <ele>1178.708</ele>
        <time>2020-09-03T12:55:15Z</time>
      </trkpt>
      <trkpt lat="44.18679" lon="5.09956">
        <ele>1181.321</ele>
        <time>2020-09-03T12:55:16Z</time>
      </trkpt>
      <trkpt lat="44.18676" lon="5.0997">
        <ele>1183.802</ele>
        <time>2020-09-03T12:55:17Z</time>
      </trkpt>
      <trkpt lat="44.18675" lon="5.09985">
        <ele>1186.268</ele>
        <time>2020-09-03T12:55:18Z</time>
      </trkpt>
      <trkpt lat="44.18675" lon="5.1">
        <ele>1188.493</ele>
        <time>2020-09-03T12:55:19Z</time>
      </trkpt>
      <trkpt lat="44.18677" lon="5.10015">
        <ele>1190.787</ele>
        <time>2020-09-03T12:55:20Z</time>
      </trkpt>
      <trkpt lat="44.18683" lon="5.10028">
        <ele>1192.781</ele>
        <time>2020-09-03T12:55:21Z</time>
      </trkpt>
      <trkpt lat="44.18692" lon="5.10034">
        <ele>1194.63</ele>
        <time>2020-09-03T12:55:22Z</time>
      </trkpt>
      <trkpt lat="44.18702" lon="5.10035">
        <ele>1196.458</ele>
        <time>2020-09-03T12:55:23Z</time>
      </trkpt>
      <trkpt lat="44.1871" lon="5.10031">
        <ele>1198.182</ele>
        <time>2020-09-03T12:55:24Z</time>
      </trkpt>
      <trkpt lat="44.18717" lon="5.10025">
        <ele>1200.267</ele>
        <time>2020-09-03T12:55:25Z</time>
      </trkpt>
      <trkpt lat="44.18722" lon="5.10019">
        <ele>1202.259</ele>
        <time>2020-09-03T12:55:26Z</time>
      </trkpt>
      <trkpt lat="44.18726" lon="5.10011">
        <ele>1204.469</ele>
        <time>2020-09-03T12:55:27Z</time>
      </trkpt>
      <trkpt lat="44.18728" lon="5.10003">
        <ele>1206.487</ele>
        <time>2020-09-03T12:55:28Z</time>
      </trkpt>
      <trkpt lat="44.18724" lon="5.09981">
        <ele>1208.045</ele>
        <time>2020-09-03T12:55:30Z</time>
      </trkpt>
      <trkpt lat="44.18717" lon="5.09973">
        <ele>1208.988</ele>
        <time>2020-09-03T12:55:31Z</time>
      </trkpt>
      <trkpt lat="44.18709" lon="5.09968">
        <ele>1210.094</ele>
        <time>2020-09-03T12:55:32Z</time>
      </trkpt>
      <trkpt lat="44.18699" lon="5.09967">
        <ele>1211.399</ele>
        <time>2020-09-03T12:55:33Z</time>
      </trkpt>
      <trkpt lat="44.18689" lon="5.09969">
        <ele>1212.891</ele>
        <time>2020-09-03T12:55:34Z</time>
      </trkpt>
      <trkpt lat="44.1868" lon="5.09971">
        <ele>1215.525</ele>
        <time>2020-09-03T12:55:35Z</time>
      </trkpt>
      <trkpt lat="44.18671" lon="5.09973">
        <ele>1217.801</ele>
        <time>2020-09-03T12:55:36Z</time>
      </trkpt>
      <trkpt lat="44.18663" lon="5.09975">
        <ele>1219.691</ele>
        <time>2020-09-03T12:55:37Z</time>
      </trkpt>
      <trkpt lat="44.18655" lon="5.09979">
        <ele>1221.489</ele>
        <time>2020-09-03T12:55:38Z</time>
      </trkpt>
      <trkpt lat="44.18648" lon="5.09987">
        <ele>1223.443</ele>
        <time>2020-09-03T12:55:39Z</time>
      </trkpt>
      <trkpt lat="44.18648" lon="5.09987">
        <ele>1225.123</ele>
        <time>2020-09-03T12:55:39Z</time>
      </trkpt>
      <trkpt lat="44.18648" lon="5.09987">
        <ele>1226.947</ele>
        <time>2020-09-03T12:55:39Z</time>
      </trkpt>
      <trkpt lat="44.18648" lon="5.09987">
        <ele>1228.444</ele>
        <time>2020-09-03T12:55:39Z</time>
      </trkpt>
      <trkpt lat="44.18627" lon="5.10036">
        <ele>1230.997</ele>
        <time>2020-09-03T12:55:43Z</time>
      </trkpt>
      <trkpt lat="44.18627" lon="5.1005">
        <ele>1234.168</ele>
        <time>2020-09-03T12:55:44Z</time>
      </trkpt>
      <trkpt lat="44.18628" lon="5.10063">
        <ele>1237.416</ele>
        <time>2020-09-03T12:55:45Z</time>
      </trkpt>
      <trkpt lat="44.18631" lon="5.10075">
        <ele>1240.715</ele>
        <time>2020-09-03T12:55:46Z</time>
      </trkpt>
      <trkpt lat="44.18636" lon="5.10086">
        <ele>1243.839</ele>
        <time>2020-09-03T12:55:47Z</time>
      </trkpt>
      <trkpt lat="44.18644" lon="5.10092">
        <ele>1246.645</ele>
        <time>2020-09-03T12:55:48Z</time>
      </trkpt>
      <trkpt lat="44.18659" lon="5.10082">
        <ele>1248.978</ele>
        <time>2020-09-03T12:55:50Z</time>
      </trkpt>
      <trkpt lat="44.18661" lon="5.10071">
        <ele>1251.503</ele>
        <time>2020-09-03T12:55:51Z</time>
      </trkpt>
      <trkpt lat="44.18658" lon="5.1006">
        <ele>1253.561</ele>
        <time>2020-09-03T12:55:52Z</time>
      </trkpt>
      <trkpt lat="44.18651" lon="5.10052">
        <ele>1255.684</ele>
        <time>2020-09-03T12:55:53Z</time>
      </trkpt>
      <trkpt lat="44.18642" lon="5.10049">
        <ele>1257.676</ele>
        <time>2020-09-03T12:55:54Z</time>
      </trkpt>
      <trkpt lat="44.18633" lon="5.10051">
        <ele>1260.453</ele>
        <time>2020-09-03T12:55:55Z</time>
      </trkpt>
      <trkpt lat="44.18624" lon="5.10057">
        <ele>1263.08</ele>
        <time>2020-09-03T12:55:56Z</time>
      </trkpt>
      <trkpt lat="44.18616" lon="5.10065">
        <ele>1266.703</ele>
        <time>2020-09-03T12:55:57Z</time>
      </trkpt>
      <trkpt lat="44.18616" lon="5.10065">
        <ele>1270.004</ele>
        <time>2020-09-03T12:55:57Z</time>
      </trkpt>
      <trkpt lat="44.186" lon="5.10098">
        <ele>1272.737</ele>
        <time>2020-09-03T12:56:00Z</time>
      </trkpt>
      <trkpt lat="44.18599" lon="5.10113">
        <ele>1275.657</ele>
        <time>2020-09-03T12:56:01Z</time>
      </trkpt>
      <trkpt lat="44.18602" lon="5.10127">
        <ele>1277.934</ele>
        <time>2020-09-03T12:56:02Z</time>
      </trkpt>
      <trkpt lat="44.18609" lon="5.10139">
        <ele>1280.527</ele>
        <time>2020-09-03T12:56:03Z</time>
      </trkpt>
      <trkpt lat="44.18618" lon="5.10146">
        <ele>1283.365</ele>
        <time>2020-09-03T12:56:04Z</time>
      </trkpt>
      <trkpt lat="44.18625" lon="5.10146">
        <ele>1286.355</ele>
        <time>2020-09-03T12:56:05Z</time>
      </trkpt>
      <trkpt lat="44.18632" lon="5.10142">
        <ele>1289.48</ele>
        <time>2020-09-03T12:56:06Z</time>
      </trkpt>
      <trkpt lat="44.18637" lon="5.10133">
        <ele>1292.599</ele>
        <time>2020-09-03T12:56:07Z</time>
      </trkpt>
      <trkpt lat="44.18639" lon="5.10123">
        <ele>1294.984</ele>
        <time>2020-09-03T12:56:08Z</time>
      </trkpt>
      <trkpt lat="44.18639" lon="5.10112">
        <ele>1297.725</ele>
        <time>2020-09-03T12:56:09Z</time>
      </trkpt>
      <trkpt lat="44.18636" lon="5.10104">
        <ele>1299.494</ele>
        <time>2020-09-03T12:56:10Z</time>
      </trkpt>
      <trkpt lat="44.18629" lon="5.10098">
        <ele>1302.264</ele>
        <time>2020-09-03T12:56:11Z</time>
      </trkpt>
      <trkpt lat="44.1862" lon="5.10097">
        <ele>1304.677</ele>
        <time>2020-09-03T12:56:12Z</time>
      </trkpt>
      <trkpt lat="44.18611" lon="5.101">
        <ele>1307.183</ele>
        <time>2020-09-03T12:56:13Z</time>
      </trkpt>
      <trkpt lat="44.18601" lon="5.10104">
        <ele>1309.62</ele>
        <time>2020-09-03T12:56:14Z</time>
      </trkpt>
      <trkpt lat="44.18593" lon="5.1011">
        <ele>1312.233</ele>
        <time>2020-09-03T12:56:15Z</time>
      </trkpt>
      <trkpt lat="44.18585" lon="5.10118">
        <ele>1314.758</ele>
        <time>2020-09-03T12:56:16Z</time>
      </trkpt>
      <trkpt lat="44.18579" lon="5.1013">
        <ele>1317.205</ele>
        <time>2020-09-03T12:56:17Z</time>
      </trkpt>
      <trkpt lat="44.18575" lon="5.10143">
        <ele>1319.913</ele>
        <time>2020-09-03T12:56:18Z</time>
      </trkpt>
      <trkpt lat="44.18573" lon="5.10157">
        <ele>1322.151</ele>
        <time>2020-09-03T12:56:19Z</time>
      </trkpt>
      <trkpt lat="44.18573" lon="5.1017">
        <ele>1324.319</ele>
        <time>2020-09-03T12:56:20Z</time>
      </trkpt>
      <trkpt lat="44.18577" lon="5.10182">
        <ele>1326.851</ele>
        <time>2020-09-03T12:56:21Z</time>
      </trkpt>
      <trkpt lat="44.18581" lon="5.10193">
        <ele>1328.927</ele>
        <time>2020-09-03T12:56:22Z</time>
      </trkpt>
      <trkpt lat="44.18587" lon="5.10202">
        <ele>1331.441</ele>
        <time>2020-09-03T12:56:23Z</time>
      </trkpt>
      <trkpt lat="44.18602" lon="5.10207">
        <ele>1333.801</ele>
        <time>2020-09-03T12:56:25Z</time>
      </trkpt>
      <trkpt lat="44.18608" lon="5.10199">
        <ele>1335.847</ele>
        <time>2020-09-03T12:56:26Z</time>
      </trkpt>
      <trkpt lat="44.18611" lon="5.10188">
        <ele>1336.93</ele>
        <time>2020-09-03T12:56:27Z</time>
      </trkpt>
      <trkpt lat="44.18611" lon="5.10177">
        <ele>1338.603</ele>
        <time>2020-09-03T12:56:28Z</time>
      </trkpt>
      <trkpt lat="44.1861" lon="5.10166">
        <ele>1340.623</ele>
        <time>2020-09-03T12:56:29Z</time>
      </trkpt>
      <trkpt lat="44.18607" lon="5.10156">
        <ele>1342.456</ele>
        <time>2020-09-03T12:56:30Z</time>
      </trkpt>
      <trkpt lat="44.18602" lon="5.10147">
        <ele>1344.327</ele>
        <time>2020-09-03T12:56:31Z</time>
      </trkpt>
      <trkpt lat="44.18595" lon="5.1014">
        <ele>1346.256</ele>
        <time>2020-09-03T12:56:32Z</time>
      </trkpt>
      <trkpt lat="44.18586" lon="5.10135">
        <ele>1348.327</ele>
        <time>2020-09-03T12:56:33Z</time>
      </trkpt>
      <trkpt lat="44.18577" lon="5.10136">
        <ele>1350.496</ele>
        <time>2020-09-03T12:56:34Z</time>
      </trkpt>
      <trkpt lat="44.18568" lon="5.1014">
        <ele>1352.586</ele>
        <time>2020-09-03T12:56:35Z</time>
      </trkpt>
      <trkpt lat="44.1856" lon="5.10149">
        <ele>1354.888</ele>
        <time>2020-09-03T12:56:36Z</time>
      </trkpt>
      <trkpt lat="44.18553" lon="5.10159">
        <ele>1356.917</ele>
        <time>2020-09-03T12:56:37Z</time>
      </trkpt>
      <trkpt lat="44.18553" lon="5.10159">
        <ele>1358.153</ele>
        <time>2020-09-03T12:56:37Z</time>
      </trkpt>
      <trkpt lat="44.18545" lon="5.10183">
        <ele>1360.295</ele>
        <time>2020-09-03T12:56:39Z</time>
      </trkpt>
      <trkpt lat="44.18546" lon="5.10197">
        <ele>1362.041</ele>
        <time>2020-09-03T12:56:40Z</time>
      </trkpt>
      <trkpt lat="44.18547" lon="5.10211">
        <ele>1363.71</ele>
        <time>2020-09-03T12:56:41Z</time>
      </trkpt>
      <trkpt lat="44.18551" lon="5.10224">
        <ele>1365.791</ele>
        <time>2020-09-03T12:56:42Z</time>
      </trkpt>
      <trkpt lat="44.18554" lon="5.10236">
        <ele>1368.061</ele>
        <time>2020-09-03T12:56:43Z</time>
      </trkpt>
      <trkpt lat="44.18558" lon="5.10248">
        <ele>1370.436</ele>
        <time>2020-09-03T12:56:44Z</time>
      </trkpt>
      <trkpt lat="44.18558" lon="5.10248">
        <ele>1372.549</ele>
        <time>2020-09-03T12:56:44Z</time>
      </trkpt>
      <trkpt lat="44.18577" lon="5.10268">
        <ele>1373.735</ele>
        <time>2020-09-03T12:56:47Z</time>
      </trkpt>
      <trkpt lat="44.18585" lon="5.10267">
        <ele>1374.017</ele>
        <time>2020-09-03T12:56:48Z</time>
      </trkpt>
      <trkpt lat="44.18592" lon="5.10261">
        <ele>1374.116</ele>
        <time>2020-09-03T12:56:49Z</time>
      </trkpt>
      <trkpt lat="44.18596" lon="5.10251">
        <ele>1374.412</ele>
        <time>2020-09-03T12:56:50Z</time>
      </trkpt>
      <trkpt lat="44.18598" lon="5.10241">
        <ele>1375.027</ele>
        <time>2020-09-03T12:56:51Z</time>
      </trkpt>
      <trkpt lat="44.18598" lon="5.10232">
        <ele>1376.116</ele>
        <time>2020-09-03T12:56:52Z</time>
      </trkpt>
      <trkpt lat="44.18598" lon="5.10223">
        <ele>1377.525</ele>
        <time>2020-09-03T12:56:53Z</time>
      </trkpt>
      <trkpt lat="44.18597" lon="5.10214">
        <ele>1379.113</ele>
        <time>2020-09-03T12:56:54Z</time>
      </trkpt>
      <trkpt lat="44.18595" lon="5.10204">
        <ele>1380.336</ele>
        <time>2020-09-03T12:56:55Z</time>
      </trkpt>
      <trkpt lat="44.18595" lon="5.10204">
        <ele>1381.261</ele>
        <time>2020-09-03T12:56:55Z</time>
      </trkpt>
      <trkpt lat="44.18595" lon="5.10204">
        <ele>1382.294</ele>
        <time>2020-09-03T12:56:55Z</time>
      </trkpt>
      <trkpt lat="44.18595" lon="5.10204">
        <ele>1383.421</ele>
        <time>2020-09-03T12:56:55Z</time>
      </trkpt>
      <trkpt lat="44.18566" lon="5.10181">
        <ele>1384.842</ele>
        <time>2020-09-03T12:56:59Z</time>
      </trkpt>
      <trkpt lat="44.18558" lon="5.10184">
        <ele>1386.011</ele>
        <time>2020-09-03T12:57:00Z</time>
      </trkpt>
      <trkpt lat="44.18549" lon="5.10188">
        <ele>1387.182</ele>
        <time>2020-09-03T12:57:01Z</time>
      </trkpt>
      <trkpt lat="44.18541" lon="5.10194">
        <ele>1388.154</ele>
        <time>2020-09-03T12:57:02Z</time>
      </trkpt>
      <trkpt lat="44.18533" lon="5.10201">
        <ele>1388.963</ele>
        <time>2020-09-03T12:57:03Z</time>
      </trkpt>
      <trkpt lat="44.18526" lon="5.10211">
        <ele>1390.007</ele>
        <time>2020-09-03T12:57:04Z</time>
      </trkpt>
      <trkpt lat="44.18513" lon="5.10233">
        <ele>1391.002</ele>
        <time>2020-09-03T12:57:06Z</time>
      </trkpt>
      <trkpt lat="44.18506" lon="5.10243">
        <ele>1393.01</ele>
        <time>2020-09-03T12:57:07Z</time>
      </trkpt>
      <trkpt lat="44.18501" lon="5.10253">
        <ele>1395.316</ele>
        <time>2020-09-03T12:57:08Z</time>
      </trkpt>
      <trkpt lat="44.18501" lon="5.10253">
        <ele>1397.869</ele>
        <time>2020-09-03T12:57:08Z</time>
      </trkpt>
      <trkpt lat="44.18491" lon="5.10277">
        <ele>1399.987</ele>
        <time>2020-09-03T12:57:10Z</time>
      </trkpt>
      <trkpt lat="44.18489" lon="5.10291">
        <ele>1401.409</ele>
        <time>2020-09-03T12:57:11Z</time>
      </trkpt>
      <trkpt lat="44.18492" lon="5.10303">
        <ele>1402.376</ele>
        <time>2020-09-03T12:57:12Z</time>
      </trkpt>
      <trkpt lat="44.18499" lon="5.10312">
        <ele>1402.7</ele>
        <time>2020-09-03T12:57:13Z</time>
      </trkpt>
      <trkpt lat="44.18509" lon="5.10313">
        <ele>1402.675</ele>
        <time>2020-09-03T12:57:14Z</time>
      </trkpt>
      <trkpt lat="44.18509" lon="5.10313">
        <ele>1403.1</ele>
        <time>2020-09-03T12:57:14Z</time>
      </trkpt>
      <trkpt lat="44.18528" lon="5.10299">
        <ele>1404.096</ele>
        <time>2020-09-03T12:57:17Z</time>
      </trkpt>
      <trkpt lat="44.18534" lon="5.10294">
        <ele>1405.209</ele>
        <time>2020-09-03T12:57:18Z</time>
      </trkpt>
      <trkpt lat="44.18539" lon="5.10289">
        <ele>1406.089</ele>
        <time>2020-09-03T12:57:19Z</time>
      </trkpt>
      <trkpt lat="44.18545" lon="5.10282">
        <ele>1406.559</ele>
        <time>2020-09-03T12:57:20Z</time>
      </trkpt>
      <trkpt lat="44.1855" lon="5.10273">
        <ele>1407.013</ele>
        <time>2020-09-03T12:57:21Z</time>
      </trkpt>
      <trkpt lat="44.18553" lon="5.10263">
        <ele>1407.385</ele>
        <time>2020-09-03T12:57:22Z</time>
      </trkpt>
      <trkpt lat="44.18556" lon="5.10252">
        <ele>1407.745</ele>
        <time>2020-09-03T12:57:23Z</time>
      </trkpt>
      <trkpt lat="44.18558" lon="5.10242">
        <ele>1408.275</ele>
        <time>2020-09-03T12:57:24Z</time>
      </trkpt>
      <trkpt lat="44.18558" lon="5.10231">
        <ele>1408.958</ele>
        <time>2020-09-03T12:57:25Z</time>
      </trkpt>
      <trkpt lat="44.18558" lon="5.10221">
        <ele>1409.878</ele>
        <time>2020-09-03T12:57:26Z</time>
      </trkpt>
      <trkpt lat="44.18557" lon="5.10211">
        <ele>1410.86</ele>
        <time>2020-09-03T12:57:27Z</time>
      </trkpt>
      <trkpt lat="44.18557" lon="5.10201">
        <ele>1411.54</ele>
        <time>2020-09-03T12:57:28Z</time>
      </trkpt>
      <trkpt lat="44.18556" lon="5.10192">
        <ele>1412.301</ele>
        <time>2020-09-03T12:57:29Z</time>
      </trkpt>
      <trkpt lat="44.18555" lon="5.10183">
        <ele>1412.995</ele>
        <time>2020-09-03T12:57:30Z</time>
      </trkpt>
      <trkpt lat="44.18553" lon="5.10176">
        <ele>1413.566</ele>
        <time>2020-09-03T12:57:31Z</time>
      </trkpt>
      <trkpt lat="44.18549" lon="5.10168">
        <ele>1413.942</ele>
        <time>2020-09-03T12:57:32Z</time>
      </trkpt>
      <trkpt lat="44.18549" lon="5.10168">
        <ele>1413.964</ele>
        <time>2020-09-03T12:57:32Z</time>
      </trkpt>
      <trkpt lat="44.18538" lon="5.10158">
        <ele>1413.57</ele>
        <time>2020-09-03T12:57:34Z</time>
      </trkpt>
      <trkpt lat="44.18529" lon="5.10157">
        <ele>1412.513</ele>
        <time>2020-09-03T12:57:35Z</time>
      </trkpt>
      <trkpt lat="44.18505" lon="5.10166">
        <ele>1411.617</ele>
        <time>2020-09-03T12:57:37Z</time>
      </trkpt>
      <trkpt lat="44.18494" lon="5.10175">
        <ele>1410.929</ele>
        <time>2020-09-03T12:57:38Z</time>
      </trkpt>
      <trkpt lat="44.18494" lon="5.10175">
        <ele>1410.599</ele>
        <time>2020-09-03T12:57:38Z</time>
      </trkpt>
      <trkpt lat="44.18481" lon="5.10199">
        <ele>1410.453</ele>
        <time>2020-09-03T12:57:40Z</time>
      </trkpt>
      <trkpt lat="44.18476" lon="5.10212">
        <ele>1410.016</ele>
        <time>2020-09-03T12:57:41Z</time>
      </trkpt>
      <trkpt lat="44.18471" lon="5.10227">
        <ele>1409.81</ele>
        <time>2020-09-03T12:57:42Z</time>
      </trkpt>
      <trkpt lat="44.18468" lon="5.1024">
        <ele>1409.97</ele>
        <time>2020-09-03T12:57:43Z</time>
      </trkpt>
      <trkpt lat="44.18465" lon="5.10254">
        <ele>1410.392</ele>
        <time>2020-09-03T12:57:44Z</time>
      </trkpt>
      <trkpt lat="44.18463" lon="5.10266">
        <ele>1410.649</ele>
        <time>2020-09-03T12:57:45Z</time>
      </trkpt>
      <trkpt lat="44.18461" lon="5.10279">
        <ele>1410.548</ele>
        <time>2020-09-03T12:57:46Z</time>
      </trkpt>
      <trkpt lat="44.18459" lon="5.10292">
        <ele>1410.287</ele>
        <time>2020-09-03T12:57:47Z</time>
      </trkpt>
      <trkpt lat="44.18456" lon="5.10308">
        <ele>1410.222</ele>
        <time>2020-09-03T12:57:48Z</time>
      </trkpt>
      <trkpt lat="44.18455" lon="5.10324">
        <ele>1410.798</ele>
        <time>2020-09-03T12:57:49Z</time>
      </trkpt>
      <trkpt lat="44.18455" lon="5.1034">
        <ele>1412.588</ele>
        <time>2020-09-03T12:57:50Z</time>
      </trkpt>
      <trkpt lat="44.18455" lon="5.10353">
        <ele>1414.943</ele>
        <time>2020-09-03T12:57:51Z</time>
      </trkpt>
      <trkpt lat="44.18455" lon="5.10364">
        <ele>1417.208</ele>
        <time>2020-09-03T12:57:52Z</time>
      </trkpt>
      <trkpt lat="44.18455" lon="5.10374">
        <ele>1418.914</ele>
        <time>2020-09-03T12:57:53Z</time>
      </trkpt>
      <trkpt lat="44.18456" lon="5.10385">
        <ele>1419.802</ele>
        <time>2020-09-03T12:57:54Z</time>
      </trkpt>
      <trkpt lat="44.18456" lon="5.10385">
        <ele>1420.165</ele>
        <time>2020-09-03T12:57:54Z</time>
      </trkpt>
      <trkpt lat="44.18456" lon="5.10385">
        <ele>1420.189</ele>
        <time>2020-09-03T12:57:54Z</time>
      </trkpt>
      <trkpt lat="44.18456" lon="5.10385">
        <ele>1420.448</ele>
        <time>2020-09-03T12:57:54Z</time>
      </trkpt>
      <trkpt lat="44.18456" lon="5.10385">
        <ele>1421.289</ele>
        <time>2020-09-03T12:57:54Z</time>
      </trkpt>
      <trkpt lat="44.18483" lon="5.1043">
        <ele>1422.638</ele>
        <time>2020-09-03T12:57:59Z</time>
      </trkpt>
      <trkpt lat="44.18493" lon="5.10448">
        <ele>1423.999</ele>
        <time>2020-09-03T12:58:01Z</time>
      </trkpt>
      <trkpt lat="44.18498" lon="5.10458">
        <ele>1424.848</ele>
        <time>2020-09-03T12:58:02Z</time>
      </trkpt>
      <trkpt lat="44.18503" lon="5.10468">
        <ele>1425.92</ele>
        <time>2020-09-03T12:58:03Z</time>
      </trkpt>
      <trkpt lat="44.18503" lon="5.10468">
        <ele>1426.89</ele>
        <time>2020-09-03T12:58:03Z</time>
      </trkpt>
      <trkpt lat="44.18512" lon="5.10488">
        <ele>1428.189</ele>
        <time>2020-09-03T12:58:05Z</time>
      </trkpt>
      <trkpt lat="44.18516" lon="5.10497">
        <ele>1429.372</ele>
        <time>2020-09-03T12:58:06Z</time>
      </trkpt>
      <trkpt lat="44.18519" lon="5.10507">
        <ele>1429.921</ele>
        <time>2020-09-03T12:58:07Z</time>
      </trkpt>
      <trkpt lat="44.18522" lon="5.10517">
        <ele>1429.894</ele>
        <time>2020-09-03T12:58:08Z</time>
      </trkpt>
      <trkpt lat="44.18526" lon="5.10528">
        <ele>1429.816</ele>
        <time>2020-09-03T12:58:09Z</time>
      </trkpt>
      <trkpt lat="44.18532" lon="5.10553">
        <ele>1430.136</ele>
        <time>2020-09-03T12:58:11Z</time>
      </trkpt>
      <trkpt lat="44.18533" lon="5.10566">
        <ele>1431.06</ele>
        <time>2020-09-03T12:58:12Z</time>
      </trkpt>
      <trkpt lat="44.18535" lon="5.10578">
        <ele>1432.247</ele>
        <time>2020-09-03T12:58:13Z</time>
      </trkpt>
      <trkpt lat="44.18535" lon="5.10578">
        <ele>1433.404</ele>
        <time>2020-09-03T12:58:13Z</time>
      </trkpt>
      <trkpt lat="44.18538" lon="5.10605">
        <ele>1434.403</ele>
        <time>2020-09-03T12:58:15Z</time>
      </trkpt>
      <trkpt lat="44.18539" lon="5.10619">
        <ele>1435.421</ele>
        <time>2020-09-03T12:58:16Z</time>
      </trkpt>
      <trkpt lat="44.1854" lon="5.10633">
        <ele>1436.48</ele>
        <time>2020-09-03T12:58:17Z</time>
      </trkpt>
      <trkpt lat="44.1854" lon="5.10647">
        <ele>1437.28</ele>
        <time>2020-09-03T12:58:18Z</time>
      </trkpt>
      <trkpt lat="44.1854" lon="5.10661">
        <ele>1438.072</ele>
        <time>2020-09-03T12:58:19Z</time>
      </trkpt>
      <trkpt lat="44.1854" lon="5.10677">
        <ele>1438.752</ele>
        <time>2020-09-03T12:58:20Z</time>
      </trkpt>
      <trkpt lat="44.1854" lon="5.10693">
        <ele>1439.51</ele>
        <time>2020-09-03T12:58:21Z</time>
      </trkpt>
      <trkpt lat="44.1854" lon="5.10709">
        <ele>1440.309</ele>
        <time>2020-09-03T12:58:22Z</time>
      </trkpt>
      <trkpt lat="44.18541" lon="5.10725">
        <ele>1441.548</ele>
        <time>2020-09-03T12:58:23Z</time>
      </trkpt>
      <trkpt lat="44.18542" lon="5.1074">
        <ele>1442.752</ele>
        <time>2020-09-03T12:58:24Z</time>
      </trkpt>
      <trkpt lat="44.18544" lon="5.10755">
        <ele>1443.862</ele>
        <time>2020-09-03T12:58:25Z</time>
      </trkpt>
      <trkpt lat="44.18546" lon="5.10768">
        <ele>1444.811</ele>
        <time>2020-09-03T12:58:26Z</time>
      </trkpt>
      <trkpt lat="44.18552" lon="5.10779">
        <ele>1445.335</ele>
        <time>2020-09-03T12:58:27Z</time>
      </trkpt>
      <trkpt lat="44.18558" lon="5.10785">
        <ele>1445.464</ele>
        <time>2020-09-03T12:58:28Z</time>
      </trkpt>
      <trkpt lat="44.18565" lon="5.10786">
        <ele>1445.426</ele>
        <time>2020-09-03T12:58:29Z</time>
      </trkpt>
      <trkpt lat="44.18569" lon="5.10782">
        <ele>1445.347</ele>
        <time>2020-09-03T12:58:30Z</time>
      </trkpt>
      <trkpt lat="44.18571" lon="5.1077">
        <ele>1445.229</ele>
        <time>2020-09-03T12:58:32Z</time>
      </trkpt>
      <trkpt lat="44.18568" lon="5.10764">
        <ele>1445.076</ele>
        <time>2020-09-03T12:58:33Z</time>
      </trkpt>
      <trkpt lat="44.18568" lon="5.10764">
        <ele>1444.761</ele>
        <time>2020-09-03T12:58:33Z</time>
      </trkpt>
      <trkpt lat="44.18555" lon="5.10756">
        <ele>1444.191</ele>
        <time>2020-09-03T12:58:35Z</time>
      </trkpt>
      <trkpt lat="44.18546" lon="5.10755">
        <ele>1443.467</ele>
        <time>2020-09-03T12:58:36Z</time>
      </trkpt>
      <trkpt lat="44.18535" lon="5.10757">
        <ele>1442.956</ele>
        <time>2020-09-03T12:58:37Z</time>
      </trkpt>
      <trkpt lat="44.18524" lon="5.10761">
        <ele>1442.883</ele>
        <time>2020-09-03T12:58:38Z</time>
      </trkpt>
      <trkpt lat="44.18512" lon="5.10767">
        <ele>1443.424</ele>
        <time>2020-09-03T12:58:39Z</time>
      </trkpt>
      <trkpt lat="44.18502" lon="5.10774">
        <ele>1444.519</ele>
        <time>2020-09-03T12:58:40Z</time>
      </trkpt>
      <trkpt lat="44.18494" lon="5.10783">
        <ele>1445.768</ele>
        <time>2020-09-03T12:58:41Z</time>
      </trkpt>
      <trkpt lat="44.18487" lon="5.10791">
        <ele>1446.962</ele>
        <time>2020-09-03T12:58:42Z</time>
      </trkpt>
      <trkpt lat="44.18481" lon="5.108">
        <ele>1447.663</ele>
        <time>2020-09-03T12:58:43Z</time>
      </trkpt>
      <trkpt lat="44.18477" lon="5.10811">
        <ele>1447.541</ele>
        <time>2020-09-03T12:58:44Z</time>
      </trkpt>
      <trkpt lat="44.18474" lon="5.10826">
        <ele>1446.437</ele>
        <time>2020-09-03T12:58:45Z</time>
      </trkpt>
      <trkpt lat="44.18472" lon="5.10844">
        <ele>1445.043</ele>
        <time>2020-09-03T12:58:46Z</time>
      </trkpt>
      <trkpt lat="44.18471" lon="5.10863">
        <ele>1443.857</ele>
        <time>2020-09-03T12:58:47Z</time>
      </trkpt>
      <trkpt lat="44.18472" lon="5.10881">
        <ele>1444.008</ele>
        <time>2020-09-03T12:58:48Z</time>
      </trkpt>
      <trkpt lat="44.18471" lon="5.10898">
        <ele>1445.272</ele>
        <time>2020-09-03T12:58:49Z</time>
      </trkpt>
      <trkpt lat="44.1847" lon="5.10913">
        <ele>1447.578</ele>
        <time>2020-09-03T12:58:50Z</time>
      </trkpt>
      <trkpt lat="44.18468" lon="5.10927">
        <ele>1450.227</ele>
        <time>2020-09-03T12:58:51Z</time>
      </trkpt>
      <trkpt lat="44.18466" lon="5.10941">
        <ele>1452.183</ele>
        <time>2020-09-03T12:58:52Z</time>
      </trkpt>
      <trkpt lat="44.18466" lon="5.10941">
        <ele>1454.044</ele>
        <time>2020-09-03T12:58:52Z</time>
      </trkpt>
      <trkpt lat="44.18459" lon="5.10972">
        <ele>1456.075</ele>
        <time>2020-09-03T12:58:54Z</time>
      </trkpt>
      <trkpt lat="44.18448" lon="5.10996">
        <ele>1457.782</ele>
        <time>2020-09-03T12:58:56Z</time>
      </trkpt>
      <trkpt lat="44.1844" lon="5.11004">
        <ele>1459.672</ele>
        <time>2020-09-03T12:58:57Z</time>
      </trkpt>
      <trkpt lat="44.18432" lon="5.11009">
        <ele>1460.768</ele>
        <time>2020-09-03T12:58:58Z</time>
      </trkpt>
      <trkpt lat="44.18432" lon="5.11009">
        <ele>1462.392</ele>
        <time>2020-09-03T12:58:58Z</time>
      </trkpt>
      <trkpt lat="44.18419" lon="5.11008">
        <ele>1464.048</ele>
        <time>2020-09-03T12:59:00Z</time>
      </trkpt>
      <trkpt lat="44.18415" lon="5.11001">
        <ele>1465.204</ele>
        <time>2020-09-03T12:59:01Z</time>
      </trkpt>
      <trkpt lat="44.18415" lon="5.10993">
        <ele>1466.534</ele>
        <time>2020-09-03T12:59:02Z</time>
      </trkpt>
      <trkpt lat="44.18419" lon="5.10987">
        <ele>1467.469</ele>
        <time>2020-09-03T12:59:03Z</time>
      </trkpt>
      <trkpt lat="44.18426" lon="5.10985">
        <ele>1468.513</ele>
        <time>2020-09-03T12:59:04Z</time>
      </trkpt>
      <trkpt lat="44.18435" lon="5.10989">
        <ele>1469.524</ele>
        <time>2020-09-03T12:59:05Z</time>
      </trkpt>
      <trkpt lat="44.18442" lon="5.10997">
        <ele>1470.728</ele>
        <time>2020-09-03T12:59:06Z</time>
      </trkpt>
      <trkpt lat="44.18449" lon="5.11008">
        <ele>1472.203</ele>
        <time>2020-09-03T12:59:07Z</time>
      </trkpt>
      <trkpt lat="44.18454" lon="5.1102">
        <ele>1473.712</ele>
        <time>2020-09-03T12:59:08Z</time>
      </trkpt>
      <trkpt lat="44.18458" lon="5.11033">
        <ele>1475.549</ele>
        <time>2020-09-03T12:59:09Z</time>
      </trkpt>
      <trkpt lat="44.18462" lon="5.11046">
        <ele>1476.935</ele>
        <time>2020-09-03T12:59:10Z</time>
      </trkpt>
      <trkpt lat="44.18463" lon="5.1106">
        <ele>1478.299</ele>
        <time>2020-09-03T12:59:11Z</time>
      </trkpt>
      <trkpt lat="44.18462" lon="5.11075">
        <ele>1479.198</ele>
        <time>2020-09-03T12:59:12Z</time>
      </trkpt>
      <trkpt lat="44.18459" lon="5.1109">
        <ele>1479.837</ele>
        <time>2020-09-03T12:59:13Z</time>
      </trkpt>
      <trkpt lat="44.18451" lon="5.11101">
        <ele>1480.098</ele>
        <time>2020-09-03T12:59:14Z</time>
      </trkpt>
      <trkpt lat="44.18442" lon="5.11109">
        <ele>1480.152</ele>
        <time>2020-09-03T12:59:15Z</time>
      </trkpt>
      <trkpt lat="44.18433" lon="5.11114">
        <ele>1480.056</ele>
        <time>2020-09-03T12:59:16Z</time>
      </trkpt>
      <trkpt lat="44.18425" lon="5.11116">
        <ele>1479.82</ele>
        <time>2020-09-03T12:59:17Z</time>
      </trkpt>
      <trkpt lat="44.18418" lon="5.11117">
        <ele>1479.258</ele>
        <time>2020-09-03T12:59:18Z</time>
      </trkpt>
      <trkpt lat="44.18411" lon="5.11115">
        <ele>1477.903</ele>
        <time>2020-09-03T12:59:19Z</time>
      </trkpt>
      <trkpt lat="44.18398" lon="5.11106">
        <ele>1475.864</ele>
        <time>2020-09-03T12:59:21Z</time>
      </trkpt>
      <trkpt lat="44.18395" lon="5.11098">
        <ele>1473.137</ele>
        <time>2020-09-03T12:59:22Z</time>
      </trkpt>
      <trkpt lat="44.18396" lon="5.1109">
        <ele>1471.487</ele>
        <time>2020-09-03T12:59:23Z</time>
      </trkpt>
      <trkpt lat="44.18403" lon="5.11084">
        <ele>1470.595</ele>
        <time>2020-09-03T12:59:24Z</time>
      </trkpt>
      <trkpt lat="44.1841" lon="5.1108">
        <ele>1470.565</ele>
        <time>2020-09-03T12:59:25Z</time>
      </trkpt>
      <trkpt lat="44.18416" lon="5.11079">
        <ele>1471.295</ele>
        <time>2020-09-03T12:59:26Z</time>
      </trkpt>
      <trkpt lat="44.18422" lon="5.1108">
        <ele>1472.92</ele>
        <time>2020-09-03T12:59:27Z</time>
      </trkpt>
      <trkpt lat="44.18429" lon="5.1108">
        <ele>1474.582</ele>
        <time>2020-09-03T12:59:28Z</time>
      </trkpt>
      <trkpt lat="44.18429" lon="5.1108">
        <ele>1475.858</ele>
        <time>2020-09-03T12:59:28Z</time>
      </trkpt>
      <trkpt lat="44.18429" lon="5.1108">
        <ele>1476.555</ele>
        <time>2020-09-03T12:59:28Z</time>
      </trkpt>
      <trkpt lat="44.18429" lon="5.1108">
        <ele>1476.856</ele>
        <time>2020-09-03T12:59:28Z</time>
      </trkpt>
      <trkpt lat="44.18429" lon="5.1108">
        <ele>1476.714</ele>
        <time>2020-09-03T12:59:28Z</time>
      </trkpt>
      <trkpt lat="44.18429" lon="5.1108">
        <ele>1476.133</ele>
        <time>2020-09-03T12:59:28Z</time>
      </trkpt>
      <trkpt lat="44.1847" lon="5.11086">
        <ele>1475.109</ele>
        <time>2020-09-03T12:59:34Z</time>
      </trkpt>
      <trkpt lat="44.1847" lon="5.11086">
        <ele>1473.381</ele>
        <time>2020-09-03T12:59:34Z</time>
      </trkpt>
      <trkpt lat="44.1847" lon="5.11086">
        <ele>1471.515</ele>
        <time>2020-09-03T12:59:34Z</time>
      </trkpt>
      <trkpt lat="44.1847" lon="5.11086">
        <ele>1469.677</ele>
        <time>2020-09-03T12:59:34Z</time>
      </trkpt>
      <trkpt lat="44.1847" lon="5.11086">
        <ele>1468.326</ele>
        <time>2020-09-03T12:59:34Z</time>
      </trkpt>
      <trkpt lat="44.18503" lon="5.1114">
        <ele>1467.533</ele>
        <time>2020-09-03T12:59:39Z</time>
      </trkpt>
      <trkpt lat="44.18503" lon="5.1114">
        <ele>1467.052</ele>
        <time>2020-09-03T12:59:39Z</time>
      </trkpt>
      <trkpt lat="44.18511" lon="5.11168">
        <ele>1466.489</ele>
        <time>2020-09-03T12:59:41Z</time>
      </trkpt>
      <trkpt lat="44.18516" lon="5.11196">
        <ele>1465.454</ele>
        <time>2020-09-03T12:59:43Z</time>
      </trkpt>
      <trkpt lat="44.18516" lon="5.11196">
        <ele>1463.937</ele>
        <time>2020-09-03T12:59:43Z</time>
      </trkpt>
      <trkpt lat="44.18523" lon="5.11228">
        <ele>1462.424</ele>
        <time>2020-09-03T12:59:45Z</time>
      </trkpt>
      <trkpt lat="44.18526" lon="5.11242">
        <ele>1460.992</ele>
        <time>2020-09-03T12:59:46Z</time>
      </trkpt>
      <trkpt lat="44.1853" lon="5.11255">
        <ele>1459.811</ele>
        <time>2020-09-03T12:59:47Z</time>
      </trkpt>
      <trkpt lat="44.18533" lon="5.11268">
        <ele>1458.401</ele>
        <time>2020-09-03T12:59:48Z</time>
      </trkpt>
      <trkpt lat="44.18536" lon="5.11283">
        <ele>1456.03</ele>
        <time>2020-09-03T12:59:49Z</time>
      </trkpt>
      <trkpt lat="44.18536" lon="5.11283">
        <ele>1453.98</ele>
        <time>2020-09-03T12:59:49Z</time>
      </trkpt>
      <trkpt lat="44.18536" lon="5.11283">
        <ele>1452.13</ele>
        <time>2020-09-03T12:59:49Z</time>
      </trkpt>
      <trkpt lat="44.18547" lon="5.11354">
        <ele>1451.176</ele>
        <time>2020-09-03T12:59:53Z</time>
      </trkpt>
      <trkpt lat="44.18547" lon="5.11354">
        <ele>1450.655</ele>
        <time>2020-09-03T12:59:53Z</time>
      </trkpt>
      <trkpt lat="44.18551" lon="5.11389">
        <ele>1449.824</ele>
        <time>2020-09-03T12:59:55Z</time>
      </trkpt>
      <trkpt lat="44.18553" lon="5.11407">
        <ele>1448.904</ele>
        <time>2020-09-03T12:59:56Z</time>
      </trkpt>
      <trkpt lat="44.18557" lon="5.11426">
        <ele>1448.673</ele>
        <time>2020-09-03T12:59:57Z</time>
      </trkpt>
      <trkpt lat="44.18561" lon="5.11444">
        <ele>1449.255</ele>
        <time>2020-09-03T12:59:58Z</time>
      </trkpt>
      <trkpt lat="44.18561" lon="5.11444">
        <ele>1450.337</ele>
        <time>2020-09-03T12:59:58Z</time>
      </trkpt>
      <trkpt lat="44.1857" lon="5.11468">
        <ele>1451.212</ele>
        <time>2020-09-03T13:00:00Z</time>
      </trkpt>
      <trkpt lat="44.18574" lon="5.11479">
        <ele>1451.092</ele>
        <time>2020-09-03T13:00:01Z</time>
      </trkpt>
      <trkpt lat="44.18578" lon="5.11493">
        <ele>1450.146</ele>
        <time>2020-09-03T13:00:02Z</time>
      </trkpt>
      <trkpt lat="44.18582" lon="5.11509">
        <ele>1448.688</ele>
        <time>2020-09-03T13:00:03Z</time>
      </trkpt>
      <trkpt lat="44.18584" lon="5.11526">
        <ele>1447.38</ele>
        <time>2020-09-03T13:00:04Z</time>
      </trkpt>
      <trkpt lat="44.18585" lon="5.11542">
        <ele>1446.288</ele>
        <time>2020-09-03T13:00:05Z</time>
      </trkpt>
      <trkpt lat="44.18585" lon="5.11557">
        <ele>1445.272</ele>
        <time>2020-09-03T13:00:06Z</time>
      </trkpt>
      <trkpt lat="44.18586" lon="5.11572">
        <ele>1443.95</ele>
        <time>2020-09-03T13:00:07Z</time>
      </trkpt>
      <trkpt lat="44.18586" lon="5.11587">
        <ele>1441.898</ele>
        <time>2020-09-03T13:00:08Z</time>
      </trkpt>
      <trkpt lat="44.18585" lon="5.11604">
        <ele>1439.78</ele>
        <time>2020-09-03T13:00:09Z</time>
      </trkpt>
      <trkpt lat="44.18583" lon="5.11623">
        <ele>1437.847</ele>
        <time>2020-09-03T13:00:10Z</time>
      </trkpt>
      <trkpt lat="44.18579" lon="5.1164">
        <ele>1436.84</ele>
        <time>2020-09-03T13:00:11Z</time>
      </trkpt>
      <trkpt lat="44.18579" lon="5.1164">
        <ele>1436.143</ele>
        <time>2020-09-03T13:00:11Z</time>
      </trkpt>
      <trkpt lat="44.18573" lon="5.11669">
        <ele>1435.046</ele>
        <time>2020-09-03T13:00:13Z</time>
      </trkpt>
      <trkpt lat="44.18572" lon="5.11679">
        <ele>1432.951</ele>
        <time>2020-09-03T13:00:14Z</time>
      </trkpt>
      <trkpt lat="44.18567" lon="5.11712">
        <ele>1429.654</ele>
        <time>2020-09-03T13:00:16Z</time>
      </trkpt>
      <trkpt lat="44.18565" lon="5.11732">
        <ele>1426.59</ele>
        <time>2020-09-03T13:00:17Z</time>
      </trkpt>
      <trkpt lat="44.18565" lon="5.11752">
        <ele>1424.12</ele>
        <time>2020-09-03T13:00:18Z</time>
      </trkpt>
      <trkpt lat="44.18566" lon="5.11773">
        <ele>1423.225</ele>
        <time>2020-09-03T13:00:19Z</time>
      </trkpt>
      <trkpt lat="44.18567" lon="5.11792">
        <ele>1423.482</ele>
        <time>2020-09-03T13:00:20Z</time>
      </trkpt>
      <trkpt lat="44.18569" lon="5.11808">
        <ele>1423.885</ele>
        <time>2020-09-03T13:00:21Z</time>
      </trkpt>
      <trkpt lat="44.18571" lon="5.11823">
        <ele>1424.471</ele>
        <time>2020-09-03T13:00:22Z</time>
      </trkpt>
      <trkpt lat="44.18574" lon="5.11838">
        <ele>1424.684</ele>
        <time>2020-09-03T13:00:23Z</time>
      </trkpt>
      <trkpt lat="44.18576" lon="5.11853">
        <ele>1424.577</ele>
        <time>2020-09-03T13:00:24Z</time>
      </trkpt>
      <trkpt lat="44.18578" lon="5.11868">
        <ele>1424.519</ele>
        <time>2020-09-03T13:00:25Z</time>
      </trkpt>
      <trkpt lat="44.1858" lon="5.11883">
        <ele>1424.764</ele>
        <time>2020-09-03T13:00:26Z</time>
      </trkpt>
      <trkpt lat="44.18581" lon="5.11897">
        <ele>1425.265</ele>
        <time>2020-09-03T13:00:27Z</time>
      </trkpt>
      <trkpt lat="44.18583" lon="5.1191">
        <ele>1425.683</ele>
        <time>2020-09-03T13:00:28Z</time>
      </trkpt>
      <trkpt lat="44.18584" lon="5.11922">
        <ele>1425.707</ele>
        <time>2020-09-03T13:00:29Z</time>
      </trkpt>
      <trkpt lat="44.18585" lon="5.11937">
        <ele>1425.159</ele>
        <time>2020-09-03T13:00:30Z</time>
      </trkpt>
      <trkpt lat="44.18584" lon="5.11952">
        <ele>1424.228</ele>
        <time>2020-09-03T13:00:31Z</time>
      </trkpt>
      <trkpt lat="44.18584" lon="5.11968">
        <ele>1422.953</ele>
        <time>2020-09-03T13:00:32Z</time>
      </trkpt>
      <trkpt lat="44.18585" lon="5.11985">
        <ele>1421.911</ele>
        <time>2020-09-03T13:00:33Z</time>
      </trkpt>
      <trkpt lat="44.18587" lon="5.12001">
        <ele>1421.536</ele>
        <time>2020-09-03T13:00:34Z</time>
      </trkpt>
      <trkpt lat="44.18587" lon="5.12001">
        <ele>1421.227</ele>
        <time>2020-09-03T13:00:34Z</time>
      </trkpt>
      <trkpt lat="44.18593" lon="5.12032">
        <ele>1420.667</ele>
        <time>2020-09-03T13:00:36Z</time>
      </trkpt>
      <trkpt lat="44.186" lon="5.12064">
        <ele>1420.009</ele>
        <time>2020-09-03T13:00:38Z</time>
      </trkpt>
      <trkpt lat="44.186" lon="5.12064">
        <ele>1419.269</ele>
        <time>2020-09-03T13:00:38Z</time>
      </trkpt>
      <trkpt lat="44.186" lon="5.12064">
        <ele>1418.901</ele>
        <time>2020-09-03T13:00:38Z</time>
      </trkpt>
      <trkpt lat="44.18609" lon="5.12114">
        <ele>1418.82</ele>
        <time>2020-09-03T13:00:41Z</time>
      </trkpt>
      <trkpt lat="44.18613" lon="5.12128">
        <ele>1418.703</ele>
        <time>2020-09-03T13:00:42Z</time>
      </trkpt>
      <trkpt lat="44.18617" lon="5.12141">
        <ele>1417.772</ele>
        <time>2020-09-03T13:00:43Z</time>
      </trkpt>
      <trkpt lat="44.18621" lon="5.12155">
        <ele>1415.779</ele>
        <time>2020-09-03T13:00:44Z</time>
      </trkpt>
      <trkpt lat="44.18624" lon="5.1217">
        <ele>1413.007</ele>
        <time>2020-09-03T13:00:45Z</time>
      </trkpt>
      <trkpt lat="44.18633" lon="5.12202">
        <ele>1409.68</ele>
        <time>2020-09-03T13:00:47Z</time>
      </trkpt>
      <trkpt lat="44.18637" lon="5.12218">
        <ele>1407.155</ele>
        <time>2020-09-03T13:00:48Z</time>
      </trkpt>
      <trkpt lat="44.18637" lon="5.12218">
        <ele>1404.548</ele>
        <time>2020-09-03T13:00:48Z</time>
      </trkpt>
      <trkpt lat="44.18645" lon="5.12247">
        <ele>1403.13</ele>
        <time>2020-09-03T13:00:50Z</time>
      </trkpt>
      <trkpt lat="44.18648" lon="5.12261">
        <ele>1401.106</ele>
        <time>2020-09-03T13:00:51Z</time>
      </trkpt>
      <trkpt lat="44.18652" lon="5.12276">
        <ele>1398.504</ele>
        <time>2020-09-03T13:00:52Z</time>
      </trkpt>
      <trkpt lat="44.18656" lon="5.1229">
        <ele>1395.822</ele>
        <time>2020-09-03T13:00:53Z</time>
      </trkpt>
      <trkpt lat="44.18656" lon="5.1229">
        <ele>1393.472</ele>
        <time>2020-09-03T13:00:53Z</time>
      </trkpt>
      <trkpt lat="44.18667" lon="5.12318">
        <ele>1391.009</ele>
        <time>2020-09-03T13:00:55Z</time>
      </trkpt>
      <trkpt lat="44.18672" lon="5.12333">
        <ele>1389.454</ele>
        <time>2020-09-03T13:00:56Z</time>
      </trkpt>
      <trkpt lat="44.18676" lon="5.12346">
        <ele>1388.279</ele>
        <time>2020-09-03T13:00:57Z</time>
      </trkpt>
      <trkpt lat="44.1868" lon="5.12358">
        <ele>1387.39</ele>
        <time>2020-09-03T13:00:58Z</time>
      </trkpt>
      <trkpt lat="44.1868" lon="5.12358">
        <ele>1386.025</ele>
        <time>2020-09-03T13:00:58Z</time>
      </trkpt>
      <trkpt lat="44.18689" lon="5.1238">
        <ele>1383.883</ele>
        <time>2020-09-03T13:01:00Z</time>
      </trkpt>
      <trkpt lat="44.18693" lon="5.12393">
        <ele>1380.221</ele>
        <time>2020-09-03T13:01:01Z</time>
      </trkpt>
      <trkpt lat="44.18698" lon="5.12408">
        <ele>1376.087</ele>
        <time>2020-09-03T13:01:02Z</time>
      </trkpt>
      <trkpt lat="44.18702" lon="5.12423">
        <ele>1373.034</ele>
        <time>2020-09-03T13:01:03Z</time>
      </trkpt>
      <trkpt lat="44.18708" lon="5.12438">
        <ele>1371.528</ele>
        <time>2020-09-03T13:01:04Z</time>
      </trkpt>
      <trkpt lat="44.18708" lon="5.12438">
        <ele>1370.587</ele>
        <time>2020-09-03T13:01:04Z</time>
      </trkpt>
      <trkpt lat="44.18723" lon="5.12472">
        <ele>1369.455</ele>
        <time>2020-09-03T13:01:07Z</time>
      </trkpt>
      <trkpt lat="44.18728" lon="5.12484">
        <ele>1368.218</ele>
        <time>2020-09-03T13:01:08Z</time>
      </trkpt>
      <trkpt lat="44.18728" lon="5.12484">
        <ele>1366.325</ele>
        <time>2020-09-03T13:01:08Z</time>
      </trkpt>
      <trkpt lat="44.18728" lon="5.12484">
        <ele>1364.476</ele>
        <time>2020-09-03T13:01:08Z</time>
      </trkpt>
      <trkpt lat="44.18738" lon="5.12523">
        <ele>1363.139</ele>
        <time>2020-09-03T13:01:11Z</time>
      </trkpt>
      <trkpt lat="44.1874" lon="5.12534">
        <ele>1362.074</ele>
        <time>2020-09-03T13:01:12Z</time>
      </trkpt>
      <trkpt lat="44.1874" lon="5.12534">
        <ele>1360.982</ele>
        <time>2020-09-03T13:01:12Z</time>
      </trkpt>
      <trkpt lat="44.18746" lon="5.12557">
        <ele>1359.703</ele>
        <time>2020-09-03T13:01:14Z</time>
      </trkpt>
      <trkpt lat="44.18748" lon="5.12569">
        <ele>1358.451</ele>
        <time>2020-09-03T13:01:15Z</time>
      </trkpt>
      <trkpt lat="44.1875" lon="5.12582">
        <ele>1357.24</ele>
        <time>2020-09-03T13:01:16Z</time>
      </trkpt>
      <trkpt lat="44.18751" lon="5.12594">
        <ele>1356.768</ele>
        <time>2020-09-03T13:01:17Z</time>
      </trkpt>
      <trkpt lat="44.18754" lon="5.12606">
        <ele>1356.218</ele>
        <time>2020-09-03T13:01:18Z</time>
      </trkpt>
      <trkpt lat="44.18756" lon="5.12618">
        <ele>1355.399</ele>
        <time>2020-09-03T13:01:19Z</time>
      </trkpt>
      <trkpt lat="44.18759" lon="5.1263">
        <ele>1354.16</ele>
        <time>2020-09-03T13:01:20Z</time>
      </trkpt>
      <trkpt lat="44.18762" lon="5.12643">
        <ele>1352.268</ele>
        <time>2020-09-03T13:01:21Z</time>
      </trkpt>
      <trkpt lat="44.18765" lon="5.12656">
        <ele>1349.99</ele>
        <time>2020-09-03T13:01:22Z</time>
      </trkpt>
      <trkpt lat="44.18766" lon="5.12669">
        <ele>1347.912</ele>
        <time>2020-09-03T13:01:23Z</time>
      </trkpt>
      <trkpt lat="44.18767" lon="5.12681">
        <ele>1346.131</ele>
        <time>2020-09-03T13:01:24Z</time>
      </trkpt>
      <trkpt lat="44.18768" lon="5.12694">
        <ele>1344.221</ele>
        <time>2020-09-03T13:01:25Z</time>
      </trkpt>
      <trkpt lat="44.18768" lon="5.12706">
        <ele>1342.234</ele>
        <time>2020-09-03T13:01:26Z</time>
      </trkpt>
      <trkpt lat="44.18768" lon="5.12706">
        <ele>1340.451</ele>
        <time>2020-09-03T13:01:26Z</time>
      </trkpt>
      <trkpt lat="44.18768" lon="5.12706">
        <ele>1338.866</ele>
        <time>2020-09-03T13:01:26Z</time>
      </trkpt>
      <trkpt lat="44.18769" lon="5.12745">
        <ele>1337.472</ele>
        <time>2020-09-03T13:01:29Z</time>
      </trkpt>
      <trkpt lat="44.18768" lon="5.12771">
        <ele>1336.305</ele>
        <time>2020-09-03T13:01:31Z</time>
      </trkpt>
      <trkpt lat="44.18768" lon="5.12784">
        <ele>1335.202</ele>
        <time>2020-09-03T13:01:32Z</time>
      </trkpt>
      <trkpt lat="44.18767" lon="5.12797">
        <ele>1333.693</ele>
        <time>2020-09-03T13:01:33Z</time>
      </trkpt>
      <trkpt lat="44.18766" lon="5.1281">
        <ele>1332.021</ele>
        <time>2020-09-03T13:01:34Z</time>
      </trkpt>
      <trkpt lat="44.18765" lon="5.12824">
        <ele>1330.682</ele>
        <time>2020-09-03T13:01:35Z</time>
      </trkpt>
      <trkpt lat="44.18763" lon="5.12838">
        <ele>1329.318</ele>
        <time>2020-09-03T13:01:36Z</time>
      </trkpt>
      <trkpt lat="44.18762" lon="5.12851">
        <ele>1327.983</ele>
        <time>2020-09-03T13:01:37Z</time>
      </trkpt>
      <trkpt lat="44.18762" lon="5.12865">
        <ele>1326.725</ele>
        <time>2020-09-03T13:01:38Z</time>
      </trkpt>
      <trkpt lat="44.18763" lon="5.12878">
        <ele>1324.858</ele>
        <time>2020-09-03T13:01:39Z</time>
      </trkpt>
      <trkpt lat="44.18766" lon="5.12892">
        <ele>1323.064</ele>
        <time>2020-09-03T13:01:40Z</time>
      </trkpt>
      <trkpt lat="44.18769" lon="5.12905">
        <ele>1320.917</ele>
        <time>2020-09-03T13:01:41Z</time>
      </trkpt>
      <trkpt lat="44.18772" lon="5.12918">
        <ele>1319.138</ele>
        <time>2020-09-03T13:01:42Z</time>
      </trkpt>
      <trkpt lat="44.18776" lon="5.12931">
        <ele>1316.964</ele>
        <time>2020-09-03T13:01:43Z</time>
      </trkpt>
      <trkpt lat="44.1878" lon="5.12943">
        <ele>1314.72</ele>
        <time>2020-09-03T13:01:44Z</time>
      </trkpt>
      <trkpt lat="44.1878" lon="5.12943">
        <ele>1313.536</ele>
        <time>2020-09-03T13:01:44Z</time>
      </trkpt>
      <trkpt lat="44.18788" lon="5.12967">
        <ele>1311.099</ele>
        <time>2020-09-03T13:01:46Z</time>
      </trkpt>
      <trkpt lat="44.18791" lon="5.12979">
        <ele>1308.41</ele>
        <time>2020-09-03T13:01:47Z</time>
      </trkpt>
      <trkpt lat="44.18793" lon="5.12992">
        <ele>1305.338</ele>
        <time>2020-09-03T13:01:48Z</time>
      </trkpt>
      <trkpt lat="44.18796" lon="5.13006">
        <ele>1302.602</ele>
        <time>2020-09-03T13:01:49Z</time>
      </trkpt>
      <trkpt lat="44.18796" lon="5.13006">
        <ele>1300.5</ele>
        <time>2020-09-03T13:01:49Z</time>
      </trkpt>
      <trkpt lat="44.18801" lon="5.13033">
        <ele>1297.956</ele>
        <time>2020-09-03T13:01:51Z</time>
      </trkpt>
      <trkpt lat="44.18803" lon="5.1306">
        <ele>1296.236</ele>
        <time>2020-09-03T13:01:53Z</time>
      </trkpt>
      <trkpt lat="44.18803" lon="5.1306">
        <ele>1295.216</ele>
        <time>2020-09-03T13:01:53Z</time>
      </trkpt>
      <trkpt lat="44.18801" lon="5.13088">
        <ele>1294.396</ele>
        <time>2020-09-03T13:01:55Z</time>
      </trkpt>
      <trkpt lat="44.188" lon="5.13101">
        <ele>1293.597</ele>
        <time>2020-09-03T13:01:56Z</time>
      </trkpt>
      <trkpt lat="44.18798" lon="5.13115">
        <ele>1292.971</ele>
        <time>2020-09-03T13:01:57Z</time>
      </trkpt>
      <trkpt lat="44.18796" lon="5.13129">
        <ele>1292.156</ele>
        <time>2020-09-03T13:01:58Z</time>
      </trkpt>
      <trkpt lat="44.18794" lon="5.13143">
        <ele>1291.26</ele>
        <time>2020-09-03T13:01:59Z</time>
      </trkpt>
      <trkpt lat="44.18792" lon="5.13158">
        <ele>1290.267</ele>
        <time>2020-09-03T13:02:00Z</time>
      </trkpt>
      <trkpt lat="44.18789" lon="5.13172">
        <ele>1289.575</ele>
        <time>2020-09-03T13:02:01Z</time>
      </trkpt>
      <trkpt lat="44.18786" lon="5.13186">
        <ele>1289.044</ele>
        <time>2020-09-03T13:02:02Z</time>
      </trkpt>
      <trkpt lat="44.18786" lon="5.13186">
        <ele>1288.438</ele>
        <time>2020-09-03T13:02:02Z</time>
      </trkpt>
      <trkpt lat="44.18779" lon="5.13213">
        <ele>1287.71</ele>
        <time>2020-09-03T13:02:04Z</time>
      </trkpt>
      <trkpt lat="44.18779" lon="5.13213">
        <ele>1287.113</ele>
        <time>2020-09-03T13:02:04Z</time>
      </trkpt>
      <trkpt lat="44.18772" lon="5.13241">
        <ele>1286.742</ele>
        <time>2020-09-03T13:02:06Z</time>
      </trkpt>
      <trkpt lat="44.18769" lon="5.13254">
        <ele>1286.466</ele>
        <time>2020-09-03T13:02:07Z</time>
      </trkpt>
      <trkpt lat="44.18766" lon="5.13267">
        <ele>1286.205</ele>
        <time>2020-09-03T13:02:08Z</time>
      </trkpt>
      <trkpt lat="44.18764" lon="5.13278">
        <ele>1285.772</ele>
        <time>2020-09-03T13:02:09Z</time>
      </trkpt>
      <trkpt lat="44.1876" lon="5.1329">
        <ele>1285.023</ele>
        <time>2020-09-03T13:02:10Z</time>
      </trkpt>
      <trkpt lat="44.18752" lon="5.13317">
        <ele>1284.257</ele>
        <time>2020-09-03T13:02:12Z</time>
      </trkpt>
      <trkpt lat="44.18749" lon="5.13329">
        <ele>1284.024</ele>
        <time>2020-09-03T13:02:13Z</time>
      </trkpt>
      <trkpt lat="44.18749" lon="5.13329">
        <ele>1284.169</ele>
        <time>2020-09-03T13:02:13Z</time>
      </trkpt>
      <trkpt lat="44.18745" lon="5.13352">
        <ele>1284.525</ele>
        <time>2020-09-03T13:02:15Z</time>
      </trkpt>
      <trkpt lat="44.18743" lon="5.13363">
        <ele>1284.636</ele>
        <time>2020-09-03T13:02:16Z</time>
      </trkpt>
      <trkpt lat="44.1874" lon="5.13375">
        <ele>1284.259</ele>
        <time>2020-09-03T13:02:17Z</time>
      </trkpt>
      <trkpt lat="44.18737" lon="5.13389">
        <ele>1283.283</ele>
        <time>2020-09-03T13:02:18Z</time>
      </trkpt>
      <trkpt lat="44.18737" lon="5.13389">
        <ele>1282.206</ele>
        <time>2020-09-03T13:02:18Z</time>
      </trkpt>
      <trkpt lat="44.18733" lon="5.13416">
        <ele>1281.734</ele>
        <time>2020-09-03T13:02:20Z</time>
      </trkpt>
      <trkpt lat="44.18731" lon="5.13428">
        <ele>1281.644</ele>
        <time>2020-09-03T13:02:21Z</time>
      </trkpt>
      <trkpt lat="44.18729" lon="5.13439">
        <ele>1281.601</ele>
        <time>2020-09-03T13:02:22Z</time>
      </trkpt>
      <trkpt lat="44.18727" lon="5.13449">
        <ele>1281</ele>
        <time>2020-09-03T13:02:23Z</time>
      </trkpt>
      <trkpt lat="44.18725" lon="5.1346">
        <ele>1279.391</ele>
        <time>2020-09-03T13:02:24Z</time>
      </trkpt>
      <trkpt lat="44.18722" lon="5.13472">
        <ele>1277.432</ele>
        <time>2020-09-03T13:02:25Z</time>
      </trkpt>
      <trkpt lat="44.18713" lon="5.13497">
        <ele>1275.177</ele>
        <time>2020-09-03T13:02:27Z</time>
      </trkpt>
      <trkpt lat="44.18709" lon="5.13509">
        <ele>1274.16</ele>
        <time>2020-09-03T13:02:28Z</time>
      </trkpt>
      <trkpt lat="44.18706" lon="5.1352">
        <ele>1273.954</ele>
        <time>2020-09-03T13:02:29Z</time>
      </trkpt>
      <trkpt lat="44.18704" lon="5.13529">
        <ele>1273.955</ele>
        <time>2020-09-03T13:02:30Z</time>
      </trkpt>
      <trkpt lat="44.18702" lon="5.1354">
        <ele>1273.533</ele>
        <time>2020-09-03T13:02:31Z</time>
      </trkpt>
      <trkpt lat="44.187" lon="5.1355">
        <ele>1272.42</ele>
        <time>2020-09-03T13:02:32Z</time>
      </trkpt>
      <trkpt lat="44.18697" lon="5.13562">
        <ele>1271.406</ele>
        <time>2020-09-03T13:02:33Z</time>
      </trkpt>
      <trkpt lat="44.18696" lon="5.13574">
        <ele>1269.865</ele>
        <time>2020-09-03T13:02:34Z</time>
      </trkpt>
      <trkpt lat="44.18694" lon="5.13586">
        <ele>1268.894</ele>
        <time>2020-09-03T13:02:35Z</time>
      </trkpt>
      <trkpt lat="44.18692" lon="5.13597">
        <ele>1268.134</ele>
        <time>2020-09-03T13:02:36Z</time>
      </trkpt>
      <trkpt lat="44.1869" lon="5.13609">
        <ele>1267.39</ele>
        <time>2020-09-03T13:02:37Z</time>
      </trkpt>
      <trkpt lat="44.18687" lon="5.13621">
        <ele>1266.695</ele>
        <time>2020-09-03T13:02:38Z</time>
      </trkpt>
      <trkpt lat="44.18686" lon="5.13634">
        <ele>1266.064</ele>
        <time>2020-09-03T13:02:39Z</time>
      </trkpt>
      <trkpt lat="44.18684" lon="5.13647">
        <ele>1265.75</ele>
        <time>2020-09-03T13:02:40Z</time>
      </trkpt>
      <trkpt lat="44.18683" lon="5.13659">
        <ele>1265.664</ele>
        <time>2020-09-03T13:02:41Z</time>
      </trkpt>
      <trkpt lat="44.18682" lon="5.13671">
        <ele>1265.712</ele>
        <time>2020-09-03T13:02:42Z</time>
      </trkpt>
      <trkpt lat="44.18679" lon="5.13683">
        <ele>1265.687</ele>
        <time>2020-09-03T13:02:43Z</time>
      </trkpt>
      <trkpt lat="44.18677" lon="5.13696">
        <ele>1265.386</ele>
        <time>2020-09-03T13:02:44Z</time>
      </trkpt>
      <trkpt lat="44.18675" lon="5.1371">
        <ele>1264.89</ele>
        <time>2020-09-03T13:02:45Z</time>
      </trkpt>
      <trkpt lat="44.18673" lon="5.13725">
        <ele>1264.555</ele>
        <time>2020-09-03T13:02:46Z</time>
      </trkpt>
      <trkpt lat="44.1867" lon="5.1374">
        <ele>1264.624</ele>
        <time>2020-09-03T13:02:47Z</time>
      </trkpt>
      <trkpt lat="44.1867" lon="5.1374">
        <ele>1265.172</ele>
        <time>2020-09-03T13:02:47Z</time>
      </trkpt>
      <trkpt lat="44.18661" lon="5.1378">
        <ele>1265.799</ele>
        <time>2020-09-03T13:02:50Z</time>
      </trkpt>
      <trkpt lat="44.18659" lon="5.13791">
        <ele>1266.072</ele>
        <time>2020-09-03T13:02:51Z</time>
      </trkpt>
      <trkpt lat="44.18657" lon="5.13803">
        <ele>1265.413</ele>
        <time>2020-09-03T13:02:52Z</time>
      </trkpt>
      <trkpt lat="44.18654" lon="5.13817">
        <ele>1263.798</ele>
        <time>2020-09-03T13:02:53Z</time>
      </trkpt>
      <trkpt lat="44.1865" lon="5.13831">
        <ele>1262.079</ele>
        <time>2020-09-03T13:02:54Z</time>
      </trkpt>
      <trkpt lat="44.18646" lon="5.13845">
        <ele>1261.046</ele>
        <time>2020-09-03T13:02:55Z</time>
      </trkpt>
      <trkpt lat="44.18642" lon="5.13857">
        <ele>1260.412</ele>
        <time>2020-09-03T13:02:56Z</time>
      </trkpt>
      <trkpt lat="44.18638" lon="5.13868">
        <ele>1259.586</ele>
        <time>2020-09-03T13:02:57Z</time>
      </trkpt>
      <trkpt lat="44.18635" lon="5.1388">
        <ele>1258.359</ele>
        <time>2020-09-03T13:02:58Z</time>
      </trkpt>
      <trkpt lat="44.18631" lon="5.13893">
        <ele>1256.585</ele>
        <time>2020-09-03T13:02:59Z</time>
      </trkpt>
      <trkpt lat="44.18627" lon="5.13908">
        <ele>1254.807</ele>
        <time>2020-09-03T13:03:00Z</time>
      </trkpt>
      <trkpt lat="44.18624" lon="5.13923">
        <ele>1253.615</ele>
        <time>2020-09-03T13:03:01Z</time>
      </trkpt>
      <trkpt lat="44.18622" lon="5.13935">
        <ele>1253.025</ele>
        <time>2020-09-03T13:03:02Z</time>
      </trkpt>
      <trkpt lat="44.18622" lon="5.13946">
        <ele>1252.62</ele>
        <time>2020-09-03T13:03:03Z</time>
      </trkpt>
      <trkpt lat="44.18623" lon="5.13955">
        <ele>1251.621</ele>
        <time>2020-09-03T13:03:04Z</time>
      </trkpt>
      <trkpt lat="44.18623" lon="5.13966">
        <ele>1249.922</ele>
        <time>2020-09-03T13:03:05Z</time>
      </trkpt>
      <trkpt lat="44.18622" lon="5.13979">
        <ele>1248.048</ele>
        <time>2020-09-03T13:03:06Z</time>
      </trkpt>
      <trkpt lat="44.18623" lon="5.13994">
        <ele>1246.184</ele>
        <time>2020-09-03T13:03:07Z</time>
      </trkpt>
      <trkpt lat="44.18623" lon="5.13994">
        <ele>1245.464</ele>
        <time>2020-09-03T13:03:07Z</time>
      </trkpt>
      <trkpt lat="44.18626" lon="5.14018">
        <ele>1245.346</ele>
        <time>2020-09-03T13:03:09Z</time>
      </trkpt>
      <trkpt lat="44.18626" lon="5.14018">
        <ele>1245.566</ele>
        <time>2020-09-03T13:03:09Z</time>
      </trkpt>
      <trkpt lat="44.1863" lon="5.14048">
        <ele>1245.18</ele>
        <time>2020-09-03T13:03:12Z</time>
      </trkpt>
      <trkpt lat="44.18628" lon="5.14061">
        <ele>1243.915</ele>
        <time>2020-09-03T13:03:13Z</time>
      </trkpt>
      <trkpt lat="44.18628" lon="5.14061">
        <ele>1242.541</ele>
        <time>2020-09-03T13:03:13Z</time>
      </trkpt>
      <trkpt lat="44.18625" lon="5.14089">
        <ele>1241.483</ele>
        <time>2020-09-03T13:03:15Z</time>
      </trkpt>
      <trkpt lat="44.18624" lon="5.14101">
        <ele>1241.013</ele>
        <time>2020-09-03T13:03:16Z</time>
      </trkpt>
      <trkpt lat="44.18622" lon="5.14113">
        <ele>1240.699</ele>
        <time>2020-09-03T13:03:17Z</time>
      </trkpt>
      <trkpt lat="44.18621" lon="5.14125">
        <ele>1240.231</ele>
        <time>2020-09-03T13:03:18Z</time>
      </trkpt>
      <trkpt lat="44.18619" lon="5.14138">
        <ele>1239.595</ele>
        <time>2020-09-03T13:03:19Z</time>
      </trkpt>
      <trkpt lat="44.18617" lon="5.14151">
        <ele>1238.697</ele>
        <time>2020-09-03T13:03:20Z</time>
      </trkpt>
      <trkpt lat="44.18615" lon="5.14165">
        <ele>1238.004</ele>
        <time>2020-09-03T13:03:21Z</time>
      </trkpt>
      <trkpt lat="44.18614" lon="5.14178">
        <ele>1237.587</ele>
        <time>2020-09-03T13:03:22Z</time>
      </trkpt>
      <trkpt lat="44.18612" lon="5.14191">
        <ele>1237.454</ele>
        <time>2020-09-03T13:03:23Z</time>
      </trkpt>
      <trkpt lat="44.1861" lon="5.14204">
        <ele>1237.454</ele>
        <time>2020-09-03T13:03:24Z</time>
      </trkpt>
      <trkpt lat="44.18608" lon="5.14217">
        <ele>1237.669</ele>
        <time>2020-09-03T13:03:25Z</time>
      </trkpt>
      <trkpt lat="44.18607" lon="5.1423">
        <ele>1238.243</ele>
        <time>2020-09-03T13:03:26Z</time>
      </trkpt>
      <trkpt lat="44.18607" lon="5.1423">
        <ele>1239.474</ele>
        <time>2020-09-03T13:03:26Z</time>
      </trkpt>
      <trkpt lat="44.18603" lon="5.14252">
        <ele>1240.706</ele>
        <time>2020-09-03T13:03:28Z</time>
      </trkpt>
      <trkpt lat="44.18601" lon="5.14262">
        <ele>1241.57</ele>
        <time>2020-09-03T13:03:29Z</time>
      </trkpt>
      <trkpt lat="44.18599" lon="5.14271">
        <ele>1241.72</ele>
        <time>2020-09-03T13:03:30Z</time>
      </trkpt>
      <trkpt lat="44.18599" lon="5.14271">
        <ele>1241.189</ele>
        <time>2020-09-03T13:03:30Z</time>
      </trkpt>
      <trkpt lat="44.18599" lon="5.14271">
        <ele>1240.263</ele>
        <time>2020-09-03T13:03:30Z</time>
      </trkpt>
      <trkpt lat="44.18599" lon="5.14271">
        <ele>1239.13</ele>
        <time>2020-09-03T13:03:30Z</time>
      </trkpt>
      <trkpt lat="44.18593" lon="5.14327">
        <ele>1238.306</ele>
        <time>2020-09-03T13:03:35Z</time>
      </trkpt>
      <trkpt lat="44.18592" lon="5.14337">
        <ele>1237.241</ele>
        <time>2020-09-03T13:03:36Z</time>
      </trkpt>
      <trkpt lat="44.1859" lon="5.14348">
        <ele>1236.624</ele>
        <time>2020-09-03T13:03:37Z</time>
      </trkpt>
      <trkpt lat="44.18589" lon="5.1436">
        <ele>1235.599</ele>
        <time>2020-09-03T13:03:38Z</time>
      </trkpt>
      <trkpt lat="44.18587" lon="5.14373">
        <ele>1234.425</ele>
        <time>2020-09-03T13:03:39Z</time>
      </trkpt>
      <trkpt lat="44.18585" lon="5.14386">
        <ele>1233.26</ele>
        <time>2020-09-03T13:03:40Z</time>
      </trkpt>
      <trkpt lat="44.18583" lon="5.14399">
        <ele>1232.893</ele>
        <time>2020-09-03T13:03:41Z</time>
      </trkpt>
      <trkpt lat="44.18582" lon="5.14413">
        <ele>1233.133</ele>
        <time>2020-09-03T13:03:42Z</time>
      </trkpt>
      <trkpt lat="44.1858" lon="5.14426">
        <ele>1233.966</ele>
        <time>2020-09-03T13:03:43Z</time>
      </trkpt>
      <trkpt lat="44.18578" lon="5.14437">
        <ele>1234.847</ele>
        <time>2020-09-03T13:03:44Z</time>
      </trkpt>
      <trkpt lat="44.18578" lon="5.14437">
        <ele>1235.597</ele>
        <time>2020-09-03T13:03:44Z</time>
      </trkpt>
      <trkpt lat="44.18578" lon="5.14437">
        <ele>1235.743</ele>
        <time>2020-09-03T13:03:44Z</time>
      </trkpt>
      <trkpt lat="44.18578" lon="5.14437">
        <ele>1235.489</ele>
        <time>2020-09-03T13:03:44Z</time>
      </trkpt>
      <trkpt lat="44.18578" lon="5.14437">
        <ele>1234.769</ele>
        <time>2020-09-03T13:03:44Z</time>
      </trkpt>
      <trkpt lat="44.18564" lon="5.1449">
        <ele>1233.775</ele>
        <time>2020-09-03T13:03:49Z</time>
      </trkpt>
      <trkpt lat="44.18564" lon="5.1449">
        <ele>1232.115</ele>
        <time>2020-09-03T13:03:49Z</time>
      </trkpt>
      <trkpt lat="44.18564" lon="5.1449">
        <ele>1230.236</ele>
        <time>2020-09-03T13:03:49Z</time>
      </trkpt>
      <trkpt lat="44.18564" lon="5.1449">
        <ele>1228.52</ele>
        <time>2020-09-03T13:03:49Z</time>
      </trkpt>
      <trkpt lat="44.18564" lon="5.1449">
        <ele>1227.55</ele>
        <time>2020-09-03T13:03:49Z</time>
      </trkpt>
      <trkpt lat="44.18549" lon="5.14547">
        <ele>1227.437</ele>
        <time>2020-09-03T13:03:54Z</time>
      </trkpt>
      <trkpt lat="44.18547" lon="5.14557">
        <ele>1227.819</ele>
        <time>2020-09-03T13:03:55Z</time>
      </trkpt>
      <trkpt lat="44.18545" lon="5.14567">
        <ele>1228.098</ele>
        <time>2020-09-03T13:03:56Z</time>
      </trkpt>
      <trkpt lat="44.18544" lon="5.14577">
        <ele>1227.933</ele>
        <time>2020-09-03T13:03:57Z</time>
      </trkpt>
      <trkpt lat="44.18542" lon="5.14588">
        <ele>1227.377</ele>
        <time>2020-09-03T13:03:58Z</time>
      </trkpt>
      <trkpt lat="44.18535" lon="5.14615">
        <ele>1226.808</ele>
        <time>2020-09-03T13:04:00Z</time>
      </trkpt>
      <trkpt lat="44.18532" lon="5.14628">
        <ele>1226.617</ele>
        <time>2020-09-03T13:04:01Z</time>
      </trkpt>
      <trkpt lat="44.18529" lon="5.14639">
        <ele>1227.189</ele>
        <time>2020-09-03T13:04:02Z</time>
      </trkpt>
      <trkpt lat="44.18528" lon="5.1465">
        <ele>1228.381</ele>
        <time>2020-09-03T13:04:03Z</time>
      </trkpt>
      <trkpt lat="44.18527" lon="5.14661">
        <ele>1229.42</ele>
        <time>2020-09-03T13:04:04Z</time>
      </trkpt>
      <trkpt lat="44.18526" lon="5.14672">
        <ele>1231.356</ele>
        <time>2020-09-03T13:04:05Z</time>
      </trkpt>
      <trkpt lat="44.18524" lon="5.14683">
        <ele>1233.018</ele>
        <time>2020-09-03T13:04:06Z</time>
      </trkpt>
      <trkpt lat="44.18521" lon="5.14694">
        <ele>1234.703</ele>
        <time>2020-09-03T13:04:07Z</time>
      </trkpt>
      <trkpt lat="44.18519" lon="5.14705">
        <ele>1235.985</ele>
        <time>2020-09-03T13:04:08Z</time>
      </trkpt>
      <trkpt lat="44.18516" lon="5.14717">
        <ele>1237.072</ele>
        <time>2020-09-03T13:04:09Z</time>
      </trkpt>
      <trkpt lat="44.18513" lon="5.14729">
        <ele>1238.389</ele>
        <time>2020-09-03T13:04:10Z</time>
      </trkpt>
      <trkpt lat="44.18513" lon="5.14729">
        <ele>1239.674</ele>
        <time>2020-09-03T13:04:10Z</time>
      </trkpt>
      <trkpt lat="44.18513" lon="5.14729">
        <ele>1240.896</ele>
        <time>2020-09-03T13:04:10Z</time>
      </trkpt>
      <trkpt lat="44.18513" lon="5.14729">
        <ele>1241.544</ele>
        <time>2020-09-03T13:04:10Z</time>
      </trkpt>
      <trkpt lat="44.18522" lon="5.14766">
        <ele>1241.509</ele>
        <time>2020-09-03T13:04:14Z</time>
      </trkpt>
      <trkpt lat="44.18522" lon="5.14766">
        <ele>1241.063</ele>
        <time>2020-09-03T13:04:14Z</time>
      </trkpt>
      <trkpt lat="44.18522" lon="5.14766">
        <ele>1240.728</ele>
        <time>2020-09-03T13:04:14Z</time>
      </trkpt>
      <trkpt lat="44.18522" lon="5.14766">
        <ele>1241.029</ele>
        <time>2020-09-03T13:04:14Z</time>
      </trkpt>
      <trkpt lat="44.18522" lon="5.14766">
        <ele>1241.955</ele>
        <time>2020-09-03T13:04:14Z</time>
      </trkpt>
      <trkpt lat="44.1857" lon="5.14814">
        <ele>1243.374</ele>
        <time>2020-09-03T13:04:20Z</time>
      </trkpt>
      <trkpt lat="44.18572" lon="5.14824">
        <ele>1244.8</ele>
        <time>2020-09-03T13:04:21Z</time>
      </trkpt>
      <trkpt lat="44.18574" lon="5.14834">
        <ele>1245.454</ele>
        <time>2020-09-03T13:04:22Z</time>
      </trkpt>
      <trkpt lat="44.18575" lon="5.14844">
        <ele>1245.426</ele>
        <time>2020-09-03T13:04:23Z</time>
      </trkpt>
      <trkpt lat="44.18575" lon="5.14844">
        <ele>1244.723</ele>
        <time>2020-09-03T13:04:23Z</time>
      </trkpt>
      <trkpt lat="44.18573" lon="5.14869">
        <ele>1243.363</ele>
        <time>2020-09-03T13:04:25Z</time>
      </trkpt>
      <trkpt lat="44.1857" lon="5.14883">
        <ele>1241.587</ele>
        <time>2020-09-03T13:04:26Z</time>
      </trkpt>
      <trkpt lat="44.18568" lon="5.14897">
        <ele>1240.369</ele>
        <time>2020-09-03T13:04:27Z</time>
      </trkpt>
      <trkpt lat="44.18566" lon="5.14911">
        <ele>1239.687</ele>
        <time>2020-09-03T13:04:28Z</time>
      </trkpt>
      <trkpt lat="44.18564" lon="5.14924">
        <ele>1239.655</ele>
        <time>2020-09-03T13:04:29Z</time>
      </trkpt>
      <trkpt lat="44.18563" lon="5.14937">
        <ele>1239.858</ele>
        <time>2020-09-03T13:04:30Z</time>
      </trkpt>
      <trkpt lat="44.18561" lon="5.1495">
        <ele>1240.003</ele>
        <time>2020-09-03T13:04:31Z</time>
      </trkpt>
      <trkpt lat="44.18561" lon="5.1495">
        <ele>1239.97</ele>
        <time>2020-09-03T13:04:31Z</time>
      </trkpt>
      <trkpt lat="44.18561" lon="5.1495">
        <ele>1239.673</ele>
        <time>2020-09-03T13:04:31Z</time>
      </trkpt>
      <trkpt lat="44.1855" lon="5.15005">
        <ele>1239.196</ele>
        <time>2020-09-03T13:04:35Z</time>
      </trkpt>
      <trkpt lat="44.18548" lon="5.15019">
        <ele>1238.685</ele>
        <time>2020-09-03T13:04:36Z</time>
      </trkpt>
      <trkpt lat="44.18545" lon="5.15032">
        <ele>1238.024</ele>
        <time>2020-09-03T13:04:37Z</time>
      </trkpt>
      <trkpt lat="44.18542" lon="5.15046">
        <ele>1237.68</ele>
        <time>2020-09-03T13:04:38Z</time>
      </trkpt>
      <trkpt lat="44.18539" lon="5.1506">
        <ele>1237.737</ele>
        <time>2020-09-03T13:04:39Z</time>
      </trkpt>
      <trkpt lat="44.18537" lon="5.15074">
        <ele>1238.146</ele>
        <time>2020-09-03T13:04:40Z</time>
      </trkpt>
      <trkpt lat="44.18534" lon="5.15088">
        <ele>1239.136</ele>
        <time>2020-09-03T13:04:41Z</time>
      </trkpt>
      <trkpt lat="44.18531" lon="5.15102">
        <ele>1241.134</ele>
        <time>2020-09-03T13:04:42Z</time>
      </trkpt>
      <trkpt lat="44.18529" lon="5.15114">
        <ele>1243.385</ele>
        <time>2020-09-03T13:04:43Z</time>
      </trkpt>
      <trkpt lat="44.18527" lon="5.15125">
        <ele>1246.173</ele>
        <time>2020-09-03T13:04:44Z</time>
      </trkpt>
      <trkpt lat="44.18525" lon="5.15136">
        <ele>1248.203</ele>
        <time>2020-09-03T13:04:45Z</time>
      </trkpt>
      <trkpt lat="44.18524" lon="5.15147">
        <ele>1249.281</ele>
        <time>2020-09-03T13:04:46Z</time>
      </trkpt>
      <trkpt lat="44.18522" lon="5.15157">
        <ele>1249.566</ele>
        <time>2020-09-03T13:04:47Z</time>
      </trkpt>
      <trkpt lat="44.18519" lon="5.15166">
        <ele>1248.9</ele>
        <time>2020-09-03T13:04:48Z</time>
      </trkpt>
      <trkpt lat="44.18516" lon="5.15177">
        <ele>1247.7</ele>
        <time>2020-09-03T13:04:49Z</time>
      </trkpt>
      <trkpt lat="44.18512" lon="5.15189">
        <ele>1245.907</ele>
        <time>2020-09-03T13:04:50Z</time>
      </trkpt>
      <trkpt lat="44.18508" lon="5.15202">
        <ele>1244.098</ele>
        <time>2020-09-03T13:04:51Z</time>
      </trkpt>
      <trkpt lat="44.18505" lon="5.15216">
        <ele>1243.396</ele>
        <time>2020-09-03T13:04:52Z</time>
      </trkpt>
      <trkpt lat="44.18501" lon="5.15231">
        <ele>1243.954</ele>
        <time>2020-09-03T13:04:53Z</time>
      </trkpt>
      <trkpt lat="44.18495" lon="5.15256">
        <ele>1245.39</ele>
        <time>2020-09-03T13:04:55Z</time>
      </trkpt>
      <trkpt lat="44.18493" lon="5.15268">
        <ele>1247.008</ele>
        <time>2020-09-03T13:04:56Z</time>
      </trkpt>
      <trkpt lat="44.1849" lon="5.15279">
        <ele>1248.573</ele>
        <time>2020-09-03T13:04:57Z</time>
      </trkpt>
      <trkpt lat="44.18486" lon="5.1529">
        <ele>1250.053</ele>
        <time>2020-09-03T13:04:58Z</time>
      </trkpt>
      <trkpt lat="44.18481" lon="5.15299">
        <ele>1251.39</ele>
        <time>2020-09-03T13:04:59Z</time>
      </trkpt>
      <trkpt lat="44.18481" lon="5.15299">
        <ele>1251.899</ele>
        <time>2020-09-03T13:04:59Z</time>
      </trkpt>
      <trkpt lat="44.18466" lon="5.15307">
        <ele>1253.21</ele>
        <time>2020-09-03T13:05:01Z</time>
      </trkpt>
      <trkpt lat="44.18458" lon="5.15304">
        <ele>1254.393</ele>
        <time>2020-09-03T13:05:02Z</time>
      </trkpt>
      <trkpt lat="44.18452" lon="5.15298">
        <ele>1255.387</ele>
        <time>2020-09-03T13:05:03Z</time>
      </trkpt>
      <trkpt lat="44.18449" lon="5.15288">
        <ele>1256.31</ele>
        <time>2020-09-03T13:05:04Z</time>
      </trkpt>
      <trkpt lat="44.18449" lon="5.15288">
        <ele>1257.23</ele>
        <time>2020-09-03T13:05:04Z</time>
      </trkpt>
      <trkpt lat="44.18449" lon="5.15288">
        <ele>1258.137</ele>
        <time>2020-09-03T13:05:04Z</time>
      </trkpt>
      <trkpt lat="44.18449" lon="5.15288">
        <ele>1259.342</ele>
        <time>2020-09-03T13:05:04Z</time>
      </trkpt>
      <trkpt lat="44.18449" lon="5.15288">
        <ele>1260.676</ele>
        <time>2020-09-03T13:05:04Z</time>
      </trkpt>
      <trkpt lat="44.18471" lon="5.15254">
        <ele>1261.621</ele>
        <time>2020-09-03T13:05:09Z</time>
      </trkpt>
      <trkpt lat="44.18471" lon="5.15254">
        <ele>1262.262</ele>
        <time>2020-09-03T13:05:09Z</time>
      </trkpt>
      <trkpt lat="44.18471" lon="5.15254">
        <ele>1262.551</ele>
        <time>2020-09-03T13:05:09Z</time>
      </trkpt>
      <trkpt lat="44.18471" lon="5.15254">
        <ele>1262.586</ele>
        <time>2020-09-03T13:05:09Z</time>
      </trkpt>
      <trkpt lat="44.18504" lon="5.15277">
        <ele>1262.751</ele>
        <time>2020-09-03T13:05:13Z</time>
      </trkpt>
      <trkpt lat="44.18509" lon="5.1529">
        <ele>1263.448</ele>
        <time>2020-09-03T13:05:14Z</time>
      </trkpt>
      <trkpt lat="44.18517" lon="5.15316">
        <ele>1264.634</ele>
        <time>2020-09-03T13:05:16Z</time>
      </trkpt>
      <trkpt lat="44.1852" lon="5.15328">
        <ele>1266.761</ele>
        <time>2020-09-03T13:05:17Z</time>
      </trkpt>
      <trkpt lat="44.18522" lon="5.15339">
        <ele>1268.238</ele>
        <time>2020-09-03T13:05:18Z</time>
      </trkpt>
      <trkpt lat="44.18525" lon="5.1535">
        <ele>1269.732</ele>
        <time>2020-09-03T13:05:19Z</time>
      </trkpt>
      <trkpt lat="44.18527" lon="5.1536">
        <ele>1270.795</ele>
        <time>2020-09-03T13:05:20Z</time>
      </trkpt>
      <trkpt lat="44.18528" lon="5.15372">
        <ele>1271.533</ele>
        <time>2020-09-03T13:05:21Z</time>
      </trkpt>
      <trkpt lat="44.18527" lon="5.15382">
        <ele>1271.601</ele>
        <time>2020-09-03T13:05:22Z</time>
      </trkpt>
      <trkpt lat="44.18523" lon="5.15392">
        <ele>1270.688</ele>
        <time>2020-09-03T13:05:23Z</time>
      </trkpt>
      <trkpt lat="44.18517" lon="5.154">
        <ele>1269.388</ele>
        <time>2020-09-03T13:05:24Z</time>
      </trkpt>
      <trkpt lat="44.18508" lon="5.15405">
        <ele>1268.086</ele>
        <time>2020-09-03T13:05:25Z</time>
      </trkpt>
      <trkpt lat="44.18499" lon="5.15407">
        <ele>1267.771</ele>
        <time>2020-09-03T13:05:26Z</time>
      </trkpt>
      <trkpt lat="44.18484" lon="5.15412">
        <ele>1268.359</ele>
        <time>2020-09-03T13:05:28Z</time>
      </trkpt>
      <trkpt lat="44.18484" lon="5.15412">
        <ele>1268.943</ele>
        <time>2020-09-03T13:05:28Z</time>
      </trkpt>
      <trkpt lat="44.18472" lon="5.15421">
        <ele>1270.062</ele>
        <time>2020-09-03T13:05:30Z</time>
      </trkpt>
      <trkpt lat="44.18466" lon="5.15427">
        <ele>1270.917</ele>
        <time>2020-09-03T13:05:31Z</time>
      </trkpt>
      <trkpt lat="44.1846" lon="5.15432">
        <ele>1271.618</ele>
        <time>2020-09-03T13:05:32Z</time>
      </trkpt>
      <trkpt lat="44.18454" lon="5.15439">
        <ele>1272.064</ele>
        <time>2020-09-03T13:05:33Z</time>
      </trkpt>
      <trkpt lat="44.18454" lon="5.15439">
        <ele>1272.421</ele>
        <time>2020-09-03T13:05:33Z</time>
      </trkpt>
      <trkpt lat="44.18442" lon="5.15451">
        <ele>1272.494</ele>
        <time>2020-09-03T13:05:35Z</time>
      </trkpt>
      <trkpt lat="44.18436" lon="5.15459">
        <ele>1272.209</ele>
        <time>2020-09-03T13:05:36Z</time>
      </trkpt>
      <trkpt lat="44.1843" lon="5.15467">
        <ele>1271.52</ele>
        <time>2020-09-03T13:05:37Z</time>
      </trkpt>
      <trkpt lat="44.18424" lon="5.15478">
        <ele>1270.779</ele>
        <time>2020-09-03T13:05:38Z</time>
      </trkpt>
      <trkpt lat="44.18424" lon="5.15478">
        <ele>1270.164</ele>
        <time>2020-09-03T13:05:38Z</time>
      </trkpt>
      <trkpt lat="44.18419" lon="5.15505">
        <ele>1270.033</ele>
        <time>2020-09-03T13:05:40Z</time>
      </trkpt>
      <trkpt lat="44.18417" lon="5.15518">
        <ele>1270.597</ele>
        <time>2020-09-03T13:05:41Z</time>
      </trkpt>
      <trkpt lat="44.18415" lon="5.15529">
        <ele>1271.425</ele>
        <time>2020-09-03T13:05:42Z</time>
      </trkpt>
      <trkpt lat="44.18412" lon="5.1554">
        <ele>1271.848</ele>
        <time>2020-09-03T13:05:43Z</time>
      </trkpt>
      <trkpt lat="44.1841" lon="5.15552">
        <ele>1271.715</ele>
        <time>2020-09-03T13:05:44Z</time>
      </trkpt>
      <trkpt lat="44.18407" lon="5.15565">
        <ele>1271.288</ele>
        <time>2020-09-03T13:05:45Z</time>
      </trkpt>
      <trkpt lat="44.18403" lon="5.15579">
        <ele>1271.126</ele>
        <time>2020-09-03T13:05:46Z</time>
      </trkpt>
      <trkpt lat="44.184" lon="5.15592">
        <ele>1271.448</ele>
        <time>2020-09-03T13:05:47Z</time>
      </trkpt>
      <trkpt lat="44.18396" lon="5.15605">
        <ele>1272.17</ele>
        <time>2020-09-03T13:05:48Z</time>
      </trkpt>
      <trkpt lat="44.18387" lon="5.15627">
        <ele>1272.879</ele>
        <time>2020-09-03T13:05:50Z</time>
      </trkpt>
      <trkpt lat="44.18384" lon="5.15639">
        <ele>1273.289</ele>
        <time>2020-09-03T13:05:51Z</time>
      </trkpt>
      <trkpt lat="44.1838" lon="5.15651">
        <ele>1273.377</ele>
        <time>2020-09-03T13:05:52Z</time>
      </trkpt>
      <trkpt lat="44.18376" lon="5.15664">
        <ele>1273.205</ele>
        <time>2020-09-03T13:05:53Z</time>
      </trkpt>
      <trkpt lat="44.18371" lon="5.15677">
        <ele>1273.088</ele>
        <time>2020-09-03T13:05:54Z</time>
      </trkpt>
      <trkpt lat="44.18365" lon="5.15689">
        <ele>1273.282</ele>
        <time>2020-09-03T13:05:55Z</time>
      </trkpt>
      <trkpt lat="44.18362" lon="5.15701">
        <ele>1273.474</ele>
        <time>2020-09-03T13:05:56Z</time>
      </trkpt>
      <trkpt lat="44.18359" lon="5.15714">
        <ele>1274.026</ele>
        <time>2020-09-03T13:05:57Z</time>
      </trkpt>
      <trkpt lat="44.18356" lon="5.15727">
        <ele>1274.503</ele>
        <time>2020-09-03T13:05:58Z</time>
      </trkpt>
      <trkpt lat="44.18352" lon="5.1574">
        <ele>1274.996</ele>
        <time>2020-09-03T13:05:59Z</time>
      </trkpt>
      <trkpt lat="44.18348" lon="5.15754">
        <ele>1275.422</ele>
        <time>2020-09-03T13:06:00Z</time>
      </trkpt>
      <trkpt lat="44.18344" lon="5.15768">
        <ele>1275.686</ele>
        <time>2020-09-03T13:06:01Z</time>
      </trkpt>
      <trkpt lat="44.18341" lon="5.15781">
        <ele>1275.727</ele>
        <time>2020-09-03T13:06:02Z</time>
      </trkpt>
      <trkpt lat="44.18337" lon="5.15795">
        <ele>1275.576</ele>
        <time>2020-09-03T13:06:03Z</time>
      </trkpt>
      <trkpt lat="44.18332" lon="5.15807">
        <ele>1275.271</ele>
        <time>2020-09-03T13:06:04Z</time>
      </trkpt>
      <trkpt lat="44.18327" lon="5.1582">
        <ele>1274.761</ele>
        <time>2020-09-03T13:06:05Z</time>
      </trkpt>
      <trkpt lat="44.18322" lon="5.15832">
        <ele>1274.239</ele>
        <time>2020-09-03T13:06:06Z</time>
      </trkpt>
      <trkpt lat="44.18316" lon="5.15843">
        <ele>1273.288</ele>
        <time>2020-09-03T13:06:07Z</time>
      </trkpt>
      <trkpt lat="44.1831" lon="5.15853">
        <ele>1272.17</ele>
        <time>2020-09-03T13:06:08Z</time>
      </trkpt>
      <trkpt lat="44.18303" lon="5.15862">
        <ele>1271.106</ele>
        <time>2020-09-03T13:06:09Z</time>
      </trkpt>
      <trkpt lat="44.18297" lon="5.15872">
        <ele>1269.878</ele>
        <time>2020-09-03T13:06:10Z</time>
      </trkpt>
      <trkpt lat="44.18286" lon="5.15895">
        <ele>1268.746</ele>
        <time>2020-09-03T13:06:12Z</time>
      </trkpt>
      <trkpt lat="44.18281" lon="5.15906">
        <ele>1267.546</ele>
        <time>2020-09-03T13:06:13Z</time>
      </trkpt>
      <trkpt lat="44.18274" lon="5.15915">
        <ele>1266.261</ele>
        <time>2020-09-03T13:06:14Z</time>
      </trkpt>
      <trkpt lat="44.18267" lon="5.15923">
        <ele>1264.839</ele>
        <time>2020-09-03T13:06:15Z</time>
      </trkpt>
      <trkpt lat="44.18261" lon="5.15932">
        <ele>1263.569</ele>
        <time>2020-09-03T13:06:16Z</time>
      </trkpt>
      <trkpt lat="44.18255" lon="5.15942">
        <ele>1262.326</ele>
        <time>2020-09-03T13:06:17Z</time>
      </trkpt>
      <trkpt lat="44.18249" lon="5.15952">
        <ele>1260.671</ele>
        <time>2020-09-03T13:06:18Z</time>
      </trkpt>
      <trkpt lat="44.18243" lon="5.15963">
        <ele>1259.071</ele>
        <time>2020-09-03T13:06:19Z</time>
      </trkpt>
      <trkpt lat="44.18237" lon="5.15973">
        <ele>1257.442</ele>
        <time>2020-09-03T13:06:20Z</time>
      </trkpt>
      <trkpt lat="44.1823" lon="5.15983">
        <ele>1255.568</ele>
        <time>2020-09-03T13:06:21Z</time>
      </trkpt>
      <trkpt lat="44.18223" lon="5.15995">
        <ele>1253.582</ele>
        <time>2020-09-03T13:06:22Z</time>
      </trkpt>
      <trkpt lat="44.18217" lon="5.16007">
        <ele>1252.029</ele>
        <time>2020-09-03T13:06:23Z</time>
      </trkpt>
      <trkpt lat="44.18205" lon="5.16032">
        <ele>1250.917</ele>
        <time>2020-09-03T13:06:25Z</time>
      </trkpt>
      <trkpt lat="44.18199" lon="5.16043">
        <ele>1249.212</ele>
        <time>2020-09-03T13:06:26Z</time>
      </trkpt>
      <trkpt lat="44.18194" lon="5.16056">
        <ele>1247.469</ele>
        <time>2020-09-03T13:06:27Z</time>
      </trkpt>
      <trkpt lat="44.18188" lon="5.16069">
        <ele>1245.672</ele>
        <time>2020-09-03T13:06:28Z</time>
      </trkpt>
      <trkpt lat="44.18188" lon="5.16069">
        <ele>1243.85</ele>
        <time>2020-09-03T13:06:28Z</time>
      </trkpt>
      <trkpt lat="44.18179" lon="5.16095">
        <ele>1242.491</ele>
        <time>2020-09-03T13:06:30Z</time>
      </trkpt>
      <trkpt lat="44.18175" lon="5.16107">
        <ele>1241.565</ele>
        <time>2020-09-03T13:06:31Z</time>
      </trkpt>
      <trkpt lat="44.18171" lon="5.16117">
        <ele>1240.563</ele>
        <time>2020-09-03T13:06:32Z</time>
      </trkpt>
      <trkpt lat="44.18167" lon="5.16129">
        <ele>1239.056</ele>
        <time>2020-09-03T13:06:33Z</time>
      </trkpt>
      <trkpt lat="44.18163" lon="5.16141">
        <ele>1236.671</ele>
        <time>2020-09-03T13:06:34Z</time>
      </trkpt>
      <trkpt lat="44.18158" lon="5.16154">
        <ele>1233.772</ele>
        <time>2020-09-03T13:06:35Z</time>
      </trkpt>
      <trkpt lat="44.18152" lon="5.16167">
        <ele>1231.178</ele>
        <time>2020-09-03T13:06:36Z</time>
      </trkpt>
      <trkpt lat="44.18147" lon="5.16179">
        <ele>1228.266</ele>
        <time>2020-09-03T13:06:37Z</time>
      </trkpt>
      <trkpt lat="44.18143" lon="5.16191">
        <ele>1225.687</ele>
        <time>2020-09-03T13:06:38Z</time>
      </trkpt>
      <trkpt lat="44.18135" lon="5.16214">
        <ele>1223.191</ele>
        <time>2020-09-03T13:06:40Z</time>
      </trkpt>
      <trkpt lat="44.1813" lon="5.16226">
        <ele>1220.268</ele>
        <time>2020-09-03T13:06:41Z</time>
      </trkpt>
      <trkpt lat="44.18125" lon="5.16238">
        <ele>1216.966</ele>
        <time>2020-09-03T13:06:42Z</time>
      </trkpt>
      <trkpt lat="44.1812" lon="5.16251">
        <ele>1213.751</ele>
        <time>2020-09-03T13:06:43Z</time>
      </trkpt>
      <trkpt lat="44.18116" lon="5.16263">
        <ele>1211.1</ele>
        <time>2020-09-03T13:06:44Z</time>
      </trkpt>
      <trkpt lat="44.18111" lon="5.16274">
        <ele>1207.136</ele>
        <time>2020-09-03T13:06:45Z</time>
      </trkpt>
      <trkpt lat="44.18106" lon="5.16284">
        <ele>1204.099</ele>
        <time>2020-09-03T13:06:46Z</time>
      </trkpt>
      <trkpt lat="44.18101" lon="5.16295">
        <ele>1200.644</ele>
        <time>2020-09-03T13:06:47Z</time>
      </trkpt>
      <trkpt lat="44.18097" lon="5.16307">
        <ele>1196.873</ele>
        <time>2020-09-03T13:06:48Z</time>
      </trkpt>
      <trkpt lat="44.18091" lon="5.16318">
        <ele>1193.951</ele>
        <time>2020-09-03T13:06:49Z</time>
      </trkpt>
      <trkpt lat="44.18086" lon="5.16329">
        <ele>1189.553</ele>
        <time>2020-09-03T13:06:50Z</time>
      </trkpt>
      <trkpt lat="44.1808" lon="5.16339">
        <ele>1186.028</ele>
        <time>2020-09-03T13:06:51Z</time>
      </trkpt>
      <trkpt lat="44.1808" lon="5.16339">
        <ele>1183.651</ele>
        <time>2020-09-03T13:06:51Z</time>
      </trkpt>
      <trkpt lat="44.18072" lon="5.16363">
        <ele>1179.916</ele>
        <time>2020-09-03T13:06:53Z</time>
      </trkpt>
      <trkpt lat="44.18068" lon="5.16375">
        <ele>1176.17</ele>
        <time>2020-09-03T13:06:54Z</time>
      </trkpt>
      <trkpt lat="44.18063" lon="5.16387">
        <ele>1172.939</ele>
        <time>2020-09-03T13:06:55Z</time>
      </trkpt>
      <trkpt lat="44.18057" lon="5.16397">
        <ele>1169.354</ele>
        <time>2020-09-03T13:06:56Z</time>
      </trkpt>
      <trkpt lat="44.18051" lon="5.16406">
        <ele>1166.231</ele>
        <time>2020-09-03T13:06:57Z</time>
      </trkpt>
      <trkpt lat="44.18045" lon="5.16415">
        <ele>1162.692</ele>
        <time>2020-09-03T13:06:58Z</time>
      </trkpt>
      <trkpt lat="44.18041" lon="5.16426">
        <ele>1159.076</ele>
        <time>2020-09-03T13:06:59Z</time>
      </trkpt>
      <trkpt lat="44.18029" lon="5.16447">
        <ele>1155.421</ele>
        <time>2020-09-03T13:07:01Z</time>
      </trkpt>
      <trkpt lat="44.18023" lon="5.16459">
        <ele>1151.13</ele>
        <time>2020-09-03T13:07:02Z</time>
      </trkpt>
      <trkpt lat="44.18016" lon="5.16471">
        <ele>1147.405</ele>
        <time>2020-09-03T13:07:03Z</time>
      </trkpt>
      <trkpt lat="44.18009" lon="5.16483">
        <ele>1144.736</ele>
        <time>2020-09-03T13:07:04Z</time>
      </trkpt>
      <trkpt lat="44.18001" lon="5.16495">
        <ele>1143.213</ele>
        <time>2020-09-03T13:07:05Z</time>
      </trkpt>
      <trkpt lat="44.17995" lon="5.16508">
        <ele>1142.448</ele>
        <time>2020-09-03T13:07:06Z</time>
      </trkpt>
      <trkpt lat="44.1799" lon="5.16521">
        <ele>1142.162</ele>
        <time>2020-09-03T13:07:07Z</time>
      </trkpt>
      <trkpt lat="44.17985" lon="5.16532">
        <ele>1141.735</ele>
        <time>2020-09-03T13:07:08Z</time>
      </trkpt>
      <trkpt lat="44.17973" lon="5.16555">
        <ele>1141.074</ele>
        <time>2020-09-03T13:07:10Z</time>
      </trkpt>
      <trkpt lat="44.17966" lon="5.16565">
        <ele>1140.551</ele>
        <time>2020-09-03T13:07:11Z</time>
      </trkpt>
      <trkpt lat="44.17958" lon="5.16574">
        <ele>1139.912</ele>
        <time>2020-09-03T13:07:12Z</time>
      </trkpt>
      <trkpt lat="44.17949" lon="5.16581">
        <ele>1139.603</ele>
        <time>2020-09-03T13:07:13Z</time>
      </trkpt>
      <trkpt lat="44.17949" lon="5.16581">
        <ele>1140.128</ele>
        <time>2020-09-03T13:07:13Z</time>
      </trkpt>
      <trkpt lat="44.17931" lon="5.16595">
        <ele>1141.775</ele>
        <time>2020-09-03T13:07:15Z</time>
      </trkpt>
      <trkpt lat="44.17924" lon="5.16604">
        <ele>1144.562</ele>
        <time>2020-09-03T13:07:16Z</time>
      </trkpt>
      <trkpt lat="44.17919" lon="5.16611">
        <ele>1148.061</ele>
        <time>2020-09-03T13:07:17Z</time>
      </trkpt>
      <trkpt lat="44.17915" lon="5.16618">
        <ele>1151.95</ele>
        <time>2020-09-03T13:07:18Z</time>
      </trkpt>
      <trkpt lat="44.17911" lon="5.16627">
        <ele>1154.544</ele>
        <time>2020-09-03T13:07:19Z</time>
      </trkpt>
      <trkpt lat="44.17904" lon="5.16633">
        <ele>1156.261</ele>
        <time>2020-09-03T13:07:20Z</time>
      </trkpt>
      <trkpt lat="44.17896" lon="5.16637">
        <ele>1157.288</ele>
        <time>2020-09-03T13:07:21Z</time>
      </trkpt>
      <trkpt lat="44.17887" lon="5.16641">
        <ele>1159.268</ele>
        <time>2020-09-03T13:07:22Z</time>
      </trkpt>
      <trkpt lat="44.1788" lon="5.16645">
        <ele>1161.687</ele>
        <time>2020-09-03T13:07:23Z</time>
      </trkpt>
      <trkpt lat="44.17874" lon="5.1665">
        <ele>1165.064</ele>
        <time>2020-09-03T13:07:24Z</time>
      </trkpt>
      <trkpt lat="44.17867" lon="5.16654">
        <ele>1168.244</ele>
        <time>2020-09-03T13:07:25Z</time>
      </trkpt>
      <trkpt lat="44.1786" lon="5.16658">
        <ele>1171.914</ele>
        <time>2020-09-03T13:07:26Z</time>
      </trkpt>
      <trkpt lat="44.17853" lon="5.16658">
        <ele>1175.406</ele>
        <time>2020-09-03T13:07:27Z</time>
      </trkpt>
      <trkpt lat="44.17844" lon="5.16655">
        <ele>1178.759</ele>
        <time>2020-09-03T13:07:28Z</time>
      </trkpt>
      <trkpt lat="44.17839" lon="5.16647">
        <ele>1182.881</ele>
        <time>2020-09-03T13:07:29Z</time>
      </trkpt>
      <trkpt lat="44.17838" lon="5.16638">
        <ele>1186.591</ele>
        <time>2020-09-03T13:07:30Z</time>
      </trkpt>
      <trkpt lat="44.17841" lon="5.16628">
        <ele>1190.838</ele>
        <time>2020-09-03T13:07:31Z</time>
      </trkpt>
      <trkpt lat="44.17847" lon="5.1662">
        <ele>1195.409</ele>
        <time>2020-09-03T13:07:32Z</time>
      </trkpt>
      <trkpt lat="44.17855" lon="5.16615">
        <ele>1199.228</ele>
        <time>2020-09-03T13:07:33Z</time>
      </trkpt>
      <trkpt lat="44.17864" lon="5.16614">
        <ele>1202.702</ele>
        <time>2020-09-03T13:07:34Z</time>
      </trkpt>
      <trkpt lat="44.1788" lon="5.16627">
        <ele>1207.219</ele>
        <time>2020-09-03T13:07:36Z</time>
      </trkpt>
      <trkpt lat="44.17883" lon="5.16639">
        <ele>1210.472</ele>
        <time>2020-09-03T13:07:37Z</time>
      </trkpt>
      <trkpt lat="44.17885" lon="5.16653">
        <ele>1214.388</ele>
        <time>2020-09-03T13:07:38Z</time>
      </trkpt>
      <trkpt lat="44.17885" lon="5.16653">
        <ele>1218.157</ele>
        <time>2020-09-03T13:07:38Z</time>
      </trkpt>
      <trkpt lat="44.17881" lon="5.16679">
        <ele>1221.368</ele>
        <time>2020-09-03T13:07:40Z</time>
      </trkpt>
      <trkpt lat="44.17875" lon="5.16687">
        <ele>1225.302</ele>
        <time>2020-09-03T13:07:41Z</time>
      </trkpt>
      <trkpt lat="44.17869" lon="5.16692">
        <ele>1229.469</ele>
        <time>2020-09-03T13:07:42Z</time>
      </trkpt>
      <trkpt lat="44.17863" lon="5.16696">
        <ele>1233.18</ele>
        <time>2020-09-03T13:07:43Z</time>
      </trkpt>
      <trkpt lat="44.17863" lon="5.16696">
        <ele>1236.854</ele>
        <time>2020-09-03T13:07:43Z</time>
      </trkpt>
      <trkpt lat="44.1785" lon="5.16706">
        <ele>1240.148</ele>
        <time>2020-09-03T13:07:45Z</time>
      </trkpt>
      <trkpt lat="44.17846" lon="5.16712">
        <ele>1243.906</ele>
        <time>2020-09-03T13:07:46Z</time>
      </trkpt>
      <trkpt lat="44.17841" lon="5.16716">
        <ele>1246.972</ele>
        <time>2020-09-03T13:07:47Z</time>
      </trkpt>
      <trkpt lat="44.17836" lon="5.1672">
        <ele>1248.965</ele>
        <time>2020-09-03T13:07:48Z</time>
      </trkpt>
      <trkpt lat="44.17829" lon="5.16721">
        <ele>1251.744</ele>
        <time>2020-09-03T13:07:49Z</time>
      </trkpt>
      <trkpt lat="44.17822" lon="5.16721">
        <ele>1255.023</ele>
        <time>2020-09-03T13:07:50Z</time>
      </trkpt>
      <trkpt lat="44.17815" lon="5.16721">
        <ele>1257.469</ele>
        <time>2020-09-03T13:07:51Z</time>
      </trkpt>
      <trkpt lat="44.1781" lon="5.16718">
        <ele>1260.114</ele>
        <time>2020-09-03T13:07:52Z</time>
      </trkpt>
      <trkpt lat="44.17807" lon="5.16714">
        <ele>1262.607</ele>
        <time>2020-09-03T13:07:53Z</time>
      </trkpt>
      <trkpt lat="44.17806" lon="5.16709">
        <ele>1264.812</ele>
        <time>2020-09-03T13:07:54Z</time>
      </trkpt>
      <trkpt lat="44.17811" lon="5.16697">
        <ele>1266.085</ele>
        <time>2020-09-03T13:07:56Z</time>
      </trkpt>
      <trkpt lat="44.17817" lon="5.1669">
        <ele>1267.015</ele>
        <time>2020-09-03T13:07:57Z</time>
      </trkpt>
      <trkpt lat="44.17823" lon="5.16685">
        <ele>1268.305</ele>
        <time>2020-09-03T13:07:58Z</time>
      </trkpt>
      <trkpt lat="44.17828" lon="5.16681">
        <ele>1270.315</ele>
        <time>2020-09-03T13:07:59Z</time>
      </trkpt>
      <trkpt lat="44.17832" lon="5.16677">
        <ele>1272.962</ele>
        <time>2020-09-03T13:08:00Z</time>
      </trkpt>
      <trkpt lat="44.17833" lon="5.1667">
        <ele>1275.76</ele>
        <time>2020-09-03T13:08:01Z</time>
      </trkpt>
      <trkpt lat="44.17832" lon="5.1666">
        <ele>1277.734</ele>
        <time>2020-09-03T13:08:02Z</time>
      </trkpt>
      <trkpt lat="44.17831" lon="5.16651">
        <ele>1279.509</ele>
        <time>2020-09-03T13:08:03Z</time>
      </trkpt>
      <trkpt lat="44.17827" lon="5.16641">
        <ele>1281.151</ele>
        <time>2020-09-03T13:08:04Z</time>
      </trkpt>
      <trkpt lat="44.17821" lon="5.16633">
        <ele>1282.609</ele>
        <time>2020-09-03T13:08:05Z</time>
      </trkpt>
      <trkpt lat="44.17812" lon="5.1663">
        <ele>1284.304</ele>
        <time>2020-09-03T13:08:06Z</time>
      </trkpt>
      <trkpt lat="44.17803" lon="5.16632">
        <ele>1286.019</ele>
        <time>2020-09-03T13:08:07Z</time>
      </trkpt>
      <trkpt lat="44.17796" lon="5.16638">
        <ele>1288.873</ele>
        <time>2020-09-03T13:08:08Z</time>
      </trkpt>
      <trkpt lat="44.17789" lon="5.16646">
        <ele>1291.21</ele>
        <time>2020-09-03T13:08:09Z</time>
      </trkpt>
      <trkpt lat="44.17784" lon="5.16656">
        <ele>1292.857</ele>
        <time>2020-09-03T13:08:10Z</time>
      </trkpt>
      <trkpt lat="44.17779" lon="5.16669">
        <ele>1294.112</ele>
        <time>2020-09-03T13:08:11Z</time>
      </trkpt>
      <trkpt lat="44.17777" lon="5.16684">
        <ele>1294.81</ele>
        <time>2020-09-03T13:08:12Z</time>
      </trkpt>
      <trkpt lat="44.17777" lon="5.16684">
        <ele>1295.525</ele>
        <time>2020-09-03T13:08:12Z</time>
      </trkpt>
      <trkpt lat="44.17779" lon="5.16716">
        <ele>1296.542</ele>
        <time>2020-09-03T13:08:14Z</time>
      </trkpt>
      <trkpt lat="44.17779" lon="5.16716">
        <ele>1298.152</ele>
        <time>2020-09-03T13:08:14Z</time>
      </trkpt>
      <trkpt lat="44.17789" lon="5.16751">
        <ele>1299.174</ele>
        <time>2020-09-03T13:08:17Z</time>
      </trkpt>
      <trkpt lat="44.17791" lon="5.16763">
        <ele>1300.702</ele>
        <time>2020-09-03T13:08:18Z</time>
      </trkpt>
      <trkpt lat="44.17793" lon="5.16775">
        <ele>1302.234</ele>
        <time>2020-09-03T13:08:19Z</time>
      </trkpt>
      <trkpt lat="44.17797" lon="5.16788">
        <ele>1302.935</ele>
        <time>2020-09-03T13:08:20Z</time>
      </trkpt>
      <trkpt lat="44.17803" lon="5.16799">
        <ele>1303.75</ele>
        <time>2020-09-03T13:08:21Z</time>
      </trkpt>
      <trkpt lat="44.17812" lon="5.16807">
        <ele>1304.284</ele>
        <time>2020-09-03T13:08:22Z</time>
      </trkpt>
      <trkpt lat="44.17821" lon="5.16808">
        <ele>1304.491</ele>
        <time>2020-09-03T13:08:23Z</time>
      </trkpt>
      <trkpt lat="44.17828" lon="5.16802">
        <ele>1304.522</ele>
        <time>2020-09-03T13:08:24Z</time>
      </trkpt>
      <trkpt lat="44.17834" lon="5.16794">
        <ele>1304.804</ele>
        <time>2020-09-03T13:08:25Z</time>
      </trkpt>
      <trkpt lat="44.1784" lon="5.16773">
        <ele>1305.814</ele>
        <time>2020-09-03T13:08:27Z</time>
      </trkpt>
      <trkpt lat="44.1784" lon="5.16762">
        <ele>1307.536</ele>
        <time>2020-09-03T13:08:28Z</time>
      </trkpt>
      <trkpt lat="44.1784" lon="5.16752">
        <ele>1309.658</ele>
        <time>2020-09-03T13:08:29Z</time>
      </trkpt>
      <trkpt lat="44.1784" lon="5.16744">
        <ele>1312.103</ele>
        <time>2020-09-03T13:08:30Z</time>
      </trkpt>
      <trkpt lat="44.17837" lon="5.16737">
        <ele>1315.063</ele>
        <time>2020-09-03T13:08:31Z</time>
      </trkpt>
      <trkpt lat="44.17834" lon="5.16731">
        <ele>1318.3</ele>
        <time>2020-09-03T13:08:32Z</time>
      </trkpt>
      <trkpt lat="44.17828" lon="5.16728">
        <ele>1321.045</ele>
        <time>2020-09-03T13:08:33Z</time>
      </trkpt>
      <trkpt lat="44.17821" lon="5.16727">
        <ele>1323.335</ele>
        <time>2020-09-03T13:08:34Z</time>
      </trkpt>
      <trkpt lat="44.17814" lon="5.16732">
        <ele>1325.743</ele>
        <time>2020-09-03T13:08:35Z</time>
      </trkpt>
      <trkpt lat="44.17809" lon="5.16743">
        <ele>1328.278</ele>
        <time>2020-09-03T13:08:36Z</time>
      </trkpt>
      <trkpt lat="44.17808" lon="5.16758">
        <ele>1330.124</ele>
        <time>2020-09-03T13:08:37Z</time>
      </trkpt>
      <trkpt lat="44.17811" lon="5.16774">
        <ele>1331.973</ele>
        <time>2020-09-03T13:08:38Z</time>
      </trkpt>
      <trkpt lat="44.17819" lon="5.16788">
        <ele>1333.292</ele>
        <time>2020-09-03T13:08:39Z</time>
      </trkpt>
      <trkpt lat="44.17829" lon="5.16795">
        <ele>1334.628</ele>
        <time>2020-09-03T13:08:40Z</time>
      </trkpt>
      <trkpt lat="44.17839" lon="5.16795">
        <ele>1336.182</ele>
        <time>2020-09-03T13:08:41Z</time>
      </trkpt>
      <trkpt lat="44.17847" lon="5.16792">
        <ele>1338.143</ele>
        <time>2020-09-03T13:08:42Z</time>
      </trkpt>
      <trkpt lat="44.17853" lon="5.16786">
        <ele>1340.757</ele>
        <time>2020-09-03T13:08:43Z</time>
      </trkpt>
      <trkpt lat="44.17857" lon="5.16779">
        <ele>1342.677</ele>
        <time>2020-09-03T13:08:44Z</time>
      </trkpt>
      <trkpt lat="44.17859" lon="5.1677">
        <ele>1344.981</ele>
        <time>2020-09-03T13:08:45Z</time>
      </trkpt>
      <trkpt lat="44.17859" lon="5.1677">
        <ele>1347.676</ele>
        <time>2020-09-03T13:08:45Z</time>
      </trkpt>
      <trkpt lat="44.17846" lon="5.16755">
        <ele>1349.822</ele>
        <time>2020-09-03T13:08:48Z</time>
      </trkpt>
      <trkpt lat="44.17846" lon="5.16755">
        <ele>1351.747</ele>
        <time>2020-09-03T13:08:48Z</time>
      </trkpt>
      <trkpt lat="44.17832" lon="5.16757">
        <ele>1354.943</ele>
        <time>2020-09-03T13:08:50Z</time>
      </trkpt>
      <trkpt lat="44.17826" lon="5.16759">
        <ele>1357.408</ele>
        <time>2020-09-03T13:08:51Z</time>
      </trkpt>
      <trkpt lat="44.17819" lon="5.1676">
        <ele>1359.157</ele>
        <time>2020-09-03T13:08:52Z</time>
      </trkpt>
      <trkpt lat="44.17811" lon="5.16761">
        <ele>1360.937</ele>
        <time>2020-09-03T13:08:53Z</time>
      </trkpt>
      <trkpt lat="44.17804" lon="5.16762">
        <ele>1361.958</ele>
        <time>2020-09-03T13:08:54Z</time>
      </trkpt>
      <trkpt lat="44.17796" lon="5.16761">
        <ele>1363.278</ele>
        <time>2020-09-03T13:08:55Z</time>
      </trkpt>
      <trkpt lat="44.17789" lon="5.16761">
        <ele>1364.566</ele>
        <time>2020-09-03T13:08:56Z</time>
      </trkpt>
      <trkpt lat="44.17782" lon="5.16761">
        <ele>1365.525</ele>
        <time>2020-09-03T13:08:57Z</time>
      </trkpt>
      <trkpt lat="44.17775" lon="5.16761">
        <ele>1366.003</ele>
        <time>2020-09-03T13:08:58Z</time>
      </trkpt>
      <trkpt lat="44.17768" lon="5.16763">
        <ele>1366.055</ele>
        <time>2020-09-03T13:08:59Z</time>
      </trkpt>
      <trkpt lat="44.1776" lon="5.16766">
        <ele>1365.96</ele>
        <time>2020-09-03T13:09:00Z</time>
      </trkpt>
      <trkpt lat="44.17752" lon="5.16769">
        <ele>1366.009</ele>
        <time>2020-09-03T13:09:01Z</time>
      </trkpt>
      <trkpt lat="44.17744" lon="5.16773">
        <ele>1366.309</ele>
        <time>2020-09-03T13:09:02Z</time>
      </trkpt>
      <trkpt lat="44.17735" lon="5.16775">
        <ele>1367.129</ele>
        <time>2020-09-03T13:09:03Z</time>
      </trkpt>
      <trkpt lat="44.17727" lon="5.16777">
        <ele>1368.169</ele>
        <time>2020-09-03T13:09:04Z</time>
      </trkpt>
      <trkpt lat="44.1772" lon="5.16778">
        <ele>1369.297</ele>
        <time>2020-09-03T13:09:05Z</time>
      </trkpt>
      <trkpt lat="44.17712" lon="5.1678">
        <ele>1370.452</ele>
        <time>2020-09-03T13:09:06Z</time>
      </trkpt>
      <trkpt lat="44.17705" lon="5.16782">
        <ele>1371.931</ele>
        <time>2020-09-03T13:09:07Z</time>
      </trkpt>
      <trkpt lat="44.17698" lon="5.16784">
        <ele>1373.454</ele>
        <time>2020-09-03T13:09:08Z</time>
      </trkpt>
      <trkpt lat="44.17684" lon="5.16788">
        <ele>1374.872</ele>
        <time>2020-09-03T13:09:10Z</time>
      </trkpt>
      <trkpt lat="44.17677" lon="5.1679">
        <ele>1376.373</ele>
        <time>2020-09-03T13:09:11Z</time>
      </trkpt>
      <trkpt lat="44.1767" lon="5.16792">
        <ele>1378.42</ele>
        <time>2020-09-03T13:09:12Z</time>
      </trkpt>
      <trkpt lat="44.17663" lon="5.16794">
        <ele>1379.732</ele>
        <time>2020-09-03T13:09:13Z</time>
      </trkpt>
      <trkpt lat="44.17656" lon="5.16797">
        <ele>1382.413</ele>
        <time>2020-09-03T13:09:14Z</time>
      </trkpt>
      <trkpt lat="44.17648" lon="5.16801">
        <ele>1385.193</ele>
        <time>2020-09-03T13:09:15Z</time>
      </trkpt>
      <trkpt lat="44.17641" lon="5.16805">
        <ele>1387.695</ele>
        <time>2020-09-03T13:09:16Z</time>
      </trkpt>
      <trkpt lat="44.17635" lon="5.16808">
        <ele>1390.013</ele>
        <time>2020-09-03T13:09:17Z</time>
      </trkpt>
      <trkpt lat="44.17635" lon="5.16808">
        <ele>1392.086</ele>
        <time>2020-09-03T13:09:17Z</time>
      </trkpt>
      <trkpt lat="44.17616" lon="5.16817">
        <ele>1394.374</ele>
        <time>2020-09-03T13:09:20Z</time>
      </trkpt>
      <trkpt lat="44.17608" lon="5.16817">
        <ele>1396.179</ele>
        <time>2020-09-03T13:09:21Z</time>
      </trkpt>
      <trkpt lat="44.176" lon="5.16814">
        <ele>1398.219</ele>
        <time>2020-09-03T13:09:22Z</time>
      </trkpt>
      <trkpt lat="44.17593" lon="5.16811">
        <ele>1400.027</ele>
        <time>2020-09-03T13:09:23Z</time>
      </trkpt>
      <trkpt lat="44.17593" lon="5.16811">
        <ele>1402.387</ele>
        <time>2020-09-03T13:09:23Z</time>
      </trkpt>
      <trkpt lat="44.1758" lon="5.16809">
        <ele>1404.599</ele>
        <time>2020-09-03T13:09:25Z</time>
      </trkpt>
      <trkpt lat="44.17574" lon="5.16807">
        <ele>1406.496</ele>
        <time>2020-09-03T13:09:26Z</time>
      </trkpt>
      <trkpt lat="44.17569" lon="5.16804">
        <ele>1408.223</ele>
        <time>2020-09-03T13:09:27Z</time>
      </trkpt>
      <trkpt lat="44.17567" lon="5.16797">
        <ele>1409.443</ele>
        <time>2020-09-03T13:09:28Z</time>
      </trkpt>
      <trkpt lat="44.17568" lon="5.1679">
        <ele>1410.1</ele>
        <time>2020-09-03T13:09:29Z</time>
      </trkpt>
      <trkpt lat="44.17572" lon="5.16782">
        <ele>1410.513</ele>
        <time>2020-09-03T13:09:30Z</time>
      </trkpt>
      <trkpt lat="44.17577" lon="5.16774">
        <ele>1410.547</ele>
        <time>2020-09-03T13:09:31Z</time>
      </trkpt>
      <trkpt lat="44.17586" lon="5.16772">
        <ele>1410.766</ele>
        <time>2020-09-03T13:09:32Z</time>
      </trkpt>
      <trkpt lat="44.17595" lon="5.16776">
        <ele>1411.448</ele>
        <time>2020-09-03T13:09:33Z</time>
      </trkpt>
      <trkpt lat="44.17603" lon="5.16784">
        <ele>1412.595</ele>
        <time>2020-09-03T13:09:34Z</time>
      </trkpt>
      <trkpt lat="44.17611" lon="5.16795">
        <ele>1414.099</ele>
        <time>2020-09-03T13:09:35Z</time>
      </trkpt>
      <trkpt lat="44.17617" lon="5.16807">
        <ele>1416.043</ele>
        <time>2020-09-03T13:09:36Z</time>
      </trkpt>
      <trkpt lat="44.17623" lon="5.16821">
        <ele>1417.564</ele>
        <time>2020-09-03T13:09:37Z</time>
      </trkpt>
      <trkpt lat="44.17627" lon="5.16836">
        <ele>1419.399</ele>
        <time>2020-09-03T13:09:38Z</time>
      </trkpt>
      <trkpt lat="44.17631" lon="5.16866">
        <ele>1421.26</ele>
        <time>2020-09-03T13:09:40Z</time>
      </trkpt>
      <trkpt lat="44.17631" lon="5.1688">
        <ele>1422.706</ele>
        <time>2020-09-03T13:09:41Z</time>
      </trkpt>
      <trkpt lat="44.17631" lon="5.16896">
        <ele>1425.266</ele>
        <time>2020-09-03T13:09:42Z</time>
      </trkpt>
      <trkpt lat="44.17632" lon="5.16911">
        <ele>1428.939</ele>
        <time>2020-09-03T13:09:43Z</time>
      </trkpt>
      <trkpt lat="44.17634" lon="5.16924">
        <ele>1433.064</ele>
        <time>2020-09-03T13:09:44Z</time>
      </trkpt>
      <trkpt lat="44.17636" lon="5.16936">
        <ele>1437.769</ele>
        <time>2020-09-03T13:09:45Z</time>
      </trkpt>
      <trkpt lat="44.17639" lon="5.16948">
        <ele>1441.763</ele>
        <time>2020-09-03T13:09:46Z</time>
      </trkpt>
      <trkpt lat="44.17641" lon="5.1696">
        <ele>1444.978</ele>
        <time>2020-09-03T13:09:47Z</time>
      </trkpt>
      <trkpt lat="44.17641" lon="5.16974">
        <ele>1447.829</ele>
        <time>2020-09-03T13:09:48Z</time>
      </trkpt>
      <trkpt lat="44.17639" lon="5.16988">
        <ele>1450.194</ele>
        <time>2020-09-03T13:09:49Z</time>
      </trkpt>
      <trkpt lat="44.17633" lon="5.17">
        <ele>1451.879</ele>
        <time>2020-09-03T13:09:50Z</time>
      </trkpt>
      <trkpt lat="44.17625" lon="5.17009">
        <ele>1453.807</ele>
        <time>2020-09-03T13:09:51Z</time>
      </trkpt>
      <trkpt lat="44.17615" lon="5.17011">
        <ele>1455.645</ele>
        <time>2020-09-03T13:09:52Z</time>
      </trkpt>
      <trkpt lat="44.17607" lon="5.17013">
        <ele>1458.217</ele>
        <time>2020-09-03T13:09:53Z</time>
      </trkpt>
      <trkpt lat="44.17603" lon="5.17006">
        <ele>1460.997</ele>
        <time>2020-09-03T13:09:54Z</time>
      </trkpt>
      <trkpt lat="44.17602" lon="5.16997">
        <ele>1463.924</ele>
        <time>2020-09-03T13:09:55Z</time>
      </trkpt>
      <trkpt lat="44.17605" lon="5.16988">
        <ele>1466.902</ele>
        <time>2020-09-03T13:09:56Z</time>
      </trkpt>
      <trkpt lat="44.17611" lon="5.16981">
        <ele>1469.916</ele>
        <time>2020-09-03T13:09:57Z</time>
      </trkpt>
      <trkpt lat="44.17618" lon="5.16976">
        <ele>1472.759</ele>
        <time>2020-09-03T13:09:58Z</time>
      </trkpt>
      <trkpt lat="44.17627" lon="5.16974">
        <ele>1476.133</ele>
        <time>2020-09-03T13:09:59Z</time>
      </trkpt>
      <trkpt lat="44.17636" lon="5.16976">
        <ele>1479.019</ele>
        <time>2020-09-03T13:10:00Z</time>
      </trkpt>
      <trkpt lat="44.17645" lon="5.16983">
        <ele>1482.463</ele>
        <time>2020-09-03T13:10:01Z</time>
      </trkpt>
      <trkpt lat="44.17651" lon="5.16993">
        <ele>1485.567</ele>
        <time>2020-09-03T13:10:02Z</time>
      </trkpt>
      <trkpt lat="44.17654" lon="5.17005">
        <ele>1488.437</ele>
        <time>2020-09-03T13:10:03Z</time>
      </trkpt>
      <trkpt lat="44.17655" lon="5.17016">
        <ele>1490.914</ele>
        <time>2020-09-03T13:10:04Z</time>
      </trkpt>
      <trkpt lat="44.17655" lon="5.17029">
        <ele>1493.361</ele>
        <time>2020-09-03T13:10:05Z</time>
      </trkpt>
      <trkpt lat="44.17652" lon="5.17043">
        <ele>1495.198</ele>
        <time>2020-09-03T13:10:06Z</time>
      </trkpt>
      <trkpt lat="44.17648" lon="5.17055">
        <ele>1497.303</ele>
        <time>2020-09-03T13:10:07Z</time>
      </trkpt>
      <trkpt lat="44.17648" lon="5.17055">
        <ele>1498.862</ele>
        <time>2020-09-03T13:10:07Z</time>
      </trkpt>
      <trkpt lat="44.17641" lon="5.1708">
        <ele>1501.756</ele>
        <time>2020-09-03T13:10:09Z</time>
      </trkpt>
      <trkpt lat="44.17639" lon="5.17093">
        <ele>1504.455</ele>
        <time>2020-09-03T13:10:10Z</time>
      </trkpt>
      <trkpt lat="44.17637" lon="5.17105">
        <ele>1506.994</ele>
        <time>2020-09-03T13:10:11Z</time>
      </trkpt>
      <trkpt lat="44.17636" lon="5.17119">
        <ele>1508.792</ele>
        <time>2020-09-03T13:10:12Z</time>
      </trkpt>
      <trkpt lat="44.17634" lon="5.17133">
        <ele>1510.08</ele>
        <time>2020-09-03T13:10:13Z</time>
      </trkpt>
      <trkpt lat="44.1763" lon="5.17145">
        <ele>1511.204</ele>
        <time>2020-09-03T13:10:14Z</time>
      </trkpt>
      <trkpt lat="44.17624" lon="5.17155">
        <ele>1511.893</ele>
        <time>2020-09-03T13:10:15Z</time>
      </trkpt>
      <trkpt lat="44.17611" lon="5.1716">
        <ele>1512.041</ele>
        <time>2020-09-03T13:10:17Z</time>
      </trkpt>
      <trkpt lat="44.17606" lon="5.17158">
        <ele>1511.746</ele>
        <time>2020-09-03T13:10:18Z</time>
      </trkpt>
      <trkpt lat="44.17606" lon="5.17158">
        <ele>1510.899</ele>
        <time>2020-09-03T13:10:18Z</time>
      </trkpt>
      <trkpt lat="44.17598" lon="5.17149">
        <ele>1509.971</ele>
        <time>2020-09-03T13:10:20Z</time>
      </trkpt>
      <trkpt lat="44.17594" lon="5.17143">
        <ele>1508.8</ele>
        <time>2020-09-03T13:10:21Z</time>
      </trkpt>
      <trkpt lat="44.17591" lon="5.17137">
        <ele>1507.765</ele>
        <time>2020-09-03T13:10:22Z</time>
      </trkpt>
      <trkpt lat="44.17586" lon="5.17132">
        <ele>1506.826</ele>
        <time>2020-09-03T13:10:23Z</time>
      </trkpt>
      <trkpt lat="44.17586" lon="5.17132">
        <ele>1505.911</ele>
        <time>2020-09-03T13:10:23Z</time>
      </trkpt>
      <trkpt lat="44.17576" lon="5.17131">
        <ele>1504.549</ele>
        <time>2020-09-03T13:10:25Z</time>
      </trkpt>
      <trkpt lat="44.17569" lon="5.17134">
        <ele>1502.922</ele>
        <time>2020-09-03T13:10:26Z</time>
      </trkpt>
      <trkpt lat="44.17562" lon="5.17139">
        <ele>1500.592</ele>
        <time>2020-09-03T13:10:27Z</time>
      </trkpt>
      <trkpt lat="44.17554" lon="5.17146">
        <ele>1498.519</ele>
        <time>2020-09-03T13:10:28Z</time>
      </trkpt>
      <trkpt lat="44.17547" lon="5.17153">
        <ele>1496.883</ele>
        <time>2020-09-03T13:10:29Z</time>
      </trkpt>
      <trkpt lat="44.1754" lon="5.17162">
        <ele>1494.951</ele>
        <time>2020-09-03T13:10:30Z</time>
      </trkpt>
      <trkpt lat="44.17533" lon="5.17171">
        <ele>1493.158</ele>
        <time>2020-09-03T13:10:31Z</time>
      </trkpt>
      <trkpt lat="44.17527" lon="5.1718">
        <ele>1491.163</ele>
        <time>2020-09-03T13:10:32Z</time>
      </trkpt>
      <trkpt lat="44.17527" lon="5.1718">
        <ele>1489.319</ele>
        <time>2020-09-03T13:10:32Z</time>
      </trkpt>
      <trkpt lat="44.17507" lon="5.17201">
        <ele>1487.307</ele>
        <time>2020-09-03T13:10:35Z</time>
      </trkpt>
      <trkpt lat="44.175" lon="5.17207">
        <ele>1485.602</ele>
        <time>2020-09-03T13:10:36Z</time>
      </trkpt>
      <trkpt lat="44.17494" lon="5.17215">
        <ele>1483.349</ele>
        <time>2020-09-03T13:10:37Z</time>
      </trkpt>
      <trkpt lat="44.17487" lon="5.17223">
        <ele>1480.278</ele>
        <time>2020-09-03T13:10:38Z</time>
      </trkpt>
      <trkpt lat="44.17479" lon="5.17232">
        <ele>1477.321</ele>
        <time>2020-09-03T13:10:39Z</time>
      </trkpt>
      <trkpt lat="44.17471" lon="5.17241">
        <ele>1474.643</ele>
        <time>2020-09-03T13:10:40Z</time>
      </trkpt>
      <trkpt lat="44.17463" lon="5.1725">
        <ele>1472.499</ele>
        <time>2020-09-03T13:10:41Z</time>
      </trkpt>
      <trkpt lat="44.17456" lon="5.17259">
        <ele>1470.915</ele>
        <time>2020-09-03T13:10:42Z</time>
      </trkpt>
      <trkpt lat="44.1745" lon="5.17269">
        <ele>1469.846</ele>
        <time>2020-09-03T13:10:43Z</time>
      </trkpt>
      <trkpt lat="44.17445" lon="5.17279">
        <ele>1468.7</ele>
        <time>2020-09-03T13:10:44Z</time>
      </trkpt>
      <trkpt lat="44.17439" lon="5.17288">
        <ele>1467.196</ele>
        <time>2020-09-03T13:10:45Z</time>
      </trkpt>
      <trkpt lat="44.17434" lon="5.17296">
        <ele>1465.255</ele>
        <time>2020-09-03T13:10:46Z</time>
      </trkpt>
      <trkpt lat="44.17428" lon="5.17306">
        <ele>1462.699</ele>
        <time>2020-09-03T13:10:47Z</time>
      </trkpt>
      <trkpt lat="44.17421" lon="5.17315">
        <ele>1460.054</ele>
        <time>2020-09-03T13:10:48Z</time>
      </trkpt>
      <trkpt lat="44.17415" lon="5.17326">
        <ele>1457.256</ele>
        <time>2020-09-03T13:10:49Z</time>
      </trkpt>
      <trkpt lat="44.17409" lon="5.17337">
        <ele>1455.51</ele>
        <time>2020-09-03T13:10:50Z</time>
      </trkpt>
      <trkpt lat="44.17404" lon="5.17347">
        <ele>1453.909</ele>
        <time>2020-09-03T13:10:51Z</time>
      </trkpt>
      <trkpt lat="44.17398" lon="5.17357">
        <ele>1452.644</ele>
        <time>2020-09-03T13:10:52Z</time>
      </trkpt>
      <trkpt lat="44.17393" lon="5.17368">
        <ele>1451.335</ele>
        <time>2020-09-03T13:10:53Z</time>
      </trkpt>
      <trkpt lat="44.17384" lon="5.1739">
        <ele>1449.916</ele>
        <time>2020-09-03T13:10:55Z</time>
      </trkpt>
      <trkpt lat="44.17379" lon="5.174">
        <ele>1448.47</ele>
        <time>2020-09-03T13:10:56Z</time>
      </trkpt>
      <trkpt lat="44.17374" lon="5.17409">
        <ele>1446.689</ele>
        <time>2020-09-03T13:10:57Z</time>
      </trkpt>
      <trkpt lat="44.17368" lon="5.17418">
        <ele>1444.52</ele>
        <time>2020-09-03T13:10:58Z</time>
      </trkpt>
      <trkpt lat="44.17362" lon="5.17428">
        <ele>1442.606</ele>
        <time>2020-09-03T13:10:59Z</time>
      </trkpt>
      <trkpt lat="44.17357" lon="5.17439">
        <ele>1440.374</ele>
        <time>2020-09-03T13:11:00Z</time>
      </trkpt>
      <trkpt lat="44.17351" lon="5.1745">
        <ele>1438.764</ele>
        <time>2020-09-03T13:11:01Z</time>
      </trkpt>
      <trkpt lat="44.17345" lon="5.17461">
        <ele>1437.396</ele>
        <time>2020-09-03T13:11:02Z</time>
      </trkpt>
      <trkpt lat="44.17345" lon="5.17461">
        <ele>1436.818</ele>
        <time>2020-09-03T13:11:02Z</time>
      </trkpt>
      <trkpt lat="44.17334" lon="5.17481">
        <ele>1435.848</ele>
        <time>2020-09-03T13:11:04Z</time>
      </trkpt>
      <trkpt lat="44.17329" lon="5.17491">
        <ele>1434.557</ele>
        <time>2020-09-03T13:11:05Z</time>
      </trkpt>
      <trkpt lat="44.17324" lon="5.17501">
        <ele>1432.846</ele>
        <time>2020-09-03T13:11:06Z</time>
      </trkpt>
      <trkpt lat="44.17317" lon="5.1751">
        <ele>1431.124</ele>
        <time>2020-09-03T13:11:07Z</time>
      </trkpt>
      <trkpt lat="44.17309" lon="5.17519">
        <ele>1429.29</ele>
        <time>2020-09-03T13:11:08Z</time>
      </trkpt>
      <trkpt lat="44.17303" lon="5.17529">
        <ele>1427.931</ele>
        <time>2020-09-03T13:11:09Z</time>
      </trkpt>
      <trkpt lat="44.17298" lon="5.17539">
        <ele>1426.824</ele>
        <time>2020-09-03T13:11:10Z</time>
      </trkpt>
      <trkpt lat="44.17294" lon="5.1755">
        <ele>1425.433</ele>
        <time>2020-09-03T13:11:11Z</time>
      </trkpt>
      <trkpt lat="44.17289" lon="5.1756">
        <ele>1423.667</ele>
        <time>2020-09-03T13:11:12Z</time>
      </trkpt>
      <trkpt lat="44.17284" lon="5.17571">
        <ele>1421.437</ele>
        <time>2020-09-03T13:11:13Z</time>
      </trkpt>
      <trkpt lat="44.17278" lon="5.17582">
        <ele>1419.031</ele>
        <time>2020-09-03T13:11:14Z</time>
      </trkpt>
      <trkpt lat="44.17266" lon="5.17603">
        <ele>1417.535</ele>
        <time>2020-09-03T13:11:16Z</time>
      </trkpt>
      <trkpt lat="44.17262" lon="5.17612">
        <ele>1417.027</ele>
        <time>2020-09-03T13:11:17Z</time>
      </trkpt>
      <trkpt lat="44.17258" lon="5.17619">
        <ele>1416.319</ele>
        <time>2020-09-03T13:11:18Z</time>
      </trkpt>
      <trkpt lat="44.17255" lon="5.17626">
        <ele>1414.895</ele>
        <time>2020-09-03T13:11:19Z</time>
      </trkpt>
      <trkpt lat="44.17251" lon="5.17632">
        <ele>1412.228</ele>
        <time>2020-09-03T13:11:20Z</time>
      </trkpt>
      <trkpt lat="44.17245" lon="5.17639">
        <ele>1408.928</ele>
        <time>2020-09-03T13:11:21Z</time>
      </trkpt>
      <trkpt lat="44.17239" lon="5.17648">
        <ele>1404.486</ele>
        <time>2020-09-03T13:11:22Z</time>
      </trkpt>
      <trkpt lat="44.17233" lon="5.17657">
        <ele>1401.119</ele>
        <time>2020-09-03T13:11:23Z</time>
      </trkpt>
      <trkpt lat="44.17225" lon="5.17667">
        <ele>1398.626</ele>
        <time>2020-09-03T13:11:24Z</time>
      </trkpt>
      <trkpt lat="44.17213" lon="5.17683">
        <ele>1396.718</ele>
        <time>2020-09-03T13:11:26Z</time>
      </trkpt>
      <trkpt lat="44.17207" lon="5.17693">
        <ele>1395.308</ele>
        <time>2020-09-03T13:11:27Z</time>
      </trkpt>
      <trkpt lat="44.17201" lon="5.17703">
        <ele>1393.888</ele>
        <time>2020-09-03T13:11:28Z</time>
      </trkpt>
      <trkpt lat="44.17195" lon="5.17713">
        <ele>1393.005</ele>
        <time>2020-09-03T13:11:29Z</time>
      </trkpt>
      <trkpt lat="44.17189" lon="5.17723">
        <ele>1392.226</ele>
        <time>2020-09-03T13:11:30Z</time>
      </trkpt>
      <trkpt lat="44.17183" lon="5.17733">
        <ele>1391.238</ele>
        <time>2020-09-03T13:11:31Z</time>
      </trkpt>
      <trkpt lat="44.17176" lon="5.17743">
        <ele>1390.526</ele>
        <time>2020-09-03T13:11:32Z</time>
      </trkpt>
      <trkpt lat="44.17169" lon="5.17753">
        <ele>1389.282</ele>
        <time>2020-09-03T13:11:33Z</time>
      </trkpt>
      <trkpt lat="44.17162" lon="5.17765">
        <ele>1388.399</ele>
        <time>2020-09-03T13:11:34Z</time>
      </trkpt>
      <trkpt lat="44.17157" lon="5.17776">
        <ele>1388.048</ele>
        <time>2020-09-03T13:11:35Z</time>
      </trkpt>
      <trkpt lat="44.17151" lon="5.17788">
        <ele>1388.147</ele>
        <time>2020-09-03T13:11:36Z</time>
      </trkpt>
      <trkpt lat="44.17147" lon="5.17799">
        <ele>1388.398</ele>
        <time>2020-09-03T13:11:37Z</time>
      </trkpt>
      <trkpt lat="44.17142" lon="5.1781">
        <ele>1388.488</ele>
        <time>2020-09-03T13:11:38Z</time>
      </trkpt>
      <trkpt lat="44.17136" lon="5.17821">
        <ele>1388.374</ele>
        <time>2020-09-03T13:11:39Z</time>
      </trkpt>
      <trkpt lat="44.1713" lon="5.17833">
        <ele>1388.517</ele>
        <time>2020-09-03T13:11:40Z</time>
      </trkpt>
      <trkpt lat="44.17125" lon="5.17845">
        <ele>1389.708</ele>
        <time>2020-09-03T13:11:41Z</time>
      </trkpt>
      <trkpt lat="44.17125" lon="5.17845">
        <ele>1391.912</ele>
        <time>2020-09-03T13:11:41Z</time>
      </trkpt>
      <trkpt lat="44.17117" lon="5.17869">
        <ele>1394.472</ele>
        <time>2020-09-03T13:11:43Z</time>
      </trkpt>
      <trkpt lat="44.17113" lon="5.17879">
        <ele>1398.223</ele>
        <time>2020-09-03T13:11:44Z</time>
      </trkpt>
      <trkpt lat="44.17109" lon="5.17897">
        <ele>1402.23</ele>
        <time>2020-09-03T13:11:46Z</time>
      </trkpt>
      <trkpt lat="44.17107" lon="5.17905">
        <ele>1406.389</ele>
        <time>2020-09-03T13:11:47Z</time>
      </trkpt>
      <trkpt lat="44.17106" lon="5.17914">
        <ele>1410.643</ele>
        <time>2020-09-03T13:11:48Z</time>
      </trkpt>
      <trkpt lat="44.17106" lon="5.17914">
        <ele>1414.55</ele>
        <time>2020-09-03T13:11:48Z</time>
      </trkpt>
      <trkpt lat="44.17102" lon="5.1793">
        <ele>1418.88</ele>
        <time>2020-09-03T13:11:50Z</time>
      </trkpt>
      <trkpt lat="44.17101" lon="5.17937">
        <ele>1423.763</ele>
        <time>2020-09-03T13:11:51Z</time>
      </trkpt>
      <trkpt lat="44.171" lon="5.17944">
        <ele>1427.991</ele>
        <time>2020-09-03T13:11:52Z</time>
      </trkpt>
      <trkpt lat="44.171" lon="5.17953">
        <ele>1432.731</ele>
        <time>2020-09-03T13:11:53Z</time>
      </trkpt>
      <trkpt lat="44.171" lon="5.17953">
        <ele>1436.529</ele>
        <time>2020-09-03T13:11:53Z</time>
      </trkpt>
      <trkpt lat="44.17108" lon="5.17978">
        <ele>1439.588</ele>
        <time>2020-09-03T13:11:55Z</time>
      </trkpt>
      <trkpt lat="44.17116" lon="5.17988">
        <ele>1442.762</ele>
        <time>2020-09-03T13:11:56Z</time>
      </trkpt>
      <trkpt lat="44.17127" lon="5.17993">
        <ele>1446.351</ele>
        <time>2020-09-03T13:11:57Z</time>
      </trkpt>
      <trkpt lat="44.17139" lon="5.17993">
        <ele>1450.275</ele>
        <time>2020-09-03T13:11:58Z</time>
      </trkpt>
      <trkpt lat="44.17139" lon="5.17993">
        <ele>1453.324</ele>
        <time>2020-09-03T13:11:58Z</time>
      </trkpt>
      <trkpt lat="44.17155" lon="5.17976">
        <ele>1458.409</ele>
        <time>2020-09-03T13:12:00Z</time>
      </trkpt>
      <trkpt lat="44.17157" lon="5.17962">
        <ele>1462.833</ele>
        <time>2020-09-03T13:12:01Z</time>
      </trkpt>
      <trkpt lat="44.17155" lon="5.1795">
        <ele>1467.108</ele>
        <time>2020-09-03T13:12:02Z</time>
      </trkpt>
      <trkpt lat="44.1715" lon="5.17943">
        <ele>1471.445</ele>
        <time>2020-09-03T13:12:03Z</time>
      </trkpt>
      <trkpt lat="44.1715" lon="5.17943">
        <ele>1475.754</ele>
        <time>2020-09-03T13:12:03Z</time>
      </trkpt>
      <trkpt lat="44.17141" lon="5.17949">
        <ele>1479.716</ele>
        <time>2020-09-03T13:12:05Z</time>
      </trkpt>
      <trkpt lat="44.1714" lon="5.17959">
        <ele>1483.919</ele>
        <time>2020-09-03T13:12:06Z</time>
      </trkpt>
      <trkpt lat="44.17143" lon="5.17973">
        <ele>1488.745</ele>
        <time>2020-09-03T13:12:07Z</time>
      </trkpt>
      <trkpt lat="44.17147" lon="5.17986">
        <ele>1492.252</ele>
        <time>2020-09-03T13:12:08Z</time>
      </trkpt>
      <trkpt lat="44.17152" lon="5.18">
        <ele>1496.794</ele>
        <time>2020-09-03T13:12:09Z</time>
      </trkpt>
      <trkpt lat="44.17156" lon="5.18013">
        <ele>1500.896</ele>
        <time>2020-09-03T13:12:10Z</time>
      </trkpt>
      <trkpt lat="44.17157" lon="5.18024">
        <ele>1505.881</ele>
        <time>2020-09-03T13:12:11Z</time>
      </trkpt>
      <trkpt lat="44.17158" lon="5.18035">
        <ele>1510.352</ele>
        <time>2020-09-03T13:12:12Z</time>
      </trkpt>
      <trkpt lat="44.17158" lon="5.18046">
        <ele>1514.516</ele>
        <time>2020-09-03T13:12:13Z</time>
      </trkpt>
      <trkpt lat="44.17159" lon="5.18058">
        <ele>1519.439</ele>
        <time>2020-09-03T13:12:14Z</time>
      </trkpt>
      <trkpt lat="44.17164" lon="5.1807">
        <ele>1523.514</ele>
        <time>2020-09-03T13:12:15Z</time>
      </trkpt>
      <trkpt lat="44.17171" lon="5.1808">
        <ele>1528.334</ele>
        <time>2020-09-03T13:12:16Z</time>
      </trkpt>
      <trkpt lat="44.17179" lon="5.18085">
        <ele>1531.216</ele>
        <time>2020-09-03T13:12:17Z</time>
      </trkpt>
      <trkpt lat="44.17189" lon="5.18085">
        <ele>1533.532</ele>
        <time>2020-09-03T13:12:18Z</time>
      </trkpt>
      <trkpt lat="44.17197" lon="5.1808">
        <ele>1534.727</ele>
        <time>2020-09-03T13:12:19Z</time>
      </trkpt>
      <trkpt lat="44.17203" lon="5.18072">
        <ele>1535.583</ele>
        <time>2020-09-03T13:12:20Z</time>
      </trkpt>
      <trkpt lat="44.17208" lon="5.18062">
        <ele>1536.248</ele>
        <time>2020-09-03T13:12:21Z</time>
      </trkpt>
      <trkpt lat="44.17211" lon="5.18051">
        <ele>1537.005</ele>
        <time>2020-09-03T13:12:22Z</time>
      </trkpt>
      <trkpt lat="44.17213" lon="5.18041">
        <ele>1538.097</ele>
        <time>2020-09-03T13:12:23Z</time>
      </trkpt>
      <trkpt lat="44.17216" lon="5.18032">
        <ele>1539.1</ele>
        <time>2020-09-03T13:12:24Z</time>
      </trkpt>
      <trkpt lat="44.17219" lon="5.18023">
        <ele>1540.177</ele>
        <time>2020-09-03T13:12:25Z</time>
      </trkpt>
      <trkpt lat="44.17219" lon="5.18023">
        <ele>1540.784</ele>
        <time>2020-09-03T13:12:25Z</time>
      </trkpt>
      <trkpt lat="44.17219" lon="5.18023">
        <ele>1542.056</ele>
        <time>2020-09-03T13:12:25Z</time>
      </trkpt>
      <trkpt lat="44.17219" lon="5.18023">
        <ele>1543.225</ele>
        <time>2020-09-03T13:12:25Z</time>
      </trkpt>
      <trkpt lat="44.17242" lon="5.17989">
        <ele>1544.779</ele>
        <time>2020-09-03T13:12:29Z</time>
      </trkpt>
      <trkpt lat="44.17242" lon="5.17989">
        <ele>1546.477</ele>
        <time>2020-09-03T13:12:29Z</time>
      </trkpt>
      <trkpt lat="44.17264" lon="5.17968">
        <ele>1548.622</ele>
        <time>2020-09-03T13:12:32Z</time>
      </trkpt>
      <trkpt lat="44.17272" lon="5.17962">
        <ele>1550.707</ele>
        <time>2020-09-03T13:12:33Z</time>
      </trkpt>
      <trkpt lat="44.1728" lon="5.17955">
        <ele>1552.745</ele>
        <time>2020-09-03T13:12:34Z</time>
      </trkpt>
      <trkpt lat="44.17289" lon="5.17947">
        <ele>1555.009</ele>
        <time>2020-09-03T13:12:35Z</time>
      </trkpt>
      <trkpt lat="44.17294" lon="5.17936">
        <ele>1557.534</ele>
        <time>2020-09-03T13:12:36Z</time>
      </trkpt>
      <trkpt lat="44.17294" lon="5.17924">
        <ele>1559.71</ele>
        <time>2020-09-03T13:12:37Z</time>
      </trkpt>
      <trkpt lat="44.17294" lon="5.17924">
        <ele>1561.223</ele>
        <time>2020-09-03T13:12:37Z</time>
      </trkpt>
      <trkpt lat="44.17282" lon="5.17915">
        <ele>1562.538</ele>
        <time>2020-09-03T13:12:39Z</time>
      </trkpt>
      <trkpt lat="44.1727" lon="5.1793">
        <ele>1563.4</ele>
        <time>2020-09-03T13:12:41Z</time>
      </trkpt>
      <trkpt lat="44.17266" lon="5.17942">
        <ele>1564.273</ele>
        <time>2020-09-03T13:12:42Z</time>
      </trkpt>
      <trkpt lat="44.17266" lon="5.17955">
        <ele>1565.677</ele>
        <time>2020-09-03T13:12:43Z</time>
      </trkpt>
      <trkpt lat="44.17268" lon="5.17966">
        <ele>1567.684</ele>
        <time>2020-09-03T13:12:44Z</time>
      </trkpt>
      <trkpt lat="44.17273" lon="5.17977">
        <ele>1570.021</ele>
        <time>2020-09-03T13:12:45Z</time>
      </trkpt>
      <trkpt lat="44.1728" lon="5.17986">
        <ele>1572.288</ele>
        <time>2020-09-03T13:12:46Z</time>
      </trkpt>
      <trkpt lat="44.17289" lon="5.17992">
        <ele>1574.715</ele>
        <time>2020-09-03T13:12:47Z</time>
      </trkpt>
      <trkpt lat="44.173" lon="5.17993">
        <ele>1576.707</ele>
        <time>2020-09-03T13:12:48Z</time>
      </trkpt>
      <trkpt lat="44.1731" lon="5.17988">
        <ele>1578.24</ele>
        <time>2020-09-03T13:12:49Z</time>
      </trkpt>
      <trkpt lat="44.17317" lon="5.17979">
        <ele>1579.679</ele>
        <time>2020-09-03T13:12:50Z</time>
      </trkpt>
      <trkpt lat="44.17322" lon="5.17969">
        <ele>1581.598</ele>
        <time>2020-09-03T13:12:51Z</time>
      </trkpt>
      <trkpt lat="44.17327" lon="5.17961">
        <ele>1583.536</ele>
        <time>2020-09-03T13:12:52Z</time>
      </trkpt>
      <trkpt lat="44.17332" lon="5.17953">
        <ele>1585.387</ele>
        <time>2020-09-03T13:12:53Z</time>
      </trkpt>
      <trkpt lat="44.17339" lon="5.17946">
        <ele>1586.367</ele>
        <time>2020-09-03T13:12:54Z</time>
      </trkpt>
      <trkpt lat="44.17347" lon="5.17939">
        <ele>1587.839</ele>
        <time>2020-09-03T13:12:55Z</time>
      </trkpt>
      <trkpt lat="44.17354" lon="5.17932">
        <ele>1589.273</ele>
        <time>2020-09-03T13:12:56Z</time>
      </trkpt>
      <trkpt lat="44.17361" lon="5.17925">
        <ele>1590.931</ele>
        <time>2020-09-03T13:12:57Z</time>
      </trkpt>
      <trkpt lat="44.17368" lon="5.17918">
        <ele>1592.441</ele>
        <time>2020-09-03T13:12:58Z</time>
      </trkpt>
      <trkpt lat="44.17375" lon="5.17912">
        <ele>1593.91</ele>
        <time>2020-09-03T13:12:59Z</time>
      </trkpt>
      <trkpt lat="44.17383" lon="5.17907">
        <ele>1594.902</ele>
        <time>2020-09-03T13:13:00Z</time>
      </trkpt>
      <trkpt lat="44.17391" lon="5.17901">
        <ele>1595.628</ele>
        <time>2020-09-03T13:13:01Z</time>
      </trkpt>
      <trkpt lat="44.17398" lon="5.17893">
        <ele>1595.935</ele>
        <time>2020-09-03T13:13:02Z</time>
      </trkpt>
      <trkpt lat="44.17398" lon="5.17893">
        <ele>1595.805</ele>
        <time>2020-09-03T13:13:02Z</time>
      </trkpt>
      <trkpt lat="44.17405" lon="5.17873">
        <ele>1595.297</ele>
        <time>2020-09-03T13:13:04Z</time>
      </trkpt>
      <trkpt lat="44.174" lon="5.17851">
        <ele>1594.369</ele>
        <time>2020-09-03T13:13:06Z</time>
      </trkpt>
      <trkpt lat="44.17394" lon="5.17845">
        <ele>1593.876</ele>
        <time>2020-09-03T13:13:07Z</time>
      </trkpt>
      <trkpt lat="44.17387" lon="5.17843">
        <ele>1593.93</ele>
        <time>2020-09-03T13:13:08Z</time>
      </trkpt>
      <trkpt lat="44.17381" lon="5.17846">
        <ele>1594.396</ele>
        <time>2020-09-03T13:13:09Z</time>
      </trkpt>
      <trkpt lat="44.17375" lon="5.1785">
        <ele>1594.934</ele>
        <time>2020-09-03T13:13:10Z</time>
      </trkpt>
      <trkpt lat="44.1737" lon="5.17856">
        <ele>1595.362</ele>
        <time>2020-09-03T13:13:11Z</time>
      </trkpt>
      <trkpt lat="44.17364" lon="5.17861">
        <ele>1595.808</ele>
        <time>2020-09-03T13:13:12Z</time>
      </trkpt>
      <trkpt lat="44.17359" lon="5.17863">
        <ele>1596.4</ele>
        <time>2020-09-03T13:13:13Z</time>
      </trkpt>
      <trkpt lat="44.17353" lon="5.17864">
        <ele>1597.215</ele>
        <time>2020-09-03T13:13:14Z</time>
      </trkpt>
      <trkpt lat="44.17348" lon="5.17866">
        <ele>1598.249</ele>
        <time>2020-09-03T13:13:15Z</time>
      </trkpt>
      <trkpt lat="44.17344" lon="5.17868">
        <ele>1599.825</ele>
        <time>2020-09-03T13:13:16Z</time>
      </trkpt>
      <trkpt lat="44.17342" lon="5.17871">
        <ele>1601.259</ele>
        <time>2020-09-03T13:13:17Z</time>
      </trkpt>
      <trkpt lat="44.17339" lon="5.17874">
        <ele>1602.658</ele>
        <time>2020-09-03T13:13:18Z</time>
      </trkpt>
      <trkpt lat="44.17335" lon="5.17876">
        <ele>1603.534</ele>
        <time>2020-09-03T13:13:19Z</time>
      </trkpt>
      <trkpt lat="44.17331" lon="5.17879">
        <ele>1604.148</ele>
        <time>2020-09-03T13:13:20Z</time>
      </trkpt>
      <trkpt lat="44.17327" lon="5.17882">
        <ele>1604.656</ele>
        <time>2020-09-03T13:13:21Z</time>
      </trkpt>
      <trkpt lat="44.17322" lon="5.17886">
        <ele>1605.115</ele>
        <time>2020-09-03T13:13:22Z</time>
      </trkpt>
      <trkpt lat="44.17318" lon="5.17891">
        <ele>1605.748</ele>
        <time>2020-09-03T13:13:23Z</time>
      </trkpt>
      <trkpt lat="44.17313" lon="5.17897">
        <ele>1606.317</ele>
        <time>2020-09-03T13:13:24Z</time>
      </trkpt>
      <trkpt lat="44.17308" lon="5.17902">
        <ele>1606.741</ele>
        <time>2020-09-03T13:13:25Z</time>
      </trkpt>
      <trkpt lat="44.17304" lon="5.17906">
        <ele>1607.167</ele>
        <time>2020-09-03T13:13:26Z</time>
      </trkpt>
      <trkpt lat="44.17304" lon="5.17906">
        <ele>1607.666</ele>
        <time>2020-09-03T13:13:26Z</time>
      </trkpt>
      <trkpt lat="44.17304" lon="5.17906">
        <ele>1608.172</ele>
        <time>2020-09-03T13:13:26Z</time>
      </trkpt>
      <trkpt lat="44.17284" lon="5.17917">
        <ele>1608.579</ele>
        <time>2020-09-03T13:13:30Z</time>
      </trkpt>
      <trkpt lat="44.17279" lon="5.1792">
        <ele>1608.867</ele>
        <time>2020-09-03T13:13:31Z</time>
      </trkpt>
      <trkpt lat="44.17274" lon="5.17923">
        <ele>1609.004</ele>
        <time>2020-09-03T13:13:32Z</time>
      </trkpt>
      <trkpt lat="44.17268" lon="5.17927">
        <ele>1609.23</ele>
        <time>2020-09-03T13:13:33Z</time>
      </trkpt>
      <trkpt lat="44.17262" lon="5.17932">
        <ele>1609.646</ele>
        <time>2020-09-03T13:13:34Z</time>
      </trkpt>
      <trkpt lat="44.17257" lon="5.17937">
        <ele>1610.511</ele>
        <time>2020-09-03T13:13:35Z</time>
      </trkpt>
      <trkpt lat="44.17252" lon="5.17942">
        <ele>1611.531</ele>
        <time>2020-09-03T13:13:36Z</time>
      </trkpt>
      <trkpt lat="44.17247" lon="5.17946">
        <ele>1612.42</ele>
        <time>2020-09-03T13:13:37Z</time>
      </trkpt>
      <trkpt lat="44.17242" lon="5.1795">
        <ele>1613.22</ele>
        <time>2020-09-03T13:13:38Z</time>
      </trkpt>
      <trkpt lat="44.17237" lon="5.17955">
        <ele>1613.627</ele>
        <time>2020-09-03T13:13:39Z</time>
      </trkpt>
      <trkpt lat="44.17231" lon="5.1796">
        <ele>1613.936</ele>
        <time>2020-09-03T13:13:40Z</time>
      </trkpt>
      <trkpt lat="44.17225" lon="5.17965">
        <ele>1614.268</ele>
        <time>2020-09-03T13:13:41Z</time>
      </trkpt>
      <trkpt lat="44.17218" lon="5.1797">
        <ele>1614.837</ele>
        <time>2020-09-03T13:13:42Z</time>
      </trkpt>
      <trkpt lat="44.17212" lon="5.17975">
        <ele>1615.683</ele>
        <time>2020-09-03T13:13:43Z</time>
      </trkpt>
      <trkpt lat="44.17206" lon="5.1798">
        <ele>1616.873</ele>
        <time>2020-09-03T13:13:44Z</time>
      </trkpt>
      <trkpt lat="44.172" lon="5.17986">
        <ele>1618.109</ele>
        <time>2020-09-03T13:13:45Z</time>
      </trkpt>
      <trkpt lat="44.17194" lon="5.17994">
        <ele>1619.703</ele>
        <time>2020-09-03T13:13:46Z</time>
      </trkpt>
      <trkpt lat="44.17194" lon="5.17994">
        <ele>1621.017</ele>
        <time>2020-09-03T13:13:46Z</time>
      </trkpt>
      <trkpt lat="44.17194" lon="5.17994">
        <ele>1622.254</ele>
        <time>2020-09-03T13:13:46Z</time>
      </trkpt>
      <trkpt lat="44.17194" lon="5.17994">
        <ele>1623.232</ele>
        <time>2020-09-03T13:13:46Z</time>
      </trkpt>
      <trkpt lat="44.17194" lon="5.17994">
        <ele>1625.329</ele>
        <time>2020-09-03T13:13:46Z</time>
      </trkpt>
      <trkpt lat="44.17163" lon="5.18041">
        <ele>1628.085</ele>
        <time>2020-09-03T13:13:52Z</time>
      </trkpt>
      <trkpt lat="44.17159" lon="5.18045">
        <ele>1631.733</ele>
        <time>2020-09-03T13:13:53Z</time>
      </trkpt>
      <trkpt lat="44.17156" lon="5.1805">
        <ele>1635.282</ele>
        <time>2020-09-03T13:13:54Z</time>
      </trkpt>
      <trkpt lat="44.17152" lon="5.18056">
        <ele>1638.527</ele>
        <time>2020-09-03T13:13:55Z</time>
      </trkpt>
      <trkpt lat="44.17149" lon="5.18062">
        <ele>1640.893</ele>
        <time>2020-09-03T13:13:56Z</time>
      </trkpt>
      <trkpt lat="44.17146" lon="5.18068">
        <ele>1642.685</ele>
        <time>2020-09-03T13:13:57Z</time>
      </trkpt>
      <trkpt lat="44.17143" lon="5.18075">
        <ele>1643.553</ele>
        <time>2020-09-03T13:13:58Z</time>
      </trkpt>
      <trkpt lat="44.17143" lon="5.18088">
        <ele>1643.712</ele>
        <time>2020-09-03T13:13:59Z</time>
      </trkpt>
      <trkpt lat="44.17143" lon="5.18088">
        <ele>1643.851</ele>
        <time>2020-09-03T13:13:59Z</time>
      </trkpt>
      <trkpt lat="44.17158" lon="5.18124">
        <ele>1644.377</ele>
        <time>2020-09-03T13:14:02Z</time>
      </trkpt>
      <trkpt lat="44.17166" lon="5.18132">
        <ele>1645.295</ele>
        <time>2020-09-03T13:14:03Z</time>
      </trkpt>
      <trkpt lat="44.17166" lon="5.18132">
        <ele>1646.354</ele>
        <time>2020-09-03T13:14:03Z</time>
      </trkpt>
      <trkpt lat="44.17185" lon="5.1814">
        <ele>1647.484</ele>
        <time>2020-09-03T13:14:05Z</time>
      </trkpt>
      <trkpt lat="44.17195" lon="5.1814">
        <ele>1648.804</ele>
        <time>2020-09-03T13:14:06Z</time>
      </trkpt>
      <trkpt lat="44.17205" lon="5.18139">
        <ele>1650.77</ele>
        <time>2020-09-03T13:14:07Z</time>
      </trkpt>
      <trkpt lat="44.17213" lon="5.18135">
        <ele>1652.487</ele>
        <time>2020-09-03T13:14:08Z</time>
      </trkpt>
      <trkpt lat="44.17213" lon="5.18135">
        <ele>1653.634</ele>
        <time>2020-09-03T13:14:08Z</time>
      </trkpt>
      <trkpt lat="44.17224" lon="5.1812">
        <ele>1654.244</ele>
        <time>2020-09-03T13:14:10Z</time>
      </trkpt>
      <trkpt lat="44.17228" lon="5.1811">
        <ele>1654.757</ele>
        <time>2020-09-03T13:14:11Z</time>
      </trkpt>
      <trkpt lat="44.17231" lon="5.18099">
        <ele>1655.03</ele>
        <time>2020-09-03T13:14:12Z</time>
      </trkpt>
      <trkpt lat="44.17234" lon="5.18087">
        <ele>1655.448</ele>
        <time>2020-09-03T13:14:13Z</time>
      </trkpt>
      <trkpt lat="44.17237" lon="5.18075">
        <ele>1655.987</ele>
        <time>2020-09-03T13:14:14Z</time>
      </trkpt>
      <trkpt lat="44.17239" lon="5.18062">
        <ele>1656.418</ele>
        <time>2020-09-03T13:14:15Z</time>
      </trkpt>
      <trkpt lat="44.17241" lon="5.1805">
        <ele>1656.864</ele>
        <time>2020-09-03T13:14:16Z</time>
      </trkpt>
      <trkpt lat="44.17242" lon="5.18037">
        <ele>1657.199</ele>
        <time>2020-09-03T13:14:17Z</time>
      </trkpt>
      <trkpt lat="44.17242" lon="5.18037">
        <ele>1657.331</ele>
        <time>2020-09-03T13:14:17Z</time>
      </trkpt>
      <trkpt lat="44.17236" lon="5.18017">
        <ele>1657.633</ele>
        <time>2020-09-03T13:14:19Z</time>
      </trkpt>
      <trkpt lat="44.17231" lon="5.18011">
        <ele>1658.409</ele>
        <time>2020-09-03T13:14:20Z</time>
      </trkpt>
      <trkpt lat="44.1722" lon="5.18005">
        <ele>1659.232</ele>
        <time>2020-09-03T13:14:22Z</time>
      </trkpt>
      <trkpt lat="44.17214" lon="5.18002">
        <ele>1660.012</ele>
        <time>2020-09-03T13:14:23Z</time>
      </trkpt>
      <trkpt lat="44.17207" lon="5.18001">
        <ele>1660.319</ele>
        <time>2020-09-03T13:14:24Z</time>
      </trkpt>
      <trkpt lat="44.172" lon="5.18003">
        <ele>1660.498</ele>
        <time>2020-09-03T13:14:25Z</time>
      </trkpt>
      <trkpt lat="44.17193" lon="5.18006">
        <ele>1660.636</ele>
        <time>2020-09-03T13:14:26Z</time>
      </trkpt>
      <trkpt lat="44.17188" lon="5.18015">
        <ele>1660.797</ele>
        <time>2020-09-03T13:14:27Z</time>
      </trkpt>
      <trkpt lat="44.17183" lon="5.18026">
        <ele>1661.02</ele>
        <time>2020-09-03T13:14:28Z</time>
      </trkpt>
      <trkpt lat="44.17179" lon="5.18039">
        <ele>1661.667</ele>
        <time>2020-09-03T13:14:29Z</time>
      </trkpt>
      <trkpt lat="44.17176" lon="5.1805">
        <ele>1662.821</ele>
        <time>2020-09-03T13:14:30Z</time>
      </trkpt>
      <trkpt lat="44.17173" lon="5.1806">
        <ele>1664.313</ele>
        <time>2020-09-03T13:14:31Z</time>
      </trkpt>
      <trkpt lat="44.17169" lon="5.18069">
        <ele>1665.948</ele>
        <time>2020-09-03T13:14:32Z</time>
      </trkpt>
      <trkpt lat="44.17165" lon="5.18078">
        <ele>1667.515</ele>
        <time>2020-09-03T13:14:33Z</time>
      </trkpt>
      <trkpt lat="44.17159" lon="5.18085">
        <ele>1669.577</ele>
        <time>2020-09-03T13:14:34Z</time>
      </trkpt>
      <trkpt lat="44.17152" lon="5.18092">
        <ele>1671.734</ele>
        <time>2020-09-03T13:14:35Z</time>
      </trkpt>
      <trkpt lat="44.17146" lon="5.18097">
        <ele>1674.059</ele>
        <time>2020-09-03T13:14:36Z</time>
      </trkpt>
      <trkpt lat="44.17139" lon="5.18102">
        <ele>1676.478</ele>
        <time>2020-09-03T13:14:37Z</time>
      </trkpt>
      <trkpt lat="44.17133" lon="5.18107">
        <ele>1679.14</ele>
        <time>2020-09-03T13:14:38Z</time>
      </trkpt>
      <trkpt lat="44.17126" lon="5.18114">
        <ele>1682.79</ele>
        <time>2020-09-03T13:14:39Z</time>
      </trkpt>
      <trkpt lat="44.17126" lon="5.18114">
        <ele>1686.436</ele>
        <time>2020-09-03T13:14:39Z</time>
      </trkpt>
      <trkpt lat="44.17126" lon="5.18114">
        <ele>1690.332</ele>
        <time>2020-09-03T13:14:39Z</time>
      </trkpt>
      <trkpt lat="44.17126" lon="5.18114">
        <ele>1694.137</ele>
        <time>2020-09-03T13:14:39Z</time>
      </trkpt>
      <trkpt lat="44.17126" lon="5.18114">
        <ele>1697.623</ele>
        <time>2020-09-03T13:14:39Z</time>
      </trkpt>
      <trkpt lat="44.17089" lon="5.18144">
        <ele>1701.146</ele>
        <time>2020-09-03T13:14:45Z</time>
      </trkpt>
      <trkpt lat="44.17084" lon="5.18137">
        <ele>1703.27</ele>
        <time>2020-09-03T13:14:46Z</time>
      </trkpt>
      <trkpt lat="44.17084" lon="5.18128">
        <ele>1706.173</ele>
        <time>2020-09-03T13:14:47Z</time>
      </trkpt>
      <trkpt lat="44.17088" lon="5.18118">
        <ele>1709.39</ele>
        <time>2020-09-03T13:14:48Z</time>
      </trkpt>
      <trkpt lat="44.17094" lon="5.18109">
        <ele>1712.891</ele>
        <time>2020-09-03T13:14:49Z</time>
      </trkpt>
      <trkpt lat="44.17101" lon="5.18104">
        <ele>1716.039</ele>
        <time>2020-09-03T13:14:50Z</time>
      </trkpt>
      <trkpt lat="44.1711" lon="5.18102">
        <ele>1718.385</ele>
        <time>2020-09-03T13:14:51Z</time>
      </trkpt>
      <trkpt lat="44.1712" lon="5.18102">
        <ele>1719.887</ele>
        <time>2020-09-03T13:14:52Z</time>
      </trkpt>
      <trkpt lat="44.1713" lon="5.18108">
        <ele>1721.146</ele>
        <time>2020-09-03T13:14:53Z</time>
      </trkpt>
      <trkpt lat="44.1714" lon="5.18114">
        <ele>1721.918</ele>
        <time>2020-09-03T13:14:54Z</time>
      </trkpt>
      <trkpt lat="44.17149" lon="5.18124">
        <ele>1722.899</ele>
        <time>2020-09-03T13:14:55Z</time>
      </trkpt>
      <trkpt lat="44.17157" lon="5.18137">
        <ele>1723.97</ele>
        <time>2020-09-03T13:14:56Z</time>
      </trkpt>
      <trkpt lat="44.17163" lon="5.18151">
        <ele>1725.526</ele>
        <time>2020-09-03T13:14:57Z</time>
      </trkpt>
      <trkpt lat="44.17167" lon="5.18166">
        <ele>1727.86</ele>
        <time>2020-09-03T13:14:58Z</time>
      </trkpt>
      <trkpt lat="44.17169" lon="5.18182">
        <ele>1730.351</ele>
        <time>2020-09-03T13:14:59Z</time>
      </trkpt>
      <trkpt lat="44.17167" lon="5.18196">
        <ele>1733.633</ele>
        <time>2020-09-03T13:15:00Z</time>
      </trkpt>
      <trkpt lat="44.17164" lon="5.18208">
        <ele>1736.466</ele>
        <time>2020-09-03T13:15:01Z</time>
      </trkpt>
      <trkpt lat="44.17158" lon="5.18214">
        <ele>1738.742</ele>
        <time>2020-09-03T13:15:02Z</time>
      </trkpt>
      <trkpt lat="44.17152" lon="5.18217">
        <ele>1740.333</ele>
        <time>2020-09-03T13:15:03Z</time>
      </trkpt>
      <trkpt lat="44.17145" lon="5.18217">
        <ele>1741.305</ele>
        <time>2020-09-03T13:15:04Z</time>
      </trkpt>
      <trkpt lat="44.17138" lon="5.18214">
        <ele>1742.177</ele>
        <time>2020-09-03T13:15:05Z</time>
      </trkpt>
      <trkpt lat="44.17122" lon="5.18209">
        <ele>1743.02</ele>
        <time>2020-09-03T13:15:07Z</time>
      </trkpt>
      <trkpt lat="44.17113" lon="5.1821">
        <ele>1744.315</ele>
        <time>2020-09-03T13:15:08Z</time>
      </trkpt>
      <trkpt lat="44.17104" lon="5.18213">
        <ele>1746.115</ele>
        <time>2020-09-03T13:15:09Z</time>
      </trkpt>
      <trkpt lat="44.17095" lon="5.18218">
        <ele>1748.209</ele>
        <time>2020-09-03T13:15:10Z</time>
      </trkpt>
      <trkpt lat="44.17087" lon="5.18225">
        <ele>1750.94</ele>
        <time>2020-09-03T13:15:11Z</time>
      </trkpt>
      <trkpt lat="44.17079" lon="5.18232">
        <ele>1754.363</ele>
        <time>2020-09-03T13:15:12Z</time>
      </trkpt>
      <trkpt lat="44.17071" lon="5.18239">
        <ele>1757.633</ele>
        <time>2020-09-03T13:15:13Z</time>
      </trkpt>
      <trkpt lat="44.17071" lon="5.18239">
        <ele>1759.282</ele>
        <time>2020-09-03T13:15:13Z</time>
      </trkpt>
      <trkpt lat="44.17071" lon="5.18239">
        <ele>1762.804</ele>
        <time>2020-09-03T13:15:13Z</time>
      </trkpt>
      <trkpt lat="44.17051" lon="5.1825">
        <ele>1765.229</ele>
        <time>2020-09-03T13:15:16Z</time>
      </trkpt>
      <trkpt lat="44.17039" lon="5.18244">
        <ele>1767.262</ele>
        <time>2020-09-03T13:15:18Z</time>
      </trkpt>
      <trkpt lat="44.17039" lon="5.18244">
        <ele>1768.88</ele>
        <time>2020-09-03T13:15:18Z</time>
      </trkpt>
      <trkpt lat="44.17038" lon="5.18224">
        <ele>1770.606</ele>
        <time>2020-09-03T13:15:20Z</time>
      </trkpt>
      <trkpt lat="44.17044" lon="5.18217">
        <ele>1772.365</ele>
        <time>2020-09-03T13:15:21Z</time>
      </trkpt>
      <trkpt lat="44.17054" lon="5.18215">
        <ele>1773.914</ele>
        <time>2020-09-03T13:15:22Z</time>
      </trkpt>
      <trkpt lat="44.17064" lon="5.18217">
        <ele>1775.444</ele>
        <time>2020-09-03T13:15:23Z</time>
      </trkpt>
      <trkpt lat="44.17075" lon="5.18223">
        <ele>1776.839</ele>
        <time>2020-09-03T13:15:24Z</time>
      </trkpt>
      <trkpt lat="44.17084" lon="5.18231">
        <ele>1778.619</ele>
        <time>2020-09-03T13:15:25Z</time>
      </trkpt>
      <trkpt lat="44.17092" lon="5.18241">
        <ele>1780.447</ele>
        <time>2020-09-03T13:15:26Z</time>
      </trkpt>
      <trkpt lat="44.17099" lon="5.18252">
        <ele>1781.73</ele>
        <time>2020-09-03T13:15:27Z</time>
      </trkpt>
      <trkpt lat="44.17102" lon="5.18267">
        <ele>1782.517</ele>
        <time>2020-09-03T13:15:28Z</time>
      </trkpt>
      <trkpt lat="44.17104" lon="5.18282">
        <ele>1783.146</ele>
        <time>2020-09-03T13:15:29Z</time>
      </trkpt>
      <trkpt lat="44.17104" lon="5.18298">
        <ele>1783.732</ele>
        <time>2020-09-03T13:15:30Z</time>
      </trkpt>
      <trkpt lat="44.17102" lon="5.18313">
        <ele>1784.443</ele>
        <time>2020-09-03T13:15:31Z</time>
      </trkpt>
      <trkpt lat="44.17095" lon="5.18325">
        <ele>1785.223</ele>
        <time>2020-09-03T13:15:32Z</time>
      </trkpt>
      <trkpt lat="44.17092" lon="5.18337">
        <ele>1786.254</ele>
        <time>2020-09-03T13:15:33Z</time>
      </trkpt>
      <trkpt lat="44.17088" lon="5.18347">
        <ele>1787.198</ele>
        <time>2020-09-03T13:15:34Z</time>
      </trkpt>
      <trkpt lat="44.17083" lon="5.18356">
        <ele>1787.811</ele>
        <time>2020-09-03T13:15:35Z</time>
      </trkpt>
      <trkpt lat="44.17071" lon="5.18374">
        <ele>1788.249</ele>
        <time>2020-09-03T13:15:37Z</time>
      </trkpt>
      <trkpt lat="44.17064" lon="5.18382">
        <ele>1788.799</ele>
        <time>2020-09-03T13:15:38Z</time>
      </trkpt>
      <trkpt lat="44.17056" lon="5.18391">
        <ele>1790.144</ele>
        <time>2020-09-03T13:15:39Z</time>
      </trkpt>
      <trkpt lat="44.1705" lon="5.18399">
        <ele>1792.509</ele>
        <time>2020-09-03T13:15:40Z</time>
      </trkpt>
      <trkpt lat="44.17045" lon="5.18407">
        <ele>1795.736</ele>
        <time>2020-09-03T13:15:41Z</time>
      </trkpt>
      <trkpt lat="44.17045" lon="5.18407">
        <ele>1797.877</ele>
        <time>2020-09-03T13:15:41Z</time>
      </trkpt>
      <trkpt lat="44.17037" lon="5.18421">
        <ele>1800.537</ele>
        <time>2020-09-03T13:15:43Z</time>
      </trkpt>
      <trkpt lat="44.17034" lon="5.1843">
        <ele>1801.989</ele>
        <time>2020-09-03T13:15:44Z</time>
      </trkpt>
      <trkpt lat="44.1703" lon="5.1844">
        <ele>1802.591</ele>
        <time>2020-09-03T13:15:45Z</time>
      </trkpt>
      <trkpt lat="44.17023" lon="5.18449">
        <ele>1802.913</ele>
        <time>2020-09-03T13:15:46Z</time>
      </trkpt>
      <trkpt lat="44.17016" lon="5.18454">
        <ele>1803.251</ele>
        <time>2020-09-03T13:15:47Z</time>
      </trkpt>
      <trkpt lat="44.17008" lon="5.18455">
        <ele>1803.757</ele>
        <time>2020-09-03T13:15:48Z</time>
      </trkpt>
      <trkpt lat="44.17002" lon="5.18451">
        <ele>1804.533</ele>
        <time>2020-09-03T13:15:49Z</time>
      </trkpt>
      <trkpt lat="44.16996" lon="5.18446">
        <ele>1805.812</ele>
        <time>2020-09-03T13:15:50Z</time>
      </trkpt>
      <trkpt lat="44.16991" lon="5.18441">
        <ele>1807.254</ele>
        <time>2020-09-03T13:15:51Z</time>
      </trkpt>
      <trkpt lat="44.16986" lon="5.18436">
        <ele>1808.514</ele>
        <time>2020-09-03T13:15:52Z</time>
      </trkpt>
      <trkpt lat="44.16986" lon="5.18436">
        <ele>1809.214</ele>
        <time>2020-09-03T13:15:52Z</time>
      </trkpt>
      <trkpt lat="44.16975" lon="5.18426">
        <ele>1809.649</ele>
        <time>2020-09-03T13:15:54Z</time>
      </trkpt>
      <trkpt lat="44.16975" lon="5.18426">
        <ele>1809.87</ele>
        <time>2020-09-03T13:15:54Z</time>
      </trkpt>
      <trkpt lat="44.16964" lon="5.184">
        <ele>1810.274</ele>
        <time>2020-09-03T13:15:57Z</time>
      </trkpt>
      <trkpt lat="44.16965" lon="5.18387">
        <ele>1810.956</ele>
        <time>2020-09-03T13:15:58Z</time>
      </trkpt>
      <trkpt lat="44.16968" lon="5.18376">
        <ele>1811.633</ele>
        <time>2020-09-03T13:15:59Z</time>
      </trkpt>
      <trkpt lat="44.16971" lon="5.18364">
        <ele>1812.753</ele>
        <time>2020-09-03T13:16:00Z</time>
      </trkpt>
      <trkpt lat="44.16974" lon="5.18353">
        <ele>1814.192</ele>
        <time>2020-09-03T13:16:01Z</time>
      </trkpt>
      <trkpt lat="44.16973" lon="5.18342">
        <ele>1816.169</ele>
        <time>2020-09-03T13:16:02Z</time>
      </trkpt>
      <trkpt lat="44.16972" lon="5.18332">
        <ele>1818.516</ele>
        <time>2020-09-03T13:16:03Z</time>
      </trkpt>
      <trkpt lat="44.16969" lon="5.18324">
        <ele>1820.989</ele>
        <time>2020-09-03T13:16:04Z</time>
      </trkpt>
      <trkpt lat="44.16967" lon="5.18317">
        <ele>1822.694</ele>
        <time>2020-09-03T13:16:05Z</time>
      </trkpt>
      <trkpt lat="44.16965" lon="5.18309">
        <ele>1824.159</ele>
        <time>2020-09-03T13:16:06Z</time>
      </trkpt>
      <trkpt lat="44.16965" lon="5.183">
        <ele>1824.961</ele>
        <time>2020-09-03T13:16:07Z</time>
      </trkpt>
      <trkpt lat="44.16965" lon="5.183">
        <ele>1825.762</ele>
        <time>2020-09-03T13:16:07Z</time>
      </trkpt>
      <trkpt lat="44.16972" lon="5.18283">
        <ele>1826.457</ele>
        <time>2020-09-03T13:16:09Z</time>
      </trkpt>
      <trkpt lat="44.16988" lon="5.18275">
        <ele>1826.69</ele>
        <time>2020-09-03T13:16:11Z</time>
      </trkpt>
      <trkpt lat="44.16998" lon="5.18276">
        <ele>1826.897</ele>
        <time>2020-09-03T13:16:12Z</time>
      </trkpt>
      <trkpt lat="44.17008" lon="5.18282">
        <ele>1827.011</ele>
        <time>2020-09-03T13:16:13Z</time>
      </trkpt>
      <trkpt lat="44.17008" lon="5.18282">
        <ele>1827.244</ele>
        <time>2020-09-03T13:16:13Z</time>
      </trkpt>
      <trkpt lat="44.17024" lon="5.18303">
        <ele>1827.944</ele>
        <time>2020-09-03T13:16:15Z</time>
      </trkpt>
      <trkpt lat="44.17027" lon="5.18318">
        <ele>1828.917</ele>
        <time>2020-09-03T13:16:16Z</time>
      </trkpt>
      <trkpt lat="44.17029" lon="5.18333">
        <ele>1829.914</ele>
        <time>2020-09-03T13:16:17Z</time>
      </trkpt>
      <trkpt lat="44.17029" lon="5.18348">
        <ele>1830.821</ele>
        <time>2020-09-03T13:16:18Z</time>
      </trkpt>
      <trkpt lat="44.17029" lon="5.18348">
        <ele>1831.444</ele>
        <time>2020-09-03T13:16:18Z</time>
      </trkpt>
      <trkpt lat="44.17023" lon="5.18374">
        <ele>1831.835</ele>
        <time>2020-09-03T13:16:20Z</time>
      </trkpt>
      <trkpt lat="44.17017" lon="5.18385">
        <ele>1831.819</ele>
        <time>2020-09-03T13:16:21Z</time>
      </trkpt>
      <trkpt lat="44.17009" lon="5.18393">
        <ele>1831.721</ele>
        <time>2020-09-03T13:16:22Z</time>
      </trkpt>
      <trkpt lat="44.17" lon="5.18396">
        <ele>1831.723</ele>
        <time>2020-09-03T13:16:23Z</time>
      </trkpt>
      <trkpt lat="44.16991" lon="5.18396">
        <ele>1831.98</ele>
        <time>2020-09-03T13:16:24Z</time>
      </trkpt>
      <trkpt lat="44.16984" lon="5.18393">
        <ele>1832.1</ele>
        <time>2020-09-03T13:16:25Z</time>
      </trkpt>
      <trkpt lat="44.16978" lon="5.18385">
        <ele>1831.823</ele>
        <time>2020-09-03T13:16:26Z</time>
      </trkpt>
      <trkpt lat="44.16974" lon="5.18375">
        <ele>1831.544</ele>
        <time>2020-09-03T13:16:27Z</time>
      </trkpt>
      <trkpt lat="44.16971" lon="5.18365">
        <ele>1831.705</ele>
        <time>2020-09-03T13:16:28Z</time>
      </trkpt>
      <trkpt lat="44.16969" lon="5.18354">
        <ele>1832.485</ele>
        <time>2020-09-03T13:16:29Z</time>
      </trkpt>
      <trkpt lat="44.16965" lon="5.18336">
        <ele>1833.568</ele>
        <time>2020-09-03T13:16:31Z</time>
      </trkpt>
      <trkpt lat="44.16962" lon="5.18328">
        <ele>1834.549</ele>
        <time>2020-09-03T13:16:32Z</time>
      </trkpt>
      <trkpt lat="44.16957" lon="5.18321">
        <ele>1835.016</ele>
        <time>2020-09-03T13:16:33Z</time>
      </trkpt>
      <trkpt lat="44.16952" lon="5.18313">
        <ele>1835.331</ele>
        <time>2020-09-03T13:16:34Z</time>
      </trkpt>
      <trkpt lat="44.16946" lon="5.18305">
        <ele>1835.649</ele>
        <time>2020-09-03T13:16:35Z</time>
      </trkpt>
      <trkpt lat="44.1694" lon="5.18297">
        <ele>1836.135</ele>
        <time>2020-09-03T13:16:36Z</time>
      </trkpt>
      <trkpt lat="44.16934" lon="5.18289">
        <ele>1836.959</ele>
        <time>2020-09-03T13:16:37Z</time>
      </trkpt>
      <trkpt lat="44.16928" lon="5.1828">
        <ele>1837.601</ele>
        <time>2020-09-03T13:16:38Z</time>
      </trkpt>
      <trkpt lat="44.16924" lon="5.1827">
        <ele>1839.258</ele>
        <time>2020-09-03T13:16:39Z</time>
      </trkpt>
      <trkpt lat="44.16921" lon="5.18259">
        <ele>1841.078</ele>
        <time>2020-09-03T13:16:40Z</time>
      </trkpt>
      <trkpt lat="44.16919" lon="5.18248">
        <ele>1842.862</ele>
        <time>2020-09-03T13:16:41Z</time>
      </trkpt>
      <trkpt lat="44.16917" lon="5.18237">
        <ele>1845.04</ele>
        <time>2020-09-03T13:16:42Z</time>
      </trkpt>
      <trkpt lat="44.16914" lon="5.18225">
        <ele>1847.064</ele>
        <time>2020-09-03T13:16:43Z</time>
      </trkpt>
      <trkpt lat="44.16911" lon="5.18214">
        <ele>1848.957</ele>
        <time>2020-09-03T13:16:44Z</time>
      </trkpt>
      <trkpt lat="44.16908" lon="5.18203">
        <ele>1851.056</ele>
        <time>2020-09-03T13:16:45Z</time>
      </trkpt>
      <trkpt lat="44.16904" lon="5.18193">
        <ele>1853.279</ele>
        <time>2020-09-03T13:16:46Z</time>
      </trkpt>
      <trkpt lat="44.16899" lon="5.18184">
        <ele>1855.37</ele>
        <time>2020-09-03T13:16:47Z</time>
      </trkpt>
      <trkpt lat="44.16893" lon="5.18176">
        <ele>1858.383</ele>
        <time>2020-09-03T13:16:48Z</time>
      </trkpt>
      <trkpt lat="44.16886" lon="5.1817">
        <ele>1861.277</ele>
        <time>2020-09-03T13:16:49Z</time>
      </trkpt>
      <trkpt lat="44.16878" lon="5.18165">
        <ele>1863.745</ele>
        <time>2020-09-03T13:16:50Z</time>
      </trkpt>
      <trkpt lat="44.16862" lon="5.18171">
        <ele>1866.347</ele>
        <time>2020-09-03T13:16:52Z</time>
      </trkpt>
      <trkpt lat="44.16854" lon="5.18182">
        <ele>1868.39</ele>
        <time>2020-09-03T13:16:53Z</time>
      </trkpt>
      <trkpt lat="44.16854" lon="5.18182">
        <ele>1870.231</ele>
        <time>2020-09-03T13:16:53Z</time>
      </trkpt>
      <trkpt lat="44.16849" lon="5.1821">
        <ele>1871.904</ele>
        <time>2020-09-03T13:16:55Z</time>
      </trkpt>
      <trkpt lat="44.16853" lon="5.18221">
        <ele>1873.427</ele>
        <time>2020-09-03T13:16:56Z</time>
      </trkpt>
      <trkpt lat="44.1686" lon="5.18227">
        <ele>1874.836</ele>
        <time>2020-09-03T13:16:57Z</time>
      </trkpt>
      <trkpt lat="44.16868" lon="5.18229">
        <ele>1875.926</ele>
        <time>2020-09-03T13:16:58Z</time>
      </trkpt>
      <trkpt lat="44.16875" lon="5.18228">
        <ele>1877.413</ele>
        <time>2020-09-03T13:16:59Z</time>
      </trkpt>
      <trkpt lat="44.16881" lon="5.18224">
        <ele>1878.452</ele>
        <time>2020-09-03T13:17:00Z</time>
      </trkpt>
      <trkpt lat="44.16886" lon="5.18217">
        <ele>1879.503</ele>
        <time>2020-09-03T13:17:01Z</time>
      </trkpt>
      <trkpt lat="44.16889" lon="5.18209">
        <ele>1880.461</ele>
        <time>2020-09-03T13:17:02Z</time>
      </trkpt>
      <trkpt lat="44.1689" lon="5.18199">
        <ele>1881.593</ele>
        <time>2020-09-03T13:17:03Z</time>
      </trkpt>
      <trkpt lat="44.16891" lon="5.1819">
        <ele>1883.035</ele>
        <time>2020-09-03T13:17:04Z</time>
      </trkpt>
      <trkpt lat="44.16891" lon="5.1818">
        <ele>1884.745</ele>
        <time>2020-09-03T13:17:05Z</time>
      </trkpt>
      <trkpt lat="44.16891" lon="5.1818">
        <ele>1885.998</ele>
        <time>2020-09-03T13:17:05Z</time>
      </trkpt>
      <trkpt lat="44.16893" lon="5.18162">
        <ele>1888.062</ele>
        <time>2020-09-03T13:17:07Z</time>
      </trkpt>
      <trkpt lat="44.16893" lon="5.18153">
        <ele>1889.816</ele>
        <time>2020-09-03T13:17:08Z</time>
      </trkpt>
      <trkpt lat="44.16893" lon="5.18144">
        <ele>1891.405</ele>
        <time>2020-09-03T13:17:09Z</time>
      </trkpt>
      <trkpt lat="44.16892" lon="5.18134">
        <ele>1892.408</ele>
        <time>2020-09-03T13:17:10Z</time>
      </trkpt>
      <trkpt lat="44.1689" lon="5.18125">
        <ele>1893.66</ele>
        <time>2020-09-03T13:17:11Z</time>
      </trkpt>
      <trkpt lat="44.16887" lon="5.18116">
        <ele>1895.016</ele>
        <time>2020-09-03T13:17:12Z</time>
      </trkpt>
      <trkpt lat="44.16884" lon="5.18107">
        <ele>1896.73</ele>
        <time>2020-09-03T13:17:13Z</time>
      </trkpt>
      <trkpt lat="44.16882" lon="5.181">
        <ele>1899.108</ele>
        <time>2020-09-03T13:17:14Z</time>
      </trkpt>
      <trkpt lat="44.1688" lon="5.18093">
        <ele>1901.706</ele>
        <time>2020-09-03T13:17:15Z</time>
      </trkpt>
      <trkpt lat="44.16878" lon="5.18079">
        <ele>1904.308</ele>
        <time>2020-09-03T13:17:17Z</time>
      </trkpt>
      <trkpt lat="44.16877" lon="5.18072">
        <ele>1906.083</ele>
        <time>2020-09-03T13:17:18Z</time>
      </trkpt>
      <trkpt lat="44.16877" lon="5.18072">
        <ele>1907.79</ele>
        <time>2020-09-03T13:17:18Z</time>
      </trkpt>
      <trkpt lat="44.1687" lon="5.1806">
        <ele>1909.547</ele>
        <time>2020-09-03T13:17:20Z</time>
      </trkpt>
      <trkpt lat="44.16864" lon="5.18058">
        <ele>1911.138</ele>
        <time>2020-09-03T13:17:21Z</time>
      </trkpt>
      <trkpt lat="44.16856" lon="5.18059">
        <ele>1912.609</ele>
        <time>2020-09-03T13:17:22Z</time>
      </trkpt>
      <trkpt lat="44.16848" lon="5.18065">
        <ele>1914.12</ele>
        <time>2020-09-03T13:17:23Z</time>
      </trkpt>
      <trkpt lat="44.16841" lon="5.18075">
        <ele>1916.31</ele>
        <time>2020-09-03T13:17:24Z</time>
      </trkpt>
      <trkpt lat="44.16836" lon="5.18089">
        <ele>1918.852</ele>
        <time>2020-09-03T13:17:25Z</time>
      </trkpt>
      <trkpt lat="44.16834" lon="5.18106">
        <ele>1920.397</ele>
        <time>2020-09-03T13:17:26Z</time>
      </trkpt>
      <trkpt lat="44.16837" lon="5.18121">
        <ele>1921.722</ele>
        <time>2020-09-03T13:17:27Z</time>
      </trkpt>
      <trkpt lat="44.16837" lon="5.18121">
        <ele>1923.106</ele>
        <time>2020-09-03T13:17:27Z</time>
      </trkpt>
      <trkpt lat="44.16853" lon="5.1814">
        <ele>1924.552</ele>
        <time>2020-09-03T13:17:29Z</time>
      </trkpt>
      <trkpt lat="44.16853" lon="5.1814">
        <ele>1925.888</ele>
        <time>2020-09-03T13:17:29Z</time>
      </trkpt>
      <trkpt lat="44.16853" lon="5.1814">
        <ele>1927.386</ele>
        <time>2020-09-03T13:17:29Z</time>
      </trkpt>
      <trkpt lat="44.16853" lon="5.1814">
        <ele>1928.599</ele>
        <time>2020-09-03T13:17:29Z</time>
      </trkpt>
      <trkpt lat="44.16853" lon="5.1814">
        <ele>1929.201</ele>
        <time>2020-09-03T13:17:29Z</time>
      </trkpt>
      <trkpt lat="44.16878" lon="5.18116">
        <ele>1930.858</ele>
        <time>2020-09-03T13:17:34Z</time>
      </trkpt>
      <trkpt lat="44.16878" lon="5.18116">
        <ele>1932.487</ele>
        <time>2020-09-03T13:17:34Z</time>
      </trkpt>
      <trkpt lat="44.16879" lon="5.181">
        <ele>1934.021</ele>
        <time>2020-09-03T13:17:36Z</time>
      </trkpt>
      <trkpt lat="44.16879" lon="5.181">
        <ele>1935.624</ele>
        <time>2020-09-03T13:17:36Z</time>
      </trkpt>
      <trkpt lat="44.16877" lon="5.18085">
        <ele>1937.25</ele>
        <time>2020-09-03T13:17:38Z</time>
      </trkpt>
      <trkpt lat="44.1687" lon="5.18069">
        <ele>1938.965</ele>
        <time>2020-09-03T13:17:40Z</time>
      </trkpt>
      <trkpt lat="44.16863" lon="5.18063">
        <ele>1941.483</ele>
        <time>2020-09-03T13:17:41Z</time>
      </trkpt>
      <trkpt lat="44.16856" lon="5.18061">
        <ele>1944.5</ele>
        <time>2020-09-03T13:17:42Z</time>
      </trkpt>
      <trkpt lat="44.16847" lon="5.18066">
        <ele>1947.538</ele>
        <time>2020-09-03T13:17:43Z</time>
      </trkpt>
      <trkpt lat="44.16839" lon="5.18077">
        <ele>1950.726</ele>
        <time>2020-09-03T13:17:44Z</time>
      </trkpt>
      <trkpt lat="44.16831" lon="5.18091">
        <ele>1953.752</ele>
        <time>2020-09-03T13:17:45Z</time>
      </trkpt>
      <trkpt lat="44.16826" lon="5.18108">
        <ele>1956.729</ele>
        <time>2020-09-03T13:17:46Z</time>
      </trkpt>
      <trkpt lat="44.16824" lon="5.18126">
        <ele>1958.887</ele>
        <time>2020-09-03T13:17:47Z</time>
      </trkpt>
      <trkpt lat="44.16827" lon="5.18144">
        <ele>1960.562</ele>
        <time>2020-09-03T13:17:48Z</time>
      </trkpt>
      <trkpt lat="44.16844" lon="5.18163">
        <ele>1962.067</ele>
        <time>2020-09-03T13:17:50Z</time>
      </trkpt>
      <trkpt lat="44.16853" lon="5.18164">
        <ele>1963.73</ele>
        <time>2020-09-03T13:17:51Z</time>
      </trkpt>
      <trkpt lat="44.16861" lon="5.18161">
        <ele>1965.651</ele>
        <time>2020-09-03T13:17:52Z</time>
      </trkpt>
      <trkpt lat="44.16866" lon="5.18154">
        <ele>1967.451</ele>
        <time>2020-09-03T13:17:53Z</time>
      </trkpt>
      <trkpt lat="44.16866" lon="5.18154">
        <ele>1969.474</ele>
        <time>2020-09-03T13:17:53Z</time>
      </trkpt>
      <trkpt lat="44.16868" lon="5.18138">
        <ele>1971.477</ele>
        <time>2020-09-03T13:17:55Z</time>
      </trkpt>
      <trkpt lat="44.16866" lon="5.18129">
        <ele>1973.309</ele>
        <time>2020-09-03T13:17:56Z</time>
      </trkpt>
      <trkpt lat="44.16863" lon="5.18121">
        <ele>1975.386</ele>
        <time>2020-09-03T13:17:57Z</time>
      </trkpt>
      <trkpt lat="44.16858" lon="5.18113">
        <ele>1977.427</ele>
        <time>2020-09-03T13:17:58Z</time>
      </trkpt>
      <trkpt lat="44.16858" lon="5.18113">
        <ele>1979.944</ele>
        <time>2020-09-03T13:17:58Z</time>
      </trkpt>
      <trkpt lat="44.16848" lon="5.18099">
        <ele>1982.884</ele>
        <time>2020-09-03T13:18:00Z</time>
      </trkpt>
      <trkpt lat="44.16843" lon="5.18093">
        <ele>1985.933</ele>
        <time>2020-09-03T13:18:01Z</time>
      </trkpt>
      <trkpt lat="44.16838" lon="5.18088">
        <ele>1987.986</ele>
        <time>2020-09-03T13:18:02Z</time>
      </trkpt>
      <trkpt lat="44.16831" lon="5.18082">
        <ele>1990.918</ele>
        <time>2020-09-03T13:18:03Z</time>
      </trkpt>
      <trkpt lat="44.16822" lon="5.18078">
        <ele>1994.078</ele>
        <time>2020-09-03T13:18:04Z</time>
      </trkpt>
      <trkpt lat="44.16813" lon="5.18079">
        <ele>1997.383</ele>
        <time>2020-09-03T13:18:05Z</time>
      </trkpt>
      <trkpt lat="44.16804" lon="5.18091">
        <ele>1999.475</ele>
        <time>2020-09-03T13:18:06Z</time>
      </trkpt>
      <trkpt lat="44.16799" lon="5.18107">
        <ele>2000.371</ele>
        <time>2020-09-03T13:18:07Z</time>
      </trkpt>
      <trkpt lat="44.16798" lon="5.18123">
        <ele>2001.118</ele>
        <time>2020-09-03T13:18:08Z</time>
      </trkpt>
      <trkpt lat="44.16806" lon="5.18147">
        <ele>2002.364</ele>
        <time>2020-09-03T13:18:10Z</time>
      </trkpt>
      <trkpt lat="44.16812" lon="5.18152">
        <ele>2004.392</ele>
        <time>2020-09-03T13:18:11Z</time>
      </trkpt>
      <trkpt lat="44.16817" lon="5.18155">
        <ele>2006.608</ele>
        <time>2020-09-03T13:18:12Z</time>
      </trkpt>
      <trkpt lat="44.16821" lon="5.18155">
        <ele>2009.688</ele>
        <time>2020-09-03T13:18:13Z</time>
      </trkpt>
      <trkpt lat="44.16825" lon="5.18154">
        <ele>2012.219</ele>
        <time>2020-09-03T13:18:14Z</time>
      </trkpt>
      <trkpt lat="44.1683" lon="5.18151">
        <ele>2014.75</ele>
        <time>2020-09-03T13:18:15Z</time>
      </trkpt>
      <trkpt lat="44.16837" lon="5.18148">
        <ele>2017.068</ele>
        <time>2020-09-03T13:18:16Z</time>
      </trkpt>
      <trkpt lat="44.16842" lon="5.18144">
        <ele>2019.759</ele>
        <time>2020-09-03T13:18:17Z</time>
      </trkpt>
      <trkpt lat="44.16845" lon="5.18139">
        <ele>2022.191</ele>
        <time>2020-09-03T13:18:18Z</time>
      </trkpt>
      <trkpt lat="44.16847" lon="5.18133">
        <ele>2024.443</ele>
        <time>2020-09-03T13:18:19Z</time>
      </trkpt>
      <trkpt lat="44.16848" lon="5.18126">
        <ele>2025.508</ele>
        <time>2020-09-03T13:18:20Z</time>
      </trkpt>
      <trkpt lat="44.16848" lon="5.18117">
        <ele>2026.084</ele>
        <time>2020-09-03T13:18:21Z</time>
      </trkpt>
      <trkpt lat="44.16847" lon="5.18105">
        <ele>2026.754</ele>
        <time>2020-09-03T13:18:22Z</time>
      </trkpt>
      <trkpt lat="44.16842" lon="5.18093">
        <ele>2028.308</ele>
        <time>2020-09-03T13:18:23Z</time>
      </trkpt>
      <trkpt lat="44.16835" lon="5.18085">
        <ele>2031.502</ele>
        <time>2020-09-03T13:18:24Z</time>
      </trkpt>
      <trkpt lat="44.16828" lon="5.1808">
        <ele>2035.672</ele>
        <time>2020-09-03T13:18:25Z</time>
      </trkpt>
      <trkpt lat="44.16822" lon="5.18075">
        <ele>2040.154</ele>
        <time>2020-09-03T13:18:26Z</time>
      </trkpt>
      <trkpt lat="44.16816" lon="5.1807">
        <ele>2043.996</ele>
        <time>2020-09-03T13:18:27Z</time>
      </trkpt>
      <trkpt lat="44.1681" lon="5.18065">
        <ele>2046.419</ele>
        <time>2020-09-03T13:18:28Z</time>
      </trkpt>
      <trkpt lat="44.16803" lon="5.18061">
        <ele>2047.254</ele>
        <time>2020-09-03T13:18:29Z</time>
      </trkpt>
      <trkpt lat="44.16794" lon="5.18054">
        <ele>2047.614</ele>
        <time>2020-09-03T13:18:30Z</time>
      </trkpt>
      <trkpt lat="44.16783" lon="5.18048">
        <ele>2047.099</ele>
        <time>2020-09-03T13:18:31Z</time>
      </trkpt>
      <trkpt lat="44.16772" lon="5.18044">
        <ele>2046.481</ele>
        <time>2020-09-03T13:18:32Z</time>
      </trkpt>
      <trkpt lat="44.16761" lon="5.18043">
        <ele>2045.638</ele>
        <time>2020-09-03T13:18:33Z</time>
      </trkpt>
      <trkpt lat="44.16741" lon="5.1805">
        <ele>2044.283</ele>
        <time>2020-09-03T13:18:35Z</time>
      </trkpt>
      <trkpt lat="44.16731" lon="5.1806">
        <ele>2042.448</ele>
        <time>2020-09-03T13:18:36Z</time>
      </trkpt>
      <trkpt lat="44.16723" lon="5.1807">
        <ele>2039.809</ele>
        <time>2020-09-03T13:18:37Z</time>
      </trkpt>
      <trkpt lat="44.16715" lon="5.18083">
        <ele>2037.388</ele>
        <time>2020-09-03T13:18:38Z</time>
      </trkpt>
      <trkpt lat="44.16708" lon="5.18095">
        <ele>2035.787</ele>
        <time>2020-09-03T13:18:39Z</time>
      </trkpt>
      <trkpt lat="44.16702" lon="5.18106">
        <ele>2034.447</ele>
        <time>2020-09-03T13:18:40Z</time>
      </trkpt>
      <trkpt lat="44.16699" lon="5.18119">
        <ele>2034.275</ele>
        <time>2020-09-03T13:18:41Z</time>
      </trkpt>
      <trkpt lat="44.16699" lon="5.18119">
        <ele>2034.838</ele>
        <time>2020-09-03T13:18:41Z</time>
      </trkpt>
      <trkpt lat="44.16699" lon="5.18119">
        <ele>2035.184</ele>
        <time>2020-09-03T13:18:41Z</time>
      </trkpt>
      <trkpt lat="44.1669" lon="5.18154">
        <ele>2034.745</ele>
        <time>2020-09-03T13:18:44Z</time>
      </trkpt>
      <trkpt lat="44.1669" lon="5.18154">
        <ele>2033.599</ele>
        <time>2020-09-03T13:18:44Z</time>
      </trkpt>
      <trkpt lat="44.1669" lon="5.18154">
        <ele>2031.61</ele>
        <time>2020-09-03T13:18:44Z</time>
      </trkpt>
      <trkpt lat="44.1669" lon="5.18154">
        <ele>2029.811</ele>
        <time>2020-09-03T13:18:44Z</time>
      </trkpt>
      <trkpt lat="44.1669" lon="5.18154">
        <ele>2028.218</ele>
        <time>2020-09-03T13:18:44Z</time>
      </trkpt>
      <trkpt lat="44.16663" lon="5.18219">
        <ele>2027.088</ele>
        <time>2020-09-03T13:18:49Z</time>
      </trkpt>
      <trkpt lat="44.16657" lon="5.18231">
        <ele>2025.89</ele>
        <time>2020-09-03T13:18:50Z</time>
      </trkpt>
      <trkpt lat="44.16652" lon="5.18243">
        <ele>2024.797</ele>
        <time>2020-09-03T13:18:51Z</time>
      </trkpt>
      <trkpt lat="44.16647" lon="5.18256">
        <ele>2023.974</ele>
        <time>2020-09-03T13:18:52Z</time>
      </trkpt>
      <trkpt lat="44.16642" lon="5.18271">
        <ele>2023.711</ele>
        <time>2020-09-03T13:18:53Z</time>
      </trkpt>
      <trkpt lat="44.16638" lon="5.18287">
        <ele>2023.683</ele>
        <time>2020-09-03T13:18:54Z</time>
      </trkpt>
      <trkpt lat="44.16628" lon="5.18316">
        <ele>2023.571</ele>
        <time>2020-09-03T13:18:56Z</time>
      </trkpt>
      <trkpt lat="44.16622" lon="5.18329">
        <ele>2023.011</ele>
        <time>2020-09-03T13:18:57Z</time>
      </trkpt>
      <trkpt lat="44.16616" lon="5.18343">
        <ele>2022.375</ele>
        <time>2020-09-03T13:18:58Z</time>
      </trkpt>
      <trkpt lat="44.1661" lon="5.18357">
        <ele>2020.558</ele>
        <time>2020-09-03T13:18:59Z</time>
      </trkpt>
      <trkpt lat="44.16604" lon="5.18372">
        <ele>2018.25</ele>
        <time>2020-09-03T13:19:00Z</time>
      </trkpt>
      <trkpt lat="44.16597" lon="5.18388">
        <ele>2016.286</ele>
        <time>2020-09-03T13:19:01Z</time>
      </trkpt>
      <trkpt lat="44.16591" lon="5.18404">
        <ele>2015.203</ele>
        <time>2020-09-03T13:19:02Z</time>
      </trkpt>
      <trkpt lat="44.16586" lon="5.18419">
        <ele>2014.741</ele>
        <time>2020-09-03T13:19:03Z</time>
      </trkpt>
      <trkpt lat="44.16581" lon="5.18434">
        <ele>2014.75</ele>
        <time>2020-09-03T13:19:04Z</time>
      </trkpt>
      <trkpt lat="44.16581" lon="5.18434">
        <ele>2014.787</ele>
        <time>2020-09-03T13:19:04Z</time>
      </trkpt>
      <trkpt lat="44.16567" lon="5.18473">
        <ele>2014.463</ele>
        <time>2020-09-03T13:19:07Z</time>
      </trkpt>
      <trkpt lat="44.16561" lon="5.18487">
        <ele>2013.854</ele>
        <time>2020-09-03T13:19:08Z</time>
      </trkpt>
      <trkpt lat="44.16561" lon="5.18487">
        <ele>2013.122</ele>
        <time>2020-09-03T13:19:08Z</time>
      </trkpt>
      <trkpt lat="44.1655" lon="5.18515">
        <ele>2012.579</ele>
        <time>2020-09-03T13:19:10Z</time>
      </trkpt>
      <trkpt lat="44.16544" lon="5.18529">
        <ele>2012.066</ele>
        <time>2020-09-03T13:19:11Z</time>
      </trkpt>
      <trkpt lat="44.16536" lon="5.18542">
        <ele>2011.031</ele>
        <time>2020-09-03T13:19:12Z</time>
      </trkpt>
      <trkpt lat="44.16528" lon="5.18555">
        <ele>2009.606</ele>
        <time>2020-09-03T13:19:13Z</time>
      </trkpt>
      <trkpt lat="44.16528" lon="5.18555">
        <ele>2008.015</ele>
        <time>2020-09-03T13:19:13Z</time>
      </trkpt>
      <trkpt lat="44.16511" lon="5.18583">
        <ele>2007.087</ele>
        <time>2020-09-03T13:19:15Z</time>
      </trkpt>
      <trkpt lat="44.16503" lon="5.18594">
        <ele>2006.624</ele>
        <time>2020-09-03T13:19:16Z</time>
      </trkpt>
      <trkpt lat="44.16494" lon="5.18605">
        <ele>2006.396</ele>
        <time>2020-09-03T13:19:17Z</time>
      </trkpt>
      <trkpt lat="44.16487" lon="5.18615">
        <ele>2005.871</ele>
        <time>2020-09-03T13:19:18Z</time>
      </trkpt>
      <trkpt lat="44.16487" lon="5.18615">
        <ele>2004.522</ele>
        <time>2020-09-03T13:19:18Z</time>
      </trkpt>
      <trkpt lat="44.1647" lon="5.18635">
        <ele>2002.528</ele>
        <time>2020-09-03T13:19:20Z</time>
      </trkpt>
      <trkpt lat="44.1646" lon="5.18646">
        <ele>1999.443</ele>
        <time>2020-09-03T13:19:21Z</time>
      </trkpt>
      <trkpt lat="44.1645" lon="5.18656">
        <ele>1995.791</ele>
        <time>2020-09-03T13:19:22Z</time>
      </trkpt>
      <trkpt lat="44.16441" lon="5.18665">
        <ele>1992.54</ele>
        <time>2020-09-03T13:19:23Z</time>
      </trkpt>
      <trkpt lat="44.16431" lon="5.18673">
        <ele>1989.246</ele>
        <time>2020-09-03T13:19:24Z</time>
      </trkpt>
      <trkpt lat="44.16421" lon="5.1868">
        <ele>1987.072</ele>
        <time>2020-09-03T13:19:25Z</time>
      </trkpt>
      <trkpt lat="44.16412" lon="5.18687">
        <ele>1983.104</ele>
        <time>2020-09-03T13:19:26Z</time>
      </trkpt>
      <trkpt lat="44.16404" lon="5.18695">
        <ele>1979.147</ele>
        <time>2020-09-03T13:19:27Z</time>
      </trkpt>
      <trkpt lat="44.16404" lon="5.18695">
        <ele>1975.233</ele>
        <time>2020-09-03T13:19:27Z</time>
      </trkpt>
      <trkpt lat="44.16388" lon="5.18712">
        <ele>1971.179</ele>
        <time>2020-09-03T13:19:29Z</time>
      </trkpt>
      <trkpt lat="44.1637" lon="5.18731">
        <ele>1967.263</ele>
        <time>2020-09-03T13:19:31Z</time>
      </trkpt>
      <trkpt lat="44.16359" lon="5.1874">
        <ele>1962.901</ele>
        <time>2020-09-03T13:19:32Z</time>
      </trkpt>
      <trkpt lat="44.16347" lon="5.1875">
        <ele>1960.261</ele>
        <time>2020-09-03T13:19:33Z</time>
      </trkpt>
      <trkpt lat="44.16335" lon="5.18758">
        <ele>1958.467</ele>
        <time>2020-09-03T13:19:34Z</time>
      </trkpt>
      <trkpt lat="44.16323" lon="5.18767">
        <ele>1956.815</ele>
        <time>2020-09-03T13:19:35Z</time>
      </trkpt>
      <trkpt lat="44.16311" lon="5.18775">
        <ele>1955.312</ele>
        <time>2020-09-03T13:19:36Z</time>
      </trkpt>
      <trkpt lat="44.163" lon="5.18784">
        <ele>1953.874</ele>
        <time>2020-09-03T13:19:37Z</time>
      </trkpt>
      <trkpt lat="44.16289" lon="5.18793">
        <ele>1952.291</ele>
        <time>2020-09-03T13:19:38Z</time>
      </trkpt>
      <trkpt lat="44.16279" lon="5.18802">
        <ele>1950.595</ele>
        <time>2020-09-03T13:19:39Z</time>
      </trkpt>
      <trkpt lat="44.16269" lon="5.18811">
        <ele>1948.169</ele>
        <time>2020-09-03T13:19:40Z</time>
      </trkpt>
      <trkpt lat="44.16257" lon="5.18819">
        <ele>1945.401</ele>
        <time>2020-09-03T13:19:41Z</time>
      </trkpt>
      <trkpt lat="44.16245" lon="5.18829">
        <ele>1942.263</ele>
        <time>2020-09-03T13:19:42Z</time>
      </trkpt>
      <trkpt lat="44.16233" lon="5.18838">
        <ele>1939.189</ele>
        <time>2020-09-03T13:19:43Z</time>
      </trkpt>
      <trkpt lat="44.1622" lon="5.18847">
        <ele>1936.533</ele>
        <time>2020-09-03T13:19:44Z</time>
      </trkpt>
      <trkpt lat="44.16208" lon="5.18856">
        <ele>1934.441</ele>
        <time>2020-09-03T13:19:45Z</time>
      </trkpt>
      <trkpt lat="44.16195" lon="5.18864">
        <ele>1932.632</ele>
        <time>2020-09-03T13:19:46Z</time>
      </trkpt>
      <trkpt lat="44.16184" lon="5.18873">
        <ele>1930.617</ele>
        <time>2020-09-03T13:19:47Z</time>
      </trkpt>
      <trkpt lat="44.16173" lon="5.18884">
        <ele>1928.773</ele>
        <time>2020-09-03T13:19:48Z</time>
      </trkpt>
      <trkpt lat="44.16162" lon="5.18895">
        <ele>1926.957</ele>
        <time>2020-09-03T13:19:49Z</time>
      </trkpt>
      <trkpt lat="44.16162" lon="5.18895">
        <ele>1925.427</ele>
        <time>2020-09-03T13:19:49Z</time>
      </trkpt>
      <trkpt lat="44.16126" lon="5.18927">
        <ele>1924.514</ele>
        <time>2020-09-03T13:19:52Z</time>
      </trkpt>
      <trkpt lat="44.16114" lon="5.18937">
        <ele>1923.87</ele>
        <time>2020-09-03T13:19:53Z</time>
      </trkpt>
      <trkpt lat="44.16102" lon="5.18947">
        <ele>1923.113</ele>
        <time>2020-09-03T13:19:54Z</time>
      </trkpt>
      <trkpt lat="44.16089" lon="5.18957">
        <ele>1921.383</ele>
        <time>2020-09-03T13:19:55Z</time>
      </trkpt>
      <trkpt lat="44.16078" lon="5.18965">
        <ele>1919.56</ele>
        <time>2020-09-03T13:19:56Z</time>
      </trkpt>
      <trkpt lat="44.16067" lon="5.18973">
        <ele>1917.136</ele>
        <time>2020-09-03T13:19:57Z</time>
      </trkpt>
      <trkpt lat="44.16056" lon="5.18978">
        <ele>1914.701</ele>
        <time>2020-09-03T13:19:58Z</time>
      </trkpt>
      <trkpt lat="44.16044" lon="5.18981">
        <ele>1912.208</ele>
        <time>2020-09-03T13:19:59Z</time>
      </trkpt>
      <trkpt lat="44.16044" lon="5.18981">
        <ele>1910.314</ele>
        <time>2020-09-03T13:19:59Z</time>
      </trkpt>
      <trkpt lat="44.16044" lon="5.18981">
        <ele>1908.773</ele>
        <time>2020-09-03T13:19:59Z</time>
      </trkpt>
      <trkpt lat="44.16044" lon="5.18981">
        <ele>1907.942</ele>
        <time>2020-09-03T13:19:59Z</time>
      </trkpt>
      <trkpt lat="44.16044" lon="5.18981">
        <ele>1907.494</ele>
        <time>2020-09-03T13:19:59Z</time>
      </trkpt>
      <trkpt lat="44.15991" lon="5.19008">
        <ele>1907.468</ele>
        <time>2020-09-03T13:20:04Z</time>
      </trkpt>
      <trkpt lat="44.15991" lon="5.19008">
        <ele>1907.75</ele>
        <time>2020-09-03T13:20:04Z</time>
      </trkpt>
      <trkpt lat="44.15991" lon="5.19008">
        <ele>1907.801</ele>
        <time>2020-09-03T13:20:04Z</time>
      </trkpt>
      <trkpt lat="44.15991" lon="5.19008">
        <ele>1906.984</ele>
        <time>2020-09-03T13:20:04Z</time>
      </trkpt>
      <trkpt lat="44.15955" lon="5.19015">
        <ele>1905.212</ele>
        <time>2020-09-03T13:20:08Z</time>
      </trkpt>
      <trkpt lat="44.15944" lon="5.19015">
        <ele>1903.246</ele>
        <time>2020-09-03T13:20:09Z</time>
      </trkpt>
      <trkpt lat="44.15932" lon="5.19016">
        <ele>1901.213</ele>
        <time>2020-09-03T13:20:10Z</time>
      </trkpt>
      <trkpt lat="44.15921" lon="5.19016">
        <ele>1899.449</ele>
        <time>2020-09-03T13:20:11Z</time>
      </trkpt>
      <trkpt lat="44.15899" lon="5.19017">
        <ele>1897.726</ele>
        <time>2020-09-03T13:20:13Z</time>
      </trkpt>
      <trkpt lat="44.15899" lon="5.19017">
        <ele>1896.163</ele>
        <time>2020-09-03T13:20:13Z</time>
      </trkpt>
      <trkpt lat="44.15875" lon="5.19015">
        <ele>1894.283</ele>
        <time>2020-09-03T13:20:15Z</time>
      </trkpt>
      <trkpt lat="44.15862" lon="5.19014">
        <ele>1892.287</ele>
        <time>2020-09-03T13:20:16Z</time>
      </trkpt>
      <trkpt lat="44.15848" lon="5.19015">
        <ele>1890.513</ele>
        <time>2020-09-03T13:20:17Z</time>
      </trkpt>
      <trkpt lat="44.15835" lon="5.19017">
        <ele>1889.414</ele>
        <time>2020-09-03T13:20:18Z</time>
      </trkpt>
      <trkpt lat="44.15822" lon="5.19019">
        <ele>1888.781</ele>
        <time>2020-09-03T13:20:19Z</time>
      </trkpt>
      <trkpt lat="44.1581" lon="5.19024">
        <ele>1888.276</ele>
        <time>2020-09-03T13:20:20Z</time>
      </trkpt>
      <trkpt lat="44.1581" lon="5.19024">
        <ele>1887.965</ele>
        <time>2020-09-03T13:20:20Z</time>
      </trkpt>
      <trkpt lat="44.15777" lon="5.19044">
        <ele>1887.604</ele>
        <time>2020-09-03T13:20:23Z</time>
      </trkpt>
      <trkpt lat="44.15765" lon="5.19049">
        <ele>1886.912</ele>
        <time>2020-09-03T13:20:24Z</time>
      </trkpt>
      <trkpt lat="44.15754" lon="5.19052">
        <ele>1885.637</ele>
        <time>2020-09-03T13:20:25Z</time>
      </trkpt>
      <trkpt lat="44.15742" lon="5.19055">
        <ele>1884.234</ele>
        <time>2020-09-03T13:20:26Z</time>
      </trkpt>
      <trkpt lat="44.1573" lon="5.19059">
        <ele>1882.673</ele>
        <time>2020-09-03T13:20:27Z</time>
      </trkpt>
      <trkpt lat="44.15718" lon="5.19064">
        <ele>1880.967</ele>
        <time>2020-09-03T13:20:28Z</time>
      </trkpt>
      <trkpt lat="44.15706" lon="5.19068">
        <ele>1878.898</ele>
        <time>2020-09-03T13:20:29Z</time>
      </trkpt>
      <trkpt lat="44.15693" lon="5.19071">
        <ele>1876.831</ele>
        <time>2020-09-03T13:20:30Z</time>
      </trkpt>
      <trkpt lat="44.15681" lon="5.19073">
        <ele>1874.706</ele>
        <time>2020-09-03T13:20:31Z</time>
      </trkpt>
      <trkpt lat="44.15669" lon="5.19072">
        <ele>1872.775</ele>
        <time>2020-09-03T13:20:32Z</time>
      </trkpt>
      <trkpt lat="44.15658" lon="5.1907">
        <ele>1870.519</ele>
        <time>2020-09-03T13:20:33Z</time>
      </trkpt>
      <trkpt lat="44.15646" lon="5.19066">
        <ele>1868.332</ele>
        <time>2020-09-03T13:20:34Z</time>
      </trkpt>
      <trkpt lat="44.15635" lon="5.19061">
        <ele>1865.891</ele>
        <time>2020-09-03T13:20:35Z</time>
      </trkpt>
      <trkpt lat="44.15622" lon="5.19055">
        <ele>1863.496</ele>
        <time>2020-09-03T13:20:36Z</time>
      </trkpt>
      <trkpt lat="44.1561" lon="5.1905">
        <ele>1861.416</ele>
        <time>2020-09-03T13:20:37Z</time>
      </trkpt>
      <trkpt lat="44.15597" lon="5.19047">
        <ele>1858.996</ele>
        <time>2020-09-03T13:20:38Z</time>
      </trkpt>
      <trkpt lat="44.15584" lon="5.19044">
        <ele>1856.8</ele>
        <time>2020-09-03T13:20:39Z</time>
      </trkpt>
      <trkpt lat="44.15571" lon="5.19042">
        <ele>1854.342</ele>
        <time>2020-09-03T13:20:40Z</time>
      </trkpt>
      <trkpt lat="44.15571" lon="5.19042">
        <ele>1851.95</ele>
        <time>2020-09-03T13:20:40Z</time>
      </trkpt>
      <trkpt lat="44.15535" lon="5.19025">
        <ele>1849.206</ele>
        <time>2020-09-03T13:20:43Z</time>
      </trkpt>
      <trkpt lat="44.15535" lon="5.19025">
        <ele>1846.23</ele>
        <time>2020-09-03T13:20:43Z</time>
      </trkpt>
      <trkpt lat="44.15512" lon="5.19009">
        <ele>1843.79</ele>
        <time>2020-09-03T13:20:45Z</time>
      </trkpt>
      <trkpt lat="44.15502" lon="5.18999">
        <ele>1841.652</ele>
        <time>2020-09-03T13:20:46Z</time>
      </trkpt>
      <trkpt lat="44.15492" lon="5.18987">
        <ele>1838.88</ele>
        <time>2020-09-03T13:20:47Z</time>
      </trkpt>
      <trkpt lat="44.15483" lon="5.18976">
        <ele>1836.652</ele>
        <time>2020-09-03T13:20:48Z</time>
      </trkpt>
      <trkpt lat="44.15472" lon="5.18966">
        <ele>1834.586</ele>
        <time>2020-09-03T13:20:49Z</time>
      </trkpt>
      <trkpt lat="44.15472" lon="5.18966">
        <ele>1833.242</ele>
        <time>2020-09-03T13:20:49Z</time>
      </trkpt>
      <trkpt lat="44.15452" lon="5.18948">
        <ele>1831.794</ele>
        <time>2020-09-03T13:20:51Z</time>
      </trkpt>
      <trkpt lat="44.15443" lon="5.18938">
        <ele>1830.54</ele>
        <time>2020-09-03T13:20:52Z</time>
      </trkpt>
      <trkpt lat="44.15436" lon="5.1893">
        <ele>1828.773</ele>
        <time>2020-09-03T13:20:53Z</time>
      </trkpt>
      <trkpt lat="44.15431" lon="5.18918">
        <ele>1826.487</ele>
        <time>2020-09-03T13:20:54Z</time>
      </trkpt>
      <trkpt lat="44.15427" lon="5.18903">
        <ele>1823.782</ele>
        <time>2020-09-03T13:20:55Z</time>
      </trkpt>
      <trkpt lat="44.15426" lon="5.18888">
        <ele>1821.24</ele>
        <time>2020-09-03T13:20:56Z</time>
      </trkpt>
      <trkpt lat="44.15424" lon="5.18874">
        <ele>1819.052</ele>
        <time>2020-09-03T13:20:57Z</time>
      </trkpt>
      <trkpt lat="44.15422" lon="5.1886">
        <ele>1816.981</ele>
        <time>2020-09-03T13:20:58Z</time>
      </trkpt>
      <trkpt lat="44.1542" lon="5.18846">
        <ele>1814.702</ele>
        <time>2020-09-03T13:20:59Z</time>
      </trkpt>
      <trkpt lat="44.15417" lon="5.18832">
        <ele>1812.222</ele>
        <time>2020-09-03T13:21:00Z</time>
      </trkpt>
      <trkpt lat="44.15416" lon="5.18818">
        <ele>1810.012</ele>
        <time>2020-09-03T13:21:01Z</time>
      </trkpt>
      <trkpt lat="44.15416" lon="5.18818">
        <ele>1807.86</ele>
        <time>2020-09-03T13:21:01Z</time>
      </trkpt>
      <trkpt lat="44.15416" lon="5.18818">
        <ele>1806.23</ele>
        <time>2020-09-03T13:21:01Z</time>
      </trkpt>
      <trkpt lat="44.15412" lon="5.18773">
        <ele>1804.318</ele>
        <time>2020-09-03T13:21:05Z</time>
      </trkpt>
      <trkpt lat="44.15412" lon="5.18762">
        <ele>1802.046</ele>
        <time>2020-09-03T13:21:06Z</time>
      </trkpt>
      <trkpt lat="44.15413" lon="5.1875">
        <ele>1799.359</ele>
        <time>2020-09-03T13:21:07Z</time>
      </trkpt>
      <trkpt lat="44.15414" lon="5.18738">
        <ele>1796.182</ele>
        <time>2020-09-03T13:21:08Z</time>
      </trkpt>
      <trkpt lat="44.15416" lon="5.18728">
        <ele>1794.377</ele>
        <time>2020-09-03T13:21:09Z</time>
      </trkpt>
      <trkpt lat="44.15416" lon="5.18718">
        <ele>1792.895</ele>
        <time>2020-09-03T13:21:10Z</time>
      </trkpt>
      <trkpt lat="44.15416" lon="5.18709">
        <ele>1791.639</ele>
        <time>2020-09-03T13:21:11Z</time>
      </trkpt>
      <trkpt lat="44.15416" lon="5.187">
        <ele>1789.992</ele>
        <time>2020-09-03T13:21:12Z</time>
      </trkpt>
      <trkpt lat="44.15417" lon="5.18691">
        <ele>1787.937</ele>
        <time>2020-09-03T13:21:13Z</time>
      </trkpt>
      <trkpt lat="44.15419" lon="5.18681">
        <ele>1785.966</ele>
        <time>2020-09-03T13:21:14Z</time>
      </trkpt>
      <trkpt lat="44.1542" lon="5.18664">
        <ele>1785.01</ele>
        <time>2020-09-03T13:21:16Z</time>
      </trkpt>
      <trkpt lat="44.15419" lon="5.18658">
        <ele>1785.018</ele>
        <time>2020-09-03T13:21:17Z</time>
      </trkpt>
      <trkpt lat="44.15419" lon="5.18652">
        <ele>1785.286</ele>
        <time>2020-09-03T13:21:18Z</time>
      </trkpt>
      <trkpt lat="44.1542" lon="5.18646">
        <ele>1785.783</ele>
        <time>2020-09-03T13:21:19Z</time>
      </trkpt>
      <trkpt lat="44.15422" lon="5.1864">
        <ele>1786.312</ele>
        <time>2020-09-03T13:21:20Z</time>
      </trkpt>
      <trkpt lat="44.15424" lon="5.18637">
        <ele>1786.459</ele>
        <time>2020-09-03T13:21:21Z</time>
      </trkpt>
      <trkpt lat="44.15427" lon="5.18634">
        <ele>1786.187</ele>
        <time>2020-09-03T13:21:22Z</time>
      </trkpt>
      <trkpt lat="44.1543" lon="5.18632">
        <ele>1785.384</ele>
        <time>2020-09-03T13:21:23Z</time>
      </trkpt>
      <trkpt lat="44.15432" lon="5.18628">
        <ele>1784.241</ele>
        <time>2020-09-03T13:21:24Z</time>
      </trkpt>
      <trkpt lat="44.15434" lon="5.18622">
        <ele>1783.341</ele>
        <time>2020-09-03T13:21:25Z</time>
      </trkpt>
      <trkpt lat="44.15437" lon="5.18616">
        <ele>1783.132</ele>
        <time>2020-09-03T13:21:26Z</time>
      </trkpt>
      <trkpt lat="44.15438" lon="5.1861">
        <ele>1783.967</ele>
        <time>2020-09-03T13:21:27Z</time>
      </trkpt>
      <trkpt lat="44.15438" lon="5.18604">
        <ele>1785.499</ele>
        <time>2020-09-03T13:21:28Z</time>
      </trkpt>
      <trkpt lat="44.15437" lon="5.186">
        <ele>1787.609</ele>
        <time>2020-09-03T13:21:29Z</time>
      </trkpt>
      <trkpt lat="44.15436" lon="5.18597">
        <ele>1788.354</ele>
        <time>2020-09-03T13:21:30Z</time>
      </trkpt>
      <trkpt lat="44.15438" lon="5.18595">
        <ele>1787.769</ele>
        <time>2020-09-03T13:21:31Z</time>
      </trkpt>
      <trkpt lat="44.1544" lon="5.18591">
        <ele>1786.075</ele>
        <time>2020-09-03T13:21:32Z</time>
      </trkpt>
      <trkpt lat="44.1544" lon="5.18591">
        <ele>1784.213</ele>
        <time>2020-09-03T13:21:32Z</time>
      </trkpt>
      <trkpt lat="44.15444" lon="5.18578">
        <ele>1781.805</ele>
        <time>2020-09-03T13:21:34Z</time>
      </trkpt>
      <trkpt lat="44.15448" lon="5.18565">
        <ele>1779.549</ele>
        <time>2020-09-03T13:21:36Z</time>
      </trkpt>
      <trkpt lat="44.1545" lon="5.18557">
        <ele>1778.168</ele>
        <time>2020-09-03T13:21:37Z</time>
      </trkpt>
      <trkpt lat="44.15451" lon="5.18551">
        <ele>1777.941</ele>
        <time>2020-09-03T13:21:38Z</time>
      </trkpt>
      <trkpt lat="44.15451" lon="5.18546">
        <ele>1778.365</ele>
        <time>2020-09-03T13:21:39Z</time>
      </trkpt>
      <trkpt lat="44.15452" lon="5.18542">
        <ele>1778.748</ele>
        <time>2020-09-03T13:21:40Z</time>
      </trkpt>
      <trkpt lat="44.15452" lon="5.18537">
        <ele>1778.95</ele>
        <time>2020-09-03T13:21:41Z</time>
      </trkpt>
      <trkpt lat="44.15452" lon="5.18532">
        <ele>1778.61</ele>
        <time>2020-09-03T13:21:42Z</time>
      </trkpt>
      <trkpt lat="44.15452" lon="5.18532">
        <ele>1777.946</ele>
        <time>2020-09-03T13:21:42Z</time>
      </trkpt>
      <trkpt lat="44.15451" lon="5.18521">
        <ele>1777.156</ele>
        <time>2020-09-03T13:21:44Z</time>
      </trkpt>
      <trkpt lat="44.15451" lon="5.18514">
        <ele>1776.502</ele>
        <time>2020-09-03T13:21:45Z</time>
      </trkpt>
      <trkpt lat="44.15451" lon="5.18514">
        <ele>1776.133</ele>
        <time>2020-09-03T13:21:45Z</time>
      </trkpt>
      <trkpt lat="44.15448" lon="5.18502">
        <ele>1775.828</ele>
        <time>2020-09-03T13:21:47Z</time>
      </trkpt>
      <trkpt lat="44.15446" lon="5.18496">
        <ele>1775.255</ele>
        <time>2020-09-03T13:21:48Z</time>
      </trkpt>
      <trkpt lat="44.15444" lon="5.18491">
        <ele>1774.251</ele>
        <time>2020-09-03T13:21:49Z</time>
      </trkpt>
      <trkpt lat="44.15444" lon="5.18485">
        <ele>1772.573</ele>
        <time>2020-09-03T13:21:50Z</time>
      </trkpt>
      <trkpt lat="44.15445" lon="5.18478">
        <ele>1770.898</ele>
        <time>2020-09-03T13:21:51Z</time>
      </trkpt>
      <trkpt lat="44.15446" lon="5.18471">
        <ele>1769.433</ele>
        <time>2020-09-03T13:21:52Z</time>
      </trkpt>
      <trkpt lat="44.15446" lon="5.18464">
        <ele>1768.211</ele>
        <time>2020-09-03T13:21:53Z</time>
      </trkpt>
      <trkpt lat="44.15446" lon="5.18458">
        <ele>1767.235</ele>
        <time>2020-09-03T13:21:54Z</time>
      </trkpt>
      <trkpt lat="44.15447" lon="5.18443">
        <ele>1765.924</ele>
        <time>2020-09-03T13:21:56Z</time>
      </trkpt>
      <trkpt lat="44.15448" lon="5.18436">
        <ele>1764.574</ele>
        <time>2020-09-03T13:21:57Z</time>
      </trkpt>
      <trkpt lat="44.15449" lon="5.18429">
        <ele>1763.08</ele>
        <time>2020-09-03T13:21:58Z</time>
      </trkpt>
      <trkpt lat="44.15449" lon="5.18421">
        <ele>1761.484</ele>
        <time>2020-09-03T13:21:59Z</time>
      </trkpt>
      <trkpt lat="44.15449" lon="5.18413">
        <ele>1760.203</ele>
        <time>2020-09-03T13:22:00Z</time>
      </trkpt>
      <trkpt lat="44.15449" lon="5.18405">
        <ele>1758.787</ele>
        <time>2020-09-03T13:22:01Z</time>
      </trkpt>
      <trkpt lat="44.15449" lon="5.18398">
        <ele>1757.177</ele>
        <time>2020-09-03T13:22:02Z</time>
      </trkpt>
      <trkpt lat="44.1545" lon="5.1839">
        <ele>1755.45</ele>
        <time>2020-09-03T13:22:03Z</time>
      </trkpt>
      <trkpt lat="44.15452" lon="5.18381">
        <ele>1753.737</ele>
        <time>2020-09-03T13:22:04Z</time>
      </trkpt>
      <trkpt lat="44.15452" lon="5.18381">
        <ele>1752.81</ele>
        <time>2020-09-03T13:22:04Z</time>
      </trkpt>
      <trkpt lat="44.15454" lon="5.18363">
        <ele>1752.665</ele>
        <time>2020-09-03T13:22:06Z</time>
      </trkpt>
      <trkpt lat="44.15453" lon="5.18348">
        <ele>1753.279</ele>
        <time>2020-09-03T13:22:08Z</time>
      </trkpt>
      <trkpt lat="44.15453" lon="5.18348">
        <ele>1753.769</ele>
        <time>2020-09-03T13:22:08Z</time>
      </trkpt>
      <trkpt lat="44.15451" lon="5.18333">
        <ele>1753.845</ele>
        <time>2020-09-03T13:22:10Z</time>
      </trkpt>
      <trkpt lat="44.15451" lon="5.18325">
        <ele>1753.594</ele>
        <time>2020-09-03T13:22:11Z</time>
      </trkpt>
      <trkpt lat="44.15449" lon="5.18316">
        <ele>1753.07</ele>
        <time>2020-09-03T13:22:12Z</time>
      </trkpt>
      <trkpt lat="44.15446" lon="5.18307">
        <ele>1752.342</ele>
        <time>2020-09-03T13:22:13Z</time>
      </trkpt>
      <trkpt lat="44.15446" lon="5.18307">
        <ele>1751.96</ele>
        <time>2020-09-03T13:22:13Z</time>
      </trkpt>
      <trkpt lat="44.15439" lon="5.18288">
        <ele>1751.516</ele>
        <time>2020-09-03T13:22:15Z</time>
      </trkpt>
      <trkpt lat="44.15436" lon="5.18279">
        <ele>1751.231</ele>
        <time>2020-09-03T13:22:16Z</time>
      </trkpt>
      <trkpt lat="44.15434" lon="5.18271">
        <ele>1751.284</ele>
        <time>2020-09-03T13:22:17Z</time>
      </trkpt>
      <trkpt lat="44.15431" lon="5.18263">
        <ele>1751.268</ele>
        <time>2020-09-03T13:22:18Z</time>
      </trkpt>
      <trkpt lat="44.15431" lon="5.18263">
        <ele>1750.826</ele>
        <time>2020-09-03T13:22:18Z</time>
      </trkpt>
      <trkpt lat="44.15423" lon="5.18245">
        <ele>1749.76</ele>
        <time>2020-09-03T13:22:20Z</time>
      </trkpt>
      <trkpt lat="44.15418" lon="5.18234">
        <ele>1747.494</ele>
        <time>2020-09-03T13:22:21Z</time>
      </trkpt>
      <trkpt lat="44.15413" lon="5.18222">
        <ele>1745.402</ele>
        <time>2020-09-03T13:22:22Z</time>
      </trkpt>
      <trkpt lat="44.15409" lon="5.18211">
        <ele>1743.797</ele>
        <time>2020-09-03T13:22:23Z</time>
      </trkpt>
      <trkpt lat="44.15407" lon="5.18202">
        <ele>1742.484</ele>
        <time>2020-09-03T13:22:24Z</time>
      </trkpt>
      <trkpt lat="44.15405" lon="5.18193">
        <ele>1741.739</ele>
        <time>2020-09-03T13:22:25Z</time>
      </trkpt>
      <trkpt lat="44.15404" lon="5.18185">
        <ele>1741.26</ele>
        <time>2020-09-03T13:22:26Z</time>
      </trkpt>
      <trkpt lat="44.15404" lon="5.18172">
        <ele>1740.693</ele>
        <time>2020-09-03T13:22:28Z</time>
      </trkpt>
      <trkpt lat="44.15403" lon="5.18166">
        <ele>1739.364</ele>
        <time>2020-09-03T13:22:29Z</time>
      </trkpt>
      <trkpt lat="44.15403" lon="5.18158">
        <ele>1736.804</ele>
        <time>2020-09-03T13:22:30Z</time>
      </trkpt>
      <trkpt lat="44.15404" lon="5.18149">
        <ele>1734.018</ele>
        <time>2020-09-03T13:22:31Z</time>
      </trkpt>
      <trkpt lat="44.15405" lon="5.1814">
        <ele>1731.871</ele>
        <time>2020-09-03T13:22:32Z</time>
      </trkpt>
      <trkpt lat="44.15405" lon="5.18132">
        <ele>1730.69</ele>
        <time>2020-09-03T13:22:33Z</time>
      </trkpt>
      <trkpt lat="44.15406" lon="5.18125">
        <ele>1729.815</ele>
        <time>2020-09-03T13:22:34Z</time>
      </trkpt>
      <trkpt lat="44.15407" lon="5.18118">
        <ele>1728.658</ele>
        <time>2020-09-03T13:22:35Z</time>
      </trkpt>
      <trkpt lat="44.15408" lon="5.1811">
        <ele>1726.742</ele>
        <time>2020-09-03T13:22:36Z</time>
      </trkpt>
      <trkpt lat="44.15409" lon="5.18101">
        <ele>1724.519</ele>
        <time>2020-09-03T13:22:37Z</time>
      </trkpt>
      <trkpt lat="44.15411" lon="5.18089">
        <ele>1721.975</ele>
        <time>2020-09-03T13:22:38Z</time>
      </trkpt>
      <trkpt lat="44.15411" lon="5.18077">
        <ele>1720.529</ele>
        <time>2020-09-03T13:22:39Z</time>
      </trkpt>
      <trkpt lat="44.15411" lon="5.18066">
        <ele>1719.879</ele>
        <time>2020-09-03T13:22:40Z</time>
      </trkpt>
      <trkpt lat="44.1541" lon="5.18055">
        <ele>1719.898</ele>
        <time>2020-09-03T13:22:41Z</time>
      </trkpt>
      <trkpt lat="44.1541" lon="5.18055">
        <ele>1719.839</ele>
        <time>2020-09-03T13:22:41Z</time>
      </trkpt>
      <trkpt lat="44.15404" lon="5.18036">
        <ele>1719.284</ele>
        <time>2020-09-03T13:22:43Z</time>
      </trkpt>
      <trkpt lat="44.154" lon="5.18027">
        <ele>1717.928</ele>
        <time>2020-09-03T13:22:44Z</time>
      </trkpt>
      <trkpt lat="44.15398" lon="5.18018">
        <ele>1715.696</ele>
        <time>2020-09-03T13:22:45Z</time>
      </trkpt>
      <trkpt lat="44.15398" lon="5.18018">
        <ele>1711.886</ele>
        <time>2020-09-03T13:22:45Z</time>
      </trkpt>
      <trkpt lat="44.154" lon="5.18001">
        <ele>1706.999</ele>
        <time>2020-09-03T13:22:47Z</time>
      </trkpt>
      <trkpt lat="44.15403" lon="5.17991">
        <ele>1702.845</ele>
        <time>2020-09-03T13:22:48Z</time>
      </trkpt>
      <trkpt lat="44.15408" lon="5.1797">
        <ele>1698.259</ele>
        <time>2020-09-03T13:22:50Z</time>
      </trkpt>
      <trkpt lat="44.15409" lon="5.1796">
        <ele>1695.36</ele>
        <time>2020-09-03T13:22:51Z</time>
      </trkpt>
      <trkpt lat="44.1541" lon="5.1795">
        <ele>1693.14</ele>
        <time>2020-09-03T13:22:52Z</time>
      </trkpt>
      <trkpt lat="44.15411" lon="5.17942">
        <ele>1691.925</ele>
        <time>2020-09-03T13:22:53Z</time>
      </trkpt>
      <trkpt lat="44.15412" lon="5.17935">
        <ele>1690.917</ele>
        <time>2020-09-03T13:22:54Z</time>
      </trkpt>
      <trkpt lat="44.15414" lon="5.17928">
        <ele>1689.387</ele>
        <time>2020-09-03T13:22:55Z</time>
      </trkpt>
      <trkpt lat="44.15416" lon="5.17921">
        <ele>1687.138</ele>
        <time>2020-09-03T13:22:56Z</time>
      </trkpt>
      <trkpt lat="44.15419" lon="5.17913">
        <ele>1684.007</ele>
        <time>2020-09-03T13:22:57Z</time>
      </trkpt>
      <trkpt lat="44.15422" lon="5.17904">
        <ele>1681.364</ele>
        <time>2020-09-03T13:22:58Z</time>
      </trkpt>
      <trkpt lat="44.15425" lon="5.17897">
        <ele>1679.873</ele>
        <time>2020-09-03T13:22:59Z</time>
      </trkpt>
      <trkpt lat="44.15425" lon="5.17897">
        <ele>1678.81</ele>
        <time>2020-09-03T13:22:59Z</time>
      </trkpt>
      <trkpt lat="44.15429" lon="5.17883">
        <ele>1677.831</ele>
        <time>2020-09-03T13:23:01Z</time>
      </trkpt>
      <trkpt lat="44.15431" lon="5.17876">
        <ele>1676.765</ele>
        <time>2020-09-03T13:23:02Z</time>
      </trkpt>
      <trkpt lat="44.15434" lon="5.1787">
        <ele>1675.675</ele>
        <time>2020-09-03T13:23:03Z</time>
      </trkpt>
      <trkpt lat="44.15438" lon="5.17864">
        <ele>1674.846</ele>
        <time>2020-09-03T13:23:04Z</time>
      </trkpt>
      <trkpt lat="44.15441" lon="5.17859">
        <ele>1674.11</ele>
        <time>2020-09-03T13:23:05Z</time>
      </trkpt>
      <trkpt lat="44.15447" lon="5.17848">
        <ele>1673.505</ele>
        <time>2020-09-03T13:23:07Z</time>
      </trkpt>
      <trkpt lat="44.15451" lon="5.17843">
        <ele>1672.702</ele>
        <time>2020-09-03T13:23:08Z</time>
      </trkpt>
      <trkpt lat="44.15451" lon="5.17843">
        <ele>1671.576</ele>
        <time>2020-09-03T13:23:08Z</time>
      </trkpt>
      <trkpt lat="44.15458" lon="5.17834">
        <ele>1671.065</ele>
        <time>2020-09-03T13:23:10Z</time>
      </trkpt>
      <trkpt lat="44.15461" lon="5.17829">
        <ele>1669.957</ele>
        <time>2020-09-03T13:23:11Z</time>
      </trkpt>
      <trkpt lat="44.15464" lon="5.17825">
        <ele>1668.766</ele>
        <time>2020-09-03T13:23:12Z</time>
      </trkpt>
      <trkpt lat="44.15467" lon="5.1782">
        <ele>1667.278</ele>
        <time>2020-09-03T13:23:13Z</time>
      </trkpt>
      <trkpt lat="44.1547" lon="5.17814">
        <ele>1665.158</ele>
        <time>2020-09-03T13:23:14Z</time>
      </trkpt>
      <trkpt lat="44.15473" lon="5.17807">
        <ele>1663.259</ele>
        <time>2020-09-03T13:23:15Z</time>
      </trkpt>
      <trkpt lat="44.15475" lon="5.17801">
        <ele>1661.416</ele>
        <time>2020-09-03T13:23:16Z</time>
      </trkpt>
      <trkpt lat="44.15476" lon="5.17795">
        <ele>1659.864</ele>
        <time>2020-09-03T13:23:17Z</time>
      </trkpt>
      <trkpt lat="44.15477" lon="5.1779">
        <ele>1657.51</ele>
        <time>2020-09-03T13:23:18Z</time>
      </trkpt>
      <trkpt lat="44.15479" lon="5.17785">
        <ele>1654.655</ele>
        <time>2020-09-03T13:23:19Z</time>
      </trkpt>
      <trkpt lat="44.15483" lon="5.1777">
        <ele>1651.444</ele>
        <time>2020-09-03T13:23:21Z</time>
      </trkpt>
      <trkpt lat="44.15486" lon="5.17762">
        <ele>1649.437</ele>
        <time>2020-09-03T13:23:22Z</time>
      </trkpt>
      <trkpt lat="44.15489" lon="5.17753">
        <ele>1648.043</ele>
        <time>2020-09-03T13:23:23Z</time>
      </trkpt>
      <trkpt lat="44.15493" lon="5.17745">
        <ele>1647.576</ele>
        <time>2020-09-03T13:23:24Z</time>
      </trkpt>
      <trkpt lat="44.15495" lon="5.17737">
        <ele>1647.315</ele>
        <time>2020-09-03T13:23:25Z</time>
      </trkpt>
      <trkpt lat="44.15497" lon="5.17729">
        <ele>1646.842</ele>
        <time>2020-09-03T13:23:26Z</time>
      </trkpt>
      <trkpt lat="44.15499" lon="5.17721">
        <ele>1646.014</ele>
        <time>2020-09-03T13:23:27Z</time>
      </trkpt>
      <trkpt lat="44.155" lon="5.17714">
        <ele>1645.297</ele>
        <time>2020-09-03T13:23:28Z</time>
      </trkpt>
      <trkpt lat="44.15501" lon="5.17706">
        <ele>1644.143</ele>
        <time>2020-09-03T13:23:29Z</time>
      </trkpt>
      <trkpt lat="44.15503" lon="5.17699">
        <ele>1642.709</ele>
        <time>2020-09-03T13:23:30Z</time>
      </trkpt>
      <trkpt lat="44.15505" lon="5.17691">
        <ele>1641.042</ele>
        <time>2020-09-03T13:23:31Z</time>
      </trkpt>
      <trkpt lat="44.15508" lon="5.17682">
        <ele>1639.638</ele>
        <time>2020-09-03T13:23:32Z</time>
      </trkpt>
      <trkpt lat="44.1551" lon="5.17671">
        <ele>1638.611</ele>
        <time>2020-09-03T13:23:33Z</time>
      </trkpt>
      <trkpt lat="44.15512" lon="5.17661">
        <ele>1638.081</ele>
        <time>2020-09-03T13:23:34Z</time>
      </trkpt>
      <trkpt lat="44.15514" lon="5.1765">
        <ele>1638.287</ele>
        <time>2020-09-03T13:23:35Z</time>
      </trkpt>
      <trkpt lat="44.15515" lon="5.1764">
        <ele>1639.165</ele>
        <time>2020-09-03T13:23:36Z</time>
      </trkpt>
      <trkpt lat="44.15515" lon="5.17631">
        <ele>1640.276</ele>
        <time>2020-09-03T13:23:37Z</time>
      </trkpt>
      <trkpt lat="44.15517" lon="5.17622">
        <ele>1640.919</ele>
        <time>2020-09-03T13:23:38Z</time>
      </trkpt>
      <trkpt lat="44.15519" lon="5.17613">
        <ele>1641.607</ele>
        <time>2020-09-03T13:23:39Z</time>
      </trkpt>
      <trkpt lat="44.15522" lon="5.17605">
        <ele>1641.792</ele>
        <time>2020-09-03T13:23:40Z</time>
      </trkpt>
      <trkpt lat="44.15524" lon="5.17597">
        <ele>1641.45</ele>
        <time>2020-09-03T13:23:41Z</time>
      </trkpt>
      <trkpt lat="44.15526" lon="5.17587">
        <ele>1640.532</ele>
        <time>2020-09-03T13:23:42Z</time>
      </trkpt>
      <trkpt lat="44.15526" lon="5.17575">
        <ele>1639.251</ele>
        <time>2020-09-03T13:23:43Z</time>
      </trkpt>
      <trkpt lat="44.15524" lon="5.17551">
        <ele>1637.964</ele>
        <time>2020-09-03T13:23:45Z</time>
      </trkpt>
      <trkpt lat="44.15524" lon="5.17541">
        <ele>1636.783</ele>
        <time>2020-09-03T13:23:46Z</time>
      </trkpt>
      <trkpt lat="44.15523" lon="5.17531">
        <ele>1635.081</ele>
        <time>2020-09-03T13:23:47Z</time>
      </trkpt>
      <trkpt lat="44.15522" lon="5.17519">
        <ele>1632.542</ele>
        <time>2020-09-03T13:23:48Z</time>
      </trkpt>
      <trkpt lat="44.15519" lon="5.17508">
        <ele>1629.948</ele>
        <time>2020-09-03T13:23:49Z</time>
      </trkpt>
      <trkpt lat="44.15516" lon="5.17495">
        <ele>1627.628</ele>
        <time>2020-09-03T13:23:50Z</time>
      </trkpt>
      <trkpt lat="44.15512" lon="5.17483">
        <ele>1626.521</ele>
        <time>2020-09-03T13:23:51Z</time>
      </trkpt>
      <trkpt lat="44.1551" lon="5.17474">
        <ele>1626.506</ele>
        <time>2020-09-03T13:23:52Z</time>
      </trkpt>
      <trkpt lat="44.15508" lon="5.17467">
        <ele>1627.181</ele>
        <time>2020-09-03T13:23:53Z</time>
      </trkpt>
      <trkpt lat="44.15506" lon="5.17463">
        <ele>1627.599</ele>
        <time>2020-09-03T13:23:54Z</time>
      </trkpt>
      <trkpt lat="44.15505" lon="5.1746">
        <ele>1627.001</ele>
        <time>2020-09-03T13:23:55Z</time>
      </trkpt>
      <trkpt lat="44.15504" lon="5.17457">
        <ele>1624.953</ele>
        <time>2020-09-03T13:23:56Z</time>
      </trkpt>
      <trkpt lat="44.15503" lon="5.17452">
        <ele>1621.98</ele>
        <time>2020-09-03T13:23:57Z</time>
      </trkpt>
      <trkpt lat="44.15505" lon="5.17444">
        <ele>1618.198</ele>
        <time>2020-09-03T13:23:58Z</time>
      </trkpt>
      <trkpt lat="44.15507" lon="5.17435">
        <ele>1614.769</ele>
        <time>2020-09-03T13:23:59Z</time>
      </trkpt>
      <trkpt lat="44.15509" lon="5.17426">
        <ele>1612.186</ele>
        <time>2020-09-03T13:24:00Z</time>
      </trkpt>
      <trkpt lat="44.1551" lon="5.17418">
        <ele>1610.5</ele>
        <time>2020-09-03T13:24:01Z</time>
      </trkpt>
      <trkpt lat="44.15511" lon="5.17411">
        <ele>1609.091</ele>
        <time>2020-09-03T13:24:02Z</time>
      </trkpt>
      <trkpt lat="44.15514" lon="5.17404">
        <ele>1607.253</ele>
        <time>2020-09-03T13:24:03Z</time>
      </trkpt>
      <trkpt lat="44.15518" lon="5.17397">
        <ele>1604.499</ele>
        <time>2020-09-03T13:24:04Z</time>
      </trkpt>
      <trkpt lat="44.15518" lon="5.17397">
        <ele>1602.716</ele>
        <time>2020-09-03T13:24:04Z</time>
      </trkpt>
      <trkpt lat="44.15531" lon="5.17372">
        <ele>1599.969</ele>
        <time>2020-09-03T13:24:07Z</time>
      </trkpt>
      <trkpt lat="44.15535" lon="5.17363">
        <ele>1597.62</ele>
        <time>2020-09-03T13:24:08Z</time>
      </trkpt>
      <trkpt lat="44.15539" lon="5.17355">
        <ele>1596.209</ele>
        <time>2020-09-03T13:24:09Z</time>
      </trkpt>
      <trkpt lat="44.15543" lon="5.17346">
        <ele>1595.034</ele>
        <time>2020-09-03T13:24:10Z</time>
      </trkpt>
      <trkpt lat="44.15546" lon="5.17337">
        <ele>1593.554</ele>
        <time>2020-09-03T13:24:11Z</time>
      </trkpt>
      <trkpt lat="44.1555" lon="5.17327">
        <ele>1591.546</ele>
        <time>2020-09-03T13:24:12Z</time>
      </trkpt>
      <trkpt lat="44.15555" lon="5.17317">
        <ele>1589.042</ele>
        <time>2020-09-03T13:24:13Z</time>
      </trkpt>
      <trkpt lat="44.15559" lon="5.17307">
        <ele>1586.631</ele>
        <time>2020-09-03T13:24:14Z</time>
      </trkpt>
      <trkpt lat="44.15562" lon="5.17297">
        <ele>1584.029</ele>
        <time>2020-09-03T13:24:15Z</time>
      </trkpt>
      <trkpt lat="44.15563" lon="5.17287">
        <ele>1582.081</ele>
        <time>2020-09-03T13:24:16Z</time>
      </trkpt>
      <trkpt lat="44.15568" lon="5.17266">
        <ele>1579.395</ele>
        <time>2020-09-03T13:24:18Z</time>
      </trkpt>
      <trkpt lat="44.15568" lon="5.17266">
        <ele>1576.841</ele>
        <time>2020-09-03T13:24:18Z</time>
      </trkpt>
      <trkpt lat="44.15574" lon="5.17246">
        <ele>1573.734</ele>
        <time>2020-09-03T13:24:20Z</time>
      </trkpt>
      <trkpt lat="44.15575" lon="5.17235">
        <ele>1571.005</ele>
        <time>2020-09-03T13:24:21Z</time>
      </trkpt>
      <trkpt lat="44.15574" lon="5.17225">
        <ele>1568.683</ele>
        <time>2020-09-03T13:24:22Z</time>
      </trkpt>
      <trkpt lat="44.15572" lon="5.17216">
        <ele>1567.176</ele>
        <time>2020-09-03T13:24:23Z</time>
      </trkpt>
      <trkpt lat="44.15572" lon="5.17216">
        <ele>1565.9</ele>
        <time>2020-09-03T13:24:23Z</time>
      </trkpt>
      <trkpt lat="44.15572" lon="5.17207">
        <ele>1564.488</ele>
        <time>2020-09-03T13:24:25Z</time>
      </trkpt>
      <trkpt lat="44.15575" lon="5.17206">
        <ele>1562.062</ele>
        <time>2020-09-03T13:24:26Z</time>
      </trkpt>
      <trkpt lat="44.1558" lon="5.17206">
        <ele>1558.608</ele>
        <time>2020-09-03T13:24:27Z</time>
      </trkpt>
      <trkpt lat="44.15586" lon="5.17206">
        <ele>1553.843</ele>
        <time>2020-09-03T13:24:28Z</time>
      </trkpt>
      <trkpt lat="44.15593" lon="5.17206">
        <ele>1547.39</ele>
        <time>2020-09-03T13:24:29Z</time>
      </trkpt>
      <trkpt lat="44.15599" lon="5.17205">
        <ele>1542.199</ele>
        <time>2020-09-03T13:24:30Z</time>
      </trkpt>
      <trkpt lat="44.15605" lon="5.17204">
        <ele>1537.103</ele>
        <time>2020-09-03T13:24:31Z</time>
      </trkpt>
      <trkpt lat="44.15613" lon="5.17203">
        <ele>1532.875</ele>
        <time>2020-09-03T13:24:32Z</time>
      </trkpt>
      <trkpt lat="44.15613" lon="5.17203">
        <ele>1530.336</ele>
        <time>2020-09-03T13:24:32Z</time>
      </trkpt>
      <trkpt lat="44.15628" lon="5.17198">
        <ele>1525.36</ele>
        <time>2020-09-03T13:24:34Z</time>
      </trkpt>
      <trkpt lat="44.15635" lon="5.17196">
        <ele>1519.712</ele>
        <time>2020-09-03T13:24:35Z</time>
      </trkpt>
      <trkpt lat="44.15651" lon="5.17192">
        <ele>1514.473</ele>
        <time>2020-09-03T13:24:37Z</time>
      </trkpt>
      <trkpt lat="44.15661" lon="5.17191">
        <ele>1509.42</ele>
        <time>2020-09-03T13:24:38Z</time>
      </trkpt>
      <trkpt lat="44.15661" lon="5.17191">
        <ele>1504.28</ele>
        <time>2020-09-03T13:24:38Z</time>
      </trkpt>
      <trkpt lat="44.1568" lon="5.17183">
        <ele>1498.74</ele>
        <time>2020-09-03T13:24:40Z</time>
      </trkpt>
      <trkpt lat="44.15689" lon="5.17177">
        <ele>1494.952</ele>
        <time>2020-09-03T13:24:41Z</time>
      </trkpt>
      <trkpt lat="44.15697" lon="5.17172">
        <ele>1491.417</ele>
        <time>2020-09-03T13:24:42Z</time>
      </trkpt>
      <trkpt lat="44.15706" lon="5.17169">
        <ele>1489.162</ele>
        <time>2020-09-03T13:24:43Z</time>
      </trkpt>
      <trkpt lat="44.15715" lon="5.17167">
        <ele>1486.827</ele>
        <time>2020-09-03T13:24:44Z</time>
      </trkpt>
      <trkpt lat="44.15724" lon="5.17166">
        <ele>1484.29</ele>
        <time>2020-09-03T13:24:45Z</time>
      </trkpt>
      <trkpt lat="44.15733" lon="5.17164">
        <ele>1481.469</ele>
        <time>2020-09-03T13:24:46Z</time>
      </trkpt>
      <trkpt lat="44.15743" lon="5.17159">
        <ele>1478.835</ele>
        <time>2020-09-03T13:24:47Z</time>
      </trkpt>
      <trkpt lat="44.15751" lon="5.17154">
        <ele>1476.337</ele>
        <time>2020-09-03T13:24:48Z</time>
      </trkpt>
      <trkpt lat="44.1576" lon="5.1715">
        <ele>1474.309</ele>
        <time>2020-09-03T13:24:49Z</time>
      </trkpt>
      <trkpt lat="44.15768" lon="5.17146">
        <ele>1473.115</ele>
        <time>2020-09-03T13:24:50Z</time>
      </trkpt>
      <trkpt lat="44.15776" lon="5.17143">
        <ele>1471.992</ele>
        <time>2020-09-03T13:24:51Z</time>
      </trkpt>
      <trkpt lat="44.15785" lon="5.17139">
        <ele>1470.786</ele>
        <time>2020-09-03T13:24:52Z</time>
      </trkpt>
      <trkpt lat="44.15792" lon="5.17135">
        <ele>1469.336</ele>
        <time>2020-09-03T13:24:53Z</time>
      </trkpt>
      <trkpt lat="44.15799" lon="5.1713">
        <ele>1466.828</ele>
        <time>2020-09-03T13:24:54Z</time>
      </trkpt>
      <trkpt lat="44.15805" lon="5.17124">
        <ele>1464.116</ele>
        <time>2020-09-03T13:24:55Z</time>
      </trkpt>
      <trkpt lat="44.15812" lon="5.17119">
        <ele>1461.023</ele>
        <time>2020-09-03T13:24:56Z</time>
      </trkpt>
      <trkpt lat="44.15829" lon="5.17114">
        <ele>1457.842</ele>
        <time>2020-09-03T13:24:58Z</time>
      </trkpt>
      <trkpt lat="44.15839" lon="5.17112">
        <ele>1454.925</ele>
        <time>2020-09-03T13:24:59Z</time>
      </trkpt>
      <trkpt lat="44.15848" lon="5.1711">
        <ele>1452.848</ele>
        <time>2020-09-03T13:25:00Z</time>
      </trkpt>
      <trkpt lat="44.15858" lon="5.17108">
        <ele>1450.471</ele>
        <time>2020-09-03T13:25:01Z</time>
      </trkpt>
      <trkpt lat="44.15867" lon="5.17104">
        <ele>1449.269</ele>
        <time>2020-09-03T13:25:02Z</time>
      </trkpt>
      <trkpt lat="44.15875" lon="5.17099">
        <ele>1447.124</ele>
        <time>2020-09-03T13:25:03Z</time>
      </trkpt>
      <trkpt lat="44.15882" lon="5.17093">
        <ele>1444.813</ele>
        <time>2020-09-03T13:25:04Z</time>
      </trkpt>
      <trkpt lat="44.15889" lon="5.17087">
        <ele>1442.675</ele>
        <time>2020-09-03T13:25:05Z</time>
      </trkpt>
      <trkpt lat="44.15897" lon="5.17082">
        <ele>1440.819</ele>
        <time>2020-09-03T13:25:06Z</time>
      </trkpt>
      <trkpt lat="44.15897" lon="5.17082">
        <ele>1439.55</ele>
        <time>2020-09-03T13:25:06Z</time>
      </trkpt>
      <trkpt lat="44.15897" lon="5.17082">
        <ele>1438.672</ele>
        <time>2020-09-03T13:25:06Z</time>
      </trkpt>
      <trkpt lat="44.15922" lon="5.17075">
        <ele>1438.53</ele>
        <time>2020-09-03T13:25:09Z</time>
      </trkpt>
      <trkpt lat="44.15922" lon="5.17075">
        <ele>1438.797</ele>
        <time>2020-09-03T13:25:09Z</time>
      </trkpt>
      <trkpt lat="44.15922" lon="5.17075">
        <ele>1439.357</ele>
        <time>2020-09-03T13:25:09Z</time>
      </trkpt>
      <trkpt lat="44.15922" lon="5.17075">
        <ele>1439.96</ele>
        <time>2020-09-03T13:25:09Z</time>
      </trkpt>
      <trkpt lat="44.15922" lon="5.17075">
        <ele>1440.614</ele>
        <time>2020-09-03T13:25:09Z</time>
      </trkpt>
      <trkpt lat="44.15975" lon="5.1708">
        <ele>1441.111</ele>
        <time>2020-09-03T13:25:14Z</time>
      </trkpt>
      <trkpt lat="44.15975" lon="5.1708">
        <ele>1441.597</ele>
        <time>2020-09-03T13:25:14Z</time>
      </trkpt>
      <trkpt lat="44.15994" lon="5.1708">
        <ele>1442.003</ele>
        <time>2020-09-03T13:25:16Z</time>
      </trkpt>
      <trkpt lat="44.16003" lon="5.17079">
        <ele>1442.409</ele>
        <time>2020-09-03T13:25:17Z</time>
      </trkpt>
      <trkpt lat="44.16013" lon="5.17078">
        <ele>1442.752</ele>
        <time>2020-09-03T13:25:18Z</time>
      </trkpt>
      <trkpt lat="44.16022" lon="5.17076">
        <ele>1443.031</ele>
        <time>2020-09-03T13:25:19Z</time>
      </trkpt>
      <trkpt lat="44.1604" lon="5.17071">
        <ele>1443.412</ele>
        <time>2020-09-03T13:25:21Z</time>
      </trkpt>
      <trkpt lat="44.16049" lon="5.17067">
        <ele>1443.992</ele>
        <time>2020-09-03T13:25:22Z</time>
      </trkpt>
      <trkpt lat="44.16057" lon="5.17064">
        <ele>1444.705</ele>
        <time>2020-09-03T13:25:23Z</time>
      </trkpt>
      <trkpt lat="44.16067" lon="5.17059">
        <ele>1445.215</ele>
        <time>2020-09-03T13:25:24Z</time>
      </trkpt>
      <trkpt lat="44.16077" lon="5.17056">
        <ele>1445.604</ele>
        <time>2020-09-03T13:25:25Z</time>
      </trkpt>
      <trkpt lat="44.16087" lon="5.17052">
        <ele>1446.832</ele>
        <time>2020-09-03T13:25:26Z</time>
      </trkpt>
      <trkpt lat="44.16097" lon="5.17049">
        <ele>1448.526</ele>
        <time>2020-09-03T13:25:27Z</time>
      </trkpt>
      <trkpt lat="44.16106" lon="5.17047">
        <ele>1450.677</ele>
        <time>2020-09-03T13:25:28Z</time>
      </trkpt>
      <trkpt lat="44.16106" lon="5.17047">
        <ele>1451.675</ele>
        <time>2020-09-03T13:25:28Z</time>
      </trkpt>
      <trkpt lat="44.16124" lon="5.17042">
        <ele>1452.849</ele>
        <time>2020-09-03T13:25:30Z</time>
      </trkpt>
      <trkpt lat="44.16144" lon="5.17034">
        <ele>1453.585</ele>
        <time>2020-09-03T13:25:32Z</time>
      </trkpt>
      <trkpt lat="44.16154" lon="5.17029">
        <ele>1454.58</ele>
        <time>2020-09-03T13:25:33Z</time>
      </trkpt>
      <trkpt lat="44.16154" lon="5.17029">
        <ele>1455.694</ele>
        <time>2020-09-03T13:25:33Z</time>
      </trkpt>
      <trkpt lat="44.1617" lon="5.1702">
        <ele>1457.22</ele>
        <time>2020-09-03T13:25:35Z</time>
      </trkpt>
      <trkpt lat="44.16179" lon="5.17016">
        <ele>1458.625</ele>
        <time>2020-09-03T13:25:36Z</time>
      </trkpt>
      <trkpt lat="44.16189" lon="5.17014">
        <ele>1459.674</ele>
        <time>2020-09-03T13:25:37Z</time>
      </trkpt>
      <trkpt lat="44.16201" lon="5.17013">
        <ele>1459.842</ele>
        <time>2020-09-03T13:25:38Z</time>
      </trkpt>
      <trkpt lat="44.16213" lon="5.17009">
        <ele>1459.633</ele>
        <time>2020-09-03T13:25:39Z</time>
      </trkpt>
      <trkpt lat="44.16223" lon="5.17003">
        <ele>1459.366</ele>
        <time>2020-09-03T13:25:40Z</time>
      </trkpt>
      <trkpt lat="44.16232" lon="5.16995">
        <ele>1459.805</ele>
        <time>2020-09-03T13:25:41Z</time>
      </trkpt>
      <trkpt lat="44.16241" lon="5.1699">
        <ele>1461.001</ele>
        <time>2020-09-03T13:25:42Z</time>
      </trkpt>
      <trkpt lat="44.16251" lon="5.16986">
        <ele>1462.218</ele>
        <time>2020-09-03T13:25:43Z</time>
      </trkpt>
      <trkpt lat="44.16262" lon="5.16986">
        <ele>1463.586</ele>
        <time>2020-09-03T13:25:44Z</time>
      </trkpt>
      <trkpt lat="44.16273" lon="5.16985">
        <ele>1464.997</ele>
        <time>2020-09-03T13:25:45Z</time>
      </trkpt>
      <trkpt lat="44.16283" lon="5.16982">
        <ele>1466.372</ele>
        <time>2020-09-03T13:25:46Z</time>
      </trkpt>
      <trkpt lat="44.16293" lon="5.16978">
        <ele>1467.883</ele>
        <time>2020-09-03T13:25:47Z</time>
      </trkpt>
      <trkpt lat="44.16303" lon="5.16975">
        <ele>1469.69</ele>
        <time>2020-09-03T13:25:48Z</time>
      </trkpt>
      <trkpt lat="44.16314" lon="5.16972">
        <ele>1472.471</ele>
        <time>2020-09-03T13:25:49Z</time>
      </trkpt>
      <trkpt lat="44.16324" lon="5.1697">
        <ele>1475.36</ele>
        <time>2020-09-03T13:25:50Z</time>
      </trkpt>
      <trkpt lat="44.16333" lon="5.16969">
        <ele>1478.333</ele>
        <time>2020-09-03T13:25:51Z</time>
      </trkpt>
      <trkpt lat="44.16342" lon="5.16969">
        <ele>1482.138</ele>
        <time>2020-09-03T13:25:52Z</time>
      </trkpt>
      <trkpt lat="44.16349" lon="5.16968">
        <ele>1486.27</ele>
        <time>2020-09-03T13:25:53Z</time>
      </trkpt>
      <trkpt lat="44.16358" lon="5.16968">
        <ele>1490.415</ele>
        <time>2020-09-03T13:25:55Z</time>
      </trkpt>
      <trkpt lat="44.16362" lon="5.16968">
        <ele>1493.265</ele>
        <time>2020-09-03T13:25:56Z</time>
      </trkpt>
      <trkpt lat="44.16368" lon="5.1697">
        <ele>1495.465</ele>
        <time>2020-09-03T13:25:57Z</time>
      </trkpt>
      <trkpt lat="44.16375" lon="5.16971">
        <ele>1496.457</ele>
        <time>2020-09-03T13:25:58Z</time>
      </trkpt>
      <trkpt lat="44.16382" lon="5.16973">
        <ele>1497.803</ele>
        <time>2020-09-03T13:25:59Z</time>
      </trkpt>
      <trkpt lat="44.16389" lon="5.16974">
        <ele>1499.242</ele>
        <time>2020-09-03T13:26:00Z</time>
      </trkpt>
      <trkpt lat="44.16394" lon="5.16973">
        <ele>1500.677</ele>
        <time>2020-09-03T13:26:01Z</time>
      </trkpt>
      <trkpt lat="44.16398" lon="5.1697">
        <ele>1502.163</ele>
        <time>2020-09-03T13:26:02Z</time>
      </trkpt>
      <trkpt lat="44.164" lon="5.16966">
        <ele>1503.487</ele>
        <time>2020-09-03T13:26:03Z</time>
      </trkpt>
      <trkpt lat="44.164" lon="5.16961">
        <ele>1504.137</ele>
        <time>2020-09-03T13:26:04Z</time>
      </trkpt>
      <trkpt lat="44.16397" lon="5.16954">
        <ele>1504.334</ele>
        <time>2020-09-03T13:26:05Z</time>
      </trkpt>
      <trkpt lat="44.16392" lon="5.16949">
        <ele>1504.283</ele>
        <time>2020-09-03T13:26:06Z</time>
      </trkpt>
      <trkpt lat="44.16384" lon="5.1695">
        <ele>1504.656</ele>
        <time>2020-09-03T13:26:07Z</time>
      </trkpt>
      <trkpt lat="44.16377" lon="5.16955">
        <ele>1505.978</ele>
        <time>2020-09-03T13:26:08Z</time>
      </trkpt>
      <trkpt lat="44.16371" lon="5.16964">
        <ele>1508.24</ele>
        <time>2020-09-03T13:26:09Z</time>
      </trkpt>
      <trkpt lat="44.16366" lon="5.16975">
        <ele>1511.251</ele>
        <time>2020-09-03T13:26:10Z</time>
      </trkpt>
      <trkpt lat="44.16363" lon="5.16989">
        <ele>1513.877</ele>
        <time>2020-09-03T13:26:11Z</time>
      </trkpt>
      <trkpt lat="44.16361" lon="5.17003">
        <ele>1517.279</ele>
        <time>2020-09-03T13:26:12Z</time>
      </trkpt>
      <trkpt lat="44.16359" lon="5.17019">
        <ele>1520.168</ele>
        <time>2020-09-03T13:26:13Z</time>
      </trkpt>
      <trkpt lat="44.16359" lon="5.17035">
        <ele>1523.19</ele>
        <time>2020-09-03T13:26:14Z</time>
      </trkpt>
      <trkpt lat="44.16367" lon="5.17061">
        <ele>1525.546</ele>
        <time>2020-09-03T13:26:16Z</time>
      </trkpt>
      <trkpt lat="44.16375" lon="5.17067">
        <ele>1526.745</ele>
        <time>2020-09-03T13:26:17Z</time>
      </trkpt>
      <trkpt lat="44.16383" lon="5.1707">
        <ele>1526.863</ele>
        <time>2020-09-03T13:26:18Z</time>
      </trkpt>
      <trkpt lat="44.1639" lon="5.1707">
        <ele>1526.555</ele>
        <time>2020-09-03T13:26:19Z</time>
      </trkpt>
      <trkpt lat="44.16397" lon="5.1707">
        <ele>1526.502</ele>
        <time>2020-09-03T13:26:20Z</time>
      </trkpt>
      <trkpt lat="44.16404" lon="5.17069">
        <ele>1527.019</ele>
        <time>2020-09-03T13:26:21Z</time>
      </trkpt>
      <trkpt lat="44.1641" lon="5.17069">
        <ele>1527.763</ele>
        <time>2020-09-03T13:26:22Z</time>
      </trkpt>
      <trkpt lat="44.16417" lon="5.17069">
        <ele>1528.405</ele>
        <time>2020-09-03T13:26:23Z</time>
      </trkpt>
      <trkpt lat="44.16423" lon="5.17068">
        <ele>1528.583</ele>
        <time>2020-09-03T13:26:24Z</time>
      </trkpt>
      <trkpt lat="44.16423" lon="5.17068">
        <ele>1528.582</ele>
        <time>2020-09-03T13:26:24Z</time>
      </trkpt>
      <trkpt lat="44.16438" lon="5.17066">
        <ele>1528.828</ele>
        <time>2020-09-03T13:26:26Z</time>
      </trkpt>
      <trkpt lat="44.16438" lon="5.17066">
        <ele>1529.478</ele>
        <time>2020-09-03T13:26:26Z</time>
      </trkpt>
      <trkpt lat="44.16452" lon="5.17064">
        <ele>1530.569</ele>
        <time>2020-09-03T13:26:28Z</time>
      </trkpt>
      <trkpt lat="44.16459" lon="5.17062">
        <ele>1531.338</ele>
        <time>2020-09-03T13:26:29Z</time>
      </trkpt>
      <trkpt lat="44.16467" lon="5.17058">
        <ele>1531.622</ele>
        <time>2020-09-03T13:26:30Z</time>
      </trkpt>
      <trkpt lat="44.16474" lon="5.17053">
        <ele>1531.906</ele>
        <time>2020-09-03T13:26:31Z</time>
      </trkpt>
      <trkpt lat="44.16482" lon="5.17048">
        <ele>1532.558</ele>
        <time>2020-09-03T13:26:32Z</time>
      </trkpt>
      <trkpt lat="44.16491" lon="5.17044">
        <ele>1533.887</ele>
        <time>2020-09-03T13:26:33Z</time>
      </trkpt>
      <trkpt lat="44.165" lon="5.17042">
        <ele>1535.959</ele>
        <time>2020-09-03T13:26:34Z</time>
      </trkpt>
      <trkpt lat="44.16508" lon="5.17039">
        <ele>1538.576</ele>
        <time>2020-09-03T13:26:35Z</time>
      </trkpt>
      <trkpt lat="44.16516" lon="5.17037">
        <ele>1541.02</ele>
        <time>2020-09-03T13:26:36Z</time>
      </trkpt>
      <trkpt lat="44.16523" lon="5.17035">
        <ele>1543.99</ele>
        <time>2020-09-03T13:26:37Z</time>
      </trkpt>
      <trkpt lat="44.1653" lon="5.17033">
        <ele>1546.477</ele>
        <time>2020-09-03T13:26:38Z</time>
      </trkpt>
      <trkpt lat="44.16545" lon="5.17028">
        <ele>1548.67</ele>
        <time>2020-09-03T13:26:40Z</time>
      </trkpt>
      <trkpt lat="44.16553" lon="5.17025">
        <ele>1550.528</ele>
        <time>2020-09-03T13:26:41Z</time>
      </trkpt>
      <trkpt lat="44.16561" lon="5.17021">
        <ele>1552.449</ele>
        <time>2020-09-03T13:26:42Z</time>
      </trkpt>
      <trkpt lat="44.16568" lon="5.17016">
        <ele>1553.654</ele>
        <time>2020-09-03T13:26:43Z</time>
      </trkpt>
      <trkpt lat="44.16573" lon="5.17008">
        <ele>1555.222</ele>
        <time>2020-09-03T13:26:44Z</time>
      </trkpt>
      <trkpt lat="44.16575" lon="5.16998">
        <ele>1556.598</ele>
        <time>2020-09-03T13:26:45Z</time>
      </trkpt>
      <trkpt lat="44.16574" lon="5.16989">
        <ele>1558.163</ele>
        <time>2020-09-03T13:26:46Z</time>
      </trkpt>
      <trkpt lat="44.1656" lon="5.16982">
        <ele>1560.241</ele>
        <time>2020-09-03T13:26:48Z</time>
      </trkpt>
      <trkpt lat="44.1656" lon="5.16982">
        <ele>1562.56</ele>
        <time>2020-09-03T13:26:48Z</time>
      </trkpt>
      <trkpt lat="44.16547" lon="5.16995">
        <ele>1564.936</ele>
        <time>2020-09-03T13:26:50Z</time>
      </trkpt>
      <trkpt lat="44.16541" lon="5.17008">
        <ele>1566.776</ele>
        <time>2020-09-03T13:26:51Z</time>
      </trkpt>
      <trkpt lat="44.16539" lon="5.17022">
        <ele>1568.543</ele>
        <time>2020-09-03T13:26:52Z</time>
      </trkpt>
      <trkpt lat="44.16541" lon="5.17035">
        <ele>1570.343</ele>
        <time>2020-09-03T13:26:53Z</time>
      </trkpt>
      <trkpt lat="44.16546" lon="5.17047">
        <ele>1571.335</ele>
        <time>2020-09-03T13:26:54Z</time>
      </trkpt>
      <trkpt lat="44.16553" lon="5.17057">
        <ele>1573.206</ele>
        <time>2020-09-03T13:26:55Z</time>
      </trkpt>
      <trkpt lat="44.1656" lon="5.17066">
        <ele>1575.628</ele>
        <time>2020-09-03T13:26:56Z</time>
      </trkpt>
      <trkpt lat="44.16567" lon="5.17073">
        <ele>1578.083</ele>
        <time>2020-09-03T13:26:57Z</time>
      </trkpt>
      <trkpt lat="44.16573" lon="5.17079">
        <ele>1580.544</ele>
        <time>2020-09-03T13:26:58Z</time>
      </trkpt>
      <trkpt lat="44.16579" lon="5.17086">
        <ele>1582.506</ele>
        <time>2020-09-03T13:26:59Z</time>
      </trkpt>
      <trkpt lat="44.16587" lon="5.1709">
        <ele>1583.795</ele>
        <time>2020-09-03T13:27:00Z</time>
      </trkpt>
      <trkpt lat="44.16595" lon="5.17092">
        <ele>1584.445</ele>
        <time>2020-09-03T13:27:01Z</time>
      </trkpt>
      <trkpt lat="44.16605" lon="5.17091">
        <ele>1585.078</ele>
        <time>2020-09-03T13:27:02Z</time>
      </trkpt>
      <trkpt lat="44.16614" lon="5.17086">
        <ele>1586.022</ele>
        <time>2020-09-03T13:27:03Z</time>
      </trkpt>
      <trkpt lat="44.16621" lon="5.17079">
        <ele>1587.253</ele>
        <time>2020-09-03T13:27:04Z</time>
      </trkpt>
      <trkpt lat="44.16627" lon="5.1707">
        <ele>1588.951</ele>
        <time>2020-09-03T13:27:05Z</time>
      </trkpt>
      <trkpt lat="44.1663" lon="5.17059">
        <ele>1591.171</ele>
        <time>2020-09-03T13:27:06Z</time>
      </trkpt>
      <trkpt lat="44.1663" lon="5.17048">
        <ele>1593.595</ele>
        <time>2020-09-03T13:27:07Z</time>
      </trkpt>
      <trkpt lat="44.16628" lon="5.17037">
        <ele>1595.885</ele>
        <time>2020-09-03T13:27:08Z</time>
      </trkpt>
      <trkpt lat="44.16622" lon="5.17018">
        <ele>1598.999</ele>
        <time>2020-09-03T13:27:10Z</time>
      </trkpt>
      <trkpt lat="44.16616" lon="5.17013">
        <ele>1601.463</ele>
        <time>2020-09-03T13:27:11Z</time>
      </trkpt>
      <trkpt lat="44.16608" lon="5.17011">
        <ele>1603.678</ele>
        <time>2020-09-03T13:27:12Z</time>
      </trkpt>
      <trkpt lat="44.16601" lon="5.17012">
        <ele>1606.074</ele>
        <time>2020-09-03T13:27:13Z</time>
      </trkpt>
      <trkpt lat="44.16594" lon="5.17018">
        <ele>1608.757</ele>
        <time>2020-09-03T13:27:14Z</time>
      </trkpt>
      <trkpt lat="44.16589" lon="5.17027">
        <ele>1611.032</ele>
        <time>2020-09-03T13:27:15Z</time>
      </trkpt>
      <trkpt lat="44.16587" lon="5.17039">
        <ele>1613.582</ele>
        <time>2020-09-03T13:27:16Z</time>
      </trkpt>
      <trkpt lat="44.16591" lon="5.17052">
        <ele>1615.249</ele>
        <time>2020-09-03T13:27:17Z</time>
      </trkpt>
      <trkpt lat="44.16601" lon="5.17061">
        <ele>1616.434</ele>
        <time>2020-09-03T13:27:18Z</time>
      </trkpt>
      <trkpt lat="44.16613" lon="5.17065">
        <ele>1617.267</ele>
        <time>2020-09-03T13:27:19Z</time>
      </trkpt>
      <trkpt lat="44.16624" lon="5.17065">
        <ele>1618.458</ele>
        <time>2020-09-03T13:27:20Z</time>
      </trkpt>
      <trkpt lat="44.16635" lon="5.17063">
        <ele>1619.332</ele>
        <time>2020-09-03T13:27:21Z</time>
      </trkpt>
      <trkpt lat="44.16644" lon="5.17059">
        <ele>1622.133</ele>
        <time>2020-09-03T13:27:22Z</time>
      </trkpt>
      <trkpt lat="44.1665" lon="5.17051">
        <ele>1624.719</ele>
        <time>2020-09-03T13:27:23Z</time>
      </trkpt>
      <trkpt lat="44.16653" lon="5.1704">
        <ele>1627.119</ele>
        <time>2020-09-03T13:27:24Z</time>
      </trkpt>
      <trkpt lat="44.16655" lon="5.17028">
        <ele>1629.406</ele>
        <time>2020-09-03T13:27:25Z</time>
      </trkpt>
      <trkpt lat="44.16655" lon="5.17016">
        <ele>1631.421</ele>
        <time>2020-09-03T13:27:26Z</time>
      </trkpt>
      <trkpt lat="44.16651" lon="5.17007">
        <ele>1634.09</ele>
        <time>2020-09-03T13:27:27Z</time>
      </trkpt>
      <trkpt lat="44.16645" lon="5.17003">
        <ele>1637.465</ele>
        <time>2020-09-03T13:27:28Z</time>
      </trkpt>
      <trkpt lat="44.16638" lon="5.17004">
        <ele>1640.591</ele>
        <time>2020-09-03T13:27:29Z</time>
      </trkpt>
      <trkpt lat="44.16633" lon="5.17009">
        <ele>1644.119</ele>
        <time>2020-09-03T13:27:30Z</time>
      </trkpt>
      <trkpt lat="44.16626" lon="5.17033">
        <ele>1646.624</ele>
        <time>2020-09-03T13:27:32Z</time>
      </trkpt>
      <trkpt lat="44.1663" lon="5.17049">
        <ele>1648.826</ele>
        <time>2020-09-03T13:27:33Z</time>
      </trkpt>
      <trkpt lat="44.16638" lon="5.1706">
        <ele>1650.305</ele>
        <time>2020-09-03T13:27:34Z</time>
      </trkpt>
      <trkpt lat="44.16649" lon="5.17063">
        <ele>1652.102</ele>
        <time>2020-09-03T13:27:35Z</time>
      </trkpt>
      <trkpt lat="44.16659" lon="5.1706">
        <ele>1653.779</ele>
        <time>2020-09-03T13:27:36Z</time>
      </trkpt>
      <trkpt lat="44.16667" lon="5.17054">
        <ele>1656.069</ele>
        <time>2020-09-03T13:27:37Z</time>
      </trkpt>
      <trkpt lat="44.16671" lon="5.17044">
        <ele>1658.333</ele>
        <time>2020-09-03T13:27:38Z</time>
      </trkpt>
      <trkpt lat="44.16671" lon="5.17034">
        <ele>1660.317</ele>
        <time>2020-09-03T13:27:39Z</time>
      </trkpt>
      <trkpt lat="44.16671" lon="5.17034">
        <ele>1662.206</ele>
        <time>2020-09-03T13:27:39Z</time>
      </trkpt>
      <trkpt lat="44.16671" lon="5.17034">
        <ele>1664.198</ele>
        <time>2020-09-03T13:27:39Z</time>
      </trkpt>
      <trkpt lat="44.16671" lon="5.17034">
        <ele>1666.855</ele>
        <time>2020-09-03T13:27:39Z</time>
      </trkpt>
      <trkpt lat="44.16671" lon="5.17034">
        <ele>1669.487</ele>
        <time>2020-09-03T13:27:39Z</time>
      </trkpt>
      <trkpt lat="44.16643" lon="5.17011">
        <ele>1672.029</ele>
        <time>2020-09-03T13:27:44Z</time>
      </trkpt>
      <trkpt lat="44.16643" lon="5.17011">
        <ele>1674.099</ele>
        <time>2020-09-03T13:27:44Z</time>
      </trkpt>
      <trkpt lat="44.16631" lon="5.17026">
        <ele>1675.622</ele>
        <time>2020-09-03T13:27:46Z</time>
      </trkpt>
      <trkpt lat="44.1663" lon="5.17053">
        <ele>1676.745</ele>
        <time>2020-09-03T13:27:48Z</time>
      </trkpt>
      <trkpt lat="44.1663" lon="5.17053">
        <ele>1677.944</ele>
        <time>2020-09-03T13:27:48Z</time>
      </trkpt>
      <trkpt lat="44.16644" lon="5.17074">
        <ele>1679.025</ele>
        <time>2020-09-03T13:27:50Z</time>
      </trkpt>
      <trkpt lat="44.16653" lon="5.17081">
        <ele>1680.625</ele>
        <time>2020-09-03T13:27:51Z</time>
      </trkpt>
      <trkpt lat="44.16662" lon="5.17085">
        <ele>1682.034</ele>
        <time>2020-09-03T13:27:52Z</time>
      </trkpt>
      <trkpt lat="44.16671" lon="5.17084">
        <ele>1683.485</ele>
        <time>2020-09-03T13:27:53Z</time>
      </trkpt>
      <trkpt lat="44.16671" lon="5.17084">
        <ele>1684.61</ele>
        <time>2020-09-03T13:27:53Z</time>
      </trkpt>
      <trkpt lat="44.16686" lon="5.17073">
        <ele>1686.15</ele>
        <time>2020-09-03T13:27:55Z</time>
      </trkpt>
      <trkpt lat="44.16692" lon="5.17064">
        <ele>1687.95</ele>
        <time>2020-09-03T13:27:56Z</time>
      </trkpt>
      <trkpt lat="44.16696" lon="5.17055">
        <ele>1689.961</ele>
        <time>2020-09-03T13:27:57Z</time>
      </trkpt>
      <trkpt lat="44.16699" lon="5.17046">
        <ele>1692.553</ele>
        <time>2020-09-03T13:27:58Z</time>
      </trkpt>
      <trkpt lat="44.16702" lon="5.17037">
        <ele>1695.226</ele>
        <time>2020-09-03T13:27:59Z</time>
      </trkpt>
      <trkpt lat="44.16706" lon="5.17028">
        <ele>1697.915</ele>
        <time>2020-09-03T13:28:00Z</time>
      </trkpt>
      <trkpt lat="44.1671" lon="5.17018">
        <ele>1700.262</ele>
        <time>2020-09-03T13:28:01Z</time>
      </trkpt>
      <trkpt lat="44.16712" lon="5.17009">
        <ele>1701.793</ele>
        <time>2020-09-03T13:28:02Z</time>
      </trkpt>
      <trkpt lat="44.16711" lon="5.16999">
        <ele>1702.539</ele>
        <time>2020-09-03T13:28:03Z</time>
      </trkpt>
      <trkpt lat="44.16701" lon="5.16985">
        <ele>1703.452</ele>
        <time>2020-09-03T13:28:05Z</time>
      </trkpt>
      <trkpt lat="44.16695" lon="5.16984">
        <ele>1704.624</ele>
        <time>2020-09-03T13:28:06Z</time>
      </trkpt>
      <trkpt lat="44.16688" lon="5.16985">
        <ele>1705.857</ele>
        <time>2020-09-03T13:28:07Z</time>
      </trkpt>
      <trkpt lat="44.16682" lon="5.1699">
        <ele>1707.231</ele>
        <time>2020-09-03T13:28:08Z</time>
      </trkpt>
      <trkpt lat="44.16677" lon="5.16997">
        <ele>1708.548</ele>
        <time>2020-09-03T13:28:09Z</time>
      </trkpt>
      <trkpt lat="44.16673" lon="5.17008">
        <ele>1709.971</ele>
        <time>2020-09-03T13:28:10Z</time>
      </trkpt>
      <trkpt lat="44.1667" lon="5.17022">
        <ele>1711.472</ele>
        <time>2020-09-03T13:28:11Z</time>
      </trkpt>
      <trkpt lat="44.16669" lon="5.17037">
        <ele>1712.927</ele>
        <time>2020-09-03T13:28:12Z</time>
      </trkpt>
      <trkpt lat="44.16668" lon="5.17051">
        <ele>1714.607</ele>
        <time>2020-09-03T13:28:13Z</time>
      </trkpt>
      <trkpt lat="44.16669" lon="5.17064">
        <ele>1716.658</ele>
        <time>2020-09-03T13:28:14Z</time>
      </trkpt>
      <trkpt lat="44.16671" lon="5.17075">
        <ele>1718.636</ele>
        <time>2020-09-03T13:28:15Z</time>
      </trkpt>
      <trkpt lat="44.16674" lon="5.17085">
        <ele>1720.713</ele>
        <time>2020-09-03T13:28:16Z</time>
      </trkpt>
      <trkpt lat="44.16677" lon="5.17096">
        <ele>1722.099</ele>
        <time>2020-09-03T13:28:17Z</time>
      </trkpt>
      <trkpt lat="44.16683" lon="5.17108">
        <ele>1724.007</ele>
        <time>2020-09-03T13:28:18Z</time>
      </trkpt>
      <trkpt lat="44.16692" lon="5.17117">
        <ele>1726.334</ele>
        <time>2020-09-03T13:28:19Z</time>
      </trkpt>
      <trkpt lat="44.16702" lon="5.17118">
        <ele>1727.992</ele>
        <time>2020-09-03T13:28:20Z</time>
      </trkpt>
      <trkpt lat="44.16713" lon="5.17111">
        <ele>1729.134</ele>
        <time>2020-09-03T13:28:21Z</time>
      </trkpt>
      <trkpt lat="44.1672" lon="5.17099">
        <ele>1730.478</ele>
        <time>2020-09-03T13:28:22Z</time>
      </trkpt>
      <trkpt lat="44.1672" lon="5.17099">
        <ele>1731.884</ele>
        <time>2020-09-03T13:28:22Z</time>
      </trkpt>
      <trkpt lat="44.16717" lon="5.17068">
        <ele>1733.149</ele>
        <time>2020-09-03T13:28:25Z</time>
      </trkpt>
      <trkpt lat="44.16711" lon="5.17064">
        <ele>1734.814</ele>
        <time>2020-09-03T13:28:26Z</time>
      </trkpt>
      <trkpt lat="44.16704" lon="5.17064">
        <ele>1736.473</ele>
        <time>2020-09-03T13:28:27Z</time>
      </trkpt>
      <trkpt lat="44.16698" lon="5.17067">
        <ele>1738.012</ele>
        <time>2020-09-03T13:28:28Z</time>
      </trkpt>
      <trkpt lat="44.16691" lon="5.17074">
        <ele>1739.716</ele>
        <time>2020-09-03T13:28:29Z</time>
      </trkpt>
      <trkpt lat="44.16686" lon="5.17082">
        <ele>1741.492</ele>
        <time>2020-09-03T13:28:30Z</time>
      </trkpt>
      <trkpt lat="44.16683" lon="5.17093">
        <ele>1742.685</ele>
        <time>2020-09-03T13:28:31Z</time>
      </trkpt>
      <trkpt lat="44.16683" lon="5.17105">
        <ele>1743.651</ele>
        <time>2020-09-03T13:28:32Z</time>
      </trkpt>
      <trkpt lat="44.16684" lon="5.17117">
        <ele>1744.431</ele>
        <time>2020-09-03T13:28:33Z</time>
      </trkpt>
      <trkpt lat="44.16685" lon="5.1713">
        <ele>1745.301</ele>
        <time>2020-09-03T13:28:34Z</time>
      </trkpt>
      <trkpt lat="44.16687" lon="5.17143">
        <ele>1746.53</ele>
        <time>2020-09-03T13:28:35Z</time>
      </trkpt>
      <trkpt lat="44.16687" lon="5.17143">
        <ele>1747.693</ele>
        <time>2020-09-03T13:28:35Z</time>
      </trkpt>
      <trkpt lat="44.16687" lon="5.17143">
        <ele>1748.845</ele>
        <time>2020-09-03T13:28:35Z</time>
      </trkpt>
      <trkpt lat="44.16687" lon="5.17143">
        <ele>1750.092</ele>
        <time>2020-09-03T13:28:35Z</time>
      </trkpt>
      <trkpt lat="44.16691" lon="5.1719">
        <ele>1750.806</ele>
        <time>2020-09-03T13:28:39Z</time>
      </trkpt>
      <trkpt lat="44.16691" lon="5.1719">
        <ele>1751.282</ele>
        <time>2020-09-03T13:28:39Z</time>
      </trkpt>
      <trkpt lat="44.16691" lon="5.1719">
        <ele>1751.683</ele>
        <time>2020-09-03T13:28:39Z</time>
      </trkpt>
      <trkpt lat="44.16691" lon="5.1719">
        <ele>1752.025</ele>
        <time>2020-09-03T13:28:39Z</time>
      </trkpt>
      <trkpt lat="44.16691" lon="5.1719">
        <ele>1752.542</ele>
        <time>2020-09-03T13:28:39Z</time>
      </trkpt>
      <trkpt lat="44.16703" lon="5.17257">
        <ele>1753.216</ele>
        <time>2020-09-03T13:28:44Z</time>
      </trkpt>
      <trkpt lat="44.16722" lon="5.17269">
        <ele>1753.825</ele>
        <time>2020-09-03T13:28:46Z</time>
      </trkpt>
      <trkpt lat="44.16732" lon="5.17268">
        <ele>1754.809</ele>
        <time>2020-09-03T13:28:47Z</time>
      </trkpt>
      <trkpt lat="44.16742" lon="5.17263">
        <ele>1756.011</ele>
        <time>2020-09-03T13:28:48Z</time>
      </trkpt>
      <trkpt lat="44.16751" lon="5.17258">
        <ele>1757.75</ele>
        <time>2020-09-03T13:28:49Z</time>
      </trkpt>
      <trkpt lat="44.16759" lon="5.17252">
        <ele>1759.269</ele>
        <time>2020-09-03T13:28:50Z</time>
      </trkpt>
      <trkpt lat="44.16765" lon="5.17244">
        <ele>1760.74</ele>
        <time>2020-09-03T13:28:51Z</time>
      </trkpt>
      <trkpt lat="44.16772" lon="5.17233">
        <ele>1762.977</ele>
        <time>2020-09-03T13:28:52Z</time>
      </trkpt>
      <trkpt lat="44.16772" lon="5.17233">
        <ele>1765.088</ele>
        <time>2020-09-03T13:28:52Z</time>
      </trkpt>
      <trkpt lat="44.16793" lon="5.17201">
        <ele>1768.181</ele>
        <time>2020-09-03T13:28:55Z</time>
      </trkpt>
      <trkpt lat="44.16799" lon="5.17192">
        <ele>1772.179</ele>
        <time>2020-09-03T13:28:56Z</time>
      </trkpt>
      <trkpt lat="44.16804" lon="5.17184">
        <ele>1775.429</ele>
        <time>2020-09-03T13:28:57Z</time>
      </trkpt>
      <trkpt lat="44.16809" lon="5.17174">
        <ele>1777.898</ele>
        <time>2020-09-03T13:28:58Z</time>
      </trkpt>
      <trkpt lat="44.16814" lon="5.17164">
        <ele>1779.909</ele>
        <time>2020-09-03T13:28:59Z</time>
      </trkpt>
      <trkpt lat="44.16814" lon="5.17154">
        <ele>1781.518</ele>
        <time>2020-09-03T13:29:00Z</time>
      </trkpt>
      <trkpt lat="44.1681" lon="5.17145">
        <ele>1782.726</ele>
        <time>2020-09-03T13:29:01Z</time>
      </trkpt>
      <trkpt lat="44.16802" lon="5.1714">
        <ele>1783.872</ele>
        <time>2020-09-03T13:29:02Z</time>
      </trkpt>
      <trkpt lat="44.16795" lon="5.17142">
        <ele>1785.418</ele>
        <time>2020-09-03T13:29:03Z</time>
      </trkpt>
      <trkpt lat="44.16789" lon="5.17149">
        <ele>1787.242</ele>
        <time>2020-09-03T13:29:04Z</time>
      </trkpt>
      <trkpt lat="44.16787" lon="5.17159">
        <ele>1788.998</ele>
        <time>2020-09-03T13:29:05Z</time>
      </trkpt>
      <trkpt lat="44.16787" lon="5.17169">
        <ele>1790.971</ele>
        <time>2020-09-03T13:29:06Z</time>
      </trkpt>
      <trkpt lat="44.16789" lon="5.1718">
        <ele>1792.697</ele>
        <time>2020-09-03T13:29:07Z</time>
      </trkpt>
      <trkpt lat="44.16795" lon="5.1719">
        <ele>1794.217</ele>
        <time>2020-09-03T13:29:08Z</time>
      </trkpt>
      <trkpt lat="44.16801" lon="5.17199">
        <ele>1795.853</ele>
        <time>2020-09-03T13:29:09Z</time>
      </trkpt>
      <trkpt lat="44.1681" lon="5.17205">
        <ele>1797.412</ele>
        <time>2020-09-03T13:29:10Z</time>
      </trkpt>
      <trkpt lat="44.1682" lon="5.17207">
        <ele>1799.176</ele>
        <time>2020-09-03T13:29:11Z</time>
      </trkpt>
      <trkpt lat="44.1683" lon="5.17204">
        <ele>1801.175</ele>
        <time>2020-09-03T13:29:12Z</time>
      </trkpt>
      <trkpt lat="44.1683" lon="5.17204">
        <ele>1802.54</ele>
        <time>2020-09-03T13:29:12Z</time>
      </trkpt>
      <trkpt lat="44.16845" lon="5.17189">
        <ele>1804.074</ele>
        <time>2020-09-03T13:29:14Z</time>
      </trkpt>
      <trkpt lat="44.16846" lon="5.17177">
        <ele>1805.103</ele>
        <time>2020-09-03T13:29:15Z</time>
      </trkpt>
      <trkpt lat="44.16844" lon="5.17166">
        <ele>1806.35</ele>
        <time>2020-09-03T13:29:16Z</time>
      </trkpt>
      <trkpt lat="44.1684" lon="5.17156">
        <ele>1807.591</ele>
        <time>2020-09-03T13:29:17Z</time>
      </trkpt>
      <trkpt lat="44.1684" lon="5.17156">
        <ele>1808.983</ele>
        <time>2020-09-03T13:29:17Z</time>
      </trkpt>
      <trkpt lat="44.16822" lon="5.17146">
        <ele>1810.435</ele>
        <time>2020-09-03T13:29:20Z</time>
      </trkpt>
      <trkpt lat="44.16816" lon="5.17149">
        <ele>1811.77</ele>
        <time>2020-09-03T13:29:21Z</time>
      </trkpt>
      <trkpt lat="44.16811" lon="5.17153">
        <ele>1812.65</ele>
        <time>2020-09-03T13:29:22Z</time>
      </trkpt>
      <trkpt lat="44.16806" lon="5.17159">
        <ele>1813.18</ele>
        <time>2020-09-03T13:29:23Z</time>
      </trkpt>
      <trkpt lat="44.16802" lon="5.17166">
        <ele>1813.637</ele>
        <time>2020-09-03T13:29:24Z</time>
      </trkpt>
      <trkpt lat="44.16799" lon="5.17174">
        <ele>1814.114</ele>
        <time>2020-09-03T13:29:25Z</time>
      </trkpt>
      <trkpt lat="44.16797" lon="5.17184">
        <ele>1814.472</ele>
        <time>2020-09-03T13:29:26Z</time>
      </trkpt>
      <trkpt lat="44.16797" lon="5.17194">
        <ele>1814.561</ele>
        <time>2020-09-03T13:29:27Z</time>
      </trkpt>
      <trkpt lat="44.16797" lon="5.17205">
        <ele>1814.368</ele>
        <time>2020-09-03T13:29:28Z</time>
      </trkpt>
      <trkpt lat="44.16798" lon="5.17216">
        <ele>1814.132</ele>
        <time>2020-09-03T13:29:29Z</time>
      </trkpt>
      <trkpt lat="44.16799" lon="5.17228">
        <ele>1814.154</ele>
        <time>2020-09-03T13:29:30Z</time>
      </trkpt>
      <trkpt lat="44.16798" lon="5.17241">
        <ele>1814.589</ele>
        <time>2020-09-03T13:29:31Z</time>
      </trkpt>
      <trkpt lat="44.16797" lon="5.17254">
        <ele>1815.326</ele>
        <time>2020-09-03T13:29:32Z</time>
      </trkpt>
      <trkpt lat="44.16795" lon="5.17265">
        <ele>1816.792</ele>
        <time>2020-09-03T13:29:33Z</time>
      </trkpt>
      <trkpt lat="44.16795" lon="5.17276">
        <ele>1818.478</ele>
        <time>2020-09-03T13:29:34Z</time>
      </trkpt>
      <trkpt lat="44.16795" lon="5.17286">
        <ele>1820.174</ele>
        <time>2020-09-03T13:29:35Z</time>
      </trkpt>
      <trkpt lat="44.16795" lon="5.17296">
        <ele>1821.57</ele>
        <time>2020-09-03T13:29:36Z</time>
      </trkpt>
      <trkpt lat="44.16795" lon="5.17307">
        <ele>1821.905</ele>
        <time>2020-09-03T13:29:37Z</time>
      </trkpt>
      <trkpt lat="44.16797" lon="5.17318">
        <ele>1821.378</ele>
        <time>2020-09-03T13:29:38Z</time>
      </trkpt>
      <trkpt lat="44.16808" lon="5.17342">
        <ele>1820.351</ele>
        <time>2020-09-03T13:29:40Z</time>
      </trkpt>
      <trkpt lat="44.16816" lon="5.17352">
        <ele>1819.571</ele>
        <time>2020-09-03T13:29:41Z</time>
      </trkpt>
      <trkpt lat="44.16826" lon="5.17357">
        <ele>1818.942</ele>
        <time>2020-09-03T13:29:42Z</time>
      </trkpt>
      <trkpt lat="44.16837" lon="5.17353">
        <ele>1817.309</ele>
        <time>2020-09-03T13:29:43Z</time>
      </trkpt>
      <trkpt lat="44.16845" lon="5.17341">
        <ele>1815.419</ele>
        <time>2020-09-03T13:29:44Z</time>
      </trkpt>
      <trkpt lat="44.16851" lon="5.17326">
        <ele>1814.995</ele>
        <time>2020-09-03T13:29:45Z</time>
      </trkpt>
      <trkpt lat="44.16855" lon="5.17316">
        <ele>1817.111</ele>
        <time>2020-09-03T13:29:46Z</time>
      </trkpt>
      <trkpt lat="44.16859" lon="5.1731">
        <ele>1820.419</ele>
        <time>2020-09-03T13:29:47Z</time>
      </trkpt>
      <trkpt lat="44.16862" lon="5.17304">
        <ele>1825.038</ele>
        <time>2020-09-03T13:29:48Z</time>
      </trkpt>
      <trkpt lat="44.16865" lon="5.17297">
        <ele>1827.295</ele>
        <time>2020-09-03T13:29:49Z</time>
      </trkpt>
      <trkpt lat="44.16869" lon="5.17288">
        <ele>1827.824</ele>
        <time>2020-09-03T13:29:50Z</time>
      </trkpt>
      <trkpt lat="44.16875" lon="5.1728">
        <ele>1826.915</ele>
        <time>2020-09-03T13:29:51Z</time>
      </trkpt>
      <trkpt lat="44.1688" lon="5.17266">
        <ele>1825.515</ele>
        <time>2020-09-03T13:29:52Z</time>
      </trkpt>
      <trkpt lat="44.16883" lon="5.17253">
        <ele>1825.694</ele>
        <time>2020-09-03T13:29:53Z</time>
      </trkpt>
      <trkpt lat="44.16885" lon="5.1724">
        <ele>1827.321</ele>
        <time>2020-09-03T13:29:54Z</time>
      </trkpt>
      <trkpt lat="44.16886" lon="5.17229">
        <ele>1830.102</ele>
        <time>2020-09-03T13:29:55Z</time>
      </trkpt>
      <trkpt lat="44.16887" lon="5.17219">
        <ele>1832.839</ele>
        <time>2020-09-03T13:29:56Z</time>
      </trkpt>
      <trkpt lat="44.16887" lon="5.17219">
        <ele>1834.952</ele>
        <time>2020-09-03T13:29:56Z</time>
      </trkpt>
      <trkpt lat="44.16887" lon="5.17219">
        <ele>1836.142</ele>
        <time>2020-09-03T13:29:56Z</time>
      </trkpt>
      <trkpt lat="44.16894" lon="5.17193">
        <ele>1836.99</ele>
        <time>2020-09-03T13:29:59Z</time>
      </trkpt>
      <trkpt lat="44.16894" lon="5.17193">
        <ele>1837.251</ele>
        <time>2020-09-03T13:29:59Z</time>
      </trkpt>
      <trkpt lat="44.16899" lon="5.17156">
        <ele>1837.366</ele>
        <time>2020-09-03T13:30:02Z</time>
      </trkpt>
      <trkpt lat="44.16898" lon="5.17143">
        <ele>1837.733</ele>
        <time>2020-09-03T13:30:03Z</time>
      </trkpt>
      <trkpt lat="44.16895" lon="5.17133">
        <ele>1838.98</ele>
        <time>2020-09-03T13:30:04Z</time>
      </trkpt>
      <trkpt lat="44.16892" lon="5.17124">
        <ele>1840.029</ele>
        <time>2020-09-03T13:30:05Z</time>
      </trkpt>
      <trkpt lat="44.16887" lon="5.17115">
        <ele>1840.653</ele>
        <time>2020-09-03T13:30:06Z</time>
      </trkpt>
      <trkpt lat="44.16881" lon="5.17108">
        <ele>1840.78</ele>
        <time>2020-09-03T13:30:07Z</time>
      </trkpt>
      <trkpt lat="44.16874" lon="5.17103">
        <ele>1840.657</ele>
        <time>2020-09-03T13:30:08Z</time>
      </trkpt>
      <trkpt lat="44.16874" lon="5.17103">
        <ele>1840.608</ele>
        <time>2020-09-03T13:30:08Z</time>
      </trkpt>
      <trkpt lat="44.1686" lon="5.17101">
        <ele>1840.55</ele>
        <time>2020-09-03T13:30:10Z</time>
      </trkpt>
      <trkpt lat="44.16854" lon="5.17102">
        <ele>1840.424</ele>
        <time>2020-09-03T13:30:11Z</time>
      </trkpt>
      <trkpt lat="44.16854" lon="5.17102">
        <ele>1840.118</ele>
        <time>2020-09-03T13:30:11Z</time>
      </trkpt>
      <trkpt lat="44.16854" lon="5.17102">
        <ele>1839.541</ele>
        <time>2020-09-03T13:30:11Z</time>
      </trkpt>
      <trkpt lat="44.16835" lon="5.1711">
        <ele>1838.866</ele>
        <time>2020-09-03T13:30:14Z</time>
      </trkpt>
      <trkpt lat="44.16829" lon="5.17114">
        <ele>1838.183</ele>
        <time>2020-09-03T13:30:15Z</time>
      </trkpt>
      <trkpt lat="44.16824" lon="5.17118">
        <ele>1837.698</ele>
        <time>2020-09-03T13:30:16Z</time>
      </trkpt>
      <trkpt lat="44.16818" lon="5.17122">
        <ele>1837.036</ele>
        <time>2020-09-03T13:30:17Z</time>
      </trkpt>
      <trkpt lat="44.16811" lon="5.17127">
        <ele>1835.995</ele>
        <time>2020-09-03T13:30:18Z</time>
      </trkpt>
      <trkpt lat="44.16795" lon="5.17137">
        <ele>1834.967</ele>
        <time>2020-09-03T13:30:20Z</time>
      </trkpt>
      <trkpt lat="44.16788" lon="5.17141">
        <ele>1834.169</ele>
        <time>2020-09-03T13:30:21Z</time>
      </trkpt>
      <trkpt lat="44.1678" lon="5.17143">
        <ele>1834.228</ele>
        <time>2020-09-03T13:30:22Z</time>
      </trkpt>
      <trkpt lat="44.16773" lon="5.17145">
        <ele>1835.31</ele>
        <time>2020-09-03T13:30:23Z</time>
      </trkpt>
      <trkpt lat="44.16773" lon="5.17145">
        <ele>1836.941</ele>
        <time>2020-09-03T13:30:23Z</time>
      </trkpt>
      <trkpt lat="44.16763" lon="5.17144">
        <ele>1838.976</ele>
        <time>2020-09-03T13:30:25Z</time>
      </trkpt>
      <trkpt lat="44.16758" lon="5.17145">
        <ele>1841.002</ele>
        <time>2020-09-03T13:30:26Z</time>
      </trkpt>
      <trkpt lat="44.16753" lon="5.17148">
        <ele>1843.045</ele>
        <time>2020-09-03T13:30:27Z</time>
      </trkpt>
      <trkpt lat="44.1675" lon="5.17156">
        <ele>1845.242</ele>
        <time>2020-09-03T13:30:28Z</time>
      </trkpt>
      <trkpt lat="44.16751" lon="5.17166">
        <ele>1846.56</ele>
        <time>2020-09-03T13:30:29Z</time>
      </trkpt>
      <trkpt lat="44.16758" lon="5.17176">
        <ele>1846.828</ele>
        <time>2020-09-03T13:30:30Z</time>
      </trkpt>
      <trkpt lat="44.16768" lon="5.17183">
        <ele>1846.608</ele>
        <time>2020-09-03T13:30:31Z</time>
      </trkpt>
      <trkpt lat="44.16779" lon="5.17188">
        <ele>1846.331</ele>
        <time>2020-09-03T13:30:32Z</time>
      </trkpt>
      <trkpt lat="44.16779" lon="5.17188">
        <ele>1846.035</ele>
        <time>2020-09-03T13:30:32Z</time>
      </trkpt>
      <trkpt lat="44.16799" lon="5.17185">
        <ele>1845.696</ele>
        <time>2020-09-03T13:30:34Z</time>
      </trkpt>
      <trkpt lat="44.16816" lon="5.17167">
        <ele>1845.53</ele>
        <time>2020-09-03T13:30:36Z</time>
      </trkpt>
      <trkpt lat="44.16822" lon="5.17155">
        <ele>1845.529</ele>
        <time>2020-09-03T13:30:37Z</time>
      </trkpt>
      <trkpt lat="44.16824" lon="5.17144">
        <ele>1845.566</ele>
        <time>2020-09-03T13:30:38Z</time>
      </trkpt>
      <trkpt lat="44.16824" lon="5.17132">
        <ele>1845.622</ele>
        <time>2020-09-03T13:30:39Z</time>
      </trkpt>
      <trkpt lat="44.16825" lon="5.1712">
        <ele>1845.561</ele>
        <time>2020-09-03T13:30:40Z</time>
      </trkpt>
      <trkpt lat="44.16825" lon="5.17107">
        <ele>1845.458</ele>
        <time>2020-09-03T13:30:41Z</time>
      </trkpt>
      <trkpt lat="44.16825" lon="5.17094">
        <ele>1845.128</ele>
        <time>2020-09-03T13:30:42Z</time>
      </trkpt>
      <trkpt lat="44.16822" lon="5.17082">
        <ele>1844.432</ele>
        <time>2020-09-03T13:30:43Z</time>
      </trkpt>
      <trkpt lat="44.16817" lon="5.17074">
        <ele>1843.284</ele>
        <time>2020-09-03T13:30:44Z</time>
      </trkpt>
      <trkpt lat="44.1681" lon="5.17069">
        <ele>1841.892</ele>
        <time>2020-09-03T13:30:45Z</time>
      </trkpt>
      <trkpt lat="44.16802" lon="5.17068">
        <ele>1840.702</ele>
        <time>2020-09-03T13:30:46Z</time>
      </trkpt>
      <trkpt lat="44.16795" lon="5.1707">
        <ele>1839.639</ele>
        <time>2020-09-03T13:30:47Z</time>
      </trkpt>
      <trkpt lat="44.16788" lon="5.17074">
        <ele>1838.9</ele>
        <time>2020-09-03T13:30:48Z</time>
      </trkpt>
      <trkpt lat="44.16781" lon="5.17078">
        <ele>1838.479</ele>
        <time>2020-09-03T13:30:49Z</time>
      </trkpt>
      <trkpt lat="44.16774" lon="5.17081">
        <ele>1838.217</ele>
        <time>2020-09-03T13:30:50Z</time>
      </trkpt>
      <trkpt lat="44.16767" lon="5.17082">
        <ele>1838.006</ele>
        <time>2020-09-03T13:30:51Z</time>
      </trkpt>
      <trkpt lat="44.16759" lon="5.17084">
        <ele>1837.83</ele>
        <time>2020-09-03T13:30:52Z</time>
      </trkpt>
      <trkpt lat="44.1675" lon="5.17085">
        <ele>1837.724</ele>
        <time>2020-09-03T13:30:53Z</time>
      </trkpt>
      <trkpt lat="44.16742" lon="5.17088">
        <ele>1837.937</ele>
        <time>2020-09-03T13:30:54Z</time>
      </trkpt>
      <trkpt lat="44.16734" lon="5.17091">
        <ele>1838.367</ele>
        <time>2020-09-03T13:30:55Z</time>
      </trkpt>
      <trkpt lat="44.16718" lon="5.17095">
        <ele>1838.675</ele>
        <time>2020-09-03T13:30:57Z</time>
      </trkpt>
      <trkpt lat="44.16709" lon="5.17096">
        <ele>1838.817</ele>
        <time>2020-09-03T13:30:58Z</time>
      </trkpt>
      <trkpt lat="44.16709" lon="5.17096">
        <ele>1838.761</ele>
        <time>2020-09-03T13:30:58Z</time>
      </trkpt>
      <trkpt lat="44.16693" lon="5.17101">
        <ele>1838.64</ele>
        <time>2020-09-03T13:31:00Z</time>
      </trkpt>
      <trkpt lat="44.16686" lon="5.17106">
        <ele>1838.519</ele>
        <time>2020-09-03T13:31:01Z</time>
      </trkpt>
      <trkpt lat="44.16679" lon="5.17111">
        <ele>1838.396</ele>
        <time>2020-09-03T13:31:02Z</time>
      </trkpt>
      <trkpt lat="44.16673" lon="5.17117">
        <ele>1838.27</ele>
        <time>2020-09-03T13:31:03Z</time>
      </trkpt>
      <trkpt lat="44.16667" lon="5.17125">
        <ele>1837.908</ele>
        <time>2020-09-03T13:31:04Z</time>
      </trkpt>
      <trkpt lat="44.16667" lon="5.17125">
        <ele>1837.676</ele>
        <time>2020-09-03T13:31:04Z</time>
      </trkpt>
      <trkpt lat="44.16654" lon="5.17141">
        <ele>1837.237</ele>
        <time>2020-09-03T13:31:06Z</time>
      </trkpt>
      <trkpt lat="44.16645" lon="5.17148">
        <ele>1836.86</ele>
        <time>2020-09-03T13:31:07Z</time>
      </trkpt>
      <trkpt lat="44.16636" lon="5.17154">
        <ele>1836.749</ele>
        <time>2020-09-03T13:31:08Z</time>
      </trkpt>
      <trkpt lat="44.16627" lon="5.1716">
        <ele>1837.136</ele>
        <time>2020-09-03T13:31:09Z</time>
      </trkpt>
      <trkpt lat="44.16618" lon="5.17164">
        <ele>1837.773</ele>
        <time>2020-09-03T13:31:10Z</time>
      </trkpt>
      <trkpt lat="44.16611" lon="5.17169">
        <ele>1838.41</ele>
        <time>2020-09-03T13:31:11Z</time>
      </trkpt>
      <trkpt lat="44.16604" lon="5.17172">
        <ele>1838.52</ele>
        <time>2020-09-03T13:31:12Z</time>
      </trkpt>
      <trkpt lat="44.16596" lon="5.17176">
        <ele>1838.107</ele>
        <time>2020-09-03T13:31:13Z</time>
      </trkpt>
      <trkpt lat="44.16587" lon="5.1718">
        <ele>1837.565</ele>
        <time>2020-09-03T13:31:14Z</time>
      </trkpt>
      <trkpt lat="44.16577" lon="5.17186">
        <ele>1837.398</ele>
        <time>2020-09-03T13:31:15Z</time>
      </trkpt>
      <trkpt lat="44.16569" lon="5.17192">
        <ele>1837.709</ele>
        <time>2020-09-03T13:31:16Z</time>
      </trkpt>
      <trkpt lat="44.16561" lon="5.17199">
        <ele>1838.396</ele>
        <time>2020-09-03T13:31:17Z</time>
      </trkpt>
      <trkpt lat="44.16554" lon="5.17206">
        <ele>1839.274</ele>
        <time>2020-09-03T13:31:18Z</time>
      </trkpt>
      <trkpt lat="44.16546" lon="5.17212">
        <ele>1840.434</ele>
        <time>2020-09-03T13:31:19Z</time>
      </trkpt>
      <trkpt lat="44.16546" lon="5.17212">
        <ele>1841.594</ele>
        <time>2020-09-03T13:31:19Z</time>
      </trkpt>
      <trkpt lat="44.16546" lon="5.17212">
        <ele>1842.889</ele>
        <time>2020-09-03T13:31:19Z</time>
      </trkpt>
      <trkpt lat="44.16546" lon="5.17212">
        <ele>1844.484</ele>
        <time>2020-09-03T13:31:19Z</time>
      </trkpt>
      <trkpt lat="44.16546" lon="5.17212">
        <ele>1846.277</ele>
        <time>2020-09-03T13:31:19Z</time>
      </trkpt>
      <trkpt lat="44.16493" lon="5.17227">
        <ele>1849.343</ele>
        <time>2020-09-03T13:31:25Z</time>
      </trkpt>
      <trkpt lat="44.16485" lon="5.17227">
        <ele>1852.438</ele>
        <time>2020-09-03T13:31:26Z</time>
      </trkpt>
      <trkpt lat="44.16477" lon="5.17227">
        <ele>1855.697</ele>
        <time>2020-09-03T13:31:27Z</time>
      </trkpt>
      <trkpt lat="44.16471" lon="5.17232">
        <ele>1858.431</ele>
        <time>2020-09-03T13:31:28Z</time>
      </trkpt>
      <trkpt lat="44.16466" lon="5.17241">
        <ele>1861.804</ele>
        <time>2020-09-03T13:31:29Z</time>
      </trkpt>
      <trkpt lat="44.16462" lon="5.17253">
        <ele>1863.966</ele>
        <time>2020-09-03T13:31:30Z</time>
      </trkpt>
      <trkpt lat="44.16462" lon="5.17267">
        <ele>1865.898</ele>
        <time>2020-09-03T13:31:31Z</time>
      </trkpt>
      <trkpt lat="44.16468" lon="5.1728">
        <ele>1867.468</ele>
        <time>2020-09-03T13:31:32Z</time>
      </trkpt>
      <trkpt lat="44.16477" lon="5.17288">
        <ele>1868.479</ele>
        <time>2020-09-03T13:31:33Z</time>
      </trkpt>
      <trkpt lat="44.16489" lon="5.1729">
        <ele>1869.905</ele>
        <time>2020-09-03T13:31:34Z</time>
      </trkpt>
      <trkpt lat="44.165" lon="5.17286">
        <ele>1870.929</ele>
        <time>2020-09-03T13:31:35Z</time>
      </trkpt>
      <trkpt lat="44.16509" lon="5.17277">
        <ele>1871.819</ele>
        <time>2020-09-03T13:31:36Z</time>
      </trkpt>
      <trkpt lat="44.16514" lon="5.17264">
        <ele>1872.97</ele>
        <time>2020-09-03T13:31:37Z</time>
      </trkpt>
      <trkpt lat="44.16515" lon="5.17251">
        <ele>1874.089</ele>
        <time>2020-09-03T13:31:38Z</time>
      </trkpt>
      <trkpt lat="44.16511" lon="5.1724">
        <ele>1875.316</ele>
        <time>2020-09-03T13:31:39Z</time>
      </trkpt>
      <trkpt lat="44.16503" lon="5.17233">
        <ele>1876.756</ele>
        <time>2020-09-03T13:31:40Z</time>
      </trkpt>
      <trkpt lat="44.16495" lon="5.17229">
        <ele>1878.453</ele>
        <time>2020-09-03T13:31:41Z</time>
      </trkpt>
      <trkpt lat="44.16486" lon="5.17227">
        <ele>1880.61</ele>
        <time>2020-09-03T13:31:42Z</time>
      </trkpt>
      <trkpt lat="44.16478" lon="5.17227">
        <ele>1882.846</ele>
        <time>2020-09-03T13:31:43Z</time>
      </trkpt>
      <trkpt lat="44.1647" lon="5.17228">
        <ele>1885.458</ele>
        <time>2020-09-03T13:31:44Z</time>
      </trkpt>
      <trkpt lat="44.16463" lon="5.17232">
        <ele>1887.35</ele>
        <time>2020-09-03T13:31:45Z</time>
      </trkpt>
      <trkpt lat="44.1645" lon="5.17247">
        <ele>1888.811</ele>
        <time>2020-09-03T13:31:47Z</time>
      </trkpt>
      <trkpt lat="44.16445" lon="5.17257">
        <ele>1889.748</ele>
        <time>2020-09-03T13:31:48Z</time>
      </trkpt>
      <trkpt lat="44.16441" lon="5.17266">
        <ele>1890.454</ele>
        <time>2020-09-03T13:31:49Z</time>
      </trkpt>
      <trkpt lat="44.16438" lon="5.17275">
        <ele>1890.908</ele>
        <time>2020-09-03T13:31:50Z</time>
      </trkpt>
      <trkpt lat="44.16437" lon="5.17285">
        <ele>1891.213</ele>
        <time>2020-09-03T13:31:51Z</time>
      </trkpt>
      <trkpt lat="44.16437" lon="5.17296">
        <ele>1891.407</ele>
        <time>2020-09-03T13:31:52Z</time>
      </trkpt>
      <trkpt lat="44.16439" lon="5.17309">
        <ele>1891.773</ele>
        <time>2020-09-03T13:31:53Z</time>
      </trkpt>
      <trkpt lat="44.16442" lon="5.17321">
        <ele>1892.734</ele>
        <time>2020-09-03T13:31:54Z</time>
      </trkpt>
      <trkpt lat="44.16447" lon="5.17333">
        <ele>1894.271</ele>
        <time>2020-09-03T13:31:55Z</time>
      </trkpt>
      <trkpt lat="44.16463" lon="5.17346">
        <ele>1895.629</ele>
        <time>2020-09-03T13:31:57Z</time>
      </trkpt>
      <trkpt lat="44.16472" lon="5.17349">
        <ele>1897.44</ele>
        <time>2020-09-03T13:31:58Z</time>
      </trkpt>
      <trkpt lat="44.16472" lon="5.17349">
        <ele>1899.067</ele>
        <time>2020-09-03T13:31:58Z</time>
      </trkpt>
      <trkpt lat="44.16489" lon="5.17354">
        <ele>1900.546</ele>
        <time>2020-09-03T13:32:00Z</time>
      </trkpt>
      <trkpt lat="44.16497" lon="5.17353">
        <ele>1901.455</ele>
        <time>2020-09-03T13:32:01Z</time>
      </trkpt>
      <trkpt lat="44.16504" lon="5.17348">
        <ele>1902.741</ele>
        <time>2020-09-03T13:32:02Z</time>
      </trkpt>
      <trkpt lat="44.1651" lon="5.17339">
        <ele>1904.202</ele>
        <time>2020-09-03T13:32:03Z</time>
      </trkpt>
      <trkpt lat="44.1651" lon="5.17339">
        <ele>1905.256</ele>
        <time>2020-09-03T13:32:03Z</time>
      </trkpt>
      <trkpt lat="44.16511" lon="5.17315">
        <ele>1906.306</ele>
        <time>2020-09-03T13:32:05Z</time>
      </trkpt>
      <trkpt lat="44.16507" lon="5.17305">
        <ele>1908.064</ele>
        <time>2020-09-03T13:32:06Z</time>
      </trkpt>
      <trkpt lat="44.165" lon="5.173">
        <ele>1910.178</ele>
        <time>2020-09-03T13:32:07Z</time>
      </trkpt>
      <trkpt lat="44.16491" lon="5.173">
        <ele>1912.884</ele>
        <time>2020-09-03T13:32:08Z</time>
      </trkpt>
      <trkpt lat="44.16484" lon="5.17308">
        <ele>1915.773</ele>
        <time>2020-09-03T13:32:09Z</time>
      </trkpt>
      <trkpt lat="44.1648" lon="5.17323">
        <ele>1917.329</ele>
        <time>2020-09-03T13:32:10Z</time>
      </trkpt>
      <trkpt lat="44.1648" lon="5.17339">
        <ele>1918.329</ele>
        <time>2020-09-03T13:32:11Z</time>
      </trkpt>
      <trkpt lat="44.16485" lon="5.17355">
        <ele>1919.307</ele>
        <time>2020-09-03T13:32:12Z</time>
      </trkpt>
      <trkpt lat="44.1649" lon="5.17365">
        <ele>1921.537</ele>
        <time>2020-09-03T13:32:13Z</time>
      </trkpt>
      <trkpt lat="44.16496" lon="5.1737">
        <ele>1923.916</ele>
        <time>2020-09-03T13:32:14Z</time>
      </trkpt>
      <trkpt lat="44.16509" lon="5.17368">
        <ele>1925.358</ele>
        <time>2020-09-03T13:32:16Z</time>
      </trkpt>
      <trkpt lat="44.16516" lon="5.17362">
        <ele>1926.042</ele>
        <time>2020-09-03T13:32:17Z</time>
      </trkpt>
      <trkpt lat="44.1652" lon="5.17353">
        <ele>1925.719</ele>
        <time>2020-09-03T13:32:18Z</time>
      </trkpt>
      <trkpt lat="44.16524" lon="5.17342">
        <ele>1925.762</ele>
        <time>2020-09-03T13:32:19Z</time>
      </trkpt>
      <trkpt lat="44.16525" lon="5.1733">
        <ele>1926.515</ele>
        <time>2020-09-03T13:32:20Z</time>
      </trkpt>
      <trkpt lat="44.16525" lon="5.1732">
        <ele>1928.21</ele>
        <time>2020-09-03T13:32:21Z</time>
      </trkpt>
      <trkpt lat="44.16526" lon="5.17309">
        <ele>1930.47</ele>
        <time>2020-09-03T13:32:22Z</time>
      </trkpt>
      <trkpt lat="44.16527" lon="5.17298">
        <ele>1932.229</ele>
        <time>2020-09-03T13:32:23Z</time>
      </trkpt>
      <trkpt lat="44.16529" lon="5.17286">
        <ele>1934.2</ele>
        <time>2020-09-03T13:32:24Z</time>
      </trkpt>
      <trkpt lat="44.16532" lon="5.17273">
        <ele>1936.295</ele>
        <time>2020-09-03T13:32:25Z</time>
      </trkpt>
      <trkpt lat="44.16536" lon="5.17261">
        <ele>1938.469</ele>
        <time>2020-09-03T13:32:26Z</time>
      </trkpt>
      <trkpt lat="44.1654" lon="5.1725">
        <ele>1940.399</ele>
        <time>2020-09-03T13:32:27Z</time>
      </trkpt>
      <trkpt lat="44.16544" lon="5.17238">
        <ele>1941.801</ele>
        <time>2020-09-03T13:32:28Z</time>
      </trkpt>
      <trkpt lat="44.16544" lon="5.17238">
        <ele>1942.219</ele>
        <time>2020-09-03T13:32:28Z</time>
      </trkpt>
      <trkpt lat="44.16544" lon="5.17238">
        <ele>1942.744</ele>
        <time>2020-09-03T13:32:28Z</time>
      </trkpt>
      <trkpt lat="44.16544" lon="5.17238">
        <ele>1942.719</ele>
        <time>2020-09-03T13:32:28Z</time>
      </trkpt>
      <trkpt lat="44.16544" lon="5.17238">
        <ele>1942.601</ele>
        <time>2020-09-03T13:32:28Z</time>
      </trkpt>
      <trkpt lat="44.16544" lon="5.17238">
        <ele>1942.642</ele>
        <time>2020-09-03T13:32:28Z</time>
      </trkpt>
      <trkpt lat="44.16529" lon="5.17166">
        <ele>1942.865</ele>
        <time>2020-09-03T13:32:34Z</time>
      </trkpt>
      <trkpt lat="44.16516" lon="5.17152">
        <ele>1943.176</ele>
        <time>2020-09-03T13:32:36Z</time>
      </trkpt>
      <trkpt lat="44.16509" lon="5.17148">
        <ele>1943.667</ele>
        <time>2020-09-03T13:32:37Z</time>
      </trkpt>
      <trkpt lat="44.16501" lon="5.17144">
        <ele>1944.068</ele>
        <time>2020-09-03T13:32:38Z</time>
      </trkpt>
      <trkpt lat="44.16494" lon="5.17142">
        <ele>1944.49</ele>
        <time>2020-09-03T13:32:39Z</time>
      </trkpt>
      <trkpt lat="44.16486" lon="5.1714">
        <ele>1944.657</ele>
        <time>2020-09-03T13:32:40Z</time>
      </trkpt>
      <trkpt lat="44.16478" lon="5.17139">
        <ele>1944.788</ele>
        <time>2020-09-03T13:32:41Z</time>
      </trkpt>
      <trkpt lat="44.1647" lon="5.1714">
        <ele>1945.044</ele>
        <time>2020-09-03T13:32:42Z</time>
      </trkpt>
      <trkpt lat="44.16462" lon="5.17141">
        <ele>1945.711</ele>
        <time>2020-09-03T13:32:43Z</time>
      </trkpt>
      <trkpt lat="44.16455" lon="5.17143">
        <ele>1946.537</ele>
        <time>2020-09-03T13:32:44Z</time>
      </trkpt>
      <trkpt lat="44.16448" lon="5.17146">
        <ele>1947.601</ele>
        <time>2020-09-03T13:32:45Z</time>
      </trkpt>
      <trkpt lat="44.16436" lon="5.17154">
        <ele>1948.634</ele>
        <time>2020-09-03T13:32:47Z</time>
      </trkpt>
      <trkpt lat="44.1643" lon="5.17159">
        <ele>1949.187</ele>
        <time>2020-09-03T13:32:48Z</time>
      </trkpt>
      <trkpt lat="44.16424" lon="5.17163">
        <ele>1949.35</ele>
        <time>2020-09-03T13:32:49Z</time>
      </trkpt>
      <trkpt lat="44.16417" lon="5.17168">
        <ele>1949.338</ele>
        <time>2020-09-03T13:32:50Z</time>
      </trkpt>
      <trkpt lat="44.1641" lon="5.17173">
        <ele>1949.434</ele>
        <time>2020-09-03T13:32:51Z</time>
      </trkpt>
      <trkpt lat="44.16403" lon="5.17179">
        <ele>1949.829</ele>
        <time>2020-09-03T13:32:52Z</time>
      </trkpt>
      <trkpt lat="44.16396" lon="5.17185">
        <ele>1950.62</ele>
        <time>2020-09-03T13:32:53Z</time>
      </trkpt>
      <trkpt lat="44.16389" lon="5.17192">
        <ele>1951.655</ele>
        <time>2020-09-03T13:32:54Z</time>
      </trkpt>
      <trkpt lat="44.16383" lon="5.17199">
        <ele>1952.974</ele>
        <time>2020-09-03T13:32:55Z</time>
      </trkpt>
      <trkpt lat="44.16378" lon="5.17209">
        <ele>1954.574</ele>
        <time>2020-09-03T13:32:56Z</time>
      </trkpt>
      <trkpt lat="44.16376" lon="5.17219">
        <ele>1955.637</ele>
        <time>2020-09-03T13:32:57Z</time>
      </trkpt>
      <trkpt lat="44.16377" lon="5.1723">
        <ele>1956.988</ele>
        <time>2020-09-03T13:32:58Z</time>
      </trkpt>
      <trkpt lat="44.16382" lon="5.1724">
        <ele>1957.94</ele>
        <time>2020-09-03T13:32:59Z</time>
      </trkpt>
      <trkpt lat="44.1639" lon="5.17249">
        <ele>1958.693</ele>
        <time>2020-09-03T13:33:00Z</time>
      </trkpt>
      <trkpt lat="44.164" lon="5.17254">
        <ele>1959.306</ele>
        <time>2020-09-03T13:33:01Z</time>
      </trkpt>
      <trkpt lat="44.1641" lon="5.17254">
        <ele>1959.671</ele>
        <time>2020-09-03T13:33:02Z</time>
      </trkpt>
      <trkpt lat="44.16419" lon="5.17247">
        <ele>1959.462</ele>
        <time>2020-09-03T13:33:03Z</time>
      </trkpt>
      <trkpt lat="44.16427" lon="5.17237">
        <ele>1959.064</ele>
        <time>2020-09-03T13:33:04Z</time>
      </trkpt>
      <trkpt lat="44.1643" lon="5.1722">
        <ele>1959.03</ele>
        <time>2020-09-03T13:33:05Z</time>
      </trkpt>
      <trkpt lat="44.16431" lon="5.17203">
        <ele>1959.789</ele>
        <time>2020-09-03T13:33:06Z</time>
      </trkpt>
      <trkpt lat="44.16429" lon="5.17174">
        <ele>1961.247</ele>
        <time>2020-09-03T13:33:08Z</time>
      </trkpt>
      <trkpt lat="44.16426" lon="5.17161">
        <ele>1963.528</ele>
        <time>2020-09-03T13:33:09Z</time>
      </trkpt>
      <trkpt lat="44.16422" lon="5.1715">
        <ele>1964.899</ele>
        <time>2020-09-03T13:33:10Z</time>
      </trkpt>
      <trkpt lat="44.16417" lon="5.1714">
        <ele>1965.85</ele>
        <time>2020-09-03T13:33:11Z</time>
      </trkpt>
      <trkpt lat="44.1641" lon="5.17131">
        <ele>1966.273</ele>
        <time>2020-09-03T13:33:12Z</time>
      </trkpt>
      <trkpt lat="44.16401" lon="5.17124">
        <ele>1966.387</ele>
        <time>2020-09-03T13:33:13Z</time>
      </trkpt>
      <trkpt lat="44.16393" lon="5.17119">
        <ele>1966.662</ele>
        <time>2020-09-03T13:33:14Z</time>
      </trkpt>
      <trkpt lat="44.16384" lon="5.17118">
        <ele>1967.31</ele>
        <time>2020-09-03T13:33:15Z</time>
      </trkpt>
      <trkpt lat="44.16377" lon="5.17116">
        <ele>1968.555</ele>
        <time>2020-09-03T13:33:16Z</time>
      </trkpt>
      <trkpt lat="44.1637" lon="5.17114">
        <ele>1970.088</ele>
        <time>2020-09-03T13:33:17Z</time>
      </trkpt>
      <trkpt lat="44.16362" lon="5.17112">
        <ele>1971.819</ele>
        <time>2020-09-03T13:33:18Z</time>
      </trkpt>
      <trkpt lat="44.16355" lon="5.1711">
        <ele>1973.38</ele>
        <time>2020-09-03T13:33:19Z</time>
      </trkpt>
      <trkpt lat="44.16349" lon="5.17108">
        <ele>1974.905</ele>
        <time>2020-09-03T13:33:20Z</time>
      </trkpt>
      <trkpt lat="44.16342" lon="5.17106">
        <ele>1976.548</ele>
        <time>2020-09-03T13:33:21Z</time>
      </trkpt>
      <trkpt lat="44.16335" lon="5.17105">
        <ele>1978.106</ele>
        <time>2020-09-03T13:33:22Z</time>
      </trkpt>
      <trkpt lat="44.16328" lon="5.17106">
        <ele>1979.639</ele>
        <time>2020-09-03T13:33:23Z</time>
      </trkpt>
      <trkpt lat="44.16321" lon="5.1711">
        <ele>1980.976</ele>
        <time>2020-09-03T13:33:24Z</time>
      </trkpt>
      <trkpt lat="44.16321" lon="5.1711">
        <ele>1982.109</ele>
        <time>2020-09-03T13:33:24Z</time>
      </trkpt>
      <trkpt lat="44.16315" lon="5.17132">
        <ele>1983.429</ele>
        <time>2020-09-03T13:33:26Z</time>
      </trkpt>
      <trkpt lat="44.16317" lon="5.17145">
        <ele>1984.764</ele>
        <time>2020-09-03T13:33:27Z</time>
      </trkpt>
      <trkpt lat="44.16325" lon="5.17155">
        <ele>1985.908</ele>
        <time>2020-09-03T13:33:28Z</time>
      </trkpt>
      <trkpt lat="44.16344" lon="5.1716">
        <ele>1986.952</ele>
        <time>2020-09-03T13:33:30Z</time>
      </trkpt>
      <trkpt lat="44.16354" lon="5.17154">
        <ele>1987.661</ele>
        <time>2020-09-03T13:33:31Z</time>
      </trkpt>
      <trkpt lat="44.16361" lon="5.17144">
        <ele>1988.196</ele>
        <time>2020-09-03T13:33:32Z</time>
      </trkpt>
      <trkpt lat="44.16366" lon="5.17133">
        <ele>1988.576</ele>
        <time>2020-09-03T13:33:33Z</time>
      </trkpt>
      <trkpt lat="44.16368" lon="5.17121">
        <ele>1988.709</ele>
        <time>2020-09-03T13:33:34Z</time>
      </trkpt>
      <trkpt lat="44.16367" lon="5.1711">
        <ele>1988.73</ele>
        <time>2020-09-03T13:33:35Z</time>
      </trkpt>
      <trkpt lat="44.16364" lon="5.17099">
        <ele>1988.756</ele>
        <time>2020-09-03T13:33:36Z</time>
      </trkpt>
      <trkpt lat="44.16359" lon="5.1709">
        <ele>1988.862</ele>
        <time>2020-09-03T13:33:37Z</time>
      </trkpt>
      <trkpt lat="44.16352" lon="5.17083">
        <ele>1989.256</ele>
        <time>2020-09-03T13:33:38Z</time>
      </trkpt>
      <trkpt lat="44.16344" lon="5.17079">
        <ele>1989.872</ele>
        <time>2020-09-03T13:33:39Z</time>
      </trkpt>
      <trkpt lat="44.16344" lon="5.17079">
        <ele>1990.979</ele>
        <time>2020-09-03T13:33:39Z</time>
      </trkpt>
      <trkpt lat="44.16344" lon="5.17079">
        <ele>1992.698</ele>
        <time>2020-09-03T13:33:39Z</time>
      </trkpt>
      <trkpt lat="44.16344" lon="5.17079">
        <ele>1994.529</ele>
        <time>2020-09-03T13:33:39Z</time>
      </trkpt>
      <trkpt lat="44.16344" lon="5.17079">
        <ele>1996.387</ele>
        <time>2020-09-03T13:33:39Z</time>
      </trkpt>
      <trkpt lat="44.16308" lon="5.17077">
        <ele>1998.631</ele>
        <time>2020-09-03T13:33:44Z</time>
      </trkpt>
      <trkpt lat="44.16308" lon="5.17077">
        <ele>2000.498</ele>
        <time>2020-09-03T13:33:44Z</time>
      </trkpt>
      <trkpt lat="44.16295" lon="5.17074">
        <ele>2002.009</ele>
        <time>2020-09-03T13:33:46Z</time>
      </trkpt>
      <trkpt lat="44.16288" lon="5.17071">
        <ele>2003.663</ele>
        <time>2020-09-03T13:33:47Z</time>
      </trkpt>
      <trkpt lat="44.16281" lon="5.1707">
        <ele>2005.011</ele>
        <time>2020-09-03T13:33:48Z</time>
      </trkpt>
      <trkpt lat="44.16274" lon="5.17072">
        <ele>2006.193</ele>
        <time>2020-09-03T13:33:49Z</time>
      </trkpt>
      <trkpt lat="44.16267" lon="5.17079">
        <ele>2007.346</ele>
        <time>2020-09-03T13:33:50Z</time>
      </trkpt>
      <trkpt lat="44.16263" lon="5.17089">
        <ele>2007.976</ele>
        <time>2020-09-03T13:33:51Z</time>
      </trkpt>
      <trkpt lat="44.16264" lon="5.17112">
        <ele>2008.186</ele>
        <time>2020-09-03T13:33:53Z</time>
      </trkpt>
      <trkpt lat="44.16264" lon="5.17112">
        <ele>2008.351</ele>
        <time>2020-09-03T13:33:53Z</time>
      </trkpt>
      <trkpt lat="44.16278" lon="5.17132">
        <ele>2008.449</ele>
        <time>2020-09-03T13:33:55Z</time>
      </trkpt>
      <trkpt lat="44.16287" lon="5.17137">
        <ele>2008.755</ele>
        <time>2020-09-03T13:33:56Z</time>
      </trkpt>
      <trkpt lat="44.16296" lon="5.1714">
        <ele>2009.062</ele>
        <time>2020-09-03T13:33:57Z</time>
      </trkpt>
      <trkpt lat="44.16305" lon="5.17139">
        <ele>2009.128</ele>
        <time>2020-09-03T13:33:58Z</time>
      </trkpt>
      <trkpt lat="44.16314" lon="5.17136">
        <ele>2008.852</ele>
        <time>2020-09-03T13:33:59Z</time>
      </trkpt>
      <trkpt lat="44.16321" lon="5.1713">
        <ele>2007.829</ele>
        <time>2020-09-03T13:34:00Z</time>
      </trkpt>
      <trkpt lat="44.16321" lon="5.1713">
        <ele>2006.518</ele>
        <time>2020-09-03T13:34:00Z</time>
      </trkpt>
      <trkpt lat="44.16336" lon="5.17093">
        <ele>2004.74</ele>
        <time>2020-09-03T13:34:03Z</time>
      </trkpt>
      <trkpt lat="44.16335" lon="5.17077">
        <ele>2003.508</ele>
        <time>2020-09-03T13:34:04Z</time>
      </trkpt>
      <trkpt lat="44.1633" lon="5.17063">
        <ele>2003.166</ele>
        <time>2020-09-03T13:34:05Z</time>
      </trkpt>
      <trkpt lat="44.16323" lon="5.1705">
        <ele>2003.455</ele>
        <time>2020-09-03T13:34:06Z</time>
      </trkpt>
      <trkpt lat="44.16315" lon="5.1704">
        <ele>2004.371</ele>
        <time>2020-09-03T13:34:07Z</time>
      </trkpt>
      <trkpt lat="44.16307" lon="5.17033">
        <ele>2006.108</ele>
        <time>2020-09-03T13:34:08Z</time>
      </trkpt>
      <trkpt lat="44.16299" lon="5.17024">
        <ele>2008.265</ele>
        <time>2020-09-03T13:34:09Z</time>
      </trkpt>
      <trkpt lat="44.16292" lon="5.17017">
        <ele>2010.451</ele>
        <time>2020-09-03T13:34:10Z</time>
      </trkpt>
      <trkpt lat="44.16286" lon="5.17009">
        <ele>2012.194</ele>
        <time>2020-09-03T13:34:11Z</time>
      </trkpt>
      <trkpt lat="44.1628" lon="5.17002">
        <ele>2013.645</ele>
        <time>2020-09-03T13:34:12Z</time>
      </trkpt>
      <trkpt lat="44.16274" lon="5.16994">
        <ele>2014.383</ele>
        <time>2020-09-03T13:34:13Z</time>
      </trkpt>
      <trkpt lat="44.16268" lon="5.16984">
        <ele>2014.803</ele>
        <time>2020-09-03T13:34:14Z</time>
      </trkpt>
      <trkpt lat="44.16263" lon="5.16973">
        <ele>2015.017</ele>
        <time>2020-09-03T13:34:15Z</time>
      </trkpt>
      <trkpt lat="44.16259" lon="5.16959">
        <ele>2015.052</ele>
        <time>2020-09-03T13:34:16Z</time>
      </trkpt>
      <trkpt lat="44.16259" lon="5.16959">
        <ele>2014.556</ele>
        <time>2020-09-03T13:34:16Z</time>
      </trkpt>
      <trkpt lat="44.16258" lon="5.16932">
        <ele>2012.364</ele>
        <time>2020-09-03T13:34:18Z</time>
      </trkpt>
      <trkpt lat="44.16263" lon="5.16921">
        <ele>2009.626</ele>
        <time>2020-09-03T13:34:19Z</time>
      </trkpt>
      <trkpt lat="44.1628" lon="5.16907">
        <ele>2006.006</ele>
        <time>2020-09-03T13:34:21Z</time>
      </trkpt>
      <trkpt lat="44.16288" lon="5.16906">
        <ele>2003.603</ele>
        <time>2020-09-03T13:34:22Z</time>
      </trkpt>
      <trkpt lat="44.16296" lon="5.1691">
        <ele>2001.134</ele>
        <time>2020-09-03T13:34:23Z</time>
      </trkpt>
      <trkpt lat="44.163" lon="5.16918">
        <ele>1996.806</ele>
        <time>2020-09-03T13:34:24Z</time>
      </trkpt>
      <trkpt lat="44.16302" lon="5.16929">
        <ele>1993.981</ele>
        <time>2020-09-03T13:34:25Z</time>
      </trkpt>
      <trkpt lat="44.16302" lon="5.16938">
        <ele>1992.234</ele>
        <time>2020-09-03T13:34:26Z</time>
      </trkpt>
      <trkpt lat="44.16303" lon="5.16947">
        <ele>1991.44</ele>
        <time>2020-09-03T13:34:27Z</time>
      </trkpt>
      <trkpt lat="44.16303" lon="5.16955">
        <ele>1991.047</ele>
        <time>2020-09-03T13:34:28Z</time>
      </trkpt>
      <trkpt lat="44.16302" lon="5.16963">
        <ele>1990.552</ele>
        <time>2020-09-03T13:34:29Z</time>
      </trkpt>
      <trkpt lat="44.16302" lon="5.16963">
        <ele>1990.041</ele>
        <time>2020-09-03T13:34:29Z</time>
      </trkpt>
      <trkpt lat="44.16299" lon="5.16983">
        <ele>1989.751</ele>
        <time>2020-09-03T13:34:31Z</time>
      </trkpt>
      <trkpt lat="44.16296" lon="5.16992">
        <ele>1989.646</ele>
        <time>2020-09-03T13:34:32Z</time>
      </trkpt>
      <trkpt lat="44.16292" lon="5.17002">
        <ele>1989.715</ele>
        <time>2020-09-03T13:34:33Z</time>
      </trkpt>
      <trkpt lat="44.16288" lon="5.17012">
        <ele>1989.859</ele>
        <time>2020-09-03T13:34:34Z</time>
      </trkpt>
      <trkpt lat="44.16288" lon="5.17012">
        <ele>1990.091</ele>
        <time>2020-09-03T13:34:34Z</time>
      </trkpt>
      <trkpt lat="44.16288" lon="5.17012">
        <ele>1990.256</ele>
        <time>2020-09-03T13:34:34Z</time>
      </trkpt>
      <trkpt lat="44.16288" lon="5.17012">
        <ele>1990.38</ele>
        <time>2020-09-03T13:34:34Z</time>
      </trkpt>
      <trkpt lat="44.16288" lon="5.17012">
        <ele>1990.505</ele>
        <time>2020-09-03T13:34:34Z</time>
      </trkpt>
      <trkpt lat="44.16251" lon="5.17042">
        <ele>1990.577</ele>
        <time>2020-09-03T13:34:39Z</time>
      </trkpt>
      <trkpt lat="44.16251" lon="5.17042">
        <ele>1990.587</ele>
        <time>2020-09-03T13:34:39Z</time>
      </trkpt>
      <trkpt lat="44.16231" lon="5.17048">
        <ele>1990.693</ele>
        <time>2020-09-03T13:34:41Z</time>
      </trkpt>
      <trkpt lat="44.16221" lon="5.1705">
        <ele>1990.968</ele>
        <time>2020-09-03T13:34:42Z</time>
      </trkpt>
      <trkpt lat="44.16212" lon="5.17052">
        <ele>1991.387</ele>
        <time>2020-09-03T13:34:43Z</time>
      </trkpt>
      <trkpt lat="44.16194" lon="5.17055">
        <ele>1991.657</ele>
        <time>2020-09-03T13:34:45Z</time>
      </trkpt>
      <trkpt lat="44.16184" lon="5.17056">
        <ele>1991.299</ele>
        <time>2020-09-03T13:34:46Z</time>
      </trkpt>
      <trkpt lat="44.16174" lon="5.17055">
        <ele>1990.497</ele>
        <time>2020-09-03T13:34:47Z</time>
      </trkpt>
      <trkpt lat="44.16165" lon="5.17055">
        <ele>1989.642</ele>
        <time>2020-09-03T13:34:48Z</time>
      </trkpt>
      <trkpt lat="44.16155" lon="5.17055">
        <ele>1989.024</ele>
        <time>2020-09-03T13:34:49Z</time>
      </trkpt>
      <trkpt lat="44.16145" lon="5.17055">
        <ele>1987.691</ele>
        <time>2020-09-03T13:34:50Z</time>
      </trkpt>
      <trkpt lat="44.16145" lon="5.17055">
        <ele>1986.217</ele>
        <time>2020-09-03T13:34:50Z</time>
      </trkpt>
      <trkpt lat="44.16125" lon="5.17055">
        <ele>1984.333</ele>
        <time>2020-09-03T13:34:52Z</time>
      </trkpt>
      <trkpt lat="44.16115" lon="5.17057">
        <ele>1982.124</ele>
        <time>2020-09-03T13:34:53Z</time>
      </trkpt>
      <trkpt lat="44.16094" lon="5.17059">
        <ele>1979.7</ele>
        <time>2020-09-03T13:34:55Z</time>
      </trkpt>
      <trkpt lat="44.16083" lon="5.17059">
        <ele>1977.581</ele>
        <time>2020-09-03T13:34:56Z</time>
      </trkpt>
      <trkpt lat="44.16072" lon="5.1706">
        <ele>1975.765</ele>
        <time>2020-09-03T13:34:57Z</time>
      </trkpt>
      <trkpt lat="44.16061" lon="5.17061">
        <ele>1974.288</ele>
        <time>2020-09-03T13:34:58Z</time>
      </trkpt>
      <trkpt lat="44.16049" lon="5.17062">
        <ele>1973.072</ele>
        <time>2020-09-03T13:34:59Z</time>
      </trkpt>
      <trkpt lat="44.16038" lon="5.17064">
        <ele>1972.112</ele>
        <time>2020-09-03T13:35:00Z</time>
      </trkpt>
      <trkpt lat="44.16027" lon="5.17066">
        <ele>1971.567</ele>
        <time>2020-09-03T13:35:01Z</time>
      </trkpt>
      <trkpt lat="44.16017" lon="5.1707">
        <ele>1971.369</ele>
        <time>2020-09-03T13:35:02Z</time>
      </trkpt>
      <trkpt lat="44.16008" lon="5.17073">
        <ele>1971.251</ele>
        <time>2020-09-03T13:35:03Z</time>
      </trkpt>
      <trkpt lat="44.16" lon="5.17077">
        <ele>1970.391</ele>
        <time>2020-09-03T13:35:04Z</time>
      </trkpt>
      <trkpt lat="44.15992" lon="5.17079">
        <ele>1968.685</ele>
        <time>2020-09-03T13:35:05Z</time>
      </trkpt>
      <trkpt lat="44.15979" lon="5.17074">
        <ele>1966.231</ele>
        <time>2020-09-03T13:35:06Z</time>
      </trkpt>
      <trkpt lat="44.15967" lon="5.17072">
        <ele>1963.511</ele>
        <time>2020-09-03T13:35:07Z</time>
      </trkpt>
      <trkpt lat="44.15957" lon="5.17071">
        <ele>1961.652</ele>
        <time>2020-09-03T13:35:08Z</time>
      </trkpt>
      <trkpt lat="44.15948" lon="5.17071">
        <ele>1959.639</ele>
        <time>2020-09-03T13:35:09Z</time>
      </trkpt>
      <trkpt lat="44.15939" lon="5.17069">
        <ele>1957.339</ele>
        <time>2020-09-03T13:35:10Z</time>
      </trkpt>
      <trkpt lat="44.15931" lon="5.17065">
        <ele>1954.17</ele>
        <time>2020-09-03T13:35:11Z</time>
      </trkpt>
      <trkpt lat="44.15913" lon="5.17058">
        <ele>1950.032</ele>
        <time>2020-09-03T13:35:13Z</time>
      </trkpt>
      <trkpt lat="44.15913" lon="5.17058">
        <ele>1946.105</ele>
        <time>2020-09-03T13:35:13Z</time>
      </trkpt>
      <trkpt lat="44.15892" lon="5.17056">
        <ele>1942.216</ele>
        <time>2020-09-03T13:35:15Z</time>
      </trkpt>
      <trkpt lat="44.15881" lon="5.17057">
        <ele>1938.468</ele>
        <time>2020-09-03T13:35:16Z</time>
      </trkpt>
      <trkpt lat="44.15872" lon="5.17058">
        <ele>1935.887</ele>
        <time>2020-09-03T13:35:17Z</time>
      </trkpt>
      <trkpt lat="44.15862" lon="5.1706">
        <ele>1934.123</ele>
        <time>2020-09-03T13:35:18Z</time>
      </trkpt>
      <trkpt lat="44.15853" lon="5.17062">
        <ele>1932.014</ele>
        <time>2020-09-03T13:35:19Z</time>
      </trkpt>
      <trkpt lat="44.15843" lon="5.17063">
        <ele>1929.661</ele>
        <time>2020-09-03T13:35:20Z</time>
      </trkpt>
      <trkpt lat="44.15833" lon="5.17066">
        <ele>1927.379</ele>
        <time>2020-09-03T13:35:21Z</time>
      </trkpt>
      <trkpt lat="44.15823" lon="5.17068">
        <ele>1925.65</ele>
        <time>2020-09-03T13:35:22Z</time>
      </trkpt>
      <trkpt lat="44.15811" lon="5.17071">
        <ele>1923.888</ele>
        <time>2020-09-03T13:35:23Z</time>
      </trkpt>
      <trkpt lat="44.15799" lon="5.17074">
        <ele>1922.828</ele>
        <time>2020-09-03T13:35:24Z</time>
      </trkpt>
      <trkpt lat="44.15787" lon="5.17076">
        <ele>1922.715</ele>
        <time>2020-09-03T13:35:25Z</time>
      </trkpt>
      <trkpt lat="44.15775" lon="5.17079">
        <ele>1923.479</ele>
        <time>2020-09-03T13:35:26Z</time>
      </trkpt>
      <trkpt lat="44.15764" lon="5.17081">
        <ele>1924.509</ele>
        <time>2020-09-03T13:35:27Z</time>
      </trkpt>
      <trkpt lat="44.15753" lon="5.17085">
        <ele>1925.479</ele>
        <time>2020-09-03T13:35:28Z</time>
      </trkpt>
      <trkpt lat="44.15741" lon="5.17088">
        <ele>1926.3</ele>
        <time>2020-09-03T13:35:29Z</time>
      </trkpt>
      <trkpt lat="44.1573" lon="5.17092">
        <ele>1927.019</ele>
        <time>2020-09-03T13:35:30Z</time>
      </trkpt>
      <trkpt lat="44.1573" lon="5.17092">
        <ele>1927.931</ele>
        <time>2020-09-03T13:35:30Z</time>
      </trkpt>
      <trkpt lat="44.1573" lon="5.17092">
        <ele>1929.093</ele>
        <time>2020-09-03T13:35:30Z</time>
      </trkpt>
      <trkpt lat="44.1573" lon="5.17092">
        <ele>1930.051</ele>
        <time>2020-09-03T13:35:30Z</time>
      </trkpt>
      <trkpt lat="44.15686" lon="5.1711">
        <ele>1930.746</ele>
        <time>2020-09-03T13:35:34Z</time>
      </trkpt>
      <trkpt lat="44.15668" lon="5.17132">
        <ele>1931.457</ele>
        <time>2020-09-03T13:35:36Z</time>
      </trkpt>
      <trkpt lat="44.15662" lon="5.17147">
        <ele>1931.689</ele>
        <time>2020-09-03T13:35:37Z</time>
      </trkpt>
      <trkpt lat="44.15658" lon="5.17162">
        <ele>1931.842</ele>
        <time>2020-09-03T13:35:38Z</time>
      </trkpt>
      <trkpt lat="44.15656" lon="5.17178">
        <ele>1932.055</ele>
        <time>2020-09-03T13:35:39Z</time>
      </trkpt>
      <trkpt lat="44.15656" lon="5.17192">
        <ele>1932.053</ele>
        <time>2020-09-03T13:35:40Z</time>
      </trkpt>
      <trkpt lat="44.15659" lon="5.17205">
        <ele>1931.27</ele>
        <time>2020-09-03T13:35:41Z</time>
      </trkpt>
      <trkpt lat="44.15665" lon="5.17212">
        <ele>1929.741</ele>
        <time>2020-09-03T13:35:42Z</time>
      </trkpt>
      <trkpt lat="44.15672" lon="5.17214">
        <ele>1927.088</ele>
        <time>2020-09-03T13:35:43Z</time>
      </trkpt>
      <trkpt lat="44.1568" lon="5.17213">
        <ele>1924.318</ele>
        <time>2020-09-03T13:35:44Z</time>
      </trkpt>
      <trkpt lat="44.1568" lon="5.17213">
        <ele>1922.148</ele>
        <time>2020-09-03T13:35:44Z</time>
      </trkpt>
      <trkpt lat="44.15685" lon="5.17191">
        <ele>1918.966</ele>
        <time>2020-09-03T13:35:47Z</time>
      </trkpt>
      <trkpt lat="44.1568" lon="5.17181">
        <ele>1915.968</ele>
        <time>2020-09-03T13:35:48Z</time>
      </trkpt>
      <trkpt lat="44.1568" lon="5.17181">
        <ele>1913.867</ele>
        <time>2020-09-03T13:35:48Z</time>
      </trkpt>
      <trkpt lat="44.15665" lon="5.17164">
        <ele>1911.939</ele>
        <time>2020-09-03T13:35:50Z</time>
      </trkpt>
      <trkpt lat="44.15655" lon="5.17158">
        <ele>1910.553</ele>
        <time>2020-09-03T13:35:51Z</time>
      </trkpt>
      <trkpt lat="44.15644" lon="5.17152">
        <ele>1909.885</ele>
        <time>2020-09-03T13:35:52Z</time>
      </trkpt>
      <trkpt lat="44.15633" lon="5.1715">
        <ele>1909.33</ele>
        <time>2020-09-03T13:35:53Z</time>
      </trkpt>
      <trkpt lat="44.15633" lon="5.1715">
        <ele>1909.031</ele>
        <time>2020-09-03T13:35:53Z</time>
      </trkpt>
      <trkpt lat="44.1561" lon="5.1715">
        <ele>1908.939</ele>
        <time>2020-09-03T13:35:55Z</time>
      </trkpt>
      <trkpt lat="44.15597" lon="5.17149">
        <ele>1908.802</ele>
        <time>2020-09-03T13:35:56Z</time>
      </trkpt>
      <trkpt lat="44.15584" lon="5.17149">
        <ele>1908.511</ele>
        <time>2020-09-03T13:35:57Z</time>
      </trkpt>
      <trkpt lat="44.1557" lon="5.1715">
        <ele>1907.923</ele>
        <time>2020-09-03T13:35:58Z</time>
      </trkpt>
      <trkpt lat="44.15555" lon="5.17152">
        <ele>1907.637</ele>
        <time>2020-09-03T13:35:59Z</time>
      </trkpt>
      <trkpt lat="44.15541" lon="5.17154">
        <ele>1908.13</ele>
        <time>2020-09-03T13:36:00Z</time>
      </trkpt>
      <trkpt lat="44.15541" lon="5.17154">
        <ele>1909.446</ele>
        <time>2020-09-03T13:36:00Z</time>
      </trkpt>
      <trkpt lat="44.15516" lon="5.17156">
        <ele>1911.365</ele>
        <time>2020-09-03T13:36:02Z</time>
      </trkpt>
      <trkpt lat="44.15503" lon="5.17157">
        <ele>1913.317</ele>
        <time>2020-09-03T13:36:03Z</time>
      </trkpt>
      <trkpt lat="44.1549" lon="5.17157">
        <ele>1914.508</ele>
        <time>2020-09-03T13:36:04Z</time>
      </trkpt>
      <trkpt lat="44.15461" lon="5.17159">
        <ele>1915.605</ele>
        <time>2020-09-03T13:36:06Z</time>
      </trkpt>
      <trkpt lat="44.15447" lon="5.17159">
        <ele>1916.794</ele>
        <time>2020-09-03T13:36:07Z</time>
      </trkpt>
      <trkpt lat="44.15433" lon="5.17159">
        <ele>1918.17</ele>
        <time>2020-09-03T13:36:08Z</time>
      </trkpt>
      <trkpt lat="44.1542" lon="5.17159">
        <ele>1919.743</ele>
        <time>2020-09-03T13:36:09Z</time>
      </trkpt>
      <trkpt lat="44.15407" lon="5.17159">
        <ele>1921.417</ele>
        <time>2020-09-03T13:36:10Z</time>
      </trkpt>
      <trkpt lat="44.15394" lon="5.17158">
        <ele>1922.938</ele>
        <time>2020-09-03T13:36:11Z</time>
      </trkpt>
      <trkpt lat="44.15381" lon="5.17157">
        <ele>1924.432</ele>
        <time>2020-09-03T13:36:12Z</time>
      </trkpt>
      <trkpt lat="44.15369" lon="5.17153">
        <ele>1925.758</ele>
        <time>2020-09-03T13:36:13Z</time>
      </trkpt>
      <trkpt lat="44.15358" lon="5.17146">
        <ele>1926.849</ele>
        <time>2020-09-03T13:36:14Z</time>
      </trkpt>
      <trkpt lat="44.15349" lon="5.17136">
        <ele>1928.799</ele>
        <time>2020-09-03T13:36:15Z</time>
      </trkpt>
      <trkpt lat="44.15343" lon="5.17124">
        <ele>1931.264</ele>
        <time>2020-09-03T13:36:16Z</time>
      </trkpt>
      <trkpt lat="44.15341" lon="5.17111">
        <ele>1934.065</ele>
        <time>2020-09-03T13:36:17Z</time>
      </trkpt>
      <trkpt lat="44.15341" lon="5.17102">
        <ele>1936.251</ele>
        <time>2020-09-03T13:36:18Z</time>
      </trkpt>
      <trkpt lat="44.15344" lon="5.17096">
        <ele>1938.91</ele>
        <time>2020-09-03T13:36:19Z</time>
      </trkpt>
      <trkpt lat="44.15348" lon="5.17096">
        <ele>1941.498</ele>
        <time>2020-09-03T13:36:20Z</time>
      </trkpt>
      <trkpt lat="44.15351" lon="5.17102">
        <ele>1944.072</ele>
        <time>2020-09-03T13:36:21Z</time>
      </trkpt>
      <trkpt lat="44.15351" lon="5.17102">
        <ele>1946.361</ele>
        <time>2020-09-03T13:36:21Z</time>
      </trkpt>
      <trkpt lat="44.15351" lon="5.17102">
        <ele>1948.255</ele>
        <time>2020-09-03T13:36:21Z</time>
      </trkpt>
      <trkpt lat="44.15339" lon="5.17135">
        <ele>1949.621</ele>
        <time>2020-09-03T13:36:24Z</time>
      </trkpt>
      <trkpt lat="44.15339" lon="5.17135">
        <ele>1950.374</ele>
        <time>2020-09-03T13:36:24Z</time>
      </trkpt>
      <trkpt lat="44.15303" lon="5.17154">
        <ele>1950.92</ele>
        <time>2020-09-03T13:36:27Z</time>
      </trkpt>
      <trkpt lat="44.15289" lon="5.17153">
        <ele>1951.265</ele>
        <time>2020-09-03T13:36:28Z</time>
      </trkpt>
      <trkpt lat="44.15275" lon="5.17151">
        <ele>1951.986</ele>
        <time>2020-09-03T13:36:29Z</time>
      </trkpt>
      <trkpt lat="44.15261" lon="5.17146">
        <ele>1952.945</ele>
        <time>2020-09-03T13:36:30Z</time>
      </trkpt>
      <trkpt lat="44.15248" lon="5.1714">
        <ele>1954.482</ele>
        <time>2020-09-03T13:36:31Z</time>
      </trkpt>
      <trkpt lat="44.15234" lon="5.17134">
        <ele>1955.916</ele>
        <time>2020-09-03T13:36:32Z</time>
      </trkpt>
      <trkpt lat="44.15221" lon="5.17127">
        <ele>1957.398</ele>
        <time>2020-09-03T13:36:33Z</time>
      </trkpt>
      <trkpt lat="44.15207" lon="5.17123">
        <ele>1959.21</ele>
        <time>2020-09-03T13:36:34Z</time>
      </trkpt>
      <trkpt lat="44.15193" lon="5.17118">
        <ele>1960.926</ele>
        <time>2020-09-03T13:36:35Z</time>
      </trkpt>
      <trkpt lat="44.15179" lon="5.17112">
        <ele>1962.278</ele>
        <time>2020-09-03T13:36:36Z</time>
      </trkpt>
      <trkpt lat="44.15166" lon="5.17103">
        <ele>1963.004</ele>
        <time>2020-09-03T13:36:37Z</time>
      </trkpt>
      <trkpt lat="44.15166" lon="5.17103">
        <ele>1963.022</ele>
        <time>2020-09-03T13:36:37Z</time>
      </trkpt>
      <trkpt lat="44.15145" lon="5.17077">
        <ele>1962.487</ele>
        <time>2020-09-03T13:36:39Z</time>
      </trkpt>
      <trkpt lat="44.15145" lon="5.17077">
        <ele>1961.643</ele>
        <time>2020-09-03T13:36:39Z</time>
      </trkpt>
      <trkpt lat="44.15145" lon="5.17077">
        <ele>1960.997</ele>
        <time>2020-09-03T13:36:39Z</time>
      </trkpt>
      <trkpt lat="44.15145" lon="5.17077">
        <ele>1959.885</ele>
        <time>2020-09-03T13:36:39Z</time>
      </trkpt>
      <trkpt lat="44.15145" lon="5.17077">
        <ele>1958.698</ele>
        <time>2020-09-03T13:36:39Z</time>
      </trkpt>
      <trkpt lat="44.15138" lon="5.17021">
        <ele>1958.024</ele>
        <time>2020-09-03T13:36:44Z</time>
      </trkpt>
      <trkpt lat="44.15138" lon="5.17023">
        <ele>1957.897</ele>
        <time>2020-09-03T13:36:45Z</time>
      </trkpt>
      <trkpt lat="44.15136" lon="5.17027">
        <ele>1957.896</ele>
        <time>2020-09-03T13:36:46Z</time>
      </trkpt>
      <trkpt lat="44.15132" lon="5.17031">
        <ele>1957.619</ele>
        <time>2020-09-03T13:36:47Z</time>
      </trkpt>
      <trkpt lat="44.15127" lon="5.17037">
        <ele>1956.583</ele>
        <time>2020-09-03T13:36:48Z</time>
      </trkpt>
      <trkpt lat="44.15114" lon="5.17051">
        <ele>1955.145</ele>
        <time>2020-09-03T13:36:50Z</time>
      </trkpt>
      <trkpt lat="44.15109" lon="5.1706">
        <ele>1953.359</ele>
        <time>2020-09-03T13:36:51Z</time>
      </trkpt>
      <trkpt lat="44.15103" lon="5.17068">
        <ele>1951.974</ele>
        <time>2020-09-03T13:36:52Z</time>
      </trkpt>
      <trkpt lat="44.15091" lon="5.17074">
        <ele>1951.384</ele>
        <time>2020-09-03T13:36:53Z</time>
      </trkpt>
      <trkpt lat="44.15079" lon="5.17079">
        <ele>1951.566</ele>
        <time>2020-09-03T13:36:54Z</time>
      </trkpt>
      <trkpt lat="44.15067" lon="5.17083">
        <ele>1951.927</ele>
        <time>2020-09-03T13:36:55Z</time>
      </trkpt>
      <trkpt lat="44.15055" lon="5.17088">
        <ele>1952.131</ele>
        <time>2020-09-03T13:36:56Z</time>
      </trkpt>
      <trkpt lat="44.15042" lon="5.17093">
        <ele>1952.086</ele>
        <time>2020-09-03T13:36:57Z</time>
      </trkpt>
      <trkpt lat="44.15028" lon="5.17098">
        <ele>1951.885</ele>
        <time>2020-09-03T13:36:58Z</time>
      </trkpt>
      <trkpt lat="44.15014" lon="5.17103">
        <ele>1951.435</ele>
        <time>2020-09-03T13:36:59Z</time>
      </trkpt>
      <trkpt lat="44.15" lon="5.17107">
        <ele>1950.682</ele>
        <time>2020-09-03T13:37:00Z</time>
      </trkpt>
      <trkpt lat="44.14986" lon="5.17109">
        <ele>1950.016</ele>
        <time>2020-09-03T13:37:01Z</time>
      </trkpt>
      <trkpt lat="44.14986" lon="5.17109">
        <ele>1949.463</ele>
        <time>2020-09-03T13:37:01Z</time>
      </trkpt>
      <trkpt lat="44.14958" lon="5.17111">
        <ele>1948.701</ele>
        <time>2020-09-03T13:37:03Z</time>
      </trkpt>
      <trkpt lat="44.14929" lon="5.17106">
        <ele>1947.658</ele>
        <time>2020-09-03T13:37:05Z</time>
      </trkpt>
      <trkpt lat="44.14914" lon="5.17101">
        <ele>1945.879</ele>
        <time>2020-09-03T13:37:06Z</time>
      </trkpt>
      <trkpt lat="44.14899" lon="5.17098">
        <ele>1943.426</ele>
        <time>2020-09-03T13:37:07Z</time>
      </trkpt>
      <trkpt lat="44.14883" lon="5.17095">
        <ele>1940.289</ele>
        <time>2020-09-03T13:37:08Z</time>
      </trkpt>
      <trkpt lat="44.14883" lon="5.17095">
        <ele>1937.777</ele>
        <time>2020-09-03T13:37:08Z</time>
      </trkpt>
      <trkpt lat="44.14855" lon="5.17088">
        <ele>1936.423</ele>
        <time>2020-09-03T13:37:10Z</time>
      </trkpt>
      <trkpt lat="44.14843" lon="5.17083">
        <ele>1934.333</ele>
        <time>2020-09-03T13:37:11Z</time>
      </trkpt>
      <trkpt lat="44.14831" lon="5.17079">
        <ele>1932.35</ele>
        <time>2020-09-03T13:37:12Z</time>
      </trkpt>
      <trkpt lat="44.14819" lon="5.17078">
        <ele>1930.014</ele>
        <time>2020-09-03T13:37:13Z</time>
      </trkpt>
      <trkpt lat="44.14819" lon="5.17078">
        <ele>1927.236</ele>
        <time>2020-09-03T13:37:13Z</time>
      </trkpt>
      <trkpt lat="44.14793" lon="5.1708">
        <ele>1924.401</ele>
        <time>2020-09-03T13:37:15Z</time>
      </trkpt>
      <trkpt lat="44.14779" lon="5.17081">
        <ele>1922.1</ele>
        <time>2020-09-03T13:37:16Z</time>
      </trkpt>
      <trkpt lat="44.14766" lon="5.1708">
        <ele>1920.648</ele>
        <time>2020-09-03T13:37:17Z</time>
      </trkpt>
      <trkpt lat="44.14752" lon="5.1708">
        <ele>1919.555</ele>
        <time>2020-09-03T13:37:18Z</time>
      </trkpt>
      <trkpt lat="44.1474" lon="5.17079">
        <ele>1919.206</ele>
        <time>2020-09-03T13:37:19Z</time>
      </trkpt>
      <trkpt lat="44.14728" lon="5.17078">
        <ele>1919.161</ele>
        <time>2020-09-03T13:37:20Z</time>
      </trkpt>
      <trkpt lat="44.14717" lon="5.17078">
        <ele>1919.098</ele>
        <time>2020-09-03T13:37:21Z</time>
      </trkpt>
      <trkpt lat="44.14706" lon="5.17076">
        <ele>1918.72</ele>
        <time>2020-09-03T13:37:22Z</time>
      </trkpt>
      <trkpt lat="44.14706" lon="5.17076">
        <ele>1917.961</ele>
        <time>2020-09-03T13:37:22Z</time>
      </trkpt>
      <trkpt lat="44.14672" lon="5.17071">
        <ele>1916.918</ele>
        <time>2020-09-03T13:37:25Z</time>
      </trkpt>
      <trkpt lat="44.14659" lon="5.1707">
        <ele>1916.311</ele>
        <time>2020-09-03T13:37:26Z</time>
      </trkpt>
      <trkpt lat="44.14646" lon="5.17069">
        <ele>1916.097</ele>
        <time>2020-09-03T13:37:27Z</time>
      </trkpt>
      <trkpt lat="44.14635" lon="5.17069">
        <ele>1915.879</ele>
        <time>2020-09-03T13:37:28Z</time>
      </trkpt>
      <trkpt lat="44.14624" lon="5.17069">
        <ele>1915.286</ele>
        <time>2020-09-03T13:37:29Z</time>
      </trkpt>
      <trkpt lat="44.14614" lon="5.1707">
        <ele>1914.596</ele>
        <time>2020-09-03T13:37:30Z</time>
      </trkpt>
      <trkpt lat="44.14603" lon="5.1707">
        <ele>1914.015</ele>
        <time>2020-09-03T13:37:31Z</time>
      </trkpt>
      <trkpt lat="44.14593" lon="5.17068">
        <ele>1913.439</ele>
        <time>2020-09-03T13:37:32Z</time>
      </trkpt>
      <trkpt lat="44.14583" lon="5.17065">
        <ele>1912.784</ele>
        <time>2020-09-03T13:37:33Z</time>
      </trkpt>
      <trkpt lat="44.14574" lon="5.17063">
        <ele>1911.549</ele>
        <time>2020-09-03T13:37:34Z</time>
      </trkpt>
      <trkpt lat="44.14564" lon="5.17062">
        <ele>1909.965</ele>
        <time>2020-09-03T13:37:35Z</time>
      </trkpt>
      <trkpt lat="44.14554" lon="5.17064">
        <ele>1908.082</ele>
        <time>2020-09-03T13:37:36Z</time>
      </trkpt>
      <trkpt lat="44.14554" lon="5.17064">
        <ele>1907.221</ele>
        <time>2020-09-03T13:37:36Z</time>
      </trkpt>
      <trkpt lat="44.14554" lon="5.17064">
        <ele>1906.498</ele>
        <time>2020-09-03T13:37:36Z</time>
      </trkpt>
      <trkpt lat="44.1452" lon="5.17064">
        <ele>1906.289</ele>
        <time>2020-09-03T13:37:39Z</time>
      </trkpt>
      <trkpt lat="44.1452" lon="5.17064">
        <ele>1906.229</ele>
        <time>2020-09-03T13:37:39Z</time>
      </trkpt>
      <trkpt lat="44.1452" lon="5.17064">
        <ele>1905.813</ele>
        <time>2020-09-03T13:37:39Z</time>
      </trkpt>
      <trkpt lat="44.1452" lon="5.17064">
        <ele>1904.887</ele>
        <time>2020-09-03T13:37:39Z</time>
      </trkpt>
      <trkpt lat="44.1452" lon="5.17064">
        <ele>1903.567</ele>
        <time>2020-09-03T13:37:39Z</time>
      </trkpt>
      <trkpt lat="44.14461" lon="5.17062">
        <ele>1901.809</ele>
        <time>2020-09-03T13:37:44Z</time>
      </trkpt>
      <trkpt lat="44.14436" lon="5.17064">
        <ele>1900.315</ele>
        <time>2020-09-03T13:37:46Z</time>
      </trkpt>
      <trkpt lat="44.14423" lon="5.17064">
        <ele>1898.927</ele>
        <time>2020-09-03T13:37:47Z</time>
      </trkpt>
      <trkpt lat="44.14411" lon="5.17065">
        <ele>1897.352</ele>
        <time>2020-09-03T13:37:48Z</time>
      </trkpt>
      <trkpt lat="44.14398" lon="5.17065">
        <ele>1895.413</ele>
        <time>2020-09-03T13:37:49Z</time>
      </trkpt>
      <trkpt lat="44.14384" lon="5.17065">
        <ele>1893.533</ele>
        <time>2020-09-03T13:37:50Z</time>
      </trkpt>
      <trkpt lat="44.14369" lon="5.17066">
        <ele>1891.899</ele>
        <time>2020-09-03T13:37:51Z</time>
      </trkpt>
      <trkpt lat="44.14355" lon="5.17069">
        <ele>1890.452</ele>
        <time>2020-09-03T13:37:52Z</time>
      </trkpt>
      <trkpt lat="44.14342" lon="5.17072">
        <ele>1889.302</ele>
        <time>2020-09-03T13:37:53Z</time>
      </trkpt>
      <trkpt lat="44.14315" lon="5.17079">
        <ele>1888.153</ele>
        <time>2020-09-03T13:37:55Z</time>
      </trkpt>
      <trkpt lat="44.14302" lon="5.17081">
        <ele>1887.099</ele>
        <time>2020-09-03T13:37:56Z</time>
      </trkpt>
      <trkpt lat="44.14288" lon="5.17083">
        <ele>1886.064</ele>
        <time>2020-09-03T13:37:57Z</time>
      </trkpt>
      <trkpt lat="44.14275" lon="5.17085">
        <ele>1884.97</ele>
        <time>2020-09-03T13:37:58Z</time>
      </trkpt>
      <trkpt lat="44.14261" lon="5.17088">
        <ele>1883.957</ele>
        <time>2020-09-03T13:37:59Z</time>
      </trkpt>
      <trkpt lat="44.14248" lon="5.17092">
        <ele>1882.864</ele>
        <time>2020-09-03T13:38:00Z</time>
      </trkpt>
      <trkpt lat="44.14235" lon="5.17097">
        <ele>1881.874</ele>
        <time>2020-09-03T13:38:01Z</time>
      </trkpt>
      <trkpt lat="44.14222" lon="5.17102">
        <ele>1880.956</ele>
        <time>2020-09-03T13:38:02Z</time>
      </trkpt>
      <trkpt lat="44.1421" lon="5.17107">
        <ele>1879.946</ele>
        <time>2020-09-03T13:38:03Z</time>
      </trkpt>
      <trkpt lat="44.14198" lon="5.1711">
        <ele>1878.768</ele>
        <time>2020-09-03T13:38:04Z</time>
      </trkpt>
      <trkpt lat="44.14186" lon="5.17114">
        <ele>1878.144</ele>
        <time>2020-09-03T13:38:05Z</time>
      </trkpt>
      <trkpt lat="44.14174" lon="5.17119">
        <ele>1876.377</ele>
        <time>2020-09-03T13:38:06Z</time>
      </trkpt>
      <trkpt lat="44.14162" lon="5.17124">
        <ele>1874.532</ele>
        <time>2020-09-03T13:38:07Z</time>
      </trkpt>
      <trkpt lat="44.14149" lon="5.17129">
        <ele>1872.888</ele>
        <time>2020-09-03T13:38:08Z</time>
      </trkpt>
      <trkpt lat="44.14136" lon="5.17134">
        <ele>1871.216</ele>
        <time>2020-09-03T13:38:09Z</time>
      </trkpt>
      <trkpt lat="44.14123" lon="5.17136">
        <ele>1869.885</ele>
        <time>2020-09-03T13:38:10Z</time>
      </trkpt>
      <trkpt lat="44.1411" lon="5.17139">
        <ele>1868.907</ele>
        <time>2020-09-03T13:38:11Z</time>
      </trkpt>
      <trkpt lat="44.14098" lon="5.17142">
        <ele>1867.88</ele>
        <time>2020-09-03T13:38:12Z</time>
      </trkpt>
      <trkpt lat="44.14086" lon="5.17147">
        <ele>1866.757</ele>
        <time>2020-09-03T13:38:13Z</time>
      </trkpt>
      <trkpt lat="44.14075" lon="5.17153">
        <ele>1865.01</ele>
        <time>2020-09-03T13:38:14Z</time>
      </trkpt>
      <trkpt lat="44.14054" lon="5.17162">
        <ele>1863.31</ele>
        <time>2020-09-03T13:38:16Z</time>
      </trkpt>
      <trkpt lat="44.14043" lon="5.17166">
        <ele>1860.97</ele>
        <time>2020-09-03T13:38:17Z</time>
      </trkpt>
      <trkpt lat="44.14032" lon="5.17169">
        <ele>1858.337</ele>
        <time>2020-09-03T13:38:18Z</time>
      </trkpt>
      <trkpt lat="44.14021" lon="5.17175">
        <ele>1855.697</ele>
        <time>2020-09-03T13:38:19Z</time>
      </trkpt>
      <trkpt lat="44.1401" lon="5.17183">
        <ele>1853.191</ele>
        <time>2020-09-03T13:38:20Z</time>
      </trkpt>
      <trkpt lat="44.13999" lon="5.17191">
        <ele>1851.315</ele>
        <time>2020-09-03T13:38:21Z</time>
      </trkpt>
      <trkpt lat="44.13988" lon="5.17198">
        <ele>1849.9</ele>
        <time>2020-09-03T13:38:22Z</time>
      </trkpt>
      <trkpt lat="44.13978" lon="5.17203">
        <ele>1848.563</ele>
        <time>2020-09-03T13:38:23Z</time>
      </trkpt>
      <trkpt lat="44.13966" lon="5.17207">
        <ele>1846.984</ele>
        <time>2020-09-03T13:38:24Z</time>
      </trkpt>
      <trkpt lat="44.13954" lon="5.1721">
        <ele>1844.779</ele>
        <time>2020-09-03T13:38:25Z</time>
      </trkpt>
      <trkpt lat="44.13942" lon="5.17213">
        <ele>1842.494</ele>
        <time>2020-09-03T13:38:26Z</time>
      </trkpt>
      <trkpt lat="44.13929" lon="5.17217">
        <ele>1839.851</ele>
        <time>2020-09-03T13:38:27Z</time>
      </trkpt>
      <trkpt lat="44.13917" lon="5.17222">
        <ele>1837.759</ele>
        <time>2020-09-03T13:38:28Z</time>
      </trkpt>
      <trkpt lat="44.13905" lon="5.17228">
        <ele>1836.127</ele>
        <time>2020-09-03T13:38:29Z</time>
      </trkpt>
      <trkpt lat="44.13895" lon="5.17235">
        <ele>1834.701</ele>
        <time>2020-09-03T13:38:30Z</time>
      </trkpt>
      <trkpt lat="44.13886" lon="5.17242">
        <ele>1833.331</ele>
        <time>2020-09-03T13:38:31Z</time>
      </trkpt>
      <trkpt lat="44.13878" lon="5.1725">
        <ele>1831.245</ele>
        <time>2020-09-03T13:38:32Z</time>
      </trkpt>
      <trkpt lat="44.13878" lon="5.1725">
        <ele>1829.535</ele>
        <time>2020-09-03T13:38:32Z</time>
      </trkpt>
      <trkpt lat="44.13863" lon="5.17271">
        <ele>1826.006</ele>
        <time>2020-09-03T13:38:34Z</time>
      </trkpt>
      <trkpt lat="44.13863" lon="5.17271">
        <ele>1822.685</ele>
        <time>2020-09-03T13:38:34Z</time>
      </trkpt>
      <trkpt lat="44.13863" lon="5.17271">
        <ele>1819.894</ele>
        <time>2020-09-03T13:38:34Z</time>
      </trkpt>
      <trkpt lat="44.13832" lon="5.17313">
        <ele>1817.491</ele>
        <time>2020-09-03T13:38:38Z</time>
      </trkpt>
      <trkpt lat="44.13832" lon="5.17313">
        <ele>1814.463</ele>
        <time>2020-09-03T13:38:38Z</time>
      </trkpt>
      <trkpt lat="44.1381" lon="5.17323">
        <ele>1811.645</ele>
        <time>2020-09-03T13:38:40Z</time>
      </trkpt>
      <trkpt lat="44.13798" lon="5.17326">
        <ele>1809.377</ele>
        <time>2020-09-03T13:38:41Z</time>
      </trkpt>
      <trkpt lat="44.13787" lon="5.1733">
        <ele>1806.803</ele>
        <time>2020-09-03T13:38:42Z</time>
      </trkpt>
      <trkpt lat="44.13775" lon="5.17334">
        <ele>1804.403</ele>
        <time>2020-09-03T13:38:43Z</time>
      </trkpt>
      <trkpt lat="44.13763" lon="5.17337">
        <ele>1802.169</ele>
        <time>2020-09-03T13:38:44Z</time>
      </trkpt>
      <trkpt lat="44.13751" lon="5.1734">
        <ele>1799.858</ele>
        <time>2020-09-03T13:38:45Z</time>
      </trkpt>
      <trkpt lat="44.13739" lon="5.17343">
        <ele>1797.944</ele>
        <time>2020-09-03T13:38:46Z</time>
      </trkpt>
      <trkpt lat="44.13727" lon="5.17346">
        <ele>1796.396</ele>
        <time>2020-09-03T13:38:47Z</time>
      </trkpt>
      <trkpt lat="44.13716" lon="5.1735">
        <ele>1794.908</ele>
        <time>2020-09-03T13:38:48Z</time>
      </trkpt>
      <trkpt lat="44.13705" lon="5.17353">
        <ele>1793.206</ele>
        <time>2020-09-03T13:38:49Z</time>
      </trkpt>
      <trkpt lat="44.13693" lon="5.17357">
        <ele>1791.663</ele>
        <time>2020-09-03T13:38:50Z</time>
      </trkpt>
      <trkpt lat="44.13681" lon="5.1736">
        <ele>1790.168</ele>
        <time>2020-09-03T13:38:51Z</time>
      </trkpt>
      <trkpt lat="44.13668" lon="5.17363">
        <ele>1789.101</ele>
        <time>2020-09-03T13:38:52Z</time>
      </trkpt>
      <trkpt lat="44.13657" lon="5.17367">
        <ele>1788.309</ele>
        <time>2020-09-03T13:38:53Z</time>
      </trkpt>
      <trkpt lat="44.13645" lon="5.1737">
        <ele>1787.372</ele>
        <time>2020-09-03T13:38:54Z</time>
      </trkpt>
      <trkpt lat="44.13645" lon="5.1737">
        <ele>1785.57</ele>
        <time>2020-09-03T13:38:54Z</time>
      </trkpt>
      <trkpt lat="44.13645" lon="5.1737">
        <ele>1782.963</ele>
        <time>2020-09-03T13:38:54Z</time>
      </trkpt>
      <trkpt lat="44.13645" lon="5.1737">
        <ele>1780.061</ele>
        <time>2020-09-03T13:38:54Z</time>
      </trkpt>
      <trkpt lat="44.13645" lon="5.1737">
        <ele>1776.975</ele>
        <time>2020-09-03T13:38:54Z</time>
      </trkpt>
      <trkpt lat="44.13573" lon="5.17389">
        <ele>1774.377</ele>
        <time>2020-09-03T13:39:00Z</time>
      </trkpt>
      <trkpt lat="44.13561" lon="5.17394">
        <ele>1773.738</ele>
        <time>2020-09-03T13:39:01Z</time>
      </trkpt>
      <trkpt lat="44.13548" lon="5.17397">
        <ele>1773.518</ele>
        <time>2020-09-03T13:39:02Z</time>
      </trkpt>
      <trkpt lat="44.13537" lon="5.174">
        <ele>1773.041</ele>
        <time>2020-09-03T13:39:03Z</time>
      </trkpt>
      <trkpt lat="44.13525" lon="5.17401">
        <ele>1771.686</ele>
        <time>2020-09-03T13:39:04Z</time>
      </trkpt>
      <trkpt lat="44.13513" lon="5.17402">
        <ele>1769.775</ele>
        <time>2020-09-03T13:39:05Z</time>
      </trkpt>
      <trkpt lat="44.13499" lon="5.17405">
        <ele>1767.897</ele>
        <time>2020-09-03T13:39:06Z</time>
      </trkpt>
      <trkpt lat="44.13485" lon="5.17409">
        <ele>1766.692</ele>
        <time>2020-09-03T13:39:07Z</time>
      </trkpt>
      <trkpt lat="44.13471" lon="5.17413">
        <ele>1765.76</ele>
        <time>2020-09-03T13:39:08Z</time>
      </trkpt>
      <trkpt lat="44.13459" lon="5.17414">
        <ele>1764.935</ele>
        <time>2020-09-03T13:39:09Z</time>
      </trkpt>
      <trkpt lat="44.13436" lon="5.17416">
        <ele>1763.388</ele>
        <time>2020-09-03T13:39:11Z</time>
      </trkpt>
      <trkpt lat="44.13423" lon="5.17419">
        <ele>1761.171</ele>
        <time>2020-09-03T13:39:12Z</time>
      </trkpt>
      <trkpt lat="44.1341" lon="5.17422">
        <ele>1759.292</ele>
        <time>2020-09-03T13:39:13Z</time>
      </trkpt>
      <trkpt lat="44.1341" lon="5.17422">
        <ele>1757.655</ele>
        <time>2020-09-03T13:39:13Z</time>
      </trkpt>
      <trkpt lat="44.13383" lon="5.17425">
        <ele>1756.266</ele>
        <time>2020-09-03T13:39:15Z</time>
      </trkpt>
      <trkpt lat="44.1337" lon="5.17426">
        <ele>1754.994</ele>
        <time>2020-09-03T13:39:16Z</time>
      </trkpt>
      <trkpt lat="44.13358" lon="5.17427">
        <ele>1753.498</ele>
        <time>2020-09-03T13:39:17Z</time>
      </trkpt>
      <trkpt lat="44.13346" lon="5.17427">
        <ele>1751.864</ele>
        <time>2020-09-03T13:39:18Z</time>
      </trkpt>
      <trkpt lat="44.13333" lon="5.17428">
        <ele>1749.734</ele>
        <time>2020-09-03T13:39:19Z</time>
      </trkpt>
      <trkpt lat="44.13319" lon="5.17427">
        <ele>1747.467</ele>
        <time>2020-09-03T13:39:20Z</time>
      </trkpt>
      <trkpt lat="44.13306" lon="5.17428">
        <ele>1745.276</ele>
        <time>2020-09-03T13:39:21Z</time>
      </trkpt>
      <trkpt lat="44.13292" lon="5.17429">
        <ele>1743.047</ele>
        <time>2020-09-03T13:39:22Z</time>
      </trkpt>
      <trkpt lat="44.13279" lon="5.17431">
        <ele>1741.027</ele>
        <time>2020-09-03T13:39:23Z</time>
      </trkpt>
      <trkpt lat="44.13266" lon="5.17433">
        <ele>1738.947</ele>
        <time>2020-09-03T13:39:24Z</time>
      </trkpt>
      <trkpt lat="44.13253" lon="5.17434">
        <ele>1736.991</ele>
        <time>2020-09-03T13:39:25Z</time>
      </trkpt>
      <trkpt lat="44.1324" lon="5.17435">
        <ele>1734.461</ele>
        <time>2020-09-03T13:39:26Z</time>
      </trkpt>
      <trkpt lat="44.13226" lon="5.17436">
        <ele>1732.479</ele>
        <time>2020-09-03T13:39:27Z</time>
      </trkpt>
      <trkpt lat="44.13213" lon="5.17438">
        <ele>1730.893</ele>
        <time>2020-09-03T13:39:28Z</time>
      </trkpt>
      <trkpt lat="44.13199" lon="5.17441">
        <ele>1730.332</ele>
        <time>2020-09-03T13:39:29Z</time>
      </trkpt>
      <trkpt lat="44.13187" lon="5.17445">
        <ele>1729.615</ele>
        <time>2020-09-03T13:39:30Z</time>
      </trkpt>
      <trkpt lat="44.13175" lon="5.17449">
        <ele>1729.221</ele>
        <time>2020-09-03T13:39:31Z</time>
      </trkpt>
      <trkpt lat="44.13175" lon="5.17449">
        <ele>1728.513</ele>
        <time>2020-09-03T13:39:31Z</time>
      </trkpt>
      <trkpt lat="44.13175" lon="5.17449">
        <ele>1727.455</ele>
        <time>2020-09-03T13:39:31Z</time>
      </trkpt>
      <trkpt lat="44.13125" lon="5.17461">
        <ele>1725.848</ele>
        <time>2020-09-03T13:39:35Z</time>
      </trkpt>
      <trkpt lat="44.13111" lon="5.17465">
        <ele>1724.494</ele>
        <time>2020-09-03T13:39:36Z</time>
      </trkpt>
      <trkpt lat="44.13098" lon="5.17468">
        <ele>1723.688</ele>
        <time>2020-09-03T13:39:37Z</time>
      </trkpt>
      <trkpt lat="44.13085" lon="5.17471">
        <ele>1723.099</ele>
        <time>2020-09-03T13:39:38Z</time>
      </trkpt>
      <trkpt lat="44.13073" lon="5.17474">
        <ele>1722.222</ele>
        <time>2020-09-03T13:39:39Z</time>
      </trkpt>
      <trkpt lat="44.13061" lon="5.17477">
        <ele>1720.824</ele>
        <time>2020-09-03T13:39:40Z</time>
      </trkpt>
      <trkpt lat="44.13048" lon="5.17481">
        <ele>1718.677</ele>
        <time>2020-09-03T13:39:41Z</time>
      </trkpt>
      <trkpt lat="44.13035" lon="5.17486">
        <ele>1716.572</ele>
        <time>2020-09-03T13:39:42Z</time>
      </trkpt>
      <trkpt lat="44.13022" lon="5.17491">
        <ele>1714.727</ele>
        <time>2020-09-03T13:39:43Z</time>
      </trkpt>
      <trkpt lat="44.13009" lon="5.17496">
        <ele>1712.975</ele>
        <time>2020-09-03T13:39:44Z</time>
      </trkpt>
      <trkpt lat="44.12996" lon="5.17501">
        <ele>1711.538</ele>
        <time>2020-09-03T13:39:45Z</time>
      </trkpt>
      <trkpt lat="44.12983" lon="5.17507">
        <ele>1710.347</ele>
        <time>2020-09-03T13:39:46Z</time>
      </trkpt>
      <trkpt lat="44.12971" lon="5.17513">
        <ele>1709.099</ele>
        <time>2020-09-03T13:39:47Z</time>
      </trkpt>
      <trkpt lat="44.12959" lon="5.17519">
        <ele>1707.748</ele>
        <time>2020-09-03T13:39:48Z</time>
      </trkpt>
      <trkpt lat="44.12946" lon="5.17526">
        <ele>1706.046</ele>
        <time>2020-09-03T13:39:49Z</time>
      </trkpt>
      <trkpt lat="44.12933" lon="5.17535">
        <ele>1704.624</ele>
        <time>2020-09-03T13:39:50Z</time>
      </trkpt>
      <trkpt lat="44.1292" lon="5.17543">
        <ele>1703.268</ele>
        <time>2020-09-03T13:39:51Z</time>
      </trkpt>
      <trkpt lat="44.12907" lon="5.1755">
        <ele>1702.258</ele>
        <time>2020-09-03T13:39:52Z</time>
      </trkpt>
      <trkpt lat="44.12894" lon="5.17555">
        <ele>1701.46</ele>
        <time>2020-09-03T13:39:53Z</time>
      </trkpt>
      <trkpt lat="44.1287" lon="5.17566">
        <ele>1699.991</ele>
        <time>2020-09-03T13:39:55Z</time>
      </trkpt>
      <trkpt lat="44.12857" lon="5.17574">
        <ele>1697.953</ele>
        <time>2020-09-03T13:39:56Z</time>
      </trkpt>
      <trkpt lat="44.12844" lon="5.17582">
        <ele>1696.329</ele>
        <time>2020-09-03T13:39:57Z</time>
      </trkpt>
      <trkpt lat="44.1283" lon="5.17589">
        <ele>1694.685</ele>
        <time>2020-09-03T13:39:58Z</time>
      </trkpt>
      <trkpt lat="44.12817" lon="5.17597">
        <ele>1693.53</ele>
        <time>2020-09-03T13:39:59Z</time>
      </trkpt>
      <trkpt lat="44.12805" lon="5.17604">
        <ele>1692.768</ele>
        <time>2020-09-03T13:40:00Z</time>
      </trkpt>
      <trkpt lat="44.12794" lon="5.17611">
        <ele>1691.967</ele>
        <time>2020-09-03T13:40:01Z</time>
      </trkpt>
      <trkpt lat="44.12794" lon="5.17611">
        <ele>1690.768</ele>
        <time>2020-09-03T13:40:01Z</time>
      </trkpt>
      <trkpt lat="44.1277" lon="5.17623">
        <ele>1689.22</ele>
        <time>2020-09-03T13:40:03Z</time>
      </trkpt>
      <trkpt lat="44.12758" lon="5.17629">
        <ele>1688.116</ele>
        <time>2020-09-03T13:40:04Z</time>
      </trkpt>
      <trkpt lat="44.12746" lon="5.17635">
        <ele>1687.154</ele>
        <time>2020-09-03T13:40:05Z</time>
      </trkpt>
      <trkpt lat="44.12735" lon="5.17641">
        <ele>1686.16</ele>
        <time>2020-09-03T13:40:06Z</time>
      </trkpt>
      <trkpt lat="44.12724" lon="5.17647">
        <ele>1684.769</ele>
        <time>2020-09-03T13:40:07Z</time>
      </trkpt>
      <trkpt lat="44.12712" lon="5.17653">
        <ele>1683.11</ele>
        <time>2020-09-03T13:40:08Z</time>
      </trkpt>
      <trkpt lat="44.12687" lon="5.17665">
        <ele>1681.401</ele>
        <time>2020-09-03T13:40:10Z</time>
      </trkpt>
      <trkpt lat="44.12674" lon="5.17671">
        <ele>1679.991</ele>
        <time>2020-09-03T13:40:11Z</time>
      </trkpt>
      <trkpt lat="44.12662" lon="5.17676">
        <ele>1679.025</ele>
        <time>2020-09-03T13:40:12Z</time>
      </trkpt>
      <trkpt lat="44.1265" lon="5.17681">
        <ele>1678.194</ele>
        <time>2020-09-03T13:40:13Z</time>
      </trkpt>
      <trkpt lat="44.1265" lon="5.17681">
        <ele>1677.528</ele>
        <time>2020-09-03T13:40:13Z</time>
      </trkpt>
      <trkpt lat="44.12628" lon="5.17693">
        <ele>1676.602</ele>
        <time>2020-09-03T13:40:15Z</time>
      </trkpt>
      <trkpt lat="44.12617" lon="5.177">
        <ele>1675.511</ele>
        <time>2020-09-03T13:40:16Z</time>
      </trkpt>
      <trkpt lat="44.12606" lon="5.17706">
        <ele>1674.022</ele>
        <time>2020-09-03T13:40:17Z</time>
      </trkpt>
      <trkpt lat="44.12595" lon="5.17711">
        <ele>1672.67</ele>
        <time>2020-09-03T13:40:18Z</time>
      </trkpt>
      <trkpt lat="44.12584" lon="5.17716">
        <ele>1671.217</ele>
        <time>2020-09-03T13:40:19Z</time>
      </trkpt>
      <trkpt lat="44.12575" lon="5.17722">
        <ele>1670.094</ele>
        <time>2020-09-03T13:40:20Z</time>
      </trkpt>
      <trkpt lat="44.12565" lon="5.1773">
        <ele>1668.681</ele>
        <time>2020-09-03T13:40:21Z</time>
      </trkpt>
      <trkpt lat="44.12555" lon="5.17737">
        <ele>1667.318</ele>
        <time>2020-09-03T13:40:22Z</time>
      </trkpt>
      <trkpt lat="44.12544" lon="5.17743">
        <ele>1665.758</ele>
        <time>2020-09-03T13:40:23Z</time>
      </trkpt>
      <trkpt lat="44.12534" lon="5.17749">
        <ele>1664.441</ele>
        <time>2020-09-03T13:40:24Z</time>
      </trkpt>
      <trkpt lat="44.12534" lon="5.17749">
        <ele>1663.641</ele>
        <time>2020-09-03T13:40:24Z</time>
      </trkpt>
      <trkpt lat="44.12514" lon="5.17763">
        <ele>1662.196</ele>
        <time>2020-09-03T13:40:26Z</time>
      </trkpt>
      <trkpt lat="44.12514" lon="5.17763">
        <ele>1660.509</ele>
        <time>2020-09-03T13:40:26Z</time>
      </trkpt>
      <trkpt lat="44.12514" lon="5.17763">
        <ele>1658.877</ele>
        <time>2020-09-03T13:40:26Z</time>
      </trkpt>
      <trkpt lat="44.12474" lon="5.17791">
        <ele>1657.474</ele>
        <time>2020-09-03T13:40:30Z</time>
      </trkpt>
      <trkpt lat="44.12464" lon="5.17799">
        <ele>1656.286</ele>
        <time>2020-09-03T13:40:31Z</time>
      </trkpt>
      <trkpt lat="44.12454" lon="5.17807">
        <ele>1655.028</ele>
        <time>2020-09-03T13:40:32Z</time>
      </trkpt>
      <trkpt lat="44.12445" lon="5.17814">
        <ele>1653.888</ele>
        <time>2020-09-03T13:40:33Z</time>
      </trkpt>
      <trkpt lat="44.12445" lon="5.17814">
        <ele>1652.77</ele>
        <time>2020-09-03T13:40:33Z</time>
      </trkpt>
      <trkpt lat="44.12425" lon="5.1783">
        <ele>1651.636</ele>
        <time>2020-09-03T13:40:35Z</time>
      </trkpt>
      <trkpt lat="44.12416" lon="5.17837">
        <ele>1650.527</ele>
        <time>2020-09-03T13:40:36Z</time>
      </trkpt>
      <trkpt lat="44.12406" lon="5.17844">
        <ele>1649.253</ele>
        <time>2020-09-03T13:40:37Z</time>
      </trkpt>
      <trkpt lat="44.12395" lon="5.1785">
        <ele>1647.82</ele>
        <time>2020-09-03T13:40:38Z</time>
      </trkpt>
      <trkpt lat="44.12395" lon="5.1785">
        <ele>1646.206</ele>
        <time>2020-09-03T13:40:38Z</time>
      </trkpt>
      <trkpt lat="44.12373" lon="5.17863">
        <ele>1644.515</ele>
        <time>2020-09-03T13:40:40Z</time>
      </trkpt>
      <trkpt lat="44.12362" lon="5.1787">
        <ele>1642.805</ele>
        <time>2020-09-03T13:40:41Z</time>
      </trkpt>
      <trkpt lat="44.12351" lon="5.17877">
        <ele>1641.435</ele>
        <time>2020-09-03T13:40:42Z</time>
      </trkpt>
      <trkpt lat="44.1234" lon="5.17884">
        <ele>1640.204</ele>
        <time>2020-09-03T13:40:43Z</time>
      </trkpt>
      <trkpt lat="44.1234" lon="5.17884">
        <ele>1638.87</ele>
        <time>2020-09-03T13:40:43Z</time>
      </trkpt>
      <trkpt lat="44.12318" lon="5.17898">
        <ele>1637.549</ele>
        <time>2020-09-03T13:40:45Z</time>
      </trkpt>
      <trkpt lat="44.12307" lon="5.17904">
        <ele>1636.082</ele>
        <time>2020-09-03T13:40:46Z</time>
      </trkpt>
      <trkpt lat="44.12296" lon="5.17911">
        <ele>1634.669</ele>
        <time>2020-09-03T13:40:47Z</time>
      </trkpt>
      <trkpt lat="44.12285" lon="5.17919">
        <ele>1632.881</ele>
        <time>2020-09-03T13:40:48Z</time>
      </trkpt>
      <trkpt lat="44.12273" lon="5.17928">
        <ele>1630.878</ele>
        <time>2020-09-03T13:40:49Z</time>
      </trkpt>
      <trkpt lat="44.12262" lon="5.17938">
        <ele>1629.373</ele>
        <time>2020-09-03T13:40:50Z</time>
      </trkpt>
      <trkpt lat="44.1224" lon="5.17958">
        <ele>1628.094</ele>
        <time>2020-09-03T13:40:52Z</time>
      </trkpt>
      <trkpt lat="44.12229" lon="5.17968">
        <ele>1627.835</ele>
        <time>2020-09-03T13:40:53Z</time>
      </trkpt>
      <trkpt lat="44.1222" lon="5.17977">
        <ele>1627.775</ele>
        <time>2020-09-03T13:40:54Z</time>
      </trkpt>
      <trkpt lat="44.12211" lon="5.17987">
        <ele>1627.558</ele>
        <time>2020-09-03T13:40:55Z</time>
      </trkpt>
      <trkpt lat="44.12202" lon="5.17997">
        <ele>1626.708</ele>
        <time>2020-09-03T13:40:56Z</time>
      </trkpt>
      <trkpt lat="44.12192" lon="5.18006">
        <ele>1625.471</ele>
        <time>2020-09-03T13:40:57Z</time>
      </trkpt>
      <trkpt lat="44.12182" lon="5.18016">
        <ele>1624.018</ele>
        <time>2020-09-03T13:40:58Z</time>
      </trkpt>
      <trkpt lat="44.12171" lon="5.18026">
        <ele>1622.465</ele>
        <time>2020-09-03T13:40:59Z</time>
      </trkpt>
      <trkpt lat="44.12161" lon="5.18035">
        <ele>1621.535</ele>
        <time>2020-09-03T13:41:00Z</time>
      </trkpt>
      <trkpt lat="44.12151" lon="5.18044">
        <ele>1620.871</ele>
        <time>2020-09-03T13:41:01Z</time>
      </trkpt>
      <trkpt lat="44.12142" lon="5.18054">
        <ele>1620.52</ele>
        <time>2020-09-03T13:41:02Z</time>
      </trkpt>
      <trkpt lat="44.12134" lon="5.18066">
        <ele>1620.248</ele>
        <time>2020-09-03T13:41:03Z</time>
      </trkpt>
      <trkpt lat="44.12124" lon="5.18077">
        <ele>1619.797</ele>
        <time>2020-09-03T13:41:04Z</time>
      </trkpt>
      <trkpt lat="44.12115" lon="5.18088">
        <ele>1618.883</ele>
        <time>2020-09-03T13:41:05Z</time>
      </trkpt>
      <trkpt lat="44.12105" lon="5.18099">
        <ele>1617.743</ele>
        <time>2020-09-03T13:41:06Z</time>
      </trkpt>
      <trkpt lat="44.12094" lon="5.18109">
        <ele>1616.532</ele>
        <time>2020-09-03T13:41:07Z</time>
      </trkpt>
      <trkpt lat="44.12084" lon="5.18119">
        <ele>1615.288</ele>
        <time>2020-09-03T13:41:08Z</time>
      </trkpt>
      <trkpt lat="44.12073" lon="5.18129">
        <ele>1614.294</ele>
        <time>2020-09-03T13:41:09Z</time>
      </trkpt>
      <trkpt lat="44.12063" lon="5.18138">
        <ele>1613.266</ele>
        <time>2020-09-03T13:41:10Z</time>
      </trkpt>
      <trkpt lat="44.1204" lon="5.18156">
        <ele>1611.869</ele>
        <time>2020-09-03T13:41:12Z</time>
      </trkpt>
      <trkpt lat="44.12028" lon="5.18165">
        <ele>1610.625</ele>
        <time>2020-09-03T13:41:13Z</time>
      </trkpt>
      <trkpt lat="44.12028" lon="5.18165">
        <ele>1609.47</ele>
        <time>2020-09-03T13:41:13Z</time>
      </trkpt>
      <trkpt lat="44.12003" lon="5.18184">
        <ele>1608.939</ele>
        <time>2020-09-03T13:41:15Z</time>
      </trkpt>
      <trkpt lat="44.11992" lon="5.18195">
        <ele>1608.905</ele>
        <time>2020-09-03T13:41:16Z</time>
      </trkpt>
      <trkpt lat="44.11982" lon="5.18205">
        <ele>1609.372</ele>
        <time>2020-09-03T13:41:17Z</time>
      </trkpt>
      <trkpt lat="44.11972" lon="5.18214">
        <ele>1609.747</ele>
        <time>2020-09-03T13:41:18Z</time>
      </trkpt>
      <trkpt lat="44.11963" lon="5.18222">
        <ele>1609.624</ele>
        <time>2020-09-03T13:41:19Z</time>
      </trkpt>
      <trkpt lat="44.11953" lon="5.18231">
        <ele>1608.749</ele>
        <time>2020-09-03T13:41:20Z</time>
      </trkpt>
      <trkpt lat="44.11953" lon="5.18231">
        <ele>1608.035</ele>
        <time>2020-09-03T13:41:20Z</time>
      </trkpt>
      <trkpt lat="44.11931" lon="5.18247">
        <ele>1607.366</ele>
        <time>2020-09-03T13:41:22Z</time>
      </trkpt>
      <trkpt lat="44.11931" lon="5.18247">
        <ele>1606.975</ele>
        <time>2020-09-03T13:41:22Z</time>
      </trkpt>
      <trkpt lat="44.11911" lon="5.18263">
        <ele>1606.903</ele>
        <time>2020-09-03T13:41:24Z</time>
      </trkpt>
      <trkpt lat="44.11911" lon="5.18263">
        <ele>1606.775</ele>
        <time>2020-09-03T13:41:24Z</time>
      </trkpt>
      <trkpt lat="44.11911" lon="5.18263">
        <ele>1606.333</ele>
        <time>2020-09-03T13:41:24Z</time>
      </trkpt>
      <trkpt lat="44.11911" lon="5.18263">
        <ele>1605.677</ele>
        <time>2020-09-03T13:41:24Z</time>
      </trkpt>
      <trkpt lat="44.11911" lon="5.18263">
        <ele>1604.776</ele>
        <time>2020-09-03T13:41:24Z</time>
      </trkpt>
      <trkpt lat="44.11859" lon="5.18297">
        <ele>1604.05</ele>
        <time>2020-09-03T13:41:29Z</time>
      </trkpt>
      <trkpt lat="44.11859" lon="5.18297">
        <ele>1603.281</ele>
        <time>2020-09-03T13:41:29Z</time>
      </trkpt>
      <trkpt lat="44.11838" lon="5.18308">
        <ele>1602.552</ele>
        <time>2020-09-03T13:41:31Z</time>
      </trkpt>
      <trkpt lat="44.11828" lon="5.18315">
        <ele>1601.598</ele>
        <time>2020-09-03T13:41:32Z</time>
      </trkpt>
      <trkpt lat="44.11818" lon="5.18323">
        <ele>1600.463</ele>
        <time>2020-09-03T13:41:33Z</time>
      </trkpt>
      <trkpt lat="44.11795" lon="5.18338">
        <ele>1599.188</ele>
        <time>2020-09-03T13:41:35Z</time>
      </trkpt>
      <trkpt lat="44.11784" lon="5.18347">
        <ele>1598.167</ele>
        <time>2020-09-03T13:41:36Z</time>
      </trkpt>
      <trkpt lat="44.11773" lon="5.18357">
        <ele>1597.452</ele>
        <time>2020-09-03T13:41:37Z</time>
      </trkpt>
      <trkpt lat="44.11762" lon="5.18365">
        <ele>1596.912</ele>
        <time>2020-09-03T13:41:38Z</time>
      </trkpt>
      <trkpt lat="44.11751" lon="5.18373">
        <ele>1596.462</ele>
        <time>2020-09-03T13:41:39Z</time>
      </trkpt>
      <trkpt lat="44.11739" lon="5.1838">
        <ele>1596.002</ele>
        <time>2020-09-03T13:41:40Z</time>
      </trkpt>
      <trkpt lat="44.11727" lon="5.18386">
        <ele>1595.494</ele>
        <time>2020-09-03T13:41:41Z</time>
      </trkpt>
      <trkpt lat="44.11715" lon="5.18392">
        <ele>1595.042</ele>
        <time>2020-09-03T13:41:42Z</time>
      </trkpt>
      <trkpt lat="44.11703" lon="5.18399">
        <ele>1594.969</ele>
        <time>2020-09-03T13:41:43Z</time>
      </trkpt>
      <trkpt lat="44.11682" lon="5.18416">
        <ele>1595.141</ele>
        <time>2020-09-03T13:41:45Z</time>
      </trkpt>
      <trkpt lat="44.11673" lon="5.18425">
        <ele>1595.182</ele>
        <time>2020-09-03T13:41:46Z</time>
      </trkpt>
      <trkpt lat="44.11663" lon="5.18434">
        <ele>1594.631</ele>
        <time>2020-09-03T13:41:47Z</time>
      </trkpt>
      <trkpt lat="44.11653" lon="5.18442">
        <ele>1593.381</ele>
        <time>2020-09-03T13:41:48Z</time>
      </trkpt>
      <trkpt lat="44.11642" lon="5.1845">
        <ele>1592.438</ele>
        <time>2020-09-03T13:41:49Z</time>
      </trkpt>
      <trkpt lat="44.11631" lon="5.18458">
        <ele>1591.044</ele>
        <time>2020-09-03T13:41:50Z</time>
      </trkpt>
      <trkpt lat="44.1162" lon="5.18467">
        <ele>1589.89</ele>
        <time>2020-09-03T13:41:51Z</time>
      </trkpt>
      <trkpt lat="44.1161" lon="5.18475">
        <ele>1588.913</ele>
        <time>2020-09-03T13:41:52Z</time>
      </trkpt>
      <trkpt lat="44.116" lon="5.18482">
        <ele>1587.858</ele>
        <time>2020-09-03T13:41:53Z</time>
      </trkpt>
      <trkpt lat="44.11589" lon="5.1849">
        <ele>1586.454</ele>
        <time>2020-09-03T13:41:54Z</time>
      </trkpt>
      <trkpt lat="44.11577" lon="5.18498">
        <ele>1584.447</ele>
        <time>2020-09-03T13:41:55Z</time>
      </trkpt>
      <trkpt lat="44.11565" lon="5.18507">
        <ele>1582.754</ele>
        <time>2020-09-03T13:41:56Z</time>
      </trkpt>
      <trkpt lat="44.11553" lon="5.18516">
        <ele>1581.274</ele>
        <time>2020-09-03T13:41:57Z</time>
      </trkpt>
      <trkpt lat="44.11542" lon="5.18524">
        <ele>1580.239</ele>
        <time>2020-09-03T13:41:58Z</time>
      </trkpt>
      <trkpt lat="44.11531" lon="5.18532">
        <ele>1579.506</ele>
        <time>2020-09-03T13:41:59Z</time>
      </trkpt>
      <trkpt lat="44.11522" lon="5.1854">
        <ele>1578.584</ele>
        <time>2020-09-03T13:42:00Z</time>
      </trkpt>
      <trkpt lat="44.11522" lon="5.1854">
        <ele>1577.268</ele>
        <time>2020-09-03T13:42:00Z</time>
      </trkpt>
      <trkpt lat="44.11492" lon="5.18564">
        <ele>1574.969</ele>
        <time>2020-09-03T13:42:03Z</time>
      </trkpt>
      <trkpt lat="44.11482" lon="5.18572">
        <ele>1573.086</ele>
        <time>2020-09-03T13:42:04Z</time>
      </trkpt>
      <trkpt lat="44.11472" lon="5.18581">
        <ele>1571.394</ele>
        <time>2020-09-03T13:42:05Z</time>
      </trkpt>
      <trkpt lat="44.11463" lon="5.1859">
        <ele>1569.95</ele>
        <time>2020-09-03T13:42:06Z</time>
      </trkpt>
      <trkpt lat="44.11454" lon="5.18599">
        <ele>1568.286</ele>
        <time>2020-09-03T13:42:07Z</time>
      </trkpt>
      <trkpt lat="44.11444" lon="5.18609">
        <ele>1566.571</ele>
        <time>2020-09-03T13:42:08Z</time>
      </trkpt>
      <trkpt lat="44.11434" lon="5.18618">
        <ele>1564.806</ele>
        <time>2020-09-03T13:42:09Z</time>
      </trkpt>
      <trkpt lat="44.11415" lon="5.18638">
        <ele>1563.277</ele>
        <time>2020-09-03T13:42:11Z</time>
      </trkpt>
      <trkpt lat="44.11406" lon="5.18648">
        <ele>1562.162</ele>
        <time>2020-09-03T13:42:12Z</time>
      </trkpt>
      <trkpt lat="44.11397" lon="5.18658">
        <ele>1561.386</ele>
        <time>2020-09-03T13:42:13Z</time>
      </trkpt>
      <trkpt lat="44.11389" lon="5.18668">
        <ele>1560.303</ele>
        <time>2020-09-03T13:42:14Z</time>
      </trkpt>
      <trkpt lat="44.1138" lon="5.18678">
        <ele>1559.153</ele>
        <time>2020-09-03T13:42:15Z</time>
      </trkpt>
      <trkpt lat="44.11371" lon="5.18687">
        <ele>1557.659</ele>
        <time>2020-09-03T13:42:16Z</time>
      </trkpt>
      <trkpt lat="44.11361" lon="5.18696">
        <ele>1556.388</ele>
        <time>2020-09-03T13:42:17Z</time>
      </trkpt>
      <trkpt lat="44.11352" lon="5.18705">
        <ele>1555.628</ele>
        <time>2020-09-03T13:42:18Z</time>
      </trkpt>
      <trkpt lat="44.11344" lon="5.18715">
        <ele>1554.381</ele>
        <time>2020-09-03T13:42:19Z</time>
      </trkpt>
      <trkpt lat="44.11335" lon="5.18725">
        <ele>1552.972</ele>
        <time>2020-09-03T13:42:20Z</time>
      </trkpt>
      <trkpt lat="44.11327" lon="5.18735">
        <ele>1551.613</ele>
        <time>2020-09-03T13:42:21Z</time>
      </trkpt>
      <trkpt lat="44.11319" lon="5.18745">
        <ele>1550.151</ele>
        <time>2020-09-03T13:42:22Z</time>
      </trkpt>
      <trkpt lat="44.1131" lon="5.18755">
        <ele>1548.496</ele>
        <time>2020-09-03T13:42:23Z</time>
      </trkpt>
      <trkpt lat="44.11302" lon="5.18767">
        <ele>1546.891</ele>
        <time>2020-09-03T13:42:24Z</time>
      </trkpt>
      <trkpt lat="44.11294" lon="5.18778">
        <ele>1545.042</ele>
        <time>2020-09-03T13:42:25Z</time>
      </trkpt>
      <trkpt lat="44.11285" lon="5.1879">
        <ele>1543.216</ele>
        <time>2020-09-03T13:42:26Z</time>
      </trkpt>
      <trkpt lat="44.11277" lon="5.18801">
        <ele>1542.133</ele>
        <time>2020-09-03T13:42:27Z</time>
      </trkpt>
      <trkpt lat="44.1127" lon="5.18812">
        <ele>1541.204</ele>
        <time>2020-09-03T13:42:28Z</time>
      </trkpt>
      <trkpt lat="44.11263" lon="5.18823">
        <ele>1539.853</ele>
        <time>2020-09-03T13:42:29Z</time>
      </trkpt>
      <trkpt lat="44.11248" lon="5.18846">
        <ele>1537.938</ele>
        <time>2020-09-03T13:42:31Z</time>
      </trkpt>
      <trkpt lat="44.1124" lon="5.18858">
        <ele>1535.775</ele>
        <time>2020-09-03T13:42:32Z</time>
      </trkpt>
      <trkpt lat="44.11232" lon="5.18871">
        <ele>1534.098</ele>
        <time>2020-09-03T13:42:33Z</time>
      </trkpt>
      <trkpt lat="44.11225" lon="5.18882">
        <ele>1532.797</ele>
        <time>2020-09-03T13:42:34Z</time>
      </trkpt>
      <trkpt lat="44.11217" lon="5.18893">
        <ele>1531.631</ele>
        <time>2020-09-03T13:42:35Z</time>
      </trkpt>
      <trkpt lat="44.1121" lon="5.18904">
        <ele>1530.584</ele>
        <time>2020-09-03T13:42:36Z</time>
      </trkpt>
      <trkpt lat="44.11201" lon="5.18915">
        <ele>1529.134</ele>
        <time>2020-09-03T13:42:37Z</time>
      </trkpt>
      <trkpt lat="44.11201" lon="5.18915">
        <ele>1527.953</ele>
        <time>2020-09-03T13:42:37Z</time>
      </trkpt>
      <trkpt lat="44.11185" lon="5.18939">
        <ele>1526.89</ele>
        <time>2020-09-03T13:42:39Z</time>
      </trkpt>
      <trkpt lat="44.11185" lon="5.18939">
        <ele>1525.78</ele>
        <time>2020-09-03T13:42:39Z</time>
      </trkpt>
      <trkpt lat="44.11185" lon="5.18939">
        <ele>1524.624</ele>
        <time>2020-09-03T13:42:39Z</time>
      </trkpt>
      <trkpt lat="44.11185" lon="5.18939">
        <ele>1523.353</ele>
        <time>2020-09-03T13:42:39Z</time>
      </trkpt>
      <trkpt lat="44.11185" lon="5.18939">
        <ele>1521.807</ele>
        <time>2020-09-03T13:42:39Z</time>
      </trkpt>
      <trkpt lat="44.11146" lon="5.18997">
        <ele>1520.254</ele>
        <time>2020-09-03T13:42:44Z</time>
      </trkpt>
      <trkpt lat="44.11137" lon="5.19009">
        <ele>1519.227</ele>
        <time>2020-09-03T13:42:45Z</time>
      </trkpt>
      <trkpt lat="44.11128" lon="5.1902">
        <ele>1517.77</ele>
        <time>2020-09-03T13:42:46Z</time>
      </trkpt>
      <trkpt lat="44.11119" lon="5.19031">
        <ele>1516.52</ele>
        <time>2020-09-03T13:42:47Z</time>
      </trkpt>
      <trkpt lat="44.11111" lon="5.19042">
        <ele>1515.472</ele>
        <time>2020-09-03T13:42:48Z</time>
      </trkpt>
      <trkpt lat="44.11095" lon="5.19064">
        <ele>1514.222</ele>
        <time>2020-09-03T13:42:50Z</time>
      </trkpt>
      <trkpt lat="44.11086" lon="5.19075">
        <ele>1512.867</ele>
        <time>2020-09-03T13:42:51Z</time>
      </trkpt>
      <trkpt lat="44.11078" lon="5.19086">
        <ele>1510.89</ele>
        <time>2020-09-03T13:42:52Z</time>
      </trkpt>
      <trkpt lat="44.11068" lon="5.19097">
        <ele>1509.057</ele>
        <time>2020-09-03T13:42:53Z</time>
      </trkpt>
      <trkpt lat="44.11059" lon="5.19108">
        <ele>1507.537</ele>
        <time>2020-09-03T13:42:54Z</time>
      </trkpt>
      <trkpt lat="44.1105" lon="5.19119">
        <ele>1505.85</ele>
        <time>2020-09-03T13:42:55Z</time>
      </trkpt>
      <trkpt lat="44.11042" lon="5.19131">
        <ele>1504.156</ele>
        <time>2020-09-03T13:42:56Z</time>
      </trkpt>
      <trkpt lat="44.11033" lon="5.19142">
        <ele>1502.455</ele>
        <time>2020-09-03T13:42:57Z</time>
      </trkpt>
      <trkpt lat="44.11024" lon="5.19152">
        <ele>1500.853</ele>
        <time>2020-09-03T13:42:58Z</time>
      </trkpt>
      <trkpt lat="44.11005" lon="5.19173">
        <ele>1498.614</ele>
        <time>2020-09-03T13:43:00Z</time>
      </trkpt>
      <trkpt lat="44.10996" lon="5.19184">
        <ele>1496.423</ele>
        <time>2020-09-03T13:43:01Z</time>
      </trkpt>
      <trkpt lat="44.10988" lon="5.19196">
        <ele>1494.806</ele>
        <time>2020-09-03T13:43:02Z</time>
      </trkpt>
      <trkpt lat="44.10979" lon="5.19208">
        <ele>1493.354</ele>
        <time>2020-09-03T13:43:03Z</time>
      </trkpt>
      <trkpt lat="44.10971" lon="5.1922">
        <ele>1492.207</ele>
        <time>2020-09-03T13:43:04Z</time>
      </trkpt>
      <trkpt lat="44.10964" lon="5.19232">
        <ele>1490.821</ele>
        <time>2020-09-03T13:43:05Z</time>
      </trkpt>
      <trkpt lat="44.10956" lon="5.19244">
        <ele>1489.451</ele>
        <time>2020-09-03T13:43:06Z</time>
      </trkpt>
      <trkpt lat="44.10948" lon="5.19256">
        <ele>1487.655</ele>
        <time>2020-09-03T13:43:07Z</time>
      </trkpt>
      <trkpt lat="44.10939" lon="5.19268">
        <ele>1486.069</ele>
        <time>2020-09-03T13:43:08Z</time>
      </trkpt>
      <trkpt lat="44.10931" lon="5.1928">
        <ele>1484.464</ele>
        <time>2020-09-03T13:43:09Z</time>
      </trkpt>
      <trkpt lat="44.10922" lon="5.19292">
        <ele>1483.018</ele>
        <time>2020-09-03T13:43:10Z</time>
      </trkpt>
      <trkpt lat="44.10914" lon="5.19303">
        <ele>1481.591</ele>
        <time>2020-09-03T13:43:11Z</time>
      </trkpt>
      <trkpt lat="44.10906" lon="5.19314">
        <ele>1480.192</ele>
        <time>2020-09-03T13:43:12Z</time>
      </trkpt>
      <trkpt lat="44.10896" lon="5.19325">
        <ele>1478.319</ele>
        <time>2020-09-03T13:43:13Z</time>
      </trkpt>
      <trkpt lat="44.10896" lon="5.19325">
        <ele>1477.059</ele>
        <time>2020-09-03T13:43:13Z</time>
      </trkpt>
      <trkpt lat="44.10877" lon="5.19347">
        <ele>1475.252</ele>
        <time>2020-09-03T13:43:15Z</time>
      </trkpt>
      <trkpt lat="44.10868" lon="5.19359">
        <ele>1473.306</ele>
        <time>2020-09-03T13:43:16Z</time>
      </trkpt>
      <trkpt lat="44.1085" lon="5.19381">
        <ele>1471.383</ele>
        <time>2020-09-03T13:43:18Z</time>
      </trkpt>
      <trkpt lat="44.10841" lon="5.19392">
        <ele>1469.846</ele>
        <time>2020-09-03T13:43:19Z</time>
      </trkpt>
      <trkpt lat="44.10832" lon="5.19402">
        <ele>1467.74</ele>
        <time>2020-09-03T13:43:20Z</time>
      </trkpt>
      <trkpt lat="44.10823" lon="5.19413">
        <ele>1465.431</ele>
        <time>2020-09-03T13:43:21Z</time>
      </trkpt>
      <trkpt lat="44.10813" lon="5.19424">
        <ele>1462.796</ele>
        <time>2020-09-03T13:43:22Z</time>
      </trkpt>
      <trkpt lat="44.10803" lon="5.19434">
        <ele>1460.35</ele>
        <time>2020-09-03T13:43:23Z</time>
      </trkpt>
      <trkpt lat="44.10793" lon="5.19443">
        <ele>1458.625</ele>
        <time>2020-09-03T13:43:24Z</time>
      </trkpt>
      <trkpt lat="44.10783" lon="5.19452">
        <ele>1456.949</ele>
        <time>2020-09-03T13:43:25Z</time>
      </trkpt>
      <trkpt lat="44.10773" lon="5.19461">
        <ele>1454.851</ele>
        <time>2020-09-03T13:43:26Z</time>
      </trkpt>
      <trkpt lat="44.10754" lon="5.19481">
        <ele>1452.429</ele>
        <time>2020-09-03T13:43:28Z</time>
      </trkpt>
      <trkpt lat="44.10754" lon="5.19481">
        <ele>1450.264</ele>
        <time>2020-09-03T13:43:28Z</time>
      </trkpt>
      <trkpt lat="44.10734" lon="5.19499">
        <ele>1448.244</ele>
        <time>2020-09-03T13:43:30Z</time>
      </trkpt>
      <trkpt lat="44.10724" lon="5.19508">
        <ele>1446.825</ele>
        <time>2020-09-03T13:43:31Z</time>
      </trkpt>
      <trkpt lat="44.10715" lon="5.19517">
        <ele>1445.622</ele>
        <time>2020-09-03T13:43:32Z</time>
      </trkpt>
      <trkpt lat="44.10707" lon="5.19526">
        <ele>1444.483</ele>
        <time>2020-09-03T13:43:33Z</time>
      </trkpt>
      <trkpt lat="44.10698" lon="5.19534">
        <ele>1442.787</ele>
        <time>2020-09-03T13:43:34Z</time>
      </trkpt>
      <trkpt lat="44.10688" lon="5.19542">
        <ele>1440.771</ele>
        <time>2020-09-03T13:43:35Z</time>
      </trkpt>
      <trkpt lat="44.10679" lon="5.1955">
        <ele>1438.76</ele>
        <time>2020-09-03T13:43:36Z</time>
      </trkpt>
      <trkpt lat="44.10669" lon="5.19559">
        <ele>1436.691</ele>
        <time>2020-09-03T13:43:37Z</time>
      </trkpt>
      <trkpt lat="44.10659" lon="5.19568">
        <ele>1434.632</ele>
        <time>2020-09-03T13:43:38Z</time>
      </trkpt>
      <trkpt lat="44.10649" lon="5.19578">
        <ele>1432.907</ele>
        <time>2020-09-03T13:43:39Z</time>
      </trkpt>
      <trkpt lat="44.1064" lon="5.19588">
        <ele>1431.279</ele>
        <time>2020-09-03T13:43:40Z</time>
      </trkpt>
      <trkpt lat="44.1063" lon="5.19597">
        <ele>1429.829</ele>
        <time>2020-09-03T13:43:41Z</time>
      </trkpt>
      <trkpt lat="44.1062" lon="5.19606">
        <ele>1428.74</ele>
        <time>2020-09-03T13:43:42Z</time>
      </trkpt>
      <trkpt lat="44.1061" lon="5.19614">
        <ele>1426.912</ele>
        <time>2020-09-03T13:43:43Z</time>
      </trkpt>
      <trkpt lat="44.106" lon="5.19621">
        <ele>1424.858</ele>
        <time>2020-09-03T13:43:44Z</time>
      </trkpt>
      <trkpt lat="44.1059" lon="5.19628">
        <ele>1422.635</ele>
        <time>2020-09-03T13:43:45Z</time>
      </trkpt>
      <trkpt lat="44.1058" lon="5.19635">
        <ele>1420.744</ele>
        <time>2020-09-03T13:43:46Z</time>
      </trkpt>
      <trkpt lat="44.1057" lon="5.19643">
        <ele>1418.807</ele>
        <time>2020-09-03T13:43:47Z</time>
      </trkpt>
      <trkpt lat="44.10561" lon="5.19653">
        <ele>1416.292</ele>
        <time>2020-09-03T13:43:48Z</time>
      </trkpt>
      <trkpt lat="44.1054" lon="5.1967">
        <ele>1413.764</ele>
        <time>2020-09-03T13:43:50Z</time>
      </trkpt>
      <trkpt lat="44.10529" lon="5.19677">
        <ele>1412.042</ele>
        <time>2020-09-03T13:43:51Z</time>
      </trkpt>
      <trkpt lat="44.10518" lon="5.19685">
        <ele>1410.011</ele>
        <time>2020-09-03T13:43:52Z</time>
      </trkpt>
      <trkpt lat="44.10507" lon="5.19694">
        <ele>1407.573</ele>
        <time>2020-09-03T13:43:53Z</time>
      </trkpt>
      <trkpt lat="44.10497" lon="5.19704">
        <ele>1405.113</ele>
        <time>2020-09-03T13:43:54Z</time>
      </trkpt>
      <trkpt lat="44.10486" lon="5.19713">
        <ele>1403.193</ele>
        <time>2020-09-03T13:43:55Z</time>
      </trkpt>
      <trkpt lat="44.10474" lon="5.19721">
        <ele>1401.656</ele>
        <time>2020-09-03T13:43:56Z</time>
      </trkpt>
      <trkpt lat="44.10463" lon="5.19728">
        <ele>1400.204</ele>
        <time>2020-09-03T13:43:57Z</time>
      </trkpt>
      <trkpt lat="44.10453" lon="5.19736">
        <ele>1398.962</ele>
        <time>2020-09-03T13:43:58Z</time>
      </trkpt>
      <trkpt lat="44.10444" lon="5.19745">
        <ele>1397.687</ele>
        <time>2020-09-03T13:43:59Z</time>
      </trkpt>
      <trkpt lat="44.10434" lon="5.19754">
        <ele>1396.069</ele>
        <time>2020-09-03T13:44:00Z</time>
      </trkpt>
      <trkpt lat="44.10424" lon="5.19762">
        <ele>1394.103</ele>
        <time>2020-09-03T13:44:01Z</time>
      </trkpt>
      <trkpt lat="44.10413" lon="5.1977">
        <ele>1392.228</ele>
        <time>2020-09-03T13:44:02Z</time>
      </trkpt>
      <trkpt lat="44.10403" lon="5.19779">
        <ele>1390.472</ele>
        <time>2020-09-03T13:44:03Z</time>
      </trkpt>
      <trkpt lat="44.10392" lon="5.19788">
        <ele>1389.041</ele>
        <time>2020-09-03T13:44:04Z</time>
      </trkpt>
      <trkpt lat="44.10382" lon="5.19797">
        <ele>1387.656</ele>
        <time>2020-09-03T13:44:05Z</time>
      </trkpt>
      <trkpt lat="44.10372" lon="5.19805">
        <ele>1386.369</ele>
        <time>2020-09-03T13:44:06Z</time>
      </trkpt>
      <trkpt lat="44.10362" lon="5.19813">
        <ele>1384.715</ele>
        <time>2020-09-03T13:44:07Z</time>
      </trkpt>
      <trkpt lat="44.10351" lon="5.19821">
        <ele>1382.56</ele>
        <time>2020-09-03T13:44:08Z</time>
      </trkpt>
      <trkpt lat="44.1033" lon="5.19836">
        <ele>1380.593</ele>
        <time>2020-09-03T13:44:10Z</time>
      </trkpt>
      <trkpt lat="44.10319" lon="5.19844">
        <ele>1379.388</ele>
        <time>2020-09-03T13:44:11Z</time>
      </trkpt>
      <trkpt lat="44.10308" lon="5.19851">
        <ele>1378.147</ele>
        <time>2020-09-03T13:44:12Z</time>
      </trkpt>
      <trkpt lat="44.10297" lon="5.19857">
        <ele>1376.605</ele>
        <time>2020-09-03T13:44:13Z</time>
      </trkpt>
      <trkpt lat="44.10286" lon="5.19863">
        <ele>1375.431</ele>
        <time>2020-09-03T13:44:14Z</time>
      </trkpt>
      <trkpt lat="44.10275" lon="5.19869">
        <ele>1374.032</ele>
        <time>2020-09-03T13:44:15Z</time>
      </trkpt>
      <trkpt lat="44.10264" lon="5.19875">
        <ele>1372.718</ele>
        <time>2020-09-03T13:44:16Z</time>
      </trkpt>
      <trkpt lat="44.10254" lon="5.19882">
        <ele>1371.475</ele>
        <time>2020-09-03T13:44:17Z</time>
      </trkpt>
      <trkpt lat="44.10243" lon="5.19889">
        <ele>1370.217</ele>
        <time>2020-09-03T13:44:18Z</time>
      </trkpt>
      <trkpt lat="44.10232" lon="5.19896">
        <ele>1369.058</ele>
        <time>2020-09-03T13:44:19Z</time>
      </trkpt>
      <trkpt lat="44.10232" lon="5.19896">
        <ele>1367.752</ele>
        <time>2020-09-03T13:44:19Z</time>
      </trkpt>
      <trkpt lat="44.10232" lon="5.19896">
        <ele>1366.465</ele>
        <time>2020-09-03T13:44:19Z</time>
      </trkpt>
      <trkpt lat="44.10232" lon="5.19896">
        <ele>1365.322</ele>
        <time>2020-09-03T13:44:19Z</time>
      </trkpt>
      <trkpt lat="44.10232" lon="5.19896">
        <ele>1364.646</ele>
        <time>2020-09-03T13:44:19Z</time>
      </trkpt>
      <trkpt lat="44.10175" lon="5.19929">
        <ele>1364.4</ele>
        <time>2020-09-03T13:44:24Z</time>
      </trkpt>
      <trkpt lat="44.10164" lon="5.19936">
        <ele>1364.381</ele>
        <time>2020-09-03T13:44:25Z</time>
      </trkpt>
      <trkpt lat="44.10154" lon="5.19942">
        <ele>1364.237</ele>
        <time>2020-09-03T13:44:26Z</time>
      </trkpt>
      <trkpt lat="44.10143" lon="5.19948">
        <ele>1363.672</ele>
        <time>2020-09-03T13:44:27Z</time>
      </trkpt>
      <trkpt lat="44.10133" lon="5.19953">
        <ele>1362.881</ele>
        <time>2020-09-03T13:44:28Z</time>
      </trkpt>
      <trkpt lat="44.1011" lon="5.19965">
        <ele>1362.042</ele>
        <time>2020-09-03T13:44:30Z</time>
      </trkpt>
      <trkpt lat="44.10099" lon="5.19971">
        <ele>1361.697</ele>
        <time>2020-09-03T13:44:31Z</time>
      </trkpt>
      <trkpt lat="44.10088" lon="5.19977">
        <ele>1361.758</ele>
        <time>2020-09-03T13:44:32Z</time>
      </trkpt>
      <trkpt lat="44.10078" lon="5.19983">
        <ele>1362.028</ele>
        <time>2020-09-03T13:44:33Z</time>
      </trkpt>
      <trkpt lat="44.10078" lon="5.19983">
        <ele>1362.294</ele>
        <time>2020-09-03T13:44:33Z</time>
      </trkpt>
      <trkpt lat="44.10057" lon="5.19994">
        <ele>1362.444</ele>
        <time>2020-09-03T13:44:35Z</time>
      </trkpt>
      <trkpt lat="44.10048" lon="5.19998">
        <ele>1362.669</ele>
        <time>2020-09-03T13:44:36Z</time>
      </trkpt>
      <trkpt lat="44.10039" lon="5.20004">
        <ele>1363.28</ele>
        <time>2020-09-03T13:44:37Z</time>
      </trkpt>
      <trkpt lat="44.1003" lon="5.2001">
        <ele>1363.58</ele>
        <time>2020-09-03T13:44:38Z</time>
      </trkpt>
      <trkpt lat="44.10023" lon="5.20018">
        <ele>1364.455</ele>
        <time>2020-09-03T13:44:39Z</time>
      </trkpt>
      <trkpt lat="44.10017" lon="5.20026">
        <ele>1364.953</ele>
        <time>2020-09-03T13:44:40Z</time>
      </trkpt>
      <trkpt lat="44.10013" lon="5.20036">
        <ele>1365.24</ele>
        <time>2020-09-03T13:44:41Z</time>
      </trkpt>
      <trkpt lat="44.10011" lon="5.20047">
        <ele>1365.205</ele>
        <time>2020-09-03T13:44:42Z</time>
      </trkpt>
      <trkpt lat="44.10011" lon="5.20047">
        <ele>1364.956</ele>
        <time>2020-09-03T13:44:42Z</time>
      </trkpt>
      <trkpt lat="44.10014" lon="5.20069">
        <ele>1364.606</ele>
        <time>2020-09-03T13:44:44Z</time>
      </trkpt>
      <trkpt lat="44.10027" lon="5.20082">
        <ele>1364.235</ele>
        <time>2020-09-03T13:44:46Z</time>
      </trkpt>
      <trkpt lat="44.10035" lon="5.20082">
        <ele>1363.778</ele>
        <time>2020-09-03T13:44:47Z</time>
      </trkpt>
      <trkpt lat="44.10043" lon="5.20079">
        <ele>1363.092</ele>
        <time>2020-09-03T13:44:48Z</time>
      </trkpt>
      <trkpt lat="44.10043" lon="5.20079">
        <ele>1362.534</ele>
        <time>2020-09-03T13:44:48Z</time>
      </trkpt>
      <trkpt lat="44.10055" lon="5.20064">
        <ele>1361.989</ele>
        <time>2020-09-03T13:44:50Z</time>
      </trkpt>
      <trkpt lat="44.10058" lon="5.20053">
        <ele>1361.477</ele>
        <time>2020-09-03T13:44:51Z</time>
      </trkpt>
      <trkpt lat="44.10059" lon="5.20041">
        <ele>1361.057</ele>
        <time>2020-09-03T13:44:52Z</time>
      </trkpt>
      <trkpt lat="44.10057" lon="5.20028">
        <ele>1360.648</ele>
        <time>2020-09-03T13:44:53Z</time>
      </trkpt>
      <trkpt lat="44.10057" lon="5.20028">
        <ele>1360.37</ele>
        <time>2020-09-03T13:44:53Z</time>
      </trkpt>
      <trkpt lat="44.10048" lon="5.20006">
        <ele>1360.426</ele>
        <time>2020-09-03T13:44:55Z</time>
      </trkpt>
      <trkpt lat="44.10042" lon="5.19997">
        <ele>1360.777</ele>
        <time>2020-09-03T13:44:56Z</time>
      </trkpt>
      <trkpt lat="44.10036" lon="5.19988">
        <ele>1361.189</ele>
        <time>2020-09-03T13:44:57Z</time>
      </trkpt>
      <trkpt lat="44.10029" lon="5.1998">
        <ele>1361.63</ele>
        <time>2020-09-03T13:44:58Z</time>
      </trkpt>
      <trkpt lat="44.10023" lon="5.19971">
        <ele>1362.037</ele>
        <time>2020-09-03T13:44:59Z</time>
      </trkpt>
      <trkpt lat="44.10017" lon="5.19962">
        <ele>1362.253</ele>
        <time>2020-09-03T13:45:00Z</time>
      </trkpt>
      <trkpt lat="44.1001" lon="5.19953">
        <ele>1362.353</ele>
        <time>2020-09-03T13:45:01Z</time>
      </trkpt>
      <trkpt lat="44.10002" lon="5.19945">
        <ele>1362.365</ele>
        <time>2020-09-03T13:45:02Z</time>
      </trkpt>
      <trkpt lat="44.09993" lon="5.19939">
        <ele>1362.329</ele>
        <time>2020-09-03T13:45:03Z</time>
      </trkpt>
      <trkpt lat="44.09984" lon="5.19934">
        <ele>1362.268</ele>
        <time>2020-09-03T13:45:04Z</time>
      </trkpt>
      <trkpt lat="44.09964" lon="5.19931">
        <ele>1362.238</ele>
        <time>2020-09-03T13:45:06Z</time>
      </trkpt>
      <trkpt lat="44.09955" lon="5.19932">
        <ele>1362.279</ele>
        <time>2020-09-03T13:45:07Z</time>
      </trkpt>
      <trkpt lat="44.09945" lon="5.19933">
        <ele>1362.372</ele>
        <time>2020-09-03T13:45:08Z</time>
      </trkpt>
      <trkpt lat="44.09935" lon="5.19935">
        <ele>1362.502</ele>
        <time>2020-09-03T13:45:09Z</time>
      </trkpt>
      <trkpt lat="44.09925" lon="5.19936">
        <ele>1362.477</ele>
        <time>2020-09-03T13:45:10Z</time>
      </trkpt>
      <trkpt lat="44.09914" lon="5.19938">
        <ele>1362.378</ele>
        <time>2020-09-03T13:45:11Z</time>
      </trkpt>
      <trkpt lat="44.09903" lon="5.19941">
        <ele>1362.459</ele>
        <time>2020-09-03T13:45:12Z</time>
      </trkpt>
      <trkpt lat="44.09892" lon="5.19945">
        <ele>1362.82</ele>
        <time>2020-09-03T13:45:13Z</time>
      </trkpt>
      <trkpt lat="44.09883" lon="5.19948">
        <ele>1363.517</ele>
        <time>2020-09-03T13:45:14Z</time>
      </trkpt>
      <trkpt lat="44.09874" lon="5.1995">
        <ele>1364.264</ele>
        <time>2020-09-03T13:45:15Z</time>
      </trkpt>
      <trkpt lat="44.09865" lon="5.19953">
        <ele>1365.107</ele>
        <time>2020-09-03T13:45:16Z</time>
      </trkpt>
      <trkpt lat="44.09856" lon="5.19954">
        <ele>1365.916</ele>
        <time>2020-09-03T13:45:17Z</time>
      </trkpt>
      <trkpt lat="44.09848" lon="5.19955">
        <ele>1366.926</ele>
        <time>2020-09-03T13:45:18Z</time>
      </trkpt>
      <trkpt lat="44.0984" lon="5.19952">
        <ele>1367.605</ele>
        <time>2020-09-03T13:45:19Z</time>
      </trkpt>
      <trkpt lat="44.09833" lon="5.19947">
        <ele>1367.886</ele>
        <time>2020-09-03T13:45:20Z</time>
      </trkpt>
      <trkpt lat="44.09826" lon="5.1994">
        <ele>1367.942</ele>
        <time>2020-09-03T13:45:21Z</time>
      </trkpt>
      <trkpt lat="44.09819" lon="5.19931">
        <ele>1368.024</ele>
        <time>2020-09-03T13:45:22Z</time>
      </trkpt>
      <trkpt lat="44.09814" lon="5.19921">
        <ele>1368.215</ele>
        <time>2020-09-03T13:45:23Z</time>
      </trkpt>
      <trkpt lat="44.09811" lon="5.19909">
        <ele>1368.577</ele>
        <time>2020-09-03T13:45:24Z</time>
      </trkpt>
      <trkpt lat="44.09811" lon="5.19898">
        <ele>1369.157</ele>
        <time>2020-09-03T13:45:25Z</time>
      </trkpt>
      <trkpt lat="44.09812" lon="5.19887">
        <ele>1369.719</ele>
        <time>2020-09-03T13:45:26Z</time>
      </trkpt>
      <trkpt lat="44.0982" lon="5.19866">
        <ele>1369.971</ele>
        <time>2020-09-03T13:45:28Z</time>
      </trkpt>
      <trkpt lat="44.0982" lon="5.19866">
        <ele>1370.035</ele>
        <time>2020-09-03T13:45:28Z</time>
      </trkpt>
      <trkpt lat="44.09834" lon="5.19855">
        <ele>1369.837</ele>
        <time>2020-09-03T13:45:30Z</time>
      </trkpt>
      <trkpt lat="44.09842" lon="5.19854">
        <ele>1369.451</ele>
        <time>2020-09-03T13:45:31Z</time>
      </trkpt>
      <trkpt lat="44.09849" lon="5.19857">
        <ele>1369.187</ele>
        <time>2020-09-03T13:45:32Z</time>
      </trkpt>
      <trkpt lat="44.09855" lon="5.19863">
        <ele>1368.911</ele>
        <time>2020-09-03T13:45:33Z</time>
      </trkpt>
      <trkpt lat="44.09855" lon="5.19863">
        <ele>1368.785</ele>
        <time>2020-09-03T13:45:33Z</time>
      </trkpt>
      <trkpt lat="44.09863" lon="5.19882">
        <ele>1368.484</ele>
        <time>2020-09-03T13:45:35Z</time>
      </trkpt>
      <trkpt lat="44.09864" lon="5.19894">
        <ele>1368.251</ele>
        <time>2020-09-03T13:45:36Z</time>
      </trkpt>
      <trkpt lat="44.09863" lon="5.19906">
        <ele>1368.305</ele>
        <time>2020-09-03T13:45:37Z</time>
      </trkpt>
      <trkpt lat="44.09861" lon="5.19917">
        <ele>1368.587</ele>
        <time>2020-09-03T13:45:38Z</time>
      </trkpt>
      <trkpt lat="44.09857" lon="5.19927">
        <ele>1369.001</ele>
        <time>2020-09-03T13:45:39Z</time>
      </trkpt>
      <trkpt lat="44.09853" lon="5.19938">
        <ele>1369.477</ele>
        <time>2020-09-03T13:45:40Z</time>
      </trkpt>
      <trkpt lat="44.09849" lon="5.19948">
        <ele>1369.817</ele>
        <time>2020-09-03T13:45:41Z</time>
      </trkpt>
      <trkpt lat="44.09846" lon="5.1996">
        <ele>1370.244</ele>
        <time>2020-09-03T13:45:42Z</time>
      </trkpt>
      <trkpt lat="44.09843" lon="5.19972">
        <ele>1370.647</ele>
        <time>2020-09-03T13:45:43Z</time>
      </trkpt>
      <trkpt lat="44.09842" lon="5.19983">
        <ele>1371.164</ele>
        <time>2020-09-03T13:45:44Z</time>
      </trkpt>
      <trkpt lat="44.09841" lon="5.19994">
        <ele>1371.563</ele>
        <time>2020-09-03T13:45:45Z</time>
      </trkpt>
      <trkpt lat="44.09841" lon="5.20005">
        <ele>1371.783</ele>
        <time>2020-09-03T13:45:46Z</time>
      </trkpt>
      <trkpt lat="44.09842" lon="5.20016">
        <ele>1371.773</ele>
        <time>2020-09-03T13:45:47Z</time>
      </trkpt>
      <trkpt lat="44.09845" lon="5.20026">
        <ele>1371.629</ele>
        <time>2020-09-03T13:45:48Z</time>
      </trkpt>
      <trkpt lat="44.0985" lon="5.20033">
        <ele>1371.277</ele>
        <time>2020-09-03T13:45:49Z</time>
      </trkpt>
      <trkpt lat="44.09858" lon="5.20037">
        <ele>1370.879</ele>
        <time>2020-09-03T13:45:50Z</time>
      </trkpt>
      <trkpt lat="44.09867" lon="5.20038">
        <ele>1370.615</ele>
        <time>2020-09-03T13:45:51Z</time>
      </trkpt>
      <trkpt lat="44.09884" lon="5.20031">
        <ele>1370.596</ele>
        <time>2020-09-03T13:45:53Z</time>
      </trkpt>
      <trkpt lat="44.09884" lon="5.20031">
        <ele>1370.856</ele>
        <time>2020-09-03T13:45:53Z</time>
      </trkpt>
      <trkpt lat="44.09895" lon="5.20014">
        <ele>1371.345</ele>
        <time>2020-09-03T13:45:55Z</time>
      </trkpt>
      <trkpt lat="44.09898" lon="5.20003">
        <ele>1371.662</ele>
        <time>2020-09-03T13:45:56Z</time>
      </trkpt>
      <trkpt lat="44.09898" lon="5.19991">
        <ele>1371.699</ele>
        <time>2020-09-03T13:45:57Z</time>
      </trkpt>
      <trkpt lat="44.09895" lon="5.19979">
        <ele>1371.437</ele>
        <time>2020-09-03T13:45:58Z</time>
      </trkpt>
      <trkpt lat="44.0989" lon="5.19968">
        <ele>1370.904</ele>
        <time>2020-09-03T13:45:59Z</time>
      </trkpt>
      <trkpt lat="44.09882" lon="5.19958">
        <ele>1370.413</ele>
        <time>2020-09-03T13:46:00Z</time>
      </trkpt>
      <trkpt lat="44.09874" lon="5.19951">
        <ele>1370.003</ele>
        <time>2020-09-03T13:46:01Z</time>
      </trkpt>
      <trkpt lat="44.09874" lon="5.19951">
        <ele>1369.878</ele>
        <time>2020-09-03T13:46:01Z</time>
      </trkpt>
      <trkpt lat="44.09856" lon="5.19939">
        <ele>1369.894</ele>
        <time>2020-09-03T13:46:03Z</time>
      </trkpt>
      <trkpt lat="44.09846" lon="5.19934">
        <ele>1370.001</ele>
        <time>2020-09-03T13:46:04Z</time>
      </trkpt>
      <trkpt lat="44.09837" lon="5.19929">
        <ele>1370.045</ele>
        <time>2020-09-03T13:46:05Z</time>
      </trkpt>
      <trkpt lat="44.09828" lon="5.19924">
        <ele>1369.956</ele>
        <time>2020-09-03T13:46:06Z</time>
      </trkpt>
      <trkpt lat="44.09819" lon="5.1992">
        <ele>1369.723</ele>
        <time>2020-09-03T13:46:07Z</time>
      </trkpt>
      <trkpt lat="44.09809" lon="5.19916">
        <ele>1369.345</ele>
        <time>2020-09-03T13:46:08Z</time>
      </trkpt>
      <trkpt lat="44.09798" lon="5.19913">
        <ele>1369.046</ele>
        <time>2020-09-03T13:46:09Z</time>
      </trkpt>
      <trkpt lat="44.09787" lon="5.1991">
        <ele>1368.845</ele>
        <time>2020-09-03T13:46:10Z</time>
      </trkpt>
      <trkpt lat="44.09787" lon="5.1991">
        <ele>1368.887</ele>
        <time>2020-09-03T13:46:10Z</time>
      </trkpt>
      <trkpt lat="44.09787" lon="5.1991">
        <ele>1369.162</ele>
        <time>2020-09-03T13:46:10Z</time>
      </trkpt>
      <trkpt lat="44.09787" lon="5.1991">
        <ele>1369.338</ele>
        <time>2020-09-03T13:46:10Z</time>
      </trkpt>
      <trkpt lat="44.09746" lon="5.19904">
        <ele>1369.203</ele>
        <time>2020-09-03T13:46:14Z</time>
      </trkpt>
      <trkpt lat="44.09724" lon="5.19905">
        <ele>1368.607</ele>
        <time>2020-09-03T13:46:16Z</time>
      </trkpt>
      <trkpt lat="44.09713" lon="5.19905">
        <ele>1368.125</ele>
        <time>2020-09-03T13:46:17Z</time>
      </trkpt>
      <trkpt lat="44.09702" lon="5.19906">
        <ele>1368.205</ele>
        <time>2020-09-03T13:46:18Z</time>
      </trkpt>
      <trkpt lat="44.09692" lon="5.19906">
        <ele>1368.7</ele>
        <time>2020-09-03T13:46:19Z</time>
      </trkpt>
      <trkpt lat="44.09683" lon="5.19908">
        <ele>1369.438</ele>
        <time>2020-09-03T13:46:20Z</time>
      </trkpt>
      <trkpt lat="44.09674" lon="5.1991">
        <ele>1370.149</ele>
        <time>2020-09-03T13:46:21Z</time>
      </trkpt>
      <trkpt lat="44.09666" lon="5.19915">
        <ele>1370.884</ele>
        <time>2020-09-03T13:46:22Z</time>
      </trkpt>
      <trkpt lat="44.09659" lon="5.19923">
        <ele>1371.616</ele>
        <time>2020-09-03T13:46:23Z</time>
      </trkpt>
      <trkpt lat="44.09653" lon="5.19933">
        <ele>1372.206</ele>
        <time>2020-09-03T13:46:24Z</time>
      </trkpt>
      <trkpt lat="44.09649" lon="5.19944">
        <ele>1372.845</ele>
        <time>2020-09-03T13:46:25Z</time>
      </trkpt>
      <trkpt lat="44.09649" lon="5.19944">
        <ele>1373.409</ele>
        <time>2020-09-03T13:46:25Z</time>
      </trkpt>
      <trkpt lat="44.09658" lon="5.19973">
        <ele>1373.838</ele>
        <time>2020-09-03T13:46:28Z</time>
      </trkpt>
      <trkpt lat="44.09658" lon="5.19973">
        <ele>1374.158</ele>
        <time>2020-09-03T13:46:28Z</time>
      </trkpt>
      <trkpt lat="44.09673" lon="5.1997">
        <ele>1374.303</ele>
        <time>2020-09-03T13:46:30Z</time>
      </trkpt>
      <trkpt lat="44.0968" lon="5.19963">
        <ele>1375.06</ele>
        <time>2020-09-03T13:46:31Z</time>
      </trkpt>
      <trkpt lat="44.09686" lon="5.19955">
        <ele>1376.113</ele>
        <time>2020-09-03T13:46:32Z</time>
      </trkpt>
      <trkpt lat="44.09687" lon="5.19945">
        <ele>1377.339</ele>
        <time>2020-09-03T13:46:33Z</time>
      </trkpt>
      <trkpt lat="44.09687" lon="5.19945">
        <ele>1378.386</ele>
        <time>2020-09-03T13:46:33Z</time>
      </trkpt>
      <trkpt lat="44.09684" lon="5.19923">
        <ele>1378.976</ele>
        <time>2020-09-03T13:46:35Z</time>
      </trkpt>
      <trkpt lat="44.09679" lon="5.19912">
        <ele>1379.058</ele>
        <time>2020-09-03T13:46:36Z</time>
      </trkpt>
      <trkpt lat="44.09672" lon="5.19902">
        <ele>1378.818</ele>
        <time>2020-09-03T13:46:37Z</time>
      </trkpt>
      <trkpt lat="44.09664" lon="5.19895">
        <ele>1378.569</ele>
        <time>2020-09-03T13:46:38Z</time>
      </trkpt>
      <trkpt lat="44.09653" lon="5.19893">
        <ele>1378.574</ele>
        <time>2020-09-03T13:46:39Z</time>
      </trkpt>
      <trkpt lat="44.09643" lon="5.19894">
        <ele>1378.803</ele>
        <time>2020-09-03T13:46:40Z</time>
      </trkpt>
      <trkpt lat="44.09634" lon="5.19897">
        <ele>1379.211</ele>
        <time>2020-09-03T13:46:41Z</time>
      </trkpt>
      <trkpt lat="44.09626" lon="5.19902">
        <ele>1380.021</ele>
        <time>2020-09-03T13:46:42Z</time>
      </trkpt>
      <trkpt lat="44.09618" lon="5.19908">
        <ele>1380.642</ele>
        <time>2020-09-03T13:46:43Z</time>
      </trkpt>
      <trkpt lat="44.09609" lon="5.19914">
        <ele>1381.216</ele>
        <time>2020-09-03T13:46:44Z</time>
      </trkpt>
      <trkpt lat="44.09601" lon="5.19921">
        <ele>1381.573</ele>
        <time>2020-09-03T13:46:45Z</time>
      </trkpt>
      <trkpt lat="44.09595" lon="5.19931">
        <ele>1381.887</ele>
        <time>2020-09-03T13:46:46Z</time>
      </trkpt>
      <trkpt lat="44.0959" lon="5.1994">
        <ele>1382.062</ele>
        <time>2020-09-03T13:46:47Z</time>
      </trkpt>
      <trkpt lat="44.09587" lon="5.19951">
        <ele>1382.015</ele>
        <time>2020-09-03T13:46:48Z</time>
      </trkpt>
      <trkpt lat="44.09585" lon="5.19962">
        <ele>1381.773</ele>
        <time>2020-09-03T13:46:49Z</time>
      </trkpt>
      <trkpt lat="44.09585" lon="5.19962">
        <ele>1381.445</ele>
        <time>2020-09-03T13:46:49Z</time>
      </trkpt>
      <trkpt lat="44.09593" lon="5.19989">
        <ele>1381.082</ele>
        <time>2020-09-03T13:46:52Z</time>
      </trkpt>
      <trkpt lat="44.09599" lon="5.19994">
        <ele>1380.611</ele>
        <time>2020-09-03T13:46:53Z</time>
      </trkpt>
      <trkpt lat="44.09606" lon="5.19995">
        <ele>1380.139</ele>
        <time>2020-09-03T13:46:54Z</time>
      </trkpt>
      <trkpt lat="44.09614" lon="5.19993">
        <ele>1379.632</ele>
        <time>2020-09-03T13:46:55Z</time>
      </trkpt>
      <trkpt lat="44.09621" lon="5.19987">
        <ele>1379.426</ele>
        <time>2020-09-03T13:46:56Z</time>
      </trkpt>
      <trkpt lat="44.09627" lon="5.19978">
        <ele>1379.397</ele>
        <time>2020-09-03T13:46:57Z</time>
      </trkpt>
      <trkpt lat="44.09632" lon="5.19969">
        <ele>1379.566</ele>
        <time>2020-09-03T13:46:58Z</time>
      </trkpt>
      <trkpt lat="44.09637" lon="5.19961">
        <ele>1380.24</ele>
        <time>2020-09-03T13:46:59Z</time>
      </trkpt>
      <trkpt lat="44.09643" lon="5.19954">
        <ele>1381.213</ele>
        <time>2020-09-03T13:47:00Z</time>
      </trkpt>
      <trkpt lat="44.09648" lon="5.19949">
        <ele>1382.132</ele>
        <time>2020-09-03T13:47:01Z</time>
      </trkpt>
      <trkpt lat="44.09654" lon="5.19944">
        <ele>1382.957</ele>
        <time>2020-09-03T13:47:02Z</time>
      </trkpt>
      <trkpt lat="44.0966" lon="5.19938">
        <ele>1383.781</ele>
        <time>2020-09-03T13:47:03Z</time>
      </trkpt>
      <trkpt lat="44.09667" lon="5.19933">
        <ele>1384.516</ele>
        <time>2020-09-03T13:47:04Z</time>
      </trkpt>
      <trkpt lat="44.09675" lon="5.19929">
        <ele>1385.429</ele>
        <time>2020-09-03T13:47:05Z</time>
      </trkpt>
      <trkpt lat="44.09681" lon="5.19925">
        <ele>1386.294</ele>
        <time>2020-09-03T13:47:06Z</time>
      </trkpt>
      <trkpt lat="44.09688" lon="5.19922">
        <ele>1387.218</ele>
        <time>2020-09-03T13:47:07Z</time>
      </trkpt>
      <trkpt lat="44.09695" lon="5.19918">
        <ele>1387.984</ele>
        <time>2020-09-03T13:47:08Z</time>
      </trkpt>
      <trkpt lat="44.09701" lon="5.19914">
        <ele>1388.293</ele>
        <time>2020-09-03T13:47:09Z</time>
      </trkpt>
      <trkpt lat="44.09706" lon="5.19906">
        <ele>1388.1</ele>
        <time>2020-09-03T13:47:10Z</time>
      </trkpt>
      <trkpt lat="44.09706" lon="5.19906">
        <ele>1387.658</ele>
        <time>2020-09-03T13:47:10Z</time>
      </trkpt>
      <trkpt lat="44.09706" lon="5.19867">
        <ele>1387.109</ele>
        <time>2020-09-03T13:47:13Z</time>
      </trkpt>
      <trkpt lat="44.097" lon="5.19856">
        <ele>1386.885</ele>
        <time>2020-09-03T13:47:14Z</time>
      </trkpt>
      <trkpt lat="44.09692" lon="5.1985">
        <ele>1386.815</ele>
        <time>2020-09-03T13:47:15Z</time>
      </trkpt>
      <trkpt lat="44.09683" lon="5.19847">
        <ele>1386.806</ele>
        <time>2020-09-03T13:47:16Z</time>
      </trkpt>
      <trkpt lat="44.09674" lon="5.19849">
        <ele>1386.804</ele>
        <time>2020-09-03T13:47:17Z</time>
      </trkpt>
      <trkpt lat="44.09665" lon="5.19854">
        <ele>1386.679</ele>
        <time>2020-09-03T13:47:18Z</time>
      </trkpt>
      <trkpt lat="44.09659" lon="5.19861">
        <ele>1386.308</ele>
        <time>2020-09-03T13:47:19Z</time>
      </trkpt>
      <trkpt lat="44.09654" lon="5.1987">
        <ele>1385.852</ele>
        <time>2020-09-03T13:47:20Z</time>
      </trkpt>
      <trkpt lat="44.09652" lon="5.19881">
        <ele>1385.311</ele>
        <time>2020-09-03T13:47:21Z</time>
      </trkpt>
      <trkpt lat="44.09652" lon="5.19881">
        <ele>1385.008</ele>
        <time>2020-09-03T13:47:21Z</time>
      </trkpt>
      <trkpt lat="44.09654" lon="5.19903">
        <ele>1385.154</ele>
        <time>2020-09-03T13:47:23Z</time>
      </trkpt>
      <trkpt lat="44.09657" lon="5.19913">
        <ele>1385.484</ele>
        <time>2020-09-03T13:47:24Z</time>
      </trkpt>
      <trkpt lat="44.09657" lon="5.19913">
        <ele>1385.846</ele>
        <time>2020-09-03T13:47:24Z</time>
      </trkpt>
      <trkpt lat="44.09665" lon="5.1993">
        <ele>1386.687</ele>
        <time>2020-09-03T13:47:26Z</time>
      </trkpt>
      <trkpt lat="44.09669" lon="5.19938">
        <ele>1387.409</ele>
        <time>2020-09-03T13:47:27Z</time>
      </trkpt>
      <trkpt lat="44.09673" lon="5.19946">
        <ele>1387.946</ele>
        <time>2020-09-03T13:47:28Z</time>
      </trkpt>
      <trkpt lat="44.09677" lon="5.19955">
        <ele>1388.141</ele>
        <time>2020-09-03T13:47:29Z</time>
      </trkpt>
      <trkpt lat="44.09681" lon="5.19963">
        <ele>1388.055</ele>
        <time>2020-09-03T13:47:30Z</time>
      </trkpt>
      <trkpt lat="44.09687" lon="5.1997">
        <ele>1387.888</ele>
        <time>2020-09-03T13:47:31Z</time>
      </trkpt>
      <trkpt lat="44.09692" lon="5.19977">
        <ele>1387.692</ele>
        <time>2020-09-03T13:47:32Z</time>
      </trkpt>
      <trkpt lat="44.09698" lon="5.19983">
        <ele>1387.655</ele>
        <time>2020-09-03T13:47:33Z</time>
      </trkpt>
      <trkpt lat="44.0971" lon="5.19992">
        <ele>1387.779</ele>
        <time>2020-09-03T13:47:35Z</time>
      </trkpt>
      <trkpt lat="44.09718" lon="5.19995">
        <ele>1388.084</ele>
        <time>2020-09-03T13:47:36Z</time>
      </trkpt>
      <trkpt lat="44.09725" lon="5.19998">
        <ele>1388.695</ele>
        <time>2020-09-03T13:47:37Z</time>
      </trkpt>
      <trkpt lat="44.09732" lon="5.2">
        <ele>1389.398</ele>
        <time>2020-09-03T13:47:38Z</time>
      </trkpt>
      <trkpt lat="44.09739" lon="5.20004">
        <ele>1390.266</ele>
        <time>2020-09-03T13:47:39Z</time>
      </trkpt>
      <trkpt lat="44.09744" lon="5.20008">
        <ele>1390.869</ele>
        <time>2020-09-03T13:47:40Z</time>
      </trkpt>
      <trkpt lat="44.0975" lon="5.20013">
        <ele>1391.522</ele>
        <time>2020-09-03T13:47:41Z</time>
      </trkpt>
      <trkpt lat="44.09763" lon="5.20021">
        <ele>1392.407</ele>
        <time>2020-09-03T13:47:43Z</time>
      </trkpt>
      <trkpt lat="44.09763" lon="5.20021">
        <ele>1393.112</ele>
        <time>2020-09-03T13:47:43Z</time>
      </trkpt>
      <trkpt lat="44.09778" lon="5.20019">
        <ele>1393.84</ele>
        <time>2020-09-03T13:47:45Z</time>
      </trkpt>
      <trkpt lat="44.09785" lon="5.20012">
        <ele>1394.517</ele>
        <time>2020-09-03T13:47:46Z</time>
      </trkpt>
      <trkpt lat="44.09792" lon="5.20001">
        <ele>1395.037</ele>
        <time>2020-09-03T13:47:47Z</time>
      </trkpt>
      <trkpt lat="44.09794" lon="5.19987">
        <ele>1395.504</ele>
        <time>2020-09-03T13:47:48Z</time>
      </trkpt>
      <trkpt lat="44.09794" lon="5.19972">
        <ele>1395.986</ele>
        <time>2020-09-03T13:47:49Z</time>
      </trkpt>
      <trkpt lat="44.0979" lon="5.19958">
        <ele>1396.403</ele>
        <time>2020-09-03T13:47:50Z</time>
      </trkpt>
      <trkpt lat="44.09782" lon="5.19949">
        <ele>1396.746</ele>
        <time>2020-09-03T13:47:51Z</time>
      </trkpt>
      <trkpt lat="44.09773" lon="5.19945">
        <ele>1397.093</ele>
        <time>2020-09-03T13:47:52Z</time>
      </trkpt>
      <trkpt lat="44.09764" lon="5.19946">
        <ele>1397.384</ele>
        <time>2020-09-03T13:47:53Z</time>
      </trkpt>
      <trkpt lat="44.09756" lon="5.19949">
        <ele>1397.513</ele>
        <time>2020-09-03T13:47:54Z</time>
      </trkpt>
      <trkpt lat="44.09749" lon="5.19957">
        <ele>1397.536</ele>
        <time>2020-09-03T13:47:55Z</time>
      </trkpt>
      <trkpt lat="44.09744" lon="5.19967">
        <ele>1397.462</ele>
        <time>2020-09-03T13:47:56Z</time>
      </trkpt>
      <trkpt lat="44.09742" lon="5.19978">
        <ele>1397.421</ele>
        <time>2020-09-03T13:47:57Z</time>
      </trkpt>
      <trkpt lat="44.09743" lon="5.19988">
        <ele>1397.501</ele>
        <time>2020-09-03T13:47:58Z</time>
      </trkpt>
      <trkpt lat="44.09746" lon="5.19997">
        <ele>1397.776</ele>
        <time>2020-09-03T13:47:59Z</time>
      </trkpt>
      <trkpt lat="44.0975" lon="5.20005">
        <ele>1398.455</ele>
        <time>2020-09-03T13:48:00Z</time>
      </trkpt>
      <trkpt lat="44.09756" lon="5.20012">
        <ele>1399.291</ele>
        <time>2020-09-03T13:48:01Z</time>
      </trkpt>
      <trkpt lat="44.09762" lon="5.20016">
        <ele>1399.917</ele>
        <time>2020-09-03T13:48:02Z</time>
      </trkpt>
      <trkpt lat="44.09762" lon="5.20016">
        <ele>1400.355</ele>
        <time>2020-09-03T13:48:02Z</time>
      </trkpt>
      <trkpt lat="44.0978" lon="5.2003">
        <ele>1400.546</ele>
        <time>2020-09-03T13:48:05Z</time>
      </trkpt>
      <trkpt lat="44.09786" lon="5.20035">
        <ele>1400.824</ele>
        <time>2020-09-03T13:48:06Z</time>
      </trkpt>
      <trkpt lat="44.09794" lon="5.20039">
        <ele>1401.128</ele>
        <time>2020-09-03T13:48:07Z</time>
      </trkpt>
      <trkpt lat="44.09801" lon="5.20043">
        <ele>1401.657</ele>
        <time>2020-09-03T13:48:08Z</time>
      </trkpt>
      <trkpt lat="44.09809" lon="5.20047">
        <ele>1402.162</ele>
        <time>2020-09-03T13:48:09Z</time>
      </trkpt>
      <trkpt lat="44.09817" lon="5.20051">
        <ele>1402.579</ele>
        <time>2020-09-03T13:48:10Z</time>
      </trkpt>
      <trkpt lat="44.09824" lon="5.20053">
        <ele>1402.88</ele>
        <time>2020-09-03T13:48:11Z</time>
      </trkpt>
      <trkpt lat="44.09832" lon="5.20051">
        <ele>1403.062</ele>
        <time>2020-09-03T13:48:12Z</time>
      </trkpt>
      <trkpt lat="44.09839" lon="5.20047">
        <ele>1403.083</ele>
        <time>2020-09-03T13:48:13Z</time>
      </trkpt>
      <trkpt lat="44.09844" lon="5.20039">
        <ele>1402.861</ele>
        <time>2020-09-03T13:48:14Z</time>
      </trkpt>
      <trkpt lat="44.09849" lon="5.2003">
        <ele>1402.408</ele>
        <time>2020-09-03T13:48:15Z</time>
      </trkpt>
      <trkpt lat="44.09849" lon="5.2003">
        <ele>1401.768</ele>
        <time>2020-09-03T13:48:15Z</time>
      </trkpt>
      <trkpt lat="44.09849" lon="5.2003">
        <ele>1400.999</ele>
        <time>2020-09-03T13:48:15Z</time>
      </trkpt>
      <trkpt lat="44.09849" lon="5.2003">
        <ele>1400.033</ele>
        <time>2020-09-03T13:48:15Z</time>
      </trkpt>
      <trkpt lat="44.09842" lon="5.19979">
        <ele>1398.995</ele>
        <time>2020-09-03T13:48:19Z</time>
      </trkpt>
      <trkpt lat="44.09842" lon="5.19979">
        <ele>1398.082</ele>
        <time>2020-09-03T13:48:19Z</time>
      </trkpt>
      <trkpt lat="44.09842" lon="5.19979">
        <ele>1397.363</ele>
        <time>2020-09-03T13:48:19Z</time>
      </trkpt>
      <trkpt lat="44.09815" lon="5.19952">
        <ele>1396.449</ele>
        <time>2020-09-03T13:48:22Z</time>
      </trkpt>
      <trkpt lat="44.09805" lon="5.19946">
        <ele>1395.853</ele>
        <time>2020-09-03T13:48:23Z</time>
      </trkpt>
      <trkpt lat="44.09786" lon="5.19938">
        <ele>1394.909</ele>
        <time>2020-09-03T13:48:25Z</time>
      </trkpt>
      <trkpt lat="44.09776" lon="5.19935">
        <ele>1393.802</ele>
        <time>2020-09-03T13:48:26Z</time>
      </trkpt>
      <trkpt lat="44.09766" lon="5.19933">
        <ele>1392.487</ele>
        <time>2020-09-03T13:48:27Z</time>
      </trkpt>
      <trkpt lat="44.09756" lon="5.19932">
        <ele>1391.413</ele>
        <time>2020-09-03T13:48:28Z</time>
      </trkpt>
      <trkpt lat="44.09746" lon="5.19932">
        <ele>1390.721</ele>
        <time>2020-09-03T13:48:29Z</time>
      </trkpt>
      <trkpt lat="44.09735" lon="5.19933">
        <ele>1390.441</ele>
        <time>2020-09-03T13:48:30Z</time>
      </trkpt>
      <trkpt lat="44.09725" lon="5.19933">
        <ele>1390.426</ele>
        <time>2020-09-03T13:48:31Z</time>
      </trkpt>
      <trkpt lat="44.09715" lon="5.19934">
        <ele>1390.562</ele>
        <time>2020-09-03T13:48:32Z</time>
      </trkpt>
      <trkpt lat="44.09715" lon="5.19934">
        <ele>1390.908</ele>
        <time>2020-09-03T13:48:32Z</time>
      </trkpt>
      <trkpt lat="44.09684" lon="5.19938">
        <ele>1391.657</ele>
        <time>2020-09-03T13:48:35Z</time>
      </trkpt>
      <trkpt lat="44.09674" lon="5.1994">
        <ele>1392.11</ele>
        <time>2020-09-03T13:48:36Z</time>
      </trkpt>
      <trkpt lat="44.09665" lon="5.19944">
        <ele>1392.118</ele>
        <time>2020-09-03T13:48:37Z</time>
      </trkpt>
      <trkpt lat="44.09657" lon="5.19949">
        <ele>1391.751</ele>
        <time>2020-09-03T13:48:38Z</time>
      </trkpt>
      <trkpt lat="44.09648" lon="5.19954">
        <ele>1391.294</ele>
        <time>2020-09-03T13:48:39Z</time>
      </trkpt>
      <trkpt lat="44.09638" lon="5.19957">
        <ele>1390.889</ele>
        <time>2020-09-03T13:48:40Z</time>
      </trkpt>
      <trkpt lat="44.09628" lon="5.19957">
        <ele>1390.429</ele>
        <time>2020-09-03T13:48:41Z</time>
      </trkpt>
      <trkpt lat="44.09617" lon="5.19956">
        <ele>1390.039</ele>
        <time>2020-09-03T13:48:42Z</time>
      </trkpt>
      <trkpt lat="44.09605" lon="5.19955">
        <ele>1389.648</ele>
        <time>2020-09-03T13:48:43Z</time>
      </trkpt>
      <trkpt lat="44.09594" lon="5.19954">
        <ele>1389.357</ele>
        <time>2020-09-03T13:48:44Z</time>
      </trkpt>
      <trkpt lat="44.09584" lon="5.19955">
        <ele>1389.179</ele>
        <time>2020-09-03T13:48:45Z</time>
      </trkpt>
      <trkpt lat="44.09573" lon="5.19957">
        <ele>1389.256</ele>
        <time>2020-09-03T13:48:46Z</time>
      </trkpt>
      <trkpt lat="44.09563" lon="5.19959">
        <ele>1389.622</ele>
        <time>2020-09-03T13:48:47Z</time>
      </trkpt>
      <trkpt lat="44.09553" lon="5.1996">
        <ele>1390.061</ele>
        <time>2020-09-03T13:48:48Z</time>
      </trkpt>
      <trkpt lat="44.09545" lon="5.19961">
        <ele>1390.477</ele>
        <time>2020-09-03T13:48:49Z</time>
      </trkpt>
      <trkpt lat="44.09536" lon="5.19962">
        <ele>1390.782</ele>
        <time>2020-09-03T13:48:50Z</time>
      </trkpt>
      <trkpt lat="44.09527" lon="5.19962">
        <ele>1391.149</ele>
        <time>2020-09-03T13:48:51Z</time>
      </trkpt>
      <trkpt lat="44.09519" lon="5.19964">
        <ele>1391.271</ele>
        <time>2020-09-03T13:48:52Z</time>
      </trkpt>
      <trkpt lat="44.09511" lon="5.19966">
        <ele>1390.747</ele>
        <time>2020-09-03T13:48:53Z</time>
      </trkpt>
      <trkpt lat="44.09503" lon="5.1997">
        <ele>1389.647</ele>
        <time>2020-09-03T13:48:54Z</time>
      </trkpt>
      <trkpt lat="44.09494" lon="5.19976">
        <ele>1388.295</ele>
        <time>2020-09-03T13:48:55Z</time>
      </trkpt>
      <trkpt lat="44.09485" lon="5.19983">
        <ele>1387.009</ele>
        <time>2020-09-03T13:48:56Z</time>
      </trkpt>
      <trkpt lat="44.09485" lon="5.19983">
        <ele>1386.151</ele>
        <time>2020-09-03T13:48:56Z</time>
      </trkpt>
      <trkpt lat="44.09485" lon="5.19983">
        <ele>1385.99</ele>
        <time>2020-09-03T13:48:56Z</time>
      </trkpt>
      <trkpt lat="44.09445" lon="5.20008">
        <ele>1386.254</ele>
        <time>2020-09-03T13:49:00Z</time>
      </trkpt>
      <trkpt lat="44.09435" lon="5.20013">
        <ele>1386.494</ele>
        <time>2020-09-03T13:49:01Z</time>
      </trkpt>
      <trkpt lat="44.09425" lon="5.20018">
        <ele>1386.483</ele>
        <time>2020-09-03T13:49:02Z</time>
      </trkpt>
      <trkpt lat="44.09414" lon="5.20024">
        <ele>1386.242</ele>
        <time>2020-09-03T13:49:03Z</time>
      </trkpt>
      <trkpt lat="44.09403" lon="5.20029">
        <ele>1385.833</ele>
        <time>2020-09-03T13:49:04Z</time>
      </trkpt>
      <trkpt lat="44.09392" lon="5.20035">
        <ele>1385.43</ele>
        <time>2020-09-03T13:49:05Z</time>
      </trkpt>
      <trkpt lat="44.09381" lon="5.2004">
        <ele>1385.088</ele>
        <time>2020-09-03T13:49:06Z</time>
      </trkpt>
      <trkpt lat="44.0937" lon="5.20045">
        <ele>1384.87</ele>
        <time>2020-09-03T13:49:07Z</time>
      </trkpt>
      <trkpt lat="44.0936" lon="5.20049">
        <ele>1384.736</ele>
        <time>2020-09-03T13:49:08Z</time>
      </trkpt>
      <trkpt lat="44.09349" lon="5.20051">
        <ele>1384.616</ele>
        <time>2020-09-03T13:49:09Z</time>
      </trkpt>
      <trkpt lat="44.09339" lon="5.20052">
        <ele>1384.503</ele>
        <time>2020-09-03T13:49:10Z</time>
      </trkpt>
      <trkpt lat="44.09328" lon="5.20053">
        <ele>1384.448</ele>
        <time>2020-09-03T13:49:11Z</time>
      </trkpt>
      <trkpt lat="44.09318" lon="5.20054">
        <ele>1384.432</ele>
        <time>2020-09-03T13:49:12Z</time>
      </trkpt>
      <trkpt lat="44.09309" lon="5.20055">
        <ele>1384.265</ele>
        <time>2020-09-03T13:49:13Z</time>
      </trkpt>
      <trkpt lat="44.093" lon="5.20056">
        <ele>1383.605</ele>
        <time>2020-09-03T13:49:14Z</time>
      </trkpt>
      <trkpt lat="44.09292" lon="5.20056">
        <ele>1382.314</ele>
        <time>2020-09-03T13:49:15Z</time>
      </trkpt>
      <trkpt lat="44.09283" lon="5.20055">
        <ele>1380.035</ele>
        <time>2020-09-03T13:49:16Z</time>
      </trkpt>
      <trkpt lat="44.09272" lon="5.20055">
        <ele>1378.564</ele>
        <time>2020-09-03T13:49:17Z</time>
      </trkpt>
      <trkpt lat="44.09261" lon="5.20056">
        <ele>1376.294</ele>
        <time>2020-09-03T13:49:18Z</time>
      </trkpt>
      <trkpt lat="44.09249" lon="5.20057">
        <ele>1375.383</ele>
        <time>2020-09-03T13:49:19Z</time>
      </trkpt>
      <trkpt lat="44.09238" lon="5.20059">
        <ele>1375.477</ele>
        <time>2020-09-03T13:49:20Z</time>
      </trkpt>
      <trkpt lat="44.09218" lon="5.20064">
        <ele>1376.081</ele>
        <time>2020-09-03T13:49:22Z</time>
      </trkpt>
      <trkpt lat="44.09207" lon="5.20067">
        <ele>1376.535</ele>
        <time>2020-09-03T13:49:23Z</time>
      </trkpt>
      <trkpt lat="44.09196" lon="5.20069">
        <ele>1376.446</ele>
        <time>2020-09-03T13:49:24Z</time>
      </trkpt>
      <trkpt lat="44.09184" lon="5.20072">
        <ele>1376.2</ele>
        <time>2020-09-03T13:49:25Z</time>
      </trkpt>
      <trkpt lat="44.09173" lon="5.20076">
        <ele>1376.087</ele>
        <time>2020-09-03T13:49:26Z</time>
      </trkpt>
      <trkpt lat="44.09162" lon="5.20079">
        <ele>1376.19</ele>
        <time>2020-09-03T13:49:27Z</time>
      </trkpt>
      <trkpt lat="44.09152" lon="5.20083">
        <ele>1376.196</ele>
        <time>2020-09-03T13:49:28Z</time>
      </trkpt>
      <trkpt lat="44.09142" lon="5.20085">
        <ele>1375.794</ele>
        <time>2020-09-03T13:49:29Z</time>
      </trkpt>
      <trkpt lat="44.09131" lon="5.20089">
        <ele>1375.094</ele>
        <time>2020-09-03T13:49:30Z</time>
      </trkpt>
      <trkpt lat="44.0912" lon="5.20093">
        <ele>1373.937</ele>
        <time>2020-09-03T13:49:31Z</time>
      </trkpt>
      <trkpt lat="44.09108" lon="5.20097">
        <ele>1373.116</ele>
        <time>2020-09-03T13:49:32Z</time>
      </trkpt>
      <trkpt lat="44.09097" lon="5.20102">
        <ele>1372.487</ele>
        <time>2020-09-03T13:49:33Z</time>
      </trkpt>
      <trkpt lat="44.09087" lon="5.20105">
        <ele>1372.124</ele>
        <time>2020-09-03T13:49:34Z</time>
      </trkpt>
      <trkpt lat="44.09077" lon="5.20107">
        <ele>1371.804</ele>
        <time>2020-09-03T13:49:35Z</time>
      </trkpt>
      <trkpt lat="44.09066" lon="5.2011">
        <ele>1371.198</ele>
        <time>2020-09-03T13:49:36Z</time>
      </trkpt>
      <trkpt lat="44.09055" lon="5.20114">
        <ele>1370.099</ele>
        <time>2020-09-03T13:49:37Z</time>
      </trkpt>
      <trkpt lat="44.09044" lon="5.20117">
        <ele>1368.822</ele>
        <time>2020-09-03T13:49:38Z</time>
      </trkpt>
      <trkpt lat="44.09033" lon="5.2012">
        <ele>1367.62</ele>
        <time>2020-09-03T13:49:39Z</time>
      </trkpt>
      <trkpt lat="44.09021" lon="5.20123">
        <ele>1366.237</ele>
        <time>2020-09-03T13:49:40Z</time>
      </trkpt>
      <trkpt lat="44.09011" lon="5.20126">
        <ele>1364.33</ele>
        <time>2020-09-03T13:49:41Z</time>
      </trkpt>
      <trkpt lat="44.09" lon="5.2013">
        <ele>1362.805</ele>
        <time>2020-09-03T13:49:42Z</time>
      </trkpt>
      <trkpt lat="44.08988" lon="5.20136">
        <ele>1361.305</ele>
        <time>2020-09-03T13:49:43Z</time>
      </trkpt>
      <trkpt lat="44.08976" lon="5.20142">
        <ele>1360.119</ele>
        <time>2020-09-03T13:49:44Z</time>
      </trkpt>
      <trkpt lat="44.08976" lon="5.20142">
        <ele>1359.912</ele>
        <time>2020-09-03T13:49:44Z</time>
      </trkpt>
      <trkpt lat="44.08941" lon="5.20151">
        <ele>1360.239</ele>
        <time>2020-09-03T13:49:47Z</time>
      </trkpt>
      <trkpt lat="44.08931" lon="5.20154">
        <ele>1360.694</ele>
        <time>2020-09-03T13:49:48Z</time>
      </trkpt>
      <trkpt lat="44.0892" lon="5.20158">
        <ele>1360.675</ele>
        <time>2020-09-03T13:49:49Z</time>
      </trkpt>
      <trkpt lat="44.08909" lon="5.20162">
        <ele>1360.094</ele>
        <time>2020-09-03T13:49:50Z</time>
      </trkpt>
      <trkpt lat="44.08898" lon="5.20165">
        <ele>1359.17</ele>
        <time>2020-09-03T13:49:51Z</time>
      </trkpt>
      <trkpt lat="44.08886" lon="5.20168">
        <ele>1358.385</ele>
        <time>2020-09-03T13:49:52Z</time>
      </trkpt>
      <trkpt lat="44.08874" lon="5.20171">
        <ele>1358.064</ele>
        <time>2020-09-03T13:49:53Z</time>
      </trkpt>
      <trkpt lat="44.08863" lon="5.20175">
        <ele>1357.841</ele>
        <time>2020-09-03T13:49:54Z</time>
      </trkpt>
      <trkpt lat="44.08852" lon="5.20178">
        <ele>1357.462</ele>
        <time>2020-09-03T13:49:55Z</time>
      </trkpt>
      <trkpt lat="44.08842" lon="5.20182">
        <ele>1356.737</ele>
        <time>2020-09-03T13:49:56Z</time>
      </trkpt>
      <trkpt lat="44.08831" lon="5.20185">
        <ele>1355.59</ele>
        <time>2020-09-03T13:49:57Z</time>
      </trkpt>
      <trkpt lat="44.08831" lon="5.20185">
        <ele>1354.247</ele>
        <time>2020-09-03T13:49:57Z</time>
      </trkpt>
      <trkpt lat="44.0881" lon="5.20192">
        <ele>1352.83</ele>
        <time>2020-09-03T13:49:59Z</time>
      </trkpt>
      <trkpt lat="44.0881" lon="5.20192">
        <ele>1351.281</ele>
        <time>2020-09-03T13:49:59Z</time>
      </trkpt>
      <trkpt lat="44.0881" lon="5.20192">
        <ele>1349.606</ele>
        <time>2020-09-03T13:49:59Z</time>
      </trkpt>
      <trkpt lat="44.0881" lon="5.20192">
        <ele>1347.929</ele>
        <time>2020-09-03T13:49:59Z</time>
      </trkpt>
      <trkpt lat="44.0881" lon="5.20192">
        <ele>1346.345</ele>
        <time>2020-09-03T13:49:59Z</time>
      </trkpt>
      <trkpt lat="44.08754" lon="5.20208">
        <ele>1345.062</ele>
        <time>2020-09-03T13:50:04Z</time>
      </trkpt>
      <trkpt lat="44.08754" lon="5.20208">
        <ele>1343.794</ele>
        <time>2020-09-03T13:50:04Z</time>
      </trkpt>
      <trkpt lat="44.08732" lon="5.20218">
        <ele>1342.791</ele>
        <time>2020-09-03T13:50:06Z</time>
      </trkpt>
      <trkpt lat="44.08712" lon="5.2023">
        <ele>1341.923</ele>
        <time>2020-09-03T13:50:08Z</time>
      </trkpt>
      <trkpt lat="44.08701" lon="5.20236">
        <ele>1341.438</ele>
        <time>2020-09-03T13:50:09Z</time>
      </trkpt>
      <trkpt lat="44.08691" lon="5.20242">
        <ele>1341.215</ele>
        <time>2020-09-03T13:50:10Z</time>
      </trkpt>
      <trkpt lat="44.08682" lon="5.20248">
        <ele>1341.173</ele>
        <time>2020-09-03T13:50:11Z</time>
      </trkpt>
      <trkpt lat="44.08673" lon="5.20255">
        <ele>1341.004</ele>
        <time>2020-09-03T13:50:12Z</time>
      </trkpt>
      <trkpt lat="44.08664" lon="5.20261">
        <ele>1340.689</ele>
        <time>2020-09-03T13:50:13Z</time>
      </trkpt>
      <trkpt lat="44.08654" lon="5.20267">
        <ele>1339.73</ele>
        <time>2020-09-03T13:50:14Z</time>
      </trkpt>
      <trkpt lat="44.08644" lon="5.20271">
        <ele>1338.264</ele>
        <time>2020-09-03T13:50:15Z</time>
      </trkpt>
      <trkpt lat="44.08644" lon="5.20271">
        <ele>1337.037</ele>
        <time>2020-09-03T13:50:15Z</time>
      </trkpt>
      <trkpt lat="44.08644" lon="5.20271">
        <ele>1335.888</ele>
        <time>2020-09-03T13:50:15Z</time>
      </trkpt>
      <trkpt lat="44.08614" lon="5.20284">
        <ele>1334.652</ele>
        <time>2020-09-03T13:50:18Z</time>
      </trkpt>
      <trkpt lat="44.08605" lon="5.20289">
        <ele>1333.496</ele>
        <time>2020-09-03T13:50:19Z</time>
      </trkpt>
      <trkpt lat="44.08585" lon="5.20295">
        <ele>1332.23</ele>
        <time>2020-09-03T13:50:21Z</time>
      </trkpt>
      <trkpt lat="44.08575" lon="5.20298">
        <ele>1331.312</ele>
        <time>2020-09-03T13:50:22Z</time>
      </trkpt>
      <trkpt lat="44.08564" lon="5.203">
        <ele>1330.014</ele>
        <time>2020-09-03T13:50:23Z</time>
      </trkpt>
      <trkpt lat="44.08564" lon="5.203">
        <ele>1329.073</ele>
        <time>2020-09-03T13:50:23Z</time>
      </trkpt>
      <trkpt lat="44.08544" lon="5.20306">
        <ele>1328.105</ele>
        <time>2020-09-03T13:50:25Z</time>
      </trkpt>
      <trkpt lat="44.08534" lon="5.20308">
        <ele>1327.304</ele>
        <time>2020-09-03T13:50:26Z</time>
      </trkpt>
      <trkpt lat="44.08524" lon="5.20311">
        <ele>1326.383</ele>
        <time>2020-09-03T13:50:27Z</time>
      </trkpt>
      <trkpt lat="44.08512" lon="5.20314">
        <ele>1325.653</ele>
        <time>2020-09-03T13:50:28Z</time>
      </trkpt>
      <trkpt lat="44.08512" lon="5.20314">
        <ele>1325.534</ele>
        <time>2020-09-03T13:50:28Z</time>
      </trkpt>
      <trkpt lat="44.08491" lon="5.20323">
        <ele>1325.721</ele>
        <time>2020-09-03T13:50:30Z</time>
      </trkpt>
      <trkpt lat="44.08482" lon="5.20327">
        <ele>1326.218</ele>
        <time>2020-09-03T13:50:31Z</time>
      </trkpt>
      <trkpt lat="44.08474" lon="5.20328">
        <ele>1326.563</ele>
        <time>2020-09-03T13:50:32Z</time>
      </trkpt>
      <trkpt lat="44.08465" lon="5.20329">
        <ele>1326.357</ele>
        <time>2020-09-03T13:50:33Z</time>
      </trkpt>
      <trkpt lat="44.08454" lon="5.20329">
        <ele>1325.959</ele>
        <time>2020-09-03T13:50:34Z</time>
      </trkpt>
      <trkpt lat="44.08443" lon="5.2033">
        <ele>1325.771</ele>
        <time>2020-09-03T13:50:35Z</time>
      </trkpt>
      <trkpt lat="44.08434" lon="5.20335">
        <ele>1326.197</ele>
        <time>2020-09-03T13:50:36Z</time>
      </trkpt>
      <trkpt lat="44.08427" lon="5.20343">
        <ele>1326.625</ele>
        <time>2020-09-03T13:50:37Z</time>
      </trkpt>
      <trkpt lat="44.08421" lon="5.20352">
        <ele>1326.794</ele>
        <time>2020-09-03T13:50:38Z</time>
      </trkpt>
      <trkpt lat="44.08413" lon="5.20372">
        <ele>1326.603</ele>
        <time>2020-09-03T13:50:40Z</time>
      </trkpt>
      <trkpt lat="44.08409" lon="5.20383">
        <ele>1325.925</ele>
        <time>2020-09-03T13:50:41Z</time>
      </trkpt>
      <trkpt lat="44.08407" lon="5.20395">
        <ele>1325.178</ele>
        <time>2020-09-03T13:50:42Z</time>
      </trkpt>
      <trkpt lat="44.08406" lon="5.2041">
        <ele>1324.012</ele>
        <time>2020-09-03T13:50:43Z</time>
      </trkpt>
      <trkpt lat="44.08406" lon="5.20423">
        <ele>1323.271</ele>
        <time>2020-09-03T13:50:44Z</time>
      </trkpt>
      <trkpt lat="44.08408" lon="5.20434">
        <ele>1323.129</ele>
        <time>2020-09-03T13:50:45Z</time>
      </trkpt>
      <trkpt lat="44.08413" lon="5.20439">
        <ele>1323.298</ele>
        <time>2020-09-03T13:50:46Z</time>
      </trkpt>
      <trkpt lat="44.08418" lon="5.20442">
        <ele>1323.607</ele>
        <time>2020-09-03T13:50:47Z</time>
      </trkpt>
      <trkpt lat="44.08424" lon="5.20442">
        <ele>1323.638</ele>
        <time>2020-09-03T13:50:48Z</time>
      </trkpt>
      <trkpt lat="44.0843" lon="5.20441">
        <ele>1323.012</ele>
        <time>2020-09-03T13:50:49Z</time>
      </trkpt>
      <trkpt lat="44.08436" lon="5.20437">
        <ele>1321.889</ele>
        <time>2020-09-03T13:50:50Z</time>
      </trkpt>
      <trkpt lat="44.08442" lon="5.20431">
        <ele>1320.258</ele>
        <time>2020-09-03T13:50:51Z</time>
      </trkpt>
      <trkpt lat="44.08446" lon="5.20422">
        <ele>1318.731</ele>
        <time>2020-09-03T13:50:52Z</time>
      </trkpt>
      <trkpt lat="44.0845" lon="5.20412">
        <ele>1317.039</ele>
        <time>2020-09-03T13:50:53Z</time>
      </trkpt>
      <trkpt lat="44.0845" lon="5.20399">
        <ele>1315.032</ele>
        <time>2020-09-03T13:50:54Z</time>
      </trkpt>
      <trkpt lat="44.08448" lon="5.20387">
        <ele>1312.889</ele>
        <time>2020-09-03T13:50:55Z</time>
      </trkpt>
      <trkpt lat="44.08444" lon="5.20375">
        <ele>1310.219</ele>
        <time>2020-09-03T13:50:56Z</time>
      </trkpt>
      <trkpt lat="44.08437" lon="5.20363">
        <ele>1307.727</ele>
        <time>2020-09-03T13:50:57Z</time>
      </trkpt>
      <trkpt lat="44.08428" lon="5.20354">
        <ele>1305.249</ele>
        <time>2020-09-03T13:50:58Z</time>
      </trkpt>
      <trkpt lat="44.08418" lon="5.20346">
        <ele>1303.61</ele>
        <time>2020-09-03T13:50:59Z</time>
      </trkpt>
      <trkpt lat="44.08408" lon="5.2034">
        <ele>1302.877</ele>
        <time>2020-09-03T13:51:00Z</time>
      </trkpt>
      <trkpt lat="44.084" lon="5.20333">
        <ele>1302.991</ele>
        <time>2020-09-03T13:51:01Z</time>
      </trkpt>
      <trkpt lat="44.08384" lon="5.20324">
        <ele>1303.471</ele>
        <time>2020-09-03T13:51:03Z</time>
      </trkpt>
      <trkpt lat="44.08384" lon="5.20324">
        <ele>1304.007</ele>
        <time>2020-09-03T13:51:03Z</time>
      </trkpt>
      <trkpt lat="44.08369" lon="5.2032">
        <ele>1304.335</ele>
        <time>2020-09-03T13:51:05Z</time>
      </trkpt>
      <trkpt lat="44.08361" lon="5.20319">
        <ele>1304.551</ele>
        <time>2020-09-03T13:51:06Z</time>
      </trkpt>
      <trkpt lat="44.08353" lon="5.20317">
        <ele>1304.802</ele>
        <time>2020-09-03T13:51:07Z</time>
      </trkpt>
      <trkpt lat="44.08345" lon="5.20314">
        <ele>1305.078</ele>
        <time>2020-09-03T13:51:08Z</time>
      </trkpt>
      <trkpt lat="44.08337" lon="5.20312">
        <ele>1305.285</ele>
        <time>2020-09-03T13:51:09Z</time>
      </trkpt>
      <trkpt lat="44.08329" lon="5.20309">
        <ele>1305.682</ele>
        <time>2020-09-03T13:51:10Z</time>
      </trkpt>
      <trkpt lat="44.08321" lon="5.20307">
        <ele>1306.048</ele>
        <time>2020-09-03T13:51:11Z</time>
      </trkpt>
      <trkpt lat="44.08314" lon="5.20305">
        <ele>1306.212</ele>
        <time>2020-09-03T13:51:12Z</time>
      </trkpt>
      <trkpt lat="44.08306" lon="5.20303">
        <ele>1306.154</ele>
        <time>2020-09-03T13:51:13Z</time>
      </trkpt>
      <trkpt lat="44.08298" lon="5.20301">
        <ele>1305.829</ele>
        <time>2020-09-03T13:51:14Z</time>
      </trkpt>
      <trkpt lat="44.08289" lon="5.203">
        <ele>1305.2</ele>
        <time>2020-09-03T13:51:15Z</time>
      </trkpt>
      <trkpt lat="44.0828" lon="5.203">
        <ele>1304.386</ele>
        <time>2020-09-03T13:51:16Z</time>
      </trkpt>
      <trkpt lat="44.0827" lon="5.20299">
        <ele>1303.527</ele>
        <time>2020-09-03T13:51:17Z</time>
      </trkpt>
      <trkpt lat="44.0826" lon="5.203">
        <ele>1302.909</ele>
        <time>2020-09-03T13:51:18Z</time>
      </trkpt>
      <trkpt lat="44.0825" lon="5.20301">
        <ele>1302.595</ele>
        <time>2020-09-03T13:51:19Z</time>
      </trkpt>
      <trkpt lat="44.0824" lon="5.20303">
        <ele>1302.482</ele>
        <time>2020-09-03T13:51:20Z</time>
      </trkpt>
      <trkpt lat="44.08231" lon="5.20306">
        <ele>1302.151</ele>
        <time>2020-09-03T13:51:21Z</time>
      </trkpt>
      <trkpt lat="44.08222" lon="5.20308">
        <ele>1301.318</ele>
        <time>2020-09-03T13:51:22Z</time>
      </trkpt>
      <trkpt lat="44.08212" lon="5.2031">
        <ele>1300.019</ele>
        <time>2020-09-03T13:51:23Z</time>
      </trkpt>
      <trkpt lat="44.08201" lon="5.20312">
        <ele>1298.878</ele>
        <time>2020-09-03T13:51:24Z</time>
      </trkpt>
      <trkpt lat="44.08201" lon="5.20312">
        <ele>1298.357</ele>
        <time>2020-09-03T13:51:24Z</time>
      </trkpt>
      <trkpt lat="44.08169" lon="5.20321">
        <ele>1297.896</ele>
        <time>2020-09-03T13:51:27Z</time>
      </trkpt>
      <trkpt lat="44.08157" lon="5.20323">
        <ele>1297.187</ele>
        <time>2020-09-03T13:51:28Z</time>
      </trkpt>
      <trkpt lat="44.08146" lon="5.20326">
        <ele>1296.429</ele>
        <time>2020-09-03T13:51:29Z</time>
      </trkpt>
      <trkpt lat="44.08135" lon="5.20329">
        <ele>1295.769</ele>
        <time>2020-09-03T13:51:30Z</time>
      </trkpt>
      <trkpt lat="44.08124" lon="5.20332">
        <ele>1295.394</ele>
        <time>2020-09-03T13:51:31Z</time>
      </trkpt>
      <trkpt lat="44.08114" lon="5.20336">
        <ele>1294.931</ele>
        <time>2020-09-03T13:51:32Z</time>
      </trkpt>
      <trkpt lat="44.08104" lon="5.2034">
        <ele>1293.93</ele>
        <time>2020-09-03T13:51:33Z</time>
      </trkpt>
      <trkpt lat="44.08104" lon="5.2034">
        <ele>1292.538</ele>
        <time>2020-09-03T13:51:33Z</time>
      </trkpt>
      <trkpt lat="44.08072" lon="5.20353">
        <ele>1290.834</ele>
        <time>2020-09-03T13:51:36Z</time>
      </trkpt>
      <trkpt lat="44.08062" lon="5.20357">
        <ele>1289.707</ele>
        <time>2020-09-03T13:51:37Z</time>
      </trkpt>
      <trkpt lat="44.08051" lon="5.20361">
        <ele>1288.314</ele>
        <time>2020-09-03T13:51:38Z</time>
      </trkpt>
      <trkpt lat="44.08051" lon="5.20361">
        <ele>1286.792</ele>
        <time>2020-09-03T13:51:38Z</time>
      </trkpt>
      <trkpt lat="44.08031" lon="5.2037">
        <ele>1285.467</ele>
        <time>2020-09-03T13:51:40Z</time>
      </trkpt>
      <trkpt lat="44.08021" lon="5.20374">
        <ele>1284.023</ele>
        <time>2020-09-03T13:51:41Z</time>
      </trkpt>
      <trkpt lat="44.0801" lon="5.20378">
        <ele>1282.628</ele>
        <time>2020-09-03T13:51:42Z</time>
      </trkpt>
      <trkpt lat="44.08" lon="5.20381">
        <ele>1281.215</ele>
        <time>2020-09-03T13:51:43Z</time>
      </trkpt>
      <trkpt lat="44.07989" lon="5.20384">
        <ele>1279.28</ele>
        <time>2020-09-03T13:51:44Z</time>
      </trkpt>
      <trkpt lat="44.07978" lon="5.20388">
        <ele>1277.626</ele>
        <time>2020-09-03T13:51:45Z</time>
      </trkpt>
      <trkpt lat="44.07967" lon="5.20393">
        <ele>1275.895</ele>
        <time>2020-09-03T13:51:46Z</time>
      </trkpt>
      <trkpt lat="44.07957" lon="5.20397">
        <ele>1274.275</ele>
        <time>2020-09-03T13:51:47Z</time>
      </trkpt>
      <trkpt lat="44.07946" lon="5.20401">
        <ele>1272.658</ele>
        <time>2020-09-03T13:51:48Z</time>
      </trkpt>
      <trkpt lat="44.07935" lon="5.20405">
        <ele>1270.813</ele>
        <time>2020-09-03T13:51:49Z</time>
      </trkpt>
      <trkpt lat="44.07925" lon="5.20409">
        <ele>1268.879</ele>
        <time>2020-09-03T13:51:50Z</time>
      </trkpt>
      <trkpt lat="44.07914" lon="5.20413">
        <ele>1267.085</ele>
        <time>2020-09-03T13:51:51Z</time>
      </trkpt>
      <trkpt lat="44.07904" lon="5.20417">
        <ele>1264.51</ele>
        <time>2020-09-03T13:51:52Z</time>
      </trkpt>
      <trkpt lat="44.07894" lon="5.2042">
        <ele>1262.366</ele>
        <time>2020-09-03T13:51:53Z</time>
      </trkpt>
      <trkpt lat="44.07884" lon="5.20423">
        <ele>1259.854</ele>
        <time>2020-09-03T13:51:54Z</time>
      </trkpt>
      <trkpt lat="44.07864" lon="5.20431">
        <ele>1257.622</ele>
        <time>2020-09-03T13:51:56Z</time>
      </trkpt>
      <trkpt lat="44.07854" lon="5.20437">
        <ele>1255.013</ele>
        <time>2020-09-03T13:51:57Z</time>
      </trkpt>
      <trkpt lat="44.07845" lon="5.20442">
        <ele>1253.197</ele>
        <time>2020-09-03T13:51:58Z</time>
      </trkpt>
      <trkpt lat="44.07836" lon="5.20445">
        <ele>1251.509</ele>
        <time>2020-09-03T13:51:59Z</time>
      </trkpt>
      <trkpt lat="44.07827" lon="5.20445">
        <ele>1249.749</ele>
        <time>2020-09-03T13:52:00Z</time>
      </trkpt>
      <trkpt lat="44.07819" lon="5.20447">
        <ele>1247.426</ele>
        <time>2020-09-03T13:52:01Z</time>
      </trkpt>
      <trkpt lat="44.0781" lon="5.2045">
        <ele>1245.5</ele>
        <time>2020-09-03T13:52:02Z</time>
      </trkpt>
      <trkpt lat="44.07802" lon="5.20455">
        <ele>1243.487</ele>
        <time>2020-09-03T13:52:03Z</time>
      </trkpt>
      <trkpt lat="44.07793" lon="5.2046">
        <ele>1242.152</ele>
        <time>2020-09-03T13:52:04Z</time>
      </trkpt>
      <trkpt lat="44.07793" lon="5.2046">
        <ele>1241.27</ele>
        <time>2020-09-03T13:52:04Z</time>
      </trkpt>
      <trkpt lat="44.07777" lon="5.20466">
        <ele>1239.863</ele>
        <time>2020-09-03T13:52:06Z</time>
      </trkpt>
      <trkpt lat="44.07768" lon="5.20469">
        <ele>1238.154</ele>
        <time>2020-09-03T13:52:07Z</time>
      </trkpt>
      <trkpt lat="44.07759" lon="5.20473">
        <ele>1236.272</ele>
        <time>2020-09-03T13:52:08Z</time>
      </trkpt>
      <trkpt lat="44.07751" lon="5.20477">
        <ele>1234.548</ele>
        <time>2020-09-03T13:52:09Z</time>
      </trkpt>
      <trkpt lat="44.07742" lon="5.20481">
        <ele>1232.679</ele>
        <time>2020-09-03T13:52:10Z</time>
      </trkpt>
      <trkpt lat="44.07732" lon="5.20483">
        <ele>1231.157</ele>
        <time>2020-09-03T13:52:11Z</time>
      </trkpt>
      <trkpt lat="44.07723" lon="5.20484">
        <ele>1229.897</ele>
        <time>2020-09-03T13:52:12Z</time>
      </trkpt>
      <trkpt lat="44.07714" lon="5.20485">
        <ele>1228.599</ele>
        <time>2020-09-03T13:52:13Z</time>
      </trkpt>
      <trkpt lat="44.07705" lon="5.20488">
        <ele>1226.924</ele>
        <time>2020-09-03T13:52:14Z</time>
      </trkpt>
      <trkpt lat="44.07705" lon="5.20488">
        <ele>1225.616</ele>
        <time>2020-09-03T13:52:14Z</time>
      </trkpt>
      <trkpt lat="44.07686" lon="5.20493">
        <ele>1224.262</ele>
        <time>2020-09-03T13:52:16Z</time>
      </trkpt>
      <trkpt lat="44.07666" lon="5.20497">
        <ele>1223.067</ele>
        <time>2020-09-03T13:52:18Z</time>
      </trkpt>
      <trkpt lat="44.07666" lon="5.20497">
        <ele>1222.257</ele>
        <time>2020-09-03T13:52:18Z</time>
      </trkpt>
      <trkpt lat="44.07647" lon="5.20501">
        <ele>1221.462</ele>
        <time>2020-09-03T13:52:20Z</time>
      </trkpt>
      <trkpt lat="44.07637" lon="5.20502">
        <ele>1220.83</ele>
        <time>2020-09-03T13:52:21Z</time>
      </trkpt>
      <trkpt lat="44.07629" lon="5.20503">
        <ele>1220.19</ele>
        <time>2020-09-03T13:52:22Z</time>
      </trkpt>
      <trkpt lat="44.0762" lon="5.20503">
        <ele>1219.765</ele>
        <time>2020-09-03T13:52:23Z</time>
      </trkpt>
      <trkpt lat="44.07612" lon="5.20503">
        <ele>1219.617</ele>
        <time>2020-09-03T13:52:24Z</time>
      </trkpt>
      <trkpt lat="44.07604" lon="5.20504">
        <ele>1219.694</ele>
        <time>2020-09-03T13:52:25Z</time>
      </trkpt>
      <trkpt lat="44.07604" lon="5.20504">
        <ele>1219.918</ele>
        <time>2020-09-03T13:52:25Z</time>
      </trkpt>
      <trkpt lat="44.07586" lon="5.20508">
        <ele>1220.119</ele>
        <time>2020-09-03T13:52:27Z</time>
      </trkpt>
      <trkpt lat="44.07577" lon="5.2051">
        <ele>1220.336</ele>
        <time>2020-09-03T13:52:28Z</time>
      </trkpt>
      <trkpt lat="44.07568" lon="5.20513">
        <ele>1220.534</ele>
        <time>2020-09-03T13:52:29Z</time>
      </trkpt>
      <trkpt lat="44.0756" lon="5.20517">
        <ele>1220.544</ele>
        <time>2020-09-03T13:52:30Z</time>
      </trkpt>
      <trkpt lat="44.07551" lon="5.2052">
        <ele>1220.226</ele>
        <time>2020-09-03T13:52:31Z</time>
      </trkpt>
      <trkpt lat="44.07543" lon="5.20523">
        <ele>1219.971</ele>
        <time>2020-09-03T13:52:32Z</time>
      </trkpt>
      <trkpt lat="44.07534" lon="5.20524">
        <ele>1219.502</ele>
        <time>2020-09-03T13:52:33Z</time>
      </trkpt>
      <trkpt lat="44.07517" lon="5.20531">
        <ele>1219.171</ele>
        <time>2020-09-03T13:52:35Z</time>
      </trkpt>
      <trkpt lat="44.07509" lon="5.20537">
        <ele>1218.987</ele>
        <time>2020-09-03T13:52:36Z</time>
      </trkpt>
      <trkpt lat="44.07502" lon="5.20544">
        <ele>1218.861</ele>
        <time>2020-09-03T13:52:37Z</time>
      </trkpt>
      <trkpt lat="44.07494" lon="5.20549">
        <ele>1218.49</ele>
        <time>2020-09-03T13:52:38Z</time>
      </trkpt>
      <trkpt lat="44.07494" lon="5.20549">
        <ele>1217.76</ele>
        <time>2020-09-03T13:52:38Z</time>
      </trkpt>
      <trkpt lat="44.07478" lon="5.20561">
        <ele>1216.535</ele>
        <time>2020-09-03T13:52:40Z</time>
      </trkpt>
      <trkpt lat="44.07469" lon="5.20569">
        <ele>1215.486</ele>
        <time>2020-09-03T13:52:41Z</time>
      </trkpt>
      <trkpt lat="44.07461" lon="5.20578">
        <ele>1214.794</ele>
        <time>2020-09-03T13:52:42Z</time>
      </trkpt>
      <trkpt lat="44.07454" lon="5.20586">
        <ele>1214.593</ele>
        <time>2020-09-03T13:52:43Z</time>
      </trkpt>
      <trkpt lat="44.07446" lon="5.20594">
        <ele>1214.335</ele>
        <time>2020-09-03T13:52:44Z</time>
      </trkpt>
      <trkpt lat="44.07439" lon="5.20602">
        <ele>1213.882</ele>
        <time>2020-09-03T13:52:45Z</time>
      </trkpt>
      <trkpt lat="44.07431" lon="5.20611">
        <ele>1213.02</ele>
        <time>2020-09-03T13:52:46Z</time>
      </trkpt>
      <trkpt lat="44.07423" lon="5.20621">
        <ele>1212.184</ele>
        <time>2020-09-03T13:52:47Z</time>
      </trkpt>
      <trkpt lat="44.07414" lon="5.2063">
        <ele>1211.357</ele>
        <time>2020-09-03T13:52:48Z</time>
      </trkpt>
      <trkpt lat="44.07406" lon="5.20637">
        <ele>1210.556</ele>
        <time>2020-09-03T13:52:49Z</time>
      </trkpt>
      <trkpt lat="44.07397" lon="5.20645">
        <ele>1209.712</ele>
        <time>2020-09-03T13:52:50Z</time>
      </trkpt>
      <trkpt lat="44.07389" lon="5.20655">
        <ele>1209.015</ele>
        <time>2020-09-03T13:52:51Z</time>
      </trkpt>
      <trkpt lat="44.07371" lon="5.20675">
        <ele>1208.535</ele>
        <time>2020-09-03T13:52:53Z</time>
      </trkpt>
      <trkpt lat="44.07371" lon="5.20675">
        <ele>1208.533</ele>
        <time>2020-09-03T13:52:53Z</time>
      </trkpt>
      <trkpt lat="44.07356" lon="5.20693">
        <ele>1208.813</ele>
        <time>2020-09-03T13:52:55Z</time>
      </trkpt>
      <trkpt lat="44.0735" lon="5.20701">
        <ele>1208.903</ele>
        <time>2020-09-03T13:52:56Z</time>
      </trkpt>
      <trkpt lat="44.07343" lon="5.2071">
        <ele>1208.417</ele>
        <time>2020-09-03T13:52:57Z</time>
      </trkpt>
      <trkpt lat="44.07335" lon="5.2072">
        <ele>1206.929</ele>
        <time>2020-09-03T13:52:58Z</time>
      </trkpt>
      <trkpt lat="44.07335" lon="5.2072">
        <ele>1205.109</ele>
        <time>2020-09-03T13:52:58Z</time>
      </trkpt>
      <trkpt lat="44.07318" lon="5.2074">
        <ele>1203.39</ele>
        <time>2020-09-03T13:53:00Z</time>
      </trkpt>
      <trkpt lat="44.0731" lon="5.2075">
        <ele>1202.553</ele>
        <time>2020-09-03T13:53:01Z</time>
      </trkpt>
      <trkpt lat="44.07304" lon="5.20761">
        <ele>1201.842</ele>
        <time>2020-09-03T13:53:02Z</time>
      </trkpt>
      <trkpt lat="44.07297" lon="5.20771">
        <ele>1201.365</ele>
        <time>2020-09-03T13:53:03Z</time>
      </trkpt>
      <trkpt lat="44.0729" lon="5.2078">
        <ele>1200.742</ele>
        <time>2020-09-03T13:53:04Z</time>
      </trkpt>
      <trkpt lat="44.07283" lon="5.20789">
        <ele>1199.837</ele>
        <time>2020-09-03T13:53:05Z</time>
      </trkpt>
      <trkpt lat="44.07275" lon="5.20799">
        <ele>1198.732</ele>
        <time>2020-09-03T13:53:06Z</time>
      </trkpt>
      <trkpt lat="44.07267" lon="5.2081">
        <ele>1197.566</ele>
        <time>2020-09-03T13:53:07Z</time>
      </trkpt>
      <trkpt lat="44.0726" lon="5.20821">
        <ele>1196.711</ele>
        <time>2020-09-03T13:53:08Z</time>
      </trkpt>
      <trkpt lat="44.07253" lon="5.20831">
        <ele>1196.122</ele>
        <time>2020-09-03T13:53:09Z</time>
      </trkpt>
      <trkpt lat="44.07246" lon="5.20842">
        <ele>1195.387</ele>
        <time>2020-09-03T13:53:10Z</time>
      </trkpt>
      <trkpt lat="44.07239" lon="5.20852">
        <ele>1194.5</ele>
        <time>2020-09-03T13:53:11Z</time>
      </trkpt>
      <trkpt lat="44.07232" lon="5.20862">
        <ele>1193.122</ele>
        <time>2020-09-03T13:53:12Z</time>
      </trkpt>
      <trkpt lat="44.07232" lon="5.20862">
        <ele>1191.841</ele>
        <time>2020-09-03T13:53:12Z</time>
      </trkpt>
      <trkpt lat="44.07215" lon="5.20885">
        <ele>1190.835</ele>
        <time>2020-09-03T13:53:14Z</time>
      </trkpt>
      <trkpt lat="44.072" lon="5.20907">
        <ele>1190.309</ele>
        <time>2020-09-03T13:53:16Z</time>
      </trkpt>
      <trkpt lat="44.07193" lon="5.20917">
        <ele>1189.776</ele>
        <time>2020-09-03T13:53:17Z</time>
      </trkpt>
      <trkpt lat="44.07186" lon="5.20926">
        <ele>1188.76</ele>
        <time>2020-09-03T13:53:18Z</time>
      </trkpt>
      <trkpt lat="44.07177" lon="5.20936">
        <ele>1187.461</ele>
        <time>2020-09-03T13:53:19Z</time>
      </trkpt>
      <trkpt lat="44.07168" lon="5.20946">
        <ele>1185.856</ele>
        <time>2020-09-03T13:53:20Z</time>
      </trkpt>
      <trkpt lat="44.0716" lon="5.20957">
        <ele>1184.555</ele>
        <time>2020-09-03T13:53:21Z</time>
      </trkpt>
      <trkpt lat="44.07152" lon="5.20967">
        <ele>1183.471</ele>
        <time>2020-09-03T13:53:22Z</time>
      </trkpt>
      <trkpt lat="44.07143" lon="5.20976">
        <ele>1182.331</ele>
        <time>2020-09-03T13:53:23Z</time>
      </trkpt>
      <trkpt lat="44.07134" lon="5.20984">
        <ele>1180.952</ele>
        <time>2020-09-03T13:53:24Z</time>
      </trkpt>
      <trkpt lat="44.07124" lon="5.20992">
        <ele>1179.4</ele>
        <time>2020-09-03T13:53:25Z</time>
      </trkpt>
      <trkpt lat="44.07114" lon="5.21003">
        <ele>1177.819</ele>
        <time>2020-09-03T13:53:26Z</time>
      </trkpt>
      <trkpt lat="44.07106" lon="5.21015">
        <ele>1176.506</ele>
        <time>2020-09-03T13:53:27Z</time>
      </trkpt>
      <trkpt lat="44.07098" lon="5.21027">
        <ele>1175.762</ele>
        <time>2020-09-03T13:53:28Z</time>
      </trkpt>
      <trkpt lat="44.0709" lon="5.21039">
        <ele>1174.914</ele>
        <time>2020-09-03T13:53:29Z</time>
      </trkpt>
      <trkpt lat="44.07083" lon="5.21049">
        <ele>1174.038</ele>
        <time>2020-09-03T13:53:30Z</time>
      </trkpt>
      <trkpt lat="44.07076" lon="5.21059">
        <ele>1173.025</ele>
        <time>2020-09-03T13:53:31Z</time>
      </trkpt>
      <trkpt lat="44.07069" lon="5.21071">
        <ele>1171.74</ele>
        <time>2020-09-03T13:53:32Z</time>
      </trkpt>
      <trkpt lat="44.0706" lon="5.21084">
        <ele>1170.699</ele>
        <time>2020-09-03T13:53:33Z</time>
      </trkpt>
      <trkpt lat="44.07051" lon="5.21097">
        <ele>1170.609</ele>
        <time>2020-09-03T13:53:34Z</time>
      </trkpt>
      <trkpt lat="44.07042" lon="5.21109">
        <ele>1170.826</ele>
        <time>2020-09-03T13:53:35Z</time>
      </trkpt>
      <trkpt lat="44.07034" lon="5.21122">
        <ele>1170.432</ele>
        <time>2020-09-03T13:53:36Z</time>
      </trkpt>
      <trkpt lat="44.07016" lon="5.21147">
        <ele>1169.042</ele>
        <time>2020-09-03T13:53:38Z</time>
      </trkpt>
      <trkpt lat="44.07007" lon="5.2116">
        <ele>1167.551</ele>
        <time>2020-09-03T13:53:39Z</time>
      </trkpt>
      <trkpt lat="44.06997" lon="5.21173">
        <ele>1166.192</ele>
        <time>2020-09-03T13:53:40Z</time>
      </trkpt>
      <trkpt lat="44.06988" lon="5.21186">
        <ele>1164.632</ele>
        <time>2020-09-03T13:53:41Z</time>
      </trkpt>
      <trkpt lat="44.0698" lon="5.212">
        <ele>1162.931</ele>
        <time>2020-09-03T13:53:42Z</time>
      </trkpt>
      <trkpt lat="44.06971" lon="5.21215">
        <ele>1161.062</ele>
        <time>2020-09-03T13:53:43Z</time>
      </trkpt>
      <trkpt lat="44.06962" lon="5.2123">
        <ele>1159.972</ele>
        <time>2020-09-03T13:53:44Z</time>
      </trkpt>
      <trkpt lat="44.06954" lon="5.21244">
        <ele>1159.147</ele>
        <time>2020-09-03T13:53:45Z</time>
      </trkpt>
      <trkpt lat="44.06945" lon="5.21258">
        <ele>1158.55</ele>
        <time>2020-09-03T13:53:46Z</time>
      </trkpt>
      <trkpt lat="44.06938" lon="5.21271">
        <ele>1158.051</ele>
        <time>2020-09-03T13:53:47Z</time>
      </trkpt>
      <trkpt lat="44.0693" lon="5.21285">
        <ele>1157.729</ele>
        <time>2020-09-03T13:53:48Z</time>
      </trkpt>
      <trkpt lat="44.06922" lon="5.21299">
        <ele>1157.455</ele>
        <time>2020-09-03T13:53:49Z</time>
      </trkpt>
      <trkpt lat="44.06913" lon="5.21313">
        <ele>1157.393</ele>
        <time>2020-09-03T13:53:50Z</time>
      </trkpt>
      <trkpt lat="44.06903" lon="5.21328">
        <ele>1158.171</ele>
        <time>2020-09-03T13:53:51Z</time>
      </trkpt>
      <trkpt lat="44.06894" lon="5.21341">
        <ele>1159.962</ele>
        <time>2020-09-03T13:53:52Z</time>
      </trkpt>
      <trkpt lat="44.06888" lon="5.21354">
        <ele>1162.086</ele>
        <time>2020-09-03T13:53:53Z</time>
      </trkpt>
      <trkpt lat="44.06883" lon="5.21366">
        <ele>1163.798</ele>
        <time>2020-09-03T13:53:54Z</time>
      </trkpt>
      <trkpt lat="44.06876" lon="5.2138">
        <ele>1164.734</ele>
        <time>2020-09-03T13:53:55Z</time>
      </trkpt>
      <trkpt lat="44.06876" lon="5.2138">
        <ele>1165.049</ele>
        <time>2020-09-03T13:53:55Z</time>
      </trkpt>
      <trkpt lat="44.06876" lon="5.2138">
        <ele>1165.457</ele>
        <time>2020-09-03T13:53:55Z</time>
      </trkpt>
      <trkpt lat="44.06876" lon="5.2138">
        <ele>1166.358</ele>
        <time>2020-09-03T13:53:55Z</time>
      </trkpt>
      <trkpt lat="44.06848" lon="5.21457">
        <ele>1167.749</ele>
        <time>2020-09-03T13:54:00Z</time>
      </trkpt>
      <trkpt lat="44.06848" lon="5.21457">
        <ele>1169.078</ele>
        <time>2020-09-03T13:54:00Z</time>
      </trkpt>
      <trkpt lat="44.06848" lon="5.21485">
        <ele>1169.883</ele>
        <time>2020-09-03T13:54:02Z</time>
      </trkpt>
      <trkpt lat="44.06851" lon="5.21499">
        <ele>1169.921</ele>
        <time>2020-09-03T13:54:03Z</time>
      </trkpt>
      <trkpt lat="44.06856" lon="5.21511">
        <ele>1169.609</ele>
        <time>2020-09-03T13:54:04Z</time>
      </trkpt>
      <trkpt lat="44.06862" lon="5.2152">
        <ele>1169.111</ele>
        <time>2020-09-03T13:54:05Z</time>
      </trkpt>
      <trkpt lat="44.06869" lon="5.21525">
        <ele>1168.736</ele>
        <time>2020-09-03T13:54:06Z</time>
      </trkpt>
      <trkpt lat="44.06876" lon="5.21527">
        <ele>1168.437</ele>
        <time>2020-09-03T13:54:07Z</time>
      </trkpt>
      <trkpt lat="44.06882" lon="5.21525">
        <ele>1168.058</ele>
        <time>2020-09-03T13:54:08Z</time>
      </trkpt>
      <trkpt lat="44.06886" lon="5.2152">
        <ele>1167.567</ele>
        <time>2020-09-03T13:54:09Z</time>
      </trkpt>
      <trkpt lat="44.06887" lon="5.21512">
        <ele>1167.114</ele>
        <time>2020-09-03T13:54:10Z</time>
      </trkpt>
      <trkpt lat="44.06881" lon="5.21496">
        <ele>1166.786</ele>
        <time>2020-09-03T13:54:12Z</time>
      </trkpt>
      <trkpt lat="44.06875" lon="5.21489">
        <ele>1166.883</ele>
        <time>2020-09-03T13:54:13Z</time>
      </trkpt>
      <trkpt lat="44.06875" lon="5.21489">
        <ele>1167.348</ele>
        <time>2020-09-03T13:54:13Z</time>
      </trkpt>
      <trkpt lat="44.0686" lon="5.21479">
        <ele>1167.984</ele>
        <time>2020-09-03T13:54:15Z</time>
      </trkpt>
      <trkpt lat="44.06852" lon="5.21476">
        <ele>1168.677</ele>
        <time>2020-09-03T13:54:16Z</time>
      </trkpt>
      <trkpt lat="44.06843" lon="5.21473">
        <ele>1169.26</ele>
        <time>2020-09-03T13:54:17Z</time>
      </trkpt>
      <trkpt lat="44.06834" lon="5.21471">
        <ele>1169.776</ele>
        <time>2020-09-03T13:54:18Z</time>
      </trkpt>
      <trkpt lat="44.06834" lon="5.21471">
        <ele>1170.238</ele>
        <time>2020-09-03T13:54:18Z</time>
      </trkpt>
      <trkpt lat="44.06814" lon="5.21472">
        <ele>1170.726</ele>
        <time>2020-09-03T13:54:20Z</time>
      </trkpt>
      <trkpt lat="44.06803" lon="5.21472">
        <ele>1171.281</ele>
        <time>2020-09-03T13:54:21Z</time>
      </trkpt>
      <trkpt lat="44.06793" lon="5.21475">
        <ele>1171.8</ele>
        <time>2020-09-03T13:54:22Z</time>
      </trkpt>
      <trkpt lat="44.06783" lon="5.21479">
        <ele>1172.328</ele>
        <time>2020-09-03T13:54:23Z</time>
      </trkpt>
      <trkpt lat="44.06783" lon="5.21479">
        <ele>1172.68</ele>
        <time>2020-09-03T13:54:23Z</time>
      </trkpt>
      <trkpt lat="44.06762" lon="5.21492">
        <ele>1173.015</ele>
        <time>2020-09-03T13:54:25Z</time>
      </trkpt>
      <trkpt lat="44.06753" lon="5.21502">
        <ele>1172.88</ele>
        <time>2020-09-03T13:54:26Z</time>
      </trkpt>
      <trkpt lat="44.06744" lon="5.21512">
        <ele>1172.53</ele>
        <time>2020-09-03T13:54:27Z</time>
      </trkpt>
      <trkpt lat="44.06734" lon="5.2152">
        <ele>1172.219</ele>
        <time>2020-09-03T13:54:28Z</time>
      </trkpt>
      <trkpt lat="44.06724" lon="5.21527">
        <ele>1171.964</ele>
        <time>2020-09-03T13:54:29Z</time>
      </trkpt>
      <trkpt lat="44.06714" lon="5.21532">
        <ele>1171.802</ele>
        <time>2020-09-03T13:54:30Z</time>
      </trkpt>
      <trkpt lat="44.06703" lon="5.21538">
        <ele>1171.878</ele>
        <time>2020-09-03T13:54:31Z</time>
      </trkpt>
      <trkpt lat="44.06682" lon="5.21552">
        <ele>1172.077</ele>
        <time>2020-09-03T13:54:33Z</time>
      </trkpt>
      <trkpt lat="44.06682" lon="5.21552">
        <ele>1172.448</ele>
        <time>2020-09-03T13:54:33Z</time>
      </trkpt>
      <trkpt lat="44.06664" lon="5.21571">
        <ele>1173.017</ele>
        <time>2020-09-03T13:54:35Z</time>
      </trkpt>
      <trkpt lat="44.06655" lon="5.21583">
        <ele>1173.709</ele>
        <time>2020-09-03T13:54:36Z</time>
      </trkpt>
      <trkpt lat="44.06646" lon="5.21595">
        <ele>1174.575</ele>
        <time>2020-09-03T13:54:37Z</time>
      </trkpt>
      <trkpt lat="44.06638" lon="5.21607">
        <ele>1175.708</ele>
        <time>2020-09-03T13:54:38Z</time>
      </trkpt>
      <trkpt lat="44.06631" lon="5.2162">
        <ele>1176.63</ele>
        <time>2020-09-03T13:54:39Z</time>
      </trkpt>
      <trkpt lat="44.06625" lon="5.21633">
        <ele>1177.446</ele>
        <time>2020-09-03T13:54:40Z</time>
      </trkpt>
      <trkpt lat="44.06621" lon="5.21647">
        <ele>1177.804</ele>
        <time>2020-09-03T13:54:41Z</time>
      </trkpt>
      <trkpt lat="44.06621" lon="5.21647">
        <ele>1177.504</ele>
        <time>2020-09-03T13:54:41Z</time>
      </trkpt>
      <trkpt lat="44.06621" lon="5.21647">
        <ele>1176.536</ele>
        <time>2020-09-03T13:54:41Z</time>
      </trkpt>
      <trkpt lat="44.06622" lon="5.21694">
        <ele>1175.261</ele>
        <time>2020-09-03T13:54:44Z</time>
      </trkpt>
      <trkpt lat="44.06627" lon="5.21706">
        <ele>1173.992</ele>
        <time>2020-09-03T13:54:45Z</time>
      </trkpt>
      <trkpt lat="44.06634" lon="5.21713">
        <ele>1173.18</ele>
        <time>2020-09-03T13:54:46Z</time>
      </trkpt>
      <trkpt lat="44.0664" lon="5.21715">
        <ele>1172.584</ele>
        <time>2020-09-03T13:54:47Z</time>
      </trkpt>
      <trkpt lat="44.0664" lon="5.21715">
        <ele>1172.457</ele>
        <time>2020-09-03T13:54:47Z</time>
      </trkpt>
      <trkpt lat="44.06648" lon="5.21713">
        <ele>1172.658</ele>
        <time>2020-09-03T13:54:49Z</time>
      </trkpt>
      <trkpt lat="44.06649" lon="5.2171">
        <ele>1172.658</ele>
        <time>2020-09-03T13:54:50Z</time>
      </trkpt>
      <trkpt lat="44.06649" lon="5.21706">
        <ele>1172.392</ele>
        <time>2020-09-03T13:54:51Z</time>
      </trkpt>
      <trkpt lat="44.06649" lon="5.21706">
        <ele>1172.294</ele>
        <time>2020-09-03T13:54:51Z</time>
      </trkpt>
      <trkpt lat="44.06646" lon="5.21696">
        <ele>1172.274</ele>
        <time>2020-09-03T13:54:53Z</time>
      </trkpt>
      <trkpt lat="44.06645" lon="5.21691">
        <ele>1172.346</ele>
        <time>2020-09-03T13:54:54Z</time>
      </trkpt>
      <trkpt lat="44.06645" lon="5.21691">
        <ele>1172.473</ele>
        <time>2020-09-03T13:54:54Z</time>
      </trkpt>
      <trkpt lat="44.06645" lon="5.21691">
        <ele>1172.667</ele>
        <time>2020-09-03T13:54:54Z</time>
      </trkpt>
      <trkpt lat="44.06644" lon="5.21669">
        <ele>1172.89</ele>
        <time>2020-09-03T13:54:58Z</time>
      </trkpt>
      <trkpt lat="44.06644" lon="5.21669">
        <ele>1172.938</ele>
        <time>2020-09-03T13:54:58Z</time>
      </trkpt>
      <trkpt lat="44.06641" lon="5.21656">
        <ele>1172.618</ele>
        <time>2020-09-03T13:55:00Z</time>
      </trkpt>
      <trkpt lat="44.06636" lon="5.21649">
        <ele>1172.157</ele>
        <time>2020-09-03T13:55:01Z</time>
      </trkpt>
      <trkpt lat="44.06628" lon="5.21642">
        <ele>1171.636</ele>
        <time>2020-09-03T13:55:02Z</time>
      </trkpt>
      <trkpt lat="44.06619" lon="5.21637">
        <ele>1171.491</ele>
        <time>2020-09-03T13:55:03Z</time>
      </trkpt>
      <trkpt lat="44.06609" lon="5.21634">
        <ele>1172.201</ele>
        <time>2020-09-03T13:55:04Z</time>
      </trkpt>
      <trkpt lat="44.06601" lon="5.21634">
        <ele>1173.644</ele>
        <time>2020-09-03T13:55:05Z</time>
      </trkpt>
      <trkpt lat="44.06593" lon="5.21633">
        <ele>1175.673</ele>
        <time>2020-09-03T13:55:06Z</time>
      </trkpt>
      <trkpt lat="44.06586" lon="5.21633">
        <ele>1177.365</ele>
        <time>2020-09-03T13:55:07Z</time>
      </trkpt>
      <trkpt lat="44.06578" lon="5.21633">
        <ele>1178.743</ele>
        <time>2020-09-03T13:55:08Z</time>
      </trkpt>
      <trkpt lat="44.06569" lon="5.21633">
        <ele>1179.732</ele>
        <time>2020-09-03T13:55:09Z</time>
      </trkpt>
      <trkpt lat="44.06561" lon="5.21633">
        <ele>1180.88</ele>
        <time>2020-09-03T13:55:10Z</time>
      </trkpt>
      <trkpt lat="44.06552" lon="5.21634">
        <ele>1181.978</ele>
        <time>2020-09-03T13:55:11Z</time>
      </trkpt>
      <trkpt lat="44.06544" lon="5.21636">
        <ele>1183.608</ele>
        <time>2020-09-03T13:55:12Z</time>
      </trkpt>
      <trkpt lat="44.06536" lon="5.21637">
        <ele>1185.305</ele>
        <time>2020-09-03T13:55:13Z</time>
      </trkpt>
      <trkpt lat="44.06528" lon="5.21638">
        <ele>1186.886</ele>
        <time>2020-09-03T13:55:14Z</time>
      </trkpt>
      <trkpt lat="44.06521" lon="5.21638">
        <ele>1188.523</ele>
        <time>2020-09-03T13:55:15Z</time>
      </trkpt>
      <trkpt lat="44.06515" lon="5.21636">
        <ele>1189.473</ele>
        <time>2020-09-03T13:55:16Z</time>
      </trkpt>
      <trkpt lat="44.0651" lon="5.21631">
        <ele>1189.927</ele>
        <time>2020-09-03T13:55:17Z</time>
      </trkpt>
      <trkpt lat="44.06506" lon="5.21624">
        <ele>1189.695</ele>
        <time>2020-09-03T13:55:18Z</time>
      </trkpt>
      <trkpt lat="44.06506" lon="5.21624">
        <ele>1189.455</ele>
        <time>2020-09-03T13:55:18Z</time>
      </trkpt>
      <trkpt lat="44.06504" lon="5.21603">
        <ele>1189.111</ele>
        <time>2020-09-03T13:55:20Z</time>
      </trkpt>
      <trkpt lat="44.06508" lon="5.21595">
        <ele>1188.905</ele>
        <time>2020-09-03T13:55:21Z</time>
      </trkpt>
      <trkpt lat="44.06521" lon="5.21587">
        <ele>1188.836</ele>
        <time>2020-09-03T13:55:23Z</time>
      </trkpt>
      <trkpt lat="44.06521" lon="5.21587">
        <ele>1188.453</ele>
        <time>2020-09-03T13:55:23Z</time>
      </trkpt>
      <trkpt lat="44.06538" lon="5.2159">
        <ele>1187.965</ele>
        <time>2020-09-03T13:55:25Z</time>
      </trkpt>
      <trkpt lat="44.06547" lon="5.21595">
        <ele>1187.586</ele>
        <time>2020-09-03T13:55:26Z</time>
      </trkpt>
      <trkpt lat="44.06547" lon="5.21595">
        <ele>1187.311</ele>
        <time>2020-09-03T13:55:26Z</time>
      </trkpt>
      <trkpt lat="44.06563" lon="5.21613">
        <ele>1187.224</ele>
        <time>2020-09-03T13:55:28Z</time>
      </trkpt>
      <trkpt lat="44.06563" lon="5.21613">
        <ele>1187.325</ele>
        <time>2020-09-03T13:55:28Z</time>
      </trkpt>
      <trkpt lat="44.06573" lon="5.21639">
        <ele>1187.589</ele>
        <time>2020-09-03T13:55:30Z</time>
      </trkpt>
      <trkpt lat="44.06575" lon="5.21655">
        <ele>1187.933</ele>
        <time>2020-09-03T13:55:31Z</time>
      </trkpt>
      <trkpt lat="44.06575" lon="5.21671">
        <ele>1188.271</ele>
        <time>2020-09-03T13:55:32Z</time>
      </trkpt>
      <trkpt lat="44.06573" lon="5.21688">
        <ele>1188.733</ele>
        <time>2020-09-03T13:55:33Z</time>
      </trkpt>
      <trkpt lat="44.06571" lon="5.21705">
        <ele>1189.354</ele>
        <time>2020-09-03T13:55:34Z</time>
      </trkpt>
      <trkpt lat="44.0657" lon="5.21721">
        <ele>1190.245</ele>
        <time>2020-09-03T13:55:35Z</time>
      </trkpt>
      <trkpt lat="44.06568" lon="5.21738">
        <ele>1191.289</ele>
        <time>2020-09-03T13:55:36Z</time>
      </trkpt>
      <trkpt lat="44.06566" lon="5.21753">
        <ele>1192.368</ele>
        <time>2020-09-03T13:55:37Z</time>
      </trkpt>
      <trkpt lat="44.06562" lon="5.21768">
        <ele>1193.559</ele>
        <time>2020-09-03T13:55:38Z</time>
      </trkpt>
      <trkpt lat="44.06555" lon="5.21781">
        <ele>1194.649</ele>
        <time>2020-09-03T13:55:39Z</time>
      </trkpt>
      <trkpt lat="44.06547" lon="5.21793">
        <ele>1195.346</ele>
        <time>2020-09-03T13:55:40Z</time>
      </trkpt>
      <trkpt lat="44.06537" lon="5.21802">
        <ele>1195.759</ele>
        <time>2020-09-03T13:55:41Z</time>
      </trkpt>
      <trkpt lat="44.06526" lon="5.21807">
        <ele>1196.123</ele>
        <time>2020-09-03T13:55:42Z</time>
      </trkpt>
      <trkpt lat="44.06515" lon="5.21806">
        <ele>1196.946</ele>
        <time>2020-09-03T13:55:43Z</time>
      </trkpt>
      <trkpt lat="44.06497" lon="5.218">
        <ele>1198.467</ele>
        <time>2020-09-03T13:55:45Z</time>
      </trkpt>
      <trkpt lat="44.0649" lon="5.21795">
        <ele>1200.815</ele>
        <time>2020-09-03T13:55:46Z</time>
      </trkpt>
      <trkpt lat="44.06484" lon="5.21788">
        <ele>1203.023</ele>
        <time>2020-09-03T13:55:47Z</time>
      </trkpt>
      <trkpt lat="44.06482" lon="5.2178">
        <ele>1203.991</ele>
        <time>2020-09-03T13:55:48Z</time>
      </trkpt>
      <trkpt lat="44.06483" lon="5.21772">
        <ele>1205.185</ele>
        <time>2020-09-03T13:55:49Z</time>
      </trkpt>
      <trkpt lat="44.06487" lon="5.21764">
        <ele>1205.763</ele>
        <time>2020-09-03T13:55:50Z</time>
      </trkpt>
      <trkpt lat="44.06494" lon="5.21759">
        <ele>1206.213</ele>
        <time>2020-09-03T13:55:51Z</time>
      </trkpt>
      <trkpt lat="44.06503" lon="5.21761">
        <ele>1206.487</ele>
        <time>2020-09-03T13:55:52Z</time>
      </trkpt>
      <trkpt lat="44.06511" lon="5.21767">
        <ele>1206.756</ele>
        <time>2020-09-03T13:55:53Z</time>
      </trkpt>
      <trkpt lat="44.06518" lon="5.21777">
        <ele>1207.304</ele>
        <time>2020-09-03T13:55:54Z</time>
      </trkpt>
      <trkpt lat="44.06522" lon="5.2179">
        <ele>1208.28</ele>
        <time>2020-09-03T13:55:55Z</time>
      </trkpt>
      <trkpt lat="44.06525" lon="5.21804">
        <ele>1209.567</ele>
        <time>2020-09-03T13:55:56Z</time>
      </trkpt>
      <trkpt lat="44.06525" lon="5.21818">
        <ele>1211.154</ele>
        <time>2020-09-03T13:55:57Z</time>
      </trkpt>
      <trkpt lat="44.06523" lon="5.21832">
        <ele>1212.513</ele>
        <time>2020-09-03T13:55:58Z</time>
      </trkpt>
      <trkpt lat="44.06521" lon="5.21844">
        <ele>1213.813</ele>
        <time>2020-09-03T13:55:59Z</time>
      </trkpt>
      <trkpt lat="44.06517" lon="5.21857">
        <ele>1214.439</ele>
        <time>2020-09-03T13:56:00Z</time>
      </trkpt>
      <trkpt lat="44.06511" lon="5.2187">
        <ele>1214.656</ele>
        <time>2020-09-03T13:56:01Z</time>
      </trkpt>
      <trkpt lat="44.06504" lon="5.21882">
        <ele>1214.609</ele>
        <time>2020-09-03T13:56:02Z</time>
      </trkpt>
      <trkpt lat="44.06496" lon="5.21892">
        <ele>1214.45</ele>
        <time>2020-09-03T13:56:03Z</time>
      </trkpt>
      <trkpt lat="44.06486" lon="5.21902">
        <ele>1214.257</ele>
        <time>2020-09-03T13:56:04Z</time>
      </trkpt>
      <trkpt lat="44.06486" lon="5.21902">
        <ele>1214.376</ele>
        <time>2020-09-03T13:56:04Z</time>
      </trkpt>
      <trkpt lat="44.06463" lon="5.21915">
        <ele>1215.194</ele>
        <time>2020-09-03T13:56:06Z</time>
      </trkpt>
      <trkpt lat="44.06441" lon="5.21927">
        <ele>1216.495</ele>
        <time>2020-09-03T13:56:08Z</time>
      </trkpt>
      <trkpt lat="44.06431" lon="5.21933">
        <ele>1218.422</ele>
        <time>2020-09-03T13:56:09Z</time>
      </trkpt>
      <trkpt lat="44.06422" lon="5.2194">
        <ele>1220.244</ele>
        <time>2020-09-03T13:56:10Z</time>
      </trkpt>
      <trkpt lat="44.06413" lon="5.21949">
        <ele>1222.177</ele>
        <time>2020-09-03T13:56:11Z</time>
      </trkpt>
      <trkpt lat="44.06406" lon="5.2196">
        <ele>1223.381</ele>
        <time>2020-09-03T13:56:12Z</time>
      </trkpt>
      <trkpt lat="44.06402" lon="5.21973">
        <ele>1223.957</ele>
        <time>2020-09-03T13:56:13Z</time>
      </trkpt>
      <trkpt lat="44.06403" lon="5.21986">
        <ele>1223.759</ele>
        <time>2020-09-03T13:56:14Z</time>
      </trkpt>
      <trkpt lat="44.06403" lon="5.21986">
        <ele>1223.66</ele>
        <time>2020-09-03T13:56:14Z</time>
      </trkpt>
      <trkpt lat="44.06413" lon="5.21998">
        <ele>1223.811</ele>
        <time>2020-09-03T13:56:16Z</time>
      </trkpt>
      <trkpt lat="44.06419" lon="5.21997">
        <ele>1224.777</ele>
        <time>2020-09-03T13:56:17Z</time>
      </trkpt>
      <trkpt lat="44.06422" lon="5.21994">
        <ele>1225.996</ele>
        <time>2020-09-03T13:56:18Z</time>
      </trkpt>
      <trkpt lat="44.06423" lon="5.21988">
        <ele>1227.234</ele>
        <time>2020-09-03T13:56:19Z</time>
      </trkpt>
      <trkpt lat="44.06421" lon="5.21982">
        <ele>1228.084</ele>
        <time>2020-09-03T13:56:20Z</time>
      </trkpt>
      <trkpt lat="44.06417" lon="5.21975">
        <ele>1228.446</ele>
        <time>2020-09-03T13:56:21Z</time>
      </trkpt>
      <trkpt lat="44.06417" lon="5.21975">
        <ele>1228.712</ele>
        <time>2020-09-03T13:56:21Z</time>
      </trkpt>
      <trkpt lat="44.06417" lon="5.21975">
        <ele>1229.124</ele>
        <time>2020-09-03T13:56:21Z</time>
      </trkpt>
      <trkpt lat="44.06398" lon="5.21948">
        <ele>1229.713</ele>
        <time>2020-09-03T13:56:24Z</time>
      </trkpt>
      <trkpt lat="44.06398" lon="5.21948">
        <ele>1230.644</ele>
        <time>2020-09-03T13:56:24Z</time>
      </trkpt>
      <trkpt lat="44.06398" lon="5.21948">
        <ele>1231.538</ele>
        <time>2020-09-03T13:56:24Z</time>
      </trkpt>
      <trkpt lat="44.06398" lon="5.21948">
        <ele>1232.431</ele>
        <time>2020-09-03T13:56:24Z</time>
      </trkpt>
      <trkpt lat="44.06398" lon="5.21948">
        <ele>1233.348</ele>
        <time>2020-09-03T13:56:24Z</time>
      </trkpt>
      <trkpt lat="44.06347" lon="5.21935">
        <ele>1233.902</ele>
        <time>2020-09-03T13:56:29Z</time>
      </trkpt>
      <trkpt lat="44.06347" lon="5.21935">
        <ele>1233.521</ele>
        <time>2020-09-03T13:56:29Z</time>
      </trkpt>
      <trkpt lat="44.06322" lon="5.21959">
        <ele>1231.726</ele>
        <time>2020-09-03T13:56:32Z</time>
      </trkpt>
      <trkpt lat="44.06319" lon="5.2197">
        <ele>1229.654</ele>
        <time>2020-09-03T13:56:33Z</time>
      </trkpt>
      <trkpt lat="44.06322" lon="5.2198">
        <ele>1227.243</ele>
        <time>2020-09-03T13:56:34Z</time>
      </trkpt>
      <trkpt lat="44.06327" lon="5.21986">
        <ele>1224.863</ele>
        <time>2020-09-03T13:56:35Z</time>
      </trkpt>
      <trkpt lat="44.06332" lon="5.21989">
        <ele>1223.694</ele>
        <time>2020-09-03T13:56:36Z</time>
      </trkpt>
      <trkpt lat="44.06337" lon="5.21989">
        <ele>1223.108</ele>
        <time>2020-09-03T13:56:37Z</time>
      </trkpt>
      <trkpt lat="44.06342" lon="5.21988">
        <ele>1222.901</ele>
        <time>2020-09-03T13:56:38Z</time>
      </trkpt>
      <trkpt lat="44.06347" lon="5.21985">
        <ele>1222.796</ele>
        <time>2020-09-03T13:56:39Z</time>
      </trkpt>
      <trkpt lat="44.06351" lon="5.21979">
        <ele>1222.519</ele>
        <time>2020-09-03T13:56:40Z</time>
      </trkpt>
      <trkpt lat="44.06351" lon="5.21979">
        <ele>1222.253</ele>
        <time>2020-09-03T13:56:40Z</time>
      </trkpt>
      <trkpt lat="44.06351" lon="5.21979">
        <ele>1222.054</ele>
        <time>2020-09-03T13:56:40Z</time>
      </trkpt>
      <trkpt lat="44.06351" lon="5.21952">
        <ele>1222.01</ele>
        <time>2020-09-03T13:56:43Z</time>
      </trkpt>
      <trkpt lat="44.06339" lon="5.21934">
        <ele>1221.939</ele>
        <time>2020-09-03T13:56:45Z</time>
      </trkpt>
      <trkpt lat="44.06332" lon="5.21926">
        <ele>1221.911</ele>
        <time>2020-09-03T13:56:46Z</time>
      </trkpt>
      <trkpt lat="44.06323" lon="5.21919">
        <ele>1221.76</ele>
        <time>2020-09-03T13:56:47Z</time>
      </trkpt>
      <trkpt lat="44.06314" lon="5.21913">
        <ele>1221.559</ele>
        <time>2020-09-03T13:56:48Z</time>
      </trkpt>
      <trkpt lat="44.06314" lon="5.21913">
        <ele>1221.231</ele>
        <time>2020-09-03T13:56:48Z</time>
      </trkpt>
      <trkpt lat="44.06295" lon="5.21904">
        <ele>1220.489</ele>
        <time>2020-09-03T13:56:50Z</time>
      </trkpt>
      <trkpt lat="44.06285" lon="5.21901">
        <ele>1219.386</ele>
        <time>2020-09-03T13:56:51Z</time>
      </trkpt>
      <trkpt lat="44.06276" lon="5.21898">
        <ele>1217.9</ele>
        <time>2020-09-03T13:56:52Z</time>
      </trkpt>
      <trkpt lat="44.06267" lon="5.21896">
        <ele>1216.026</ele>
        <time>2020-09-03T13:56:53Z</time>
      </trkpt>
      <trkpt lat="44.06267" lon="5.21896">
        <ele>1213.692</ele>
        <time>2020-09-03T13:56:53Z</time>
      </trkpt>
      <trkpt lat="44.06247" lon="5.21899">
        <ele>1211.25</ele>
        <time>2020-09-03T13:56:55Z</time>
      </trkpt>
      <trkpt lat="44.06238" lon="5.21903">
        <ele>1208.421</ele>
        <time>2020-09-03T13:56:56Z</time>
      </trkpt>
      <trkpt lat="44.06229" lon="5.21909">
        <ele>1204.946</ele>
        <time>2020-09-03T13:56:57Z</time>
      </trkpt>
      <trkpt lat="44.06221" lon="5.21915">
        <ele>1201.613</ele>
        <time>2020-09-03T13:56:58Z</time>
      </trkpt>
      <trkpt lat="44.06213" lon="5.21923">
        <ele>1198.34</ele>
        <time>2020-09-03T13:56:59Z</time>
      </trkpt>
      <trkpt lat="44.06204" lon="5.21931">
        <ele>1195.556</ele>
        <time>2020-09-03T13:57:00Z</time>
      </trkpt>
      <trkpt lat="44.06196" lon="5.21939">
        <ele>1192.366</ele>
        <time>2020-09-03T13:57:01Z</time>
      </trkpt>
      <trkpt lat="44.06187" lon="5.2195">
        <ele>1188.805</ele>
        <time>2020-09-03T13:57:02Z</time>
      </trkpt>
      <trkpt lat="44.06187" lon="5.2195">
        <ele>1186.239</ele>
        <time>2020-09-03T13:57:02Z</time>
      </trkpt>
      <trkpt lat="44.06174" lon="5.21972">
        <ele>1183.771</ele>
        <time>2020-09-03T13:57:04Z</time>
      </trkpt>
      <trkpt lat="44.06161" lon="5.21994">
        <ele>1181.093</ele>
        <time>2020-09-03T13:57:06Z</time>
      </trkpt>
      <trkpt lat="44.06154" lon="5.22005">
        <ele>1177.757</ele>
        <time>2020-09-03T13:57:07Z</time>
      </trkpt>
      <trkpt lat="44.06148" lon="5.22019">
        <ele>1174.878</ele>
        <time>2020-09-03T13:57:08Z</time>
      </trkpt>
      <trkpt lat="44.06142" lon="5.22033">
        <ele>1171.604</ele>
        <time>2020-09-03T13:57:09Z</time>
      </trkpt>
      <trkpt lat="44.06136" lon="5.22048">
        <ele>1169.326</ele>
        <time>2020-09-03T13:57:10Z</time>
      </trkpt>
      <trkpt lat="44.06131" lon="5.22062">
        <ele>1167.964</ele>
        <time>2020-09-03T13:57:11Z</time>
      </trkpt>
      <trkpt lat="44.06126" lon="5.22077">
        <ele>1166.463</ele>
        <time>2020-09-03T13:57:12Z</time>
      </trkpt>
      <trkpt lat="44.06122" lon="5.22093">
        <ele>1165.52</ele>
        <time>2020-09-03T13:57:13Z</time>
      </trkpt>
      <trkpt lat="44.06119" lon="5.22108">
        <ele>1165.016</ele>
        <time>2020-09-03T13:57:14Z</time>
      </trkpt>
      <trkpt lat="44.06117" lon="5.22122">
        <ele>1164.771</ele>
        <time>2020-09-03T13:57:15Z</time>
      </trkpt>
      <trkpt lat="44.06114" lon="5.22135">
        <ele>1164.509</ele>
        <time>2020-09-03T13:57:16Z</time>
      </trkpt>
      <trkpt lat="44.06112" lon="5.22147">
        <ele>1163.962</ele>
        <time>2020-09-03T13:57:17Z</time>
      </trkpt>
      <trkpt lat="44.06109" lon="5.2216">
        <ele>1163.205</ele>
        <time>2020-09-03T13:57:18Z</time>
      </trkpt>
      <trkpt lat="44.06105" lon="5.22174">
        <ele>1162.391</ele>
        <time>2020-09-03T13:57:19Z</time>
      </trkpt>
      <trkpt lat="44.06101" lon="5.22187">
        <ele>1161.776</ele>
        <time>2020-09-03T13:57:20Z</time>
      </trkpt>
      <trkpt lat="44.06098" lon="5.222">
        <ele>1161.4</ele>
        <time>2020-09-03T13:57:21Z</time>
      </trkpt>
      <trkpt lat="44.06094" lon="5.22213">
        <ele>1161.164</ele>
        <time>2020-09-03T13:57:22Z</time>
      </trkpt>
      <trkpt lat="44.0609" lon="5.22226">
        <ele>1160.646</ele>
        <time>2020-09-03T13:57:23Z</time>
      </trkpt>
      <trkpt lat="44.06086" lon="5.22239">
        <ele>1160.01</ele>
        <time>2020-09-03T13:57:24Z</time>
      </trkpt>
      <trkpt lat="44.06086" lon="5.22239">
        <ele>1159.075</ele>
        <time>2020-09-03T13:57:24Z</time>
      </trkpt>
      <trkpt lat="44.06086" lon="5.22239">
        <ele>1157.963</ele>
        <time>2020-09-03T13:57:24Z</time>
      </trkpt>
      <trkpt lat="44.06086" lon="5.22239">
        <ele>1156.953</ele>
        <time>2020-09-03T13:57:24Z</time>
      </trkpt>
      <trkpt lat="44.0606" lon="5.22288">
        <ele>1156.317</ele>
        <time>2020-09-03T13:57:28Z</time>
      </trkpt>
      <trkpt lat="44.06049" lon="5.2231">
        <ele>1155.805</ele>
        <time>2020-09-03T13:57:30Z</time>
      </trkpt>
      <trkpt lat="44.06044" lon="5.22321">
        <ele>1154.936</ele>
        <time>2020-09-03T13:57:31Z</time>
      </trkpt>
      <trkpt lat="44.06038" lon="5.22333">
        <ele>1153.552</ele>
        <time>2020-09-03T13:57:32Z</time>
      </trkpt>
      <trkpt lat="44.06033" lon="5.22345">
        <ele>1151.766</ele>
        <time>2020-09-03T13:57:33Z</time>
      </trkpt>
      <trkpt lat="44.06027" lon="5.22358">
        <ele>1150.108</ele>
        <time>2020-09-03T13:57:34Z</time>
      </trkpt>
      <trkpt lat="44.06021" lon="5.2237">
        <ele>1148.967</ele>
        <time>2020-09-03T13:57:35Z</time>
      </trkpt>
      <trkpt lat="44.06015" lon="5.22381">
        <ele>1148.019</ele>
        <time>2020-09-03T13:57:36Z</time>
      </trkpt>
      <trkpt lat="44.0601" lon="5.22392">
        <ele>1147.09</ele>
        <time>2020-09-03T13:57:37Z</time>
      </trkpt>
      <trkpt lat="44.06005" lon="5.22404">
        <ele>1146.02</ele>
        <time>2020-09-03T13:57:38Z</time>
      </trkpt>
      <trkpt lat="44.05999" lon="5.22415">
        <ele>1145.135</ele>
        <time>2020-09-03T13:57:39Z</time>
      </trkpt>
      <trkpt lat="44.05993" lon="5.22427">
        <ele>1143.589</ele>
        <time>2020-09-03T13:57:40Z</time>
      </trkpt>
      <trkpt lat="44.05988" lon="5.22439">
        <ele>1142.008</ele>
        <time>2020-09-03T13:57:41Z</time>
      </trkpt>
      <trkpt lat="44.05984" lon="5.2245">
        <ele>1140.412</ele>
        <time>2020-09-03T13:57:42Z</time>
      </trkpt>
      <trkpt lat="44.05979" lon="5.22461">
        <ele>1138.651</ele>
        <time>2020-09-03T13:57:43Z</time>
      </trkpt>
      <trkpt lat="44.05975" lon="5.22472">
        <ele>1136.601</ele>
        <time>2020-09-03T13:57:44Z</time>
      </trkpt>
      <trkpt lat="44.0597" lon="5.22483">
        <ele>1134.353</ele>
        <time>2020-09-03T13:57:45Z</time>
      </trkpt>
      <trkpt lat="44.05965" lon="5.22496">
        <ele>1131.925</ele>
        <time>2020-09-03T13:57:46Z</time>
      </trkpt>
      <trkpt lat="44.0596" lon="5.2251">
        <ele>1128.984</ele>
        <time>2020-09-03T13:57:47Z</time>
      </trkpt>
      <trkpt lat="44.0596" lon="5.2251">
        <ele>1126.69</ele>
        <time>2020-09-03T13:57:47Z</time>
      </trkpt>
      <trkpt lat="44.05945" lon="5.22551">
        <ele>1124.073</ele>
        <time>2020-09-03T13:57:50Z</time>
      </trkpt>
      <trkpt lat="44.05939" lon="5.22564">
        <ele>1121.643</ele>
        <time>2020-09-03T13:57:51Z</time>
      </trkpt>
      <trkpt lat="44.05932" lon="5.22578">
        <ele>1119.726</ele>
        <time>2020-09-03T13:57:52Z</time>
      </trkpt>
      <trkpt lat="44.05926" lon="5.22593">
        <ele>1118.805</ele>
        <time>2020-09-03T13:57:53Z</time>
      </trkpt>
      <trkpt lat="44.05921" lon="5.22608">
        <ele>1118.741</ele>
        <time>2020-09-03T13:57:54Z</time>
      </trkpt>
      <trkpt lat="44.05916" lon="5.22622">
        <ele>1119.032</ele>
        <time>2020-09-03T13:57:55Z</time>
      </trkpt>
      <trkpt lat="44.0591" lon="5.22636">
        <ele>1119.311</ele>
        <time>2020-09-03T13:57:56Z</time>
      </trkpt>
      <trkpt lat="44.05903" lon="5.22649">
        <ele>1119.499</ele>
        <time>2020-09-03T13:57:57Z</time>
      </trkpt>
      <trkpt lat="44.05896" lon="5.22663">
        <ele>1119.778</ele>
        <time>2020-09-03T13:57:58Z</time>
      </trkpt>
      <trkpt lat="44.05882" lon="5.22691">
        <ele>1120.283</ele>
        <time>2020-09-03T13:58:00Z</time>
      </trkpt>
      <trkpt lat="44.05875" lon="5.22705">
        <ele>1120.846</ele>
        <time>2020-09-03T13:58:01Z</time>
      </trkpt>
      <trkpt lat="44.05868" lon="5.22718">
        <ele>1121.366</ele>
        <time>2020-09-03T13:58:02Z</time>
      </trkpt>
      <trkpt lat="44.05861" lon="5.22732">
        <ele>1121.881</ele>
        <time>2020-09-03T13:58:03Z</time>
      </trkpt>
      <trkpt lat="44.05861" lon="5.22732">
        <ele>1122.323</ele>
        <time>2020-09-03T13:58:03Z</time>
      </trkpt>
      <trkpt lat="44.05853" lon="5.22761">
        <ele>1122.766</ele>
        <time>2020-09-03T13:58:05Z</time>
      </trkpt>
      <trkpt lat="44.05852" lon="5.22776">
        <ele>1123.019</ele>
        <time>2020-09-03T13:58:06Z</time>
      </trkpt>
      <trkpt lat="44.05854" lon="5.2279">
        <ele>1123.083</ele>
        <time>2020-09-03T13:58:07Z</time>
      </trkpt>
      <trkpt lat="44.05859" lon="5.22802">
        <ele>1123.079</ele>
        <time>2020-09-03T13:58:08Z</time>
      </trkpt>
      <trkpt lat="44.05864" lon="5.22811">
        <ele>1122.916</ele>
        <time>2020-09-03T13:58:09Z</time>
      </trkpt>
      <trkpt lat="44.0587" lon="5.22814">
        <ele>1122.594</ele>
        <time>2020-09-03T13:58:10Z</time>
      </trkpt>
      <trkpt lat="44.05878" lon="5.22814">
        <ele>1122.088</ele>
        <time>2020-09-03T13:58:11Z</time>
      </trkpt>
      <trkpt lat="44.05884" lon="5.22811">
        <ele>1121.328</ele>
        <time>2020-09-03T13:58:12Z</time>
      </trkpt>
      <trkpt lat="44.05888" lon="5.22804">
        <ele>1120.086</ele>
        <time>2020-09-03T13:58:13Z</time>
      </trkpt>
      <trkpt lat="44.05889" lon="5.22795">
        <ele>1118.17</ele>
        <time>2020-09-03T13:58:14Z</time>
      </trkpt>
      <trkpt lat="44.05888" lon="5.22785">
        <ele>1115.142</ele>
        <time>2020-09-03T13:58:15Z</time>
      </trkpt>
      <trkpt lat="44.05883" lon="5.22775">
        <ele>1112.359</ele>
        <time>2020-09-03T13:58:16Z</time>
      </trkpt>
      <trkpt lat="44.05883" lon="5.22775">
        <ele>1110.487</ele>
        <time>2020-09-03T13:58:16Z</time>
      </trkpt>
      <trkpt lat="44.05867" lon="5.2276">
        <ele>1109.739</ele>
        <time>2020-09-03T13:58:18Z</time>
      </trkpt>
      <trkpt lat="44.05849" lon="5.22752">
        <ele>1109.69</ele>
        <time>2020-09-03T13:58:20Z</time>
      </trkpt>
      <trkpt lat="44.05841" lon="5.22748">
        <ele>1110.288</ele>
        <time>2020-09-03T13:58:21Z</time>
      </trkpt>
      <trkpt lat="44.05833" lon="5.22745">
        <ele>1111.282</ele>
        <time>2020-09-03T13:58:22Z</time>
      </trkpt>
      <trkpt lat="44.05825" lon="5.22745">
        <ele>1112.432</ele>
        <time>2020-09-03T13:58:23Z</time>
      </trkpt>
      <trkpt lat="44.05816" lon="5.22743">
        <ele>1113.549</ele>
        <time>2020-09-03T13:58:24Z</time>
      </trkpt>
      <trkpt lat="44.05808" lon="5.2274">
        <ele>1114.184</ele>
        <time>2020-09-03T13:58:25Z</time>
      </trkpt>
      <trkpt lat="44.05799" lon="5.22735">
        <ele>1114.475</ele>
        <time>2020-09-03T13:58:26Z</time>
      </trkpt>
      <trkpt lat="44.05792" lon="5.2273">
        <ele>1114.545</ele>
        <time>2020-09-03T13:58:27Z</time>
      </trkpt>
      <trkpt lat="44.05787" lon="5.22723">
        <ele>1114.65</ele>
        <time>2020-09-03T13:58:28Z</time>
      </trkpt>
      <trkpt lat="44.05783" lon="5.22716">
        <ele>1114.835</ele>
        <time>2020-09-03T13:58:29Z</time>
      </trkpt>
      <trkpt lat="44.05781" lon="5.22708">
        <ele>1115.02</ele>
        <time>2020-09-03T13:58:30Z</time>
      </trkpt>
      <trkpt lat="44.05782" lon="5.22702">
        <ele>1115.293</ele>
        <time>2020-09-03T13:58:31Z</time>
      </trkpt>
      <trkpt lat="44.05786" lon="5.22697">
        <ele>1115.543</ele>
        <time>2020-09-03T13:58:32Z</time>
      </trkpt>
      <trkpt lat="44.0579" lon="5.22696">
        <ele>1115.678</ele>
        <time>2020-09-03T13:58:33Z</time>
      </trkpt>
      <trkpt lat="44.05796" lon="5.22697">
        <ele>1115.764</ele>
        <time>2020-09-03T13:58:34Z</time>
      </trkpt>
      <trkpt lat="44.05796" lon="5.22697">
        <ele>1115.779</ele>
        <time>2020-09-03T13:58:34Z</time>
      </trkpt>
      <trkpt lat="44.05796" lon="5.22697">
        <ele>1115.643</ele>
        <time>2020-09-03T13:58:34Z</time>
      </trkpt>
      <trkpt lat="44.05796" lon="5.22697">
        <ele>1115.386</ele>
        <time>2020-09-03T13:58:34Z</time>
      </trkpt>
      <trkpt lat="44.05796" lon="5.22697">
        <ele>1115.278</ele>
        <time>2020-09-03T13:58:34Z</time>
      </trkpt>
      <trkpt lat="44.0582" lon="5.22745">
        <ele>1115.623</ele>
        <time>2020-09-03T13:58:39Z</time>
      </trkpt>
      <trkpt lat="44.0582" lon="5.22745">
        <ele>1116.519</ele>
        <time>2020-09-03T13:58:39Z</time>
      </trkpt>
      <trkpt lat="44.05827" lon="5.22783">
        <ele>1117.4</ele>
        <time>2020-09-03T13:58:42Z</time>
      </trkpt>
      <trkpt lat="44.05826" lon="5.22795">
        <ele>1117.913</ele>
        <time>2020-09-03T13:58:43Z</time>
      </trkpt>
      <trkpt lat="44.05823" lon="5.22809">
        <ele>1117.983</ele>
        <time>2020-09-03T13:58:44Z</time>
      </trkpt>
      <trkpt lat="44.05818" lon="5.22823">
        <ele>1117.505</ele>
        <time>2020-09-03T13:58:45Z</time>
      </trkpt>
      <trkpt lat="44.05811" lon="5.22838">
        <ele>1116.725</ele>
        <time>2020-09-03T13:58:46Z</time>
      </trkpt>
      <trkpt lat="44.05803" lon="5.22851">
        <ele>1116.016</ele>
        <time>2020-09-03T13:58:47Z</time>
      </trkpt>
      <trkpt lat="44.05794" lon="5.22863">
        <ele>1115.854</ele>
        <time>2020-09-03T13:58:48Z</time>
      </trkpt>
      <trkpt lat="44.05785" lon="5.22875">
        <ele>1116.058</ele>
        <time>2020-09-03T13:58:49Z</time>
      </trkpt>
      <trkpt lat="44.05777" lon="5.22887">
        <ele>1116.438</ele>
        <time>2020-09-03T13:58:50Z</time>
      </trkpt>
      <trkpt lat="44.05769" lon="5.22899">
        <ele>1116.525</ele>
        <time>2020-09-03T13:58:51Z</time>
      </trkpt>
      <trkpt lat="44.05769" lon="5.22899">
        <ele>1116.354</ele>
        <time>2020-09-03T13:58:51Z</time>
      </trkpt>
      <trkpt lat="44.05769" lon="5.22899">
        <ele>1115.939</ele>
        <time>2020-09-03T13:58:51Z</time>
      </trkpt>
      <trkpt lat="44.0575" lon="5.22939">
        <ele>1115.45</ele>
        <time>2020-09-03T13:58:54Z</time>
      </trkpt>
      <trkpt lat="44.05744" lon="5.22952">
        <ele>1114.842</ele>
        <time>2020-09-03T13:58:55Z</time>
      </trkpt>
      <trkpt lat="44.05738" lon="5.22964">
        <ele>1113.863</ele>
        <time>2020-09-03T13:58:56Z</time>
      </trkpt>
      <trkpt lat="44.05733" lon="5.22977">
        <ele>1112.081</ele>
        <time>2020-09-03T13:58:57Z</time>
      </trkpt>
      <trkpt lat="44.05727" lon="5.22991">
        <ele>1109.772</ele>
        <time>2020-09-03T13:58:58Z</time>
      </trkpt>
      <trkpt lat="44.05714" lon="5.23017">
        <ele>1107.009</ele>
        <time>2020-09-03T13:59:00Z</time>
      </trkpt>
      <trkpt lat="44.05705" lon="5.23029">
        <ele>1103.865</ele>
        <time>2020-09-03T13:59:01Z</time>
      </trkpt>
      <trkpt lat="44.05695" lon="5.2304">
        <ele>1100.727</ele>
        <time>2020-09-03T13:59:02Z</time>
      </trkpt>
      <trkpt lat="44.05686" lon="5.23051">
        <ele>1098.427</ele>
        <time>2020-09-03T13:59:03Z</time>
      </trkpt>
      <trkpt lat="44.05686" lon="5.23051">
        <ele>1094.859</ele>
        <time>2020-09-03T13:59:03Z</time>
      </trkpt>
      <trkpt lat="44.05668" lon="5.23072">
        <ele>1091.281</ele>
        <time>2020-09-03T13:59:05Z</time>
      </trkpt>
      <trkpt lat="44.05659" lon="5.23083">
        <ele>1087.737</ele>
        <time>2020-09-03T13:59:06Z</time>
      </trkpt>
      <trkpt lat="44.0565" lon="5.23093">
        <ele>1084.366</ele>
        <time>2020-09-03T13:59:07Z</time>
      </trkpt>
      <trkpt lat="44.0564" lon="5.23105">
        <ele>1081.083</ele>
        <time>2020-09-03T13:59:08Z</time>
      </trkpt>
      <trkpt lat="44.05631" lon="5.23118">
        <ele>1078.251</ele>
        <time>2020-09-03T13:59:09Z</time>
      </trkpt>
      <trkpt lat="44.05622" lon="5.23131">
        <ele>1075.572</ele>
        <time>2020-09-03T13:59:10Z</time>
      </trkpt>
      <trkpt lat="44.05606" lon="5.23156">
        <ele>1073.419</ele>
        <time>2020-09-03T13:59:12Z</time>
      </trkpt>
      <trkpt lat="44.05597" lon="5.23167">
        <ele>1070.951</ele>
        <time>2020-09-03T13:59:13Z</time>
      </trkpt>
      <trkpt lat="44.0559" lon="5.23178">
        <ele>1067.984</ele>
        <time>2020-09-03T13:59:14Z</time>
      </trkpt>
      <trkpt lat="44.05582" lon="5.23189">
        <ele>1065.538</ele>
        <time>2020-09-03T13:59:15Z</time>
      </trkpt>
      <trkpt lat="44.05574" lon="5.232">
        <ele>1062.223</ele>
        <time>2020-09-03T13:59:16Z</time>
      </trkpt>
      <trkpt lat="44.05565" lon="5.23212">
        <ele>1058.586</ele>
        <time>2020-09-03T13:59:17Z</time>
      </trkpt>
      <trkpt lat="44.05555" lon="5.23225">
        <ele>1054.952</ele>
        <time>2020-09-03T13:59:18Z</time>
      </trkpt>
      <trkpt lat="44.05544" lon="5.23236">
        <ele>1051.485</ele>
        <time>2020-09-03T13:59:19Z</time>
      </trkpt>
      <trkpt lat="44.05532" lon="5.23247">
        <ele>1048.446</ele>
        <time>2020-09-03T13:59:20Z</time>
      </trkpt>
      <trkpt lat="44.05521" lon="5.23257">
        <ele>1045.777</ele>
        <time>2020-09-03T13:59:21Z</time>
      </trkpt>
      <trkpt lat="44.05509" lon="5.23267">
        <ele>1043.041</ele>
        <time>2020-09-03T13:59:22Z</time>
      </trkpt>
      <trkpt lat="44.05497" lon="5.23277">
        <ele>1039.974</ele>
        <time>2020-09-03T13:59:23Z</time>
      </trkpt>
      <trkpt lat="44.05485" lon="5.23286">
        <ele>1037.038</ele>
        <time>2020-09-03T13:59:24Z</time>
      </trkpt>
      <trkpt lat="44.05472" lon="5.23296">
        <ele>1033.909</ele>
        <time>2020-09-03T13:59:25Z</time>
      </trkpt>
      <trkpt lat="44.05459" lon="5.23304">
        <ele>1031.449</ele>
        <time>2020-09-03T13:59:26Z</time>
      </trkpt>
      <trkpt lat="44.05446" lon="5.23312">
        <ele>1029.303</ele>
        <time>2020-09-03T13:59:27Z</time>
      </trkpt>
      <trkpt lat="44.05434" lon="5.23319">
        <ele>1027.154</ele>
        <time>2020-09-03T13:59:28Z</time>
      </trkpt>
      <trkpt lat="44.05423" lon="5.23326">
        <ele>1024.648</ele>
        <time>2020-09-03T13:59:29Z</time>
      </trkpt>
      <trkpt lat="44.0541" lon="5.23333">
        <ele>1021.575</ele>
        <time>2020-09-03T13:59:30Z</time>
      </trkpt>
      <trkpt lat="44.0541" lon="5.23333">
        <ele>1019.523</ele>
        <time>2020-09-03T13:59:30Z</time>
      </trkpt>
      <trkpt lat="44.05373" lon="5.23358">
        <ele>1017.044</ele>
        <time>2020-09-03T13:59:33Z</time>
      </trkpt>
      <trkpt lat="44.05373" lon="5.23358">
        <ele>1015.034</ele>
        <time>2020-09-03T13:59:33Z</time>
      </trkpt>
      <trkpt lat="44.05355" lon="5.23377">
        <ele>1013.975</ele>
        <time>2020-09-03T13:59:35Z</time>
      </trkpt>
      <trkpt lat="44.05348" lon="5.23387">
        <ele>1012.708</ele>
        <time>2020-09-03T13:59:36Z</time>
      </trkpt>
      <trkpt lat="44.05339" lon="5.23397">
        <ele>1011.039</ele>
        <time>2020-09-03T13:59:37Z</time>
      </trkpt>
      <trkpt lat="44.0533" lon="5.23406">
        <ele>1008.518</ele>
        <time>2020-09-03T13:59:38Z</time>
      </trkpt>
      <trkpt lat="44.05319" lon="5.23415">
        <ele>1004.958</ele>
        <time>2020-09-03T13:59:39Z</time>
      </trkpt>
      <trkpt lat="44.05308" lon="5.23426">
        <ele>1001.758</ele>
        <time>2020-09-03T13:59:40Z</time>
      </trkpt>
      <trkpt lat="44.05298" lon="5.23437">
        <ele>999.12</ele>
        <time>2020-09-03T13:59:41Z</time>
      </trkpt>
      <trkpt lat="44.05288" lon="5.23448">
        <ele>997.244</ele>
        <time>2020-09-03T13:59:42Z</time>
      </trkpt>
      <trkpt lat="44.05278" lon="5.23456">
        <ele>995.815</ele>
        <time>2020-09-03T13:59:43Z</time>
      </trkpt>
      <trkpt lat="44.05268" lon="5.23464">
        <ele>994.644</ele>
        <time>2020-09-03T13:59:44Z</time>
      </trkpt>
      <trkpt lat="44.05259" lon="5.23471">
        <ele>993.238</ele>
        <time>2020-09-03T13:59:45Z</time>
      </trkpt>
      <trkpt lat="44.0525" lon="5.2348">
        <ele>991.646</ele>
        <time>2020-09-03T13:59:46Z</time>
      </trkpt>
      <trkpt lat="44.0524" lon="5.23489">
        <ele>990.324</ele>
        <time>2020-09-03T13:59:47Z</time>
      </trkpt>
      <trkpt lat="44.0523" lon="5.23498">
        <ele>988.874</ele>
        <time>2020-09-03T13:59:48Z</time>
      </trkpt>
      <trkpt lat="44.0522" lon="5.23505">
        <ele>987.615</ele>
        <time>2020-09-03T13:59:49Z</time>
      </trkpt>
      <trkpt lat="44.05209" lon="5.23513">
        <ele>986.58</ele>
        <time>2020-09-03T13:59:50Z</time>
      </trkpt>
      <trkpt lat="44.052" lon="5.23522">
        <ele>986.278</ele>
        <time>2020-09-03T13:59:51Z</time>
      </trkpt>
      <trkpt lat="44.05191" lon="5.23531">
        <ele>986.661</ele>
        <time>2020-09-03T13:59:52Z</time>
      </trkpt>
      <trkpt lat="44.05183" lon="5.23538">
        <ele>987.263</ele>
        <time>2020-09-03T13:59:53Z</time>
      </trkpt>
      <trkpt lat="44.05176" lon="5.23543">
        <ele>987.608</ele>
        <time>2020-09-03T13:59:54Z</time>
      </trkpt>
      <trkpt lat="44.0516" lon="5.2355">
        <ele>987.286</ele>
        <time>2020-09-03T13:59:56Z</time>
      </trkpt>
      <trkpt lat="44.05152" lon="5.23555">
        <ele>986.002</ele>
        <time>2020-09-03T13:59:57Z</time>
      </trkpt>
      <trkpt lat="44.05143" lon="5.23562">
        <ele>984.334</ele>
        <time>2020-09-03T13:59:58Z</time>
      </trkpt>
      <trkpt lat="44.05135" lon="5.2357">
        <ele>983.212</ele>
        <time>2020-09-03T13:59:59Z</time>
      </trkpt>
      <trkpt lat="44.05129" lon="5.23577">
        <ele>981.574</ele>
        <time>2020-09-03T14:00:00Z</time>
      </trkpt>
      <trkpt lat="44.05123" lon="5.23584">
        <ele>979.552</ele>
        <time>2020-09-03T14:00:01Z</time>
      </trkpt>
      <trkpt lat="44.05116" lon="5.23591">
        <ele>977.746</ele>
        <time>2020-09-03T14:00:02Z</time>
      </trkpt>
      <trkpt lat="44.05109" lon="5.23599">
        <ele>976.135</ele>
        <time>2020-09-03T14:00:03Z</time>
      </trkpt>
      <trkpt lat="44.05101" lon="5.23607">
        <ele>974.852</ele>
        <time>2020-09-03T14:00:04Z</time>
      </trkpt>
      <trkpt lat="44.05086" lon="5.23627">
        <ele>973.602</ele>
        <time>2020-09-03T14:00:06Z</time>
      </trkpt>
      <trkpt lat="44.05079" lon="5.23635">
        <ele>972.768</ele>
        <time>2020-09-03T14:00:07Z</time>
      </trkpt>
      <trkpt lat="44.05072" lon="5.23643">
        <ele>972.202</ele>
        <time>2020-09-03T14:00:08Z</time>
      </trkpt>
      <trkpt lat="44.05064" lon="5.23651">
        <ele>971.538</ele>
        <time>2020-09-03T14:00:09Z</time>
      </trkpt>
      <trkpt lat="44.05057" lon="5.2366">
        <ele>970.542</ele>
        <time>2020-09-03T14:00:10Z</time>
      </trkpt>
      <trkpt lat="44.05049" lon="5.23671">
        <ele>969.502</ele>
        <time>2020-09-03T14:00:11Z</time>
      </trkpt>
      <trkpt lat="44.05042" lon="5.23682">
        <ele>968.792</ele>
        <time>2020-09-03T14:00:12Z</time>
      </trkpt>
      <trkpt lat="44.05036" lon="5.23693">
        <ele>968.476</ele>
        <time>2020-09-03T14:00:13Z</time>
      </trkpt>
      <trkpt lat="44.0503" lon="5.23702">
        <ele>968.639</ele>
        <time>2020-09-03T14:00:14Z</time>
      </trkpt>
      <trkpt lat="44.05024" lon="5.2371">
        <ele>968.945</ele>
        <time>2020-09-03T14:00:15Z</time>
      </trkpt>
      <trkpt lat="44.05017" lon="5.23719">
        <ele>969.12</ele>
        <time>2020-09-03T14:00:16Z</time>
      </trkpt>
      <trkpt lat="44.0501" lon="5.23729">
        <ele>969.146</ele>
        <time>2020-09-03T14:00:17Z</time>
      </trkpt>
      <trkpt lat="44.05003" lon="5.2374">
        <ele>969.212</ele>
        <time>2020-09-03T14:00:18Z</time>
      </trkpt>
      <trkpt lat="44.04996" lon="5.23751">
        <ele>969.447</ele>
        <time>2020-09-03T14:00:19Z</time>
      </trkpt>
      <trkpt lat="44.04991" lon="5.23762">
        <ele>969.781</ele>
        <time>2020-09-03T14:00:20Z</time>
      </trkpt>
      <trkpt lat="44.04987" lon="5.23773">
        <ele>969.971</ele>
        <time>2020-09-03T14:00:21Z</time>
      </trkpt>
      <trkpt lat="44.04983" lon="5.23785">
        <ele>969.91</ele>
        <time>2020-09-03T14:00:22Z</time>
      </trkpt>
      <trkpt lat="44.04978" lon="5.23797">
        <ele>969.48</ele>
        <time>2020-09-03T14:00:23Z</time>
      </trkpt>
      <trkpt lat="44.04973" lon="5.23809">
        <ele>969.058</ele>
        <time>2020-09-03T14:00:24Z</time>
      </trkpt>
      <trkpt lat="44.04968" lon="5.2382">
        <ele>968.672</ele>
        <time>2020-09-03T14:00:25Z</time>
      </trkpt>
      <trkpt lat="44.0496" lon="5.23841">
        <ele>967.935</ele>
        <time>2020-09-03T14:00:27Z</time>
      </trkpt>
      <trkpt lat="44.04956" lon="5.23852">
        <ele>967.278</ele>
        <time>2020-09-03T14:00:28Z</time>
      </trkpt>
      <trkpt lat="44.04952" lon="5.23863">
        <ele>965.624</ele>
        <time>2020-09-03T14:00:29Z</time>
      </trkpt>
      <trkpt lat="44.04946" lon="5.23874">
        <ele>963.519</ele>
        <time>2020-09-03T14:00:30Z</time>
      </trkpt>
      <trkpt lat="44.0494" lon="5.23884">
        <ele>961.392</ele>
        <time>2020-09-03T14:00:31Z</time>
      </trkpt>
      <trkpt lat="44.04933" lon="5.23894">
        <ele>959.554</ele>
        <time>2020-09-03T14:00:32Z</time>
      </trkpt>
      <trkpt lat="44.04926" lon="5.23904">
        <ele>958.116</ele>
        <time>2020-09-03T14:00:33Z</time>
      </trkpt>
      <trkpt lat="44.0492" lon="5.23913">
        <ele>957.125</ele>
        <time>2020-09-03T14:00:34Z</time>
      </trkpt>
      <trkpt lat="44.04913" lon="5.23922">
        <ele>956.109</ele>
        <time>2020-09-03T14:00:35Z</time>
      </trkpt>
      <trkpt lat="44.04906" lon="5.23931">
        <ele>955.275</ele>
        <time>2020-09-03T14:00:36Z</time>
      </trkpt>
      <trkpt lat="44.04898" lon="5.23939">
        <ele>954.64</ele>
        <time>2020-09-03T14:00:37Z</time>
      </trkpt>
      <trkpt lat="44.0489" lon="5.23946">
        <ele>954.228</ele>
        <time>2020-09-03T14:00:38Z</time>
      </trkpt>
      <trkpt lat="44.04883" lon="5.23953">
        <ele>953.821</ele>
        <time>2020-09-03T14:00:39Z</time>
      </trkpt>
      <trkpt lat="44.04876" lon="5.2396">
        <ele>953.311</ele>
        <time>2020-09-03T14:00:40Z</time>
      </trkpt>
      <trkpt lat="44.0487" lon="5.23968">
        <ele>952.611</ele>
        <time>2020-09-03T14:00:41Z</time>
      </trkpt>
      <trkpt lat="44.04865" lon="5.23976">
        <ele>951.501</ele>
        <time>2020-09-03T14:00:42Z</time>
      </trkpt>
      <trkpt lat="44.04859" lon="5.23983">
        <ele>949.931</ele>
        <time>2020-09-03T14:00:43Z</time>
      </trkpt>
      <trkpt lat="44.04853" lon="5.2399">
        <ele>948.155</ele>
        <time>2020-09-03T14:00:44Z</time>
      </trkpt>
      <trkpt lat="44.04853" lon="5.2399">
        <ele>946.042</ele>
        <time>2020-09-03T14:00:44Z</time>
      </trkpt>
      <trkpt lat="44.04853" lon="5.2399">
        <ele>944.365</ele>
        <time>2020-09-03T14:00:44Z</time>
      </trkpt>
      <trkpt lat="44.04853" lon="5.2399">
        <ele>943.091</ele>
        <time>2020-09-03T14:00:44Z</time>
      </trkpt>
      <trkpt lat="44.04822" lon="5.24021">
        <ele>942.347</ele>
        <time>2020-09-03T14:00:48Z</time>
      </trkpt>
      <trkpt lat="44.04807" lon="5.24037">
        <ele>942.039</ele>
        <time>2020-09-03T14:00:50Z</time>
      </trkpt>
      <trkpt lat="44.048" lon="5.24045">
        <ele>941.921</ele>
        <time>2020-09-03T14:00:51Z</time>
      </trkpt>
      <trkpt lat="44.04792" lon="5.24055">
        <ele>941.894</ele>
        <time>2020-09-03T14:00:52Z</time>
      </trkpt>
      <trkpt lat="44.04784" lon="5.24065">
        <ele>942.126</ele>
        <time>2020-09-03T14:00:53Z</time>
      </trkpt>
      <trkpt lat="44.04776" lon="5.24075">
        <ele>942.797</ele>
        <time>2020-09-03T14:00:54Z</time>
      </trkpt>
      <trkpt lat="44.04769" lon="5.24084">
        <ele>943.82</ele>
        <time>2020-09-03T14:00:55Z</time>
      </trkpt>
      <trkpt lat="44.04769" lon="5.24084">
        <ele>944.567</ele>
        <time>2020-09-03T14:00:55Z</time>
      </trkpt>
      <trkpt lat="44.04754" lon="5.24101">
        <ele>945.571</ele>
        <time>2020-09-03T14:00:57Z</time>
      </trkpt>
      <trkpt lat="44.04746" lon="5.2411">
        <ele>946.169</ele>
        <time>2020-09-03T14:00:58Z</time>
      </trkpt>
      <trkpt lat="44.04734" lon="5.24132">
        <ele>946.969</ele>
        <time>2020-09-03T14:01:00Z</time>
      </trkpt>
      <trkpt lat="44.04732" lon="5.24143">
        <ele>947.736</ele>
        <time>2020-09-03T14:01:01Z</time>
      </trkpt>
      <trkpt lat="44.04734" lon="5.24156">
        <ele>948.448</ele>
        <time>2020-09-03T14:01:02Z</time>
      </trkpt>
      <trkpt lat="44.04739" lon="5.24167">
        <ele>948.816</ele>
        <time>2020-09-03T14:01:03Z</time>
      </trkpt>
      <trkpt lat="44.04739" lon="5.24167">
        <ele>949.116</ele>
        <time>2020-09-03T14:01:03Z</time>
      </trkpt>
      <trkpt lat="44.04753" lon="5.24182">
        <ele>949.252</ele>
        <time>2020-09-03T14:01:05Z</time>
      </trkpt>
      <trkpt lat="44.04761" lon="5.24186">
        <ele>949.521</ele>
        <time>2020-09-03T14:01:06Z</time>
      </trkpt>
      <trkpt lat="44.04769" lon="5.24189">
        <ele>950.049</ele>
        <time>2020-09-03T14:01:07Z</time>
      </trkpt>
      <trkpt lat="44.04776" lon="5.24192">
        <ele>950.714</ele>
        <time>2020-09-03T14:01:08Z</time>
      </trkpt>
      <trkpt lat="44.04776" lon="5.24192">
        <ele>951.364</ele>
        <time>2020-09-03T14:01:08Z</time>
      </trkpt>
      <trkpt lat="44.0479" lon="5.24197">
        <ele>951.782</ele>
        <time>2020-09-03T14:01:10Z</time>
      </trkpt>
      <trkpt lat="44.04798" lon="5.24197">
        <ele>951.937</ele>
        <time>2020-09-03T14:01:11Z</time>
      </trkpt>
      <trkpt lat="44.04805" lon="5.24196">
        <ele>951.91</ele>
        <time>2020-09-03T14:01:12Z</time>
      </trkpt>
      <trkpt lat="44.04813" lon="5.24194">
        <ele>951.779</ele>
        <time>2020-09-03T14:01:13Z</time>
      </trkpt>
      <trkpt lat="44.04819" lon="5.24188">
        <ele>951.753</ele>
        <time>2020-09-03T14:01:14Z</time>
      </trkpt>
      <trkpt lat="44.04825" lon="5.24182">
        <ele>951.853</ele>
        <time>2020-09-03T14:01:15Z</time>
      </trkpt>
      <trkpt lat="44.04829" lon="5.24173">
        <ele>951.841</ele>
        <time>2020-09-03T14:01:16Z</time>
      </trkpt>
      <trkpt lat="44.04831" lon="5.24163">
        <ele>951.498</ele>
        <time>2020-09-03T14:01:17Z</time>
      </trkpt>
      <trkpt lat="44.0483" lon="5.24152">
        <ele>950.796</ele>
        <time>2020-09-03T14:01:18Z</time>
      </trkpt>
      <trkpt lat="44.04826" lon="5.24141">
        <ele>949.622</ele>
        <time>2020-09-03T14:01:19Z</time>
      </trkpt>
      <trkpt lat="44.04819" lon="5.24132">
        <ele>948.608</ele>
        <time>2020-09-03T14:01:20Z</time>
      </trkpt>
      <trkpt lat="44.04811" lon="5.24125">
        <ele>948.238</ele>
        <time>2020-09-03T14:01:21Z</time>
      </trkpt>
      <trkpt lat="44.04793" lon="5.24119">
        <ele>948.138</ele>
        <time>2020-09-03T14:01:23Z</time>
      </trkpt>
      <trkpt lat="44.04793" lon="5.24119">
        <ele>948.144</ele>
        <time>2020-09-03T14:01:23Z</time>
      </trkpt>
      <trkpt lat="44.04774" lon="5.24121">
        <ele>947.837</ele>
        <time>2020-09-03T14:01:25Z</time>
      </trkpt>
      <trkpt lat="44.04764" lon="5.24125">
        <ele>947.365</ele>
        <time>2020-09-03T14:01:26Z</time>
      </trkpt>
      <trkpt lat="44.04754" lon="5.24129">
        <ele>946.782</ele>
        <time>2020-09-03T14:01:27Z</time>
      </trkpt>
      <trkpt lat="44.04744" lon="5.24135">
        <ele>946.55</ele>
        <time>2020-09-03T14:01:28Z</time>
      </trkpt>
      <trkpt lat="44.04733" lon="5.24139">
        <ele>946.664</ele>
        <time>2020-09-03T14:01:29Z</time>
      </trkpt>
      <trkpt lat="44.04723" lon="5.24142">
        <ele>947.092</ele>
        <time>2020-09-03T14:01:30Z</time>
      </trkpt>
      <trkpt lat="44.04713" lon="5.24144">
        <ele>947.683</ele>
        <time>2020-09-03T14:01:31Z</time>
      </trkpt>
      <trkpt lat="44.04703" lon="5.24146">
        <ele>948.214</ele>
        <time>2020-09-03T14:01:32Z</time>
      </trkpt>
      <trkpt lat="44.04693" lon="5.2415">
        <ele>948.669</ele>
        <time>2020-09-03T14:01:33Z</time>
      </trkpt>
      <trkpt lat="44.04685" lon="5.24157">
        <ele>949.207</ele>
        <time>2020-09-03T14:01:34Z</time>
      </trkpt>
      <trkpt lat="44.04676" lon="5.24166">
        <ele>949.621</ele>
        <time>2020-09-03T14:01:35Z</time>
      </trkpt>
      <trkpt lat="44.04669" lon="5.24177">
        <ele>949.97</ele>
        <time>2020-09-03T14:01:36Z</time>
      </trkpt>
      <trkpt lat="44.04664" lon="5.2419">
        <ele>950.328</ele>
        <time>2020-09-03T14:01:37Z</time>
      </trkpt>
      <trkpt lat="44.0466" lon="5.24204">
        <ele>950.851</ele>
        <time>2020-09-03T14:01:38Z</time>
      </trkpt>
      <trkpt lat="44.04659" lon="5.24219">
        <ele>951.225</ele>
        <time>2020-09-03T14:01:39Z</time>
      </trkpt>
      <trkpt lat="44.04658" lon="5.24233">
        <ele>951.634</ele>
        <time>2020-09-03T14:01:40Z</time>
      </trkpt>
      <trkpt lat="44.04658" lon="5.24247">
        <ele>951.947</ele>
        <time>2020-09-03T14:01:41Z</time>
      </trkpt>
      <trkpt lat="44.04658" lon="5.24247">
        <ele>952.182</ele>
        <time>2020-09-03T14:01:41Z</time>
      </trkpt>
      <trkpt lat="44.0466" lon="5.24273">
        <ele>952.537</ele>
        <time>2020-09-03T14:01:43Z</time>
      </trkpt>
      <trkpt lat="44.04671" lon="5.24288">
        <ele>952.902</ele>
        <time>2020-09-03T14:01:45Z</time>
      </trkpt>
      <trkpt lat="44.0468" lon="5.24289">
        <ele>953.256</ele>
        <time>2020-09-03T14:01:46Z</time>
      </trkpt>
      <trkpt lat="44.04687" lon="5.24284">
        <ele>953.527</ele>
        <time>2020-09-03T14:01:47Z</time>
      </trkpt>
      <trkpt lat="44.04691" lon="5.24277">
        <ele>953.829</ele>
        <time>2020-09-03T14:01:48Z</time>
      </trkpt>
      <trkpt lat="44.04694" lon="5.24268">
        <ele>954.207</ele>
        <time>2020-09-03T14:01:49Z</time>
      </trkpt>
      <trkpt lat="44.04694" lon="5.24257">
        <ele>954.455</ele>
        <time>2020-09-03T14:01:50Z</time>
      </trkpt>
      <trkpt lat="44.04691" lon="5.24248">
        <ele>954.565</ele>
        <time>2020-09-03T14:01:51Z</time>
      </trkpt>
      <trkpt lat="44.04691" lon="5.24248">
        <ele>954.604</ele>
        <time>2020-09-03T14:01:51Z</time>
      </trkpt>
      <trkpt lat="44.04677" lon="5.24237">
        <ele>954.755</ele>
        <time>2020-09-03T14:01:53Z</time>
      </trkpt>
      <trkpt lat="44.04668" lon="5.24235">
        <ele>954.975</ele>
        <time>2020-09-03T14:01:54Z</time>
      </trkpt>
      <trkpt lat="44.0466" lon="5.24237">
        <ele>955.225</ele>
        <time>2020-09-03T14:01:55Z</time>
      </trkpt>
      <trkpt lat="44.04651" lon="5.24242">
        <ele>955.499</ele>
        <time>2020-09-03T14:01:56Z</time>
      </trkpt>
      <trkpt lat="44.04643" lon="5.24249">
        <ele>955.706</ele>
        <time>2020-09-03T14:01:57Z</time>
      </trkpt>
      <trkpt lat="44.04636" lon="5.24257">
        <ele>955.849</ele>
        <time>2020-09-03T14:01:58Z</time>
      </trkpt>
      <trkpt lat="44.04628" lon="5.24266">
        <ele>955.859</ele>
        <time>2020-09-03T14:01:59Z</time>
      </trkpt>
      <trkpt lat="44.04622" lon="5.24277">
        <ele>955.821</ele>
        <time>2020-09-03T14:02:00Z</time>
      </trkpt>
      <trkpt lat="44.04617" lon="5.24288">
        <ele>955.898</ele>
        <time>2020-09-03T14:02:01Z</time>
      </trkpt>
      <trkpt lat="44.04613" lon="5.24299">
        <ele>955.964</ele>
        <time>2020-09-03T14:02:02Z</time>
      </trkpt>
      <trkpt lat="44.04609" lon="5.24311">
        <ele>955.915</ele>
        <time>2020-09-03T14:02:03Z</time>
      </trkpt>
      <trkpt lat="44.04605" lon="5.24323">
        <ele>955.552</ele>
        <time>2020-09-03T14:02:04Z</time>
      </trkpt>
      <trkpt lat="44.04605" lon="5.24323">
        <ele>955.082</ele>
        <time>2020-09-03T14:02:04Z</time>
      </trkpt>
      <trkpt lat="44.04593" lon="5.24358">
        <ele>954.532</ele>
        <time>2020-09-03T14:02:07Z</time>
      </trkpt>
      <trkpt lat="44.04586" lon="5.24367">
        <ele>953.939</ele>
        <time>2020-09-03T14:02:08Z</time>
      </trkpt>
      <trkpt lat="44.04576" lon="5.24374">
        <ele>953.249</ele>
        <time>2020-09-03T14:02:09Z</time>
      </trkpt>
      <trkpt lat="44.04566" lon="5.24379">
        <ele>952.583</ele>
        <time>2020-09-03T14:02:10Z</time>
      </trkpt>
      <trkpt lat="44.04555" lon="5.24384">
        <ele>952.281</ele>
        <time>2020-09-03T14:02:11Z</time>
      </trkpt>
      <trkpt lat="44.04544" lon="5.2439">
        <ele>952.307</ele>
        <time>2020-09-03T14:02:12Z</time>
      </trkpt>
      <trkpt lat="44.04534" lon="5.24396">
        <ele>952.735</ele>
        <time>2020-09-03T14:02:13Z</time>
      </trkpt>
      <trkpt lat="44.04524" lon="5.24402">
        <ele>953.563</ele>
        <time>2020-09-03T14:02:14Z</time>
      </trkpt>
      <trkpt lat="44.04506" lon="5.24415">
        <ele>955.008</ele>
        <time>2020-09-03T14:02:16Z</time>
      </trkpt>
      <trkpt lat="44.04497" lon="5.2442">
        <ele>956.377</ele>
        <time>2020-09-03T14:02:17Z</time>
      </trkpt>
      <trkpt lat="44.0449" lon="5.24426">
        <ele>957.58</ele>
        <time>2020-09-03T14:02:18Z</time>
      </trkpt>
      <trkpt lat="44.0449" lon="5.24426">
        <ele>958.599</ele>
        <time>2020-09-03T14:02:18Z</time>
      </trkpt>
      <trkpt lat="44.04479" lon="5.24442">
        <ele>959.107</ele>
        <time>2020-09-03T14:02:20Z</time>
      </trkpt>
      <trkpt lat="44.04476" lon="5.24452">
        <ele>959.139</ele>
        <time>2020-09-03T14:02:21Z</time>
      </trkpt>
      <trkpt lat="44.04476" lon="5.24463">
        <ele>958.749</ele>
        <time>2020-09-03T14:02:22Z</time>
      </trkpt>
      <trkpt lat="44.04478" lon="5.24473">
        <ele>957.871</ele>
        <time>2020-09-03T14:02:23Z</time>
      </trkpt>
      <trkpt lat="44.04483" lon="5.2448">
        <ele>956.53</ele>
        <time>2020-09-03T14:02:24Z</time>
      </trkpt>
      <trkpt lat="44.04491" lon="5.24484">
        <ele>954.993</ele>
        <time>2020-09-03T14:02:25Z</time>
      </trkpt>
      <trkpt lat="44.04499" lon="5.24482">
        <ele>953.836</ele>
        <time>2020-09-03T14:02:26Z</time>
      </trkpt>
      <trkpt lat="44.04507" lon="5.24477">
        <ele>953.08</ele>
        <time>2020-09-03T14:02:27Z</time>
      </trkpt>
      <trkpt lat="44.04513" lon="5.24471">
        <ele>952.662</ele>
        <time>2020-09-03T14:02:28Z</time>
      </trkpt>
      <trkpt lat="44.04516" lon="5.24461">
        <ele>952.745</ele>
        <time>2020-09-03T14:02:29Z</time>
      </trkpt>
      <trkpt lat="44.04518" lon="5.24451">
        <ele>953.196</ele>
        <time>2020-09-03T14:02:30Z</time>
      </trkpt>
      <trkpt lat="44.04519" lon="5.24441">
        <ele>953.912</ele>
        <time>2020-09-03T14:02:31Z</time>
      </trkpt>
      <trkpt lat="44.04518" lon="5.2443">
        <ele>954.695</ele>
        <time>2020-09-03T14:02:32Z</time>
      </trkpt>
      <trkpt lat="44.04516" lon="5.2442">
        <ele>955.208</ele>
        <time>2020-09-03T14:02:33Z</time>
      </trkpt>
      <trkpt lat="44.04513" lon="5.24411">
        <ele>955.646</ele>
        <time>2020-09-03T14:02:34Z</time>
      </trkpt>
      <trkpt lat="44.04513" lon="5.24411">
        <ele>955.683</ele>
        <time>2020-09-03T14:02:34Z</time>
      </trkpt>
      <trkpt lat="44.04496" lon="5.24388">
        <ele>955.189</ele>
        <time>2020-09-03T14:02:37Z</time>
      </trkpt>
      <trkpt lat="44.04487" lon="5.24386">
        <ele>954.205</ele>
        <time>2020-09-03T14:02:38Z</time>
      </trkpt>
      <trkpt lat="44.04476" lon="5.24384">
        <ele>953.205</ele>
        <time>2020-09-03T14:02:39Z</time>
      </trkpt>
      <trkpt lat="44.04466" lon="5.24385">
        <ele>952.397</ele>
        <time>2020-09-03T14:02:40Z</time>
      </trkpt>
      <trkpt lat="44.04456" lon="5.24387">
        <ele>951.735</ele>
        <time>2020-09-03T14:02:41Z</time>
      </trkpt>
      <trkpt lat="44.04447" lon="5.24391">
        <ele>951.704</ele>
        <time>2020-09-03T14:02:42Z</time>
      </trkpt>
      <trkpt lat="44.04439" lon="5.24396">
        <ele>952.021</ele>
        <time>2020-09-03T14:02:43Z</time>
      </trkpt>
      <trkpt lat="44.04432" lon="5.24402">
        <ele>952.403</ele>
        <time>2020-09-03T14:02:44Z</time>
      </trkpt>
      <trkpt lat="44.04426" lon="5.24409">
        <ele>952.604</ele>
        <time>2020-09-03T14:02:45Z</time>
      </trkpt>
      <trkpt lat="44.0442" lon="5.24416">
        <ele>952.358</ele>
        <time>2020-09-03T14:02:46Z</time>
      </trkpt>
      <trkpt lat="44.04415" lon="5.24426">
        <ele>951.724</ele>
        <time>2020-09-03T14:02:47Z</time>
      </trkpt>
      <trkpt lat="44.0441" lon="5.24437">
        <ele>950.854</ele>
        <time>2020-09-03T14:02:48Z</time>
      </trkpt>
      <trkpt lat="44.04408" lon="5.24449">
        <ele>950.166</ele>
        <time>2020-09-03T14:02:49Z</time>
      </trkpt>
      <trkpt lat="44.04408" lon="5.24461">
        <ele>949.074</ele>
        <time>2020-09-03T14:02:50Z</time>
      </trkpt>
      <trkpt lat="44.04409" lon="5.24472">
        <ele>948.262</ele>
        <time>2020-09-03T14:02:51Z</time>
      </trkpt>
      <trkpt lat="44.04412" lon="5.24482">
        <ele>947.63</ele>
        <time>2020-09-03T14:02:52Z</time>
      </trkpt>
      <trkpt lat="44.04417" lon="5.24492">
        <ele>947.282</ele>
        <time>2020-09-03T14:02:53Z</time>
      </trkpt>
      <trkpt lat="44.04422" lon="5.24502">
        <ele>947.3</ele>
        <time>2020-09-03T14:02:54Z</time>
      </trkpt>
      <trkpt lat="44.04426" lon="5.2451">
        <ele>947.456</ele>
        <time>2020-09-03T14:02:55Z</time>
      </trkpt>
      <trkpt lat="44.04426" lon="5.2451">
        <ele>947.429</ele>
        <time>2020-09-03T14:02:55Z</time>
      </trkpt>
      <trkpt lat="44.04426" lon="5.2451">
        <ele>947.103</ele>
        <time>2020-09-03T14:02:55Z</time>
      </trkpt>
      <trkpt lat="44.04426" lon="5.2451">
        <ele>946.42</ele>
        <time>2020-09-03T14:02:55Z</time>
      </trkpt>
      <trkpt lat="44.04439" lon="5.24558">
        <ele>945.247</ele>
        <time>2020-09-03T14:03:00Z</time>
      </trkpt>
      <trkpt lat="44.04446" lon="5.24561">
        <ele>943.389</ele>
        <time>2020-09-03T14:03:01Z</time>
      </trkpt>
      <trkpt lat="44.04454" lon="5.2456">
        <ele>941.335</ele>
        <time>2020-09-03T14:03:02Z</time>
      </trkpt>
      <trkpt lat="44.04461" lon="5.24556">
        <ele>939.501</ele>
        <time>2020-09-03T14:03:03Z</time>
      </trkpt>
      <trkpt lat="44.04468" lon="5.24552">
        <ele>938.137</ele>
        <time>2020-09-03T14:03:04Z</time>
      </trkpt>
      <trkpt lat="44.04472" lon="5.24545">
        <ele>937.147</ele>
        <time>2020-09-03T14:03:05Z</time>
      </trkpt>
      <trkpt lat="44.04476" lon="5.24537">
        <ele>936.197</ele>
        <time>2020-09-03T14:03:06Z</time>
      </trkpt>
      <trkpt lat="44.04476" lon="5.24537">
        <ele>935.106</ele>
        <time>2020-09-03T14:03:06Z</time>
      </trkpt>
      <trkpt lat="44.04476" lon="5.24537">
        <ele>933.801</ele>
        <time>2020-09-03T14:03:06Z</time>
      </trkpt>
      <trkpt lat="44.04479" lon="5.24506">
        <ele>932.48</ele>
        <time>2020-09-03T14:03:09Z</time>
      </trkpt>
      <trkpt lat="44.04477" lon="5.24495">
        <ele>931.085</ele>
        <time>2020-09-03T14:03:10Z</time>
      </trkpt>
      <trkpt lat="44.04477" lon="5.24485">
        <ele>929.641</ele>
        <time>2020-09-03T14:03:11Z</time>
      </trkpt>
      <trkpt lat="44.04476" lon="5.24475">
        <ele>928.141</ele>
        <time>2020-09-03T14:03:12Z</time>
      </trkpt>
      <trkpt lat="44.04473" lon="5.24466">
        <ele>926.308</ele>
        <time>2020-09-03T14:03:13Z</time>
      </trkpt>
      <trkpt lat="44.0447" lon="5.24456">
        <ele>924.367</ele>
        <time>2020-09-03T14:03:14Z</time>
      </trkpt>
      <trkpt lat="44.04466" lon="5.24445">
        <ele>922.186</ele>
        <time>2020-09-03T14:03:15Z</time>
      </trkpt>
      <trkpt lat="44.04459" lon="5.24423">
        <ele>920.953</ele>
        <time>2020-09-03T14:03:17Z</time>
      </trkpt>
      <trkpt lat="44.04457" lon="5.24413">
        <ele>919.278</ele>
        <time>2020-09-03T14:03:18Z</time>
      </trkpt>
      <trkpt lat="44.04457" lon="5.24413">
        <ele>917.47</ele>
        <time>2020-09-03T14:03:18Z</time>
      </trkpt>
      <trkpt lat="44.04449" lon="5.24394">
        <ele>915.585</ele>
        <time>2020-09-03T14:03:20Z</time>
      </trkpt>
      <trkpt lat="44.04444" lon="5.24385">
        <ele>914.216</ele>
        <time>2020-09-03T14:03:21Z</time>
      </trkpt>
      <trkpt lat="44.04437" lon="5.24377">
        <ele>913.726</ele>
        <time>2020-09-03T14:03:22Z</time>
      </trkpt>
      <trkpt lat="44.0443" lon="5.24371">
        <ele>913.886</ele>
        <time>2020-09-03T14:03:23Z</time>
      </trkpt>
      <trkpt lat="44.04423" lon="5.24366">
        <ele>914.482</ele>
        <time>2020-09-03T14:03:24Z</time>
      </trkpt>
      <trkpt lat="44.04415" lon="5.24363">
        <ele>914.932</ele>
        <time>2020-09-03T14:03:25Z</time>
      </trkpt>
      <trkpt lat="44.04407" lon="5.24359">
        <ele>915.118</ele>
        <time>2020-09-03T14:03:26Z</time>
      </trkpt>
      <trkpt lat="44.04398" lon="5.24354">
        <ele>914.87</ele>
        <time>2020-09-03T14:03:27Z</time>
      </trkpt>
      <trkpt lat="44.04389" lon="5.24349">
        <ele>914.551</ele>
        <time>2020-09-03T14:03:28Z</time>
      </trkpt>
      <trkpt lat="44.0438" lon="5.24346">
        <ele>914.595</ele>
        <time>2020-09-03T14:03:29Z</time>
      </trkpt>
      <trkpt lat="44.04371" lon="5.24344">
        <ele>915.121</ele>
        <time>2020-09-03T14:03:30Z</time>
      </trkpt>
      <trkpt lat="44.04371" lon="5.24344">
        <ele>915.815</ele>
        <time>2020-09-03T14:03:30Z</time>
      </trkpt>
      <trkpt lat="44.04345" lon="5.24339">
        <ele>916.154</ele>
        <time>2020-09-03T14:03:33Z</time>
      </trkpt>
      <trkpt lat="44.04345" lon="5.24339">
        <ele>916.011</ele>
        <time>2020-09-03T14:03:33Z</time>
      </trkpt>
      <trkpt lat="44.04328" lon="5.24332">
        <ele>915.649</ele>
        <time>2020-09-03T14:03:35Z</time>
      </trkpt>
      <trkpt lat="44.04319" lon="5.24328">
        <ele>915.179</ele>
        <time>2020-09-03T14:03:36Z</time>
      </trkpt>
      <trkpt lat="44.04311" lon="5.24325">
        <ele>914.862</ele>
        <time>2020-09-03T14:03:37Z</time>
      </trkpt>
      <trkpt lat="44.04302" lon="5.24323">
        <ele>914.546</ele>
        <time>2020-09-03T14:03:38Z</time>
      </trkpt>
      <trkpt lat="44.04302" lon="5.24323">
        <ele>914.146</ele>
        <time>2020-09-03T14:03:38Z</time>
      </trkpt>
      <trkpt lat="44.04286" lon="5.2432">
        <ele>913.522</ele>
        <time>2020-09-03T14:03:40Z</time>
      </trkpt>
      <trkpt lat="44.04278" lon="5.24317">
        <ele>912.916</ele>
        <time>2020-09-03T14:03:41Z</time>
      </trkpt>
      <trkpt lat="44.04271" lon="5.24314">
        <ele>912.257</ele>
        <time>2020-09-03T14:03:42Z</time>
      </trkpt>
      <trkpt lat="44.04265" lon="5.24311">
        <ele>911.633</ele>
        <time>2020-09-03T14:03:43Z</time>
      </trkpt>
      <trkpt lat="44.04265" lon="5.24311">
        <ele>911.026</ele>
        <time>2020-09-03T14:03:43Z</time>
      </trkpt>
      <trkpt lat="44.04253" lon="5.24306">
        <ele>910.569</ele>
        <time>2020-09-03T14:03:45Z</time>
      </trkpt>
      <trkpt lat="44.04247" lon="5.24303">
        <ele>909.335</ele>
        <time>2020-09-03T14:03:46Z</time>
      </trkpt>
      <trkpt lat="44.04241" lon="5.24298">
        <ele>908.086</ele>
        <time>2020-09-03T14:03:47Z</time>
      </trkpt>
      <trkpt lat="44.04235" lon="5.24294">
        <ele>907.309</ele>
        <time>2020-09-03T14:03:48Z</time>
      </trkpt>
      <trkpt lat="44.04229" lon="5.24291">
        <ele>906.893</ele>
        <time>2020-09-03T14:03:49Z</time>
      </trkpt>
      <trkpt lat="44.04223" lon="5.24288">
        <ele>906.85</ele>
        <time>2020-09-03T14:03:50Z</time>
      </trkpt>
      <trkpt lat="44.04216" lon="5.24285">
        <ele>906.862</ele>
        <time>2020-09-03T14:03:51Z</time>
      </trkpt>
      <trkpt lat="44.04209" lon="5.24283">
        <ele>906.611</ele>
        <time>2020-09-03T14:03:52Z</time>
      </trkpt>
      <trkpt lat="44.04209" lon="5.24283">
        <ele>906.33</ele>
        <time>2020-09-03T14:03:52Z</time>
      </trkpt>
      <trkpt lat="44.0419" lon="5.24268">
        <ele>905.9</ele>
        <time>2020-09-03T14:03:55Z</time>
      </trkpt>
      <trkpt lat="44.04184" lon="5.24263">
        <ele>905.368</ele>
        <time>2020-09-03T14:03:56Z</time>
      </trkpt>
      <trkpt lat="44.04178" lon="5.24259">
        <ele>904.679</ele>
        <time>2020-09-03T14:03:57Z</time>
      </trkpt>
      <trkpt lat="44.04172" lon="5.24254">
        <ele>903.668</ele>
        <time>2020-09-03T14:03:58Z</time>
      </trkpt>
      <trkpt lat="44.04164" lon="5.24249">
        <ele>902.65</ele>
        <time>2020-09-03T14:03:59Z</time>
      </trkpt>
      <trkpt lat="44.04157" lon="5.24243">
        <ele>901.453</ele>
        <time>2020-09-03T14:04:00Z</time>
      </trkpt>
      <trkpt lat="44.04149" lon="5.24237">
        <ele>900.478</ele>
        <time>2020-09-03T14:04:01Z</time>
      </trkpt>
      <trkpt lat="44.04141" lon="5.24232">
        <ele>899.532</ele>
        <time>2020-09-03T14:04:02Z</time>
      </trkpt>
      <trkpt lat="44.04133" lon="5.24227">
        <ele>898.88</ele>
        <time>2020-09-03T14:04:03Z</time>
      </trkpt>
      <trkpt lat="44.04126" lon="5.24222">
        <ele>898.446</ele>
        <time>2020-09-03T14:04:04Z</time>
      </trkpt>
      <trkpt lat="44.04119" lon="5.24217">
        <ele>897.996</ele>
        <time>2020-09-03T14:04:05Z</time>
      </trkpt>
      <trkpt lat="44.04112" lon="5.24211">
        <ele>897.642</ele>
        <time>2020-09-03T14:04:06Z</time>
      </trkpt>
      <trkpt lat="44.04106" lon="5.24205">
        <ele>897.397</ele>
        <time>2020-09-03T14:04:07Z</time>
      </trkpt>
      <trkpt lat="44.04099" lon="5.242">
        <ele>897.049</ele>
        <time>2020-09-03T14:04:08Z</time>
      </trkpt>
      <trkpt lat="44.04091" lon="5.24196">
        <ele>896.565</ele>
        <time>2020-09-03T14:04:09Z</time>
      </trkpt>
      <trkpt lat="44.04084" lon="5.24192">
        <ele>895.862</ele>
        <time>2020-09-03T14:04:10Z</time>
      </trkpt>
      <trkpt lat="44.04077" lon="5.24188">
        <ele>895.029</ele>
        <time>2020-09-03T14:04:11Z</time>
      </trkpt>
      <trkpt lat="44.04069" lon="5.24182">
        <ele>894.22</ele>
        <time>2020-09-03T14:04:12Z</time>
      </trkpt>
      <trkpt lat="44.04069" lon="5.24182">
        <ele>894.116</ele>
        <time>2020-09-03T14:04:12Z</time>
      </trkpt>
      <trkpt lat="44.04054" lon="5.24172">
        <ele>894.792</ele>
        <time>2020-09-03T14:04:14Z</time>
      </trkpt>
      <trkpt lat="44.0404" lon="5.24167">
        <ele>895.935</ele>
        <time>2020-09-03T14:04:16Z</time>
      </trkpt>
      <trkpt lat="44.04034" lon="5.24164">
        <ele>896.65</ele>
        <time>2020-09-03T14:04:17Z</time>
      </trkpt>
      <trkpt lat="44.04028" lon="5.24161">
        <ele>896.789</ele>
        <time>2020-09-03T14:04:18Z</time>
      </trkpt>
      <trkpt lat="44.04021" lon="5.24156">
        <ele>896.465</ele>
        <time>2020-09-03T14:04:19Z</time>
      </trkpt>
      <trkpt lat="44.04015" lon="5.24151">
        <ele>896.143</ele>
        <time>2020-09-03T14:04:20Z</time>
      </trkpt>
      <trkpt lat="44.04008" lon="5.24147">
        <ele>896.449</ele>
        <time>2020-09-03T14:04:21Z</time>
      </trkpt>
      <trkpt lat="44.04002" lon="5.24144">
        <ele>896.999</ele>
        <time>2020-09-03T14:04:22Z</time>
      </trkpt>
      <trkpt lat="44.03997" lon="5.2414">
        <ele>897.17</ele>
        <time>2020-09-03T14:04:23Z</time>
      </trkpt>
      <trkpt lat="44.03992" lon="5.24136">
        <ele>896.885</ele>
        <time>2020-09-03T14:04:24Z</time>
      </trkpt>
      <trkpt lat="44.03986" lon="5.24132">
        <ele>896.532</ele>
        <time>2020-09-03T14:04:25Z</time>
      </trkpt>
      <trkpt lat="44.0398" lon="5.24128">
        <ele>895.924</ele>
        <time>2020-09-03T14:04:26Z</time>
      </trkpt>
      <trkpt lat="44.03968" lon="5.24119">
        <ele>895.133</ele>
        <time>2020-09-03T14:04:28Z</time>
      </trkpt>
      <trkpt lat="44.03968" lon="5.24119">
        <ele>894.243</ele>
        <time>2020-09-03T14:04:28Z</time>
      </trkpt>
      <trkpt lat="44.03956" lon="5.2411">
        <ele>893.125</ele>
        <time>2020-09-03T14:04:30Z</time>
      </trkpt>
      <trkpt lat="44.0395" lon="5.24105">
        <ele>891.834</ele>
        <time>2020-09-03T14:04:31Z</time>
      </trkpt>
      <trkpt lat="44.03943" lon="5.241">
        <ele>890.793</ele>
        <time>2020-09-03T14:04:32Z</time>
      </trkpt>
      <trkpt lat="44.03936" lon="5.24095">
        <ele>890.279</ele>
        <time>2020-09-03T14:04:33Z</time>
      </trkpt>
      <trkpt lat="44.03936" lon="5.24095">
        <ele>890.447</ele>
        <time>2020-09-03T14:04:33Z</time>
      </trkpt>
      <trkpt lat="44.03923" lon="5.24085">
        <ele>891.079</ele>
        <time>2020-09-03T14:04:35Z</time>
      </trkpt>
      <trkpt lat="44.03918" lon="5.24079">
        <ele>891.668</ele>
        <time>2020-09-03T14:04:36Z</time>
      </trkpt>
      <trkpt lat="44.03912" lon="5.24072">
        <ele>892.215</ele>
        <time>2020-09-03T14:04:37Z</time>
      </trkpt>
      <trkpt lat="44.03907" lon="5.24064">
        <ele>892.882</ele>
        <time>2020-09-03T14:04:38Z</time>
      </trkpt>
      <trkpt lat="44.03902" lon="5.24057">
        <ele>893.997</ele>
        <time>2020-09-03T14:04:39Z</time>
      </trkpt>
      <trkpt lat="44.03896" lon="5.24051">
        <ele>895.447</ele>
        <time>2020-09-03T14:04:40Z</time>
      </trkpt>
      <trkpt lat="44.03891" lon="5.24046">
        <ele>896.362</ele>
        <time>2020-09-03T14:04:41Z</time>
      </trkpt>
      <trkpt lat="44.03886" lon="5.24041">
        <ele>897.935</ele>
        <time>2020-09-03T14:04:42Z</time>
      </trkpt>
      <trkpt lat="44.0388" lon="5.24038">
        <ele>899.585</ele>
        <time>2020-09-03T14:04:43Z</time>
      </trkpt>
      <trkpt lat="44.03873" lon="5.24037">
        <ele>901.548</ele>
        <time>2020-09-03T14:04:44Z</time>
      </trkpt>
      <trkpt lat="44.03866" lon="5.24039">
        <ele>903.004</ele>
        <time>2020-09-03T14:04:45Z</time>
      </trkpt>
      <trkpt lat="44.03855" lon="5.24056">
        <ele>903.924</ele>
        <time>2020-09-03T14:04:47Z</time>
      </trkpt>
      <trkpt lat="44.03851" lon="5.2407">
        <ele>904.622</ele>
        <time>2020-09-03T14:04:48Z</time>
      </trkpt>
      <trkpt lat="44.0385" lon="5.24086">
        <ele>904.84</ele>
        <time>2020-09-03T14:04:49Z</time>
      </trkpt>
      <trkpt lat="44.03851" lon="5.24101">
        <ele>904.955</ele>
        <time>2020-09-03T14:04:50Z</time>
      </trkpt>
      <trkpt lat="44.03855" lon="5.24116">
        <ele>905.264</ele>
        <time>2020-09-03T14:04:51Z</time>
      </trkpt>
      <trkpt lat="44.03863" lon="5.24124">
        <ele>905.783</ele>
        <time>2020-09-03T14:04:52Z</time>
      </trkpt>
      <trkpt lat="44.03871" lon="5.2413">
        <ele>906.574</ele>
        <time>2020-09-03T14:04:53Z</time>
      </trkpt>
      <trkpt lat="44.0388" lon="5.24132">
        <ele>907.241</ele>
        <time>2020-09-03T14:04:54Z</time>
      </trkpt>
      <trkpt lat="44.03887" lon="5.2413">
        <ele>907.819</ele>
        <time>2020-09-03T14:04:55Z</time>
      </trkpt>
      <trkpt lat="44.03893" lon="5.24124">
        <ele>908.111</ele>
        <time>2020-09-03T14:04:56Z</time>
      </trkpt>
      <trkpt lat="44.03899" lon="5.24117">
        <ele>908.455</ele>
        <time>2020-09-03T14:04:57Z</time>
      </trkpt>
      <trkpt lat="44.03903" lon="5.24108">
        <ele>908.833</ele>
        <time>2020-09-03T14:04:58Z</time>
      </trkpt>
      <trkpt lat="44.03904" lon="5.241">
        <ele>909.432</ele>
        <time>2020-09-03T14:04:59Z</time>
      </trkpt>
      <trkpt lat="44.03905" lon="5.2409">
        <ele>910.051</ele>
        <time>2020-09-03T14:05:00Z</time>
      </trkpt>
      <trkpt lat="44.03905" lon="5.24081">
        <ele>911.007</ele>
        <time>2020-09-03T14:05:01Z</time>
      </trkpt>
      <trkpt lat="44.03906" lon="5.24072">
        <ele>912.047</ele>
        <time>2020-09-03T14:05:02Z</time>
      </trkpt>
      <trkpt lat="44.03907" lon="5.24064">
        <ele>913.01</ele>
        <time>2020-09-03T14:05:03Z</time>
      </trkpt>
      <trkpt lat="44.03908" lon="5.24056">
        <ele>914.204</ele>
        <time>2020-09-03T14:05:04Z</time>
      </trkpt>
      <trkpt lat="44.0391" lon="5.24048">
        <ele>915.489</ele>
        <time>2020-09-03T14:05:05Z</time>
      </trkpt>
      <trkpt lat="44.03915" lon="5.24032">
        <ele>916.975</ele>
        <time>2020-09-03T14:05:07Z</time>
      </trkpt>
      <trkpt lat="44.03918" lon="5.24024">
        <ele>918.359</ele>
        <time>2020-09-03T14:05:08Z</time>
      </trkpt>
      <trkpt lat="44.03921" lon="5.24016">
        <ele>919.845</ele>
        <time>2020-09-03T14:05:09Z</time>
      </trkpt>
      <trkpt lat="44.03922" lon="5.24007">
        <ele>920.568</ele>
        <time>2020-09-03T14:05:10Z</time>
      </trkpt>
      <trkpt lat="44.03922" lon="5.23998">
        <ele>922.322</ele>
        <time>2020-09-03T14:05:11Z</time>
      </trkpt>
      <trkpt lat="44.0392" lon="5.23989">
        <ele>924.253</ele>
        <time>2020-09-03T14:05:12Z</time>
      </trkpt>
      <trkpt lat="44.03915" lon="5.23983">
        <ele>925.613</ele>
        <time>2020-09-03T14:05:13Z</time>
      </trkpt>
      <trkpt lat="44.03908" lon="5.23982">
        <ele>926.634</ele>
        <time>2020-09-03T14:05:14Z</time>
      </trkpt>
      <trkpt lat="44.03891" lon="5.23997">
        <ele>927.395</ele>
        <time>2020-09-03T14:05:16Z</time>
      </trkpt>
      <trkpt lat="44.03884" lon="5.24012">
        <ele>928.378</ele>
        <time>2020-09-03T14:05:17Z</time>
      </trkpt>
      <trkpt lat="44.0388" lon="5.24029">
        <ele>929.511</ele>
        <time>2020-09-03T14:05:18Z</time>
      </trkpt>
      <trkpt lat="44.0388" lon="5.24029">
        <ele>930.887</ele>
        <time>2020-09-03T14:05:18Z</time>
      </trkpt>
      <trkpt lat="44.03881" lon="5.24058">
        <ele>932.473</ele>
        <time>2020-09-03T14:05:20Z</time>
      </trkpt>
      <trkpt lat="44.03885" lon="5.24069">
        <ele>933.837</ele>
        <time>2020-09-03T14:05:21Z</time>
      </trkpt>
      <trkpt lat="44.03891" lon="5.24078">
        <ele>934.897</ele>
        <time>2020-09-03T14:05:22Z</time>
      </trkpt>
      <trkpt lat="44.03899" lon="5.24084">
        <ele>935.605</ele>
        <time>2020-09-03T14:05:23Z</time>
      </trkpt>
      <trkpt lat="44.03899" lon="5.24084">
        <ele>936.018</ele>
        <time>2020-09-03T14:05:23Z</time>
      </trkpt>
      <trkpt lat="44.03917" lon="5.24088">
        <ele>936.355</ele>
        <time>2020-09-03T14:05:25Z</time>
      </trkpt>
      <trkpt lat="44.03925" lon="5.24084">
        <ele>936.749</ele>
        <time>2020-09-03T14:05:26Z</time>
      </trkpt>
      <trkpt lat="44.03931" lon="5.2408">
        <ele>937.412</ele>
        <time>2020-09-03T14:05:27Z</time>
      </trkpt>
      <trkpt lat="44.03937" lon="5.24074">
        <ele>938.235</ele>
        <time>2020-09-03T14:05:28Z</time>
      </trkpt>
      <trkpt lat="44.03942" lon="5.24066">
        <ele>939.193</ele>
        <time>2020-09-03T14:05:29Z</time>
      </trkpt>
      <trkpt lat="44.03947" lon="5.24059">
        <ele>940.386</ele>
        <time>2020-09-03T14:05:30Z</time>
      </trkpt>
      <trkpt lat="44.03952" lon="5.24051">
        <ele>941.433</ele>
        <time>2020-09-03T14:05:31Z</time>
      </trkpt>
      <trkpt lat="44.03956" lon="5.24042">
        <ele>942.779</ele>
        <time>2020-09-03T14:05:32Z</time>
      </trkpt>
      <trkpt lat="44.0396" lon="5.24034">
        <ele>943.972</ele>
        <time>2020-09-03T14:05:33Z</time>
      </trkpt>
      <trkpt lat="44.03964" lon="5.24025">
        <ele>944.646</ele>
        <time>2020-09-03T14:05:34Z</time>
      </trkpt>
      <trkpt lat="44.03968" lon="5.24015">
        <ele>944.68</ele>
        <time>2020-09-03T14:05:35Z</time>
      </trkpt>
      <trkpt lat="44.03968" lon="5.24015">
        <ele>944.004</ele>
        <time>2020-09-03T14:05:35Z</time>
      </trkpt>
      <trkpt lat="44.03968" lon="5.23989">
        <ele>943.145</ele>
        <time>2020-09-03T14:05:38Z</time>
      </trkpt>
      <trkpt lat="44.03968" lon="5.23989">
        <ele>942.334</ele>
        <time>2020-09-03T14:05:38Z</time>
      </trkpt>
      <trkpt lat="44.03965" lon="5.23972">
        <ele>939.911</ele>
        <time>2020-09-03T14:05:40Z</time>
      </trkpt>
      <trkpt lat="44.03961" lon="5.23964">
        <ele>936.874</ele>
        <time>2020-09-03T14:05:41Z</time>
      </trkpt>
      <trkpt lat="44.03955" lon="5.23957">
        <ele>934.503</ele>
        <time>2020-09-03T14:05:42Z</time>
      </trkpt>
      <trkpt lat="44.03947" lon="5.23952">
        <ele>932.617</ele>
        <time>2020-09-03T14:05:43Z</time>
      </trkpt>
      <trkpt lat="44.03937" lon="5.23949">
        <ele>931.503</ele>
        <time>2020-09-03T14:05:44Z</time>
      </trkpt>
      <trkpt lat="44.03926" lon="5.23948">
        <ele>931.318</ele>
        <time>2020-09-03T14:05:45Z</time>
      </trkpt>
      <trkpt lat="44.03918" lon="5.23951">
        <ele>931.721</ele>
        <time>2020-09-03T14:05:46Z</time>
      </trkpt>
      <trkpt lat="44.03911" lon="5.23955">
        <ele>932.419</ele>
        <time>2020-09-03T14:05:47Z</time>
      </trkpt>
      <trkpt lat="44.03905" lon="5.23962">
        <ele>933.168</ele>
        <time>2020-09-03T14:05:48Z</time>
      </trkpt>
      <trkpt lat="44.03898" lon="5.2397">
        <ele>933.941</ele>
        <time>2020-09-03T14:05:49Z</time>
      </trkpt>
      <trkpt lat="44.03891" lon="5.23979">
        <ele>934.936</ele>
        <time>2020-09-03T14:05:50Z</time>
      </trkpt>
      <trkpt lat="44.03882" lon="5.23987">
        <ele>936.194</ele>
        <time>2020-09-03T14:05:51Z</time>
      </trkpt>
      <trkpt lat="44.03874" lon="5.23993">
        <ele>937.619</ele>
        <time>2020-09-03T14:05:52Z</time>
      </trkpt>
      <trkpt lat="44.03866" lon="5.23998">
        <ele>938.97</ele>
        <time>2020-09-03T14:05:53Z</time>
      </trkpt>
      <trkpt lat="44.03859" lon="5.24003">
        <ele>940.346</ele>
        <time>2020-09-03T14:05:54Z</time>
      </trkpt>
      <trkpt lat="44.03851" lon="5.24007">
        <ele>941.161</ele>
        <time>2020-09-03T14:05:55Z</time>
      </trkpt>
      <trkpt lat="44.03851" lon="5.24007">
        <ele>941.709</ele>
        <time>2020-09-03T14:05:55Z</time>
      </trkpt>
      <trkpt lat="44.03827" lon="5.24008">
        <ele>941.862</ele>
        <time>2020-09-03T14:05:58Z</time>
      </trkpt>
      <trkpt lat="44.03822" lon="5.24003">
        <ele>942.099</ele>
        <time>2020-09-03T14:05:59Z</time>
      </trkpt>
      <trkpt lat="44.03818" lon="5.23997">
        <ele>942.646</ele>
        <time>2020-09-03T14:06:00Z</time>
      </trkpt>
      <trkpt lat="44.03815" lon="5.23991">
        <ele>943.756</ele>
        <time>2020-09-03T14:06:01Z</time>
      </trkpt>
      <trkpt lat="44.03812" lon="5.23986">
        <ele>945.291</ele>
        <time>2020-09-03T14:06:02Z</time>
      </trkpt>
      <trkpt lat="44.03808" lon="5.23982">
        <ele>947.252</ele>
        <time>2020-09-03T14:06:03Z</time>
      </trkpt>
      <trkpt lat="44.03802" lon="5.23978">
        <ele>948.668</ele>
        <time>2020-09-03T14:06:04Z</time>
      </trkpt>
      <trkpt lat="44.03796" lon="5.23974">
        <ele>949.933</ele>
        <time>2020-09-03T14:06:05Z</time>
      </trkpt>
      <trkpt lat="44.03796" lon="5.23974">
        <ele>951.134</ele>
        <time>2020-09-03T14:06:05Z</time>
      </trkpt>
      <trkpt lat="44.03796" lon="5.23974">
        <ele>951.571</ele>
        <time>2020-09-03T14:06:05Z</time>
      </trkpt>
      <trkpt lat="44.03788" lon="5.23955">
        <ele>952.107</ele>
        <time>2020-09-03T14:06:08Z</time>
      </trkpt>
      <trkpt lat="44.03791" lon="5.23951">
        <ele>952.33</ele>
        <time>2020-09-03T14:06:09Z</time>
      </trkpt>
      <trkpt lat="44.03796" lon="5.23951">
        <ele>952.262</ele>
        <time>2020-09-03T14:06:10Z</time>
      </trkpt>
      <trkpt lat="44.03802" lon="5.23957">
        <ele>952.083</ele>
        <time>2020-09-03T14:06:11Z</time>
      </trkpt>
      <trkpt lat="44.03809" lon="5.23966">
        <ele>952.052</ele>
        <time>2020-09-03T14:06:12Z</time>
      </trkpt>
      <trkpt lat="44.03814" lon="5.23978">
        <ele>952.216</ele>
        <time>2020-09-03T14:06:13Z</time>
      </trkpt>
      <trkpt lat="44.03817" lon="5.23992">
        <ele>952.445</ele>
        <time>2020-09-03T14:06:14Z</time>
      </trkpt>
      <trkpt lat="44.03816" lon="5.24022">
        <ele>952.604</ele>
        <time>2020-09-03T14:06:16Z</time>
      </trkpt>
      <trkpt lat="44.03813" lon="5.24037">
        <ele>952.712</ele>
        <time>2020-09-03T14:06:17Z</time>
      </trkpt>
      <trkpt lat="44.03808" lon="5.24052">
        <ele>952.934</ele>
        <time>2020-09-03T14:06:18Z</time>
      </trkpt>
      <trkpt lat="44.03808" lon="5.24052">
        <ele>953.305</ele>
        <time>2020-09-03T14:06:18Z</time>
      </trkpt>
      <trkpt lat="44.03793" lon="5.24076">
        <ele>953.848</ele>
        <time>2020-09-03T14:06:20Z</time>
      </trkpt>
      <trkpt lat="44.03785" lon="5.24086">
        <ele>954.821</ele>
        <time>2020-09-03T14:06:21Z</time>
      </trkpt>
      <trkpt lat="44.03777" lon="5.24095">
        <ele>956.075</ele>
        <time>2020-09-03T14:06:22Z</time>
      </trkpt>
      <trkpt lat="44.03769" lon="5.24105">
        <ele>957.202</ele>
        <time>2020-09-03T14:06:23Z</time>
      </trkpt>
      <trkpt lat="44.03761" lon="5.24115">
        <ele>958.158</ele>
        <time>2020-09-03T14:06:24Z</time>
      </trkpt>
      <trkpt lat="44.03751" lon="5.24123">
        <ele>958.921</ele>
        <time>2020-09-03T14:06:25Z</time>
      </trkpt>
      <trkpt lat="44.03742" lon="5.24128">
        <ele>959.393</ele>
        <time>2020-09-03T14:06:26Z</time>
      </trkpt>
      <trkpt lat="44.03732" lon="5.2413">
        <ele>959.62</ele>
        <time>2020-09-03T14:06:27Z</time>
      </trkpt>
      <trkpt lat="44.03723" lon="5.24128">
        <ele>959.784</ele>
        <time>2020-09-03T14:06:28Z</time>
      </trkpt>
      <trkpt lat="44.03709" lon="5.2412">
        <ele>960.298</ele>
        <time>2020-09-03T14:06:30Z</time>
      </trkpt>
      <trkpt lat="44.03703" lon="5.24115">
        <ele>960.943</ele>
        <time>2020-09-03T14:06:31Z</time>
      </trkpt>
      <trkpt lat="44.03696" lon="5.2411">
        <ele>961.668</ele>
        <time>2020-09-03T14:06:32Z</time>
      </trkpt>
      <trkpt lat="44.03688" lon="5.24106">
        <ele>962.251</ele>
        <time>2020-09-03T14:06:33Z</time>
      </trkpt>
      <trkpt lat="44.0368" lon="5.24103">
        <ele>962.724</ele>
        <time>2020-09-03T14:06:34Z</time>
      </trkpt>
      <trkpt lat="44.03672" lon="5.241">
        <ele>962.94</ele>
        <time>2020-09-03T14:06:35Z</time>
      </trkpt>
      <trkpt lat="44.03665" lon="5.24095">
        <ele>962.937</ele>
        <time>2020-09-03T14:06:36Z</time>
      </trkpt>
      <trkpt lat="44.0366" lon="5.24088">
        <ele>962.564</ele>
        <time>2020-09-03T14:06:37Z</time>
      </trkpt>
      <trkpt lat="44.03657" lon="5.2408">
        <ele>961.972</ele>
        <time>2020-09-03T14:06:38Z</time>
      </trkpt>
      <trkpt lat="44.03658" lon="5.24071">
        <ele>961.265</ele>
        <time>2020-09-03T14:06:39Z</time>
      </trkpt>
      <trkpt lat="44.03662" lon="5.24065">
        <ele>960.565</ele>
        <time>2020-09-03T14:06:40Z</time>
      </trkpt>
      <trkpt lat="44.0367" lon="5.24064">
        <ele>960.182</ele>
        <time>2020-09-03T14:06:41Z</time>
      </trkpt>
      <trkpt lat="44.03678" lon="5.24065">
        <ele>960.038</ele>
        <time>2020-09-03T14:06:42Z</time>
      </trkpt>
      <trkpt lat="44.03685" lon="5.24066">
        <ele>960.239</ele>
        <time>2020-09-03T14:06:43Z</time>
      </trkpt>
      <trkpt lat="44.03691" lon="5.24067">
        <ele>960.343</ele>
        <time>2020-09-03T14:06:44Z</time>
      </trkpt>
      <trkpt lat="44.03697" lon="5.24067">
        <ele>959.979</ele>
        <time>2020-09-03T14:06:45Z</time>
      </trkpt>
      <trkpt lat="44.03702" lon="5.24067">
        <ele>959.45</ele>
        <time>2020-09-03T14:06:46Z</time>
      </trkpt>
      <trkpt lat="44.03709" lon="5.24069">
        <ele>958.367</ele>
        <time>2020-09-03T14:06:47Z</time>
      </trkpt>
      <trkpt lat="44.03716" lon="5.2407">
        <ele>957.049</ele>
        <time>2020-09-03T14:06:48Z</time>
      </trkpt>
      <trkpt lat="44.03723" lon="5.24073">
        <ele>956.335</ele>
        <time>2020-09-03T14:06:49Z</time>
      </trkpt>
      <trkpt lat="44.03723" lon="5.24073">
        <ele>956.231</ele>
        <time>2020-09-03T14:06:49Z</time>
      </trkpt>
      <trkpt lat="44.03744" lon="5.24086">
        <ele>956.457</ele>
        <time>2020-09-03T14:06:52Z</time>
      </trkpt>
      <trkpt lat="44.03749" lon="5.24089">
        <ele>956.704</ele>
        <time>2020-09-03T14:06:53Z</time>
      </trkpt>
      <trkpt lat="44.03749" lon="5.24089">
        <ele>956.697</ele>
        <time>2020-09-03T14:06:53Z</time>
      </trkpt>
      <trkpt lat="44.03761" lon="5.24097">
        <ele>956.447</ele>
        <time>2020-09-03T14:06:55Z</time>
      </trkpt>
      <trkpt lat="44.03767" lon="5.24103">
        <ele>955.912</ele>
        <time>2020-09-03T14:06:56Z</time>
      </trkpt>
      <trkpt lat="44.03774" lon="5.24111">
        <ele>955.007</ele>
        <time>2020-09-03T14:06:57Z</time>
      </trkpt>
      <trkpt lat="44.03779" lon="5.24122">
        <ele>954.039</ele>
        <time>2020-09-03T14:06:58Z</time>
      </trkpt>
      <trkpt lat="44.03783" lon="5.24134">
        <ele>952.92</ele>
        <time>2020-09-03T14:06:59Z</time>
      </trkpt>
      <trkpt lat="44.03787" lon="5.24147">
        <ele>951.282</ele>
        <time>2020-09-03T14:07:00Z</time>
      </trkpt>
      <trkpt lat="44.03791" lon="5.24162">
        <ele>949.562</ele>
        <time>2020-09-03T14:07:01Z</time>
      </trkpt>
      <trkpt lat="44.03795" lon="5.24178">
        <ele>948.124</ele>
        <time>2020-09-03T14:07:02Z</time>
      </trkpt>
      <trkpt lat="44.03801" lon="5.24193">
        <ele>947.379</ele>
        <time>2020-09-03T14:07:03Z</time>
      </trkpt>
      <trkpt lat="44.03806" lon="5.24205">
        <ele>947.278</ele>
        <time>2020-09-03T14:07:04Z</time>
      </trkpt>
      <trkpt lat="44.03811" lon="5.24216">
        <ele>947.833</ele>
        <time>2020-09-03T14:07:05Z</time>
      </trkpt>
      <trkpt lat="44.03814" lon="5.24228">
        <ele>948.505</ele>
        <time>2020-09-03T14:07:06Z</time>
      </trkpt>
      <trkpt lat="44.03817" lon="5.2424">
        <ele>949.23</ele>
        <time>2020-09-03T14:07:07Z</time>
      </trkpt>
      <trkpt lat="44.0382" lon="5.24252">
        <ele>949.734</ele>
        <time>2020-09-03T14:07:08Z</time>
      </trkpt>
      <trkpt lat="44.03823" lon="5.24265">
        <ele>950.247</ele>
        <time>2020-09-03T14:07:09Z</time>
      </trkpt>
      <trkpt lat="44.03825" lon="5.24279">
        <ele>951.004</ele>
        <time>2020-09-03T14:07:10Z</time>
      </trkpt>
      <trkpt lat="44.03827" lon="5.24294">
        <ele>952.29</ele>
        <time>2020-09-03T14:07:11Z</time>
      </trkpt>
      <trkpt lat="44.03828" lon="5.2431">
        <ele>953.925</ele>
        <time>2020-09-03T14:07:12Z</time>
      </trkpt>
      <trkpt lat="44.03828" lon="5.2431">
        <ele>955.902</ele>
        <time>2020-09-03T14:07:12Z</time>
      </trkpt>
      <trkpt lat="44.03832" lon="5.24358">
        <ele>957.418</ele>
        <time>2020-09-03T14:07:15Z</time>
      </trkpt>
      <trkpt lat="44.03832" lon="5.24373">
        <ele>959.239</ele>
        <time>2020-09-03T14:07:16Z</time>
      </trkpt>
      <trkpt lat="44.03834" lon="5.24388">
        <ele>961.628</ele>
        <time>2020-09-03T14:07:17Z</time>
      </trkpt>
      <trkpt lat="44.03837" lon="5.24402">
        <ele>963.783</ele>
        <time>2020-09-03T14:07:18Z</time>
      </trkpt>
      <trkpt lat="44.0384" lon="5.24416">
        <ele>965.876</ele>
        <time>2020-09-03T14:07:19Z</time>
      </trkpt>
      <trkpt lat="44.03842" lon="5.24432">
        <ele>967.913</ele>
        <time>2020-09-03T14:07:20Z</time>
      </trkpt>
      <trkpt lat="44.03843" lon="5.24449">
        <ele>970.448</ele>
        <time>2020-09-03T14:07:21Z</time>
      </trkpt>
      <trkpt lat="44.03843" lon="5.24466">
        <ele>973.129</ele>
        <time>2020-09-03T14:07:22Z</time>
      </trkpt>
      <trkpt lat="44.03841" lon="5.24482">
        <ele>976.643</ele>
        <time>2020-09-03T14:07:23Z</time>
      </trkpt>
      <trkpt lat="44.03838" lon="5.24496">
        <ele>979.952</ele>
        <time>2020-09-03T14:07:24Z</time>
      </trkpt>
      <trkpt lat="44.03832" lon="5.24508">
        <ele>982.707</ele>
        <time>2020-09-03T14:07:25Z</time>
      </trkpt>
      <trkpt lat="44.03826" lon="5.24513">
        <ele>984.797</ele>
        <time>2020-09-03T14:07:26Z</time>
      </trkpt>
      <trkpt lat="44.03819" lon="5.24514">
        <ele>986.509</ele>
        <time>2020-09-03T14:07:27Z</time>
      </trkpt>
      <trkpt lat="44.03814" lon="5.24509">
        <ele>987.613</ele>
        <time>2020-09-03T14:07:28Z</time>
      </trkpt>
      <trkpt lat="44.03813" lon="5.24502">
        <ele>988.694</ele>
        <time>2020-09-03T14:07:29Z</time>
      </trkpt>
      <trkpt lat="44.03814" lon="5.24495">
        <ele>989.955</ele>
        <time>2020-09-03T14:07:30Z</time>
      </trkpt>
      <trkpt lat="44.03814" lon="5.24495">
        <ele>990.84</ele>
        <time>2020-09-03T14:07:30Z</time>
      </trkpt>
      <trkpt lat="44.03826" lon="5.24487">
        <ele>992.336</ele>
        <time>2020-09-03T14:07:32Z</time>
      </trkpt>
      <trkpt lat="44.03835" lon="5.24488">
        <ele>994.029</ele>
        <time>2020-09-03T14:07:33Z</time>
      </trkpt>
      <trkpt lat="44.03844" lon="5.24492">
        <ele>996.024</ele>
        <time>2020-09-03T14:07:34Z</time>
      </trkpt>
      <trkpt lat="44.03854" lon="5.245">
        <ele>998.333</ele>
        <time>2020-09-03T14:07:35Z</time>
      </trkpt>
      <trkpt lat="44.03864" lon="5.24511">
        <ele>1001.083</ele>
        <time>2020-09-03T14:07:36Z</time>
      </trkpt>
      <trkpt lat="44.03872" lon="5.24525">
        <ele>1004.826</ele>
        <time>2020-09-03T14:07:37Z</time>
      </trkpt>
      <trkpt lat="44.03872" lon="5.24525">
        <ele>1008.955</ele>
        <time>2020-09-03T14:07:37Z</time>
      </trkpt>
      <trkpt lat="44.03887" lon="5.24571">
        <ele>1012.294</ele>
        <time>2020-09-03T14:07:40Z</time>
      </trkpt>
      <trkpt lat="44.03888" lon="5.24587">
        <ele>1016.157</ele>
        <time>2020-09-03T14:07:41Z</time>
      </trkpt>
      <trkpt lat="44.03888" lon="5.24602">
        <ele>1019.902</ele>
        <time>2020-09-03T14:07:42Z</time>
      </trkpt>
      <trkpt lat="44.03886" lon="5.24618">
        <ele>1022.719</ele>
        <time>2020-09-03T14:07:43Z</time>
      </trkpt>
      <trkpt lat="44.03882" lon="5.24633">
        <ele>1025.118</ele>
        <time>2020-09-03T14:07:44Z</time>
      </trkpt>
      <trkpt lat="44.03876" lon="5.24643">
        <ele>1027.122</ele>
        <time>2020-09-03T14:07:45Z</time>
      </trkpt>
      <trkpt lat="44.03867" lon="5.24649">
        <ele>1029.292</ele>
        <time>2020-09-03T14:07:46Z</time>
      </trkpt>
      <trkpt lat="44.0386" lon="5.24648">
        <ele>1031.702</ele>
        <time>2020-09-03T14:07:47Z</time>
      </trkpt>
      <trkpt lat="44.03856" lon="5.24644">
        <ele>1034.233</ele>
        <time>2020-09-03T14:07:48Z</time>
      </trkpt>
      <trkpt lat="44.03855" lon="5.24637">
        <ele>1036.528</ele>
        <time>2020-09-03T14:07:49Z</time>
      </trkpt>
      <trkpt lat="44.03855" lon="5.24637">
        <ele>1039.142</ele>
        <time>2020-09-03T14:07:49Z</time>
      </trkpt>
      <trkpt lat="44.03855" lon="5.24637">
        <ele>1041.136</ele>
        <time>2020-09-03T14:07:49Z</time>
      </trkpt>
      <trkpt lat="44.0387" lon="5.24624">
        <ele>1044.42</ele>
        <time>2020-09-03T14:07:52Z</time>
      </trkpt>
      <trkpt lat="44.03879" lon="5.24625">
        <ele>1047.718</ele>
        <time>2020-09-03T14:07:53Z</time>
      </trkpt>
      <trkpt lat="44.03888" lon="5.2463">
        <ele>1050.824</ele>
        <time>2020-09-03T14:07:54Z</time>
      </trkpt>
      <trkpt lat="44.03897" lon="5.24641">
        <ele>1054.251</ele>
        <time>2020-09-03T14:07:55Z</time>
      </trkpt>
      <trkpt lat="44.03904" lon="5.24654">
        <ele>1056.9</ele>
        <time>2020-09-03T14:07:56Z</time>
      </trkpt>
      <trkpt lat="44.03912" lon="5.24686">
        <ele>1059.686</ele>
        <time>2020-09-03T14:07:58Z</time>
      </trkpt>
      <trkpt lat="44.03912" lon="5.24686">
        <ele>1061.3</ele>
        <time>2020-09-03T14:07:58Z</time>
      </trkpt>
      <trkpt lat="44.03917" lon="5.2472">
        <ele>1064.487</ele>
        <time>2020-09-03T14:08:00Z</time>
      </trkpt>
      <trkpt lat="44.03919" lon="5.24737">
        <ele>1067.233</ele>
        <time>2020-09-03T14:08:01Z</time>
      </trkpt>
      <trkpt lat="44.03919" lon="5.24752">
        <ele>1070.477</ele>
        <time>2020-09-03T14:08:02Z</time>
      </trkpt>
      <trkpt lat="44.03918" lon="5.24767">
        <ele>1074.546</ele>
        <time>2020-09-03T14:08:03Z</time>
      </trkpt>
      <trkpt lat="44.03915" lon="5.2478">
        <ele>1077.573</ele>
        <time>2020-09-03T14:08:04Z</time>
      </trkpt>
      <trkpt lat="44.0391" lon="5.24788">
        <ele>1080.884</ele>
        <time>2020-09-03T14:08:05Z</time>
      </trkpt>
      <trkpt lat="44.03904" lon="5.24792">
        <ele>1083.45</ele>
        <time>2020-09-03T14:08:06Z</time>
      </trkpt>
      <trkpt lat="44.03897" lon="5.2479">
        <ele>1086.424</ele>
        <time>2020-09-03T14:08:07Z</time>
      </trkpt>
      <trkpt lat="44.03891" lon="5.24786">
        <ele>1088.737</ele>
        <time>2020-09-03T14:08:08Z</time>
      </trkpt>
      <trkpt lat="44.03888" lon="5.24779">
        <ele>1092.075</ele>
        <time>2020-09-03T14:08:09Z</time>
      </trkpt>
      <trkpt lat="44.0389" lon="5.24771">
        <ele>1095.17</ele>
        <time>2020-09-03T14:08:10Z</time>
      </trkpt>
      <trkpt lat="44.03895" lon="5.24765">
        <ele>1098.652</ele>
        <time>2020-09-03T14:08:11Z</time>
      </trkpt>
      <trkpt lat="44.03903" lon="5.24762">
        <ele>1102.492</ele>
        <time>2020-09-03T14:08:12Z</time>
      </trkpt>
      <trkpt lat="44.03903" lon="5.24762">
        <ele>1104.963</ele>
        <time>2020-09-03T14:08:12Z</time>
      </trkpt>
      <trkpt lat="44.03924" lon="5.24768">
        <ele>1107.496</ele>
        <time>2020-09-03T14:08:14Z</time>
      </trkpt>
      <trkpt lat="44.03933" lon="5.24777">
        <ele>1110.245</ele>
        <time>2020-09-03T14:08:15Z</time>
      </trkpt>
      <trkpt lat="44.03942" lon="5.24789">
        <ele>1112.489</ele>
        <time>2020-09-03T14:08:16Z</time>
      </trkpt>
      <trkpt lat="44.03949" lon="5.24802">
        <ele>1114.909</ele>
        <time>2020-09-03T14:08:17Z</time>
      </trkpt>
      <trkpt lat="44.03953" lon="5.24817">
        <ele>1117.379</ele>
        <time>2020-09-03T14:08:18Z</time>
      </trkpt>
      <trkpt lat="44.03957" lon="5.24833">
        <ele>1119.983</ele>
        <time>2020-09-03T14:08:19Z</time>
      </trkpt>
      <trkpt lat="44.03962" lon="5.24866">
        <ele>1122.742</ele>
        <time>2020-09-03T14:08:21Z</time>
      </trkpt>
      <trkpt lat="44.03963" lon="5.24883">
        <ele>1125.418</ele>
        <time>2020-09-03T14:08:22Z</time>
      </trkpt>
      <trkpt lat="44.03962" lon="5.24899">
        <ele>1128.472</ele>
        <time>2020-09-03T14:08:23Z</time>
      </trkpt>
      <trkpt lat="44.03962" lon="5.24899">
        <ele>1131.718</ele>
        <time>2020-09-03T14:08:23Z</time>
      </trkpt>
      <trkpt lat="44.03955" lon="5.24924">
        <ele>1134.855</ele>
        <time>2020-09-03T14:08:25Z</time>
      </trkpt>
      <trkpt lat="44.03949" lon="5.2493">
        <ele>1137.886</ele>
        <time>2020-09-03T14:08:26Z</time>
      </trkpt>
      <trkpt lat="44.03941" lon="5.24934">
        <ele>1139.603</ele>
        <time>2020-09-03T14:08:27Z</time>
      </trkpt>
      <trkpt lat="44.03934" lon="5.24934">
        <ele>1142.02</ele>
        <time>2020-09-03T14:08:28Z</time>
      </trkpt>
      <trkpt lat="44.03929" lon="5.24932">
        <ele>1144.337</ele>
        <time>2020-09-03T14:08:29Z</time>
      </trkpt>
      <trkpt lat="44.03926" lon="5.24927">
        <ele>1146.071</ele>
        <time>2020-09-03T14:08:30Z</time>
      </trkpt>
      <trkpt lat="44.03924" lon="5.2492">
        <ele>1147.232</ele>
        <time>2020-09-03T14:08:31Z</time>
      </trkpt>
      <trkpt lat="44.03924" lon="5.24911">
        <ele>1148.76</ele>
        <time>2020-09-03T14:08:32Z</time>
      </trkpt>
      <trkpt lat="44.03924" lon="5.24903">
        <ele>1150.293</ele>
        <time>2020-09-03T14:08:33Z</time>
      </trkpt>
      <trkpt lat="44.03924" lon="5.24896">
        <ele>1152.703</ele>
        <time>2020-09-03T14:08:34Z</time>
      </trkpt>
      <trkpt lat="44.03921" lon="5.24889">
        <ele>1155.886</ele>
        <time>2020-09-03T14:08:35Z</time>
      </trkpt>
      <trkpt lat="44.03915" lon="5.24879">
        <ele>1159.1</ele>
        <time>2020-09-03T14:08:37Z</time>
      </trkpt>
      <trkpt lat="44.03912" lon="5.24875">
        <ele>1162.837</ele>
        <time>2020-09-03T14:08:38Z</time>
      </trkpt>
      <trkpt lat="44.03912" lon="5.24875">
        <ele>1166.362</ele>
        <time>2020-09-03T14:08:38Z</time>
      </trkpt>
      <trkpt lat="44.03908" lon="5.24864">
        <ele>1169.635</ele>
        <time>2020-09-03T14:08:40Z</time>
      </trkpt>
      <trkpt lat="44.03909" lon="5.24855">
        <ele>1172.652</ele>
        <time>2020-09-03T14:08:41Z</time>
      </trkpt>
      <trkpt lat="44.03913" lon="5.24845">
        <ele>1176.039</ele>
        <time>2020-09-03T14:08:42Z</time>
      </trkpt>
      <trkpt lat="44.0392" lon="5.24838">
        <ele>1179.426</ele>
        <time>2020-09-03T14:08:43Z</time>
      </trkpt>
      <trkpt lat="44.0392" lon="5.24838">
        <ele>1183.065</ele>
        <time>2020-09-03T14:08:43Z</time>
      </trkpt>
      <trkpt lat="44.0394" lon="5.24835">
        <ele>1186.936</ele>
        <time>2020-09-03T14:08:45Z</time>
      </trkpt>
      <trkpt lat="44.03951" lon="5.24842">
        <ele>1190.777</ele>
        <time>2020-09-03T14:08:46Z</time>
      </trkpt>
      <trkpt lat="44.0396" lon="5.24854">
        <ele>1194.241</ele>
        <time>2020-09-03T14:08:47Z</time>
      </trkpt>
      <trkpt lat="44.03967" lon="5.24871">
        <ele>1196.942</ele>
        <time>2020-09-03T14:08:48Z</time>
      </trkpt>
      <trkpt lat="44.0397" lon="5.24888">
        <ele>1199.478</ele>
        <time>2020-09-03T14:08:49Z</time>
      </trkpt>
      <trkpt lat="44.03969" lon="5.24903">
        <ele>1201.854</ele>
        <time>2020-09-03T14:08:50Z</time>
      </trkpt>
      <trkpt lat="44.03966" lon="5.24914">
        <ele>1204.493</ele>
        <time>2020-09-03T14:08:51Z</time>
      </trkpt>
      <trkpt lat="44.03961" lon="5.24922">
        <ele>1207.096</ele>
        <time>2020-09-03T14:08:52Z</time>
      </trkpt>
      <trkpt lat="44.03955" lon="5.24925">
        <ele>1209.868</ele>
        <time>2020-09-03T14:08:53Z</time>
      </trkpt>
      <trkpt lat="44.0395" lon="5.24926">
        <ele>1212.201</ele>
        <time>2020-09-03T14:08:54Z</time>
      </trkpt>
      <trkpt lat="44.03944" lon="5.24925">
        <ele>1215.585</ele>
        <time>2020-09-03T14:08:55Z</time>
      </trkpt>
      <trkpt lat="44.03941" lon="5.24921">
        <ele>1219.617</ele>
        <time>2020-09-03T14:08:56Z</time>
      </trkpt>
      <trkpt lat="44.03938" lon="5.24916">
        <ele>1223.946</ele>
        <time>2020-09-03T14:08:57Z</time>
      </trkpt>
      <trkpt lat="44.03939" lon="5.24907">
        <ele>1227.706</ele>
        <time>2020-09-03T14:08:58Z</time>
      </trkpt>
      <trkpt lat="44.03942" lon="5.24899">
        <ele>1230.872</ele>
        <time>2020-09-03T14:08:59Z</time>
      </trkpt>
      <trkpt lat="44.03948" lon="5.24892">
        <ele>1234.34</ele>
        <time>2020-09-03T14:09:00Z</time>
      </trkpt>
      <trkpt lat="44.03958" lon="5.24887">
        <ele>1237.546</ele>
        <time>2020-09-03T14:09:01Z</time>
      </trkpt>
      <trkpt lat="44.0397" lon="5.24886">
        <ele>1241.031</ele>
        <time>2020-09-03T14:09:02Z</time>
      </trkpt>
      <trkpt lat="44.03981" lon="5.24892">
        <ele>1244.733</ele>
        <time>2020-09-03T14:09:03Z</time>
      </trkpt>
      <trkpt lat="44.03989" lon="5.24902">
        <ele>1248.468</ele>
        <time>2020-09-03T14:09:04Z</time>
      </trkpt>
      <trkpt lat="44.03994" lon="5.24916">
        <ele>1251.655</ele>
        <time>2020-09-03T14:09:05Z</time>
      </trkpt>
      <trkpt lat="44.03994" lon="5.24916">
        <ele>1253.516</ele>
        <time>2020-09-03T14:09:05Z</time>
      </trkpt>
      <trkpt lat="44.03994" lon="5.24916">
        <ele>1255.228</ele>
        <time>2020-09-03T14:09:05Z</time>
      </trkpt>
      <trkpt lat="44.03994" lon="5.24916">
        <ele>1257.461</ele>
        <time>2020-09-03T14:09:05Z</time>
      </trkpt>
      <trkpt lat="44.03993" lon="5.24978">
        <ele>1260.127</ele>
        <time>2020-09-03T14:09:09Z</time>
      </trkpt>
      <trkpt lat="44.03988" lon="5.24988">
        <ele>1263.755</ele>
        <time>2020-09-03T14:09:10Z</time>
      </trkpt>
      <trkpt lat="44.03984" lon="5.24995">
        <ele>1267.091</ele>
        <time>2020-09-03T14:09:11Z</time>
      </trkpt>
      <trkpt lat="44.03979" lon="5.25">
        <ele>1269.695</ele>
        <time>2020-09-03T14:09:12Z</time>
      </trkpt>
      <trkpt lat="44.03974" lon="5.25004">
        <ele>1271.778</ele>
        <time>2020-09-03T14:09:13Z</time>
      </trkpt>
      <trkpt lat="44.03969" lon="5.25004">
        <ele>1272.786</ele>
        <time>2020-09-03T14:09:14Z</time>
      </trkpt>
      <trkpt lat="44.0396" lon="5.24992">
        <ele>1273.547</ele>
        <time>2020-09-03T14:09:16Z</time>
      </trkpt>
      <trkpt lat="44.03957" lon="5.24984">
        <ele>1274.565</ele>
        <time>2020-09-03T14:09:17Z</time>
      </trkpt>
      <trkpt lat="44.03955" lon="5.24974">
        <ele>1276.334</ele>
        <time>2020-09-03T14:09:18Z</time>
      </trkpt>
      <trkpt lat="44.03955" lon="5.24974">
        <ele>1278.888</ele>
        <time>2020-09-03T14:09:18Z</time>
      </trkpt>
      <trkpt lat="44.03951" lon="5.24956">
        <ele>1281.989</ele>
        <time>2020-09-03T14:09:20Z</time>
      </trkpt>
      <trkpt lat="44.03948" lon="5.24948">
        <ele>1285.4</ele>
        <time>2020-09-03T14:09:21Z</time>
      </trkpt>
      <trkpt lat="44.03945" lon="5.24938">
        <ele>1287.795</ele>
        <time>2020-09-03T14:09:22Z</time>
      </trkpt>
      <trkpt lat="44.03943" lon="5.24929">
        <ele>1291.716</ele>
        <time>2020-09-03T14:09:23Z</time>
      </trkpt>
      <trkpt lat="44.03944" lon="5.2492">
        <ele>1296.379</ele>
        <time>2020-09-03T14:09:24Z</time>
      </trkpt>
      <trkpt lat="44.03949" lon="5.2491">
        <ele>1300.429</ele>
        <time>2020-09-03T14:09:25Z</time>
      </trkpt>
      <trkpt lat="44.03956" lon="5.24901">
        <ele>1304.258</ele>
        <time>2020-09-03T14:09:26Z</time>
      </trkpt>
      <trkpt lat="44.03963" lon="5.24893">
        <ele>1309.068</ele>
        <time>2020-09-03T14:09:27Z</time>
      </trkpt>
      <trkpt lat="44.0397" lon="5.24886">
        <ele>1313.581</ele>
        <time>2020-09-03T14:09:28Z</time>
      </trkpt>
      <trkpt lat="44.03975" lon="5.24882">
        <ele>1317.91</ele>
        <time>2020-09-03T14:09:29Z</time>
      </trkpt>
      <trkpt lat="44.03979" lon="5.24876">
        <ele>1322.09</ele>
        <time>2020-09-03T14:09:30Z</time>
      </trkpt>
      <trkpt lat="44.03984" lon="5.24869">
        <ele>1324.918</ele>
        <time>2020-09-03T14:09:31Z</time>
      </trkpt>
      <trkpt lat="44.0399" lon="5.24862">
        <ele>1326.853</ele>
        <time>2020-09-03T14:09:32Z</time>
      </trkpt>
      <trkpt lat="44.04" lon="5.2486">
        <ele>1327.78</ele>
        <time>2020-09-03T14:09:33Z</time>
      </trkpt>
      <trkpt lat="44.0401" lon="5.24863">
        <ele>1328.035</ele>
        <time>2020-09-03T14:09:34Z</time>
      </trkpt>
      <trkpt lat="44.04019" lon="5.24871">
        <ele>1328.481</ele>
        <time>2020-09-03T14:09:35Z</time>
      </trkpt>
      <trkpt lat="44.04027" lon="5.24882">
        <ele>1329.37</ele>
        <time>2020-09-03T14:09:36Z</time>
      </trkpt>
      <trkpt lat="44.04032" lon="5.24894">
        <ele>1330.964</ele>
        <time>2020-09-03T14:09:37Z</time>
      </trkpt>
      <trkpt lat="44.04034" lon="5.24906">
        <ele>1332.766</ele>
        <time>2020-09-03T14:09:38Z</time>
      </trkpt>
      <trkpt lat="44.04034" lon="5.24919">
        <ele>1334.63</ele>
        <time>2020-09-03T14:09:39Z</time>
      </trkpt>
      <trkpt lat="44.04031" lon="5.2493">
        <ele>1336.522</ele>
        <time>2020-09-03T14:09:40Z</time>
      </trkpt>
      <trkpt lat="44.04026" lon="5.24939">
        <ele>1338.546</ele>
        <time>2020-09-03T14:09:41Z</time>
      </trkpt>
      <trkpt lat="44.04022" lon="5.24948">
        <ele>1341.065</ele>
        <time>2020-09-03T14:09:42Z</time>
      </trkpt>
      <trkpt lat="44.04017" lon="5.24958">
        <ele>1343.855</ele>
        <time>2020-09-03T14:09:43Z</time>
      </trkpt>
      <trkpt lat="44.04014" lon="5.24968">
        <ele>1347.108</ele>
        <time>2020-09-03T14:09:44Z</time>
      </trkpt>
      <trkpt lat="44.04014" lon="5.24968">
        <ele>1350.344</ele>
        <time>2020-09-03T14:09:44Z</time>
      </trkpt>
      <trkpt lat="44.04005" lon="5.24981">
        <ele>1354.233</ele>
        <time>2020-09-03T14:09:46Z</time>
      </trkpt>
      <trkpt lat="44.04" lon="5.24979">
        <ele>1357.394</ele>
        <time>2020-09-03T14:09:47Z</time>
      </trkpt>
      <trkpt lat="44.04" lon="5.24979">
        <ele>1359.362</ele>
        <time>2020-09-03T14:09:47Z</time>
      </trkpt>
      <trkpt lat="44.03998" lon="5.24959">
        <ele>1362.546</ele>
        <time>2020-09-03T14:09:49Z</time>
      </trkpt>
      <trkpt lat="44.03998" lon="5.24959">
        <ele>1366.886</ele>
        <time>2020-09-03T14:09:49Z</time>
      </trkpt>
      <trkpt lat="44.03998" lon="5.24959">
        <ele>1370.025</ele>
        <time>2020-09-03T14:09:49Z</time>
      </trkpt>
      <trkpt lat="44.03998" lon="5.24959">
        <ele>1372.963</ele>
        <time>2020-09-03T14:09:49Z</time>
      </trkpt>
      <trkpt lat="44.03998" lon="5.24959">
        <ele>1376.145</ele>
        <time>2020-09-03T14:09:49Z</time>
      </trkpt>
      <trkpt lat="44.0405" lon="5.24945">
        <ele>1378.608</ele>
        <time>2020-09-03T14:09:55Z</time>
      </trkpt>
      <trkpt lat="44.04053" lon="5.24957">
        <ele>1380.933</ele>
        <time>2020-09-03T14:09:56Z</time>
      </trkpt>
      <trkpt lat="44.04053" lon="5.24968">
        <ele>1382.478</ele>
        <time>2020-09-03T14:09:57Z</time>
      </trkpt>
      <trkpt lat="44.04051" lon="5.24978">
        <ele>1383.526</ele>
        <time>2020-09-03T14:09:58Z</time>
      </trkpt>
      <trkpt lat="44.04048" lon="5.24986">
        <ele>1384.442</ele>
        <time>2020-09-03T14:09:59Z</time>
      </trkpt>
      <trkpt lat="44.04043" lon="5.24994">
        <ele>1385.707</ele>
        <time>2020-09-03T14:10:00Z</time>
      </trkpt>
      <trkpt lat="44.04036" lon="5.24999">
        <ele>1387.193</ele>
        <time>2020-09-03T14:10:01Z</time>
      </trkpt>
      <trkpt lat="44.04031" lon="5.25003">
        <ele>1389.415</ele>
        <time>2020-09-03T14:10:02Z</time>
      </trkpt>
      <trkpt lat="44.04029" lon="5.25007">
        <ele>1392.575</ele>
        <time>2020-09-03T14:10:03Z</time>
      </trkpt>
      <trkpt lat="44.04026" lon="5.25011">
        <ele>1395.975</ele>
        <time>2020-09-03T14:10:04Z</time>
      </trkpt>
      <trkpt lat="44.04023" lon="5.25016">
        <ele>1399.643</ele>
        <time>2020-09-03T14:10:05Z</time>
      </trkpt>
      <trkpt lat="44.0402" lon="5.2502">
        <ele>1401.892</ele>
        <time>2020-09-03T14:10:06Z</time>
      </trkpt>
      <trkpt lat="44.04013" lon="5.25023">
        <ele>1403.348</ele>
        <time>2020-09-03T14:10:07Z</time>
      </trkpt>
      <trkpt lat="44.04004" lon="5.25018">
        <ele>1404.195</ele>
        <time>2020-09-03T14:10:08Z</time>
      </trkpt>
      <trkpt lat="44.03995" lon="5.25012">
        <ele>1404.769</ele>
        <time>2020-09-03T14:10:09Z</time>
      </trkpt>
      <trkpt lat="44.03987" lon="5.25007">
        <ele>1405.952</ele>
        <time>2020-09-03T14:10:10Z</time>
      </trkpt>
      <trkpt lat="44.0398" lon="5.25002">
        <ele>1407.728</ele>
        <time>2020-09-03T14:10:11Z</time>
      </trkpt>
      <trkpt lat="44.03975" lon="5.24999">
        <ele>1410.391</ele>
        <time>2020-09-03T14:10:12Z</time>
      </trkpt>
      <trkpt lat="44.0397" lon="5.24995">
        <ele>1413.456</ele>
        <time>2020-09-03T14:10:13Z</time>
      </trkpt>
      <trkpt lat="44.03964" lon="5.2499">
        <ele>1416.059</ele>
        <time>2020-09-03T14:10:14Z</time>
      </trkpt>
      <trkpt lat="44.03959" lon="5.24981">
        <ele>1417.991</ele>
        <time>2020-09-03T14:10:15Z</time>
      </trkpt>
      <trkpt lat="44.03959" lon="5.24981">
        <ele>1419.383</ele>
        <time>2020-09-03T14:10:15Z</time>
      </trkpt>
      <trkpt lat="44.03956" lon="5.24954">
        <ele>1421.714</ele>
        <time>2020-09-03T14:10:17Z</time>
      </trkpt>
      <trkpt lat="44.03959" lon="5.2494">
        <ele>1424.663</ele>
        <time>2020-09-03T14:10:18Z</time>
      </trkpt>
      <trkpt lat="44.0397" lon="5.24915">
        <ele>1427.546</ele>
        <time>2020-09-03T14:10:20Z</time>
      </trkpt>
      <trkpt lat="44.0398" lon="5.24914">
        <ele>1431.307</ele>
        <time>2020-09-03T14:10:21Z</time>
      </trkpt>
      <trkpt lat="44.03989" lon="5.24918">
        <ele>1434.174</ele>
        <time>2020-09-03T14:10:22Z</time>
      </trkpt>
      <trkpt lat="44.03997" lon="5.24925">
        <ele>1436.195</ele>
        <time>2020-09-03T14:10:23Z</time>
      </trkpt>
      <trkpt lat="44.04003" lon="5.24933">
        <ele>1438.059</ele>
        <time>2020-09-03T14:10:24Z</time>
      </trkpt>
      <trkpt lat="44.04007" lon="5.24942">
        <ele>1439.87</ele>
        <time>2020-09-03T14:10:25Z</time>
      </trkpt>
      <trkpt lat="44.04011" lon="5.24952">
        <ele>1441.791</ele>
        <time>2020-09-03T14:10:26Z</time>
      </trkpt>
      <trkpt lat="44.04012" lon="5.24963">
        <ele>1443.596</ele>
        <time>2020-09-03T14:10:27Z</time>
      </trkpt>
      <trkpt lat="44.04011" lon="5.24974">
        <ele>1445.661</ele>
        <time>2020-09-03T14:10:28Z</time>
      </trkpt>
      <trkpt lat="44.04008" lon="5.24983">
        <ele>1447.891</ele>
        <time>2020-09-03T14:10:29Z</time>
      </trkpt>
      <trkpt lat="44.04002" lon="5.24987">
        <ele>1450.705</ele>
        <time>2020-09-03T14:10:30Z</time>
      </trkpt>
      <trkpt lat="44.03995" lon="5.24987">
        <ele>1453.09</ele>
        <time>2020-09-03T14:10:31Z</time>
      </trkpt>
      <trkpt lat="44.03988" lon="5.24981">
        <ele>1455.019</ele>
        <time>2020-09-03T14:10:32Z</time>
      </trkpt>
      <trkpt lat="44.03983" lon="5.24971">
        <ele>1457.166</ele>
        <time>2020-09-03T14:10:33Z</time>
      </trkpt>
      <trkpt lat="44.03978" lon="5.24959">
        <ele>1459.081</ele>
        <time>2020-09-03T14:10:34Z</time>
      </trkpt>
      <trkpt lat="44.03978" lon="5.24945">
        <ele>1461.167</ele>
        <time>2020-09-03T14:10:35Z</time>
      </trkpt>
      <trkpt lat="44.0398" lon="5.24931">
        <ele>1463.87</ele>
        <time>2020-09-03T14:10:36Z</time>
      </trkpt>
      <trkpt lat="44.03985" lon="5.24917">
        <ele>1466.151</ele>
        <time>2020-09-03T14:10:37Z</time>
      </trkpt>
      <trkpt lat="44.03985" lon="5.24917">
        <ele>1468.945</ele>
        <time>2020-09-03T14:10:37Z</time>
      </trkpt>
      <trkpt lat="44.04" lon="5.24894">
        <ele>1472.267</ele>
        <time>2020-09-03T14:10:39Z</time>
      </trkpt>
      <trkpt lat="44.04015" lon="5.24881">
        <ele>1476.558</ele>
        <time>2020-09-03T14:10:41Z</time>
      </trkpt>
      <trkpt lat="44.04023" lon="5.24877">
        <ele>1479.898</ele>
        <time>2020-09-03T14:10:42Z</time>
      </trkpt>
      <trkpt lat="44.04031" lon="5.24875">
        <ele>1481.785</ele>
        <time>2020-09-03T14:10:43Z</time>
      </trkpt>
      <trkpt lat="44.04041" lon="5.24873">
        <ele>1482.736</ele>
        <time>2020-09-03T14:10:44Z</time>
      </trkpt>
      <trkpt lat="44.0405" lon="5.24876">
        <ele>1483.375</ele>
        <time>2020-09-03T14:10:45Z</time>
      </trkpt>
      <trkpt lat="44.0406" lon="5.24883">
        <ele>1483.598</ele>
        <time>2020-09-03T14:10:46Z</time>
      </trkpt>
      <trkpt lat="44.04067" lon="5.24893">
        <ele>1484.096</ele>
        <time>2020-09-03T14:10:47Z</time>
      </trkpt>
      <trkpt lat="44.04072" lon="5.24904">
        <ele>1485.159</ele>
        <time>2020-09-03T14:10:48Z</time>
      </trkpt>
      <trkpt lat="44.04073" lon="5.24914">
        <ele>1486.41</ele>
        <time>2020-09-03T14:10:49Z</time>
      </trkpt>
      <trkpt lat="44.04073" lon="5.24914">
        <ele>1487.563</ele>
        <time>2020-09-03T14:10:49Z</time>
      </trkpt>
      <trkpt lat="44.04073" lon="5.24914">
        <ele>1488.542</ele>
        <time>2020-09-03T14:10:49Z</time>
      </trkpt>
      <trkpt lat="44.04073" lon="5.24914">
        <ele>1489.72</ele>
        <time>2020-09-03T14:10:49Z</time>
      </trkpt>
      <trkpt lat="44.04073" lon="5.24914">
        <ele>1490.857</ele>
        <time>2020-09-03T14:10:49Z</time>
      </trkpt>
      <trkpt lat="44.04062" lon="5.24963">
        <ele>1492.595</ele>
        <time>2020-09-03T14:10:54Z</time>
      </trkpt>
      <trkpt lat="44.04059" lon="5.24971">
        <ele>1494.312</ele>
        <time>2020-09-03T14:10:55Z</time>
      </trkpt>
      <trkpt lat="44.04056" lon="5.24978">
        <ele>1496.342</ele>
        <time>2020-09-03T14:10:56Z</time>
      </trkpt>
      <trkpt lat="44.04052" lon="5.24984">
        <ele>1498.006</ele>
        <time>2020-09-03T14:10:57Z</time>
      </trkpt>
      <trkpt lat="44.04049" lon="5.24991">
        <ele>1498.998</ele>
        <time>2020-09-03T14:10:58Z</time>
      </trkpt>
      <trkpt lat="44.04044" lon="5.24998">
        <ele>1499.184</ele>
        <time>2020-09-03T14:10:59Z</time>
      </trkpt>
      <trkpt lat="44.04028" lon="5.25">
        <ele>1498.711</ele>
        <time>2020-09-03T14:11:01Z</time>
      </trkpt>
      <trkpt lat="44.04019" lon="5.24993">
        <ele>1498.099</ele>
        <time>2020-09-03T14:11:02Z</time>
      </trkpt>
      <trkpt lat="44.04012" lon="5.24985">
        <ele>1498.199</ele>
        <time>2020-09-03T14:11:03Z</time>
      </trkpt>
      <trkpt lat="44.04005" lon="5.24977">
        <ele>1499.674</ele>
        <time>2020-09-03T14:11:04Z</time>
      </trkpt>
      <trkpt lat="44.03998" lon="5.24969">
        <ele>1502.584</ele>
        <time>2020-09-03T14:11:05Z</time>
      </trkpt>
      <trkpt lat="44.03991" lon="5.24963">
        <ele>1505.301</ele>
        <time>2020-09-03T14:11:06Z</time>
      </trkpt>
      <trkpt lat="44.03983" lon="5.24959">
        <ele>1507.019</ele>
        <time>2020-09-03T14:11:07Z</time>
      </trkpt>
      <trkpt lat="44.03974" lon="5.24956">
        <ele>1509.181</ele>
        <time>2020-09-03T14:11:08Z</time>
      </trkpt>
      <trkpt lat="44.03965" lon="5.24956">
        <ele>1511.814</ele>
        <time>2020-09-03T14:11:09Z</time>
      </trkpt>
      <trkpt lat="44.03965" lon="5.24956">
        <ele>1514.205</ele>
        <time>2020-09-03T14:11:09Z</time>
      </trkpt>
      <trkpt lat="44.03951" lon="5.24963">
        <ele>1516.477</ele>
        <time>2020-09-03T14:11:11Z</time>
      </trkpt>
      <trkpt lat="44.03941" lon="5.24974">
        <ele>1517.662</ele>
        <time>2020-09-03T14:11:13Z</time>
      </trkpt>
      <trkpt lat="44.03941" lon="5.24974">
        <ele>1519.131</ele>
        <time>2020-09-03T14:11:13Z</time>
      </trkpt>
      <trkpt lat="44.03947" lon="5.24997">
        <ele>1519.737</ele>
        <time>2020-09-03T14:11:15Z</time>
      </trkpt>
      <trkpt lat="44.03954" lon="5.25007">
        <ele>1520.151</ele>
        <time>2020-09-03T14:11:16Z</time>
      </trkpt>
      <trkpt lat="44.03962" lon="5.25015">
        <ele>1520.98</ele>
        <time>2020-09-03T14:11:17Z</time>
      </trkpt>
      <trkpt lat="44.03971" lon="5.25018">
        <ele>1522.226</ele>
        <time>2020-09-03T14:11:18Z</time>
      </trkpt>
      <trkpt lat="44.03971" lon="5.25018">
        <ele>1523.814</ele>
        <time>2020-09-03T14:11:18Z</time>
      </trkpt>
      <trkpt lat="44.03987" lon="5.2502">
        <ele>1525.604</ele>
        <time>2020-09-03T14:11:20Z</time>
      </trkpt>
      <trkpt lat="44.03995" lon="5.25021">
        <ele>1527.039</ele>
        <time>2020-09-03T14:11:21Z</time>
      </trkpt>
      <trkpt lat="44.04003" lon="5.2502">
        <ele>1528.139</ele>
        <time>2020-09-03T14:11:22Z</time>
      </trkpt>
      <trkpt lat="44.04011" lon="5.25017">
        <ele>1528.592</ele>
        <time>2020-09-03T14:11:23Z</time>
      </trkpt>
      <trkpt lat="44.0402" lon="5.25012">
        <ele>1528.63</ele>
        <time>2020-09-03T14:11:24Z</time>
      </trkpt>
      <trkpt lat="44.04028" lon="5.25004">
        <ele>1528.541</ele>
        <time>2020-09-03T14:11:25Z</time>
      </trkpt>
      <trkpt lat="44.04035" lon="5.24994">
        <ele>1528.399</ele>
        <time>2020-09-03T14:11:26Z</time>
      </trkpt>
      <trkpt lat="44.0404" lon="5.24982">
        <ele>1528.155</ele>
        <time>2020-09-03T14:11:27Z</time>
      </trkpt>
      <trkpt lat="44.04042" lon="5.2497">
        <ele>1527.468</ele>
        <time>2020-09-03T14:11:28Z</time>
      </trkpt>
      <trkpt lat="44.04041" lon="5.24956">
        <ele>1526.279</ele>
        <time>2020-09-03T14:11:29Z</time>
      </trkpt>
      <trkpt lat="44.04038" lon="5.24943">
        <ele>1525.59</ele>
        <time>2020-09-03T14:11:30Z</time>
      </trkpt>
      <trkpt lat="44.04034" lon="5.2493">
        <ele>1525.419</ele>
        <time>2020-09-03T14:11:31Z</time>
      </trkpt>
      <trkpt lat="44.0403" lon="5.24918">
        <ele>1526.058</ele>
        <time>2020-09-03T14:11:32Z</time>
      </trkpt>
      <trkpt lat="44.04026" lon="5.24906">
        <ele>1527.18</ele>
        <time>2020-09-03T14:11:33Z</time>
      </trkpt>
      <trkpt lat="44.04018" lon="5.24888">
        <ele>1528.728</ele>
        <time>2020-09-03T14:11:35Z</time>
      </trkpt>
      <trkpt lat="44.04015" lon="5.24879">
        <ele>1530.102</ele>
        <time>2020-09-03T14:11:36Z</time>
      </trkpt>
      <trkpt lat="44.0401" lon="5.24871">
        <ele>1530.709</ele>
        <time>2020-09-03T14:11:37Z</time>
      </trkpt>
      <trkpt lat="44.04005" lon="5.24863">
        <ele>1531.159</ele>
        <time>2020-09-03T14:11:38Z</time>
      </trkpt>
      <trkpt lat="44.04005" lon="5.24863">
        <ele>1531.392</ele>
        <time>2020-09-03T14:11:38Z</time>
      </trkpt>
      <trkpt lat="44.03995" lon="5.24845">
        <ele>1531.323</ele>
        <time>2020-09-03T14:11:40Z</time>
      </trkpt>
      <trkpt lat="44.0399" lon="5.24835">
        <ele>1530.878</ele>
        <time>2020-09-03T14:11:41Z</time>
      </trkpt>
      <trkpt lat="44.03984" lon="5.24825">
        <ele>1530.31</ele>
        <time>2020-09-03T14:11:42Z</time>
      </trkpt>
      <trkpt lat="44.03977" lon="5.24816">
        <ele>1530.2</ele>
        <time>2020-09-03T14:11:43Z</time>
      </trkpt>
      <trkpt lat="44.03969" lon="5.24808">
        <ele>1530.747</ele>
        <time>2020-09-03T14:11:44Z</time>
      </trkpt>
      <trkpt lat="44.03961" lon="5.24801">
        <ele>1531.923</ele>
        <time>2020-09-03T14:11:45Z</time>
      </trkpt>
      <trkpt lat="44.03954" lon="5.24795">
        <ele>1533.566</ele>
        <time>2020-09-03T14:11:46Z</time>
      </trkpt>
      <trkpt lat="44.03946" lon="5.24789">
        <ele>1535.49</ele>
        <time>2020-09-03T14:11:47Z</time>
      </trkpt>
      <trkpt lat="44.03938" lon="5.24785">
        <ele>1537.121</ele>
        <time>2020-09-03T14:11:48Z</time>
      </trkpt>
      <trkpt lat="44.0393" lon="5.24781">
        <ele>1538.611</ele>
        <time>2020-09-03T14:11:49Z</time>
      </trkpt>
      <trkpt lat="44.03922" lon="5.2478">
        <ele>1539.528</ele>
        <time>2020-09-03T14:11:50Z</time>
      </trkpt>
      <trkpt lat="44.03913" lon="5.24782">
        <ele>1540.422</ele>
        <time>2020-09-03T14:11:51Z</time>
      </trkpt>
      <trkpt lat="44.03906" lon="5.24789">
        <ele>1541.142</ele>
        <time>2020-09-03T14:11:52Z</time>
      </trkpt>
      <trkpt lat="44.03899" lon="5.24798">
        <ele>1542</ele>
        <time>2020-09-03T14:11:53Z</time>
      </trkpt>
      <trkpt lat="44.03895" lon="5.2481">
        <ele>1542.969</ele>
        <time>2020-09-03T14:11:54Z</time>
      </trkpt>
      <trkpt lat="44.03894" lon="5.24823">
        <ele>1543.877</ele>
        <time>2020-09-03T14:11:55Z</time>
      </trkpt>
      <trkpt lat="44.03895" lon="5.24835">
        <ele>1544.523</ele>
        <time>2020-09-03T14:11:56Z</time>
      </trkpt>
      <trkpt lat="44.03898" lon="5.24845">
        <ele>1545.256</ele>
        <time>2020-09-03T14:11:57Z</time>
      </trkpt>
      <trkpt lat="44.03898" lon="5.24845">
        <ele>1546.04</ele>
        <time>2020-09-03T14:11:57Z</time>
      </trkpt>
      <trkpt lat="44.03909" lon="5.2486">
        <ele>1546.793</ele>
        <time>2020-09-03T14:11:59Z</time>
      </trkpt>
      <trkpt lat="44.03922" lon="5.24871">
        <ele>1547.638</ele>
        <time>2020-09-03T14:12:01Z</time>
      </trkpt>
      <trkpt lat="44.03928" lon="5.24878">
        <ele>1548.306</ele>
        <time>2020-09-03T14:12:02Z</time>
      </trkpt>
      <trkpt lat="44.03935" lon="5.24884">
        <ele>1548.752</ele>
        <time>2020-09-03T14:12:03Z</time>
      </trkpt>
      <trkpt lat="44.03942" lon="5.24889">
        <ele>1549.011</ele>
        <time>2020-09-03T14:12:04Z</time>
      </trkpt>
      <trkpt lat="44.0395" lon="5.24889">
        <ele>1549.059</ele>
        <time>2020-09-03T14:12:05Z</time>
      </trkpt>
      <trkpt lat="44.03959" lon="5.24886">
        <ele>1548.817</ele>
        <time>2020-09-03T14:12:06Z</time>
      </trkpt>
      <trkpt lat="44.03967" lon="5.2488">
        <ele>1548.362</ele>
        <time>2020-09-03T14:12:07Z</time>
      </trkpt>
      <trkpt lat="44.03967" lon="5.2488">
        <ele>1548.076</ele>
        <time>2020-09-03T14:12:07Z</time>
      </trkpt>
      <trkpt lat="44.03978" lon="5.24858">
        <ele>1547.862</ele>
        <time>2020-09-03T14:12:09Z</time>
      </trkpt>
      <trkpt lat="44.0398" lon="5.24845">
        <ele>1547.806</ele>
        <time>2020-09-03T14:12:10Z</time>
      </trkpt>
      <trkpt lat="44.03981" lon="5.24831">
        <ele>1548.014</ele>
        <time>2020-09-03T14:12:11Z</time>
      </trkpt>
      <trkpt lat="44.03981" lon="5.24819">
        <ele>1548.721</ele>
        <time>2020-09-03T14:12:12Z</time>
      </trkpt>
      <trkpt lat="44.0398" lon="5.24807">
        <ele>1549.775</ele>
        <time>2020-09-03T14:12:13Z</time>
      </trkpt>
      <trkpt lat="44.0398" lon="5.24796">
        <ele>1551.064</ele>
        <time>2020-09-03T14:12:14Z</time>
      </trkpt>
      <trkpt lat="44.03981" lon="5.24785">
        <ele>1552.241</ele>
        <time>2020-09-03T14:12:15Z</time>
      </trkpt>
      <trkpt lat="44.03983" lon="5.24774">
        <ele>1553.193</ele>
        <time>2020-09-03T14:12:16Z</time>
      </trkpt>
      <trkpt lat="44.03985" lon="5.24763">
        <ele>1553.751</ele>
        <time>2020-09-03T14:12:17Z</time>
      </trkpt>
      <trkpt lat="44.03988" lon="5.24753">
        <ele>1554.443</ele>
        <time>2020-09-03T14:12:18Z</time>
      </trkpt>
      <trkpt lat="44.03994" lon="5.24732">
        <ele>1555.011</ele>
        <time>2020-09-03T14:12:20Z</time>
      </trkpt>
      <trkpt lat="44.03997" lon="5.24721">
        <ele>1555.585</ele>
        <time>2020-09-03T14:12:21Z</time>
      </trkpt>
      <trkpt lat="44.04" lon="5.2471">
        <ele>1556.169</ele>
        <time>2020-09-03T14:12:22Z</time>
      </trkpt>
      <trkpt lat="44.04003" lon="5.24699">
        <ele>1556.897</ele>
        <time>2020-09-03T14:12:23Z</time>
      </trkpt>
      <trkpt lat="44.04007" lon="5.24688">
        <ele>1557.686</ele>
        <time>2020-09-03T14:12:24Z</time>
      </trkpt>
      <trkpt lat="44.04011" lon="5.24677">
        <ele>1558.299</ele>
        <time>2020-09-03T14:12:25Z</time>
      </trkpt>
      <trkpt lat="44.04015" lon="5.24666">
        <ele>1558.818</ele>
        <time>2020-09-03T14:12:26Z</time>
      </trkpt>
      <trkpt lat="44.04018" lon="5.24654">
        <ele>1559.558</ele>
        <time>2020-09-03T14:12:27Z</time>
      </trkpt>
      <trkpt lat="44.0402" lon="5.24641">
        <ele>1560.625</ele>
        <time>2020-09-03T14:12:28Z</time>
      </trkpt>
      <trkpt lat="44.04022" lon="5.24629">
        <ele>1561.384</ele>
        <time>2020-09-03T14:12:29Z</time>
      </trkpt>
      <trkpt lat="44.0403" lon="5.24608">
        <ele>1562.159</ele>
        <time>2020-09-03T14:12:31Z</time>
      </trkpt>
      <trkpt lat="44.04034" lon="5.24597">
        <ele>1562.531</ele>
        <time>2020-09-03T14:12:32Z</time>
      </trkpt>
      <trkpt lat="44.04038" lon="5.24587">
        <ele>1562.599</ele>
        <time>2020-09-03T14:12:33Z</time>
      </trkpt>
      <trkpt lat="44.04038" lon="5.24587">
        <ele>1562.407</ele>
        <time>2020-09-03T14:12:33Z</time>
      </trkpt>
      <trkpt lat="44.04046" lon="5.24566">
        <ele>1561.71</ele>
        <time>2020-09-03T14:12:35Z</time>
      </trkpt>
      <trkpt lat="44.04048" lon="5.24553">
        <ele>1560.997</ele>
        <time>2020-09-03T14:12:36Z</time>
      </trkpt>
      <trkpt lat="44.04049" lon="5.24539">
        <ele>1559.475</ele>
        <time>2020-09-03T14:12:37Z</time>
      </trkpt>
      <trkpt lat="44.04047" lon="5.24523">
        <ele>1556.945</ele>
        <time>2020-09-03T14:12:38Z</time>
      </trkpt>
      <trkpt lat="44.04047" lon="5.24523">
        <ele>1554.224</ele>
        <time>2020-09-03T14:12:38Z</time>
      </trkpt>
      <trkpt lat="44.04034" lon="5.24492">
        <ele>1551.593</ele>
        <time>2020-09-03T14:12:40Z</time>
      </trkpt>
      <trkpt lat="44.04026" lon="5.24479">
        <ele>1549.489</ele>
        <time>2020-09-03T14:12:41Z</time>
      </trkpt>
      <trkpt lat="44.04026" lon="5.24479">
        <ele>1547.84</ele>
        <time>2020-09-03T14:12:41Z</time>
      </trkpt>
      <trkpt lat="44.04014" lon="5.24456">
        <ele>1545.833</ele>
        <time>2020-09-03T14:12:43Z</time>
      </trkpt>
      <trkpt lat="44.04009" lon="5.24445">
        <ele>1543.788</ele>
        <time>2020-09-03T14:12:44Z</time>
      </trkpt>
      <trkpt lat="44.04003" lon="5.24434">
        <ele>1540.652</ele>
        <time>2020-09-03T14:12:45Z</time>
      </trkpt>
      <trkpt lat="44.03995" lon="5.24421">
        <ele>1538.177</ele>
        <time>2020-09-03T14:12:46Z</time>
      </trkpt>
      <trkpt lat="44.03988" lon="5.24409">
        <ele>1535.13</ele>
        <time>2020-09-03T14:12:47Z</time>
      </trkpt>
      <trkpt lat="44.03979" lon="5.244">
        <ele>1532.557</ele>
        <time>2020-09-03T14:12:48Z</time>
      </trkpt>
      <trkpt lat="44.03971" lon="5.24392">
        <ele>1530.011</ele>
        <time>2020-09-03T14:12:49Z</time>
      </trkpt>
      <trkpt lat="44.03963" lon="5.24385">
        <ele>1527.755</ele>
        <time>2020-09-03T14:12:50Z</time>
      </trkpt>
      <trkpt lat="44.03954" lon="5.24377">
        <ele>1524.618</ele>
        <time>2020-09-03T14:12:51Z</time>
      </trkpt>
      <trkpt lat="44.03944" lon="5.24368">
        <ele>1521.557</ele>
        <time>2020-09-03T14:12:52Z</time>
      </trkpt>
      <trkpt lat="44.03934" lon="5.2436">
        <ele>1518.819</ele>
        <time>2020-09-03T14:12:53Z</time>
      </trkpt>
      <trkpt lat="44.03915" lon="5.24346">
        <ele>1516.004</ele>
        <time>2020-09-03T14:12:55Z</time>
      </trkpt>
      <trkpt lat="44.03905" lon="5.24338">
        <ele>1512.911</ele>
        <time>2020-09-03T14:12:56Z</time>
      </trkpt>
      <trkpt lat="44.03896" lon="5.24329">
        <ele>1509.638</ele>
        <time>2020-09-03T14:12:57Z</time>
      </trkpt>
      <trkpt lat="44.03886" lon="5.24319">
        <ele>1506.8</ele>
        <time>2020-09-03T14:12:58Z</time>
      </trkpt>
      <trkpt lat="44.03876" lon="5.24311">
        <ele>1503.895</ele>
        <time>2020-09-03T14:12:59Z</time>
      </trkpt>
      <trkpt lat="44.03866" lon="5.24305">
        <ele>1501.209</ele>
        <time>2020-09-03T14:13:00Z</time>
      </trkpt>
      <trkpt lat="44.03856" lon="5.243">
        <ele>1498.211</ele>
        <time>2020-09-03T14:13:01Z</time>
      </trkpt>
      <trkpt lat="44.03845" lon="5.24295">
        <ele>1495.897</ele>
        <time>2020-09-03T14:13:02Z</time>
      </trkpt>
      <trkpt lat="44.03835" lon="5.24293">
        <ele>1493.955</ele>
        <time>2020-09-03T14:13:03Z</time>
      </trkpt>
      <trkpt lat="44.03825" lon="5.24293">
        <ele>1492.81</ele>
        <time>2020-09-03T14:13:04Z</time>
      </trkpt>
      <trkpt lat="44.03816" lon="5.24293">
        <ele>1491.162</ele>
        <time>2020-09-03T14:13:05Z</time>
      </trkpt>
      <trkpt lat="44.03806" lon="5.24291">
        <ele>1488.988</ele>
        <time>2020-09-03T14:13:06Z</time>
      </trkpt>
      <trkpt lat="44.03796" lon="5.24287">
        <ele>1486.767</ele>
        <time>2020-09-03T14:13:07Z</time>
      </trkpt>
      <trkpt lat="44.03786" lon="5.24284">
        <ele>1484.636</ele>
        <time>2020-09-03T14:13:08Z</time>
      </trkpt>
      <trkpt lat="44.03776" lon="5.2428">
        <ele>1482.139</ele>
        <time>2020-09-03T14:13:09Z</time>
      </trkpt>
      <trkpt lat="44.03767" lon="5.24277">
        <ele>1479.697</ele>
        <time>2020-09-03T14:13:10Z</time>
      </trkpt>
      <trkpt lat="44.03758" lon="5.24273">
        <ele>1477.2</ele>
        <time>2020-09-03T14:13:11Z</time>
      </trkpt>
      <trkpt lat="44.03758" lon="5.24273">
        <ele>1475.386</ele>
        <time>2020-09-03T14:13:11Z</time>
      </trkpt>
      <trkpt lat="44.03758" lon="5.24273">
        <ele>1472.401</ele>
        <time>2020-09-03T14:13:11Z</time>
      </trkpt>
      <trkpt lat="44.03721" lon="5.24253">
        <ele>1468.974</ele>
        <time>2020-09-03T14:13:15Z</time>
      </trkpt>
      <trkpt lat="44.03711" lon="5.24248">
        <ele>1466.225</ele>
        <time>2020-09-03T14:13:16Z</time>
      </trkpt>
      <trkpt lat="44.03702" lon="5.24242">
        <ele>1464.028</ele>
        <time>2020-09-03T14:13:17Z</time>
      </trkpt>
      <trkpt lat="44.03693" lon="5.24237">
        <ele>1462.153</ele>
        <time>2020-09-03T14:13:18Z</time>
      </trkpt>
      <trkpt lat="44.03684" lon="5.24232">
        <ele>1460.264</ele>
        <time>2020-09-03T14:13:19Z</time>
      </trkpt>
      <trkpt lat="44.03675" lon="5.24227">
        <ele>1458.232</ele>
        <time>2020-09-03T14:13:20Z</time>
      </trkpt>
      <trkpt lat="44.03667" lon="5.24221">
        <ele>1455.979</ele>
        <time>2020-09-03T14:13:21Z</time>
      </trkpt>
      <trkpt lat="44.03658" lon="5.24214">
        <ele>1453.829</ele>
        <time>2020-09-03T14:13:22Z</time>
      </trkpt>
      <trkpt lat="44.03649" lon="5.24206">
        <ele>1451.775</ele>
        <time>2020-09-03T14:13:23Z</time>
      </trkpt>
      <trkpt lat="44.03641" lon="5.24198">
        <ele>1449.916</ele>
        <time>2020-09-03T14:13:24Z</time>
      </trkpt>
      <trkpt lat="44.03632" lon="5.2419">
        <ele>1448.254</ele>
        <time>2020-09-03T14:13:25Z</time>
      </trkpt>
      <trkpt lat="44.03624" lon="5.24183">
        <ele>1446.689</ele>
        <time>2020-09-03T14:13:26Z</time>
      </trkpt>
      <trkpt lat="44.03616" lon="5.24175">
        <ele>1445.063</ele>
        <time>2020-09-03T14:13:27Z</time>
      </trkpt>
      <trkpt lat="44.03608" lon="5.24167">
        <ele>1443.447</ele>
        <time>2020-09-03T14:13:28Z</time>
      </trkpt>
      <trkpt lat="44.036" lon="5.24158">
        <ele>1441.457</ele>
        <time>2020-09-03T14:13:29Z</time>
      </trkpt>
      <trkpt lat="44.03592" lon="5.2415">
        <ele>1439.679</ele>
        <time>2020-09-03T14:13:30Z</time>
      </trkpt>
      <trkpt lat="44.03592" lon="5.2415">
        <ele>1438.832</ele>
        <time>2020-09-03T14:13:30Z</time>
      </trkpt>
      <trkpt lat="44.03592" lon="5.2415">
        <ele>1437.12</ele>
        <time>2020-09-03T14:13:30Z</time>
      </trkpt>
      <trkpt lat="44.03592" lon="5.2415">
        <ele>1435.459</ele>
        <time>2020-09-03T14:13:30Z</time>
      </trkpt>
      <trkpt lat="44.03561" lon="5.24119">
        <ele>1434.069</ele>
        <time>2020-09-03T14:13:34Z</time>
      </trkpt>
      <trkpt lat="44.03561" lon="5.24119">
        <ele>1432.634</ele>
        <time>2020-09-03T14:13:34Z</time>
      </trkpt>
      <trkpt lat="44.03537" lon="5.24097">
        <ele>1431.172</ele>
        <time>2020-09-03T14:13:37Z</time>
      </trkpt>
      <trkpt lat="44.03529" lon="5.2409">
        <ele>1429.897</ele>
        <time>2020-09-03T14:13:38Z</time>
      </trkpt>
      <trkpt lat="44.03521" lon="5.24085">
        <ele>1428.751</ele>
        <time>2020-09-03T14:13:39Z</time>
      </trkpt>
      <trkpt lat="44.03513" lon="5.2408">
        <ele>1427.385</ele>
        <time>2020-09-03T14:13:40Z</time>
      </trkpt>
      <trkpt lat="44.03505" lon="5.24075">
        <ele>1425.442</ele>
        <time>2020-09-03T14:13:41Z</time>
      </trkpt>
      <trkpt lat="44.03497" lon="5.24068">
        <ele>1423.12</ele>
        <time>2020-09-03T14:13:42Z</time>
      </trkpt>
      <trkpt lat="44.03488" lon="5.24061">
        <ele>1419.552</ele>
        <time>2020-09-03T14:13:43Z</time>
      </trkpt>
      <trkpt lat="44.03479" lon="5.24053">
        <ele>1416.674</ele>
        <time>2020-09-03T14:13:44Z</time>
      </trkpt>
      <trkpt lat="44.03463" lon="5.24036">
        <ele>1414.285</ele>
        <time>2020-09-03T14:13:46Z</time>
      </trkpt>
      <trkpt lat="44.03456" lon="5.24029">
        <ele>1412.583</ele>
        <time>2020-09-03T14:13:47Z</time>
      </trkpt>
      <trkpt lat="44.03449" lon="5.24021">
        <ele>1411.119</ele>
        <time>2020-09-03T14:13:48Z</time>
      </trkpt>
      <trkpt lat="44.03441" lon="5.24013">
        <ele>1409.75</ele>
        <time>2020-09-03T14:13:49Z</time>
      </trkpt>
      <trkpt lat="44.03434" lon="5.24005">
        <ele>1408.315</ele>
        <time>2020-09-03T14:13:50Z</time>
      </trkpt>
      <trkpt lat="44.03426" lon="5.23996">
        <ele>1406.309</ele>
        <time>2020-09-03T14:13:51Z</time>
      </trkpt>
      <trkpt lat="44.03419" lon="5.23985">
        <ele>1404.295</ele>
        <time>2020-09-03T14:13:52Z</time>
      </trkpt>
      <trkpt lat="44.03413" lon="5.23974">
        <ele>1402.555</ele>
        <time>2020-09-03T14:13:53Z</time>
      </trkpt>
      <trkpt lat="44.03406" lon="5.23962">
        <ele>1400.786</ele>
        <time>2020-09-03T14:13:54Z</time>
      </trkpt>
      <trkpt lat="44.03399" lon="5.23952">
        <ele>1399.415</ele>
        <time>2020-09-03T14:13:55Z</time>
      </trkpt>
      <trkpt lat="44.03392" lon="5.23943">
        <ele>1398.265</ele>
        <time>2020-09-03T14:13:56Z</time>
      </trkpt>
      <trkpt lat="44.03384" lon="5.23935">
        <ele>1397.263</ele>
        <time>2020-09-03T14:13:57Z</time>
      </trkpt>
      <trkpt lat="44.03377" lon="5.23927">
        <ele>1396.123</ele>
        <time>2020-09-03T14:13:58Z</time>
      </trkpt>
      <trkpt lat="44.0337" lon="5.2392">
        <ele>1395.096</ele>
        <time>2020-09-03T14:13:59Z</time>
      </trkpt>
      <trkpt lat="44.03362" lon="5.23913">
        <ele>1394.371</ele>
        <time>2020-09-03T14:14:00Z</time>
      </trkpt>
      <trkpt lat="44.03355" lon="5.23906">
        <ele>1392.555</ele>
        <time>2020-09-03T14:14:01Z</time>
      </trkpt>
      <trkpt lat="44.03347" lon="5.23899">
        <ele>1390.634</ele>
        <time>2020-09-03T14:14:02Z</time>
      </trkpt>
      <trkpt lat="44.03339" lon="5.2389">
        <ele>1388.906</ele>
        <time>2020-09-03T14:14:03Z</time>
      </trkpt>
      <trkpt lat="44.03332" lon="5.23882">
        <ele>1387.398</ele>
        <time>2020-09-03T14:14:04Z</time>
      </trkpt>
      <trkpt lat="44.03324" lon="5.23873">
        <ele>1386.135</ele>
        <time>2020-09-03T14:14:05Z</time>
      </trkpt>
      <trkpt lat="44.03324" lon="5.23873">
        <ele>1385.111</ele>
        <time>2020-09-03T14:14:05Z</time>
      </trkpt>
      <trkpt lat="44.03301" lon="5.23851">
        <ele>1384.083</ele>
        <time>2020-09-03T14:14:08Z</time>
      </trkpt>
      <trkpt lat="44.03293" lon="5.23843">
        <ele>1382.71</ele>
        <time>2020-09-03T14:14:09Z</time>
      </trkpt>
      <trkpt lat="44.03285" lon="5.23836">
        <ele>1381.1</ele>
        <time>2020-09-03T14:14:10Z</time>
      </trkpt>
      <trkpt lat="44.03277" lon="5.23828">
        <ele>1379.7</ele>
        <time>2020-09-03T14:14:11Z</time>
      </trkpt>
      <trkpt lat="44.03269" lon="5.23819">
        <ele>1378.185</ele>
        <time>2020-09-03T14:14:12Z</time>
      </trkpt>
      <trkpt lat="44.0326" lon="5.23811">
        <ele>1376.962</ele>
        <time>2020-09-03T14:14:13Z</time>
      </trkpt>
      <trkpt lat="44.03252" lon="5.23803">
        <ele>1375.669</ele>
        <time>2020-09-03T14:14:14Z</time>
      </trkpt>
      <trkpt lat="44.03244" lon="5.23796">
        <ele>1374.454</ele>
        <time>2020-09-03T14:14:15Z</time>
      </trkpt>
      <trkpt lat="44.03236" lon="5.23789">
        <ele>1373.269</ele>
        <time>2020-09-03T14:14:16Z</time>
      </trkpt>
      <trkpt lat="44.03227" lon="5.23781">
        <ele>1372.094</ele>
        <time>2020-09-03T14:14:17Z</time>
      </trkpt>
      <trkpt lat="44.03218" lon="5.23774">
        <ele>1371.275</ele>
        <time>2020-09-03T14:14:18Z</time>
      </trkpt>
      <trkpt lat="44.03208" lon="5.23768">
        <ele>1370.252</ele>
        <time>2020-09-03T14:14:19Z</time>
      </trkpt>
      <trkpt lat="44.03198" lon="5.23762">
        <ele>1369.767</ele>
        <time>2020-09-03T14:14:20Z</time>
      </trkpt>
      <trkpt lat="44.03189" lon="5.23756">
        <ele>1369.445</ele>
        <time>2020-09-03T14:14:21Z</time>
      </trkpt>
      <trkpt lat="44.0318" lon="5.2375">
        <ele>1369.223</ele>
        <time>2020-09-03T14:14:22Z</time>
      </trkpt>
      <trkpt lat="44.03171" lon="5.23743">
        <ele>1368.851</ele>
        <time>2020-09-03T14:14:23Z</time>
      </trkpt>
      <trkpt lat="44.03162" lon="5.23737">
        <ele>1368.289</ele>
        <time>2020-09-03T14:14:24Z</time>
      </trkpt>
      <trkpt lat="44.03154" lon="5.23731">
        <ele>1367.694</ele>
        <time>2020-09-03T14:14:25Z</time>
      </trkpt>
      <trkpt lat="44.03145" lon="5.23723">
        <ele>1367.229</ele>
        <time>2020-09-03T14:14:26Z</time>
      </trkpt>
      <trkpt lat="44.03145" lon="5.23723">
        <ele>1367.03</ele>
        <time>2020-09-03T14:14:26Z</time>
      </trkpt>
      <trkpt lat="44.03129" lon="5.23707">
        <ele>1366.865</ele>
        <time>2020-09-03T14:14:28Z</time>
      </trkpt>
      <trkpt lat="44.0312" lon="5.23699">
        <ele>1367.006</ele>
        <time>2020-09-03T14:14:29Z</time>
      </trkpt>
      <trkpt lat="44.03101" lon="5.23679">
        <ele>1367.606</ele>
        <time>2020-09-03T14:14:31Z</time>
      </trkpt>
      <trkpt lat="44.03092" lon="5.2367">
        <ele>1369.288</ele>
        <time>2020-09-03T14:14:32Z</time>
      </trkpt>
      <trkpt lat="44.03084" lon="5.23662">
        <ele>1371.436</ele>
        <time>2020-09-03T14:14:33Z</time>
      </trkpt>
      <trkpt lat="44.03075" lon="5.23656">
        <ele>1374.373</ele>
        <time>2020-09-03T14:14:34Z</time>
      </trkpt>
      <trkpt lat="44.03068" lon="5.2365">
        <ele>1378.028</ele>
        <time>2020-09-03T14:14:35Z</time>
      </trkpt>
      <trkpt lat="44.03061" lon="5.23644">
        <ele>1380.305</ele>
        <time>2020-09-03T14:14:36Z</time>
      </trkpt>
      <trkpt lat="44.03056" lon="5.23637">
        <ele>1382.29</ele>
        <time>2020-09-03T14:14:37Z</time>
      </trkpt>
      <trkpt lat="44.0305" lon="5.23629">
        <ele>1383.717</ele>
        <time>2020-09-03T14:14:38Z</time>
      </trkpt>
      <trkpt lat="44.03047" lon="5.23618">
        <ele>1384.689</ele>
        <time>2020-09-03T14:14:39Z</time>
      </trkpt>
      <trkpt lat="44.03047" lon="5.23618">
        <ele>1385.276</ele>
        <time>2020-09-03T14:14:39Z</time>
      </trkpt>
      <trkpt lat="44.03047" lon="5.23618">
        <ele>1385.599</ele>
        <time>2020-09-03T14:14:39Z</time>
      </trkpt>
      <trkpt lat="44.03047" lon="5.23618">
        <ele>1385.819</ele>
        <time>2020-09-03T14:14:39Z</time>
      </trkpt>
      <trkpt lat="44.03047" lon="5.23618">
        <ele>1385.889</ele>
        <time>2020-09-03T14:14:39Z</time>
      </trkpt>
      <trkpt lat="44.03061" lon="5.23569">
        <ele>1385.799</ele>
        <time>2020-09-03T14:14:44Z</time>
      </trkpt>
      <trkpt lat="44.03061" lon="5.23569">
        <ele>1385.621</ele>
        <time>2020-09-03T14:14:44Z</time>
      </trkpt>
      <trkpt lat="44.03061" lon="5.23569">
        <ele>1385.371</ele>
        <time>2020-09-03T14:14:44Z</time>
      </trkpt>
      <trkpt lat="44.03061" lon="5.23569">
        <ele>1385.183</ele>
        <time>2020-09-03T14:14:44Z</time>
      </trkpt>
      <trkpt lat="44.03061" lon="5.23569">
        <ele>1385.146</ele>
        <time>2020-09-03T14:14:44Z</time>
      </trkpt>
      <trkpt lat="44.03106" lon="5.23578">
        <ele>1385.034</ele>
        <time>2020-09-03T14:14:49Z</time>
      </trkpt>
      <trkpt lat="44.03111" lon="5.23588">
        <ele>1384.741</ele>
        <time>2020-09-03T14:14:50Z</time>
      </trkpt>
      <trkpt lat="44.03113" lon="5.236">
        <ele>1384.355</ele>
        <time>2020-09-03T14:14:51Z</time>
      </trkpt>
      <trkpt lat="44.03109" lon="5.23623">
        <ele>1384.241</ele>
        <time>2020-09-03T14:14:53Z</time>
      </trkpt>
      <trkpt lat="44.03105" lon="5.23632">
        <ele>1384.773</ele>
        <time>2020-09-03T14:14:54Z</time>
      </trkpt>
      <trkpt lat="44.031" lon="5.23641">
        <ele>1385.358</ele>
        <time>2020-09-03T14:14:55Z</time>
      </trkpt>
      <trkpt lat="44.03096" lon="5.23649">
        <ele>1386.664</ele>
        <time>2020-09-03T14:14:56Z</time>
      </trkpt>
      <trkpt lat="44.03091" lon="5.23657">
        <ele>1387.953</ele>
        <time>2020-09-03T14:14:57Z</time>
      </trkpt>
      <trkpt lat="44.03086" lon="5.23665">
        <ele>1389.179</ele>
        <time>2020-09-03T14:14:58Z</time>
      </trkpt>
      <trkpt lat="44.03081" lon="5.23674">
        <ele>1390.282</ele>
        <time>2020-09-03T14:14:59Z</time>
      </trkpt>
      <trkpt lat="44.03075" lon="5.23683">
        <ele>1391.429</ele>
        <time>2020-09-03T14:15:00Z</time>
      </trkpt>
      <trkpt lat="44.03062" lon="5.23699">
        <ele>1392.994</ele>
        <time>2020-09-03T14:15:02Z</time>
      </trkpt>
      <trkpt lat="44.03056" lon="5.23707">
        <ele>1394.557</ele>
        <time>2020-09-03T14:15:03Z</time>
      </trkpt>
      <trkpt lat="44.0305" lon="5.23714">
        <ele>1396.122</ele>
        <time>2020-09-03T14:15:04Z</time>
      </trkpt>
      <trkpt lat="44.03044" lon="5.2372">
        <ele>1397.674</ele>
        <time>2020-09-03T14:15:05Z</time>
      </trkpt>
      <trkpt lat="44.03038" lon="5.23726">
        <ele>1399.575</ele>
        <time>2020-09-03T14:15:06Z</time>
      </trkpt>
      <trkpt lat="44.03032" lon="5.23732">
        <ele>1401.307</ele>
        <time>2020-09-03T14:15:07Z</time>
      </trkpt>
      <trkpt lat="44.03026" lon="5.23741">
        <ele>1403.152</ele>
        <time>2020-09-03T14:15:08Z</time>
      </trkpt>
      <trkpt lat="44.03022" lon="5.2375">
        <ele>1404.923</ele>
        <time>2020-09-03T14:15:09Z</time>
      </trkpt>
      <trkpt lat="44.03021" lon="5.23761">
        <ele>1406.336</ele>
        <time>2020-09-03T14:15:10Z</time>
      </trkpt>
      <trkpt lat="44.03024" lon="5.23773">
        <ele>1407.664</ele>
        <time>2020-09-03T14:15:11Z</time>
      </trkpt>
      <trkpt lat="44.03031" lon="5.23782">
        <ele>1409.219</ele>
        <time>2020-09-03T14:15:12Z</time>
      </trkpt>
      <trkpt lat="44.03041" lon="5.23787">
        <ele>1410.917</ele>
        <time>2020-09-03T14:15:13Z</time>
      </trkpt>
      <trkpt lat="44.03049" lon="5.23783">
        <ele>1412.623</ele>
        <time>2020-09-03T14:15:14Z</time>
      </trkpt>
      <trkpt lat="44.03056" lon="5.23773">
        <ele>1413.993</ele>
        <time>2020-09-03T14:15:15Z</time>
      </trkpt>
      <trkpt lat="44.03059" lon="5.2376">
        <ele>1415.25</ele>
        <time>2020-09-03T14:15:16Z</time>
      </trkpt>
      <trkpt lat="44.0306" lon="5.23745">
        <ele>1416.481</ele>
        <time>2020-09-03T14:15:17Z</time>
      </trkpt>
      <trkpt lat="44.03057" lon="5.23731">
        <ele>1417.976</ele>
        <time>2020-09-03T14:15:18Z</time>
      </trkpt>
      <trkpt lat="44.03051" lon="5.2372">
        <ele>1419.544</ele>
        <time>2020-09-03T14:15:19Z</time>
      </trkpt>
      <trkpt lat="44.03044" lon="5.23714">
        <ele>1421.495</ele>
        <time>2020-09-03T14:15:20Z</time>
      </trkpt>
      <trkpt lat="44.03026" lon="5.23711">
        <ele>1423.629</ele>
        <time>2020-09-03T14:15:22Z</time>
      </trkpt>
      <trkpt lat="44.03018" lon="5.23714">
        <ele>1425.163</ele>
        <time>2020-09-03T14:15:23Z</time>
      </trkpt>
      <trkpt lat="44.03018" lon="5.23714">
        <ele>1426.15</ele>
        <time>2020-09-03T14:15:23Z</time>
      </trkpt>
      <trkpt lat="44.03011" lon="5.23733">
        <ele>1427.855</ele>
        <time>2020-09-03T14:15:25Z</time>
      </trkpt>
      <trkpt lat="44.03014" lon="5.23745">
        <ele>1429.265</ele>
        <time>2020-09-03T14:15:26Z</time>
      </trkpt>
      <trkpt lat="44.0302" lon="5.23754">
        <ele>1430.37</ele>
        <time>2020-09-03T14:15:27Z</time>
      </trkpt>
      <trkpt lat="44.03028" lon="5.2376">
        <ele>1432.077</ele>
        <time>2020-09-03T14:15:28Z</time>
      </trkpt>
      <trkpt lat="44.03038" lon="5.23762">
        <ele>1433.698</ele>
        <time>2020-09-03T14:15:29Z</time>
      </trkpt>
      <trkpt lat="44.03047" lon="5.23758">
        <ele>1435.549</ele>
        <time>2020-09-03T14:15:30Z</time>
      </trkpt>
      <trkpt lat="44.03055" lon="5.2375">
        <ele>1437.173</ele>
        <time>2020-09-03T14:15:31Z</time>
      </trkpt>
      <trkpt lat="44.03055" lon="5.2375">
        <ele>1438.189</ele>
        <time>2020-09-03T14:15:31Z</time>
      </trkpt>
      <trkpt lat="44.03055" lon="5.2375">
        <ele>1439.071</ele>
        <time>2020-09-03T14:15:31Z</time>
      </trkpt>
      <trkpt lat="44.03064" lon="5.23711">
        <ele>1439.759</ele>
        <time>2020-09-03T14:15:34Z</time>
      </trkpt>
      <trkpt lat="44.03064" lon="5.23711">
        <ele>1440.515</ele>
        <time>2020-09-03T14:15:34Z</time>
      </trkpt>
      <trkpt lat="44.03064" lon="5.23711">
        <ele>1441.415</ele>
        <time>2020-09-03T14:15:34Z</time>
      </trkpt>
      <trkpt lat="44.03064" lon="5.23711">
        <ele>1442.483</ele>
        <time>2020-09-03T14:15:34Z</time>
      </trkpt>
      <trkpt lat="44.03064" lon="5.23711">
        <ele>1443.748</ele>
        <time>2020-09-03T14:15:34Z</time>
      </trkpt>
      <trkpt lat="44.03035" lon="5.23658">
        <ele>1445.257</ele>
        <time>2020-09-03T14:15:39Z</time>
      </trkpt>
      <trkpt lat="44.03026" lon="5.23651">
        <ele>1446.772</ele>
        <time>2020-09-03T14:15:40Z</time>
      </trkpt>
      <trkpt lat="44.03018" lon="5.23646">
        <ele>1448.04</ele>
        <time>2020-09-03T14:15:41Z</time>
      </trkpt>
      <trkpt lat="44.0301" lon="5.23644">
        <ele>1448.69</ele>
        <time>2020-09-03T14:15:42Z</time>
      </trkpt>
      <trkpt lat="44.03001" lon="5.23646">
        <ele>1448.786</ele>
        <time>2020-09-03T14:15:43Z</time>
      </trkpt>
      <trkpt lat="44.02986" lon="5.23657">
        <ele>1448.172</ele>
        <time>2020-09-03T14:15:45Z</time>
      </trkpt>
      <trkpt lat="44.0298" lon="5.23666">
        <ele>1447.292</ele>
        <time>2020-09-03T14:15:46Z</time>
      </trkpt>
      <trkpt lat="44.02977" lon="5.23676">
        <ele>1446.618</ele>
        <time>2020-09-03T14:15:47Z</time>
      </trkpt>
      <trkpt lat="44.02974" lon="5.23686">
        <ele>1446.242</ele>
        <time>2020-09-03T14:15:48Z</time>
      </trkpt>
      <trkpt lat="44.02973" lon="5.23697">
        <ele>1446.055</ele>
        <time>2020-09-03T14:15:49Z</time>
      </trkpt>
      <trkpt lat="44.02972" lon="5.23707">
        <ele>1446.189</ele>
        <time>2020-09-03T14:15:50Z</time>
      </trkpt>
      <trkpt lat="44.02972" lon="5.23707">
        <ele>1446.44</ele>
        <time>2020-09-03T14:15:50Z</time>
      </trkpt>
      <trkpt lat="44.02973" lon="5.23737">
        <ele>1446.977</ele>
        <time>2020-09-03T14:15:53Z</time>
      </trkpt>
      <trkpt lat="44.02976" lon="5.23748">
        <ele>1447.468</ele>
        <time>2020-09-03T14:15:54Z</time>
      </trkpt>
      <trkpt lat="44.02979" lon="5.23757">
        <ele>1448.008</ele>
        <time>2020-09-03T14:15:55Z</time>
      </trkpt>
      <trkpt lat="44.02982" lon="5.23767">
        <ele>1448.676</ele>
        <time>2020-09-03T14:15:56Z</time>
      </trkpt>
      <trkpt lat="44.02984" lon="5.23777">
        <ele>1449.03</ele>
        <time>2020-09-03T14:15:57Z</time>
      </trkpt>
      <trkpt lat="44.02987" lon="5.23787">
        <ele>1449.295</ele>
        <time>2020-09-03T14:15:58Z</time>
      </trkpt>
      <trkpt lat="44.02989" lon="5.23797">
        <ele>1449.526</ele>
        <time>2020-09-03T14:15:59Z</time>
      </trkpt>
      <trkpt lat="44.02991" lon="5.23808">
        <ele>1450.035</ele>
        <time>2020-09-03T14:16:00Z</time>
      </trkpt>
      <trkpt lat="44.02992" lon="5.23818">
        <ele>1450.953</ele>
        <time>2020-09-03T14:16:01Z</time>
      </trkpt>
      <trkpt lat="44.02992" lon="5.23827">
        <ele>1452.077</ele>
        <time>2020-09-03T14:16:02Z</time>
      </trkpt>
      <trkpt lat="44.02993" lon="5.23836">
        <ele>1453.803</ele>
        <time>2020-09-03T14:16:03Z</time>
      </trkpt>
      <trkpt lat="44.02993" lon="5.23844">
        <ele>1455.312</ele>
        <time>2020-09-03T14:16:04Z</time>
      </trkpt>
      <trkpt lat="44.02993" lon="5.23853">
        <ele>1456.968</ele>
        <time>2020-09-03T14:16:05Z</time>
      </trkpt>
      <trkpt lat="44.02992" lon="5.23861">
        <ele>1458.002</ele>
        <time>2020-09-03T14:16:06Z</time>
      </trkpt>
      <trkpt lat="44.02989" lon="5.23869">
        <ele>1458.333</ele>
        <time>2020-09-03T14:16:07Z</time>
      </trkpt>
      <trkpt lat="44.02986" lon="5.23877">
        <ele>1458.048</ele>
        <time>2020-09-03T14:16:08Z</time>
      </trkpt>
      <trkpt lat="44.02981" lon="5.23885">
        <ele>1457.018</ele>
        <time>2020-09-03T14:16:09Z</time>
      </trkpt>
      <trkpt lat="44.02975" lon="5.23889">
        <ele>1455.294</ele>
        <time>2020-09-03T14:16:10Z</time>
      </trkpt>
      <trkpt lat="44.02975" lon="5.23889">
        <ele>1453.591</ele>
        <time>2020-09-03T14:16:10Z</time>
      </trkpt>
      <trkpt lat="44.02949" lon="5.23885">
        <ele>1451.214</ele>
        <time>2020-09-03T14:16:13Z</time>
      </trkpt>
      <trkpt lat="44.02942" lon="5.23876">
        <ele>1448.667</ele>
        <time>2020-09-03T14:16:14Z</time>
      </trkpt>
      <trkpt lat="44.02937" lon="5.23863">
        <ele>1446.358</ele>
        <time>2020-09-03T14:16:15Z</time>
      </trkpt>
      <trkpt lat="44.02933" lon="5.23848">
        <ele>1444.943</ele>
        <time>2020-09-03T14:16:16Z</time>
      </trkpt>
      <trkpt lat="44.02931" lon="5.23834">
        <ele>1444.134</ele>
        <time>2020-09-03T14:16:17Z</time>
      </trkpt>
      <trkpt lat="44.02927" lon="5.2382">
        <ele>1443.845</ele>
        <time>2020-09-03T14:16:18Z</time>
      </trkpt>
      <trkpt lat="44.02922" lon="5.23809">
        <ele>1443.518</ele>
        <time>2020-09-03T14:16:19Z</time>
      </trkpt>
      <trkpt lat="44.02922" lon="5.23809">
        <ele>1442.894</ele>
        <time>2020-09-03T14:16:19Z</time>
      </trkpt>
      <trkpt lat="44.02913" lon="5.23786">
        <ele>1441.078</ele>
        <time>2020-09-03T14:16:21Z</time>
      </trkpt>
      <trkpt lat="44.02913" lon="5.23786">
        <ele>1438.921</ele>
        <time>2020-09-03T14:16:21Z</time>
      </trkpt>
      <trkpt lat="44.02913" lon="5.23786">
        <ele>1436.951</ele>
        <time>2020-09-03T14:16:21Z</time>
      </trkpt>
      <trkpt lat="44.02896" lon="5.23743">
        <ele>1435.519</ele>
        <time>2020-09-03T14:16:24Z</time>
      </trkpt>
      <trkpt lat="44.02896" lon="5.23743">
        <ele>1434.877</ele>
        <time>2020-09-03T14:16:24Z</time>
      </trkpt>
      <trkpt lat="44.02896" lon="5.23743">
        <ele>1434.436</ele>
        <time>2020-09-03T14:16:24Z</time>
      </trkpt>
      <trkpt lat="44.02881" lon="5.23713">
        <ele>1433.643</ele>
        <time>2020-09-03T14:16:27Z</time>
      </trkpt>
      <trkpt lat="44.02875" lon="5.23701">
        <ele>1432.365</ele>
        <time>2020-09-03T14:16:28Z</time>
      </trkpt>
      <trkpt lat="44.02863" lon="5.23675">
        <ele>1430.749</ele>
        <time>2020-09-03T14:16:30Z</time>
      </trkpt>
      <trkpt lat="44.02857" lon="5.23663">
        <ele>1429.345</ele>
        <time>2020-09-03T14:16:31Z</time>
      </trkpt>
      <trkpt lat="44.02851" lon="5.23653">
        <ele>1428.41</ele>
        <time>2020-09-03T14:16:32Z</time>
      </trkpt>
      <trkpt lat="44.02845" lon="5.23642">
        <ele>1427.849</ele>
        <time>2020-09-03T14:16:33Z</time>
      </trkpt>
      <trkpt lat="44.02845" lon="5.23642">
        <ele>1427.181</ele>
        <time>2020-09-03T14:16:33Z</time>
      </trkpt>
      <trkpt lat="44.02834" lon="5.2362">
        <ele>1426.141</ele>
        <time>2020-09-03T14:16:35Z</time>
      </trkpt>
      <trkpt lat="44.02827" lon="5.23607">
        <ele>1424.695</ele>
        <time>2020-09-03T14:16:36Z</time>
      </trkpt>
      <trkpt lat="44.0282" lon="5.23595">
        <ele>1423.454</ele>
        <time>2020-09-03T14:16:37Z</time>
      </trkpt>
      <trkpt lat="44.02813" lon="5.23585">
        <ele>1422.37</ele>
        <time>2020-09-03T14:16:38Z</time>
      </trkpt>
      <trkpt lat="44.02805" lon="5.23578">
        <ele>1421.328</ele>
        <time>2020-09-03T14:16:39Z</time>
      </trkpt>
      <trkpt lat="44.02798" lon="5.23571">
        <ele>1420.103</ele>
        <time>2020-09-03T14:16:40Z</time>
      </trkpt>
      <trkpt lat="44.02791" lon="5.23564">
        <ele>1418.499</ele>
        <time>2020-09-03T14:16:41Z</time>
      </trkpt>
      <trkpt lat="44.02777" lon="5.23548">
        <ele>1416.631</ele>
        <time>2020-09-03T14:16:43Z</time>
      </trkpt>
      <trkpt lat="44.02777" lon="5.23548">
        <ele>1415.018</ele>
        <time>2020-09-03T14:16:43Z</time>
      </trkpt>
      <trkpt lat="44.02761" lon="5.23533">
        <ele>1413.852</ele>
        <time>2020-09-03T14:16:45Z</time>
      </trkpt>
      <trkpt lat="44.02754" lon="5.23527">
        <ele>1413.188</ele>
        <time>2020-09-03T14:16:46Z</time>
      </trkpt>
      <trkpt lat="44.02746" lon="5.2352">
        <ele>1412.848</ele>
        <time>2020-09-03T14:16:47Z</time>
      </trkpt>
      <trkpt lat="44.02738" lon="5.23513">
        <ele>1412.649</ele>
        <time>2020-09-03T14:16:48Z</time>
      </trkpt>
      <trkpt lat="44.02729" lon="5.23506">
        <ele>1412.303</ele>
        <time>2020-09-03T14:16:49Z</time>
      </trkpt>
      <trkpt lat="44.02719" lon="5.23499">
        <ele>1412.02</ele>
        <time>2020-09-03T14:16:50Z</time>
      </trkpt>
      <trkpt lat="44.02711" lon="5.23492">
        <ele>1412.259</ele>
        <time>2020-09-03T14:16:51Z</time>
      </trkpt>
      <trkpt lat="44.02701" lon="5.23487">
        <ele>1412.889</ele>
        <time>2020-09-03T14:16:52Z</time>
      </trkpt>
      <trkpt lat="44.02692" lon="5.23481">
        <ele>1413.736</ele>
        <time>2020-09-03T14:16:53Z</time>
      </trkpt>
      <trkpt lat="44.02684" lon="5.23475">
        <ele>1414.349</ele>
        <time>2020-09-03T14:16:54Z</time>
      </trkpt>
      <trkpt lat="44.02677" lon="5.23468">
        <ele>1414.62</ele>
        <time>2020-09-03T14:16:55Z</time>
      </trkpt>
      <trkpt lat="44.02669" lon="5.23461">
        <ele>1414.263</ele>
        <time>2020-09-03T14:16:56Z</time>
      </trkpt>
      <trkpt lat="44.0266" lon="5.23456">
        <ele>1413.348</ele>
        <time>2020-09-03T14:16:57Z</time>
      </trkpt>
      <trkpt lat="44.02651" lon="5.2345">
        <ele>1412.124</ele>
        <time>2020-09-03T14:16:58Z</time>
      </trkpt>
      <trkpt lat="44.02641" lon="5.23444">
        <ele>1410.828</ele>
        <time>2020-09-03T14:16:59Z</time>
      </trkpt>
      <trkpt lat="44.02632" lon="5.23438">
        <ele>1409.419</ele>
        <time>2020-09-03T14:17:00Z</time>
      </trkpt>
      <trkpt lat="44.02622" lon="5.2343">
        <ele>1408.52</ele>
        <time>2020-09-03T14:17:01Z</time>
      </trkpt>
      <trkpt lat="44.0261" lon="5.23422">
        <ele>1408.42</ele>
        <time>2020-09-03T14:17:02Z</time>
      </trkpt>
      <trkpt lat="44.02599" lon="5.23415">
        <ele>1409.475</ele>
        <time>2020-09-03T14:17:03Z</time>
      </trkpt>
      <trkpt lat="44.0259" lon="5.2341">
        <ele>1411.547</ele>
        <time>2020-09-03T14:17:04Z</time>
      </trkpt>
      <trkpt lat="44.0259" lon="5.2341">
        <ele>1413.28</ele>
        <time>2020-09-03T14:17:04Z</time>
      </trkpt>
      <trkpt lat="44.02566" lon="5.23396">
        <ele>1415.106</ele>
        <time>2020-09-03T14:17:07Z</time>
      </trkpt>
      <trkpt lat="44.02556" lon="5.23393">
        <ele>1416.505</ele>
        <time>2020-09-03T14:17:08Z</time>
      </trkpt>
      <trkpt lat="44.02546" lon="5.23394">
        <ele>1417.376</ele>
        <time>2020-09-03T14:17:09Z</time>
      </trkpt>
      <trkpt lat="44.02534" lon="5.23399">
        <ele>1417.799</ele>
        <time>2020-09-03T14:17:10Z</time>
      </trkpt>
      <trkpt lat="44.02524" lon="5.23408">
        <ele>1418.26</ele>
        <time>2020-09-03T14:17:11Z</time>
      </trkpt>
      <trkpt lat="44.02516" lon="5.23421">
        <ele>1418.856</ele>
        <time>2020-09-03T14:17:12Z</time>
      </trkpt>
      <trkpt lat="44.02509" lon="5.23434">
        <ele>1419.464</ele>
        <time>2020-09-03T14:17:13Z</time>
      </trkpt>
      <trkpt lat="44.02506" lon="5.23448">
        <ele>1419.916</ele>
        <time>2020-09-03T14:17:14Z</time>
      </trkpt>
      <trkpt lat="44.02506" lon="5.23462">
        <ele>1420.162</ele>
        <time>2020-09-03T14:17:15Z</time>
      </trkpt>
      <trkpt lat="44.02506" lon="5.23462">
        <ele>1420.086</ele>
        <time>2020-09-03T14:17:15Z</time>
      </trkpt>
      <trkpt lat="44.02515" lon="5.23485">
        <ele>1419.783</ele>
        <time>2020-09-03T14:17:17Z</time>
      </trkpt>
      <trkpt lat="44.02521" lon="5.23489">
        <ele>1419.614</ele>
        <time>2020-09-03T14:17:18Z</time>
      </trkpt>
      <trkpt lat="44.0253" lon="5.23487">
        <ele>1419.539</ele>
        <time>2020-09-03T14:17:19Z</time>
      </trkpt>
      <trkpt lat="44.0253" lon="5.23487">
        <ele>1419.556</ele>
        <time>2020-09-03T14:17:19Z</time>
      </trkpt>
      <trkpt lat="44.0253" lon="5.23487">
        <ele>1419.761</ele>
        <time>2020-09-03T14:17:19Z</time>
      </trkpt>
      <trkpt lat="44.0253" lon="5.23487">
        <ele>1420.187</ele>
        <time>2020-09-03T14:17:19Z</time>
      </trkpt>
      <trkpt lat="44.0253" lon="5.23487">
        <ele>1420.772</ele>
        <time>2020-09-03T14:17:19Z</time>
      </trkpt>
      <trkpt lat="44.02539" lon="5.23442">
        <ele>1421.556</ele>
        <time>2020-09-03T14:17:24Z</time>
      </trkpt>
      <trkpt lat="44.02539" lon="5.23442">
        <ele>1422.388</ele>
        <time>2020-09-03T14:17:24Z</time>
      </trkpt>
      <trkpt lat="44.02539" lon="5.23415">
        <ele>1423.448</ele>
        <time>2020-09-03T14:17:27Z</time>
      </trkpt>
      <trkpt lat="44.0254" lon="5.23408">
        <ele>1424.372</ele>
        <time>2020-09-03T14:17:28Z</time>
      </trkpt>
      <trkpt lat="44.02541" lon="5.234">
        <ele>1425.035</ele>
        <time>2020-09-03T14:17:29Z</time>
      </trkpt>
      <trkpt lat="44.02543" lon="5.23392">
        <ele>1425.678</ele>
        <time>2020-09-03T14:17:30Z</time>
      </trkpt>
      <trkpt lat="44.02543" lon="5.23383">
        <ele>1426.058</ele>
        <time>2020-09-03T14:17:31Z</time>
      </trkpt>
      <trkpt lat="44.02541" lon="5.23373">
        <ele>1426.224</ele>
        <time>2020-09-03T14:17:32Z</time>
      </trkpt>
      <trkpt lat="44.02541" lon="5.23373">
        <ele>1426.238</ele>
        <time>2020-09-03T14:17:32Z</time>
      </trkpt>
      <trkpt lat="44.02529" lon="5.23356">
        <ele>1425.983</ele>
        <time>2020-09-03T14:17:34Z</time>
      </trkpt>
      <trkpt lat="44.0251" lon="5.23346">
        <ele>1425.423</ele>
        <time>2020-09-03T14:17:36Z</time>
      </trkpt>
      <trkpt lat="44.02499" lon="5.23343">
        <ele>1424.83</ele>
        <time>2020-09-03T14:17:37Z</time>
      </trkpt>
      <trkpt lat="44.02487" lon="5.2334">
        <ele>1424.427</ele>
        <time>2020-09-03T14:17:38Z</time>
      </trkpt>
      <trkpt lat="44.02476" lon="5.23336">
        <ele>1424.107</ele>
        <time>2020-09-03T14:17:39Z</time>
      </trkpt>
      <trkpt lat="44.02466" lon="5.23332">
        <ele>1423.958</ele>
        <time>2020-09-03T14:17:40Z</time>
      </trkpt>
      <trkpt lat="44.02456" lon="5.23327">
        <ele>1424.102</ele>
        <time>2020-09-03T14:17:41Z</time>
      </trkpt>
      <trkpt lat="44.02447" lon="5.23321">
        <ele>1424.366</ele>
        <time>2020-09-03T14:17:42Z</time>
      </trkpt>
      <trkpt lat="44.02439" lon="5.23315">
        <ele>1424.615</ele>
        <time>2020-09-03T14:17:43Z</time>
      </trkpt>
      <trkpt lat="44.0243" lon="5.23307">
        <ele>1424.576</ele>
        <time>2020-09-03T14:17:44Z</time>
      </trkpt>
      <trkpt lat="44.02422" lon="5.23299">
        <ele>1424.158</ele>
        <time>2020-09-03T14:17:45Z</time>
      </trkpt>
      <trkpt lat="44.02422" lon="5.23299">
        <ele>1423.546</ele>
        <time>2020-09-03T14:17:45Z</time>
      </trkpt>
      <trkpt lat="44.02405" lon="5.23282">
        <ele>1423.087</ele>
        <time>2020-09-03T14:17:47Z</time>
      </trkpt>
      <trkpt lat="44.02396" lon="5.23274">
        <ele>1423.05</ele>
        <time>2020-09-03T14:17:48Z</time>
      </trkpt>
      <trkpt lat="44.02387" lon="5.23267">
        <ele>1423.37</ele>
        <time>2020-09-03T14:17:49Z</time>
      </trkpt>
      <trkpt lat="44.02378" lon="5.23261">
        <ele>1424.237</ele>
        <time>2020-09-03T14:17:50Z</time>
      </trkpt>
      <trkpt lat="44.0237" lon="5.23255">
        <ele>1425.12</ele>
        <time>2020-09-03T14:17:51Z</time>
      </trkpt>
      <trkpt lat="44.02362" lon="5.23249">
        <ele>1426.041</ele>
        <time>2020-09-03T14:17:52Z</time>
      </trkpt>
      <trkpt lat="44.02355" lon="5.23242">
        <ele>1426.895</ele>
        <time>2020-09-03T14:17:53Z</time>
      </trkpt>
      <trkpt lat="44.02347" lon="5.23235">
        <ele>1427.392</ele>
        <time>2020-09-03T14:17:54Z</time>
      </trkpt>
      <trkpt lat="44.02332" lon="5.23224">
        <ele>1427.6</ele>
        <time>2020-09-03T14:17:56Z</time>
      </trkpt>
      <trkpt lat="44.02323" lon="5.23219">
        <ele>1427.587</ele>
        <time>2020-09-03T14:17:57Z</time>
      </trkpt>
      <trkpt lat="44.02315" lon="5.23214">
        <ele>1427.257</ele>
        <time>2020-09-03T14:17:58Z</time>
      </trkpt>
      <trkpt lat="44.02307" lon="5.23207">
        <ele>1426.224</ele>
        <time>2020-09-03T14:17:59Z</time>
      </trkpt>
      <trkpt lat="44.02299" lon="5.232">
        <ele>1424.99</ele>
        <time>2020-09-03T14:18:00Z</time>
      </trkpt>
      <trkpt lat="44.02291" lon="5.23191">
        <ele>1423.163</ele>
        <time>2020-09-03T14:18:01Z</time>
      </trkpt>
      <trkpt lat="44.02282" lon="5.23182">
        <ele>1421.113</ele>
        <time>2020-09-03T14:18:02Z</time>
      </trkpt>
      <trkpt lat="44.02272" lon="5.23174">
        <ele>1419.715</ele>
        <time>2020-09-03T14:18:03Z</time>
      </trkpt>
      <trkpt lat="44.02262" lon="5.23167">
        <ele>1419.046</ele>
        <time>2020-09-03T14:18:04Z</time>
      </trkpt>
      <trkpt lat="44.02262" lon="5.23167">
        <ele>1418.645</ele>
        <time>2020-09-03T14:18:04Z</time>
      </trkpt>
      <trkpt lat="44.02262" lon="5.23167">
        <ele>1418.16</ele>
        <time>2020-09-03T14:18:04Z</time>
      </trkpt>
      <trkpt lat="44.02238" lon="5.23145">
        <ele>1417.929</ele>
        <time>2020-09-03T14:18:07Z</time>
      </trkpt>
      <trkpt lat="44.02238" lon="5.23145">
        <ele>1417.954</ele>
        <time>2020-09-03T14:18:07Z</time>
      </trkpt>
      <trkpt lat="44.02221" lon="5.23128">
        <ele>1418.212</ele>
        <time>2020-09-03T14:18:09Z</time>
      </trkpt>
      <trkpt lat="44.02212" lon="5.23122">
        <ele>1418.554</ele>
        <time>2020-09-03T14:18:10Z</time>
      </trkpt>
      <trkpt lat="44.02203" lon="5.23117">
        <ele>1418.4</ele>
        <time>2020-09-03T14:18:11Z</time>
      </trkpt>
      <trkpt lat="44.02187" lon="5.23104">
        <ele>1417.908</ele>
        <time>2020-09-03T14:18:13Z</time>
      </trkpt>
      <trkpt lat="44.02187" lon="5.23104">
        <ele>1416.238</ele>
        <time>2020-09-03T14:18:13Z</time>
      </trkpt>
      <trkpt lat="44.02166" lon="5.23089">
        <ele>1413.914</ele>
        <time>2020-09-03T14:18:15Z</time>
      </trkpt>
      <trkpt lat="44.02156" lon="5.23081">
        <ele>1412.078</ele>
        <time>2020-09-03T14:18:16Z</time>
      </trkpt>
      <trkpt lat="44.02146" lon="5.23073">
        <ele>1410.462</ele>
        <time>2020-09-03T14:18:17Z</time>
      </trkpt>
      <trkpt lat="44.02138" lon="5.23066">
        <ele>1409.345</ele>
        <time>2020-09-03T14:18:18Z</time>
      </trkpt>
      <trkpt lat="44.02131" lon="5.23061">
        <ele>1407.926</ele>
        <time>2020-09-03T14:18:19Z</time>
      </trkpt>
      <trkpt lat="44.02121" lon="5.23056">
        <ele>1405.538</ele>
        <time>2020-09-03T14:18:20Z</time>
      </trkpt>
      <trkpt lat="44.02111" lon="5.23049">
        <ele>1402.781</ele>
        <time>2020-09-03T14:18:21Z</time>
      </trkpt>
      <trkpt lat="44.02101" lon="5.2304">
        <ele>1399.46</ele>
        <time>2020-09-03T14:18:22Z</time>
      </trkpt>
      <trkpt lat="44.02092" lon="5.23032">
        <ele>1396.444</ele>
        <time>2020-09-03T14:18:23Z</time>
      </trkpt>
      <trkpt lat="44.02084" lon="5.23025">
        <ele>1394.115</ele>
        <time>2020-09-03T14:18:24Z</time>
      </trkpt>
      <trkpt lat="44.02069" lon="5.23011">
        <ele>1391.461</ele>
        <time>2020-09-03T14:18:26Z</time>
      </trkpt>
      <trkpt lat="44.02062" lon="5.23003">
        <ele>1389.133</ele>
        <time>2020-09-03T14:18:27Z</time>
      </trkpt>
      <trkpt lat="44.02054" lon="5.22995">
        <ele>1386.196</ele>
        <time>2020-09-03T14:18:28Z</time>
      </trkpt>
      <trkpt lat="44.02047" lon="5.22987">
        <ele>1383.615</ele>
        <time>2020-09-03T14:18:29Z</time>
      </trkpt>
      <trkpt lat="44.02039" lon="5.22979">
        <ele>1380.909</ele>
        <time>2020-09-03T14:18:30Z</time>
      </trkpt>
      <trkpt lat="44.02031" lon="5.22971">
        <ele>1378.391</ele>
        <time>2020-09-03T14:18:31Z</time>
      </trkpt>
      <trkpt lat="44.02023" lon="5.22964">
        <ele>1375.59</ele>
        <time>2020-09-03T14:18:32Z</time>
      </trkpt>
      <trkpt lat="44.02014" lon="5.22956">
        <ele>1372.611</ele>
        <time>2020-09-03T14:18:33Z</time>
      </trkpt>
      <trkpt lat="44.02004" lon="5.22947">
        <ele>1369.039</ele>
        <time>2020-09-03T14:18:34Z</time>
      </trkpt>
      <trkpt lat="44.01995" lon="5.22938">
        <ele>1365.114</ele>
        <time>2020-09-03T14:18:35Z</time>
      </trkpt>
      <trkpt lat="44.01985" lon="5.22928">
        <ele>1360.989</ele>
        <time>2020-09-03T14:18:36Z</time>
      </trkpt>
      <trkpt lat="44.01974" lon="5.22919">
        <ele>1357.878</ele>
        <time>2020-09-03T14:18:37Z</time>
      </trkpt>
      <trkpt lat="44.01963" lon="5.22912">
        <ele>1355.688</ele>
        <time>2020-09-03T14:18:38Z</time>
      </trkpt>
      <trkpt lat="44.01953" lon="5.22905">
        <ele>1354.232</ele>
        <time>2020-09-03T14:18:39Z</time>
      </trkpt>
      <trkpt lat="44.01944" lon="5.22899">
        <ele>1353.298</ele>
        <time>2020-09-03T14:18:40Z</time>
      </trkpt>
      <trkpt lat="44.01936" lon="5.22893">
        <ele>1351.053</ele>
        <time>2020-09-03T14:18:41Z</time>
      </trkpt>
      <trkpt lat="44.01928" lon="5.22886">
        <ele>1348.296</ele>
        <time>2020-09-03T14:18:42Z</time>
      </trkpt>
      <trkpt lat="44.01918" lon="5.22876">
        <ele>1344.119</ele>
        <time>2020-09-03T14:18:43Z</time>
      </trkpt>
      <trkpt lat="44.01907" lon="5.22867">
        <ele>1340.551</ele>
        <time>2020-09-03T14:18:44Z</time>
      </trkpt>
      <trkpt lat="44.01888" lon="5.22849">
        <ele>1338.315</ele>
        <time>2020-09-03T14:18:46Z</time>
      </trkpt>
      <trkpt lat="44.01878" lon="5.22842">
        <ele>1336.908</ele>
        <time>2020-09-03T14:18:47Z</time>
      </trkpt>
      <trkpt lat="44.01868" lon="5.22834">
        <ele>1335.669</ele>
        <time>2020-09-03T14:18:48Z</time>
      </trkpt>
      <trkpt lat="44.01858" lon="5.22825">
        <ele>1334.077</ele>
        <time>2020-09-03T14:18:49Z</time>
      </trkpt>
      <trkpt lat="44.01849" lon="5.22816">
        <ele>1332.439</ele>
        <time>2020-09-03T14:18:50Z</time>
      </trkpt>
      <trkpt lat="44.01839" lon="5.22808">
        <ele>1331.336</ele>
        <time>2020-09-03T14:18:51Z</time>
      </trkpt>
      <trkpt lat="44.0183" lon="5.228">
        <ele>1330.69</ele>
        <time>2020-09-03T14:18:52Z</time>
      </trkpt>
      <trkpt lat="44.01821" lon="5.22794">
        <ele>1330.029</ele>
        <time>2020-09-03T14:18:53Z</time>
      </trkpt>
      <trkpt lat="44.01811" lon="5.22787">
        <ele>1329.178</ele>
        <time>2020-09-03T14:18:54Z</time>
      </trkpt>
      <trkpt lat="44.01802" lon="5.2278">
        <ele>1327.859</ele>
        <time>2020-09-03T14:18:55Z</time>
      </trkpt>
      <trkpt lat="44.01792" lon="5.22774">
        <ele>1326.449</ele>
        <time>2020-09-03T14:18:56Z</time>
      </trkpt>
      <trkpt lat="44.01781" lon="5.22768">
        <ele>1325.125</ele>
        <time>2020-09-03T14:18:57Z</time>
      </trkpt>
      <trkpt lat="44.01772" lon="5.22762">
        <ele>1324.153</ele>
        <time>2020-09-03T14:18:58Z</time>
      </trkpt>
      <trkpt lat="44.01763" lon="5.22757">
        <ele>1323.29</ele>
        <time>2020-09-03T14:18:59Z</time>
      </trkpt>
      <trkpt lat="44.01755" lon="5.22752">
        <ele>1322.351</ele>
        <time>2020-09-03T14:19:00Z</time>
      </trkpt>
      <trkpt lat="44.01746" lon="5.22747">
        <ele>1321.088</ele>
        <time>2020-09-03T14:19:01Z</time>
      </trkpt>
      <trkpt lat="44.01737" lon="5.22742">
        <ele>1319.323</ele>
        <time>2020-09-03T14:19:02Z</time>
      </trkpt>
      <trkpt lat="44.01728" lon="5.22737">
        <ele>1317.47</ele>
        <time>2020-09-03T14:19:03Z</time>
      </trkpt>
      <trkpt lat="44.01718" lon="5.2273">
        <ele>1315.443</ele>
        <time>2020-09-03T14:19:04Z</time>
      </trkpt>
      <trkpt lat="44.01708" lon="5.22724">
        <ele>1314.006</ele>
        <time>2020-09-03T14:19:05Z</time>
      </trkpt>
      <trkpt lat="44.017" lon="5.22719">
        <ele>1312.901</ele>
        <time>2020-09-03T14:19:06Z</time>
      </trkpt>
      <trkpt lat="44.01692" lon="5.22714">
        <ele>1311.457</ele>
        <time>2020-09-03T14:19:07Z</time>
      </trkpt>
      <trkpt lat="44.01692" lon="5.22714">
        <ele>1309.932</ele>
        <time>2020-09-03T14:19:07Z</time>
      </trkpt>
      <trkpt lat="44.01676" lon="5.22701">
        <ele>1306.161</ele>
        <time>2020-09-03T14:19:09Z</time>
      </trkpt>
      <trkpt lat="44.01668" lon="5.22692">
        <ele>1303.223</ele>
        <time>2020-09-03T14:19:10Z</time>
      </trkpt>
      <trkpt lat="44.01651" lon="5.22673">
        <ele>1300.367</ele>
        <time>2020-09-03T14:19:12Z</time>
      </trkpt>
      <trkpt lat="44.01642" lon="5.22665">
        <ele>1299.043</ele>
        <time>2020-09-03T14:19:13Z</time>
      </trkpt>
      <trkpt lat="44.01634" lon="5.22656">
        <ele>1298.538</ele>
        <time>2020-09-03T14:19:14Z</time>
      </trkpt>
      <trkpt lat="44.01628" lon="5.22648">
        <ele>1298.727</ele>
        <time>2020-09-03T14:19:15Z</time>
      </trkpt>
      <trkpt lat="44.01622" lon="5.2264">
        <ele>1299.184</ele>
        <time>2020-09-03T14:19:16Z</time>
      </trkpt>
      <trkpt lat="44.01616" lon="5.22633">
        <ele>1299.364</ele>
        <time>2020-09-03T14:19:17Z</time>
      </trkpt>
      <trkpt lat="44.01609" lon="5.22626">
        <ele>1298.93</ele>
        <time>2020-09-03T14:19:18Z</time>
      </trkpt>
      <trkpt lat="44.01602" lon="5.22618">
        <ele>1298.35</ele>
        <time>2020-09-03T14:19:19Z</time>
      </trkpt>
      <trkpt lat="44.01595" lon="5.22609">
        <ele>1297.902</ele>
        <time>2020-09-03T14:19:20Z</time>
      </trkpt>
      <trkpt lat="44.01589" lon="5.226">
        <ele>1298.004</ele>
        <time>2020-09-03T14:19:21Z</time>
      </trkpt>
      <trkpt lat="44.01584" lon="5.22592">
        <ele>1298.323</ele>
        <time>2020-09-03T14:19:22Z</time>
      </trkpt>
      <trkpt lat="44.01578" lon="5.22584">
        <ele>1298.454</ele>
        <time>2020-09-03T14:19:23Z</time>
      </trkpt>
      <trkpt lat="44.01572" lon="5.22575">
        <ele>1297.85</ele>
        <time>2020-09-03T14:19:24Z</time>
      </trkpt>
      <trkpt lat="44.01565" lon="5.22565">
        <ele>1296.757</ele>
        <time>2020-09-03T14:19:25Z</time>
      </trkpt>
      <trkpt lat="44.01559" lon="5.22555">
        <ele>1295.262</ele>
        <time>2020-09-03T14:19:26Z</time>
      </trkpt>
      <trkpt lat="44.01553" lon="5.22544">
        <ele>1294.4</ele>
        <time>2020-09-03T14:19:27Z</time>
      </trkpt>
      <trkpt lat="44.01548" lon="5.22536">
        <ele>1294.237</ele>
        <time>2020-09-03T14:19:28Z</time>
      </trkpt>
      <trkpt lat="44.01543" lon="5.22529">
        <ele>1294.361</ele>
        <time>2020-09-03T14:19:29Z</time>
      </trkpt>
      <trkpt lat="44.01543" lon="5.22529">
        <ele>1294.166</ele>
        <time>2020-09-03T14:19:29Z</time>
      </trkpt>
      <trkpt lat="44.01543" lon="5.22529">
        <ele>1293.515</ele>
        <time>2020-09-03T14:19:29Z</time>
      </trkpt>
      <trkpt lat="44.01543" lon="5.22529">
        <ele>1292.265</ele>
        <time>2020-09-03T14:19:29Z</time>
      </trkpt>
      <trkpt lat="44.01543" lon="5.22529">
        <ele>1290.97</ele>
        <time>2020-09-03T14:19:29Z</time>
      </trkpt>
      <trkpt lat="44.01509" lon="5.22494">
        <ele>1289.931</ele>
        <time>2020-09-03T14:19:34Z</time>
      </trkpt>
      <trkpt lat="44.01501" lon="5.22486">
        <ele>1289.511</ele>
        <time>2020-09-03T14:19:35Z</time>
      </trkpt>
      <trkpt lat="44.01486" lon="5.22473">
        <ele>1289.322</ele>
        <time>2020-09-03T14:19:37Z</time>
      </trkpt>
      <trkpt lat="44.01479" lon="5.22467">
        <ele>1289.137</ele>
        <time>2020-09-03T14:19:38Z</time>
      </trkpt>
      <trkpt lat="44.01479" lon="5.22467">
        <ele>1288.523</ele>
        <time>2020-09-03T14:19:38Z</time>
      </trkpt>
      <trkpt lat="44.01464" lon="5.22455">
        <ele>1287.453</ele>
        <time>2020-09-03T14:19:40Z</time>
      </trkpt>
      <trkpt lat="44.01454" lon="5.22448">
        <ele>1285.652</ele>
        <time>2020-09-03T14:19:41Z</time>
      </trkpt>
      <trkpt lat="44.01445" lon="5.22442">
        <ele>1284.222</ele>
        <time>2020-09-03T14:19:42Z</time>
      </trkpt>
      <trkpt lat="44.01436" lon="5.22436">
        <ele>1283.118</ele>
        <time>2020-09-03T14:19:43Z</time>
      </trkpt>
      <trkpt lat="44.01428" lon="5.22429">
        <ele>1282.223</ele>
        <time>2020-09-03T14:19:44Z</time>
      </trkpt>
      <trkpt lat="44.0142" lon="5.22422">
        <ele>1281.285</ele>
        <time>2020-09-03T14:19:45Z</time>
      </trkpt>
      <trkpt lat="44.01405" lon="5.22405">
        <ele>1280.111</ele>
        <time>2020-09-03T14:19:47Z</time>
      </trkpt>
      <trkpt lat="44.01397" lon="5.22396">
        <ele>1279.089</ele>
        <time>2020-09-03T14:19:48Z</time>
      </trkpt>
      <trkpt lat="44.01397" lon="5.22396">
        <ele>1277.835</ele>
        <time>2020-09-03T14:19:48Z</time>
      </trkpt>
      <trkpt lat="44.0138" lon="5.22379">
        <ele>1276.643</ele>
        <time>2020-09-03T14:19:50Z</time>
      </trkpt>
      <trkpt lat="44.01372" lon="5.22372">
        <ele>1275.496</ele>
        <time>2020-09-03T14:19:51Z</time>
      </trkpt>
      <trkpt lat="44.01364" lon="5.22366">
        <ele>1273.985</ele>
        <time>2020-09-03T14:19:52Z</time>
      </trkpt>
      <trkpt lat="44.01356" lon="5.22358">
        <ele>1272.509</ele>
        <time>2020-09-03T14:19:53Z</time>
      </trkpt>
      <trkpt lat="44.01356" lon="5.22358">
        <ele>1270.445</ele>
        <time>2020-09-03T14:19:53Z</time>
      </trkpt>
      <trkpt lat="44.01356" lon="5.22358">
        <ele>1268.529</ele>
        <time>2020-09-03T14:19:53Z</time>
      </trkpt>
      <trkpt lat="44.01337" lon="5.22329">
        <ele>1266.071</ele>
        <time>2020-09-03T14:19:56Z</time>
      </trkpt>
      <trkpt lat="44.0133" lon="5.2232">
        <ele>1263.943</ele>
        <time>2020-09-03T14:19:57Z</time>
      </trkpt>
      <trkpt lat="44.01324" lon="5.22312">
        <ele>1262.063</ele>
        <time>2020-09-03T14:19:58Z</time>
      </trkpt>
      <trkpt lat="44.01324" lon="5.22312">
        <ele>1260.343</ele>
        <time>2020-09-03T14:19:58Z</time>
      </trkpt>
      <trkpt lat="44.01311" lon="5.22298">
        <ele>1258.548</ele>
        <time>2020-09-03T14:20:00Z</time>
      </trkpt>
      <trkpt lat="44.01304" lon="5.22292">
        <ele>1256.497</ele>
        <time>2020-09-03T14:20:01Z</time>
      </trkpt>
      <trkpt lat="44.01297" lon="5.22284">
        <ele>1254.788</ele>
        <time>2020-09-03T14:20:02Z</time>
      </trkpt>
      <trkpt lat="44.01291" lon="5.22276">
        <ele>1252.767</ele>
        <time>2020-09-03T14:20:03Z</time>
      </trkpt>
      <trkpt lat="44.01283" lon="5.22268">
        <ele>1251.535</ele>
        <time>2020-09-03T14:20:04Z</time>
      </trkpt>
      <trkpt lat="44.01276" lon="5.22261">
        <ele>1249.345</ele>
        <time>2020-09-03T14:20:05Z</time>
      </trkpt>
      <trkpt lat="44.01257" lon="5.22251">
        <ele>1246.432</ele>
        <time>2020-09-03T14:20:07Z</time>
      </trkpt>
      <trkpt lat="44.01245" lon="5.22249">
        <ele>1243.857</ele>
        <time>2020-09-03T14:20:08Z</time>
      </trkpt>
      <trkpt lat="44.01234" lon="5.22248">
        <ele>1241.382</ele>
        <time>2020-09-03T14:20:09Z</time>
      </trkpt>
      <trkpt lat="44.01223" lon="5.22245">
        <ele>1239.696</ele>
        <time>2020-09-03T14:20:10Z</time>
      </trkpt>
      <trkpt lat="44.01215" lon="5.22239">
        <ele>1239.038</ele>
        <time>2020-09-03T14:20:11Z</time>
      </trkpt>
      <trkpt lat="44.01207" lon="5.22233">
        <ele>1239.118</ele>
        <time>2020-09-03T14:20:12Z</time>
      </trkpt>
      <trkpt lat="44.01199" lon="5.22229">
        <ele>1239.432</ele>
        <time>2020-09-03T14:20:13Z</time>
      </trkpt>
      <trkpt lat="44.01191" lon="5.22227">
        <ele>1239.645</ele>
        <time>2020-09-03T14:20:14Z</time>
      </trkpt>
      <trkpt lat="44.01182" lon="5.22224">
        <ele>1239.6</ele>
        <time>2020-09-03T14:20:15Z</time>
      </trkpt>
      <trkpt lat="44.01175" lon="5.22219">
        <ele>1239.328</ele>
        <time>2020-09-03T14:20:16Z</time>
      </trkpt>
      <trkpt lat="44.01169" lon="5.22213">
        <ele>1238.643</ele>
        <time>2020-09-03T14:20:17Z</time>
      </trkpt>
      <trkpt lat="44.01164" lon="5.22207">
        <ele>1237.776</ele>
        <time>2020-09-03T14:20:18Z</time>
      </trkpt>
      <trkpt lat="44.01159" lon="5.222">
        <ele>1236.775</ele>
        <time>2020-09-03T14:20:19Z</time>
      </trkpt>
      <trkpt lat="44.01152" lon="5.22194">
        <ele>1235.72</ele>
        <time>2020-09-03T14:20:20Z</time>
      </trkpt>
      <trkpt lat="44.01145" lon="5.22187">
        <ele>1234.855</ele>
        <time>2020-09-03T14:20:21Z</time>
      </trkpt>
      <trkpt lat="44.01138" lon="5.22179">
        <ele>1234.235</ele>
        <time>2020-09-03T14:20:22Z</time>
      </trkpt>
      <trkpt lat="44.01132" lon="5.22171">
        <ele>1233.892</ele>
        <time>2020-09-03T14:20:23Z</time>
      </trkpt>
      <trkpt lat="44.01125" lon="5.22162">
        <ele>1233.736</ele>
        <time>2020-09-03T14:20:24Z</time>
      </trkpt>
      <trkpt lat="44.01118" lon="5.22155">
        <ele>1233.778</ele>
        <time>2020-09-03T14:20:25Z</time>
      </trkpt>
      <trkpt lat="44.01111" lon="5.22148">
        <ele>1234.016</ele>
        <time>2020-09-03T14:20:26Z</time>
      </trkpt>
      <trkpt lat="44.01104" lon="5.22142">
        <ele>1234.192</ele>
        <time>2020-09-03T14:20:27Z</time>
      </trkpt>
      <trkpt lat="44.01104" lon="5.22142">
        <ele>1233.869</ele>
        <time>2020-09-03T14:20:27Z</time>
      </trkpt>
      <trkpt lat="44.01088" lon="5.2212">
        <ele>1232.985</ele>
        <time>2020-09-03T14:20:30Z</time>
      </trkpt>
      <trkpt lat="44.01082" lon="5.22111">
        <ele>1231.789</ele>
        <time>2020-09-03T14:20:31Z</time>
      </trkpt>
      <trkpt lat="44.01075" lon="5.22102">
        <ele>1231.166</ele>
        <time>2020-09-03T14:20:32Z</time>
      </trkpt>
      <trkpt lat="44.01069" lon="5.22094">
        <ele>1230.077</ele>
        <time>2020-09-03T14:20:33Z</time>
      </trkpt>
      <trkpt lat="44.01064" lon="5.22086">
        <ele>1229.339</ele>
        <time>2020-09-03T14:20:34Z</time>
      </trkpt>
      <trkpt lat="44.0106" lon="5.22078">
        <ele>1228.733</ele>
        <time>2020-09-03T14:20:35Z</time>
      </trkpt>
      <trkpt lat="44.01055" lon="5.22069">
        <ele>1227.792</ele>
        <time>2020-09-03T14:20:36Z</time>
      </trkpt>
      <trkpt lat="44.01051" lon="5.22059">
        <ele>1226.537</ele>
        <time>2020-09-03T14:20:37Z</time>
      </trkpt>
      <trkpt lat="44.01046" lon="5.22047">
        <ele>1225.614</ele>
        <time>2020-09-03T14:20:38Z</time>
      </trkpt>
      <trkpt lat="44.01041" lon="5.22037">
        <ele>1225.03</ele>
        <time>2020-09-03T14:20:39Z</time>
      </trkpt>
      <trkpt lat="44.01035" lon="5.22028">
        <ele>1224.545</ele>
        <time>2020-09-03T14:20:40Z</time>
      </trkpt>
      <trkpt lat="44.0103" lon="5.2202">
        <ele>1223.744</ele>
        <time>2020-09-03T14:20:41Z</time>
      </trkpt>
      <trkpt lat="44.01025" lon="5.22011">
        <ele>1222.64</ele>
        <time>2020-09-03T14:20:42Z</time>
      </trkpt>
      <trkpt lat="44.0102" lon="5.22001">
        <ele>1220.93</ele>
        <time>2020-09-03T14:20:43Z</time>
      </trkpt>
      <trkpt lat="44.01015" lon="5.21991">
        <ele>1219.431</ele>
        <time>2020-09-03T14:20:44Z</time>
      </trkpt>
      <trkpt lat="44.01015" lon="5.21991">
        <ele>1218.235</ele>
        <time>2020-09-03T14:20:44Z</time>
      </trkpt>
      <trkpt lat="44.01015" lon="5.21991">
        <ele>1217.257</ele>
        <time>2020-09-03T14:20:44Z</time>
      </trkpt>
      <trkpt lat="44.01015" lon="5.21991">
        <ele>1216.417</ele>
        <time>2020-09-03T14:20:44Z</time>
      </trkpt>
      <trkpt lat="44.01015" lon="5.21991">
        <ele>1215.554</ele>
        <time>2020-09-03T14:20:44Z</time>
      </trkpt>
      <trkpt lat="44.00985" lon="5.21945">
        <ele>1214.301</ele>
        <time>2020-09-03T14:20:49Z</time>
      </trkpt>
      <trkpt lat="44.00985" lon="5.21945">
        <ele>1212.371</ele>
        <time>2020-09-03T14:20:49Z</time>
      </trkpt>
      <trkpt lat="44.00968" lon="5.21917">
        <ele>1210.502</ele>
        <time>2020-09-03T14:20:52Z</time>
      </trkpt>
      <trkpt lat="44.00962" lon="5.21908">
        <ele>1208.86</ele>
        <time>2020-09-03T14:20:53Z</time>
      </trkpt>
      <trkpt lat="44.00956" lon="5.21898">
        <ele>1206.938</ele>
        <time>2020-09-03T14:20:54Z</time>
      </trkpt>
      <trkpt lat="44.0095" lon="5.21888">
        <ele>1204.99</ele>
        <time>2020-09-03T14:20:55Z</time>
      </trkpt>
      <trkpt lat="44.00943" lon="5.21878">
        <ele>1203.477</ele>
        <time>2020-09-03T14:20:56Z</time>
      </trkpt>
      <trkpt lat="44.00937" lon="5.21868">
        <ele>1202.019</ele>
        <time>2020-09-03T14:20:57Z</time>
      </trkpt>
      <trkpt lat="44.00932" lon="5.21857">
        <ele>1200.863</ele>
        <time>2020-09-03T14:20:58Z</time>
      </trkpt>
      <trkpt lat="44.00926" lon="5.21847">
        <ele>1199.973</ele>
        <time>2020-09-03T14:20:59Z</time>
      </trkpt>
      <trkpt lat="44.00926" lon="5.21847">
        <ele>1199.504</ele>
        <time>2020-09-03T14:20:59Z</time>
      </trkpt>
      <trkpt lat="44.00915" lon="5.21826">
        <ele>1199.032</ele>
        <time>2020-09-03T14:21:01Z</time>
      </trkpt>
      <trkpt lat="44.00915" lon="5.21826">
        <ele>1198.704</ele>
        <time>2020-09-03T14:21:01Z</time>
      </trkpt>
      <trkpt lat="44.00902" lon="5.21806">
        <ele>1198.411</ele>
        <time>2020-09-03T14:21:03Z</time>
      </trkpt>
      <trkpt lat="44.00895" lon="5.21797">
        <ele>1198.248</ele>
        <time>2020-09-03T14:21:04Z</time>
      </trkpt>
      <trkpt lat="44.00889" lon="5.21789">
        <ele>1197.769</ele>
        <time>2020-09-03T14:21:05Z</time>
      </trkpt>
      <trkpt lat="44.00882" lon="5.21781">
        <ele>1196.903</ele>
        <time>2020-09-03T14:21:06Z</time>
      </trkpt>
      <trkpt lat="44.00875" lon="5.21772">
        <ele>1195.703</ele>
        <time>2020-09-03T14:21:07Z</time>
      </trkpt>
      <trkpt lat="44.00867" lon="5.21761">
        <ele>1194.713</ele>
        <time>2020-09-03T14:21:08Z</time>
      </trkpt>
      <trkpt lat="44.00859" lon="5.21751">
        <ele>1194.105</ele>
        <time>2020-09-03T14:21:09Z</time>
      </trkpt>
      <trkpt lat="44.00852" lon="5.2174">
        <ele>1193.523</ele>
        <time>2020-09-03T14:21:10Z</time>
      </trkpt>
      <trkpt lat="44.00845" lon="5.21731">
        <ele>1192.663</ele>
        <time>2020-09-03T14:21:11Z</time>
      </trkpt>
      <trkpt lat="44.00839" lon="5.21721">
        <ele>1191.018</ele>
        <time>2020-09-03T14:21:12Z</time>
      </trkpt>
      <trkpt lat="44.00833" lon="5.21713">
        <ele>1189.001</ele>
        <time>2020-09-03T14:21:13Z</time>
      </trkpt>
      <trkpt lat="44.00818" lon="5.21693">
        <ele>1186.211</ele>
        <time>2020-09-03T14:21:15Z</time>
      </trkpt>
      <trkpt lat="44.0081" lon="5.21681">
        <ele>1183.838</ele>
        <time>2020-09-03T14:21:16Z</time>
      </trkpt>
      <trkpt lat="44.00804" lon="5.2167">
        <ele>1180.979</ele>
        <time>2020-09-03T14:21:17Z</time>
      </trkpt>
      <trkpt lat="44.00797" lon="5.21659">
        <ele>1179.047</ele>
        <time>2020-09-03T14:21:18Z</time>
      </trkpt>
      <trkpt lat="44.0079" lon="5.2165">
        <ele>1176.648</ele>
        <time>2020-09-03T14:21:19Z</time>
      </trkpt>
      <trkpt lat="44.00784" lon="5.21641">
        <ele>1174.406</ele>
        <time>2020-09-03T14:21:20Z</time>
      </trkpt>
      <trkpt lat="44.00777" lon="5.21631">
        <ele>1171.725</ele>
        <time>2020-09-03T14:21:21Z</time>
      </trkpt>
      <trkpt lat="44.00771" lon="5.21621">
        <ele>1169.686</ele>
        <time>2020-09-03T14:21:22Z</time>
      </trkpt>
      <trkpt lat="44.00763" lon="5.21611">
        <ele>1166.993</ele>
        <time>2020-09-03T14:21:23Z</time>
      </trkpt>
      <trkpt lat="44.00749" lon="5.21591">
        <ele>1165.317</ele>
        <time>2020-09-03T14:21:25Z</time>
      </trkpt>
      <trkpt lat="44.00742" lon="5.21581">
        <ele>1164.175</ele>
        <time>2020-09-03T14:21:26Z</time>
      </trkpt>
      <trkpt lat="44.00735" lon="5.21573">
        <ele>1163.284</ele>
        <time>2020-09-03T14:21:27Z</time>
      </trkpt>
      <trkpt lat="44.00728" lon="5.21565">
        <ele>1162.462</ele>
        <time>2020-09-03T14:21:28Z</time>
      </trkpt>
      <trkpt lat="44.0072" lon="5.21557">
        <ele>1160.841</ele>
        <time>2020-09-03T14:21:29Z</time>
      </trkpt>
      <trkpt lat="44.00713" lon="5.21549">
        <ele>1158.924</ele>
        <time>2020-09-03T14:21:30Z</time>
      </trkpt>
      <trkpt lat="44.00706" lon="5.2154">
        <ele>1157.082</ele>
        <time>2020-09-03T14:21:31Z</time>
      </trkpt>
      <trkpt lat="44.00699" lon="5.2153">
        <ele>1155.064</ele>
        <time>2020-09-03T14:21:32Z</time>
      </trkpt>
      <trkpt lat="44.00692" lon="5.21519">
        <ele>1153.338</ele>
        <time>2020-09-03T14:21:33Z</time>
      </trkpt>
      <trkpt lat="44.00685" lon="5.21508">
        <ele>1151.744</ele>
        <time>2020-09-03T14:21:34Z</time>
      </trkpt>
      <trkpt lat="44.00677" lon="5.215">
        <ele>1150.626</ele>
        <time>2020-09-03T14:21:35Z</time>
      </trkpt>
      <trkpt lat="44.00669" lon="5.21493">
        <ele>1149.572</ele>
        <time>2020-09-03T14:21:36Z</time>
      </trkpt>
      <trkpt lat="44.00662" lon="5.21485">
        <ele>1148.638</ele>
        <time>2020-09-03T14:21:37Z</time>
      </trkpt>
      <trkpt lat="44.00657" lon="5.21477">
        <ele>1147.585</ele>
        <time>2020-09-03T14:21:38Z</time>
      </trkpt>
      <trkpt lat="44.0065" lon="5.21468">
        <ele>1146.204</ele>
        <time>2020-09-03T14:21:39Z</time>
      </trkpt>
      <trkpt lat="44.00644" lon="5.21459">
        <ele>1144.48</ele>
        <time>2020-09-03T14:21:40Z</time>
      </trkpt>
      <trkpt lat="44.00637" lon="5.2145">
        <ele>1142.761</ele>
        <time>2020-09-03T14:21:41Z</time>
      </trkpt>
      <trkpt lat="44.0063" lon="5.21439">
        <ele>1140.921</ele>
        <time>2020-09-03T14:21:42Z</time>
      </trkpt>
      <trkpt lat="44.00623" lon="5.21429">
        <ele>1139.497</ele>
        <time>2020-09-03T14:21:43Z</time>
      </trkpt>
      <trkpt lat="44.00617" lon="5.21418">
        <ele>1138.935</ele>
        <time>2020-09-03T14:21:44Z</time>
      </trkpt>
      <trkpt lat="44.00612" lon="5.2141">
        <ele>1138.759</ele>
        <time>2020-09-03T14:21:45Z</time>
      </trkpt>
      <trkpt lat="44.00612" lon="5.2141">
        <ele>1138.287</ele>
        <time>2020-09-03T14:21:45Z</time>
      </trkpt>
      <trkpt lat="44.00598" lon="5.21391">
        <ele>1136.685</ele>
        <time>2020-09-03T14:21:48Z</time>
      </trkpt>
      <trkpt lat="44.00598" lon="5.21391">
        <ele>1134.009</ele>
        <time>2020-09-03T14:21:48Z</time>
      </trkpt>
      <trkpt lat="44.00586" lon="5.21371">
        <ele>1130.654</ele>
        <time>2020-09-03T14:21:50Z</time>
      </trkpt>
      <trkpt lat="44.0058" lon="5.2136">
        <ele>1127.75</ele>
        <time>2020-09-03T14:21:51Z</time>
      </trkpt>
      <trkpt lat="44.00574" lon="5.21352">
        <ele>1125.83</ele>
        <time>2020-09-03T14:21:52Z</time>
      </trkpt>
      <trkpt lat="44.00568" lon="5.21345">
        <ele>1124.571</ele>
        <time>2020-09-03T14:21:53Z</time>
      </trkpt>
      <trkpt lat="44.00562" lon="5.21338">
        <ele>1123.131</ele>
        <time>2020-09-03T14:21:54Z</time>
      </trkpt>
      <trkpt lat="44.00557" lon="5.21329">
        <ele>1121.226</ele>
        <time>2020-09-03T14:21:55Z</time>
      </trkpt>
      <trkpt lat="44.00557" lon="5.21329">
        <ele>1119.405</ele>
        <time>2020-09-03T14:21:55Z</time>
      </trkpt>
      <trkpt lat="44.00545" lon="5.21307">
        <ele>1117.353</ele>
        <time>2020-09-03T14:21:57Z</time>
      </trkpt>
      <trkpt lat="44.00538" lon="5.21298">
        <ele>1115.685</ele>
        <time>2020-09-03T14:21:58Z</time>
      </trkpt>
      <trkpt lat="44.00531" lon="5.21291">
        <ele>1114.418</ele>
        <time>2020-09-03T14:21:59Z</time>
      </trkpt>
      <trkpt lat="44.00524" lon="5.21286">
        <ele>1113.248</ele>
        <time>2020-09-03T14:22:00Z</time>
      </trkpt>
      <trkpt lat="44.00518" lon="5.21279">
        <ele>1111.64</ele>
        <time>2020-09-03T14:22:01Z</time>
      </trkpt>
      <trkpt lat="44.00512" lon="5.21271">
        <ele>1109.323</ele>
        <time>2020-09-03T14:22:02Z</time>
      </trkpt>
      <trkpt lat="44.00505" lon="5.21262">
        <ele>1106.683</ele>
        <time>2020-09-03T14:22:03Z</time>
      </trkpt>
      <trkpt lat="44.00497" lon="5.21252">
        <ele>1104.407</ele>
        <time>2020-09-03T14:22:04Z</time>
      </trkpt>
      <trkpt lat="44.0049" lon="5.21242">
        <ele>1102.688</ele>
        <time>2020-09-03T14:22:05Z</time>
      </trkpt>
      <trkpt lat="44.00482" lon="5.21234">
        <ele>1101.506</ele>
        <time>2020-09-03T14:22:06Z</time>
      </trkpt>
      <trkpt lat="44.00475" lon="5.21226">
        <ele>1100.359</ele>
        <time>2020-09-03T14:22:07Z</time>
      </trkpt>
      <trkpt lat="44.00468" lon="5.21218">
        <ele>1099.451</ele>
        <time>2020-09-03T14:22:08Z</time>
      </trkpt>
      <trkpt lat="44.00462" lon="5.2121">
        <ele>1098.574</ele>
        <time>2020-09-03T14:22:09Z</time>
      </trkpt>
      <trkpt lat="44.00455" lon="5.21202">
        <ele>1097.461</ele>
        <time>2020-09-03T14:22:10Z</time>
      </trkpt>
      <trkpt lat="44.00442" lon="5.21186">
        <ele>1096.218</ele>
        <time>2020-09-03T14:22:12Z</time>
      </trkpt>
      <trkpt lat="44.00436" lon="5.21179">
        <ele>1095.008</ele>
        <time>2020-09-03T14:22:13Z</time>
      </trkpt>
      <trkpt lat="44.0043" lon="5.2117">
        <ele>1093.629</ele>
        <time>2020-09-03T14:22:14Z</time>
      </trkpt>
      <trkpt lat="44.00424" lon="5.21162">
        <ele>1091.682</ele>
        <time>2020-09-03T14:22:15Z</time>
      </trkpt>
      <trkpt lat="44.00416" lon="5.21153">
        <ele>1089.401</ele>
        <time>2020-09-03T14:22:16Z</time>
      </trkpt>
      <trkpt lat="44.00409" lon="5.21143">
        <ele>1087.794</ele>
        <time>2020-09-03T14:22:17Z</time>
      </trkpt>
      <trkpt lat="44.00402" lon="5.21134">
        <ele>1086.501</ele>
        <time>2020-09-03T14:22:18Z</time>
      </trkpt>
      <trkpt lat="44.00394" lon="5.21125">
        <ele>1085.787</ele>
        <time>2020-09-03T14:22:19Z</time>
      </trkpt>
      <trkpt lat="44.00387" lon="5.21118">
        <ele>1084.991</ele>
        <time>2020-09-03T14:22:20Z</time>
      </trkpt>
      <trkpt lat="44.00387" lon="5.21118">
        <ele>1083.79</ele>
        <time>2020-09-03T14:22:20Z</time>
      </trkpt>
      <trkpt lat="44.00387" lon="5.21118">
        <ele>1082.353</ele>
        <time>2020-09-03T14:22:20Z</time>
      </trkpt>
      <trkpt lat="44.00387" lon="5.21118">
        <ele>1081.239</ele>
        <time>2020-09-03T14:22:20Z</time>
      </trkpt>
      <trkpt lat="44.00358" lon="5.21084">
        <ele>1079.531</ele>
        <time>2020-09-03T14:22:24Z</time>
      </trkpt>
      <trkpt lat="44.00351" lon="5.21074">
        <ele>1078.085</ele>
        <time>2020-09-03T14:22:25Z</time>
      </trkpt>
      <trkpt lat="44.00344" lon="5.21065">
        <ele>1076.982</ele>
        <time>2020-09-03T14:22:26Z</time>
      </trkpt>
      <trkpt lat="44.00337" lon="5.21056">
        <ele>1076.192</ele>
        <time>2020-09-03T14:22:27Z</time>
      </trkpt>
      <trkpt lat="44.0033" lon="5.21048">
        <ele>1075.365</ele>
        <time>2020-09-03T14:22:28Z</time>
      </trkpt>
      <trkpt lat="44.00316" lon="5.2103">
        <ele>1074.515</ele>
        <time>2020-09-03T14:22:30Z</time>
      </trkpt>
      <trkpt lat="44.0031" lon="5.21021">
        <ele>1073.695</ele>
        <time>2020-09-03T14:22:31Z</time>
      </trkpt>
      <trkpt lat="44.00304" lon="5.21012">
        <ele>1072.676</ele>
        <time>2020-09-03T14:22:32Z</time>
      </trkpt>
      <trkpt lat="44.00296" lon="5.21003">
        <ele>1071.509</ele>
        <time>2020-09-03T14:22:33Z</time>
      </trkpt>
      <trkpt lat="44.00296" lon="5.21003">
        <ele>1069.771</ele>
        <time>2020-09-03T14:22:33Z</time>
      </trkpt>
      <trkpt lat="44.0028" lon="5.20986">
        <ele>1068.204</ele>
        <time>2020-09-03T14:22:35Z</time>
      </trkpt>
      <trkpt lat="44.00272" lon="5.20977">
        <ele>1066.717</ele>
        <time>2020-09-03T14:22:36Z</time>
      </trkpt>
      <trkpt lat="44.00264" lon="5.20968">
        <ele>1065.556</ele>
        <time>2020-09-03T14:22:37Z</time>
      </trkpt>
      <trkpt lat="44.00256" lon="5.20959">
        <ele>1064.212</ele>
        <time>2020-09-03T14:22:38Z</time>
      </trkpt>
      <trkpt lat="44.00248" lon="5.2095">
        <ele>1062.866</ele>
        <time>2020-09-03T14:22:39Z</time>
      </trkpt>
      <trkpt lat="44.0024" lon="5.20941">
        <ele>1061.845</ele>
        <time>2020-09-03T14:22:40Z</time>
      </trkpt>
      <trkpt lat="44.00232" lon="5.20932">
        <ele>1060.651</ele>
        <time>2020-09-03T14:22:41Z</time>
      </trkpt>
      <trkpt lat="44.00224" lon="5.20922">
        <ele>1059.46</ele>
        <time>2020-09-03T14:22:42Z</time>
      </trkpt>
      <trkpt lat="44.00217" lon="5.20913">
        <ele>1057.935</ele>
        <time>2020-09-03T14:22:43Z</time>
      </trkpt>
      <trkpt lat="44.002" lon="5.20894">
        <ele>1056.312</ele>
        <time>2020-09-03T14:22:45Z</time>
      </trkpt>
      <trkpt lat="44.00191" lon="5.20885">
        <ele>1054.934</ele>
        <time>2020-09-03T14:22:46Z</time>
      </trkpt>
      <trkpt lat="44.00183" lon="5.20876">
        <ele>1053.812</ele>
        <time>2020-09-03T14:22:47Z</time>
      </trkpt>
      <trkpt lat="44.00175" lon="5.20867">
        <ele>1052.922</ele>
        <time>2020-09-03T14:22:48Z</time>
      </trkpt>
      <trkpt lat="44.00175" lon="5.20867">
        <ele>1051.933</ele>
        <time>2020-09-03T14:22:48Z</time>
      </trkpt>
      <trkpt lat="44.00159" lon="5.20849">
        <ele>1050.64</ele>
        <time>2020-09-03T14:22:50Z</time>
      </trkpt>
      <trkpt lat="44.00151" lon="5.20839">
        <ele>1048.935</ele>
        <time>2020-09-03T14:22:51Z</time>
      </trkpt>
      <trkpt lat="44.00143" lon="5.20829">
        <ele>1047.564</ele>
        <time>2020-09-03T14:22:52Z</time>
      </trkpt>
      <trkpt lat="44.00134" lon="5.20819">
        <ele>1045.335</ele>
        <time>2020-09-03T14:22:53Z</time>
      </trkpt>
      <trkpt lat="44.00126" lon="5.20809">
        <ele>1043.376</ele>
        <time>2020-09-03T14:22:54Z</time>
      </trkpt>
      <trkpt lat="44.00118" lon="5.208">
        <ele>1041.228</ele>
        <time>2020-09-03T14:22:55Z</time>
      </trkpt>
      <trkpt lat="44.00111" lon="5.2079">
        <ele>1039.188</ele>
        <time>2020-09-03T14:22:56Z</time>
      </trkpt>
      <trkpt lat="44.00104" lon="5.2078">
        <ele>1037.091</ele>
        <time>2020-09-03T14:22:57Z</time>
      </trkpt>
      <trkpt lat="44.00097" lon="5.20769">
        <ele>1034.755</ele>
        <time>2020-09-03T14:22:58Z</time>
      </trkpt>
      <trkpt lat="44.0009" lon="5.20758">
        <ele>1031.644</ele>
        <time>2020-09-03T14:22:59Z</time>
      </trkpt>
      <trkpt lat="44.00083" lon="5.20746">
        <ele>1027.796</ele>
        <time>2020-09-03T14:23:00Z</time>
      </trkpt>
      <trkpt lat="44.00076" lon="5.20734">
        <ele>1023.965</ele>
        <time>2020-09-03T14:23:01Z</time>
      </trkpt>
      <trkpt lat="44.0007" lon="5.20722">
        <ele>1021.307</ele>
        <time>2020-09-03T14:23:02Z</time>
      </trkpt>
      <trkpt lat="44.00063" lon="5.20711">
        <ele>1018.568</ele>
        <time>2020-09-03T14:23:03Z</time>
      </trkpt>
      <trkpt lat="44.00056" lon="5.207">
        <ele>1015.412</ele>
        <time>2020-09-03T14:23:04Z</time>
      </trkpt>
      <trkpt lat="44.00041" lon="5.20678">
        <ele>1012.253</ele>
        <time>2020-09-03T14:23:06Z</time>
      </trkpt>
      <trkpt lat="44.00033" lon="5.20666">
        <ele>1009.638</ele>
        <time>2020-09-03T14:23:07Z</time>
      </trkpt>
      <trkpt lat="44.00026" lon="5.20655">
        <ele>1007.007</ele>
        <time>2020-09-03T14:23:08Z</time>
      </trkpt>
      <trkpt lat="44.00018" lon="5.20644">
        <ele>1004.169</ele>
        <time>2020-09-03T14:23:09Z</time>
      </trkpt>
      <trkpt lat="44.00011" lon="5.20633">
        <ele>1001.615</ele>
        <time>2020-09-03T14:23:10Z</time>
      </trkpt>
      <trkpt lat="44.00003" lon="5.20621">
        <ele>998.8</ele>
        <time>2020-09-03T14:23:11Z</time>
      </trkpt>
      <trkpt lat="43.99995" lon="5.2061">
        <ele>996.994</ele>
        <time>2020-09-03T14:23:12Z</time>
      </trkpt>
      <trkpt lat="43.99987" lon="5.20599">
        <ele>995.356</ele>
        <time>2020-09-03T14:23:13Z</time>
      </trkpt>
      <trkpt lat="43.99978" lon="5.2059">
        <ele>993.812</ele>
        <time>2020-09-03T14:23:14Z</time>
      </trkpt>
      <trkpt lat="43.99969" lon="5.20582">
        <ele>992.456</ele>
        <time>2020-09-03T14:23:15Z</time>
      </trkpt>
      <trkpt lat="43.99961" lon="5.20574">
        <ele>991.055</ele>
        <time>2020-09-03T14:23:16Z</time>
      </trkpt>
      <trkpt lat="43.99953" lon="5.20566">
        <ele>988.981</ele>
        <time>2020-09-03T14:23:17Z</time>
      </trkpt>
      <trkpt lat="43.99945" lon="5.20555">
        <ele>986.823</ele>
        <time>2020-09-03T14:23:18Z</time>
      </trkpt>
      <trkpt lat="43.99938" lon="5.20543">
        <ele>985.37</ele>
        <time>2020-09-03T14:23:19Z</time>
      </trkpt>
      <trkpt lat="43.99931" lon="5.20531">
        <ele>983.237</ele>
        <time>2020-09-03T14:23:20Z</time>
      </trkpt>
      <trkpt lat="43.99923" lon="5.20521">
        <ele>981.426</ele>
        <time>2020-09-03T14:23:21Z</time>
      </trkpt>
      <trkpt lat="43.99916" lon="5.20511">
        <ele>979.463</ele>
        <time>2020-09-03T14:23:22Z</time>
      </trkpt>
      <trkpt lat="43.99909" lon="5.205">
        <ele>977.158</ele>
        <time>2020-09-03T14:23:23Z</time>
      </trkpt>
      <trkpt lat="43.99902" lon="5.20489">
        <ele>975.073</ele>
        <time>2020-09-03T14:23:24Z</time>
      </trkpt>
      <trkpt lat="43.99894" lon="5.20478">
        <ele>972.667</ele>
        <time>2020-09-03T14:23:25Z</time>
      </trkpt>
      <trkpt lat="43.99894" lon="5.20478">
        <ele>970.504</ele>
        <time>2020-09-03T14:23:25Z</time>
      </trkpt>
      <trkpt lat="43.99879" lon="5.20455">
        <ele>968.273</ele>
        <time>2020-09-03T14:23:27Z</time>
      </trkpt>
      <trkpt lat="43.99872" lon="5.20444">
        <ele>966.331</ele>
        <time>2020-09-03T14:23:28Z</time>
      </trkpt>
      <trkpt lat="43.99857" lon="5.20422">
        <ele>964.427</ele>
        <time>2020-09-03T14:23:30Z</time>
      </trkpt>
      <trkpt lat="43.9985" lon="5.20411">
        <ele>963.003</ele>
        <time>2020-09-03T14:23:31Z</time>
      </trkpt>
      <trkpt lat="43.99843" lon="5.20401">
        <ele>961.515</ele>
        <time>2020-09-03T14:23:32Z</time>
      </trkpt>
      <trkpt lat="43.99837" lon="5.20392">
        <ele>960.057</ele>
        <time>2020-09-03T14:23:33Z</time>
      </trkpt>
      <trkpt lat="43.99828" lon="5.20383">
        <ele>958.311</ele>
        <time>2020-09-03T14:23:34Z</time>
      </trkpt>
      <trkpt lat="43.99822" lon="5.20373">
        <ele>956.336</ele>
        <time>2020-09-03T14:23:35Z</time>
      </trkpt>
      <trkpt lat="43.99815" lon="5.20363">
        <ele>953.837</ele>
        <time>2020-09-03T14:23:36Z</time>
      </trkpt>
      <trkpt lat="43.99808" lon="5.20351">
        <ele>951.409</ele>
        <time>2020-09-03T14:23:37Z</time>
      </trkpt>
      <trkpt lat="43.99808" lon="5.20351">
        <ele>948.806</ele>
        <time>2020-09-03T14:23:37Z</time>
      </trkpt>
      <trkpt lat="43.99793" lon="5.20329">
        <ele>947.005</ele>
        <time>2020-09-03T14:23:39Z</time>
      </trkpt>
      <trkpt lat="43.99793" lon="5.20329">
        <ele>945.689</ele>
        <time>2020-09-03T14:23:39Z</time>
      </trkpt>
      <trkpt lat="43.99793" lon="5.20329">
        <ele>944.476</ele>
        <time>2020-09-03T14:23:39Z</time>
      </trkpt>
      <trkpt lat="43.99793" lon="5.20329">
        <ele>943.697</ele>
        <time>2020-09-03T14:23:39Z</time>
      </trkpt>
      <trkpt lat="43.99793" lon="5.20329">
        <ele>942.987</ele>
        <time>2020-09-03T14:23:39Z</time>
      </trkpt>
      <trkpt lat="43.99754" lon="5.20283">
        <ele>942.174</ele>
        <time>2020-09-03T14:23:44Z</time>
      </trkpt>
      <trkpt lat="43.99754" lon="5.20283">
        <ele>940.921</ele>
        <time>2020-09-03T14:23:44Z</time>
      </trkpt>
      <trkpt lat="43.9974" lon="5.20265">
        <ele>939.212</ele>
        <time>2020-09-03T14:23:46Z</time>
      </trkpt>
      <trkpt lat="43.99732" lon="5.20257">
        <ele>937.839</ele>
        <time>2020-09-03T14:23:47Z</time>
      </trkpt>
      <trkpt lat="43.99724" lon="5.20248">
        <ele>936.163</ele>
        <time>2020-09-03T14:23:48Z</time>
      </trkpt>
      <trkpt lat="43.99717" lon="5.20239">
        <ele>934.488</ele>
        <time>2020-09-03T14:23:49Z</time>
      </trkpt>
      <trkpt lat="43.99701" lon="5.20224">
        <ele>932.798</ele>
        <time>2020-09-03T14:23:51Z</time>
      </trkpt>
      <trkpt lat="43.99693" lon="5.20215">
        <ele>931.183</ele>
        <time>2020-09-03T14:23:52Z</time>
      </trkpt>
      <trkpt lat="43.99686" lon="5.20206">
        <ele>929.226</ele>
        <time>2020-09-03T14:23:53Z</time>
      </trkpt>
      <trkpt lat="43.99679" lon="5.20196">
        <ele>927.402</ele>
        <time>2020-09-03T14:23:54Z</time>
      </trkpt>
      <trkpt lat="43.99671" lon="5.20186">
        <ele>925.805</ele>
        <time>2020-09-03T14:23:55Z</time>
      </trkpt>
      <trkpt lat="43.99663" lon="5.20177">
        <ele>924.15</ele>
        <time>2020-09-03T14:23:56Z</time>
      </trkpt>
      <trkpt lat="43.99655" lon="5.20169">
        <ele>922.736</ele>
        <time>2020-09-03T14:23:57Z</time>
      </trkpt>
      <trkpt lat="43.99648" lon="5.2016">
        <ele>921.634</ele>
        <time>2020-09-03T14:23:58Z</time>
      </trkpt>
      <trkpt lat="43.99641" lon="5.20151">
        <ele>919.985</ele>
        <time>2020-09-03T14:23:59Z</time>
      </trkpt>
      <trkpt lat="43.99641" lon="5.20151">
        <ele>918.634</ele>
        <time>2020-09-03T14:23:59Z</time>
      </trkpt>
      <trkpt lat="43.99626" lon="5.20133">
        <ele>917.181</ele>
        <time>2020-09-03T14:24:01Z</time>
      </trkpt>
      <trkpt lat="43.99619" lon="5.20124">
        <ele>916.279</ele>
        <time>2020-09-03T14:24:02Z</time>
      </trkpt>
      <trkpt lat="43.99611" lon="5.20114">
        <ele>914.929</ele>
        <time>2020-09-03T14:24:03Z</time>
      </trkpt>
      <trkpt lat="43.99603" lon="5.20104">
        <ele>913.72</ele>
        <time>2020-09-03T14:24:04Z</time>
      </trkpt>
      <trkpt lat="43.99595" lon="5.20094">
        <ele>912.778</ele>
        <time>2020-09-03T14:24:05Z</time>
      </trkpt>
      <trkpt lat="43.9958" lon="5.20076">
        <ele>912.183</ele>
        <time>2020-09-03T14:24:07Z</time>
      </trkpt>
      <trkpt lat="43.9958" lon="5.20076">
        <ele>911.542</ele>
        <time>2020-09-03T14:24:07Z</time>
      </trkpt>
      <trkpt lat="43.99574" lon="5.20067">
        <ele>910.641</ele>
        <time>2020-09-03T14:24:08Z</time>
      </trkpt>
      <trkpt lat="43.99562" lon="5.20047">
        <ele>909.408</ele>
        <time>2020-09-03T14:24:10Z</time>
      </trkpt>
      <trkpt lat="43.99555" lon="5.20037">
        <ele>908.252</ele>
        <time>2020-09-03T14:24:11Z</time>
      </trkpt>
      <trkpt lat="43.99547" lon="5.20026">
        <ele>907.092</ele>
        <time>2020-09-03T14:24:12Z</time>
      </trkpt>
      <trkpt lat="43.9954" lon="5.20016">
        <ele>906.544</ele>
        <time>2020-09-03T14:24:13Z</time>
      </trkpt>
      <trkpt lat="43.9954" lon="5.20016">
        <ele>906.356</ele>
        <time>2020-09-03T14:24:13Z</time>
      </trkpt>
      <trkpt lat="43.99526" lon="5.19998">
        <ele>906.305</ele>
        <time>2020-09-03T14:24:15Z</time>
      </trkpt>
      <trkpt lat="43.99519" lon="5.19988">
        <ele>906.083</ele>
        <time>2020-09-03T14:24:16Z</time>
      </trkpt>
      <trkpt lat="43.99512" lon="5.19978">
        <ele>905.209</ele>
        <time>2020-09-03T14:24:17Z</time>
      </trkpt>
      <trkpt lat="43.99504" lon="5.19967">
        <ele>904.01</ele>
        <time>2020-09-03T14:24:18Z</time>
      </trkpt>
      <trkpt lat="43.99496" lon="5.19957">
        <ele>903.081</ele>
        <time>2020-09-03T14:24:19Z</time>
      </trkpt>
      <trkpt lat="43.99488" lon="5.19947">
        <ele>902.334</ele>
        <time>2020-09-03T14:24:20Z</time>
      </trkpt>
      <trkpt lat="43.99481" lon="5.19937">
        <ele>901.759</ele>
        <time>2020-09-03T14:24:21Z</time>
      </trkpt>
      <trkpt lat="43.99474" lon="5.19928">
        <ele>900.973</ele>
        <time>2020-09-03T14:24:22Z</time>
      </trkpt>
      <trkpt lat="43.99467" lon="5.19918">
        <ele>899.961</ele>
        <time>2020-09-03T14:24:23Z</time>
      </trkpt>
      <trkpt lat="43.99459" lon="5.19908">
        <ele>898.728</ele>
        <time>2020-09-03T14:24:24Z</time>
      </trkpt>
      <trkpt lat="43.99444" lon="5.19886">
        <ele>897.493</ele>
        <time>2020-09-03T14:24:26Z</time>
      </trkpt>
      <trkpt lat="43.99436" lon="5.19875">
        <ele>896.478</ele>
        <time>2020-09-03T14:24:27Z</time>
      </trkpt>
      <trkpt lat="43.99429" lon="5.19864">
        <ele>895.696</ele>
        <time>2020-09-03T14:24:28Z</time>
      </trkpt>
      <trkpt lat="43.99429" lon="5.19864">
        <ele>894.818</ele>
        <time>2020-09-03T14:24:28Z</time>
      </trkpt>
      <trkpt lat="43.99414" lon="5.19844">
        <ele>893.969</ele>
        <time>2020-09-03T14:24:30Z</time>
      </trkpt>
      <trkpt lat="43.99408" lon="5.19835">
        <ele>892.859</ele>
        <time>2020-09-03T14:24:31Z</time>
      </trkpt>
      <trkpt lat="43.994" lon="5.19825">
        <ele>891.173</ele>
        <time>2020-09-03T14:24:32Z</time>
      </trkpt>
      <trkpt lat="43.99393" lon="5.19813">
        <ele>889.047</ele>
        <time>2020-09-03T14:24:33Z</time>
      </trkpt>
      <trkpt lat="43.99385" lon="5.19801">
        <ele>886.9</ele>
        <time>2020-09-03T14:24:34Z</time>
      </trkpt>
      <trkpt lat="43.99377" lon="5.19791">
        <ele>885.068</ele>
        <time>2020-09-03T14:24:35Z</time>
      </trkpt>
      <trkpt lat="43.99369" lon="5.19781">
        <ele>883.397</ele>
        <time>2020-09-03T14:24:36Z</time>
      </trkpt>
      <trkpt lat="43.99362" lon="5.19771">
        <ele>881.911</ele>
        <time>2020-09-03T14:24:37Z</time>
      </trkpt>
      <trkpt lat="43.99354" lon="5.19761">
        <ele>880.302</ele>
        <time>2020-09-03T14:24:38Z</time>
      </trkpt>
      <trkpt lat="43.99346" lon="5.19751">
        <ele>878.432</ele>
        <time>2020-09-03T14:24:39Z</time>
      </trkpt>
      <trkpt lat="43.99337" lon="5.19741">
        <ele>876.159</ele>
        <time>2020-09-03T14:24:40Z</time>
      </trkpt>
      <trkpt lat="43.99328" lon="5.1973">
        <ele>874.45</ele>
        <time>2020-09-03T14:24:41Z</time>
      </trkpt>
      <trkpt lat="43.99319" lon="5.1972">
        <ele>872.514</ele>
        <time>2020-09-03T14:24:42Z</time>
      </trkpt>
      <trkpt lat="43.99312" lon="5.19711">
        <ele>871.601</ele>
        <time>2020-09-03T14:24:43Z</time>
      </trkpt>
      <trkpt lat="43.99304" lon="5.19702">
        <ele>869.832</ele>
        <time>2020-09-03T14:24:44Z</time>
      </trkpt>
      <trkpt lat="43.99296" lon="5.19693">
        <ele>867.6</ele>
        <time>2020-09-03T14:24:45Z</time>
      </trkpt>
      <trkpt lat="43.99288" lon="5.19684">
        <ele>865.293</ele>
        <time>2020-09-03T14:24:46Z</time>
      </trkpt>
      <trkpt lat="43.99279" lon="5.19674">
        <ele>862.992</ele>
        <time>2020-09-03T14:24:47Z</time>
      </trkpt>
      <trkpt lat="43.99279" lon="5.19674">
        <ele>860.664</ele>
        <time>2020-09-03T14:24:47Z</time>
      </trkpt>
      <trkpt lat="43.99253" lon="5.19643">
        <ele>859.261</ele>
        <time>2020-09-03T14:24:50Z</time>
      </trkpt>
      <trkpt lat="43.99246" lon="5.19633">
        <ele>857.949</ele>
        <time>2020-09-03T14:24:51Z</time>
      </trkpt>
      <trkpt lat="43.99239" lon="5.19623">
        <ele>855.892</ele>
        <time>2020-09-03T14:24:52Z</time>
      </trkpt>
      <trkpt lat="43.99233" lon="5.19611">
        <ele>853.612</ele>
        <time>2020-09-03T14:24:53Z</time>
      </trkpt>
      <trkpt lat="43.99226" lon="5.19599">
        <ele>850.844</ele>
        <time>2020-09-03T14:24:54Z</time>
      </trkpt>
      <trkpt lat="43.99218" lon="5.19586">
        <ele>848.304</ele>
        <time>2020-09-03T14:24:55Z</time>
      </trkpt>
      <trkpt lat="43.99209" lon="5.19574">
        <ele>846.212</ele>
        <time>2020-09-03T14:24:56Z</time>
      </trkpt>
      <trkpt lat="43.99199" lon="5.19563">
        <ele>844.307</ele>
        <time>2020-09-03T14:24:57Z</time>
      </trkpt>
      <trkpt lat="43.9919" lon="5.19552">
        <ele>842.549</ele>
        <time>2020-09-03T14:24:58Z</time>
      </trkpt>
      <trkpt lat="43.99182" lon="5.19542">
        <ele>841.057</ele>
        <time>2020-09-03T14:24:59Z</time>
      </trkpt>
      <trkpt lat="43.99175" lon="5.19531">
        <ele>839.551</ele>
        <time>2020-09-03T14:25:00Z</time>
      </trkpt>
      <trkpt lat="43.99167" lon="5.19519">
        <ele>837.974</ele>
        <time>2020-09-03T14:25:01Z</time>
      </trkpt>
      <trkpt lat="43.99159" lon="5.19509">
        <ele>836.519</ele>
        <time>2020-09-03T14:25:02Z</time>
      </trkpt>
      <trkpt lat="43.99152" lon="5.19498">
        <ele>835.379</ele>
        <time>2020-09-03T14:25:03Z</time>
      </trkpt>
      <trkpt lat="43.99146" lon="5.19488">
        <ele>834.128</ele>
        <time>2020-09-03T14:25:04Z</time>
      </trkpt>
      <trkpt lat="43.9914" lon="5.19478">
        <ele>832.417</ele>
        <time>2020-09-03T14:25:05Z</time>
      </trkpt>
      <trkpt lat="43.99134" lon="5.19467">
        <ele>830.322</ele>
        <time>2020-09-03T14:25:06Z</time>
      </trkpt>
      <trkpt lat="43.99126" lon="5.19457">
        <ele>828.155</ele>
        <time>2020-09-03T14:25:07Z</time>
      </trkpt>
      <trkpt lat="43.99118" lon="5.19445">
        <ele>825.432</ele>
        <time>2020-09-03T14:25:08Z</time>
      </trkpt>
      <trkpt lat="43.9911" lon="5.19433">
        <ele>823.44</ele>
        <time>2020-09-03T14:25:09Z</time>
      </trkpt>
      <trkpt lat="43.9911" lon="5.19433">
        <ele>821.645</ele>
        <time>2020-09-03T14:25:09Z</time>
      </trkpt>
      <trkpt lat="43.99094" lon="5.19413">
        <ele>820.731</ele>
        <time>2020-09-03T14:25:11Z</time>
      </trkpt>
      <trkpt lat="43.99076" lon="5.19394">
        <ele>819.113</ele>
        <time>2020-09-03T14:25:13Z</time>
      </trkpt>
      <trkpt lat="43.99068" lon="5.19384">
        <ele>817.914</ele>
        <time>2020-09-03T14:25:14Z</time>
      </trkpt>
      <trkpt lat="43.99059" lon="5.19373">
        <ele>817.072</ele>
        <time>2020-09-03T14:25:15Z</time>
      </trkpt>
      <trkpt lat="43.99051" lon="5.19363">
        <ele>816.459</ele>
        <time>2020-09-03T14:25:16Z</time>
      </trkpt>
      <trkpt lat="43.99042" lon="5.19353">
        <ele>816.14</ele>
        <time>2020-09-03T14:25:17Z</time>
      </trkpt>
      <trkpt lat="43.99034" lon="5.19345">
        <ele>816.287</ele>
        <time>2020-09-03T14:25:18Z</time>
      </trkpt>
      <trkpt lat="43.99026" lon="5.19336">
        <ele>816.709</ele>
        <time>2020-09-03T14:25:19Z</time>
      </trkpt>
      <trkpt lat="43.9902" lon="5.19328">
        <ele>816.588</ele>
        <time>2020-09-03T14:25:20Z</time>
      </trkpt>
      <trkpt lat="43.99014" lon="5.19318">
        <ele>815.664</ele>
        <time>2020-09-03T14:25:21Z</time>
      </trkpt>
      <trkpt lat="43.9901" lon="5.19308">
        <ele>814.229</ele>
        <time>2020-09-03T14:25:22Z</time>
      </trkpt>
      <trkpt lat="43.99005" lon="5.19296">
        <ele>812.365</ele>
        <time>2020-09-03T14:25:23Z</time>
      </trkpt>
      <trkpt lat="43.99" lon="5.19284">
        <ele>810.65</ele>
        <time>2020-09-03T14:25:24Z</time>
      </trkpt>
      <trkpt lat="43.98996" lon="5.19271">
        <ele>808.724</ele>
        <time>2020-09-03T14:25:25Z</time>
      </trkpt>
      <trkpt lat="43.98991" lon="5.1926">
        <ele>806.853</ele>
        <time>2020-09-03T14:25:26Z</time>
      </trkpt>
      <trkpt lat="43.98984" lon="5.19249">
        <ele>805.058</ele>
        <time>2020-09-03T14:25:27Z</time>
      </trkpt>
      <trkpt lat="43.98977" lon="5.19238">
        <ele>803.002</ele>
        <time>2020-09-03T14:25:28Z</time>
      </trkpt>
      <trkpt lat="43.98969" lon="5.19227">
        <ele>801.194</ele>
        <time>2020-09-03T14:25:29Z</time>
      </trkpt>
      <trkpt lat="43.98961" lon="5.19216">
        <ele>799.583</ele>
        <time>2020-09-03T14:25:30Z</time>
      </trkpt>
      <trkpt lat="43.98953" lon="5.19206">
        <ele>798.457</ele>
        <time>2020-09-03T14:25:31Z</time>
      </trkpt>
      <trkpt lat="43.98945" lon="5.19197">
        <ele>797.285</ele>
        <time>2020-09-03T14:25:32Z</time>
      </trkpt>
      <trkpt lat="43.98936" lon="5.19189">
        <ele>796.227</ele>
        <time>2020-09-03T14:25:33Z</time>
      </trkpt>
      <trkpt lat="43.98919" lon="5.19174">
        <ele>794.395</ele>
        <time>2020-09-03T14:25:35Z</time>
      </trkpt>
      <trkpt lat="43.9891" lon="5.19165">
        <ele>792.54</ele>
        <time>2020-09-03T14:25:36Z</time>
      </trkpt>
      <trkpt lat="43.989" lon="5.19157">
        <ele>790.151</ele>
        <time>2020-09-03T14:25:37Z</time>
      </trkpt>
      <trkpt lat="43.98891" lon="5.1915">
        <ele>787.816</ele>
        <time>2020-09-03T14:25:38Z</time>
      </trkpt>
      <trkpt lat="43.98881" lon="5.19144">
        <ele>785.869</ele>
        <time>2020-09-03T14:25:39Z</time>
      </trkpt>
      <trkpt lat="43.98872" lon="5.19137">
        <ele>785.097</ele>
        <time>2020-09-03T14:25:40Z</time>
      </trkpt>
      <trkpt lat="43.98863" lon="5.19129">
        <ele>782.83</ele>
        <time>2020-09-03T14:25:41Z</time>
      </trkpt>
      <trkpt lat="43.98854" lon="5.19121">
        <ele>780.635</ele>
        <time>2020-09-03T14:25:42Z</time>
      </trkpt>
      <trkpt lat="43.98844" lon="5.19113">
        <ele>778.698</ele>
        <time>2020-09-03T14:25:43Z</time>
      </trkpt>
      <trkpt lat="43.98834" lon="5.19106">
        <ele>777.087</ele>
        <time>2020-09-03T14:25:44Z</time>
      </trkpt>
      <trkpt lat="43.98834" lon="5.19106">
        <ele>775.723</ele>
        <time>2020-09-03T14:25:44Z</time>
      </trkpt>
      <trkpt lat="43.98834" lon="5.19106">
        <ele>774.574</ele>
        <time>2020-09-03T14:25:44Z</time>
      </trkpt>
      <trkpt lat="43.98834" lon="5.19106">
        <ele>773.763</ele>
        <time>2020-09-03T14:25:44Z</time>
      </trkpt>
      <trkpt lat="43.98834" lon="5.19106">
        <ele>772.973</ele>
        <time>2020-09-03T14:25:44Z</time>
      </trkpt>
      <trkpt lat="43.98789" lon="5.19065">
        <ele>772.071</ele>
        <time>2020-09-03T14:25:49Z</time>
      </trkpt>
      <trkpt lat="43.98789" lon="5.19065">
        <ele>771.019</ele>
        <time>2020-09-03T14:25:49Z</time>
      </trkpt>
      <trkpt lat="43.98773" lon="5.19047">
        <ele>769.851</ele>
        <time>2020-09-03T14:25:51Z</time>
      </trkpt>
      <trkpt lat="43.98766" lon="5.19036">
        <ele>768.587</ele>
        <time>2020-09-03T14:25:52Z</time>
      </trkpt>
      <trkpt lat="43.98759" lon="5.19023">
        <ele>767.966</ele>
        <time>2020-09-03T14:25:53Z</time>
      </trkpt>
      <trkpt lat="43.98752" lon="5.19011">
        <ele>768.349</ele>
        <time>2020-09-03T14:25:54Z</time>
      </trkpt>
      <trkpt lat="43.98744" lon="5.18999">
        <ele>769.613</ele>
        <time>2020-09-03T14:25:55Z</time>
      </trkpt>
      <trkpt lat="43.98736" lon="5.1899">
        <ele>771.096</ele>
        <time>2020-09-03T14:25:56Z</time>
      </trkpt>
      <trkpt lat="43.98728" lon="5.18983">
        <ele>772.648</ele>
        <time>2020-09-03T14:25:57Z</time>
      </trkpt>
      <trkpt lat="43.98722" lon="5.18975">
        <ele>773.426</ele>
        <time>2020-09-03T14:25:58Z</time>
      </trkpt>
      <trkpt lat="43.98708" lon="5.18959">
        <ele>773.376</ele>
        <time>2020-09-03T14:26:00Z</time>
      </trkpt>
      <trkpt lat="43.987" lon="5.18949">
        <ele>772.619</ele>
        <time>2020-09-03T14:26:01Z</time>
      </trkpt>
      <trkpt lat="43.98691" lon="5.18938">
        <ele>771.68</ele>
        <time>2020-09-03T14:26:02Z</time>
      </trkpt>
      <trkpt lat="43.98684" lon="5.18927">
        <ele>771.787</ele>
        <time>2020-09-03T14:26:03Z</time>
      </trkpt>
      <trkpt lat="43.98677" lon="5.18917">
        <ele>772.776</ele>
        <time>2020-09-03T14:26:04Z</time>
      </trkpt>
      <trkpt lat="43.98671" lon="5.18908">
        <ele>773.481</ele>
        <time>2020-09-03T14:26:05Z</time>
      </trkpt>
      <trkpt lat="43.98665" lon="5.18899">
        <ele>773.629</ele>
        <time>2020-09-03T14:26:06Z</time>
      </trkpt>
      <trkpt lat="43.98657" lon="5.18891">
        <ele>773.162</ele>
        <time>2020-09-03T14:26:07Z</time>
      </trkpt>
      <trkpt lat="43.98657" lon="5.18891">
        <ele>772.814</ele>
        <time>2020-09-03T14:26:07Z</time>
      </trkpt>
      <trkpt lat="43.98638" lon="5.18873">
        <ele>772.217</ele>
        <time>2020-09-03T14:26:09Z</time>
      </trkpt>
      <trkpt lat="43.98628" lon="5.18864">
        <ele>772.004</ele>
        <time>2020-09-03T14:26:10Z</time>
      </trkpt>
      <trkpt lat="43.98628" lon="5.18864">
        <ele>772.054</ele>
        <time>2020-09-03T14:26:10Z</time>
      </trkpt>
      <trkpt lat="43.98609" lon="5.1885">
        <ele>772.276</ele>
        <time>2020-09-03T14:26:12Z</time>
      </trkpt>
      <trkpt lat="43.986" lon="5.18842">
        <ele>772.813</ele>
        <time>2020-09-03T14:26:13Z</time>
      </trkpt>
      <trkpt lat="43.9859" lon="5.18834">
        <ele>773.493</ele>
        <time>2020-09-03T14:26:14Z</time>
      </trkpt>
      <trkpt lat="43.9859" lon="5.18834">
        <ele>774.29</ele>
        <time>2020-09-03T14:26:14Z</time>
      </trkpt>
      <trkpt lat="43.9859" lon="5.18834">
        <ele>774.802</ele>
        <time>2020-09-03T14:26:14Z</time>
      </trkpt>
      <trkpt lat="43.9859" lon="5.18834">
        <ele>774.802</ele>
        <time>2020-09-03T14:26:14Z</time>
      </trkpt>
      <trkpt lat="43.9859" lon="5.18834">
        <ele>773.871</ele>
        <time>2020-09-03T14:26:14Z</time>
      </trkpt>
      <trkpt lat="43.98551" lon="5.18802">
        <ele>772.562</ele>
        <time>2020-09-03T14:26:19Z</time>
      </trkpt>
      <trkpt lat="43.98551" lon="5.18802">
        <ele>771.856</ele>
        <time>2020-09-03T14:26:19Z</time>
      </trkpt>
      <trkpt lat="43.98551" lon="5.18802">
        <ele>772.028</ele>
        <time>2020-09-03T14:26:19Z</time>
      </trkpt>
      <trkpt lat="43.98551" lon="5.18802">
        <ele>772.735</ele>
        <time>2020-09-03T14:26:19Z</time>
      </trkpt>
      <trkpt lat="43.98527" lon="5.18771">
        <ele>773.261</ele>
        <time>2020-09-03T14:26:23Z</time>
      </trkpt>
      <trkpt lat="43.98514" lon="5.18761">
        <ele>773.193</ele>
        <time>2020-09-03T14:26:25Z</time>
      </trkpt>
      <trkpt lat="43.98506" lon="5.18756">
        <ele>772.029</ele>
        <time>2020-09-03T14:26:26Z</time>
      </trkpt>
      <trkpt lat="43.98498" lon="5.1875">
        <ele>770.602</ele>
        <time>2020-09-03T14:26:27Z</time>
      </trkpt>
      <trkpt lat="43.98489" lon="5.18743">
        <ele>769.086</ele>
        <time>2020-09-03T14:26:28Z</time>
      </trkpt>
      <trkpt lat="43.98481" lon="5.18737">
        <ele>767.875</ele>
        <time>2020-09-03T14:26:29Z</time>
      </trkpt>
      <trkpt lat="43.98473" lon="5.18731">
        <ele>766.658</ele>
        <time>2020-09-03T14:26:30Z</time>
      </trkpt>
      <trkpt lat="43.98465" lon="5.18724">
        <ele>765.071</ele>
        <time>2020-09-03T14:26:31Z</time>
      </trkpt>
      <trkpt lat="43.98457" lon="5.18717">
        <ele>763.5</ele>
        <time>2020-09-03T14:26:32Z</time>
      </trkpt>
      <trkpt lat="43.98449" lon="5.1871">
        <ele>761.832</ele>
        <time>2020-09-03T14:26:33Z</time>
      </trkpt>
      <trkpt lat="43.98434" lon="5.18697">
        <ele>760.322</ele>
        <time>2020-09-03T14:26:35Z</time>
      </trkpt>
      <trkpt lat="43.98427" lon="5.1869">
        <ele>759.457</ele>
        <time>2020-09-03T14:26:36Z</time>
      </trkpt>
      <trkpt lat="43.9842" lon="5.18683">
        <ele>757.581</ele>
        <time>2020-09-03T14:26:37Z</time>
      </trkpt>
      <trkpt lat="43.98413" lon="5.18675">
        <ele>755.592</ele>
        <time>2020-09-03T14:26:38Z</time>
      </trkpt>
      <trkpt lat="43.98406" lon="5.18667">
        <ele>753.389</ele>
        <time>2020-09-03T14:26:39Z</time>
      </trkpt>
      <trkpt lat="43.98399" lon="5.1866">
        <ele>751.365</ele>
        <time>2020-09-03T14:26:40Z</time>
      </trkpt>
      <trkpt lat="43.98391" lon="5.18653">
        <ele>749.359</ele>
        <time>2020-09-03T14:26:41Z</time>
      </trkpt>
      <trkpt lat="43.98384" lon="5.18646">
        <ele>747.316</ele>
        <time>2020-09-03T14:26:42Z</time>
      </trkpt>
      <trkpt lat="43.98378" lon="5.18639">
        <ele>745.529</ele>
        <time>2020-09-03T14:26:43Z</time>
      </trkpt>
      <trkpt lat="43.98372" lon="5.18632">
        <ele>743.147</ele>
        <time>2020-09-03T14:26:44Z</time>
      </trkpt>
      <trkpt lat="43.98365" lon="5.18623">
        <ele>740.891</ele>
        <time>2020-09-03T14:26:45Z</time>
      </trkpt>
      <trkpt lat="43.98358" lon="5.18615">
        <ele>738.449</ele>
        <time>2020-09-03T14:26:46Z</time>
      </trkpt>
      <trkpt lat="43.98352" lon="5.18607">
        <ele>736.139</ele>
        <time>2020-09-03T14:26:47Z</time>
      </trkpt>
      <trkpt lat="43.98345" lon="5.18599">
        <ele>734.143</ele>
        <time>2020-09-03T14:26:48Z</time>
      </trkpt>
      <trkpt lat="43.98339" lon="5.18591">
        <ele>731.893</ele>
        <time>2020-09-03T14:26:49Z</time>
      </trkpt>
      <trkpt lat="43.98333" lon="5.18583">
        <ele>729.186</ele>
        <time>2020-09-03T14:26:50Z</time>
      </trkpt>
      <trkpt lat="43.98326" lon="5.18574">
        <ele>726.933</ele>
        <time>2020-09-03T14:26:51Z</time>
      </trkpt>
      <trkpt lat="43.9832" lon="5.18565">
        <ele>724.366</ele>
        <time>2020-09-03T14:26:52Z</time>
      </trkpt>
      <trkpt lat="43.98315" lon="5.18556">
        <ele>721.828</ele>
        <time>2020-09-03T14:26:53Z</time>
      </trkpt>
      <trkpt lat="43.98309" lon="5.18547">
        <ele>719.547</ele>
        <time>2020-09-03T14:26:54Z</time>
      </trkpt>
      <trkpt lat="43.983" lon="5.18528">
        <ele>718.211</ele>
        <time>2020-09-03T14:26:56Z</time>
      </trkpt>
      <trkpt lat="43.98296" lon="5.18518">
        <ele>717.766</ele>
        <time>2020-09-03T14:26:57Z</time>
      </trkpt>
      <trkpt lat="43.98293" lon="5.1851">
        <ele>718.394</ele>
        <time>2020-09-03T14:26:58Z</time>
      </trkpt>
      <trkpt lat="43.98289" lon="5.18504">
        <ele>719.602</ele>
        <time>2020-09-03T14:26:59Z</time>
      </trkpt>
      <trkpt lat="43.98285" lon="5.18499">
        <ele>720.848</ele>
        <time>2020-09-03T14:27:00Z</time>
      </trkpt>
      <trkpt lat="43.9828" lon="5.18494">
        <ele>721.505</ele>
        <time>2020-09-03T14:27:01Z</time>
      </trkpt>
      <trkpt lat="43.98274" lon="5.18489">
        <ele>721.416</ele>
        <time>2020-09-03T14:27:02Z</time>
      </trkpt>
      <trkpt lat="43.98267" lon="5.18485">
        <ele>720.988</ele>
        <time>2020-09-03T14:27:03Z</time>
      </trkpt>
      <trkpt lat="43.98259" lon="5.18485">
        <ele>720.73</ele>
        <time>2020-09-03T14:27:04Z</time>
      </trkpt>
      <trkpt lat="43.98251" lon="5.1849">
        <ele>720.531</ele>
        <time>2020-09-03T14:27:05Z</time>
      </trkpt>
      <trkpt lat="43.98243" lon="5.18499">
        <ele>720.545</ele>
        <time>2020-09-03T14:27:06Z</time>
      </trkpt>
      <trkpt lat="43.98238" lon="5.1851">
        <ele>720.855</ele>
        <time>2020-09-03T14:27:07Z</time>
      </trkpt>
      <trkpt lat="43.98236" lon="5.18521">
        <ele>721.202</ele>
        <time>2020-09-03T14:27:08Z</time>
      </trkpt>
      <trkpt lat="43.98236" lon="5.18533">
        <ele>721.646</ele>
        <time>2020-09-03T14:27:09Z</time>
      </trkpt>
      <trkpt lat="43.98238" lon="5.18545">
        <ele>722.188</ele>
        <time>2020-09-03T14:27:10Z</time>
      </trkpt>
      <trkpt lat="43.98244" lon="5.18556">
        <ele>722.838</ele>
        <time>2020-09-03T14:27:11Z</time>
      </trkpt>
      <trkpt lat="43.98251" lon="5.18562">
        <ele>723.421</ele>
        <time>2020-09-03T14:27:12Z</time>
      </trkpt>
      <trkpt lat="43.9826" lon="5.18564">
        <ele>723.803</ele>
        <time>2020-09-03T14:27:13Z</time>
      </trkpt>
      <trkpt lat="43.98268" lon="5.1856">
        <ele>724.198</ele>
        <time>2020-09-03T14:27:14Z</time>
      </trkpt>
      <trkpt lat="43.98274" lon="5.18554">
        <ele>724.772</ele>
        <time>2020-09-03T14:27:15Z</time>
      </trkpt>
      <trkpt lat="43.98274" lon="5.18554">
        <ele>725.397</ele>
        <time>2020-09-03T14:27:15Z</time>
      </trkpt>
      <trkpt lat="43.98284" lon="5.1854">
        <ele>725.998</ele>
        <time>2020-09-03T14:27:17Z</time>
      </trkpt>
      <trkpt lat="43.98284" lon="5.1854">
        <ele>726.419</ele>
        <time>2020-09-03T14:27:17Z</time>
      </trkpt>
      <trkpt lat="43.98282" lon="5.18514">
        <ele>726.347</ele>
        <time>2020-09-03T14:27:20Z</time>
      </trkpt>
      <trkpt lat="43.98277" lon="5.18508">
        <ele>725.963</ele>
        <time>2020-09-03T14:27:21Z</time>
      </trkpt>
      <trkpt lat="43.9827" lon="5.18505">
        <ele>725.171</ele>
        <time>2020-09-03T14:27:22Z</time>
      </trkpt>
      <trkpt lat="43.98262" lon="5.18505">
        <ele>724.39</ele>
        <time>2020-09-03T14:27:23Z</time>
      </trkpt>
      <trkpt lat="43.98253" lon="5.1851">
        <ele>723.507</ele>
        <time>2020-09-03T14:27:24Z</time>
      </trkpt>
      <trkpt lat="43.98245" lon="5.18518">
        <ele>723.033</ele>
        <time>2020-09-03T14:27:25Z</time>
      </trkpt>
      <trkpt lat="43.98238" lon="5.18527">
        <ele>723.1</ele>
        <time>2020-09-03T14:27:26Z</time>
      </trkpt>
      <trkpt lat="43.98233" lon="5.18538">
        <ele>723.401</ele>
        <time>2020-09-03T14:27:27Z</time>
      </trkpt>
      <trkpt lat="43.98233" lon="5.18538">
        <ele>723.78</ele>
        <time>2020-09-03T14:27:27Z</time>
      </trkpt>
      <trkpt lat="43.98225" lon="5.18561">
        <ele>724.054</ele>
        <time>2020-09-03T14:27:29Z</time>
      </trkpt>
      <trkpt lat="43.98225" lon="5.18561">
        <ele>724.302</ele>
        <time>2020-09-03T14:27:29Z</time>
      </trkpt>
      <trkpt lat="43.98225" lon="5.18561">
        <ele>724.582</ele>
        <time>2020-09-03T14:27:29Z</time>
      </trkpt>
      <trkpt lat="43.98225" lon="5.18561">
        <ele>724.802</ele>
        <time>2020-09-03T14:27:29Z</time>
      </trkpt>
      <trkpt lat="43.98225" lon="5.18561">
        <ele>725.527</ele>
        <time>2020-09-03T14:27:29Z</time>
      </trkpt>
      <trkpt lat="43.98211" lon="5.18622">
        <ele>726.075</ele>
        <time>2020-09-03T14:27:34Z</time>
      </trkpt>
      <trkpt lat="43.98207" lon="5.18634">
        <ele>726.322</ele>
        <time>2020-09-03T14:27:35Z</time>
      </trkpt>
      <trkpt lat="43.98204" lon="5.18646">
        <ele>726.194</ele>
        <time>2020-09-03T14:27:36Z</time>
      </trkpt>
      <trkpt lat="43.98203" lon="5.18657">
        <ele>725.649</ele>
        <time>2020-09-03T14:27:37Z</time>
      </trkpt>
      <trkpt lat="43.98204" lon="5.18667">
        <ele>724.437</ele>
        <time>2020-09-03T14:27:38Z</time>
      </trkpt>
      <trkpt lat="43.98207" lon="5.18674">
        <ele>723.091</ele>
        <time>2020-09-03T14:27:39Z</time>
      </trkpt>
      <trkpt lat="43.98212" lon="5.1868">
        <ele>721.578</ele>
        <time>2020-09-03T14:27:40Z</time>
      </trkpt>
      <trkpt lat="43.98225" lon="5.18682">
        <ele>719.969</ele>
        <time>2020-09-03T14:27:42Z</time>
      </trkpt>
      <trkpt lat="43.98231" lon="5.18677">
        <ele>718.419</ele>
        <time>2020-09-03T14:27:43Z</time>
      </trkpt>
      <trkpt lat="43.98235" lon="5.18668">
        <ele>717.058</ele>
        <time>2020-09-03T14:27:44Z</time>
      </trkpt>
      <trkpt lat="43.98237" lon="5.18657">
        <ele>716.237</ele>
        <time>2020-09-03T14:27:45Z</time>
      </trkpt>
      <trkpt lat="43.98237" lon="5.18648">
        <ele>716.122</ele>
        <time>2020-09-03T14:27:46Z</time>
      </trkpt>
      <trkpt lat="43.98237" lon="5.18639">
        <ele>716.355</ele>
        <time>2020-09-03T14:27:47Z</time>
      </trkpt>
      <trkpt lat="43.98237" lon="5.18631">
        <ele>716.391</ele>
        <time>2020-09-03T14:27:48Z</time>
      </trkpt>
      <trkpt lat="43.98236" lon="5.18622">
        <ele>716.112</ele>
        <time>2020-09-03T14:27:49Z</time>
      </trkpt>
      <trkpt lat="43.98235" lon="5.18612">
        <ele>715.761</ele>
        <time>2020-09-03T14:27:50Z</time>
      </trkpt>
      <trkpt lat="43.98233" lon="5.18602">
        <ele>715.445</ele>
        <time>2020-09-03T14:27:51Z</time>
      </trkpt>
      <trkpt lat="43.98231" lon="5.18592">
        <ele>715.545</ele>
        <time>2020-09-03T14:27:52Z</time>
      </trkpt>
      <trkpt lat="43.98231" lon="5.18592">
        <ele>715.818</ele>
        <time>2020-09-03T14:27:52Z</time>
      </trkpt>
      <trkpt lat="43.98222" lon="5.18576">
        <ele>715.896</ele>
        <time>2020-09-03T14:27:54Z</time>
      </trkpt>
      <trkpt lat="43.98216" lon="5.1857">
        <ele>715.814</ele>
        <time>2020-09-03T14:27:55Z</time>
      </trkpt>
      <trkpt lat="43.98207" lon="5.18554">
        <ele>715.21</ele>
        <time>2020-09-03T14:27:57Z</time>
      </trkpt>
      <trkpt lat="43.98202" lon="5.18544">
        <ele>714.127</ele>
        <time>2020-09-03T14:27:58Z</time>
      </trkpt>
      <trkpt lat="43.98202" lon="5.18544">
        <ele>712.93</ele>
        <time>2020-09-03T14:27:58Z</time>
      </trkpt>
      <trkpt lat="43.98191" lon="5.18524">
        <ele>712.398</ele>
        <time>2020-09-03T14:28:00Z</time>
      </trkpt>
      <trkpt lat="43.98186" lon="5.18514">
        <ele>712.377</ele>
        <time>2020-09-03T14:28:01Z</time>
      </trkpt>
      <trkpt lat="43.98181" lon="5.18507">
        <ele>712.998</ele>
        <time>2020-09-03T14:28:02Z</time>
      </trkpt>
      <trkpt lat="43.98176" lon="5.18501">
        <ele>714.025</ele>
        <time>2020-09-03T14:28:03Z</time>
      </trkpt>
      <trkpt lat="43.98176" lon="5.18501">
        <ele>714.771</ele>
        <time>2020-09-03T14:28:03Z</time>
      </trkpt>
      <trkpt lat="43.98165" lon="5.18489">
        <ele>715.027</ele>
        <time>2020-09-03T14:28:05Z</time>
      </trkpt>
      <trkpt lat="43.98161" lon="5.1848">
        <ele>714.802</ele>
        <time>2020-09-03T14:28:06Z</time>
      </trkpt>
      <trkpt lat="43.9816" lon="5.18468">
        <ele>714.399</ele>
        <time>2020-09-03T14:28:07Z</time>
      </trkpt>
      <trkpt lat="43.98161" lon="5.18456">
        <ele>714.101</ele>
        <time>2020-09-03T14:28:08Z</time>
      </trkpt>
      <trkpt lat="43.98166" lon="5.18445">
        <ele>714.303</ele>
        <time>2020-09-03T14:28:09Z</time>
      </trkpt>
      <trkpt lat="43.98173" lon="5.18435">
        <ele>715.09</ele>
        <time>2020-09-03T14:28:10Z</time>
      </trkpt>
      <trkpt lat="43.9818" lon="5.18427">
        <ele>717.013</ele>
        <time>2020-09-03T14:28:11Z</time>
      </trkpt>
      <trkpt lat="43.98184" lon="5.18419">
        <ele>719.12</ele>
        <time>2020-09-03T14:28:12Z</time>
      </trkpt>
      <trkpt lat="43.98186" lon="5.18412">
        <ele>720.428</ele>
        <time>2020-09-03T14:28:13Z</time>
      </trkpt>
      <trkpt lat="43.98185" lon="5.18399">
        <ele>720.652</ele>
        <time>2020-09-03T14:28:15Z</time>
      </trkpt>
      <trkpt lat="43.98186" lon="5.1839">
        <ele>720.286</ele>
        <time>2020-09-03T14:28:16Z</time>
      </trkpt>
      <trkpt lat="43.98188" lon="5.18382">
        <ele>719.338</ele>
        <time>2020-09-03T14:28:17Z</time>
      </trkpt>
      <trkpt lat="43.98193" lon="5.18375">
        <ele>717.966</ele>
        <time>2020-09-03T14:28:18Z</time>
      </trkpt>
      <trkpt lat="43.982" lon="5.18374">
        <ele>716.077</ele>
        <time>2020-09-03T14:28:19Z</time>
      </trkpt>
      <trkpt lat="43.98207" lon="5.1838">
        <ele>714.33</ele>
        <time>2020-09-03T14:28:20Z</time>
      </trkpt>
      <trkpt lat="43.98211" lon="5.18392">
        <ele>712.781</ele>
        <time>2020-09-03T14:28:21Z</time>
      </trkpt>
      <trkpt lat="43.98211" lon="5.18405">
        <ele>710.58</ele>
        <time>2020-09-03T14:28:22Z</time>
      </trkpt>
      <trkpt lat="43.98208" lon="5.18417">
        <ele>707.584</ele>
        <time>2020-09-03T14:28:23Z</time>
      </trkpt>
      <trkpt lat="43.98203" lon="5.18428">
        <ele>705.358</ele>
        <time>2020-09-03T14:28:24Z</time>
      </trkpt>
      <trkpt lat="43.98196" lon="5.18436">
        <ele>703.553</ele>
        <time>2020-09-03T14:28:25Z</time>
      </trkpt>
      <trkpt lat="43.98188" lon="5.18445">
        <ele>701.962</ele>
        <time>2020-09-03T14:28:26Z</time>
      </trkpt>
      <trkpt lat="43.9818" lon="5.18454">
        <ele>700.681</ele>
        <time>2020-09-03T14:28:27Z</time>
      </trkpt>
      <trkpt lat="43.98172" lon="5.18463">
        <ele>700.043</ele>
        <time>2020-09-03T14:28:28Z</time>
      </trkpt>
      <trkpt lat="43.98165" lon="5.18474">
        <ele>699.414</ele>
        <time>2020-09-03T14:28:29Z</time>
      </trkpt>
      <trkpt lat="43.98157" lon="5.18482">
        <ele>699.295</ele>
        <time>2020-09-03T14:28:30Z</time>
      </trkpt>
      <trkpt lat="43.98148" lon="5.18486">
        <ele>699.495</ele>
        <time>2020-09-03T14:28:31Z</time>
      </trkpt>
      <trkpt lat="43.98138" lon="5.18485">
        <ele>699.654</ele>
        <time>2020-09-03T14:28:32Z</time>
      </trkpt>
      <trkpt lat="43.98129" lon="5.18479">
        <ele>699.998</ele>
        <time>2020-09-03T14:28:33Z</time>
      </trkpt>
      <trkpt lat="43.98122" lon="5.18471">
        <ele>700.83</ele>
        <time>2020-09-03T14:28:34Z</time>
      </trkpt>
      <trkpt lat="43.98116" lon="5.18463">
        <ele>702.391</ele>
        <time>2020-09-03T14:28:35Z</time>
      </trkpt>
      <trkpt lat="43.98103" lon="5.18452">
        <ele>704.457</ele>
        <time>2020-09-03T14:28:37Z</time>
      </trkpt>
      <trkpt lat="43.98095" lon="5.18451">
        <ele>705.827</ele>
        <time>2020-09-03T14:28:38Z</time>
      </trkpt>
      <trkpt lat="43.98085" lon="5.1845">
        <ele>706.777</ele>
        <time>2020-09-03T14:28:39Z</time>
      </trkpt>
      <trkpt lat="43.98076" lon="5.18448">
        <ele>708.095</ele>
        <time>2020-09-03T14:28:40Z</time>
      </trkpt>
      <trkpt lat="43.98071" lon="5.18442">
        <ele>709.738</ele>
        <time>2020-09-03T14:28:41Z</time>
      </trkpt>
      <trkpt lat="43.98069" lon="5.18431">
        <ele>711.358</ele>
        <time>2020-09-03T14:28:42Z</time>
      </trkpt>
      <trkpt lat="43.98069" lon="5.1842">
        <ele>712.834</ele>
        <time>2020-09-03T14:28:43Z</time>
      </trkpt>
      <trkpt lat="43.98077" lon="5.18411">
        <ele>714.382</ele>
        <time>2020-09-03T14:28:44Z</time>
      </trkpt>
      <trkpt lat="43.98087" lon="5.18411">
        <ele>715.061</ele>
        <time>2020-09-03T14:28:45Z</time>
      </trkpt>
      <trkpt lat="43.98094" lon="5.18419">
        <ele>714.893</ele>
        <time>2020-09-03T14:28:46Z</time>
      </trkpt>
      <trkpt lat="43.98098" lon="5.1843">
        <ele>714.628</ele>
        <time>2020-09-03T14:28:47Z</time>
      </trkpt>
      <trkpt lat="43.981" lon="5.18442">
        <ele>714.421</ele>
        <time>2020-09-03T14:28:48Z</time>
      </trkpt>
      <trkpt lat="43.98096" lon="5.18453">
        <ele>713.996</ele>
        <time>2020-09-03T14:28:49Z</time>
      </trkpt>
      <trkpt lat="43.98091" lon="5.18462">
        <ele>713.461</ele>
        <time>2020-09-03T14:28:50Z</time>
      </trkpt>
      <trkpt lat="43.9808" lon="5.18463">
        <ele>713.168</ele>
        <time>2020-09-03T14:28:51Z</time>
      </trkpt>
      <trkpt lat="43.9808" lon="5.18463">
        <ele>713.678</ele>
        <time>2020-09-03T14:28:51Z</time>
      </trkpt>
      <trkpt lat="43.98064" lon="5.1846">
        <ele>715.557</ele>
        <time>2020-09-03T14:28:53Z</time>
      </trkpt>
      <trkpt lat="43.98057" lon="5.18459">
        <ele>717.891</ele>
        <time>2020-09-03T14:28:54Z</time>
      </trkpt>
      <trkpt lat="43.98051" lon="5.18458">
        <ele>719.555</ele>
        <time>2020-09-03T14:28:55Z</time>
      </trkpt>
      <trkpt lat="43.98051" lon="5.18458">
        <ele>720.155</ele>
        <time>2020-09-03T14:28:55Z</time>
      </trkpt>
      <trkpt lat="43.98042" lon="5.18459">
        <ele>719.503</ele>
        <time>2020-09-03T14:28:57Z</time>
      </trkpt>
      <trkpt lat="43.98035" lon="5.18453">
        <ele>717.237</ele>
        <time>2020-09-03T14:28:58Z</time>
      </trkpt>
      <trkpt lat="43.98028" lon="5.18429">
        <ele>715.025</ele>
        <time>2020-09-03T14:29:00Z</time>
      </trkpt>
      <trkpt lat="43.98029" lon="5.18415">
        <ele>713.904</ele>
        <time>2020-09-03T14:29:01Z</time>
      </trkpt>
      <trkpt lat="43.9803" lon="5.18402">
        <ele>714.189</ele>
        <time>2020-09-03T14:29:02Z</time>
      </trkpt>
      <trkpt lat="43.98029" lon="5.18391">
        <ele>715.924</ele>
        <time>2020-09-03T14:29:03Z</time>
      </trkpt>
      <trkpt lat="43.98026" lon="5.18379">
        <ele>718.793</ele>
        <time>2020-09-03T14:29:04Z</time>
      </trkpt>
      <trkpt lat="43.98022" lon="5.18369">
        <ele>721.595</ele>
        <time>2020-09-03T14:29:05Z</time>
      </trkpt>
      <trkpt lat="43.98018" lon="5.18358">
        <ele>724.31</ele>
        <time>2020-09-03T14:29:06Z</time>
      </trkpt>
      <trkpt lat="43.98017" lon="5.18348">
        <ele>726.296</ele>
        <time>2020-09-03T14:29:07Z</time>
      </trkpt>
      <trkpt lat="43.98017" lon="5.18348">
        <ele>727.854</ele>
        <time>2020-09-03T14:29:07Z</time>
      </trkpt>
      <trkpt lat="43.98034" lon="5.18334">
        <ele>729.049</ele>
        <time>2020-09-03T14:29:10Z</time>
      </trkpt>
      <trkpt lat="43.98038" lon="5.18338">
        <ele>729.921</ele>
        <time>2020-09-03T14:29:11Z</time>
      </trkpt>
      <trkpt lat="43.9804" lon="5.18348">
        <ele>730.633</ele>
        <time>2020-09-03T14:29:12Z</time>
      </trkpt>
      <trkpt lat="43.98039" lon="5.18359">
        <ele>731.128</ele>
        <time>2020-09-03T14:29:13Z</time>
      </trkpt>
      <trkpt lat="43.98039" lon="5.18359">
        <ele>731.733</ele>
        <time>2020-09-03T14:29:13Z</time>
      </trkpt>
      <trkpt lat="43.98029" lon="5.18376">
        <ele>732.47</ele>
        <time>2020-09-03T14:29:15Z</time>
      </trkpt>
      <trkpt lat="43.98021" lon="5.1838">
        <ele>733.25</ele>
        <time>2020-09-03T14:29:16Z</time>
      </trkpt>
      <trkpt lat="43.98012" lon="5.18379">
        <ele>733.992</ele>
        <time>2020-09-03T14:29:17Z</time>
      </trkpt>
      <trkpt lat="43.98002" lon="5.18374">
        <ele>734.599</ele>
        <time>2020-09-03T14:29:18Z</time>
      </trkpt>
      <trkpt lat="43.98002" lon="5.18374">
        <ele>735.537</ele>
        <time>2020-09-03T14:29:18Z</time>
      </trkpt>
      <trkpt lat="43.97987" lon="5.18355">
        <ele>736.648</ele>
        <time>2020-09-03T14:29:20Z</time>
      </trkpt>
      <trkpt lat="43.97984" lon="5.18343">
        <ele>738.178</ele>
        <time>2020-09-03T14:29:21Z</time>
      </trkpt>
      <trkpt lat="43.97983" lon="5.18331">
        <ele>739.777</ele>
        <time>2020-09-03T14:29:22Z</time>
      </trkpt>
      <trkpt lat="43.97983" lon="5.1832">
        <ele>741.276</ele>
        <time>2020-09-03T14:29:23Z</time>
      </trkpt>
      <trkpt lat="43.97985" lon="5.18312">
        <ele>742.539</ele>
        <time>2020-09-03T14:29:24Z</time>
      </trkpt>
      <trkpt lat="43.97989" lon="5.18306">
        <ele>743.443</ele>
        <time>2020-09-03T14:29:25Z</time>
      </trkpt>
      <trkpt lat="43.97996" lon="5.18304">
        <ele>744.199</ele>
        <time>2020-09-03T14:29:26Z</time>
      </trkpt>
      <trkpt lat="43.98002" lon="5.18306">
        <ele>744.898</ele>
        <time>2020-09-03T14:29:27Z</time>
      </trkpt>
      <trkpt lat="43.98008" lon="5.18312">
        <ele>745.403</ele>
        <time>2020-09-03T14:29:28Z</time>
      </trkpt>
      <trkpt lat="43.98012" lon="5.18323">
        <ele>746.452</ele>
        <time>2020-09-03T14:29:29Z</time>
      </trkpt>
      <trkpt lat="43.98012" lon="5.18323">
        <ele>747.626</ele>
        <time>2020-09-03T14:29:29Z</time>
      </trkpt>
      <trkpt lat="43.98008" lon="5.18347">
        <ele>748.924</ele>
        <time>2020-09-03T14:29:31Z</time>
      </trkpt>
      <trkpt lat="43.98008" lon="5.18347">
        <ele>750.755</ele>
        <time>2020-09-03T14:29:31Z</time>
      </trkpt>
      <trkpt lat="43.98008" lon="5.18347">
        <ele>752.429</ele>
        <time>2020-09-03T14:29:31Z</time>
      </trkpt>
      <trkpt lat="43.97976" lon="5.18368">
        <ele>754.519</ele>
        <time>2020-09-03T14:29:35Z</time>
      </trkpt>
      <trkpt lat="43.97966" lon="5.18367">
        <ele>756.571</ele>
        <time>2020-09-03T14:29:36Z</time>
      </trkpt>
      <trkpt lat="43.97956" lon="5.18362">
        <ele>758.066</ele>
        <time>2020-09-03T14:29:37Z</time>
      </trkpt>
      <trkpt lat="43.9795" lon="5.18352">
        <ele>759.507</ele>
        <time>2020-09-03T14:29:38Z</time>
      </trkpt>
      <trkpt lat="43.97947" lon="5.1834">
        <ele>760.407</ele>
        <time>2020-09-03T14:29:39Z</time>
      </trkpt>
      <trkpt lat="43.97948" lon="5.18329">
        <ele>761.137</ele>
        <time>2020-09-03T14:29:40Z</time>
      </trkpt>
      <trkpt lat="43.97951" lon="5.1832">
        <ele>761.62</ele>
        <time>2020-09-03T14:29:41Z</time>
      </trkpt>
      <trkpt lat="43.97958" lon="5.1832">
        <ele>761.941</ele>
        <time>2020-09-03T14:29:42Z</time>
      </trkpt>
      <trkpt lat="43.97963" lon="5.18324">
        <ele>762.19</ele>
        <time>2020-09-03T14:29:43Z</time>
      </trkpt>
      <trkpt lat="43.97968" lon="5.18331">
        <ele>762.466</ele>
        <time>2020-09-03T14:29:44Z</time>
      </trkpt>
      <trkpt lat="43.9797" lon="5.1834">
        <ele>762.726</ele>
        <time>2020-09-03T14:29:45Z</time>
      </trkpt>
      <trkpt lat="43.97969" lon="5.18352">
        <ele>763.119</ele>
        <time>2020-09-03T14:29:46Z</time>
      </trkpt>
      <trkpt lat="43.97966" lon="5.18365">
        <ele>764.06</ele>
        <time>2020-09-03T14:29:47Z</time>
      </trkpt>
      <trkpt lat="43.97962" lon="5.18377">
        <ele>765.53</ele>
        <time>2020-09-03T14:29:48Z</time>
      </trkpt>
      <trkpt lat="43.9796" lon="5.1839">
        <ele>767.6</ele>
        <time>2020-09-03T14:29:49Z</time>
      </trkpt>
      <trkpt lat="43.97959" lon="5.18401">
        <ele>770.167</ele>
        <time>2020-09-03T14:29:50Z</time>
      </trkpt>
      <trkpt lat="43.9796" lon="5.18411">
        <ele>773.495</ele>
        <time>2020-09-03T14:29:51Z</time>
      </trkpt>
      <trkpt lat="43.9796" lon="5.18411">
        <ele>774.705</ele>
        <time>2020-09-03T14:29:51Z</time>
      </trkpt>
      <trkpt lat="43.97969" lon="5.18427">
        <ele>776.061</ele>
        <time>2020-09-03T14:29:53Z</time>
      </trkpt>
      <trkpt lat="43.97977" lon="5.1843">
        <ele>776.693</ele>
        <time>2020-09-03T14:29:54Z</time>
      </trkpt>
      <trkpt lat="43.97977" lon="5.1843">
        <ele>777.444</ele>
        <time>2020-09-03T14:29:54Z</time>
      </trkpt>
      <trkpt lat="43.97993" lon="5.18425">
        <ele>778.812</ele>
        <time>2020-09-03T14:29:56Z</time>
      </trkpt>
      <trkpt lat="43.98001" lon="5.18404">
        <ele>780.36</ele>
        <time>2020-09-03T14:29:58Z</time>
      </trkpt>
      <trkpt lat="43.98001" lon="5.18404">
        <ele>781.857</ele>
        <time>2020-09-03T14:29:58Z</time>
      </trkpt>
      <trkpt lat="43.97994" lon="5.18379">
        <ele>782.694</ele>
        <time>2020-09-03T14:30:00Z</time>
      </trkpt>
      <trkpt lat="43.97987" lon="5.18368">
        <ele>783.324</ele>
        <time>2020-09-03T14:30:01Z</time>
      </trkpt>
      <trkpt lat="43.97978" lon="5.18363">
        <ele>783.803</ele>
        <time>2020-09-03T14:30:02Z</time>
      </trkpt>
      <trkpt lat="43.97967" lon="5.18364">
        <ele>784.518</ele>
        <time>2020-09-03T14:30:03Z</time>
      </trkpt>
      <trkpt lat="43.97958" lon="5.18371">
        <ele>785.357</ele>
        <time>2020-09-03T14:30:04Z</time>
      </trkpt>
      <trkpt lat="43.97951" lon="5.18382">
        <ele>786.514</ele>
        <time>2020-09-03T14:30:05Z</time>
      </trkpt>
      <trkpt lat="43.97947" lon="5.18394">
        <ele>788.177</ele>
        <time>2020-09-03T14:30:06Z</time>
      </trkpt>
      <trkpt lat="43.97946" lon="5.18405">
        <ele>790.127</ele>
        <time>2020-09-03T14:30:07Z</time>
      </trkpt>
      <trkpt lat="43.97949" lon="5.18415">
        <ele>791.964</ele>
        <time>2020-09-03T14:30:08Z</time>
      </trkpt>
      <trkpt lat="43.97955" lon="5.1842">
        <ele>793.452</ele>
        <time>2020-09-03T14:30:09Z</time>
      </trkpt>
      <trkpt lat="43.97963" lon="5.1842">
        <ele>794.66</ele>
        <time>2020-09-03T14:30:10Z</time>
      </trkpt>
      <trkpt lat="43.9797" lon="5.18415">
        <ele>795.921</ele>
        <time>2020-09-03T14:30:11Z</time>
      </trkpt>
      <trkpt lat="43.97974" lon="5.18405">
        <ele>797.254</ele>
        <time>2020-09-03T14:30:12Z</time>
      </trkpt>
      <trkpt lat="43.97974" lon="5.18392">
        <ele>798.315</ele>
        <time>2020-09-03T14:30:13Z</time>
      </trkpt>
      <trkpt lat="43.97971" lon="5.18379">
        <ele>799.183</ele>
        <time>2020-09-03T14:30:14Z</time>
      </trkpt>
      <trkpt lat="43.97965" lon="5.18367">
        <ele>799.519</ele>
        <time>2020-09-03T14:30:15Z</time>
      </trkpt>
      <trkpt lat="43.97955" lon="5.18359">
        <ele>799.874</ele>
        <time>2020-09-03T14:30:16Z</time>
      </trkpt>
      <trkpt lat="43.97944" lon="5.18354">
        <ele>800.972</ele>
        <time>2020-09-03T14:30:17Z</time>
      </trkpt>
      <trkpt lat="43.97944" lon="5.18354">
        <ele>802.194</ele>
        <time>2020-09-03T14:30:17Z</time>
      </trkpt>
      <trkpt lat="43.97916" lon="5.18367">
        <ele>804.022</ele>
        <time>2020-09-03T14:30:20Z</time>
      </trkpt>
      <trkpt lat="43.97909" lon="5.18376">
        <ele>805.066</ele>
        <time>2020-09-03T14:30:21Z</time>
      </trkpt>
      <trkpt lat="43.97903" lon="5.18386">
        <ele>807.065</ele>
        <time>2020-09-03T14:30:22Z</time>
      </trkpt>
      <trkpt lat="43.97897" lon="5.18395">
        <ele>809.705</ele>
        <time>2020-09-03T14:30:23Z</time>
      </trkpt>
      <trkpt lat="43.97894" lon="5.18405">
        <ele>811.064</ele>
        <time>2020-09-03T14:30:24Z</time>
      </trkpt>
      <trkpt lat="43.97893" lon="5.18416">
        <ele>811.167</ele>
        <time>2020-09-03T14:30:25Z</time>
      </trkpt>
      <trkpt lat="43.97897" lon="5.18427">
        <ele>810.014</ele>
        <time>2020-09-03T14:30:26Z</time>
      </trkpt>
      <trkpt lat="43.97903" lon="5.18437">
        <ele>808.664</ele>
        <time>2020-09-03T14:30:27Z</time>
      </trkpt>
      <trkpt lat="43.9791" lon="5.18445">
        <ele>807.411</ele>
        <time>2020-09-03T14:30:28Z</time>
      </trkpt>
      <trkpt lat="43.97916" lon="5.18451">
        <ele>806.085</ele>
        <time>2020-09-03T14:30:29Z</time>
      </trkpt>
      <trkpt lat="43.97916" lon="5.18451">
        <ele>805.008</ele>
        <time>2020-09-03T14:30:29Z</time>
      </trkpt>
      <trkpt lat="43.97916" lon="5.18451">
        <ele>804.249</ele>
        <time>2020-09-03T14:30:29Z</time>
      </trkpt>
      <trkpt lat="43.97916" lon="5.18451">
        <ele>804.174</ele>
        <time>2020-09-03T14:30:29Z</time>
      </trkpt>
      <trkpt lat="43.97916" lon="5.18451">
        <ele>804.724</ele>
        <time>2020-09-03T14:30:29Z</time>
      </trkpt>
      <trkpt lat="43.97946" lon="5.18468">
        <ele>805.456</ele>
        <time>2020-09-03T14:30:34Z</time>
      </trkpt>
      <trkpt lat="43.97951" lon="5.18475">
        <ele>806.198</ele>
        <time>2020-09-03T14:30:35Z</time>
      </trkpt>
      <trkpt lat="43.97955" lon="5.18483">
        <ele>807.33</ele>
        <time>2020-09-03T14:30:36Z</time>
      </trkpt>
      <trkpt lat="43.97958" lon="5.18492">
        <ele>808.656</ele>
        <time>2020-09-03T14:30:37Z</time>
      </trkpt>
      <trkpt lat="43.9796" lon="5.18501">
        <ele>810.025</ele>
        <time>2020-09-03T14:30:38Z</time>
      </trkpt>
      <trkpt lat="43.97963" lon="5.18523">
        <ele>811.669</ele>
        <time>2020-09-03T14:30:40Z</time>
      </trkpt>
      <trkpt lat="43.97964" lon="5.18534">
        <ele>813.073</ele>
        <time>2020-09-03T14:30:41Z</time>
      </trkpt>
      <trkpt lat="43.97966" lon="5.18544">
        <ele>814.323</ele>
        <time>2020-09-03T14:30:42Z</time>
      </trkpt>
      <trkpt lat="43.9797" lon="5.18553">
        <ele>814.989</ele>
        <time>2020-09-03T14:30:43Z</time>
      </trkpt>
      <trkpt lat="43.97975" lon="5.1856">
        <ele>815.257</ele>
        <time>2020-09-03T14:30:44Z</time>
      </trkpt>
      <trkpt lat="43.97982" lon="5.18566">
        <ele>815.295</ele>
        <time>2020-09-03T14:30:45Z</time>
      </trkpt>
      <trkpt lat="43.97988" lon="5.1857">
        <ele>815.545</ele>
        <time>2020-09-03T14:30:46Z</time>
      </trkpt>
      <trkpt lat="43.97995" lon="5.18575">
        <ele>816.188</ele>
        <time>2020-09-03T14:30:47Z</time>
      </trkpt>
      <trkpt lat="43.98001" lon="5.18581">
        <ele>816.779</ele>
        <time>2020-09-03T14:30:48Z</time>
      </trkpt>
      <trkpt lat="43.98007" lon="5.18588">
        <ele>817.02</ele>
        <time>2020-09-03T14:30:49Z</time>
      </trkpt>
      <trkpt lat="43.98013" lon="5.18594">
        <ele>816.593</ele>
        <time>2020-09-03T14:30:50Z</time>
      </trkpt>
      <trkpt lat="43.9802" lon="5.18597">
        <ele>814.94</ele>
        <time>2020-09-03T14:30:51Z</time>
      </trkpt>
      <trkpt lat="43.98027" lon="5.18597">
        <ele>812.572</ele>
        <time>2020-09-03T14:30:52Z</time>
      </trkpt>
      <trkpt lat="43.98034" lon="5.18593">
        <ele>809.286</ele>
        <time>2020-09-03T14:30:53Z</time>
      </trkpt>
      <trkpt lat="43.98039" lon="5.18585">
        <ele>806.488</ele>
        <time>2020-09-03T14:30:54Z</time>
      </trkpt>
      <trkpt lat="43.98042" lon="5.18575">
        <ele>803.789</ele>
        <time>2020-09-03T14:30:55Z</time>
      </trkpt>
      <trkpt lat="43.98043" lon="5.18564">
        <ele>802.14</ele>
        <time>2020-09-03T14:30:56Z</time>
      </trkpt>
      <trkpt lat="43.98042" lon="5.18552">
        <ele>801.398</ele>
        <time>2020-09-03T14:30:57Z</time>
      </trkpt>
      <trkpt lat="43.98042" lon="5.18541">
        <ele>801.324</ele>
        <time>2020-09-03T14:30:58Z</time>
      </trkpt>
      <trkpt lat="43.9804" lon="5.18531">
        <ele>801.764</ele>
        <time>2020-09-03T14:30:59Z</time>
      </trkpt>
      <trkpt lat="43.9804" lon="5.18531">
        <ele>802.341</ele>
        <time>2020-09-03T14:30:59Z</time>
      </trkpt>
      <trkpt lat="43.9804" lon="5.18531">
        <ele>802.853</ele>
        <time>2020-09-03T14:30:59Z</time>
      </trkpt>
      <trkpt lat="43.9804" lon="5.18531">
        <ele>802.868</ele>
        <time>2020-09-03T14:30:59Z</time>
      </trkpt>
      <trkpt lat="43.9804" lon="5.18531">
        <ele>802.476</ele>
        <time>2020-09-03T14:30:59Z</time>
      </trkpt>
      <trkpt lat="43.98026" lon="5.18489">
        <ele>801.694</ele>
        <time>2020-09-03T14:31:04Z</time>
      </trkpt>
      <trkpt lat="43.98026" lon="5.18489">
        <ele>800.834</ele>
        <time>2020-09-03T14:31:04Z</time>
      </trkpt>
      <trkpt lat="43.98015" lon="5.18458">
        <ele>799.939</ele>
        <time>2020-09-03T14:31:07Z</time>
      </trkpt>
      <trkpt lat="43.98012" lon="5.18448">
        <ele>799.415</ele>
        <time>2020-09-03T14:31:08Z</time>
      </trkpt>
      <trkpt lat="43.98007" lon="5.18437">
        <ele>799.412</ele>
        <time>2020-09-03T14:31:09Z</time>
      </trkpt>
      <trkpt lat="43.98001" lon="5.18428">
        <ele>799.767</ele>
        <time>2020-09-03T14:31:10Z</time>
      </trkpt>
      <trkpt lat="43.97995" lon="5.1842">
        <ele>800.137</ele>
        <time>2020-09-03T14:31:11Z</time>
      </trkpt>
      <trkpt lat="43.9799" lon="5.18411">
        <ele>800.409</ele>
        <time>2020-09-03T14:31:12Z</time>
      </trkpt>
      <trkpt lat="43.97985" lon="5.18401">
        <ele>800.509</ele>
        <time>2020-09-03T14:31:13Z</time>
      </trkpt>
      <trkpt lat="43.97981" lon="5.18391">
        <ele>800.672</ele>
        <time>2020-09-03T14:31:14Z</time>
      </trkpt>
      <trkpt lat="43.97981" lon="5.18391">
        <ele>801.066</ele>
        <time>2020-09-03T14:31:14Z</time>
      </trkpt>
      <trkpt lat="43.97981" lon="5.18391">
        <ele>801.472</ele>
        <time>2020-09-03T14:31:14Z</time>
      </trkpt>
      <trkpt lat="43.97981" lon="5.18391">
        <ele>802.544</ele>
        <time>2020-09-03T14:31:14Z</time>
      </trkpt>
      <trkpt lat="43.97981" lon="5.18391">
        <ele>803.884</ele>
        <time>2020-09-03T14:31:14Z</time>
      </trkpt>
      <trkpt lat="43.97962" lon="5.18339">
        <ele>805.344</ele>
        <time>2020-09-03T14:31:19Z</time>
      </trkpt>
      <trkpt lat="43.97962" lon="5.18339">
        <ele>806.736</ele>
        <time>2020-09-03T14:31:19Z</time>
      </trkpt>
      <trkpt lat="43.97962" lon="5.18339">
        <ele>807.977</ele>
        <time>2020-09-03T14:31:19Z</time>
      </trkpt>
      <trkpt lat="43.97956" lon="5.18315">
        <ele>808.741</ele>
        <time>2020-09-03T14:31:22Z</time>
      </trkpt>
      <trkpt lat="43.97955" lon="5.18308">
        <ele>808.97</ele>
        <time>2020-09-03T14:31:23Z</time>
      </trkpt>
      <trkpt lat="43.97956" lon="5.18301">
        <ele>808.829</ele>
        <time>2020-09-03T14:31:24Z</time>
      </trkpt>
      <trkpt lat="43.97959" lon="5.18294">
        <ele>808.449</ele>
        <time>2020-09-03T14:31:25Z</time>
      </trkpt>
      <trkpt lat="43.97964" lon="5.18287">
        <ele>808.203</ele>
        <time>2020-09-03T14:31:26Z</time>
      </trkpt>
      <trkpt lat="43.9797" lon="5.18284">
        <ele>808.184</ele>
        <time>2020-09-03T14:31:27Z</time>
      </trkpt>
      <trkpt lat="43.97977" lon="5.18286">
        <ele>808.461</ele>
        <time>2020-09-03T14:31:28Z</time>
      </trkpt>
      <trkpt lat="43.9799" lon="5.18301">
        <ele>808.825</ele>
        <time>2020-09-03T14:31:30Z</time>
      </trkpt>
      <trkpt lat="43.97994" lon="5.18313">
        <ele>809.362</ele>
        <time>2020-09-03T14:31:31Z</time>
      </trkpt>
      <trkpt lat="43.97997" lon="5.18325">
        <ele>810.078</ele>
        <time>2020-09-03T14:31:32Z</time>
      </trkpt>
      <trkpt lat="43.97998" lon="5.18339">
        <ele>811.282</ele>
        <time>2020-09-03T14:31:33Z</time>
      </trkpt>
      <trkpt lat="43.97998" lon="5.18339">
        <ele>812.796</ele>
        <time>2020-09-03T14:31:33Z</time>
      </trkpt>
      <trkpt lat="43.97991" lon="5.18365">
        <ele>814.145</ele>
        <time>2020-09-03T14:31:35Z</time>
      </trkpt>
      <trkpt lat="43.97983" lon="5.18375">
        <ele>816.476</ele>
        <time>2020-09-03T14:31:36Z</time>
      </trkpt>
      <trkpt lat="43.97974" lon="5.1838">
        <ele>818.396</ele>
        <time>2020-09-03T14:31:37Z</time>
      </trkpt>
      <trkpt lat="43.97965" lon="5.18378">
        <ele>819.741</ele>
        <time>2020-09-03T14:31:38Z</time>
      </trkpt>
      <trkpt lat="43.97958" lon="5.18372">
        <ele>821.087</ele>
        <time>2020-09-03T14:31:39Z</time>
      </trkpt>
      <trkpt lat="43.97954" lon="5.18364">
        <ele>822.227</ele>
        <time>2020-09-03T14:31:40Z</time>
      </trkpt>
      <trkpt lat="43.97953" lon="5.18355">
        <ele>822.947</ele>
        <time>2020-09-03T14:31:41Z</time>
      </trkpt>
      <trkpt lat="43.97954" lon="5.18347">
        <ele>823.552</ele>
        <time>2020-09-03T14:31:42Z</time>
      </trkpt>
      <trkpt lat="43.97957" lon="5.18339">
        <ele>824.093</ele>
        <time>2020-09-03T14:31:43Z</time>
      </trkpt>
      <trkpt lat="43.97957" lon="5.18339">
        <ele>824.269</ele>
        <time>2020-09-03T14:31:43Z</time>
      </trkpt>
      <trkpt lat="43.97957" lon="5.18339">
        <ele>824.461</ele>
        <time>2020-09-03T14:31:43Z</time>
      </trkpt>
      <trkpt lat="43.97957" lon="5.18339">
        <ele>824.66</ele>
        <time>2020-09-03T14:31:43Z</time>
      </trkpt>
      <trkpt lat="43.97957" lon="5.18339">
        <ele>824.944</ele>
        <time>2020-09-03T14:31:43Z</time>
      </trkpt>
      <trkpt lat="43.97989" lon="5.18345">
        <ele>825.441</ele>
        <time>2020-09-03T14:31:48Z</time>
      </trkpt>
      <trkpt lat="43.97995" lon="5.18355">
        <ele>826.586</ele>
        <time>2020-09-03T14:31:49Z</time>
      </trkpt>
      <trkpt lat="43.97999" lon="5.18367">
        <ele>827.991</ele>
        <time>2020-09-03T14:31:50Z</time>
      </trkpt>
      <trkpt lat="43.98005" lon="5.18394">
        <ele>830.105</ele>
        <time>2020-09-03T14:31:52Z</time>
      </trkpt>
      <trkpt lat="43.98008" lon="5.18408">
        <ele>832.37</ele>
        <time>2020-09-03T14:31:53Z</time>
      </trkpt>
      <trkpt lat="43.98008" lon="5.18408">
        <ele>835.011</ele>
        <time>2020-09-03T14:31:53Z</time>
      </trkpt>
      <trkpt lat="43.98006" lon="5.18434">
        <ele>837.843</ele>
        <time>2020-09-03T14:31:55Z</time>
      </trkpt>
      <trkpt lat="43.98001" lon="5.18445">
        <ele>840.44</ele>
        <time>2020-09-03T14:31:56Z</time>
      </trkpt>
      <trkpt lat="43.97992" lon="5.18451">
        <ele>842.498</ele>
        <time>2020-09-03T14:31:57Z</time>
      </trkpt>
      <trkpt lat="43.97983" lon="5.18452">
        <ele>844.241</ele>
        <time>2020-09-03T14:31:58Z</time>
      </trkpt>
      <trkpt lat="43.97974" lon="5.18448">
        <ele>845.614</ele>
        <time>2020-09-03T14:31:59Z</time>
      </trkpt>
      <trkpt lat="43.97968" lon="5.1844">
        <ele>847.62</ele>
        <time>2020-09-03T14:32:00Z</time>
      </trkpt>
      <trkpt lat="43.97965" lon="5.18431">
        <ele>849.775</ele>
        <time>2020-09-03T14:32:01Z</time>
      </trkpt>
      <trkpt lat="43.97966" lon="5.18422">
        <ele>852.28</ele>
        <time>2020-09-03T14:32:02Z</time>
      </trkpt>
      <trkpt lat="43.9797" lon="5.18416">
        <ele>854.765</ele>
        <time>2020-09-03T14:32:03Z</time>
      </trkpt>
      <trkpt lat="43.97976" lon="5.18413">
        <ele>856.863</ele>
        <time>2020-09-03T14:32:04Z</time>
      </trkpt>
      <trkpt lat="43.97983" lon="5.18414">
        <ele>859.219</ele>
        <time>2020-09-03T14:32:05Z</time>
      </trkpt>
      <trkpt lat="43.97989" lon="5.18418">
        <ele>860.981</ele>
        <time>2020-09-03T14:32:06Z</time>
      </trkpt>
      <trkpt lat="43.97995" lon="5.18427">
        <ele>862.949</ele>
        <time>2020-09-03T14:32:07Z</time>
      </trkpt>
      <trkpt lat="43.97995" lon="5.18427">
        <ele>864.672</ele>
        <time>2020-09-03T14:32:07Z</time>
      </trkpt>
      <trkpt lat="43.98" lon="5.18453">
        <ele>866.6</ele>
        <time>2020-09-03T14:32:09Z</time>
      </trkpt>
      <trkpt lat="43.97997" lon="5.18468">
        <ele>868.646</ele>
        <time>2020-09-03T14:32:10Z</time>
      </trkpt>
      <trkpt lat="43.9799" lon="5.1848">
        <ele>870.69</ele>
        <time>2020-09-03T14:32:11Z</time>
      </trkpt>
      <trkpt lat="43.97973" lon="5.18488">
        <ele>871.852</ele>
        <time>2020-09-03T14:32:13Z</time>
      </trkpt>
      <trkpt lat="43.97973" lon="5.18488">
        <ele>873.897</ele>
        <time>2020-09-03T14:32:13Z</time>
      </trkpt>
      <trkpt lat="43.97958" lon="5.18483">
        <ele>875.45</ele>
        <time>2020-09-03T14:32:15Z</time>
      </trkpt>
      <trkpt lat="43.97951" lon="5.18478">
        <ele>876.612</ele>
        <time>2020-09-03T14:32:16Z</time>
      </trkpt>
      <trkpt lat="43.97944" lon="5.18472">
        <ele>877.967</ele>
        <time>2020-09-03T14:32:17Z</time>
      </trkpt>
      <trkpt lat="43.97937" lon="5.18467">
        <ele>879.462</ele>
        <time>2020-09-03T14:32:18Z</time>
      </trkpt>
      <trkpt lat="43.97937" lon="5.18467">
        <ele>881.221</ele>
        <time>2020-09-03T14:32:18Z</time>
      </trkpt>
      <trkpt lat="43.97923" lon="5.1846">
        <ele>882.792</ele>
        <time>2020-09-03T14:32:20Z</time>
      </trkpt>
      <trkpt lat="43.97917" lon="5.18456">
        <ele>884.306</ele>
        <time>2020-09-03T14:32:21Z</time>
      </trkpt>
      <trkpt lat="43.97913" lon="5.1845">
        <ele>885.241</ele>
        <time>2020-09-03T14:32:22Z</time>
      </trkpt>
      <trkpt lat="43.97911" lon="5.18442">
        <ele>885.822</ele>
        <time>2020-09-03T14:32:23Z</time>
      </trkpt>
      <trkpt lat="43.97911" lon="5.18442">
        <ele>886.33</ele>
        <time>2020-09-03T14:32:23Z</time>
      </trkpt>
      <trkpt lat="43.97914" lon="5.18424">
        <ele>887.037</ele>
        <time>2020-09-03T14:32:25Z</time>
      </trkpt>
      <trkpt lat="43.97917" lon="5.18417">
        <ele>888.035</ele>
        <time>2020-09-03T14:32:26Z</time>
      </trkpt>
      <trkpt lat="43.97921" lon="5.1841">
        <ele>889.254</ele>
        <time>2020-09-03T14:32:27Z</time>
      </trkpt>
      <trkpt lat="43.97924" lon="5.18403">
        <ele>891.109</ele>
        <time>2020-09-03T14:32:28Z</time>
      </trkpt>
      <trkpt lat="43.97926" lon="5.18394">
        <ele>893.194</ele>
        <time>2020-09-03T14:32:29Z</time>
      </trkpt>
      <trkpt lat="43.97927" lon="5.18385">
        <ele>895.51</ele>
        <time>2020-09-03T14:32:30Z</time>
      </trkpt>
      <trkpt lat="43.97926" lon="5.18374">
        <ele>897.697</ele>
        <time>2020-09-03T14:32:31Z</time>
      </trkpt>
      <trkpt lat="43.97925" lon="5.18365">
        <ele>899.371</ele>
        <time>2020-09-03T14:32:32Z</time>
      </trkpt>
      <trkpt lat="43.97926" lon="5.18356">
        <ele>900.742</ele>
        <time>2020-09-03T14:32:33Z</time>
      </trkpt>
      <trkpt lat="43.97935" lon="5.18344">
        <ele>901.341</ele>
        <time>2020-09-03T14:32:35Z</time>
      </trkpt>
      <trkpt lat="43.97943" lon="5.18341">
        <ele>901.536</ele>
        <time>2020-09-03T14:32:36Z</time>
      </trkpt>
      <trkpt lat="43.97952" lon="5.18341">
        <ele>901.821</ele>
        <time>2020-09-03T14:32:37Z</time>
      </trkpt>
      <trkpt lat="43.97961" lon="5.18345">
        <ele>902.565</ele>
        <time>2020-09-03T14:32:38Z</time>
      </trkpt>
      <trkpt lat="43.97969" lon="5.18349">
        <ele>903.703</ele>
        <time>2020-09-03T14:32:39Z</time>
      </trkpt>
      <trkpt lat="43.97975" lon="5.18355">
        <ele>905.119</ele>
        <time>2020-09-03T14:32:40Z</time>
      </trkpt>
      <trkpt lat="43.97981" lon="5.18363">
        <ele>906.092</ele>
        <time>2020-09-03T14:32:41Z</time>
      </trkpt>
      <trkpt lat="43.97986" lon="5.18372">
        <ele>907.327</ele>
        <time>2020-09-03T14:32:42Z</time>
      </trkpt>
      <trkpt lat="43.97989" lon="5.18384">
        <ele>908.408</ele>
        <time>2020-09-03T14:32:43Z</time>
      </trkpt>
      <trkpt lat="43.9799" lon="5.18399">
        <ele>909.036</ele>
        <time>2020-09-03T14:32:44Z</time>
      </trkpt>
      <trkpt lat="43.97985" lon="5.18413">
        <ele>909.643</ele>
        <time>2020-09-03T14:32:45Z</time>
      </trkpt>
      <trkpt lat="43.97976" lon="5.18425">
        <ele>910.442</ele>
        <time>2020-09-03T14:32:46Z</time>
      </trkpt>
      <trkpt lat="43.97966" lon="5.18434">
        <ele>911.693</ele>
        <time>2020-09-03T14:32:47Z</time>
      </trkpt>
      <trkpt lat="43.97956" lon="5.18439">
        <ele>913.363</ele>
        <time>2020-09-03T14:32:48Z</time>
      </trkpt>
      <trkpt lat="43.97946" lon="5.18441">
        <ele>915.248</ele>
        <time>2020-09-03T14:32:49Z</time>
      </trkpt>
      <trkpt lat="43.97937" lon="5.1844">
        <ele>917.775</ele>
        <time>2020-09-03T14:32:50Z</time>
      </trkpt>
      <trkpt lat="43.97929" lon="5.18434">
        <ele>921.026</ele>
        <time>2020-09-03T14:32:51Z</time>
      </trkpt>
      <trkpt lat="43.97925" lon="5.18425">
        <ele>924.156</ele>
        <time>2020-09-03T14:32:52Z</time>
      </trkpt>
      <trkpt lat="43.97924" lon="5.18414">
        <ele>926.645</ele>
        <time>2020-09-03T14:32:53Z</time>
      </trkpt>
      <trkpt lat="43.97932" lon="5.18396">
        <ele>929.073</ele>
        <time>2020-09-03T14:32:55Z</time>
      </trkpt>
      <trkpt lat="43.9794" lon="5.18392">
        <ele>930.933</ele>
        <time>2020-09-03T14:32:56Z</time>
      </trkpt>
      <trkpt lat="43.97949" lon="5.18394">
        <ele>932.589</ele>
        <time>2020-09-03T14:32:57Z</time>
      </trkpt>
      <trkpt lat="43.97956" lon="5.18402">
        <ele>933.945</ele>
        <time>2020-09-03T14:32:58Z</time>
      </trkpt>
      <trkpt lat="43.97961" lon="5.18414">
        <ele>935.384</ele>
        <time>2020-09-03T14:32:59Z</time>
      </trkpt>
      <trkpt lat="43.97964" lon="5.18427">
        <ele>936.876</ele>
        <time>2020-09-03T14:33:00Z</time>
      </trkpt>
      <trkpt lat="43.97963" lon="5.18442">
        <ele>938.68</ele>
        <time>2020-09-03T14:33:01Z</time>
      </trkpt>
      <trkpt lat="43.97959" lon="5.18455">
        <ele>940.21</ele>
        <time>2020-09-03T14:33:02Z</time>
      </trkpt>
      <trkpt lat="43.97953" lon="5.18467">
        <ele>942</ele>
        <time>2020-09-03T14:33:03Z</time>
      </trkpt>
      <trkpt lat="43.97943" lon="5.18476">
        <ele>943.756</ele>
        <time>2020-09-03T14:33:04Z</time>
      </trkpt>
      <trkpt lat="43.97933" lon="5.1848">
        <ele>945.57</ele>
        <time>2020-09-03T14:33:05Z</time>
      </trkpt>
      <trkpt lat="43.97924" lon="5.18478">
        <ele>947.555</ele>
        <time>2020-09-03T14:33:06Z</time>
      </trkpt>
      <trkpt lat="43.97914" lon="5.18474">
        <ele>949.737</ele>
        <time>2020-09-03T14:33:07Z</time>
      </trkpt>
      <trkpt lat="43.97914" lon="5.18474">
        <ele>951.378</ele>
        <time>2020-09-03T14:33:07Z</time>
      </trkpt>
      <trkpt lat="43.97904" lon="5.18456">
        <ele>953.923</ele>
        <time>2020-09-03T14:33:09Z</time>
      </trkpt>
      <trkpt lat="43.97905" lon="5.18445">
        <ele>956.707</ele>
        <time>2020-09-03T14:33:10Z</time>
      </trkpt>
      <trkpt lat="43.97909" lon="5.18436">
        <ele>959.423</ele>
        <time>2020-09-03T14:33:11Z</time>
      </trkpt>
      <trkpt lat="43.97917" lon="5.18432">
        <ele>961.723</ele>
        <time>2020-09-03T14:33:12Z</time>
      </trkpt>
      <trkpt lat="43.97926" lon="5.18434">
        <ele>963.812</ele>
        <time>2020-09-03T14:33:13Z</time>
      </trkpt>
      <trkpt lat="43.97934" lon="5.18441">
        <ele>965.743</ele>
        <time>2020-09-03T14:33:14Z</time>
      </trkpt>
      <trkpt lat="43.97939" lon="5.18453">
        <ele>967.812</ele>
        <time>2020-09-03T14:33:15Z</time>
      </trkpt>
      <trkpt lat="43.97939" lon="5.18453">
        <ele>969.128</ele>
        <time>2020-09-03T14:33:15Z</time>
      </trkpt>
      <trkpt lat="43.97935" lon="5.18493">
        <ele>970.52</ele>
        <time>2020-09-03T14:33:18Z</time>
      </trkpt>
      <trkpt lat="43.97935" lon="5.18493">
        <ele>971.82</ele>
        <time>2020-09-03T14:33:18Z</time>
      </trkpt>
      <trkpt lat="43.97917" lon="5.18509">
        <ele>973.422</ele>
        <time>2020-09-03T14:33:20Z</time>
      </trkpt>
      <trkpt lat="43.97907" lon="5.18511">
        <ele>975.498</ele>
        <time>2020-09-03T14:33:21Z</time>
      </trkpt>
      <trkpt lat="43.97898" lon="5.18509">
        <ele>978.039</ele>
        <time>2020-09-03T14:33:22Z</time>
      </trkpt>
      <trkpt lat="43.9789" lon="5.18506">
        <ele>981.031</ele>
        <time>2020-09-03T14:33:23Z</time>
      </trkpt>
      <trkpt lat="43.97882" lon="5.18501">
        <ele>984.249</ele>
        <time>2020-09-03T14:33:24Z</time>
      </trkpt>
      <trkpt lat="43.97876" lon="5.18494">
        <ele>988.002</ele>
        <time>2020-09-03T14:33:25Z</time>
      </trkpt>
      <trkpt lat="43.97873" lon="5.18485">
        <ele>991.221</ele>
        <time>2020-09-03T14:33:26Z</time>
      </trkpt>
      <trkpt lat="43.97872" lon="5.18474">
        <ele>993.758</ele>
        <time>2020-09-03T14:33:27Z</time>
      </trkpt>
      <trkpt lat="43.97874" lon="5.18463">
        <ele>996.297</ele>
        <time>2020-09-03T14:33:28Z</time>
      </trkpt>
      <trkpt lat="43.97878" lon="5.18457">
        <ele>999.349</ele>
        <time>2020-09-03T14:33:29Z</time>
      </trkpt>
      <trkpt lat="43.97884" lon="5.18456">
        <ele>1001.622</ele>
        <time>2020-09-03T14:33:30Z</time>
      </trkpt>
      <trkpt lat="43.97892" lon="5.18461">
        <ele>1003.761</ele>
        <time>2020-09-03T14:33:31Z</time>
      </trkpt>
      <trkpt lat="43.979" lon="5.18471">
        <ele>1005.985</ele>
        <time>2020-09-03T14:33:32Z</time>
      </trkpt>
      <trkpt lat="43.979" lon="5.18471">
        <ele>1008.01</ele>
        <time>2020-09-03T14:33:32Z</time>
      </trkpt>
      <trkpt lat="43.97907" lon="5.18496">
        <ele>1009.851</ele>
        <time>2020-09-03T14:33:34Z</time>
      </trkpt>
      <trkpt lat="43.97907" lon="5.18496">
        <ele>1011.847</ele>
        <time>2020-09-03T14:33:34Z</time>
      </trkpt>
      <trkpt lat="43.97907" lon="5.18496">
        <ele>1012.785</ele>
        <time>2020-09-03T14:33:34Z</time>
      </trkpt>
      <trkpt lat="43.97907" lon="5.18496">
        <ele>1015.243</ele>
        <time>2020-09-03T14:33:34Z</time>
      </trkpt>
      <trkpt lat="43.97907" lon="5.18496">
        <ele>1017.975</ele>
        <time>2020-09-03T14:33:34Z</time>
      </trkpt>
      <trkpt lat="43.97876" lon="5.18547">
        <ele>1020.986</ele>
        <time>2020-09-03T14:33:39Z</time>
      </trkpt>
      <trkpt lat="43.97876" lon="5.18547">
        <ele>1024.032</ele>
        <time>2020-09-03T14:33:39Z</time>
      </trkpt>
      <trkpt lat="43.9786" lon="5.18543">
        <ele>1026.918</ele>
        <time>2020-09-03T14:33:41Z</time>
      </trkpt>
      <trkpt lat="43.97849" lon="5.18528">
        <ele>1030.504</ele>
        <time>2020-09-03T14:33:43Z</time>
      </trkpt>
      <trkpt lat="43.97847" lon="5.18518">
        <ele>1033.067</ele>
        <time>2020-09-03T14:33:44Z</time>
      </trkpt>
      <trkpt lat="43.97851" lon="5.18508">
        <ele>1035.793</ele>
        <time>2020-09-03T14:33:45Z</time>
      </trkpt>
      <trkpt lat="43.97857" lon="5.18504">
        <ele>1038.379</ele>
        <time>2020-09-03T14:33:46Z</time>
      </trkpt>
      <trkpt lat="43.97865" lon="5.18506">
        <ele>1040.92</ele>
        <time>2020-09-03T14:33:47Z</time>
      </trkpt>
      <trkpt lat="43.97874" lon="5.18515">
        <ele>1042.823</ele>
        <time>2020-09-03T14:33:48Z</time>
      </trkpt>
      <trkpt lat="43.9788" lon="5.18528">
        <ele>1044.844</ele>
        <time>2020-09-03T14:33:49Z</time>
      </trkpt>
      <trkpt lat="43.97881" lon="5.18544">
        <ele>1046.931</ele>
        <time>2020-09-03T14:33:50Z</time>
      </trkpt>
      <trkpt lat="43.97877" lon="5.1856">
        <ele>1049.248</ele>
        <time>2020-09-03T14:33:51Z</time>
      </trkpt>
      <trkpt lat="43.97859" lon="5.18578">
        <ele>1051.624</ele>
        <time>2020-09-03T14:33:53Z</time>
      </trkpt>
      <trkpt lat="43.97859" lon="5.18578">
        <ele>1053.835</ele>
        <time>2020-09-03T14:33:53Z</time>
      </trkpt>
      <trkpt lat="43.9784" lon="5.18582">
        <ele>1056.393</ele>
        <time>2020-09-03T14:33:55Z</time>
      </trkpt>
      <trkpt lat="43.97831" lon="5.18582">
        <ele>1059.182</ele>
        <time>2020-09-03T14:33:56Z</time>
      </trkpt>
      <trkpt lat="43.97824" lon="5.1858">
        <ele>1062.017</ele>
        <time>2020-09-03T14:33:57Z</time>
      </trkpt>
      <trkpt lat="43.97817" lon="5.18576">
        <ele>1064.631</ele>
        <time>2020-09-03T14:33:58Z</time>
      </trkpt>
      <trkpt lat="43.97817" lon="5.18576">
        <ele>1066.874</ele>
        <time>2020-09-03T14:33:58Z</time>
      </trkpt>
      <trkpt lat="43.97811" lon="5.18559">
        <ele>1068.582</ele>
        <time>2020-09-03T14:34:00Z</time>
      </trkpt>
      <trkpt lat="43.97812" lon="5.18547">
        <ele>1070.496</ele>
        <time>2020-09-03T14:34:01Z</time>
      </trkpt>
      <trkpt lat="43.97816" lon="5.18538">
        <ele>1072.541</ele>
        <time>2020-09-03T14:34:02Z</time>
      </trkpt>
      <trkpt lat="43.97822" lon="5.18531">
        <ele>1074.796</ele>
        <time>2020-09-03T14:34:03Z</time>
      </trkpt>
      <trkpt lat="43.97822" lon="5.18531">
        <ele>1076.671</ele>
        <time>2020-09-03T14:34:03Z</time>
      </trkpt>
      <trkpt lat="43.97837" lon="5.18533">
        <ele>1079.868</ele>
        <time>2020-09-03T14:34:05Z</time>
      </trkpt>
      <trkpt lat="43.97845" lon="5.18541">
        <ele>1082.981</ele>
        <time>2020-09-03T14:34:06Z</time>
      </trkpt>
      <trkpt lat="43.97851" lon="5.18553">
        <ele>1085.43</ele>
        <time>2020-09-03T14:34:07Z</time>
      </trkpt>
      <trkpt lat="43.97854" lon="5.18568">
        <ele>1087.605</ele>
        <time>2020-09-03T14:34:08Z</time>
      </trkpt>
      <trkpt lat="43.97853" lon="5.18585">
        <ele>1089.29</ele>
        <time>2020-09-03T14:34:09Z</time>
      </trkpt>
      <trkpt lat="43.97849" lon="5.18601">
        <ele>1091.162</ele>
        <time>2020-09-03T14:34:10Z</time>
      </trkpt>
      <trkpt lat="43.97843" lon="5.18614">
        <ele>1093.625</ele>
        <time>2020-09-03T14:34:11Z</time>
      </trkpt>
      <trkpt lat="43.97843" lon="5.18614">
        <ele>1096.127</ele>
        <time>2020-09-03T14:34:11Z</time>
      </trkpt>
      <trkpt lat="43.97826" lon="5.18627">
        <ele>1098.326</ele>
        <time>2020-09-03T14:34:13Z</time>
      </trkpt>
      <trkpt lat="43.97812" lon="5.18619">
        <ele>1100.06</ele>
        <time>2020-09-03T14:34:15Z</time>
      </trkpt>
      <trkpt lat="43.97807" lon="5.18611">
        <ele>1101.79</ele>
        <time>2020-09-03T14:34:16Z</time>
      </trkpt>
      <trkpt lat="43.97803" lon="5.18601">
        <ele>1103.933</ele>
        <time>2020-09-03T14:34:17Z</time>
      </trkpt>
      <trkpt lat="43.97801" lon="5.18591">
        <ele>1105.867</ele>
        <time>2020-09-03T14:34:18Z</time>
      </trkpt>
      <trkpt lat="43.978" lon="5.1858">
        <ele>1108.186</ele>
        <time>2020-09-03T14:34:19Z</time>
      </trkpt>
      <trkpt lat="43.97798" lon="5.18571">
        <ele>1110.487</ele>
        <time>2020-09-03T14:34:20Z</time>
      </trkpt>
      <trkpt lat="43.97797" lon="5.18562">
        <ele>1113.372</ele>
        <time>2020-09-03T14:34:21Z</time>
      </trkpt>
      <trkpt lat="43.97797" lon="5.18552">
        <ele>1116.005</ele>
        <time>2020-09-03T14:34:22Z</time>
      </trkpt>
      <trkpt lat="43.97798" lon="5.18543">
        <ele>1118.907</ele>
        <time>2020-09-03T14:34:23Z</time>
      </trkpt>
      <trkpt lat="43.97802" lon="5.18535">
        <ele>1122.028</ele>
        <time>2020-09-03T14:34:24Z</time>
      </trkpt>
      <trkpt lat="43.97808" lon="5.18529">
        <ele>1124.889</ele>
        <time>2020-09-03T14:34:25Z</time>
      </trkpt>
      <trkpt lat="43.97814" lon="5.18527">
        <ele>1127.719</ele>
        <time>2020-09-03T14:34:26Z</time>
      </trkpt>
      <trkpt lat="43.97822" lon="5.18529">
        <ele>1130.313</ele>
        <time>2020-09-03T14:34:27Z</time>
      </trkpt>
      <trkpt lat="43.97828" lon="5.18538">
        <ele>1133.251</ele>
        <time>2020-09-03T14:34:28Z</time>
      </trkpt>
      <trkpt lat="43.97833" lon="5.18551">
        <ele>1135.696</ele>
        <time>2020-09-03T14:34:29Z</time>
      </trkpt>
      <trkpt lat="43.97834" lon="5.18566">
        <ele>1137.81</ele>
        <time>2020-09-03T14:34:30Z</time>
      </trkpt>
      <trkpt lat="43.97832" lon="5.1858">
        <ele>1140.049</ele>
        <time>2020-09-03T14:34:31Z</time>
      </trkpt>
      <trkpt lat="43.97832" lon="5.1858">
        <ele>1141.473</ele>
        <time>2020-09-03T14:34:31Z</time>
      </trkpt>
      <trkpt lat="43.9782" lon="5.18604">
        <ele>1144.41</ele>
        <time>2020-09-03T14:34:33Z</time>
      </trkpt>
      <trkpt lat="43.97802" lon="5.18613">
        <ele>1147.387</ele>
        <time>2020-09-03T14:34:35Z</time>
      </trkpt>
      <trkpt lat="43.97793" lon="5.1861">
        <ele>1150.067</ele>
        <time>2020-09-03T14:34:36Z</time>
      </trkpt>
      <trkpt lat="43.97786" lon="5.18604">
        <ele>1152.868</ele>
        <time>2020-09-03T14:34:37Z</time>
      </trkpt>
      <trkpt lat="43.97782" lon="5.18595">
        <ele>1155.509</ele>
        <time>2020-09-03T14:34:38Z</time>
      </trkpt>
      <trkpt lat="43.97782" lon="5.18585">
        <ele>1157.756</ele>
        <time>2020-09-03T14:34:39Z</time>
      </trkpt>
      <trkpt lat="43.97785" lon="5.18576">
        <ele>1160.266</ele>
        <time>2020-09-03T14:34:40Z</time>
      </trkpt>
      <trkpt lat="43.9779" lon="5.18571">
        <ele>1162.814</ele>
        <time>2020-09-03T14:34:41Z</time>
      </trkpt>
      <trkpt lat="43.97797" lon="5.18571">
        <ele>1165.313</ele>
        <time>2020-09-03T14:34:42Z</time>
      </trkpt>
      <trkpt lat="43.97803" lon="5.18576">
        <ele>1168.634</ele>
        <time>2020-09-03T14:34:43Z</time>
      </trkpt>
      <trkpt lat="43.97809" lon="5.18586">
        <ele>1171.336</ele>
        <time>2020-09-03T14:34:44Z</time>
      </trkpt>
      <trkpt lat="43.97811" lon="5.18599">
        <ele>1173.967</ele>
        <time>2020-09-03T14:34:45Z</time>
      </trkpt>
      <trkpt lat="43.9781" lon="5.18613">
        <ele>1176.39</ele>
        <time>2020-09-03T14:34:46Z</time>
      </trkpt>
      <trkpt lat="43.97805" lon="5.18624">
        <ele>1178.475</ele>
        <time>2020-09-03T14:34:47Z</time>
      </trkpt>
      <trkpt lat="43.97798" lon="5.18632">
        <ele>1180.602</ele>
        <time>2020-09-03T14:34:48Z</time>
      </trkpt>
      <trkpt lat="43.97782" lon="5.18628">
        <ele>1182.519</ele>
        <time>2020-09-03T14:34:50Z</time>
      </trkpt>
      <trkpt lat="43.97779" lon="5.18618">
        <ele>1184.02</ele>
        <time>2020-09-03T14:34:51Z</time>
      </trkpt>
      <trkpt lat="43.97778" lon="5.18608">
        <ele>1185.76</ele>
        <time>2020-09-03T14:34:52Z</time>
      </trkpt>
      <trkpt lat="43.97779" lon="5.18598">
        <ele>1187.594</ele>
        <time>2020-09-03T14:34:53Z</time>
      </trkpt>
      <trkpt lat="43.97779" lon="5.18598">
        <ele>1189.742</ele>
        <time>2020-09-03T14:34:53Z</time>
      </trkpt>
      <trkpt lat="43.97786" lon="5.18582">
        <ele>1192.105</ele>
        <time>2020-09-03T14:34:55Z</time>
      </trkpt>
      <trkpt lat="43.97791" lon="5.18576">
        <ele>1194.455</ele>
        <time>2020-09-03T14:34:56Z</time>
      </trkpt>
      <trkpt lat="43.97798" lon="5.18573">
        <ele>1197.235</ele>
        <time>2020-09-03T14:34:57Z</time>
      </trkpt>
      <trkpt lat="43.97806" lon="5.18572">
        <ele>1200.39</ele>
        <time>2020-09-03T14:34:58Z</time>
      </trkpt>
      <trkpt lat="43.97815" lon="5.18575">
        <ele>1202.684</ele>
        <time>2020-09-03T14:34:59Z</time>
      </trkpt>
      <trkpt lat="43.97815" lon="5.18575">
        <ele>1203.874</ele>
        <time>2020-09-03T14:34:59Z</time>
      </trkpt>
      <trkpt lat="43.97828" lon="5.18593">
        <ele>1205.585</ele>
        <time>2020-09-03T14:35:01Z</time>
      </trkpt>
      <trkpt lat="43.97829" lon="5.18607">
        <ele>1206.932</ele>
        <time>2020-09-03T14:35:02Z</time>
      </trkpt>
      <trkpt lat="43.97826" lon="5.18621">
        <ele>1208.081</ele>
        <time>2020-09-03T14:35:03Z</time>
      </trkpt>
      <trkpt lat="43.97821" lon="5.18633">
        <ele>1209.001</ele>
        <time>2020-09-03T14:35:04Z</time>
      </trkpt>
      <trkpt lat="43.97813" lon="5.18643">
        <ele>1210.062</ele>
        <time>2020-09-03T14:35:05Z</time>
      </trkpt>
      <trkpt lat="43.97805" lon="5.1865">
        <ele>1211.147</ele>
        <time>2020-09-03T14:35:06Z</time>
      </trkpt>
      <trkpt lat="43.97786" lon="5.18657">
        <ele>1212.446</ele>
        <time>2020-09-03T14:35:08Z</time>
      </trkpt>
      <trkpt lat="43.97786" lon="5.18657">
        <ele>1214.235</ele>
        <time>2020-09-03T14:35:08Z</time>
      </trkpt>
      <trkpt lat="43.97767" lon="5.18655">
        <ele>1215.723</ele>
        <time>2020-09-03T14:35:10Z</time>
      </trkpt>
      <trkpt lat="43.97758" lon="5.18653">
        <ele>1217.668</ele>
        <time>2020-09-03T14:35:11Z</time>
      </trkpt>
      <trkpt lat="43.97749" lon="5.18652">
        <ele>1219.432</ele>
        <time>2020-09-03T14:35:12Z</time>
      </trkpt>
      <trkpt lat="43.97742" lon="5.1865">
        <ele>1221.464</ele>
        <time>2020-09-03T14:35:13Z</time>
      </trkpt>
      <trkpt lat="43.97742" lon="5.1865">
        <ele>1223.542</ele>
        <time>2020-09-03T14:35:13Z</time>
      </trkpt>
      <trkpt lat="43.97731" lon="5.18639">
        <ele>1225.134</ele>
        <time>2020-09-03T14:35:15Z</time>
      </trkpt>
      <trkpt lat="43.97729" lon="5.1863">
        <ele>1226.352</ele>
        <time>2020-09-03T14:35:16Z</time>
      </trkpt>
      <trkpt lat="43.97729" lon="5.1862">
        <ele>1227.689</ele>
        <time>2020-09-03T14:35:17Z</time>
      </trkpt>
      <trkpt lat="43.97732" lon="5.1861">
        <ele>1229.038</ele>
        <time>2020-09-03T14:35:18Z</time>
      </trkpt>
      <trkpt lat="43.97732" lon="5.1861">
        <ele>1230.5</ele>
        <time>2020-09-03T14:35:18Z</time>
      </trkpt>
      <trkpt lat="43.97743" lon="5.18598">
        <ele>1231.881</ele>
        <time>2020-09-03T14:35:20Z</time>
      </trkpt>
      <trkpt lat="43.97751" lon="5.18597">
        <ele>1233.599</ele>
        <time>2020-09-03T14:35:21Z</time>
      </trkpt>
      <trkpt lat="43.97759" lon="5.186">
        <ele>1235.153</ele>
        <time>2020-09-03T14:35:22Z</time>
      </trkpt>
      <trkpt lat="43.97765" lon="5.18607">
        <ele>1236.969</ele>
        <time>2020-09-03T14:35:23Z</time>
      </trkpt>
      <trkpt lat="43.9777" lon="5.18618">
        <ele>1239.393</ele>
        <time>2020-09-03T14:35:24Z</time>
      </trkpt>
      <trkpt lat="43.9777" lon="5.18631">
        <ele>1241.042</ele>
        <time>2020-09-03T14:35:25Z</time>
      </trkpt>
      <trkpt lat="43.97767" lon="5.18643">
        <ele>1242.69</ele>
        <time>2020-09-03T14:35:26Z</time>
      </trkpt>
      <trkpt lat="43.97761" lon="5.18654">
        <ele>1244.281</ele>
        <time>2020-09-03T14:35:27Z</time>
      </trkpt>
      <trkpt lat="43.97761" lon="5.18654">
        <ele>1244.956</ele>
        <time>2020-09-03T14:35:27Z</time>
      </trkpt>
      <trkpt lat="43.97745" lon="5.18664">
        <ele>1247.039</ele>
        <time>2020-09-03T14:35:29Z</time>
      </trkpt>
      <trkpt lat="43.97737" lon="5.18664">
        <ele>1248.409</ele>
        <time>2020-09-03T14:35:30Z</time>
      </trkpt>
      <trkpt lat="43.97721" lon="5.18659">
        <ele>1249.988</ele>
        <time>2020-09-03T14:35:32Z</time>
      </trkpt>
      <trkpt lat="43.97712" lon="5.18656">
        <ele>1251.809</ele>
        <time>2020-09-03T14:35:33Z</time>
      </trkpt>
      <trkpt lat="43.97706" lon="5.18651">
        <ele>1253.641</ele>
        <time>2020-09-03T14:35:34Z</time>
      </trkpt>
      <trkpt lat="43.977" lon="5.18645">
        <ele>1255.223</ele>
        <time>2020-09-03T14:35:35Z</time>
      </trkpt>
      <trkpt lat="43.97695" lon="5.18637">
        <ele>1256.249</ele>
        <time>2020-09-03T14:35:36Z</time>
      </trkpt>
      <trkpt lat="43.97693" lon="5.18627">
        <ele>1257.064</ele>
        <time>2020-09-03T14:35:37Z</time>
      </trkpt>
      <trkpt lat="43.97692" lon="5.18617">
        <ele>1257.576</ele>
        <time>2020-09-03T14:35:38Z</time>
      </trkpt>
      <trkpt lat="43.97694" lon="5.18607">
        <ele>1258.186</ele>
        <time>2020-09-03T14:35:39Z</time>
      </trkpt>
      <trkpt lat="43.97698" lon="5.18599">
        <ele>1258.977</ele>
        <time>2020-09-03T14:35:40Z</time>
      </trkpt>
      <trkpt lat="43.97703" lon="5.18592">
        <ele>1260.208</ele>
        <time>2020-09-03T14:35:41Z</time>
      </trkpt>
      <trkpt lat="43.97708" lon="5.18585">
        <ele>1261.939</ele>
        <time>2020-09-03T14:35:42Z</time>
      </trkpt>
      <trkpt lat="43.97712" lon="5.18578">
        <ele>1263.474</ele>
        <time>2020-09-03T14:35:43Z</time>
      </trkpt>
      <trkpt lat="43.97716" lon="5.1857">
        <ele>1265.247</ele>
        <time>2020-09-03T14:35:44Z</time>
      </trkpt>
      <trkpt lat="43.9772" lon="5.18561">
        <ele>1266.829</ele>
        <time>2020-09-03T14:35:45Z</time>
      </trkpt>
      <trkpt lat="43.97725" lon="5.18551">
        <ele>1268.059</ele>
        <time>2020-09-03T14:35:46Z</time>
      </trkpt>
      <trkpt lat="43.97731" lon="5.18544">
        <ele>1268.957</ele>
        <time>2020-09-03T14:35:47Z</time>
      </trkpt>
      <trkpt lat="43.97738" lon="5.18539">
        <ele>1269.382</ele>
        <time>2020-09-03T14:35:48Z</time>
      </trkpt>
      <trkpt lat="43.97746" lon="5.18538">
        <ele>1269.647</ele>
        <time>2020-09-03T14:35:49Z</time>
      </trkpt>
      <trkpt lat="43.97755" lon="5.1854">
        <ele>1269.772</ele>
        <time>2020-09-03T14:35:50Z</time>
      </trkpt>
      <trkpt lat="43.97769" lon="5.18554">
        <ele>1269.814</ele>
        <time>2020-09-03T14:35:52Z</time>
      </trkpt>
      <trkpt lat="43.97774" lon="5.18566">
        <ele>1270.203</ele>
        <time>2020-09-03T14:35:53Z</time>
      </trkpt>
      <trkpt lat="43.97779" lon="5.18578">
        <ele>1271.181</ele>
        <time>2020-09-03T14:35:54Z</time>
      </trkpt>
      <trkpt lat="43.97783" lon="5.18589">
        <ele>1273.572</ele>
        <time>2020-09-03T14:35:55Z</time>
      </trkpt>
      <trkpt lat="43.97787" lon="5.18598">
        <ele>1275.36</ele>
        <time>2020-09-03T14:35:56Z</time>
      </trkpt>
      <trkpt lat="43.97791" lon="5.18606">
        <ele>1278.098</ele>
        <time>2020-09-03T14:35:57Z</time>
      </trkpt>
      <trkpt lat="43.97794" lon="5.18615">
        <ele>1281.601</ele>
        <time>2020-09-03T14:35:58Z</time>
      </trkpt>
      <trkpt lat="43.97797" lon="5.18624">
        <ele>1283.947</ele>
        <time>2020-09-03T14:35:59Z</time>
      </trkpt>
      <trkpt lat="43.97797" lon="5.18624">
        <ele>1285.713</ele>
        <time>2020-09-03T14:35:59Z</time>
      </trkpt>
      <trkpt lat="43.97805" lon="5.18643">
        <ele>1286.874</ele>
        <time>2020-09-03T14:36:01Z</time>
      </trkpt>
      <trkpt lat="43.97805" lon="5.18643">
        <ele>1288.034</ele>
        <time>2020-09-03T14:36:01Z</time>
      </trkpt>
      <trkpt lat="43.97805" lon="5.18643">
        <ele>1289.283</ele>
        <time>2020-09-03T14:36:01Z</time>
      </trkpt>
      <trkpt lat="43.9783" lon="5.18651">
        <ele>1290.51</ele>
        <time>2020-09-03T14:36:04Z</time>
      </trkpt>
      <trkpt lat="43.9783" lon="5.18651">
        <ele>1292.05</ele>
        <time>2020-09-03T14:36:04Z</time>
      </trkpt>
      <trkpt lat="43.9783" lon="5.18651">
        <ele>1293.456</ele>
        <time>2020-09-03T14:36:04Z</time>
      </trkpt>
      <trkpt lat="43.9783" lon="5.18651">
        <ele>1294.649</ele>
        <time>2020-09-03T14:36:04Z</time>
      </trkpt>
      <trkpt lat="43.9783" lon="5.18651">
        <ele>1295.58</ele>
        <time>2020-09-03T14:36:04Z</time>
      </trkpt>
      <trkpt lat="43.97836" lon="5.18598">
        <ele>1296.422</ele>
        <time>2020-09-03T14:36:09Z</time>
      </trkpt>
      <trkpt lat="43.97831" lon="5.1859">
        <ele>1297.41</ele>
        <time>2020-09-03T14:36:10Z</time>
      </trkpt>
      <trkpt lat="43.97824" lon="5.18584">
        <ele>1298.445</ele>
        <time>2020-09-03T14:36:11Z</time>
      </trkpt>
      <trkpt lat="43.97816" lon="5.18581">
        <ele>1299.448</ele>
        <time>2020-09-03T14:36:12Z</time>
      </trkpt>
      <trkpt lat="43.97809" lon="5.18583">
        <ele>1299.916</ele>
        <time>2020-09-03T14:36:13Z</time>
      </trkpt>
      <trkpt lat="43.97796" lon="5.186">
        <ele>1300.026</ele>
        <time>2020-09-03T14:36:15Z</time>
      </trkpt>
      <trkpt lat="43.97794" lon="5.18611">
        <ele>1300.528</ele>
        <time>2020-09-03T14:36:16Z</time>
      </trkpt>
      <trkpt lat="43.97794" lon="5.18623">
        <ele>1301.84</ele>
        <time>2020-09-03T14:36:17Z</time>
      </trkpt>
      <trkpt lat="43.97795" lon="5.18634">
        <ele>1303.999</ele>
        <time>2020-09-03T14:36:18Z</time>
      </trkpt>
      <trkpt lat="43.97796" lon="5.18644">
        <ele>1306.222</ele>
        <time>2020-09-03T14:36:19Z</time>
      </trkpt>
      <trkpt lat="43.97795" lon="5.18652">
        <ele>1308.077</ele>
        <time>2020-09-03T14:36:20Z</time>
      </trkpt>
      <trkpt lat="43.97792" lon="5.18661">
        <ele>1309.649</ele>
        <time>2020-09-03T14:36:21Z</time>
      </trkpt>
      <trkpt lat="43.97786" lon="5.18669">
        <ele>1310.975</ele>
        <time>2020-09-03T14:36:22Z</time>
      </trkpt>
      <trkpt lat="43.97779" lon="5.18675">
        <ele>1312.04</ele>
        <time>2020-09-03T14:36:23Z</time>
      </trkpt>
      <trkpt lat="43.97779" lon="5.18675">
        <ele>1312.59</ele>
        <time>2020-09-03T14:36:23Z</time>
      </trkpt>
      <trkpt lat="43.97753" lon="5.1867">
        <ele>1313.615</ele>
        <time>2020-09-03T14:36:26Z</time>
      </trkpt>
      <trkpt lat="43.97747" lon="5.18661">
        <ele>1314.252</ele>
        <time>2020-09-03T14:36:27Z</time>
      </trkpt>
      <trkpt lat="43.97743" lon="5.18648">
        <ele>1314.895</ele>
        <time>2020-09-03T14:36:28Z</time>
      </trkpt>
      <trkpt lat="43.97743" lon="5.18648">
        <ele>1315.893</ele>
        <time>2020-09-03T14:36:28Z</time>
      </trkpt>
      <trkpt lat="43.97742" lon="5.18623">
        <ele>1317.074</ele>
        <time>2020-09-03T14:36:30Z</time>
      </trkpt>
      <trkpt lat="43.97745" lon="5.18612">
        <ele>1318.479</ele>
        <time>2020-09-03T14:36:31Z</time>
      </trkpt>
      <trkpt lat="43.9775" lon="5.18603">
        <ele>1320.028</ele>
        <time>2020-09-03T14:36:32Z</time>
      </trkpt>
      <trkpt lat="43.97758" lon="5.18597">
        <ele>1321.507</ele>
        <time>2020-09-03T14:36:33Z</time>
      </trkpt>
      <trkpt lat="43.97758" lon="5.18597">
        <ele>1323.121</ele>
        <time>2020-09-03T14:36:33Z</time>
      </trkpt>
      <trkpt lat="43.97776" lon="5.18598">
        <ele>1324.239</ele>
        <time>2020-09-03T14:36:35Z</time>
      </trkpt>
      <trkpt lat="43.97783" lon="5.18605">
        <ele>1325.157</ele>
        <time>2020-09-03T14:36:36Z</time>
      </trkpt>
      <trkpt lat="43.97788" lon="5.18616">
        <ele>1325.948</ele>
        <time>2020-09-03T14:36:37Z</time>
      </trkpt>
      <trkpt lat="43.9779" lon="5.18626">
        <ele>1326.775</ele>
        <time>2020-09-03T14:36:38Z</time>
      </trkpt>
      <trkpt lat="43.97792" lon="5.18636">
        <ele>1328.097</ele>
        <time>2020-09-03T14:36:39Z</time>
      </trkpt>
      <trkpt lat="43.97792" lon="5.18646">
        <ele>1329.926</ele>
        <time>2020-09-03T14:36:40Z</time>
      </trkpt>
      <trkpt lat="43.97791" lon="5.18655">
        <ele>1331.901</ele>
        <time>2020-09-03T14:36:41Z</time>
      </trkpt>
      <trkpt lat="43.9779" lon="5.18664">
        <ele>1333.454</ele>
        <time>2020-09-03T14:36:42Z</time>
      </trkpt>
      <trkpt lat="43.97787" lon="5.18673">
        <ele>1334.443</ele>
        <time>2020-09-03T14:36:43Z</time>
      </trkpt>
      <trkpt lat="43.97782" lon="5.18681">
        <ele>1335.41</ele>
        <time>2020-09-03T14:36:44Z</time>
      </trkpt>
      <trkpt lat="43.97775" lon="5.18688">
        <ele>1336.383</ele>
        <time>2020-09-03T14:36:45Z</time>
      </trkpt>
      <trkpt lat="43.97767" lon="5.18693">
        <ele>1337.512</ele>
        <time>2020-09-03T14:36:46Z</time>
      </trkpt>
      <trkpt lat="43.97758" lon="5.18696">
        <ele>1338.905</ele>
        <time>2020-09-03T14:36:47Z</time>
      </trkpt>
      <trkpt lat="43.9775" lon="5.18697">
        <ele>1340.036</ele>
        <time>2020-09-03T14:36:48Z</time>
      </trkpt>
      <trkpt lat="43.97734" lon="5.18691">
        <ele>1341.176</ele>
        <time>2020-09-03T14:36:50Z</time>
      </trkpt>
      <trkpt lat="43.97727" lon="5.18684">
        <ele>1342.081</ele>
        <time>2020-09-03T14:36:51Z</time>
      </trkpt>
      <trkpt lat="43.97721" lon="5.18675">
        <ele>1342.583</ele>
        <time>2020-09-03T14:36:52Z</time>
      </trkpt>
      <trkpt lat="43.97717" lon="5.18664">
        <ele>1343.427</ele>
        <time>2020-09-03T14:36:53Z</time>
      </trkpt>
      <trkpt lat="43.97714" lon="5.18651">
        <ele>1344.282</ele>
        <time>2020-09-03T14:36:54Z</time>
      </trkpt>
      <trkpt lat="43.97714" lon="5.18639">
        <ele>1345.214</ele>
        <time>2020-09-03T14:36:55Z</time>
      </trkpt>
      <trkpt lat="43.97716" lon="5.18627">
        <ele>1346.371</ele>
        <time>2020-09-03T14:36:56Z</time>
      </trkpt>
      <trkpt lat="43.97719" lon="5.18614">
        <ele>1347.712</ele>
        <time>2020-09-03T14:36:57Z</time>
      </trkpt>
      <trkpt lat="43.97722" lon="5.18601">
        <ele>1348.834</ele>
        <time>2020-09-03T14:36:58Z</time>
      </trkpt>
      <trkpt lat="43.97723" lon="5.18588">
        <ele>1349.854</ele>
        <time>2020-09-03T14:36:59Z</time>
      </trkpt>
      <trkpt lat="43.97725" lon="5.18576">
        <ele>1350.708</ele>
        <time>2020-09-03T14:37:00Z</time>
      </trkpt>
      <trkpt lat="43.97727" lon="5.18565">
        <ele>1351.525</ele>
        <time>2020-09-03T14:37:01Z</time>
      </trkpt>
      <trkpt lat="43.97732" lon="5.18557">
        <ele>1352.017</ele>
        <time>2020-09-03T14:37:02Z</time>
      </trkpt>
      <trkpt lat="43.97739" lon="5.18552">
        <ele>1352.038</ele>
        <time>2020-09-03T14:37:03Z</time>
      </trkpt>
      <trkpt lat="43.97748" lon="5.18552">
        <ele>1351.573</ele>
        <time>2020-09-03T14:37:04Z</time>
      </trkpt>
      <trkpt lat="43.97756" lon="5.18557">
        <ele>1350.788</ele>
        <time>2020-09-03T14:37:05Z</time>
      </trkpt>
      <trkpt lat="43.97762" lon="5.18566">
        <ele>1350.333</ele>
        <time>2020-09-03T14:37:06Z</time>
      </trkpt>
      <trkpt lat="43.97762" lon="5.18566">
        <ele>1350.064</ele>
        <time>2020-09-03T14:37:06Z</time>
      </trkpt>
      <trkpt lat="43.97763" lon="5.18589">
        <ele>1350.134</ele>
        <time>2020-09-03T14:37:08Z</time>
      </trkpt>
      <trkpt lat="43.97755" lon="5.18609">
        <ele>1350.514</ele>
        <time>2020-09-03T14:37:10Z</time>
      </trkpt>
      <trkpt lat="43.97749" lon="5.18617">
        <ele>1351.029</ele>
        <time>2020-09-03T14:37:11Z</time>
      </trkpt>
      <trkpt lat="43.97742" lon="5.18623">
        <ele>1351.763</ele>
        <time>2020-09-03T14:37:12Z</time>
      </trkpt>
      <trkpt lat="43.97734" lon="5.18628">
        <ele>1352.636</ele>
        <time>2020-09-03T14:37:13Z</time>
      </trkpt>
      <trkpt lat="43.97727" lon="5.18634">
        <ele>1353.693</ele>
        <time>2020-09-03T14:37:14Z</time>
      </trkpt>
      <trkpt lat="43.97721" lon="5.18639">
        <ele>1354.957</ele>
        <time>2020-09-03T14:37:15Z</time>
      </trkpt>
      <trkpt lat="43.97714" lon="5.18644">
        <ele>1355.917</ele>
        <time>2020-09-03T14:37:16Z</time>
      </trkpt>
      <trkpt lat="43.97707" lon="5.18647">
        <ele>1356.694</ele>
        <time>2020-09-03T14:37:17Z</time>
      </trkpt>
      <trkpt lat="43.97699" lon="5.18649">
        <ele>1356.902</ele>
        <time>2020-09-03T14:37:18Z</time>
      </trkpt>
      <trkpt lat="43.9769" lon="5.18645">
        <ele>1356.79</ele>
        <time>2020-09-03T14:37:19Z</time>
      </trkpt>
      <trkpt lat="43.9769" lon="5.18645">
        <ele>1356.696</ele>
        <time>2020-09-03T14:37:19Z</time>
      </trkpt>
      <trkpt lat="43.97674" lon="5.18631">
        <ele>1356.661</ele>
        <time>2020-09-03T14:37:21Z</time>
      </trkpt>
      <trkpt lat="43.97668" lon="5.18622">
        <ele>1356.85</ele>
        <time>2020-09-03T14:37:22Z</time>
      </trkpt>
      <trkpt lat="43.97664" lon="5.18613">
        <ele>1357.077</ele>
        <time>2020-09-03T14:37:23Z</time>
      </trkpt>
      <trkpt lat="43.97659" lon="5.18602">
        <ele>1357.346</ele>
        <time>2020-09-03T14:37:24Z</time>
      </trkpt>
      <trkpt lat="43.97656" lon="5.18591">
        <ele>1357.757</ele>
        <time>2020-09-03T14:37:25Z</time>
      </trkpt>
      <trkpt lat="43.97655" lon="5.1858">
        <ele>1358.28</ele>
        <time>2020-09-03T14:37:26Z</time>
      </trkpt>
      <trkpt lat="43.97653" lon="5.18568">
        <ele>1359.046</ele>
        <time>2020-09-03T14:37:27Z</time>
      </trkpt>
      <trkpt lat="43.97653" lon="5.18568">
        <ele>1359.934</ele>
        <time>2020-09-03T14:37:27Z</time>
      </trkpt>
      <trkpt lat="43.97653" lon="5.18545">
        <ele>1361.087</ele>
        <time>2020-09-03T14:37:29Z</time>
      </trkpt>
      <trkpt lat="43.97652" lon="5.18522">
        <ele>1362.351</ele>
        <time>2020-09-03T14:37:31Z</time>
      </trkpt>
      <trkpt lat="43.97652" lon="5.18511">
        <ele>1363.307</ele>
        <time>2020-09-03T14:37:32Z</time>
      </trkpt>
      <trkpt lat="43.97652" lon="5.185">
        <ele>1364.116</ele>
        <time>2020-09-03T14:37:33Z</time>
      </trkpt>
      <trkpt lat="43.97653" lon="5.18488">
        <ele>1364.83</ele>
        <time>2020-09-03T14:37:34Z</time>
      </trkpt>
      <trkpt lat="43.97654" lon="5.18477">
        <ele>1365.469</ele>
        <time>2020-09-03T14:37:35Z</time>
      </trkpt>
      <trkpt lat="43.97655" lon="5.18466">
        <ele>1366.122</ele>
        <time>2020-09-03T14:37:36Z</time>
      </trkpt>
      <trkpt lat="43.97657" lon="5.18455">
        <ele>1366.417</ele>
        <time>2020-09-03T14:37:37Z</time>
      </trkpt>
      <trkpt lat="43.97654" lon="5.18446">
        <ele>1366.237</ele>
        <time>2020-09-03T14:37:38Z</time>
      </trkpt>
      <trkpt lat="43.9765" lon="5.18437">
        <ele>1365.627</ele>
        <time>2020-09-03T14:37:39Z</time>
      </trkpt>
      <trkpt lat="43.97636" lon="5.18421">
        <ele>1364.516</ele>
        <time>2020-09-03T14:37:41Z</time>
      </trkpt>
      <trkpt lat="43.97629" lon="5.18414">
        <ele>1363.326</ele>
        <time>2020-09-03T14:37:42Z</time>
      </trkpt>
      <trkpt lat="43.97622" lon="5.18405">
        <ele>1362.133</ele>
        <time>2020-09-03T14:37:43Z</time>
      </trkpt>
      <trkpt lat="43.97616" lon="5.18394">
        <ele>1360.69</ele>
        <time>2020-09-03T14:37:44Z</time>
      </trkpt>
      <trkpt lat="43.97611" lon="5.1838">
        <ele>1359.201</ele>
        <time>2020-09-03T14:37:45Z</time>
      </trkpt>
      <trkpt lat="43.97607" lon="5.18366">
        <ele>1357.572</ele>
        <time>2020-09-03T14:37:46Z</time>
      </trkpt>
      <trkpt lat="43.97604" lon="5.18352">
        <ele>1355.985</ele>
        <time>2020-09-03T14:37:47Z</time>
      </trkpt>
      <trkpt lat="43.976" lon="5.18339">
        <ele>1354.968</ele>
        <time>2020-09-03T14:37:48Z</time>
      </trkpt>
      <trkpt lat="43.97596" lon="5.18326">
        <ele>1353.407</ele>
        <time>2020-09-03T14:37:49Z</time>
      </trkpt>
      <trkpt lat="43.97592" lon="5.18314">
        <ele>1352.048</ele>
        <time>2020-09-03T14:37:50Z</time>
      </trkpt>
      <trkpt lat="43.97589" lon="5.183">
        <ele>1350.585</ele>
        <time>2020-09-03T14:37:51Z</time>
      </trkpt>
      <trkpt lat="43.97584" lon="5.18286">
        <ele>1349.236</ele>
        <time>2020-09-03T14:37:52Z</time>
      </trkpt>
      <trkpt lat="43.9758" lon="5.18271">
        <ele>1347.53</ele>
        <time>2020-09-03T14:37:53Z</time>
      </trkpt>
      <trkpt lat="43.97575" lon="5.18257">
        <ele>1346.243</ele>
        <time>2020-09-03T14:37:54Z</time>
      </trkpt>
      <trkpt lat="43.97571" lon="5.18242">
        <ele>1345.282</ele>
        <time>2020-09-03T14:37:55Z</time>
      </trkpt>
      <trkpt lat="43.97567" lon="5.18227">
        <ele>1344.504</ele>
        <time>2020-09-03T14:37:56Z</time>
      </trkpt>
      <trkpt lat="43.97562" lon="5.18212">
        <ele>1343.756</ele>
        <time>2020-09-03T14:37:57Z</time>
      </trkpt>
      <trkpt lat="43.97557" lon="5.18198">
        <ele>1342.783</ele>
        <time>2020-09-03T14:37:58Z</time>
      </trkpt>
      <trkpt lat="43.97546" lon="5.18169">
        <ele>1341.77</ele>
        <time>2020-09-03T14:38:00Z</time>
      </trkpt>
      <trkpt lat="43.97541" lon="5.18155">
        <ele>1340.939</ele>
        <time>2020-09-03T14:38:01Z</time>
      </trkpt>
      <trkpt lat="43.97535" lon="5.18141">
        <ele>1340.178</ele>
        <time>2020-09-03T14:38:02Z</time>
      </trkpt>
      <trkpt lat="43.97531" lon="5.18128">
        <ele>1339.404</ele>
        <time>2020-09-03T14:38:03Z</time>
      </trkpt>
      <trkpt lat="43.97527" lon="5.18114">
        <ele>1338.393</ele>
        <time>2020-09-03T14:38:04Z</time>
      </trkpt>
      <trkpt lat="43.97522" lon="5.18101">
        <ele>1336.673</ele>
        <time>2020-09-03T14:38:05Z</time>
      </trkpt>
      <trkpt lat="43.97516" lon="5.18087">
        <ele>1335.12</ele>
        <time>2020-09-03T14:38:06Z</time>
      </trkpt>
      <trkpt lat="43.9751" lon="5.18073">
        <ele>1333.492</ele>
        <time>2020-09-03T14:38:07Z</time>
      </trkpt>
      <trkpt lat="43.9751" lon="5.18073">
        <ele>1332.167</ele>
        <time>2020-09-03T14:38:07Z</time>
      </trkpt>
      <trkpt lat="43.975" lon="5.18046">
        <ele>1330.657</ele>
        <time>2020-09-03T14:38:09Z</time>
      </trkpt>
      <trkpt lat="43.97496" lon="5.18032">
        <ele>1328.828</ele>
        <time>2020-09-03T14:38:10Z</time>
      </trkpt>
      <trkpt lat="43.97488" lon="5.18004">
        <ele>1326.898</ele>
        <time>2020-09-03T14:38:12Z</time>
      </trkpt>
      <trkpt lat="43.97482" lon="5.17989">
        <ele>1324.67</ele>
        <time>2020-09-03T14:38:13Z</time>
      </trkpt>
      <trkpt lat="43.97482" lon="5.17989">
        <ele>1322.921</ele>
        <time>2020-09-03T14:38:13Z</time>
      </trkpt>
      <trkpt lat="43.97471" lon="5.17959">
        <ele>1321.573</ele>
        <time>2020-09-03T14:38:15Z</time>
      </trkpt>
      <trkpt lat="43.97467" lon="5.17944">
        <ele>1320.605</ele>
        <time>2020-09-03T14:38:16Z</time>
      </trkpt>
      <trkpt lat="43.97462" lon="5.1793">
        <ele>1319.815</ele>
        <time>2020-09-03T14:38:17Z</time>
      </trkpt>
      <trkpt lat="43.97457" lon="5.17915">
        <ele>1318.719</ele>
        <time>2020-09-03T14:38:18Z</time>
      </trkpt>
      <trkpt lat="43.97457" lon="5.17915">
        <ele>1317.412</ele>
        <time>2020-09-03T14:38:18Z</time>
      </trkpt>
      <trkpt lat="43.97445" lon="5.17884">
        <ele>1316.44</ele>
        <time>2020-09-03T14:38:20Z</time>
      </trkpt>
      <trkpt lat="43.9744" lon="5.17869">
        <ele>1315.869</ele>
        <time>2020-09-03T14:38:21Z</time>
      </trkpt>
      <trkpt lat="43.97434" lon="5.17855">
        <ele>1315.462</ele>
        <time>2020-09-03T14:38:22Z</time>
      </trkpt>
      <trkpt lat="43.97429" lon="5.17841">
        <ele>1314.949</ele>
        <time>2020-09-03T14:38:23Z</time>
      </trkpt>
      <trkpt lat="43.97423" lon="5.17828">
        <ele>1314.181</ele>
        <time>2020-09-03T14:38:24Z</time>
      </trkpt>
      <trkpt lat="43.97417" lon="5.17815">
        <ele>1313.398</ele>
        <time>2020-09-03T14:38:25Z</time>
      </trkpt>
      <trkpt lat="43.97412" lon="5.17801">
        <ele>1312.552</ele>
        <time>2020-09-03T14:38:26Z</time>
      </trkpt>
      <trkpt lat="43.97406" lon="5.17787">
        <ele>1311.818</ele>
        <time>2020-09-03T14:38:27Z</time>
      </trkpt>
      <trkpt lat="43.97401" lon="5.17773">
        <ele>1310.969</ele>
        <time>2020-09-03T14:38:28Z</time>
      </trkpt>
      <trkpt lat="43.9739" lon="5.17743">
        <ele>1309.862</ele>
        <time>2020-09-03T14:38:30Z</time>
      </trkpt>
      <trkpt lat="43.97385" lon="5.17728">
        <ele>1308.564</ele>
        <time>2020-09-03T14:38:31Z</time>
      </trkpt>
      <trkpt lat="43.97379" lon="5.17714">
        <ele>1307.191</ele>
        <time>2020-09-03T14:38:32Z</time>
      </trkpt>
      <trkpt lat="43.97373" lon="5.177">
        <ele>1306.08</ele>
        <time>2020-09-03T14:38:33Z</time>
      </trkpt>
      <trkpt lat="43.97367" lon="5.17686">
        <ele>1305.175</ele>
        <time>2020-09-03T14:38:34Z</time>
      </trkpt>
      <trkpt lat="43.97361" lon="5.17672">
        <ele>1304.235</ele>
        <time>2020-09-03T14:38:35Z</time>
      </trkpt>
      <trkpt lat="43.97356" lon="5.17659">
        <ele>1303.37</ele>
        <time>2020-09-03T14:38:36Z</time>
      </trkpt>
      <trkpt lat="43.9735" lon="5.17646">
        <ele>1302.491</ele>
        <time>2020-09-03T14:38:37Z</time>
      </trkpt>
      <trkpt lat="43.97345" lon="5.17633">
        <ele>1301.594</ele>
        <time>2020-09-03T14:38:38Z</time>
      </trkpt>
      <trkpt lat="43.9734" lon="5.1762">
        <ele>1300.663</ele>
        <time>2020-09-03T14:38:39Z</time>
      </trkpt>
      <trkpt lat="43.97337" lon="5.17605">
        <ele>1299.81</ele>
        <time>2020-09-03T14:38:40Z</time>
      </trkpt>
      <trkpt lat="43.97332" lon="5.17592">
        <ele>1298.825</ele>
        <time>2020-09-03T14:38:41Z</time>
      </trkpt>
      <trkpt lat="43.97327" lon="5.17578">
        <ele>1297.765</ele>
        <time>2020-09-03T14:38:42Z</time>
      </trkpt>
      <trkpt lat="43.97321" lon="5.17566">
        <ele>1296.643</ele>
        <time>2020-09-03T14:38:43Z</time>
      </trkpt>
      <trkpt lat="43.97315" lon="5.17554">
        <ele>1296.238</ele>
        <time>2020-09-03T14:38:44Z</time>
      </trkpt>
      <trkpt lat="43.97309" lon="5.17543">
        <ele>1295.618</ele>
        <time>2020-09-03T14:38:45Z</time>
      </trkpt>
      <trkpt lat="43.97304" lon="5.17532">
        <ele>1295.134</ele>
        <time>2020-09-03T14:38:46Z</time>
      </trkpt>
      <trkpt lat="43.97299" lon="5.17522">
        <ele>1294.718</ele>
        <time>2020-09-03T14:38:47Z</time>
      </trkpt>
      <trkpt lat="43.97294" lon="5.17511">
        <ele>1294.348</ele>
        <time>2020-09-03T14:38:48Z</time>
      </trkpt>
      <trkpt lat="43.9729" lon="5.175">
        <ele>1293.729</ele>
        <time>2020-09-03T14:38:49Z</time>
      </trkpt>
      <trkpt lat="43.97283" lon="5.17477">
        <ele>1293.431</ele>
        <time>2020-09-03T14:38:51Z</time>
      </trkpt>
      <trkpt lat="43.9728" lon="5.17467">
        <ele>1293.36</ele>
        <time>2020-09-03T14:38:52Z</time>
      </trkpt>
      <trkpt lat="43.97276" lon="5.17458">
        <ele>1293.323</ele>
        <time>2020-09-03T14:38:53Z</time>
      </trkpt>
      <trkpt lat="43.97276" lon="5.17458">
        <ele>1293.084</ele>
        <time>2020-09-03T14:38:53Z</time>
      </trkpt>
      <trkpt lat="43.97269" lon="5.1744">
        <ele>1292.168</ele>
        <time>2020-09-03T14:38:55Z</time>
      </trkpt>
      <trkpt lat="43.97264" lon="5.17428">
        <ele>1290.593</ele>
        <time>2020-09-03T14:38:56Z</time>
      </trkpt>
      <trkpt lat="43.97258" lon="5.17416">
        <ele>1288.519</ele>
        <time>2020-09-03T14:38:57Z</time>
      </trkpt>
      <trkpt lat="43.97251" lon="5.17405">
        <ele>1286.731</ele>
        <time>2020-09-03T14:38:58Z</time>
      </trkpt>
      <trkpt lat="43.97244" lon="5.17394">
        <ele>1285.843</ele>
        <time>2020-09-03T14:38:59Z</time>
      </trkpt>
      <trkpt lat="43.97237" lon="5.17386">
        <ele>1285.617</ele>
        <time>2020-09-03T14:39:00Z</time>
      </trkpt>
      <trkpt lat="43.9723" lon="5.17377">
        <ele>1285.69</ele>
        <time>2020-09-03T14:39:01Z</time>
      </trkpt>
      <trkpt lat="43.97223" lon="5.17367">
        <ele>1285.66</ele>
        <time>2020-09-03T14:39:02Z</time>
      </trkpt>
      <trkpt lat="43.97215" lon="5.17357">
        <ele>1285.481</ele>
        <time>2020-09-03T14:39:03Z</time>
      </trkpt>
      <trkpt lat="43.97207" lon="5.17347">
        <ele>1285.341</ele>
        <time>2020-09-03T14:39:04Z</time>
      </trkpt>
      <trkpt lat="43.97198" lon="5.17336">
        <ele>1285.609</ele>
        <time>2020-09-03T14:39:05Z</time>
      </trkpt>
      <trkpt lat="43.97189" lon="5.17326">
        <ele>1286.274</ele>
        <time>2020-09-03T14:39:06Z</time>
      </trkpt>
      <trkpt lat="43.97181" lon="5.17317">
        <ele>1287.417</ele>
        <time>2020-09-03T14:39:07Z</time>
      </trkpt>
      <trkpt lat="43.97181" lon="5.17317">
        <ele>1288.376</ele>
        <time>2020-09-03T14:39:07Z</time>
      </trkpt>
      <trkpt lat="43.97166" lon="5.17299">
        <ele>1289.921</ele>
        <time>2020-09-03T14:39:09Z</time>
      </trkpt>
      <trkpt lat="43.97166" lon="5.17299">
        <ele>1291.403</ele>
        <time>2020-09-03T14:39:09Z</time>
      </trkpt>
      <trkpt lat="43.97166" lon="5.17299">
        <ele>1292.82</ele>
        <time>2020-09-03T14:39:09Z</time>
      </trkpt>
      <trkpt lat="43.97166" lon="5.17299">
        <ele>1293.574</ele>
        <time>2020-09-03T14:39:09Z</time>
      </trkpt>
      <trkpt lat="43.97144" lon="5.17264">
        <ele>1294.557</ele>
        <time>2020-09-03T14:39:13Z</time>
      </trkpt>
      <trkpt lat="43.97139" lon="5.17244">
        <ele>1295.48</ele>
        <time>2020-09-03T14:39:15Z</time>
      </trkpt>
      <trkpt lat="43.9714" lon="5.17234">
        <ele>1295.765</ele>
        <time>2020-09-03T14:39:16Z</time>
      </trkpt>
      <trkpt lat="43.97144" lon="5.17225">
        <ele>1295.88</ele>
        <time>2020-09-03T14:39:17Z</time>
      </trkpt>
      <trkpt lat="43.97149" lon="5.17219">
        <ele>1295.933</ele>
        <time>2020-09-03T14:39:18Z</time>
      </trkpt>
      <trkpt lat="43.97156" lon="5.17217">
        <ele>1296.138</ele>
        <time>2020-09-03T14:39:19Z</time>
      </trkpt>
      <trkpt lat="43.97162" lon="5.17218">
        <ele>1296.631</ele>
        <time>2020-09-03T14:39:20Z</time>
      </trkpt>
      <trkpt lat="43.97167" lon="5.17223">
        <ele>1296.887</ele>
        <time>2020-09-03T14:39:21Z</time>
      </trkpt>
      <trkpt lat="43.97172" lon="5.17232">
        <ele>1296.796</ele>
        <time>2020-09-03T14:39:22Z</time>
      </trkpt>
      <trkpt lat="43.97176" lon="5.17245">
        <ele>1296.614</ele>
        <time>2020-09-03T14:39:23Z</time>
      </trkpt>
      <trkpt lat="43.97177" lon="5.17259">
        <ele>1296.653</ele>
        <time>2020-09-03T14:39:24Z</time>
      </trkpt>
      <trkpt lat="43.97177" lon="5.17259">
        <ele>1297.121</ele>
        <time>2020-09-03T14:39:24Z</time>
      </trkpt>
      <trkpt lat="43.9717" lon="5.17282">
        <ele>1297.776</ele>
        <time>2020-09-03T14:39:26Z</time>
      </trkpt>
      <trkpt lat="43.97165" lon="5.1729">
        <ele>1298.506</ele>
        <time>2020-09-03T14:39:27Z</time>
      </trkpt>
      <trkpt lat="43.97155" lon="5.17297">
        <ele>1299.517</ele>
        <time>2020-09-03T14:39:28Z</time>
      </trkpt>
      <trkpt lat="43.97146" lon="5.17301">
        <ele>1300.401</ele>
        <time>2020-09-03T14:39:29Z</time>
      </trkpt>
      <trkpt lat="43.97128" lon="5.17303">
        <ele>1300.962</ele>
        <time>2020-09-03T14:39:31Z</time>
      </trkpt>
      <trkpt lat="43.97119" lon="5.17302">
        <ele>1301.31</ele>
        <time>2020-09-03T14:39:32Z</time>
      </trkpt>
      <trkpt lat="43.9711" lon="5.173">
        <ele>1301.443</ele>
        <time>2020-09-03T14:39:33Z</time>
      </trkpt>
      <trkpt lat="43.9711" lon="5.173">
        <ele>1301.403</ele>
        <time>2020-09-03T14:39:33Z</time>
      </trkpt>
      <trkpt lat="43.97093" lon="5.17293">
        <ele>1301.291</ele>
        <time>2020-09-03T14:39:35Z</time>
      </trkpt>
      <trkpt lat="43.97085" lon="5.17287">
        <ele>1301.151</ele>
        <time>2020-09-03T14:39:36Z</time>
      </trkpt>
      <trkpt lat="43.97078" lon="5.1728">
        <ele>1300.86</ele>
        <time>2020-09-03T14:39:37Z</time>
      </trkpt>
      <trkpt lat="43.9707" lon="5.17272">
        <ele>1300.436</ele>
        <time>2020-09-03T14:39:38Z</time>
      </trkpt>
      <trkpt lat="43.9707" lon="5.17272">
        <ele>1300.032</ele>
        <time>2020-09-03T14:39:38Z</time>
      </trkpt>
      <trkpt lat="43.97055" lon="5.17255">
        <ele>1299.851</ele>
        <time>2020-09-03T14:39:40Z</time>
      </trkpt>
      <trkpt lat="43.97047" lon="5.17246">
        <ele>1299.973</ele>
        <time>2020-09-03T14:39:41Z</time>
      </trkpt>
      <trkpt lat="43.9704" lon="5.17237">
        <ele>1300.316</ele>
        <time>2020-09-03T14:39:42Z</time>
      </trkpt>
      <trkpt lat="43.97034" lon="5.17229">
        <ele>1300.61</ele>
        <time>2020-09-03T14:39:43Z</time>
      </trkpt>
      <trkpt lat="43.97028" lon="5.1722">
        <ele>1300.558</ele>
        <time>2020-09-03T14:39:44Z</time>
      </trkpt>
      <trkpt lat="43.9702" lon="5.17212">
        <ele>1300.087</ele>
        <time>2020-09-03T14:39:45Z</time>
      </trkpt>
      <trkpt lat="43.97012" lon="5.17203">
        <ele>1299.261</ele>
        <time>2020-09-03T14:39:46Z</time>
      </trkpt>
      <trkpt lat="43.97004" lon="5.17193">
        <ele>1297.899</ele>
        <time>2020-09-03T14:39:47Z</time>
      </trkpt>
      <trkpt lat="43.96996" lon="5.17182">
        <ele>1296.45</ele>
        <time>2020-09-03T14:39:48Z</time>
      </trkpt>
      <trkpt lat="43.96988" lon="5.17173">
        <ele>1295.331</ele>
        <time>2020-09-03T14:39:49Z</time>
      </trkpt>
      <trkpt lat="43.96971" lon="5.17156">
        <ele>1294.368</ele>
        <time>2020-09-03T14:39:51Z</time>
      </trkpt>
      <trkpt lat="43.96964" lon="5.17147">
        <ele>1293.792</ele>
        <time>2020-09-03T14:39:52Z</time>
      </trkpt>
      <trkpt lat="43.96958" lon="5.17137">
        <ele>1293.395</ele>
        <time>2020-09-03T14:39:53Z</time>
      </trkpt>
      <trkpt lat="43.96958" lon="5.17137">
        <ele>1292.915</ele>
        <time>2020-09-03T14:39:53Z</time>
      </trkpt>
      <trkpt lat="43.96946" lon="5.17118">
        <ele>1292.22</ele>
        <time>2020-09-03T14:39:55Z</time>
      </trkpt>
      <trkpt lat="43.96939" lon="5.17109">
        <ele>1291.131</ele>
        <time>2020-09-03T14:39:56Z</time>
      </trkpt>
      <trkpt lat="43.96933" lon="5.17099">
        <ele>1289.612</ele>
        <time>2020-09-03T14:39:57Z</time>
      </trkpt>
      <trkpt lat="43.96928" lon="5.17086">
        <ele>1288.081</ele>
        <time>2020-09-03T14:39:58Z</time>
      </trkpt>
      <trkpt lat="43.96928" lon="5.17086">
        <ele>1286.669</ele>
        <time>2020-09-03T14:39:58Z</time>
      </trkpt>
      <trkpt lat="43.96918" lon="5.17061">
        <ele>1285.568</ele>
        <time>2020-09-03T14:40:00Z</time>
      </trkpt>
      <trkpt lat="43.96912" lon="5.17051">
        <ele>1284.632</ele>
        <time>2020-09-03T14:40:01Z</time>
      </trkpt>
      <trkpt lat="43.96906" lon="5.17042">
        <ele>1283.701</ele>
        <time>2020-09-03T14:40:02Z</time>
      </trkpt>
      <trkpt lat="43.969" lon="5.17033">
        <ele>1282.525</ele>
        <time>2020-09-03T14:40:03Z</time>
      </trkpt>
      <trkpt lat="43.969" lon="5.17033">
        <ele>1280.989</ele>
        <time>2020-09-03T14:40:03Z</time>
      </trkpt>
      <trkpt lat="43.96891" lon="5.17013">
        <ele>1278.188</ele>
        <time>2020-09-03T14:40:05Z</time>
      </trkpt>
      <trkpt lat="43.96886" lon="5.17001">
        <ele>1275.369</ele>
        <time>2020-09-03T14:40:06Z</time>
      </trkpt>
      <trkpt lat="43.96881" lon="5.16989">
        <ele>1272.213</ele>
        <time>2020-09-03T14:40:07Z</time>
      </trkpt>
      <trkpt lat="43.96877" lon="5.16978">
        <ele>1270.866</ele>
        <time>2020-09-03T14:40:08Z</time>
      </trkpt>
      <trkpt lat="43.96871" lon="5.16967">
        <ele>1267.612</ele>
        <time>2020-09-03T14:40:09Z</time>
      </trkpt>
      <trkpt lat="43.96866" lon="5.16956">
        <ele>1264.425</ele>
        <time>2020-09-03T14:40:10Z</time>
      </trkpt>
      <trkpt lat="43.9686" lon="5.16946">
        <ele>1261.489</ele>
        <time>2020-09-03T14:40:11Z</time>
      </trkpt>
      <trkpt lat="43.96854" lon="5.16934">
        <ele>1259.04</ele>
        <time>2020-09-03T14:40:12Z</time>
      </trkpt>
      <trkpt lat="43.96854" lon="5.16934">
        <ele>1257.267</ele>
        <time>2020-09-03T14:40:12Z</time>
      </trkpt>
      <trkpt lat="43.96838" lon="5.169">
        <ele>1256.092</ele>
        <time>2020-09-03T14:40:15Z</time>
      </trkpt>
      <trkpt lat="43.96833" lon="5.1689">
        <ele>1256.283</ele>
        <time>2020-09-03T14:40:16Z</time>
      </trkpt>
      <trkpt lat="43.96828" lon="5.16881">
        <ele>1257.155</ele>
        <time>2020-09-03T14:40:17Z</time>
      </trkpt>
      <trkpt lat="43.96824" lon="5.16874">
        <ele>1257.775</ele>
        <time>2020-09-03T14:40:18Z</time>
      </trkpt>
      <trkpt lat="43.96818" lon="5.16866">
        <ele>1257.789</ele>
        <time>2020-09-03T14:40:19Z</time>
      </trkpt>
      <trkpt lat="43.96813" lon="5.16857">
        <ele>1257.111</ele>
        <time>2020-09-03T14:40:20Z</time>
      </trkpt>
      <trkpt lat="43.96808" lon="5.16847">
        <ele>1255.713</ele>
        <time>2020-09-03T14:40:21Z</time>
      </trkpt>
      <trkpt lat="43.96803" lon="5.16835">
        <ele>1254.347</ele>
        <time>2020-09-03T14:40:22Z</time>
      </trkpt>
      <trkpt lat="43.96798" lon="5.16823">
        <ele>1253.074</ele>
        <time>2020-09-03T14:40:23Z</time>
      </trkpt>
      <trkpt lat="43.96793" lon="5.16811">
        <ele>1252.527</ele>
        <time>2020-09-03T14:40:24Z</time>
      </trkpt>
      <trkpt lat="43.96788" lon="5.168">
        <ele>1252.486</ele>
        <time>2020-09-03T14:40:25Z</time>
      </trkpt>
      <trkpt lat="43.96782" lon="5.1679">
        <ele>1252.664</ele>
        <time>2020-09-03T14:40:26Z</time>
      </trkpt>
      <trkpt lat="43.96777" lon="5.16781">
        <ele>1252.681</ele>
        <time>2020-09-03T14:40:27Z</time>
      </trkpt>
      <trkpt lat="43.96772" lon="5.16771">
        <ele>1252.321</ele>
        <time>2020-09-03T14:40:28Z</time>
      </trkpt>
      <trkpt lat="43.96766" lon="5.1676">
        <ele>1251.776</ele>
        <time>2020-09-03T14:40:29Z</time>
      </trkpt>
      <trkpt lat="43.9676" lon="5.1675">
        <ele>1251.013</ele>
        <time>2020-09-03T14:40:30Z</time>
      </trkpt>
      <trkpt lat="43.9676" lon="5.1675">
        <ele>1250.608</ele>
        <time>2020-09-03T14:40:30Z</time>
      </trkpt>
      <trkpt lat="43.96744" lon="5.16729">
        <ele>1250.997</ele>
        <time>2020-09-03T14:40:32Z</time>
      </trkpt>
      <trkpt lat="43.96737" lon="5.16719">
        <ele>1251.883</ele>
        <time>2020-09-03T14:40:33Z</time>
      </trkpt>
      <trkpt lat="43.96724" lon="5.16699">
        <ele>1253.333</ele>
        <time>2020-09-03T14:40:35Z</time>
      </trkpt>
      <trkpt lat="43.96718" lon="5.16691">
        <ele>1254.061</ele>
        <time>2020-09-03T14:40:36Z</time>
      </trkpt>
      <trkpt lat="43.96711" lon="5.16684">
        <ele>1255.937</ele>
        <time>2020-09-03T14:40:37Z</time>
      </trkpt>
      <trkpt lat="43.96706" lon="5.16677">
        <ele>1257.271</ele>
        <time>2020-09-03T14:40:38Z</time>
      </trkpt>
      <trkpt lat="43.96701" lon="5.16671">
        <ele>1258.492</ele>
        <time>2020-09-03T14:40:39Z</time>
      </trkpt>
      <trkpt lat="43.96696" lon="5.16663">
        <ele>1259.443</ele>
        <time>2020-09-03T14:40:40Z</time>
      </trkpt>
      <trkpt lat="43.96693" lon="5.16655">
        <ele>1260.107</ele>
        <time>2020-09-03T14:40:41Z</time>
      </trkpt>
      <trkpt lat="43.96688" lon="5.16648">
        <ele>1260.741</ele>
        <time>2020-09-03T14:40:42Z</time>
      </trkpt>
      <trkpt lat="43.96683" lon="5.16641">
        <ele>1261.191</ele>
        <time>2020-09-03T14:40:43Z</time>
      </trkpt>
      <trkpt lat="43.96676" lon="5.16636">
        <ele>1261.576</ele>
        <time>2020-09-03T14:40:44Z</time>
      </trkpt>
      <trkpt lat="43.96667" lon="5.16633">
        <ele>1261.865</ele>
        <time>2020-09-03T14:40:45Z</time>
      </trkpt>
      <trkpt lat="43.96657" lon="5.16635">
        <ele>1262.039</ele>
        <time>2020-09-03T14:40:46Z</time>
      </trkpt>
      <trkpt lat="43.96647" lon="5.16642">
        <ele>1262.136</ele>
        <time>2020-09-03T14:40:47Z</time>
      </trkpt>
      <trkpt lat="43.96638" lon="5.16654">
        <ele>1262.083</ele>
        <time>2020-09-03T14:40:48Z</time>
      </trkpt>
      <trkpt lat="43.96633" lon="5.16669">
        <ele>1262.079</ele>
        <time>2020-09-03T14:40:49Z</time>
      </trkpt>
      <trkpt lat="43.96633" lon="5.16684">
        <ele>1262.271</ele>
        <time>2020-09-03T14:40:50Z</time>
      </trkpt>
      <trkpt lat="43.96634" lon="5.16697">
        <ele>1262.702</ele>
        <time>2020-09-03T14:40:51Z</time>
      </trkpt>
      <trkpt lat="43.96638" lon="5.16709">
        <ele>1263.04</ele>
        <time>2020-09-03T14:40:52Z</time>
      </trkpt>
      <trkpt lat="43.96644" lon="5.16718">
        <ele>1263.36</ele>
        <time>2020-09-03T14:40:53Z</time>
      </trkpt>
      <trkpt lat="43.9665" lon="5.16725">
        <ele>1263.677</ele>
        <time>2020-09-03T14:40:54Z</time>
      </trkpt>
      <trkpt lat="43.96656" lon="5.1673">
        <ele>1264.366</ele>
        <time>2020-09-03T14:40:55Z</time>
      </trkpt>
      <trkpt lat="43.96662" lon="5.16732">
        <ele>1265.523</ele>
        <time>2020-09-03T14:40:56Z</time>
      </trkpt>
      <trkpt lat="43.96667" lon="5.16731">
        <ele>1266.876</ele>
        <time>2020-09-03T14:40:57Z</time>
      </trkpt>
      <trkpt lat="43.96672" lon="5.1673">
        <ele>1268.392</ele>
        <time>2020-09-03T14:40:58Z</time>
      </trkpt>
      <trkpt lat="43.9668" lon="5.16725">
        <ele>1269.626</ele>
        <time>2020-09-03T14:41:00Z</time>
      </trkpt>
      <trkpt lat="43.96685" lon="5.16722">
        <ele>1270.345</ele>
        <time>2020-09-03T14:41:01Z</time>
      </trkpt>
      <trkpt lat="43.96689" lon="5.16716">
        <ele>1270.502</ele>
        <time>2020-09-03T14:41:02Z</time>
      </trkpt>
      <trkpt lat="43.96692" lon="5.16709">
        <ele>1270.535</ele>
        <time>2020-09-03T14:41:03Z</time>
      </trkpt>
      <trkpt lat="43.96693" lon="5.16701">
        <ele>1270.519</ele>
        <time>2020-09-03T14:41:04Z</time>
      </trkpt>
      <trkpt lat="43.96692" lon="5.16692">
        <ele>1270.609</ele>
        <time>2020-09-03T14:41:05Z</time>
      </trkpt>
      <trkpt lat="43.96689" lon="5.16683">
        <ele>1270.629</ele>
        <time>2020-09-03T14:41:06Z</time>
      </trkpt>
      <trkpt lat="43.96686" lon="5.16673">
        <ele>1270.183</ele>
        <time>2020-09-03T14:41:07Z</time>
      </trkpt>
      <trkpt lat="43.96682" lon="5.16663">
        <ele>1269.641</ele>
        <time>2020-09-03T14:41:08Z</time>
      </trkpt>
      <trkpt lat="43.96678" lon="5.16653">
        <ele>1269.186</ele>
        <time>2020-09-03T14:41:09Z</time>
      </trkpt>
      <trkpt lat="43.96673" lon="5.16642">
        <ele>1269.029</ele>
        <time>2020-09-03T14:41:10Z</time>
      </trkpt>
      <trkpt lat="43.96668" lon="5.16631">
        <ele>1269.602</ele>
        <time>2020-09-03T14:41:11Z</time>
      </trkpt>
      <trkpt lat="43.96662" lon="5.16621">
        <ele>1270.314</ele>
        <time>2020-09-03T14:41:12Z</time>
      </trkpt>
      <trkpt lat="43.96656" lon="5.16612">
        <ele>1270.917</ele>
        <time>2020-09-03T14:41:13Z</time>
      </trkpt>
      <trkpt lat="43.9665" lon="5.16604">
        <ele>1271.017</ele>
        <time>2020-09-03T14:41:14Z</time>
      </trkpt>
      <trkpt lat="43.96644" lon="5.16597">
        <ele>1270.592</ele>
        <time>2020-09-03T14:41:15Z</time>
      </trkpt>
      <trkpt lat="43.96639" lon="5.16588">
        <ele>1269.748</ele>
        <time>2020-09-03T14:41:16Z</time>
      </trkpt>
      <trkpt lat="43.96639" lon="5.16588">
        <ele>1269.034</ele>
        <time>2020-09-03T14:41:16Z</time>
      </trkpt>
      <trkpt lat="43.96628" lon="5.16568">
        <ele>1268.074</ele>
        <time>2020-09-03T14:41:18Z</time>
      </trkpt>
      <trkpt lat="43.96619" lon="5.16558">
        <ele>1267.821</ele>
        <time>2020-09-03T14:41:19Z</time>
      </trkpt>
      <trkpt lat="43.9661" lon="5.16551">
        <ele>1268.187</ele>
        <time>2020-09-03T14:41:20Z</time>
      </trkpt>
      <trkpt lat="43.9661" lon="5.16551">
        <ele>1269.269</ele>
        <time>2020-09-03T14:41:20Z</time>
      </trkpt>
      <trkpt lat="43.96589" lon="5.16526">
        <ele>1270.566</ele>
        <time>2020-09-03T14:41:23Z</time>
      </trkpt>
      <trkpt lat="43.96582" lon="5.16517">
        <ele>1271.977</ele>
        <time>2020-09-03T14:41:24Z</time>
      </trkpt>
      <trkpt lat="43.96574" lon="5.16508">
        <ele>1273.724</ele>
        <time>2020-09-03T14:41:25Z</time>
      </trkpt>
      <trkpt lat="43.96568" lon="5.16499">
        <ele>1275.04</ele>
        <time>2020-09-03T14:41:26Z</time>
      </trkpt>
      <trkpt lat="43.96562" lon="5.16489">
        <ele>1276.629</ele>
        <time>2020-09-03T14:41:27Z</time>
      </trkpt>
      <trkpt lat="43.96557" lon="5.16481">
        <ele>1278.509</ele>
        <time>2020-09-03T14:41:28Z</time>
      </trkpt>
      <trkpt lat="43.9655" lon="5.16475">
        <ele>1280.375</ele>
        <time>2020-09-03T14:41:29Z</time>
      </trkpt>
      <trkpt lat="43.96544" lon="5.16469">
        <ele>1282.306</ele>
        <time>2020-09-03T14:41:30Z</time>
      </trkpt>
      <trkpt lat="43.96544" lon="5.16469">
        <ele>1283.025</ele>
        <time>2020-09-03T14:41:30Z</time>
      </trkpt>
      <trkpt lat="43.96531" lon="5.16457">
        <ele>1284.631</ele>
        <time>2020-09-03T14:41:32Z</time>
      </trkpt>
      <trkpt lat="43.96531" lon="5.16457">
        <ele>1285.59</ele>
        <time>2020-09-03T14:41:32Z</time>
      </trkpt>
      <trkpt lat="43.96522" lon="5.1644">
        <ele>1286.03</ele>
        <time>2020-09-03T14:41:34Z</time>
      </trkpt>
      <trkpt lat="43.96527" lon="5.16423">
        <ele>1286.245</ele>
        <time>2020-09-03T14:41:36Z</time>
      </trkpt>
      <trkpt lat="43.96534" lon="5.16418">
        <ele>1286.553</ele>
        <time>2020-09-03T14:41:37Z</time>
      </trkpt>
      <trkpt lat="43.96541" lon="5.16419">
        <ele>1287.078</ele>
        <time>2020-09-03T14:41:38Z</time>
      </trkpt>
      <trkpt lat="43.96541" lon="5.16419">
        <ele>1287.731</ele>
        <time>2020-09-03T14:41:38Z</time>
      </trkpt>
      <trkpt lat="43.96551" lon="5.16439">
        <ele>1288.664</ele>
        <time>2020-09-03T14:41:40Z</time>
      </trkpt>
      <trkpt lat="43.96551" lon="5.16453">
        <ele>1289.9</ele>
        <time>2020-09-03T14:41:41Z</time>
      </trkpt>
      <trkpt lat="43.96547" lon="5.16467">
        <ele>1291.13</ele>
        <time>2020-09-03T14:41:42Z</time>
      </trkpt>
      <trkpt lat="43.96542" lon="5.16481">
        <ele>1292.349</ele>
        <time>2020-09-03T14:41:43Z</time>
      </trkpt>
      <trkpt lat="43.96542" lon="5.16481">
        <ele>1293.355</ele>
        <time>2020-09-03T14:41:43Z</time>
      </trkpt>
      <trkpt lat="43.96527" lon="5.16505">
        <ele>1294.194</ele>
        <time>2020-09-03T14:41:45Z</time>
      </trkpt>
      <trkpt lat="43.96517" lon="5.16514">
        <ele>1295.127</ele>
        <time>2020-09-03T14:41:46Z</time>
      </trkpt>
      <trkpt lat="43.96507" lon="5.16518">
        <ele>1296.213</ele>
        <time>2020-09-03T14:41:47Z</time>
      </trkpt>
      <trkpt lat="43.96497" lon="5.16518">
        <ele>1297.315</ele>
        <time>2020-09-03T14:41:48Z</time>
      </trkpt>
      <trkpt lat="43.96488" lon="5.16516">
        <ele>1298.143</ele>
        <time>2020-09-03T14:41:49Z</time>
      </trkpt>
      <trkpt lat="43.96479" lon="5.16513">
        <ele>1298.752</ele>
        <time>2020-09-03T14:41:50Z</time>
      </trkpt>
      <trkpt lat="43.96471" lon="5.16508">
        <ele>1299.363</ele>
        <time>2020-09-03T14:41:51Z</time>
      </trkpt>
      <trkpt lat="43.96463" lon="5.16502">
        <ele>1299.974</ele>
        <time>2020-09-03T14:41:52Z</time>
      </trkpt>
      <trkpt lat="43.96456" lon="5.16497">
        <ele>1300.24</ele>
        <time>2020-09-03T14:41:53Z</time>
      </trkpt>
      <trkpt lat="43.96448" lon="5.16491">
        <ele>1300.187</ele>
        <time>2020-09-03T14:41:54Z</time>
      </trkpt>
      <trkpt lat="43.96441" lon="5.16485">
        <ele>1299.761</ele>
        <time>2020-09-03T14:41:55Z</time>
      </trkpt>
      <trkpt lat="43.96434" lon="5.16477">
        <ele>1298.797</ele>
        <time>2020-09-03T14:41:56Z</time>
      </trkpt>
      <trkpt lat="43.9642" lon="5.16459">
        <ele>1298.315</ele>
        <time>2020-09-03T14:41:58Z</time>
      </trkpt>
      <trkpt lat="43.9642" lon="5.16459">
        <ele>1298.494</ele>
        <time>2020-09-03T14:41:58Z</time>
      </trkpt>
      <trkpt lat="43.96404" lon="5.16444">
        <ele>1298.817</ele>
        <time>2020-09-03T14:42:00Z</time>
      </trkpt>
      <trkpt lat="43.96397" lon="5.16437">
        <ele>1299.796</ele>
        <time>2020-09-03T14:42:01Z</time>
      </trkpt>
      <trkpt lat="43.9639" lon="5.1643">
        <ele>1300.504</ele>
        <time>2020-09-03T14:42:02Z</time>
      </trkpt>
      <trkpt lat="43.96382" lon="5.16422">
        <ele>1300.75</ele>
        <time>2020-09-03T14:42:03Z</time>
      </trkpt>
      <trkpt lat="43.96382" lon="5.16422">
        <ele>1300.461</ele>
        <time>2020-09-03T14:42:03Z</time>
      </trkpt>
      <trkpt lat="43.96367" lon="5.16404">
        <ele>1299.914</ele>
        <time>2020-09-03T14:42:05Z</time>
      </trkpt>
      <trkpt lat="43.96359" lon="5.16395">
        <ele>1299.524</ele>
        <time>2020-09-03T14:42:06Z</time>
      </trkpt>
      <trkpt lat="43.96352" lon="5.16386">
        <ele>1299.458</ele>
        <time>2020-09-03T14:42:07Z</time>
      </trkpt>
      <trkpt lat="43.96345" lon="5.16378">
        <ele>1299.754</ele>
        <time>2020-09-03T14:42:08Z</time>
      </trkpt>
      <trkpt lat="43.96345" lon="5.16378">
        <ele>1300.143</ele>
        <time>2020-09-03T14:42:08Z</time>
      </trkpt>
      <trkpt lat="43.96331" lon="5.16364">
        <ele>1300.143</ele>
        <time>2020-09-03T14:42:10Z</time>
      </trkpt>
      <trkpt lat="43.96325" lon="5.16355">
        <ele>1299.639</ele>
        <time>2020-09-03T14:42:11Z</time>
      </trkpt>
      <trkpt lat="43.96319" lon="5.16347">
        <ele>1298.621</ele>
        <time>2020-09-03T14:42:12Z</time>
      </trkpt>
      <trkpt lat="43.96313" lon="5.16339">
        <ele>1297.066</ele>
        <time>2020-09-03T14:42:13Z</time>
      </trkpt>
      <trkpt lat="43.96306" lon="5.16332">
        <ele>1295.36</ele>
        <time>2020-09-03T14:42:14Z</time>
      </trkpt>
      <trkpt lat="43.96299" lon="5.16324">
        <ele>1292.913</ele>
        <time>2020-09-03T14:42:15Z</time>
      </trkpt>
      <trkpt lat="43.96292" lon="5.16315">
        <ele>1290.197</ele>
        <time>2020-09-03T14:42:16Z</time>
      </trkpt>
      <trkpt lat="43.96285" lon="5.16305">
        <ele>1288.12</ele>
        <time>2020-09-03T14:42:17Z</time>
      </trkpt>
      <trkpt lat="43.96279" lon="5.16295">
        <ele>1286.206</ele>
        <time>2020-09-03T14:42:18Z</time>
      </trkpt>
      <trkpt lat="43.96273" lon="5.16286">
        <ele>1284.765</ele>
        <time>2020-09-03T14:42:19Z</time>
      </trkpt>
      <trkpt lat="43.96268" lon="5.16279">
        <ele>1283.064</ele>
        <time>2020-09-03T14:42:20Z</time>
      </trkpt>
      <trkpt lat="43.96261" lon="5.16271">
        <ele>1281.13</ele>
        <time>2020-09-03T14:42:21Z</time>
      </trkpt>
      <trkpt lat="43.96261" lon="5.16271">
        <ele>1279.231</ele>
        <time>2020-09-03T14:42:21Z</time>
      </trkpt>
      <trkpt lat="43.96261" lon="5.16271">
        <ele>1276.233</ele>
        <time>2020-09-03T14:42:21Z</time>
      </trkpt>
      <trkpt lat="43.96241" lon="5.16246">
        <ele>1273.082</ele>
        <time>2020-09-03T14:42:24Z</time>
      </trkpt>
      <trkpt lat="43.96234" lon="5.16236">
        <ele>1270.296</ele>
        <time>2020-09-03T14:42:25Z</time>
      </trkpt>
      <trkpt lat="43.9622" lon="5.16218">
        <ele>1268.72</ele>
        <time>2020-09-03T14:42:27Z</time>
      </trkpt>
      <trkpt lat="43.96213" lon="5.1621">
        <ele>1266.595</ele>
        <time>2020-09-03T14:42:28Z</time>
      </trkpt>
      <trkpt lat="43.96213" lon="5.1621">
        <ele>1263.965</ele>
        <time>2020-09-03T14:42:28Z</time>
      </trkpt>
      <trkpt lat="43.96198" lon="5.1619">
        <ele>1261.5</ele>
        <time>2020-09-03T14:42:30Z</time>
      </trkpt>
      <trkpt lat="43.9619" lon="5.16179">
        <ele>1258.654</ele>
        <time>2020-09-03T14:42:31Z</time>
      </trkpt>
      <trkpt lat="43.96184" lon="5.16167">
        <ele>1256.339</ele>
        <time>2020-09-03T14:42:32Z</time>
      </trkpt>
      <trkpt lat="43.96178" lon="5.16156">
        <ele>1254.441</ele>
        <time>2020-09-03T14:42:33Z</time>
      </trkpt>
      <trkpt lat="43.96178" lon="5.16156">
        <ele>1252.87</ele>
        <time>2020-09-03T14:42:33Z</time>
      </trkpt>
      <trkpt lat="43.96166" lon="5.16134">
        <ele>1251.319</ele>
        <time>2020-09-03T14:42:35Z</time>
      </trkpt>
      <trkpt lat="43.9616" lon="5.16123">
        <ele>1249.496</ele>
        <time>2020-09-03T14:42:36Z</time>
      </trkpt>
      <trkpt lat="43.96153" lon="5.16112">
        <ele>1247.475</ele>
        <time>2020-09-03T14:42:37Z</time>
      </trkpt>
      <trkpt lat="43.96146" lon="5.161">
        <ele>1245.685</ele>
        <time>2020-09-03T14:42:38Z</time>
      </trkpt>
      <trkpt lat="43.96139" lon="5.16089">
        <ele>1243.546</ele>
        <time>2020-09-03T14:42:39Z</time>
      </trkpt>
      <trkpt lat="43.96132" lon="5.16078">
        <ele>1242.117</ele>
        <time>2020-09-03T14:42:40Z</time>
      </trkpt>
      <trkpt lat="43.96124" lon="5.16069">
        <ele>1240.814</ele>
        <time>2020-09-03T14:42:41Z</time>
      </trkpt>
      <trkpt lat="43.96117" lon="5.16059">
        <ele>1239.395</ele>
        <time>2020-09-03T14:42:42Z</time>
      </trkpt>
      <trkpt lat="43.96109" lon="5.16048">
        <ele>1238.003</ele>
        <time>2020-09-03T14:42:43Z</time>
      </trkpt>
      <trkpt lat="43.96101" lon="5.16038">
        <ele>1236.715</ele>
        <time>2020-09-03T14:42:44Z</time>
      </trkpt>
      <trkpt lat="43.96093" lon="5.16029">
        <ele>1235.403</ele>
        <time>2020-09-03T14:42:45Z</time>
      </trkpt>
      <trkpt lat="43.96077" lon="5.16011">
        <ele>1234</ele>
        <time>2020-09-03T14:42:47Z</time>
      </trkpt>
      <trkpt lat="43.9607" lon="5.16002">
        <ele>1232.437</ele>
        <time>2020-09-03T14:42:48Z</time>
      </trkpt>
      <trkpt lat="43.96063" lon="5.15991">
        <ele>1229.988</ele>
        <time>2020-09-03T14:42:49Z</time>
      </trkpt>
      <trkpt lat="43.96055" lon="5.1598">
        <ele>1227.437</ele>
        <time>2020-09-03T14:42:50Z</time>
      </trkpt>
      <trkpt lat="43.96047" lon="5.1597">
        <ele>1225.502</ele>
        <time>2020-09-03T14:42:51Z</time>
      </trkpt>
      <trkpt lat="43.96039" lon="5.1596">
        <ele>1223.808</ele>
        <time>2020-09-03T14:42:52Z</time>
      </trkpt>
      <trkpt lat="43.96031" lon="5.1595">
        <ele>1222.183</ele>
        <time>2020-09-03T14:42:53Z</time>
      </trkpt>
      <trkpt lat="43.96024" lon="5.15939">
        <ele>1220.826</ele>
        <time>2020-09-03T14:42:54Z</time>
      </trkpt>
      <trkpt lat="43.96017" lon="5.15928">
        <ele>1219.976</ele>
        <time>2020-09-03T14:42:55Z</time>
      </trkpt>
      <trkpt lat="43.9601" lon="5.15917">
        <ele>1217.732</ele>
        <time>2020-09-03T14:42:56Z</time>
      </trkpt>
      <trkpt lat="43.96003" lon="5.15906">
        <ele>1215.481</ele>
        <time>2020-09-03T14:42:57Z</time>
      </trkpt>
      <trkpt lat="43.95995" lon="5.15895">
        <ele>1213.175</ele>
        <time>2020-09-03T14:42:58Z</time>
      </trkpt>
      <trkpt lat="43.95987" lon="5.15885">
        <ele>1210.935</ele>
        <time>2020-09-03T14:42:59Z</time>
      </trkpt>
      <trkpt lat="43.95979" lon="5.15874">
        <ele>1208.775</ele>
        <time>2020-09-03T14:43:00Z</time>
      </trkpt>
      <trkpt lat="43.95973" lon="5.15862">
        <ele>1206.747</ele>
        <time>2020-09-03T14:43:01Z</time>
      </trkpt>
      <trkpt lat="43.95967" lon="5.15851">
        <ele>1204.189</ele>
        <time>2020-09-03T14:43:02Z</time>
      </trkpt>
      <trkpt lat="43.9596" lon="5.15839">
        <ele>1201.515</ele>
        <time>2020-09-03T14:43:03Z</time>
      </trkpt>
      <trkpt lat="43.95953" lon="5.15827">
        <ele>1199.114</ele>
        <time>2020-09-03T14:43:04Z</time>
      </trkpt>
      <trkpt lat="43.95946" lon="5.15815">
        <ele>1196.675</ele>
        <time>2020-09-03T14:43:05Z</time>
      </trkpt>
      <trkpt lat="43.95939" lon="5.15802">
        <ele>1194.598</ele>
        <time>2020-09-03T14:43:06Z</time>
      </trkpt>
      <trkpt lat="43.95934" lon="5.15788">
        <ele>1191.851</ele>
        <time>2020-09-03T14:43:07Z</time>
      </trkpt>
      <trkpt lat="43.95928" lon="5.15775">
        <ele>1189.655</ele>
        <time>2020-09-03T14:43:08Z</time>
      </trkpt>
      <trkpt lat="43.95914" lon="5.15751">
        <ele>1187.258</ele>
        <time>2020-09-03T14:43:10Z</time>
      </trkpt>
      <trkpt lat="43.95907" lon="5.15738">
        <ele>1184.415</ele>
        <time>2020-09-03T14:43:11Z</time>
      </trkpt>
      <trkpt lat="43.95899" lon="5.15726">
        <ele>1181.656</ele>
        <time>2020-09-03T14:43:12Z</time>
      </trkpt>
      <trkpt lat="43.95891" lon="5.15713">
        <ele>1179.35</ele>
        <time>2020-09-03T14:43:13Z</time>
      </trkpt>
      <trkpt lat="43.95884" lon="5.15701">
        <ele>1177.437</ele>
        <time>2020-09-03T14:43:14Z</time>
      </trkpt>
      <trkpt lat="43.95876" lon="5.15691">
        <ele>1175.627</ele>
        <time>2020-09-03T14:43:15Z</time>
      </trkpt>
      <trkpt lat="43.95868" lon="5.1568">
        <ele>1173.65</ele>
        <time>2020-09-03T14:43:16Z</time>
      </trkpt>
      <trkpt lat="43.95861" lon="5.15668">
        <ele>1171.647</ele>
        <time>2020-09-03T14:43:17Z</time>
      </trkpt>
      <trkpt lat="43.95854" lon="5.15656">
        <ele>1169.338</ele>
        <time>2020-09-03T14:43:18Z</time>
      </trkpt>
      <trkpt lat="43.95848" lon="5.15643">
        <ele>1166.937</ele>
        <time>2020-09-03T14:43:19Z</time>
      </trkpt>
      <trkpt lat="43.95841" lon="5.1563">
        <ele>1164.418</ele>
        <time>2020-09-03T14:43:20Z</time>
      </trkpt>
      <trkpt lat="43.95834" lon="5.15617">
        <ele>1161.863</ele>
        <time>2020-09-03T14:43:21Z</time>
      </trkpt>
      <trkpt lat="43.95827" lon="5.15604">
        <ele>1160.563</ele>
        <time>2020-09-03T14:43:22Z</time>
      </trkpt>
      <trkpt lat="43.9582" lon="5.15592">
        <ele>1157.424</ele>
        <time>2020-09-03T14:43:23Z</time>
      </trkpt>
      <trkpt lat="43.95813" lon="5.1558">
        <ele>1154.493</ele>
        <time>2020-09-03T14:43:24Z</time>
      </trkpt>
      <trkpt lat="43.95806" lon="5.15568">
        <ele>1151.646</ele>
        <time>2020-09-03T14:43:25Z</time>
      </trkpt>
      <trkpt lat="43.95799" lon="5.15556">
        <ele>1148.98</ele>
        <time>2020-09-03T14:43:26Z</time>
      </trkpt>
      <trkpt lat="43.95792" lon="5.15543">
        <ele>1145.499</ele>
        <time>2020-09-03T14:43:27Z</time>
      </trkpt>
      <trkpt lat="43.95784" lon="5.1553">
        <ele>1142.306</ele>
        <time>2020-09-03T14:43:28Z</time>
      </trkpt>
      <trkpt lat="43.95777" lon="5.15518">
        <ele>1139.299</ele>
        <time>2020-09-03T14:43:29Z</time>
      </trkpt>
      <trkpt lat="43.95769" lon="5.15507">
        <ele>1136.156</ele>
        <time>2020-09-03T14:43:30Z</time>
      </trkpt>
      <trkpt lat="43.95761" lon="5.15495">
        <ele>1133.598</ele>
        <time>2020-09-03T14:43:31Z</time>
      </trkpt>
      <trkpt lat="43.95753" lon="5.15484">
        <ele>1130.579</ele>
        <time>2020-09-03T14:43:32Z</time>
      </trkpt>
      <trkpt lat="43.95746" lon="5.15472">
        <ele>1128.096</ele>
        <time>2020-09-03T14:43:33Z</time>
      </trkpt>
      <trkpt lat="43.95731" lon="5.15451">
        <ele>1125.603</ele>
        <time>2020-09-03T14:43:35Z</time>
      </trkpt>
      <trkpt lat="43.95723" lon="5.15441">
        <ele>1123.053</ele>
        <time>2020-09-03T14:43:36Z</time>
      </trkpt>
      <trkpt lat="43.95714" lon="5.15431">
        <ele>1120.322</ele>
        <time>2020-09-03T14:43:37Z</time>
      </trkpt>
      <trkpt lat="43.95705" lon="5.15421">
        <ele>1117.433</ele>
        <time>2020-09-03T14:43:38Z</time>
      </trkpt>
      <trkpt lat="43.95697" lon="5.15411">
        <ele>1115.055</ele>
        <time>2020-09-03T14:43:39Z</time>
      </trkpt>
      <trkpt lat="43.95688" lon="5.15401">
        <ele>1113.286</ele>
        <time>2020-09-03T14:43:40Z</time>
      </trkpt>
      <trkpt lat="43.95679" lon="5.15392">
        <ele>1111.647</ele>
        <time>2020-09-03T14:43:41Z</time>
      </trkpt>
      <trkpt lat="43.95671" lon="5.15383">
        <ele>1110.496</ele>
        <time>2020-09-03T14:43:42Z</time>
      </trkpt>
      <trkpt lat="43.95662" lon="5.15374">
        <ele>1109.602</ele>
        <time>2020-09-03T14:43:43Z</time>
      </trkpt>
      <trkpt lat="43.95654" lon="5.15366">
        <ele>1108.516</ele>
        <time>2020-09-03T14:43:44Z</time>
      </trkpt>
      <trkpt lat="43.95646" lon="5.15358">
        <ele>1107.362</ele>
        <time>2020-09-03T14:43:45Z</time>
      </trkpt>
      <trkpt lat="43.95638" lon="5.1535">
        <ele>1106.054</ele>
        <time>2020-09-03T14:43:46Z</time>
      </trkpt>
      <trkpt lat="43.95629" lon="5.15342">
        <ele>1104.856</ele>
        <time>2020-09-03T14:43:47Z</time>
      </trkpt>
      <trkpt lat="43.9562" lon="5.15334">
        <ele>1103.928</ele>
        <time>2020-09-03T14:43:48Z</time>
      </trkpt>
      <trkpt lat="43.9561" lon="5.15327">
        <ele>1103.547</ele>
        <time>2020-09-03T14:43:49Z</time>
      </trkpt>
      <trkpt lat="43.9561" lon="5.15327">
        <ele>1103.509</ele>
        <time>2020-09-03T14:43:49Z</time>
      </trkpt>
      <trkpt lat="43.9561" lon="5.15327">
        <ele>1103.349</ele>
        <time>2020-09-03T14:43:49Z</time>
      </trkpt>
      <trkpt lat="43.9561" lon="5.15327">
        <ele>1102.532</ele>
        <time>2020-09-03T14:43:49Z</time>
      </trkpt>
      <trkpt lat="43.9561" lon="5.15327">
        <ele>1101.36</ele>
        <time>2020-09-03T14:43:49Z</time>
      </trkpt>
      <trkpt lat="43.95572" lon="5.15292">
        <ele>1099.787</ele>
        <time>2020-09-03T14:43:54Z</time>
      </trkpt>
      <trkpt lat="43.95556" lon="5.15275">
        <ele>1098.666</ele>
        <time>2020-09-03T14:43:56Z</time>
      </trkpt>
      <trkpt lat="43.95548" lon="5.15269">
        <ele>1097.891</ele>
        <time>2020-09-03T14:43:57Z</time>
      </trkpt>
      <trkpt lat="43.95541" lon="5.15263">
        <ele>1097.262</ele>
        <time>2020-09-03T14:43:58Z</time>
      </trkpt>
      <trkpt lat="43.95534" lon="5.15257">
        <ele>1096.242</ele>
        <time>2020-09-03T14:43:59Z</time>
      </trkpt>
      <trkpt lat="43.95528" lon="5.1525">
        <ele>1094.752</ele>
        <time>2020-09-03T14:44:00Z</time>
      </trkpt>
      <trkpt lat="43.95521" lon="5.15242">
        <ele>1093.015</ele>
        <time>2020-09-03T14:44:01Z</time>
      </trkpt>
      <trkpt lat="43.95514" lon="5.15234">
        <ele>1091.128</ele>
        <time>2020-09-03T14:44:02Z</time>
      </trkpt>
      <trkpt lat="43.95506" lon="5.15226">
        <ele>1089.665</ele>
        <time>2020-09-03T14:44:03Z</time>
      </trkpt>
      <trkpt lat="43.95491" lon="5.1521">
        <ele>1088.511</ele>
        <time>2020-09-03T14:44:05Z</time>
      </trkpt>
      <trkpt lat="43.95483" lon="5.15202">
        <ele>1087.615</ele>
        <time>2020-09-03T14:44:06Z</time>
      </trkpt>
      <trkpt lat="43.95475" lon="5.15194">
        <ele>1086.683</ele>
        <time>2020-09-03T14:44:07Z</time>
      </trkpt>
      <trkpt lat="43.95468" lon="5.15185">
        <ele>1085.826</ele>
        <time>2020-09-03T14:44:08Z</time>
      </trkpt>
      <trkpt lat="43.95468" lon="5.15185">
        <ele>1085.105</ele>
        <time>2020-09-03T14:44:08Z</time>
      </trkpt>
      <trkpt lat="43.95453" lon="5.15169">
        <ele>1084.537</ele>
        <time>2020-09-03T14:44:10Z</time>
      </trkpt>
      <trkpt lat="43.95444" lon="5.15162">
        <ele>1083.681</ele>
        <time>2020-09-03T14:44:11Z</time>
      </trkpt>
      <trkpt lat="43.95435" lon="5.15156">
        <ele>1082.692</ele>
        <time>2020-09-03T14:44:12Z</time>
      </trkpt>
      <trkpt lat="43.95425" lon="5.15148">
        <ele>1081.609</ele>
        <time>2020-09-03T14:44:13Z</time>
      </trkpt>
      <trkpt lat="43.95425" lon="5.15148">
        <ele>1080.513</ele>
        <time>2020-09-03T14:44:13Z</time>
      </trkpt>
      <trkpt lat="43.95406" lon="5.15126">
        <ele>1079.658</ele>
        <time>2020-09-03T14:44:15Z</time>
      </trkpt>
      <trkpt lat="43.95397" lon="5.15117">
        <ele>1078.916</ele>
        <time>2020-09-03T14:44:16Z</time>
      </trkpt>
      <trkpt lat="43.95387" lon="5.15109">
        <ele>1078.429</ele>
        <time>2020-09-03T14:44:17Z</time>
      </trkpt>
      <trkpt lat="43.95377" lon="5.15101">
        <ele>1078.28</ele>
        <time>2020-09-03T14:44:18Z</time>
      </trkpt>
      <trkpt lat="43.95368" lon="5.15094">
        <ele>1078.22</ele>
        <time>2020-09-03T14:44:19Z</time>
      </trkpt>
      <trkpt lat="43.9536" lon="5.15087">
        <ele>1078.026</ele>
        <time>2020-09-03T14:44:20Z</time>
      </trkpt>
      <trkpt lat="43.95351" lon="5.1508">
        <ele>1077.182</ele>
        <time>2020-09-03T14:44:21Z</time>
      </trkpt>
      <trkpt lat="43.95341" lon="5.15072">
        <ele>1075.441</ele>
        <time>2020-09-03T14:44:22Z</time>
      </trkpt>
      <trkpt lat="43.95332" lon="5.15065">
        <ele>1073.09</ele>
        <time>2020-09-03T14:44:23Z</time>
      </trkpt>
      <trkpt lat="43.95322" lon="5.15057">
        <ele>1071.393</ele>
        <time>2020-09-03T14:44:24Z</time>
      </trkpt>
      <trkpt lat="43.95312" lon="5.15049">
        <ele>1070.074</ele>
        <time>2020-09-03T14:44:25Z</time>
      </trkpt>
      <trkpt lat="43.95312" lon="5.15049">
        <ele>1069.411</ele>
        <time>2020-09-03T14:44:25Z</time>
      </trkpt>
      <trkpt lat="43.95283" lon="5.15031">
        <ele>1069.247</ele>
        <time>2020-09-03T14:44:28Z</time>
      </trkpt>
      <trkpt lat="43.95283" lon="5.15031">
        <ele>1068.945</ele>
        <time>2020-09-03T14:44:28Z</time>
      </trkpt>
      <trkpt lat="43.95263" lon="5.15015">
        <ele>1068.5</ele>
        <time>2020-09-03T14:44:30Z</time>
      </trkpt>
      <trkpt lat="43.95253" lon="5.15009">
        <ele>1067.843</ele>
        <time>2020-09-03T14:44:31Z</time>
      </trkpt>
      <trkpt lat="43.95243" lon="5.15004">
        <ele>1067.655</ele>
        <time>2020-09-03T14:44:32Z</time>
      </trkpt>
      <trkpt lat="43.95234" lon="5.14999">
        <ele>1067.684</ele>
        <time>2020-09-03T14:44:33Z</time>
      </trkpt>
      <trkpt lat="43.95227" lon="5.14993">
        <ele>1067.458</ele>
        <time>2020-09-03T14:44:34Z</time>
      </trkpt>
      <trkpt lat="43.9522" lon="5.14984">
        <ele>1066.65</ele>
        <time>2020-09-03T14:44:35Z</time>
      </trkpt>
      <trkpt lat="43.95211" lon="5.14974">
        <ele>1065.207</ele>
        <time>2020-09-03T14:44:36Z</time>
      </trkpt>
      <trkpt lat="43.95202" lon="5.14965">
        <ele>1063.55</ele>
        <time>2020-09-03T14:44:37Z</time>
      </trkpt>
      <trkpt lat="43.95193" lon="5.14956">
        <ele>1062.121</ele>
        <time>2020-09-03T14:44:38Z</time>
      </trkpt>
      <trkpt lat="43.95184" lon="5.14949">
        <ele>1061.187</ele>
        <time>2020-09-03T14:44:39Z</time>
      </trkpt>
      <trkpt lat="43.95175" lon="5.14942">
        <ele>1060.42</ele>
        <time>2020-09-03T14:44:40Z</time>
      </trkpt>
      <trkpt lat="43.95167" lon="5.14935">
        <ele>1059.428</ele>
        <time>2020-09-03T14:44:41Z</time>
      </trkpt>
      <trkpt lat="43.9516" lon="5.14926">
        <ele>1058.061</ele>
        <time>2020-09-03T14:44:42Z</time>
      </trkpt>
      <trkpt lat="43.95152" lon="5.14916">
        <ele>1056.312</ele>
        <time>2020-09-03T14:44:43Z</time>
      </trkpt>
      <trkpt lat="43.95144" lon="5.14905">
        <ele>1054.934</ele>
        <time>2020-09-03T14:44:44Z</time>
      </trkpt>
      <trkpt lat="43.95144" lon="5.14905">
        <ele>1054.141</ele>
        <time>2020-09-03T14:44:44Z</time>
      </trkpt>
      <trkpt lat="43.95127" lon="5.14886">
        <ele>1053.491</ele>
        <time>2020-09-03T14:44:46Z</time>
      </trkpt>
      <trkpt lat="43.95117" lon="5.1488">
        <ele>1053.029</ele>
        <time>2020-09-03T14:44:47Z</time>
      </trkpt>
      <trkpt lat="43.95108" lon="5.14874">
        <ele>1052.682</ele>
        <time>2020-09-03T14:44:48Z</time>
      </trkpt>
      <trkpt lat="43.95098" lon="5.14868">
        <ele>1052.066</ele>
        <time>2020-09-03T14:44:49Z</time>
      </trkpt>
      <trkpt lat="43.95077" lon="5.14856">
        <ele>1051.135</ele>
        <time>2020-09-03T14:44:51Z</time>
      </trkpt>
      <trkpt lat="43.95066" lon="5.1485">
        <ele>1050.476</ele>
        <time>2020-09-03T14:44:52Z</time>
      </trkpt>
      <trkpt lat="43.95056" lon="5.14844">
        <ele>1049.949</ele>
        <time>2020-09-03T14:44:53Z</time>
      </trkpt>
      <trkpt lat="43.95056" lon="5.14844">
        <ele>1049.513</ele>
        <time>2020-09-03T14:44:53Z</time>
      </trkpt>
      <trkpt lat="43.95035" lon="5.14833">
        <ele>1048.966</ele>
        <time>2020-09-03T14:44:55Z</time>
      </trkpt>
      <trkpt lat="43.95024" lon="5.14828">
        <ele>1048.251</ele>
        <time>2020-09-03T14:44:56Z</time>
      </trkpt>
      <trkpt lat="43.95014" lon="5.14823">
        <ele>1047.398</ele>
        <time>2020-09-03T14:44:57Z</time>
      </trkpt>
      <trkpt lat="43.95003" lon="5.14819">
        <ele>1046.302</ele>
        <time>2020-09-03T14:44:58Z</time>
      </trkpt>
      <trkpt lat="43.94992" lon="5.14816">
        <ele>1045.026</ele>
        <time>2020-09-03T14:44:59Z</time>
      </trkpt>
      <trkpt lat="43.9498" lon="5.14813">
        <ele>1043.853</ele>
        <time>2020-09-03T14:45:00Z</time>
      </trkpt>
      <trkpt lat="43.94968" lon="5.1481">
        <ele>1043.037</ele>
        <time>2020-09-03T14:45:01Z</time>
      </trkpt>
      <trkpt lat="43.94956" lon="5.14806">
        <ele>1042.75</ele>
        <time>2020-09-03T14:45:02Z</time>
      </trkpt>
      <trkpt lat="43.94946" lon="5.14802">
        <ele>1043.141</ele>
        <time>2020-09-03T14:45:03Z</time>
      </trkpt>
      <trkpt lat="43.94936" lon="5.14799">
        <ele>1043.799</ele>
        <time>2020-09-03T14:45:04Z</time>
      </trkpt>
      <trkpt lat="43.94926" lon="5.14797">
        <ele>1044.309</ele>
        <time>2020-09-03T14:45:05Z</time>
      </trkpt>
      <trkpt lat="43.94917" lon="5.14794">
        <ele>1044.312</ele>
        <time>2020-09-03T14:45:06Z</time>
      </trkpt>
      <trkpt lat="43.94907" lon="5.14791">
        <ele>1043.778</ele>
        <time>2020-09-03T14:45:07Z</time>
      </trkpt>
      <trkpt lat="43.94896" lon="5.14787">
        <ele>1043.101</ele>
        <time>2020-09-03T14:45:08Z</time>
      </trkpt>
      <trkpt lat="43.94886" lon="5.14782">
        <ele>1042.571</ele>
        <time>2020-09-03T14:45:09Z</time>
      </trkpt>
      <trkpt lat="43.94875" lon="5.14778">
        <ele>1042.421</ele>
        <time>2020-09-03T14:45:10Z</time>
      </trkpt>
      <trkpt lat="43.94865" lon="5.14774">
        <ele>1042.411</ele>
        <time>2020-09-03T14:45:11Z</time>
      </trkpt>
      <trkpt lat="43.94856" lon="5.1477">
        <ele>1042.293</ele>
        <time>2020-09-03T14:45:12Z</time>
      </trkpt>
      <trkpt lat="43.94856" lon="5.1477">
        <ele>1041.892</ele>
        <time>2020-09-03T14:45:12Z</time>
      </trkpt>
      <trkpt lat="43.94836" lon="5.14761">
        <ele>1040.968</ele>
        <time>2020-09-03T14:45:14Z</time>
      </trkpt>
      <trkpt lat="43.94826" lon="5.14756">
        <ele>1040.27</ele>
        <time>2020-09-03T14:45:15Z</time>
      </trkpt>
      <trkpt lat="43.94815" lon="5.14751">
        <ele>1039.874</ele>
        <time>2020-09-03T14:45:16Z</time>
      </trkpt>
      <trkpt lat="43.94806" lon="5.14746">
        <ele>1039.874</ele>
        <time>2020-09-03T14:45:17Z</time>
      </trkpt>
      <trkpt lat="43.94806" lon="5.14746">
        <ele>1040.13</ele>
        <time>2020-09-03T14:45:17Z</time>
      </trkpt>
      <trkpt lat="43.94787" lon="5.14736">
        <ele>1040.534</ele>
        <time>2020-09-03T14:45:19Z</time>
      </trkpt>
      <trkpt lat="43.94769" lon="5.14725">
        <ele>1041.099</ele>
        <time>2020-09-03T14:45:21Z</time>
      </trkpt>
      <trkpt lat="43.9476" lon="5.1472">
        <ele>1041.977</ele>
        <time>2020-09-03T14:45:22Z</time>
      </trkpt>
      <trkpt lat="43.94752" lon="5.14716">
        <ele>1042.633</ele>
        <time>2020-09-03T14:45:23Z</time>
      </trkpt>
      <trkpt lat="43.94743" lon="5.14712">
        <ele>1043.248</ele>
        <time>2020-09-03T14:45:24Z</time>
      </trkpt>
      <trkpt lat="43.94733" lon="5.14707">
        <ele>1043.934</ele>
        <time>2020-09-03T14:45:25Z</time>
      </trkpt>
      <trkpt lat="43.94724" lon="5.14703">
        <ele>1044.848</ele>
        <time>2020-09-03T14:45:26Z</time>
      </trkpt>
      <trkpt lat="43.94716" lon="5.14699">
        <ele>1045.93</ele>
        <time>2020-09-03T14:45:27Z</time>
      </trkpt>
      <trkpt lat="43.94708" lon="5.14695">
        <ele>1046.877</ele>
        <time>2020-09-03T14:45:28Z</time>
      </trkpt>
      <trkpt lat="43.94701" lon="5.14692">
        <ele>1047.359</ele>
        <time>2020-09-03T14:45:29Z</time>
      </trkpt>
      <trkpt lat="43.94694" lon="5.14685">
        <ele>1047.375</ele>
        <time>2020-09-03T14:45:30Z</time>
      </trkpt>
      <trkpt lat="43.94687" lon="5.14676">
        <ele>1046.866</ele>
        <time>2020-09-03T14:45:31Z</time>
      </trkpt>
      <trkpt lat="43.9468" lon="5.14664">
        <ele>1046.335</ele>
        <time>2020-09-03T14:45:32Z</time>
      </trkpt>
      <trkpt lat="43.94676" lon="5.14652">
        <ele>1046.216</ele>
        <time>2020-09-03T14:45:33Z</time>
      </trkpt>
      <trkpt lat="43.94673" lon="5.14641">
        <ele>1046.679</ele>
        <time>2020-09-03T14:45:34Z</time>
      </trkpt>
      <trkpt lat="43.94673" lon="5.14632">
        <ele>1047.469</ele>
        <time>2020-09-03T14:45:35Z</time>
      </trkpt>
      <trkpt lat="43.94674" lon="5.14626">
        <ele>1048.362</ele>
        <time>2020-09-03T14:45:36Z</time>
      </trkpt>
      <trkpt lat="43.94676" lon="5.14621">
        <ele>1048.849</ele>
        <time>2020-09-03T14:45:37Z</time>
      </trkpt>
      <trkpt lat="43.94678" lon="5.14619">
        <ele>1048.716</ele>
        <time>2020-09-03T14:45:38Z</time>
      </trkpt>
      <trkpt lat="43.94681" lon="5.14618">
        <ele>1047.774</ele>
        <time>2020-09-03T14:45:39Z</time>
      </trkpt>
      <trkpt lat="43.94681" lon="5.14618">
        <ele>1046.602</ele>
        <time>2020-09-03T14:45:39Z</time>
      </trkpt>
      <trkpt lat="43.94688" lon="5.14628">
        <ele>1044.829</ele>
        <time>2020-09-03T14:45:41Z</time>
      </trkpt>
      <trkpt lat="43.94688" lon="5.14628">
        <ele>1043.064</ele>
        <time>2020-09-03T14:45:41Z</time>
      </trkpt>
      <trkpt lat="43.94688" lon="5.14653">
        <ele>1040.52</ele>
        <time>2020-09-03T14:45:43Z</time>
      </trkpt>
      <trkpt lat="43.94671" lon="5.14676">
        <ele>1038.427</ele>
        <time>2020-09-03T14:45:45Z</time>
      </trkpt>
      <trkpt lat="43.94657" lon="5.14681">
        <ele>1037.17</ele>
        <time>2020-09-03T14:45:46Z</time>
      </trkpt>
      <trkpt lat="43.94645" lon="5.14683">
        <ele>1036.841</ele>
        <time>2020-09-03T14:45:47Z</time>
      </trkpt>
      <trkpt lat="43.94633" lon="5.14685">
        <ele>1037.244</ele>
        <time>2020-09-03T14:45:48Z</time>
      </trkpt>
      <trkpt lat="43.94621" lon="5.14688">
        <ele>1037.827</ele>
        <time>2020-09-03T14:45:49Z</time>
      </trkpt>
      <trkpt lat="43.9461" lon="5.14691">
        <ele>1038.148</ele>
        <time>2020-09-03T14:45:50Z</time>
      </trkpt>
      <trkpt lat="43.94598" lon="5.14694">
        <ele>1038.077</ele>
        <time>2020-09-03T14:45:51Z</time>
      </trkpt>
      <trkpt lat="43.94585" lon="5.14695">
        <ele>1037.681</ele>
        <time>2020-09-03T14:45:52Z</time>
      </trkpt>
      <trkpt lat="43.94572" lon="5.14695">
        <ele>1037.136</ele>
        <time>2020-09-03T14:45:53Z</time>
      </trkpt>
      <trkpt lat="43.9456" lon="5.14694">
        <ele>1036.668</ele>
        <time>2020-09-03T14:45:54Z</time>
      </trkpt>
      <trkpt lat="43.94547" lon="5.14691">
        <ele>1036.546</ele>
        <time>2020-09-03T14:45:55Z</time>
      </trkpt>
      <trkpt lat="43.94535" lon="5.14687">
        <ele>1036.785</ele>
        <time>2020-09-03T14:45:56Z</time>
      </trkpt>
      <trkpt lat="43.94524" lon="5.14683">
        <ele>1037.65</ele>
        <time>2020-09-03T14:45:57Z</time>
      </trkpt>
      <trkpt lat="43.94515" lon="5.14678">
        <ele>1039.237</ele>
        <time>2020-09-03T14:45:58Z</time>
      </trkpt>
      <trkpt lat="43.94506" lon="5.14673">
        <ele>1040.95</ele>
        <time>2020-09-03T14:45:59Z</time>
      </trkpt>
      <trkpt lat="43.94499" lon="5.14667">
        <ele>1042.333</ele>
        <time>2020-09-03T14:46:00Z</time>
      </trkpt>
      <trkpt lat="43.94494" lon="5.1466">
        <ele>1043.065</ele>
        <time>2020-09-03T14:46:01Z</time>
      </trkpt>
      <trkpt lat="43.9449" lon="5.14651">
        <ele>1043.417</ele>
        <time>2020-09-03T14:46:02Z</time>
      </trkpt>
      <trkpt lat="43.94489" lon="5.14641">
        <ele>1043.578</ele>
        <time>2020-09-03T14:46:03Z</time>
      </trkpt>
      <trkpt lat="43.94492" lon="5.14632">
        <ele>1044.11</ele>
        <time>2020-09-03T14:46:04Z</time>
      </trkpt>
      <trkpt lat="43.945" lon="5.14625">
        <ele>1044.969</ele>
        <time>2020-09-03T14:46:06Z</time>
      </trkpt>
      <trkpt lat="43.94504" lon="5.14626">
        <ele>1046.269</ele>
        <time>2020-09-03T14:46:07Z</time>
      </trkpt>
      <trkpt lat="43.94508" lon="5.14628">
        <ele>1047.437</ele>
        <time>2020-09-03T14:46:08Z</time>
      </trkpt>
      <trkpt lat="43.9451" lon="5.14628">
        <ele>1047.935</ele>
        <time>2020-09-03T14:46:09Z</time>
      </trkpt>
      <trkpt lat="43.94512" lon="5.14628">
        <ele>1048.116</ele>
        <time>2020-09-03T14:46:10Z</time>
      </trkpt>
      <trkpt lat="43.94516" lon="5.14629">
        <ele>1047.544</ele>
        <time>2020-09-03T14:46:11Z</time>
      </trkpt>
      <trkpt lat="43.94519" lon="5.14634">
        <ele>1046.358</ele>
        <time>2020-09-03T14:46:12Z</time>
      </trkpt>
      <trkpt lat="43.94521" lon="5.14646">
        <ele>1044.528</ele>
        <time>2020-09-03T14:46:13Z</time>
      </trkpt>
      <trkpt lat="43.9452" lon="5.14661">
        <ele>1042.512</ele>
        <time>2020-09-03T14:46:14Z</time>
      </trkpt>
      <trkpt lat="43.94514" lon="5.14677">
        <ele>1041.154</ele>
        <time>2020-09-03T14:46:15Z</time>
      </trkpt>
      <trkpt lat="43.94506" lon="5.1469">
        <ele>1040.826</ele>
        <time>2020-09-03T14:46:16Z</time>
      </trkpt>
      <trkpt lat="43.94496" lon="5.14701">
        <ele>1041.191</ele>
        <time>2020-09-03T14:46:17Z</time>
      </trkpt>
      <trkpt lat="43.94485" lon="5.14707">
        <ele>1041.829</ele>
        <time>2020-09-03T14:46:18Z</time>
      </trkpt>
      <trkpt lat="43.94475" lon="5.14711">
        <ele>1042.31</ele>
        <time>2020-09-03T14:46:19Z</time>
      </trkpt>
      <trkpt lat="43.94464" lon="5.1471">
        <ele>1042.399</ele>
        <time>2020-09-03T14:46:20Z</time>
      </trkpt>
      <trkpt lat="43.94454" lon="5.14707">
        <ele>1042.028</ele>
        <time>2020-09-03T14:46:21Z</time>
      </trkpt>
      <trkpt lat="43.94454" lon="5.14707">
        <ele>1041.426</ele>
        <time>2020-09-03T14:46:21Z</time>
      </trkpt>
      <trkpt lat="43.94433" lon="5.14694">
        <ele>1040.903</ele>
        <time>2020-09-03T14:46:23Z</time>
      </trkpt>
      <trkpt lat="43.94424" lon="5.14686">
        <ele>1040.592</ele>
        <time>2020-09-03T14:46:24Z</time>
      </trkpt>
      <trkpt lat="43.94424" lon="5.14686">
        <ele>1040.744</ele>
        <time>2020-09-03T14:46:24Z</time>
      </trkpt>
      <trkpt lat="43.94424" lon="5.14686">
        <ele>1040.858</ele>
        <time>2020-09-03T14:46:24Z</time>
      </trkpt>
      <trkpt lat="43.94424" lon="5.14686">
        <ele>1040.575</ele>
        <time>2020-09-03T14:46:24Z</time>
      </trkpt>
      <trkpt lat="43.94424" lon="5.14686">
        <ele>1039.475</ele>
        <time>2020-09-03T14:46:24Z</time>
      </trkpt>
      <trkpt lat="43.94368" lon="5.14646">
        <ele>1037.973</ele>
        <time>2020-09-03T14:46:30Z</time>
      </trkpt>
      <trkpt lat="43.94358" lon="5.14638">
        <ele>1036.976</ele>
        <time>2020-09-03T14:46:31Z</time>
      </trkpt>
      <trkpt lat="43.94348" lon="5.1463">
        <ele>1036.91</ele>
        <time>2020-09-03T14:46:32Z</time>
      </trkpt>
      <trkpt lat="43.94339" lon="5.14624">
        <ele>1037.256</ele>
        <time>2020-09-03T14:46:33Z</time>
      </trkpt>
      <trkpt lat="43.94332" lon="5.14618">
        <ele>1037.475</ele>
        <time>2020-09-03T14:46:34Z</time>
      </trkpt>
      <trkpt lat="43.94324" lon="5.14612">
        <ele>1036.95</ele>
        <time>2020-09-03T14:46:35Z</time>
      </trkpt>
      <trkpt lat="43.94324" lon="5.14612">
        <ele>1036.099</ele>
        <time>2020-09-03T14:46:35Z</time>
      </trkpt>
      <trkpt lat="43.94306" lon="5.14599">
        <ele>1034.077</ele>
        <time>2020-09-03T14:46:37Z</time>
      </trkpt>
      <trkpt lat="43.94297" lon="5.14591">
        <ele>1032.052</ele>
        <time>2020-09-03T14:46:38Z</time>
      </trkpt>
      <trkpt lat="43.94288" lon="5.14583">
        <ele>1030.669</ele>
        <time>2020-09-03T14:46:39Z</time>
      </trkpt>
      <trkpt lat="43.94271" lon="5.14568">
        <ele>1029.561</ele>
        <time>2020-09-03T14:46:41Z</time>
      </trkpt>
      <trkpt lat="43.94262" lon="5.1456">
        <ele>1028.481</ele>
        <time>2020-09-03T14:46:42Z</time>
      </trkpt>
      <trkpt lat="43.94256" lon="5.14552">
        <ele>1027.967</ele>
        <time>2020-09-03T14:46:43Z</time>
      </trkpt>
      <trkpt lat="43.94256" lon="5.14552">
        <ele>1028.412</ele>
        <time>2020-09-03T14:46:43Z</time>
      </trkpt>
      <trkpt lat="43.94243" lon="5.14537">
        <ele>1029.871</ele>
        <time>2020-09-03T14:46:45Z</time>
      </trkpt>
      <trkpt lat="43.94236" lon="5.14531">
        <ele>1031.413</ele>
        <time>2020-09-03T14:46:46Z</time>
      </trkpt>
      <trkpt lat="43.94228" lon="5.14524">
        <ele>1033.222</ele>
        <time>2020-09-03T14:46:47Z</time>
      </trkpt>
      <trkpt lat="43.9422" lon="5.14516">
        <ele>1034.514</ele>
        <time>2020-09-03T14:46:48Z</time>
      </trkpt>
      <trkpt lat="43.9422" lon="5.14516">
        <ele>1035.53</ele>
        <time>2020-09-03T14:46:48Z</time>
      </trkpt>
      <trkpt lat="43.94204" lon="5.14502">
        <ele>1036.219</ele>
        <time>2020-09-03T14:46:50Z</time>
      </trkpt>
      <trkpt lat="43.94194" lon="5.14496">
        <ele>1036.793</ele>
        <time>2020-09-03T14:46:51Z</time>
      </trkpt>
      <trkpt lat="43.94185" lon="5.1449">
        <ele>1037.376</ele>
        <time>2020-09-03T14:46:52Z</time>
      </trkpt>
      <trkpt lat="43.94177" lon="5.14483">
        <ele>1038.002</ele>
        <time>2020-09-03T14:46:53Z</time>
      </trkpt>
      <trkpt lat="43.94177" lon="5.14483">
        <ele>1038.582</ele>
        <time>2020-09-03T14:46:53Z</time>
      </trkpt>
      <trkpt lat="43.94162" lon="5.14466">
        <ele>1039.165</ele>
        <time>2020-09-03T14:46:55Z</time>
      </trkpt>
      <trkpt lat="43.94157" lon="5.14456">
        <ele>1039.893</ele>
        <time>2020-09-03T14:46:56Z</time>
      </trkpt>
      <trkpt lat="43.94153" lon="5.14445">
        <ele>1040.705</ele>
        <time>2020-09-03T14:46:57Z</time>
      </trkpt>
      <trkpt lat="43.94153" lon="5.14433">
        <ele>1041.642</ele>
        <time>2020-09-03T14:46:58Z</time>
      </trkpt>
      <trkpt lat="43.94154" lon="5.14422">
        <ele>1043.033</ele>
        <time>2020-09-03T14:46:59Z</time>
      </trkpt>
      <trkpt lat="43.94156" lon="5.14412">
        <ele>1045.194</ele>
        <time>2020-09-03T14:47:00Z</time>
      </trkpt>
      <trkpt lat="43.94157" lon="5.14403">
        <ele>1047.645</ele>
        <time>2020-09-03T14:47:01Z</time>
      </trkpt>
      <trkpt lat="43.94158" lon="5.14386">
        <ele>1049.405</ele>
        <time>2020-09-03T14:47:03Z</time>
      </trkpt>
      <trkpt lat="43.94158" lon="5.14386">
        <ele>1050.784</ele>
        <time>2020-09-03T14:47:03Z</time>
      </trkpt>
      <trkpt lat="43.94159" lon="5.14372">
        <ele>1051.347</ele>
        <time>2020-09-03T14:47:05Z</time>
      </trkpt>
      <trkpt lat="43.94162" lon="5.14368">
        <ele>1051.734</ele>
        <time>2020-09-03T14:47:06Z</time>
      </trkpt>
      <trkpt lat="43.94168" lon="5.14373">
        <ele>1051.475</ele>
        <time>2020-09-03T14:47:07Z</time>
      </trkpt>
      <trkpt lat="43.94173" lon="5.14385">
        <ele>1050.866</ele>
        <time>2020-09-03T14:47:08Z</time>
      </trkpt>
      <trkpt lat="43.94175" lon="5.14398">
        <ele>1050.286</ele>
        <time>2020-09-03T14:47:09Z</time>
      </trkpt>
      <trkpt lat="43.94174" lon="5.14412">
        <ele>1049.775</ele>
        <time>2020-09-03T14:47:10Z</time>
      </trkpt>
      <trkpt lat="43.9417" lon="5.14425">
        <ele>1049.644</ele>
        <time>2020-09-03T14:47:11Z</time>
      </trkpt>
      <trkpt lat="43.94164" lon="5.14436">
        <ele>1049.942</ele>
        <time>2020-09-03T14:47:12Z</time>
      </trkpt>
      <trkpt lat="43.94158" lon="5.14445">
        <ele>1050.794</ele>
        <time>2020-09-03T14:47:13Z</time>
      </trkpt>
      <trkpt lat="43.94149" lon="5.14452">
        <ele>1051.759</ele>
        <time>2020-09-03T14:47:14Z</time>
      </trkpt>
      <trkpt lat="43.9414" lon="5.14457">
        <ele>1053.049</ele>
        <time>2020-09-03T14:47:15Z</time>
      </trkpt>
      <trkpt lat="43.9413" lon="5.14461">
        <ele>1054.277</ele>
        <time>2020-09-03T14:47:16Z</time>
      </trkpt>
      <trkpt lat="43.94119" lon="5.14463">
        <ele>1055.679</ele>
        <time>2020-09-03T14:47:17Z</time>
      </trkpt>
      <trkpt lat="43.94107" lon="5.14462">
        <ele>1056.859</ele>
        <time>2020-09-03T14:47:18Z</time>
      </trkpt>
      <trkpt lat="43.94098" lon="5.14455">
        <ele>1057.609</ele>
        <time>2020-09-03T14:47:19Z</time>
      </trkpt>
      <trkpt lat="43.94093" lon="5.14443">
        <ele>1058.209</ele>
        <time>2020-09-03T14:47:20Z</time>
      </trkpt>
      <trkpt lat="43.94091" lon="5.1443">
        <ele>1058.829</ele>
        <time>2020-09-03T14:47:21Z</time>
      </trkpt>
      <trkpt lat="43.94092" lon="5.1442">
        <ele>1059.279</ele>
        <time>2020-09-03T14:47:22Z</time>
      </trkpt>
      <trkpt lat="43.94092" lon="5.1442">
        <ele>1059.775</ele>
        <time>2020-09-03T14:47:22Z</time>
      </trkpt>
      <trkpt lat="43.94106" lon="5.14422">
        <ele>1060.241</ele>
        <time>2020-09-03T14:47:25Z</time>
      </trkpt>
      <trkpt lat="43.94111" lon="5.14428">
        <ele>1060.372</ele>
        <time>2020-09-03T14:47:26Z</time>
      </trkpt>
      <trkpt lat="43.94114" lon="5.14437">
        <ele>1059.952</ele>
        <time>2020-09-03T14:47:27Z</time>
      </trkpt>
      <trkpt lat="43.94116" lon="5.14448">
        <ele>1059.259</ele>
        <time>2020-09-03T14:47:28Z</time>
      </trkpt>
      <trkpt lat="43.94115" lon="5.1446">
        <ele>1058.06</ele>
        <time>2020-09-03T14:47:29Z</time>
      </trkpt>
      <trkpt lat="43.94112" lon="5.14475">
        <ele>1056.949</ele>
        <time>2020-09-03T14:47:30Z</time>
      </trkpt>
      <trkpt lat="43.94107" lon="5.14488">
        <ele>1056.519</ele>
        <time>2020-09-03T14:47:31Z</time>
      </trkpt>
      <trkpt lat="43.94101" lon="5.14501">
        <ele>1057.162</ele>
        <time>2020-09-03T14:47:32Z</time>
      </trkpt>
      <trkpt lat="43.94095" lon="5.14513">
        <ele>1059.228</ele>
        <time>2020-09-03T14:47:33Z</time>
      </trkpt>
      <trkpt lat="43.94087" lon="5.14522">
        <ele>1061.768</ele>
        <time>2020-09-03T14:47:34Z</time>
      </trkpt>
      <trkpt lat="43.9408" lon="5.14531">
        <ele>1064.514</ele>
        <time>2020-09-03T14:47:35Z</time>
      </trkpt>
      <trkpt lat="43.94073" lon="5.14541">
        <ele>1066.671</ele>
        <time>2020-09-03T14:47:36Z</time>
      </trkpt>
      <trkpt lat="43.94067" lon="5.14554">
        <ele>1067.689</ele>
        <time>2020-09-03T14:47:37Z</time>
      </trkpt>
      <trkpt lat="43.94064" lon="5.14567">
        <ele>1067.929</ele>
        <time>2020-09-03T14:47:38Z</time>
      </trkpt>
      <trkpt lat="43.94066" lon="5.14579">
        <ele>1067.825</ele>
        <time>2020-09-03T14:47:39Z</time>
      </trkpt>
      <trkpt lat="43.94071" lon="5.14586">
        <ele>1067.603</ele>
        <time>2020-09-03T14:47:40Z</time>
      </trkpt>
      <trkpt lat="43.94077" lon="5.14587">
        <ele>1067.244</ele>
        <time>2020-09-03T14:47:41Z</time>
      </trkpt>
      <trkpt lat="43.94082" lon="5.14582">
        <ele>1066.834</ele>
        <time>2020-09-03T14:47:42Z</time>
      </trkpt>
      <trkpt lat="43.94085" lon="5.14573">
        <ele>1066.307</ele>
        <time>2020-09-03T14:47:43Z</time>
      </trkpt>
      <trkpt lat="43.94085" lon="5.14562">
        <ele>1066.002</ele>
        <time>2020-09-03T14:47:44Z</time>
      </trkpt>
      <trkpt lat="43.94083" lon="5.1455">
        <ele>1065.715</ele>
        <time>2020-09-03T14:47:45Z</time>
      </trkpt>
      <trkpt lat="43.94078" lon="5.14539">
        <ele>1065.646</ele>
        <time>2020-09-03T14:47:46Z</time>
      </trkpt>
      <trkpt lat="43.94072" lon="5.14528">
        <ele>1066.087</ele>
        <time>2020-09-03T14:47:47Z</time>
      </trkpt>
      <trkpt lat="43.94066" lon="5.14518">
        <ele>1067.383</ele>
        <time>2020-09-03T14:47:48Z</time>
      </trkpt>
      <trkpt lat="43.94058" lon="5.14509">
        <ele>1069.578</ele>
        <time>2020-09-03T14:47:49Z</time>
      </trkpt>
      <trkpt lat="43.94045" lon="5.14498">
        <ele>1072.451</ele>
        <time>2020-09-03T14:47:51Z</time>
      </trkpt>
      <trkpt lat="43.94039" lon="5.14494">
        <ele>1074.638</ele>
        <time>2020-09-03T14:47:52Z</time>
      </trkpt>
      <trkpt lat="43.94033" lon="5.1449">
        <ele>1075.921</ele>
        <time>2020-09-03T14:47:53Z</time>
      </trkpt>
      <trkpt lat="43.94027" lon="5.14484">
        <ele>1076.121</ele>
        <time>2020-09-03T14:47:54Z</time>
      </trkpt>
      <trkpt lat="43.94022" lon="5.14477">
        <ele>1075.899</ele>
        <time>2020-09-03T14:47:55Z</time>
      </trkpt>
      <trkpt lat="43.94021" lon="5.14469">
        <ele>1075.512</ele>
        <time>2020-09-03T14:47:56Z</time>
      </trkpt>
      <trkpt lat="43.94024" lon="5.14464">
        <ele>1075.112</ele>
        <time>2020-09-03T14:47:57Z</time>
      </trkpt>
      <trkpt lat="43.9403" lon="5.14463">
        <ele>1075.067</ele>
        <time>2020-09-03T14:47:58Z</time>
      </trkpt>
      <trkpt lat="43.94037" lon="5.14468">
        <ele>1075.136</ele>
        <time>2020-09-03T14:47:59Z</time>
      </trkpt>
      <trkpt lat="43.94037" lon="5.14468">
        <ele>1075.304</ele>
        <time>2020-09-03T14:47:59Z</time>
      </trkpt>
      <trkpt lat="43.94037" lon="5.14468">
        <ele>1075.79</ele>
        <time>2020-09-03T14:47:59Z</time>
      </trkpt>
      <trkpt lat="43.94037" lon="5.14468">
        <ele>1076.243</ele>
        <time>2020-09-03T14:47:59Z</time>
      </trkpt>
      <trkpt lat="43.94037" lon="5.14468">
        <ele>1076.566</ele>
        <time>2020-09-03T14:47:59Z</time>
      </trkpt>
      <trkpt lat="43.94029" lon="5.14527">
        <ele>1076.814</ele>
        <time>2020-09-03T14:48:04Z</time>
      </trkpt>
      <trkpt lat="43.94029" lon="5.14527">
        <ele>1077.221</ele>
        <time>2020-09-03T14:48:04Z</time>
      </trkpt>
      <trkpt lat="43.94029" lon="5.14527">
        <ele>1077.755</ele>
        <time>2020-09-03T14:48:04Z</time>
      </trkpt>
      <trkpt lat="43.94029" lon="5.14527">
        <ele>1078.402</ele>
        <time>2020-09-03T14:48:04Z</time>
      </trkpt>
      <trkpt lat="43.94029" lon="5.14527">
        <ele>1079.063</ele>
        <time>2020-09-03T14:48:04Z</time>
      </trkpt>
      <trkpt lat="43.93979" lon="5.14563">
        <ele>1079.642</ele>
        <time>2020-09-03T14:48:09Z</time>
      </trkpt>
      <trkpt lat="43.93969" lon="5.14569">
        <ele>1080.046</ele>
        <time>2020-09-03T14:48:10Z</time>
      </trkpt>
      <trkpt lat="43.93949" lon="5.14567">
        <ele>1080.199</ele>
        <time>2020-09-03T14:48:12Z</time>
      </trkpt>
      <trkpt lat="43.93942" lon="5.14558">
        <ele>1080.095</ele>
        <time>2020-09-03T14:48:13Z</time>
      </trkpt>
      <trkpt lat="43.93937" lon="5.14548">
        <ele>1080.119</ele>
        <time>2020-09-03T14:48:14Z</time>
      </trkpt>
      <trkpt lat="43.93934" lon="5.14539">
        <ele>1080.515</ele>
        <time>2020-09-03T14:48:15Z</time>
      </trkpt>
      <trkpt lat="43.93932" lon="5.14529">
        <ele>1081.318</ele>
        <time>2020-09-03T14:48:16Z</time>
      </trkpt>
      <trkpt lat="43.93933" lon="5.14519">
        <ele>1082.383</ele>
        <time>2020-09-03T14:48:17Z</time>
      </trkpt>
      <trkpt lat="43.93934" lon="5.14509">
        <ele>1083.531</ele>
        <time>2020-09-03T14:48:18Z</time>
      </trkpt>
      <trkpt lat="43.93936" lon="5.145">
        <ele>1085.112</ele>
        <time>2020-09-03T14:48:19Z</time>
      </trkpt>
      <trkpt lat="43.93936" lon="5.14492">
        <ele>1086.879</ele>
        <time>2020-09-03T14:48:20Z</time>
      </trkpt>
      <trkpt lat="43.93936" lon="5.14484">
        <ele>1088.434</ele>
        <time>2020-09-03T14:48:21Z</time>
      </trkpt>
      <trkpt lat="43.93936" lon="5.14476">
        <ele>1089.685</ele>
        <time>2020-09-03T14:48:22Z</time>
      </trkpt>
      <trkpt lat="43.93937" lon="5.14467">
        <ele>1090.42</ele>
        <time>2020-09-03T14:48:23Z</time>
      </trkpt>
      <trkpt lat="43.9394" lon="5.1446">
        <ele>1090.698</ele>
        <time>2020-09-03T14:48:24Z</time>
      </trkpt>
      <trkpt lat="43.9394" lon="5.1446">
        <ele>1090.825</ele>
        <time>2020-09-03T14:48:24Z</time>
      </trkpt>
      <trkpt lat="43.9394" lon="5.1446">
        <ele>1090.957</ele>
        <time>2020-09-03T14:48:24Z</time>
      </trkpt>
      <trkpt lat="43.9394" lon="5.1446">
        <ele>1091.017</ele>
        <time>2020-09-03T14:48:24Z</time>
      </trkpt>
      <trkpt lat="43.9394" lon="5.1446">
        <ele>1091.106</ele>
        <time>2020-09-03T14:48:24Z</time>
      </trkpt>
      <trkpt lat="43.93962" lon="5.14496">
        <ele>1090.975</ele>
        <time>2020-09-03T14:48:29Z</time>
      </trkpt>
      <trkpt lat="43.93958" lon="5.14509">
        <ele>1090.581</ele>
        <time>2020-09-03T14:48:30Z</time>
      </trkpt>
      <trkpt lat="43.93952" lon="5.14522">
        <ele>1089.856</ele>
        <time>2020-09-03T14:48:31Z</time>
      </trkpt>
      <trkpt lat="43.93944" lon="5.14534">
        <ele>1089.199</ele>
        <time>2020-09-03T14:48:32Z</time>
      </trkpt>
      <trkpt lat="43.93935" lon="5.14543">
        <ele>1088.804</ele>
        <time>2020-09-03T14:48:33Z</time>
      </trkpt>
      <trkpt lat="43.93925" lon="5.1455">
        <ele>1088.768</ele>
        <time>2020-09-03T14:48:34Z</time>
      </trkpt>
      <trkpt lat="43.93914" lon="5.14554">
        <ele>1089.104</ele>
        <time>2020-09-03T14:48:35Z</time>
      </trkpt>
      <trkpt lat="43.93904" lon="5.14557">
        <ele>1089.806</ele>
        <time>2020-09-03T14:48:36Z</time>
      </trkpt>
      <trkpt lat="43.93883" lon="5.14561">
        <ele>1090.876</ele>
        <time>2020-09-03T14:48:38Z</time>
      </trkpt>
      <trkpt lat="43.93883" lon="5.14561">
        <ele>1092.462</ele>
        <time>2020-09-03T14:48:38Z</time>
      </trkpt>
      <trkpt lat="43.93864" lon="5.14567">
        <ele>1093.956</ele>
        <time>2020-09-03T14:48:40Z</time>
      </trkpt>
      <trkpt lat="43.93856" lon="5.14571">
        <ele>1095.564</ele>
        <time>2020-09-03T14:48:41Z</time>
      </trkpt>
      <trkpt lat="43.93847" lon="5.14573">
        <ele>1096.421</ele>
        <time>2020-09-03T14:48:42Z</time>
      </trkpt>
      <trkpt lat="43.93838" lon="5.14573">
        <ele>1096.537</ele>
        <time>2020-09-03T14:48:43Z</time>
      </trkpt>
      <trkpt lat="43.9383" lon="5.1457">
        <ele>1096.11</ele>
        <time>2020-09-03T14:48:44Z</time>
      </trkpt>
      <trkpt lat="43.93823" lon="5.14565">
        <ele>1095.528</ele>
        <time>2020-09-03T14:48:45Z</time>
      </trkpt>
      <trkpt lat="43.93823" lon="5.14565">
        <ele>1095.238</ele>
        <time>2020-09-03T14:48:45Z</time>
      </trkpt>
      <trkpt lat="43.93807" lon="5.1454">
        <ele>1095.396</ele>
        <time>2020-09-03T14:48:48Z</time>
      </trkpt>
      <trkpt lat="43.93807" lon="5.1454">
        <ele>1095.948</ele>
        <time>2020-09-03T14:48:48Z</time>
      </trkpt>
      <trkpt lat="43.93805" lon="5.14523">
        <ele>1096.495</ele>
        <time>2020-09-03T14:48:50Z</time>
      </trkpt>
      <trkpt lat="43.93805" lon="5.14514">
        <ele>1097.008</ele>
        <time>2020-09-03T14:48:51Z</time>
      </trkpt>
      <trkpt lat="43.93806" lon="5.14505">
        <ele>1097.438</ele>
        <time>2020-09-03T14:48:52Z</time>
      </trkpt>
      <trkpt lat="43.93808" lon="5.14498">
        <ele>1097.879</ele>
        <time>2020-09-03T14:48:53Z</time>
      </trkpt>
      <trkpt lat="43.93812" lon="5.1449">
        <ele>1098.201</ele>
        <time>2020-09-03T14:48:54Z</time>
      </trkpt>
      <trkpt lat="43.93817" lon="5.14483">
        <ele>1098.313</ele>
        <time>2020-09-03T14:48:55Z</time>
      </trkpt>
      <trkpt lat="43.93822" lon="5.14477">
        <ele>1098.417</ele>
        <time>2020-09-03T14:48:56Z</time>
      </trkpt>
      <trkpt lat="43.93828" lon="5.14472">
        <ele>1098.857</ele>
        <time>2020-09-03T14:48:57Z</time>
      </trkpt>
      <trkpt lat="43.93834" lon="5.14467">
        <ele>1099.316</ele>
        <time>2020-09-03T14:48:58Z</time>
      </trkpt>
      <trkpt lat="43.93839" lon="5.14462">
        <ele>1099.715</ele>
        <time>2020-09-03T14:48:59Z</time>
      </trkpt>
      <trkpt lat="43.93844" lon="5.14458">
        <ele>1099.964</ele>
        <time>2020-09-03T14:49:00Z</time>
      </trkpt>
      <trkpt lat="43.9385" lon="5.14453">
        <ele>1100.108</ele>
        <time>2020-09-03T14:49:01Z</time>
      </trkpt>
      <trkpt lat="43.93855" lon="5.14449">
        <ele>1100.136</ele>
        <time>2020-09-03T14:49:02Z</time>
      </trkpt>
      <trkpt lat="43.93861" lon="5.14444">
        <ele>1100.188</ele>
        <time>2020-09-03T14:49:03Z</time>
      </trkpt>
      <trkpt lat="43.93867" lon="5.14439">
        <ele>1100.392</ele>
        <time>2020-09-03T14:49:04Z</time>
      </trkpt>
      <trkpt lat="43.93874" lon="5.14433">
        <ele>1100.865</ele>
        <time>2020-09-03T14:49:05Z</time>
      </trkpt>
      <trkpt lat="43.9388" lon="5.14428">
        <ele>1101.266</ele>
        <time>2020-09-03T14:49:06Z</time>
      </trkpt>
      <trkpt lat="43.93887" lon="5.14424">
        <ele>1101.575</ele>
        <time>2020-09-03T14:49:07Z</time>
      </trkpt>
      <trkpt lat="43.93887" lon="5.14424">
        <ele>1101.578</ele>
        <time>2020-09-03T14:49:07Z</time>
      </trkpt>
      <trkpt lat="43.93909" lon="5.14415">
        <ele>1101.444</ele>
        <time>2020-09-03T14:49:10Z</time>
      </trkpt>
      <trkpt lat="43.93917" lon="5.14413">
        <ele>1101.368</ele>
        <time>2020-09-03T14:49:11Z</time>
      </trkpt>
      <trkpt lat="43.93925" lon="5.14412">
        <ele>1101.51</ele>
        <time>2020-09-03T14:49:12Z</time>
      </trkpt>
      <trkpt lat="43.93932" lon="5.14411">
        <ele>1102.235</ele>
        <time>2020-09-03T14:49:13Z</time>
      </trkpt>
      <trkpt lat="43.93938" lon="5.1441">
        <ele>1102.921</ele>
        <time>2020-09-03T14:49:14Z</time>
      </trkpt>
      <trkpt lat="43.93943" lon="5.1441">
        <ele>1103.83</ele>
        <time>2020-09-03T14:49:15Z</time>
      </trkpt>
      <trkpt lat="43.93947" lon="5.14409">
        <ele>1104.011</ele>
        <time>2020-09-03T14:49:16Z</time>
      </trkpt>
      <trkpt lat="43.93952" lon="5.14408">
        <ele>1103.581</ele>
        <time>2020-09-03T14:49:17Z</time>
      </trkpt>
      <trkpt lat="43.93957" lon="5.14408">
        <ele>1102.615</ele>
        <time>2020-09-03T14:49:18Z</time>
      </trkpt>
      <trkpt lat="43.93963" lon="5.14407">
        <ele>1101.249</ele>
        <time>2020-09-03T14:49:19Z</time>
      </trkpt>
      <trkpt lat="43.93969" lon="5.14404">
        <ele>1099.712</ele>
        <time>2020-09-03T14:49:20Z</time>
      </trkpt>
      <trkpt lat="43.93974" lon="5.14398">
        <ele>1098.252</ele>
        <time>2020-09-03T14:49:21Z</time>
      </trkpt>
      <trkpt lat="43.93977" lon="5.1439">
        <ele>1097.185</ele>
        <time>2020-09-03T14:49:22Z</time>
      </trkpt>
      <trkpt lat="43.93977" lon="5.1439">
        <ele>1096.818</ele>
        <time>2020-09-03T14:49:22Z</time>
      </trkpt>
      <trkpt lat="43.93979" lon="5.14374">
        <ele>1096.552</ele>
        <time>2020-09-03T14:49:24Z</time>
      </trkpt>
      <trkpt lat="43.93979" lon="5.14374">
        <ele>1096.381</ele>
        <time>2020-09-03T14:49:24Z</time>
      </trkpt>
      <trkpt lat="43.9398" lon="5.14362">
        <ele>1096.04</ele>
        <time>2020-09-03T14:49:26Z</time>
      </trkpt>
      <trkpt lat="43.93979" lon="5.14355">
        <ele>1095.414</ele>
        <time>2020-09-03T14:49:27Z</time>
      </trkpt>
      <trkpt lat="43.93977" lon="5.14348">
        <ele>1094.463</ele>
        <time>2020-09-03T14:49:28Z</time>
      </trkpt>
      <trkpt lat="43.93973" lon="5.14341">
        <ele>1093.477</ele>
        <time>2020-09-03T14:49:29Z</time>
      </trkpt>
      <trkpt lat="43.93968" lon="5.14334">
        <ele>1092.325</ele>
        <time>2020-09-03T14:49:30Z</time>
      </trkpt>
      <trkpt lat="43.93968" lon="5.14334">
        <ele>1091.296</ele>
        <time>2020-09-03T14:49:30Z</time>
      </trkpt>
      <trkpt lat="43.93948" lon="5.14312">
        <ele>1090.245</ele>
        <time>2020-09-03T14:49:33Z</time>
      </trkpt>
      <trkpt lat="43.93948" lon="5.14312">
        <ele>1088.939</ele>
        <time>2020-09-03T14:49:33Z</time>
      </trkpt>
      <trkpt lat="43.93934" lon="5.14299">
        <ele>1087.976</ele>
        <time>2020-09-03T14:49:35Z</time>
      </trkpt>
      <trkpt lat="43.93926" lon="5.14293">
        <ele>1086.575</ele>
        <time>2020-09-03T14:49:36Z</time>
      </trkpt>
      <trkpt lat="43.93918" lon="5.14288">
        <ele>1084.924</ele>
        <time>2020-09-03T14:49:37Z</time>
      </trkpt>
      <trkpt lat="43.93909" lon="5.14282">
        <ele>1083.157</ele>
        <time>2020-09-03T14:49:38Z</time>
      </trkpt>
      <trkpt lat="43.939" lon="5.14276">
        <ele>1081.863</ele>
        <time>2020-09-03T14:49:39Z</time>
      </trkpt>
      <trkpt lat="43.93883" lon="5.14264">
        <ele>1081.479</ele>
        <time>2020-09-03T14:49:41Z</time>
      </trkpt>
      <trkpt lat="43.93877" lon="5.14259">
        <ele>1081.623</ele>
        <time>2020-09-03T14:49:42Z</time>
      </trkpt>
      <trkpt lat="43.9387" lon="5.14256">
        <ele>1081.481</ele>
        <time>2020-09-03T14:49:43Z</time>
      </trkpt>
      <trkpt lat="43.9387" lon="5.14256">
        <ele>1080.491</ele>
        <time>2020-09-03T14:49:43Z</time>
      </trkpt>
      <trkpt lat="43.93854" lon="5.14247">
        <ele>1078.727</ele>
        <time>2020-09-03T14:49:45Z</time>
      </trkpt>
      <trkpt lat="43.93845" lon="5.14242">
        <ele>1076.08</ele>
        <time>2020-09-03T14:49:46Z</time>
      </trkpt>
      <trkpt lat="43.93834" lon="5.14238">
        <ele>1073.748</ele>
        <time>2020-09-03T14:49:47Z</time>
      </trkpt>
      <trkpt lat="43.93825" lon="5.14234">
        <ele>1071.973</ele>
        <time>2020-09-03T14:49:48Z</time>
      </trkpt>
      <trkpt lat="43.93825" lon="5.14234">
        <ele>1070.768</ele>
        <time>2020-09-03T14:49:48Z</time>
      </trkpt>
      <trkpt lat="43.93807" lon="5.14228">
        <ele>1069.851</ele>
        <time>2020-09-03T14:49:50Z</time>
      </trkpt>
      <trkpt lat="43.93798" lon="5.14224">
        <ele>1068.813</ele>
        <time>2020-09-03T14:49:51Z</time>
      </trkpt>
      <trkpt lat="43.93789" lon="5.14219">
        <ele>1067.932</ele>
        <time>2020-09-03T14:49:52Z</time>
      </trkpt>
      <trkpt lat="43.9378" lon="5.14214">
        <ele>1066.644</ele>
        <time>2020-09-03T14:49:53Z</time>
      </trkpt>
      <trkpt lat="43.93771" lon="5.14209">
        <ele>1064.962</ele>
        <time>2020-09-03T14:49:54Z</time>
      </trkpt>
      <trkpt lat="43.93762" lon="5.14205">
        <ele>1063.332</ele>
        <time>2020-09-03T14:49:55Z</time>
      </trkpt>
      <trkpt lat="43.93753" lon="5.14201">
        <ele>1061.432</ele>
        <time>2020-09-03T14:49:56Z</time>
      </trkpt>
      <trkpt lat="43.93744" lon="5.14197">
        <ele>1059.786</ele>
        <time>2020-09-03T14:49:57Z</time>
      </trkpt>
      <trkpt lat="43.93735" lon="5.14193">
        <ele>1057.892</ele>
        <time>2020-09-03T14:49:58Z</time>
      </trkpt>
      <trkpt lat="43.93726" lon="5.14188">
        <ele>1055.805</ele>
        <time>2020-09-03T14:49:59Z</time>
      </trkpt>
      <trkpt lat="43.93717" lon="5.14185">
        <ele>1053.104</ele>
        <time>2020-09-03T14:50:00Z</time>
      </trkpt>
      <trkpt lat="43.93717" lon="5.14185">
        <ele>1050.739</ele>
        <time>2020-09-03T14:50:00Z</time>
      </trkpt>
      <trkpt lat="43.93699" lon="5.14176">
        <ele>1048.582</ele>
        <time>2020-09-03T14:50:02Z</time>
      </trkpt>
      <trkpt lat="43.93699" lon="5.14176">
        <ele>1046.557</ele>
        <time>2020-09-03T14:50:02Z</time>
      </trkpt>
      <trkpt lat="43.93679" lon="5.14165">
        <ele>1045.241</ele>
        <time>2020-09-03T14:50:04Z</time>
      </trkpt>
      <trkpt lat="43.93662" lon="5.14157">
        <ele>1043.769</ele>
        <time>2020-09-03T14:50:06Z</time>
      </trkpt>
      <trkpt lat="43.93654" lon="5.14153">
        <ele>1042.098</ele>
        <time>2020-09-03T14:50:07Z</time>
      </trkpt>
      <trkpt lat="43.93646" lon="5.14148">
        <ele>1039.61</ele>
        <time>2020-09-03T14:50:08Z</time>
      </trkpt>
      <trkpt lat="43.93646" lon="5.14148">
        <ele>1036.788</ele>
        <time>2020-09-03T14:50:08Z</time>
      </trkpt>
      <trkpt lat="43.93627" lon="5.14136">
        <ele>1033.249</ele>
        <time>2020-09-03T14:50:10Z</time>
      </trkpt>
      <trkpt lat="43.93618" lon="5.14131">
        <ele>1030.342</ele>
        <time>2020-09-03T14:50:11Z</time>
      </trkpt>
      <trkpt lat="43.93608" lon="5.14128">
        <ele>1027.846</ele>
        <time>2020-09-03T14:50:12Z</time>
      </trkpt>
      <trkpt lat="43.93599" lon="5.14126">
        <ele>1025.795</ele>
        <time>2020-09-03T14:50:13Z</time>
      </trkpt>
      <trkpt lat="43.93599" lon="5.14126">
        <ele>1023.96</ele>
        <time>2020-09-03T14:50:13Z</time>
      </trkpt>
      <trkpt lat="43.93579" lon="5.14121">
        <ele>1022.25</ele>
        <time>2020-09-03T14:50:15Z</time>
      </trkpt>
      <trkpt lat="43.93569" lon="5.14119">
        <ele>1020.193</ele>
        <time>2020-09-03T14:50:16Z</time>
      </trkpt>
      <trkpt lat="43.93558" lon="5.14117">
        <ele>1018.592</ele>
        <time>2020-09-03T14:50:17Z</time>
      </trkpt>
      <trkpt lat="43.93548" lon="5.14116">
        <ele>1017.223</ele>
        <time>2020-09-03T14:50:18Z</time>
      </trkpt>
      <trkpt lat="43.93548" lon="5.14116">
        <ele>1016.722</ele>
        <time>2020-09-03T14:50:18Z</time>
      </trkpt>
      <trkpt lat="43.9353" lon="5.14112">
        <ele>1015.131</ele>
        <time>2020-09-03T14:50:20Z</time>
      </trkpt>
      <trkpt lat="43.93521" lon="5.14109">
        <ele>1013.131</ele>
        <time>2020-09-03T14:50:21Z</time>
      </trkpt>
      <trkpt lat="43.93512" lon="5.14104">
        <ele>1011.105</ele>
        <time>2020-09-03T14:50:22Z</time>
      </trkpt>
      <trkpt lat="43.93501" lon="5.141">
        <ele>1008.888</ele>
        <time>2020-09-03T14:50:23Z</time>
      </trkpt>
      <trkpt lat="43.93491" lon="5.14096">
        <ele>1006.311</ele>
        <time>2020-09-03T14:50:24Z</time>
      </trkpt>
      <trkpt lat="43.9348" lon="5.1409">
        <ele>1004.87</ele>
        <time>2020-09-03T14:50:25Z</time>
      </trkpt>
      <trkpt lat="43.93473" lon="5.14084">
        <ele>1003.785</ele>
        <time>2020-09-03T14:50:26Z</time>
      </trkpt>
      <trkpt lat="43.93465" lon="5.14078">
        <ele>1002.863</ele>
        <time>2020-09-03T14:50:27Z</time>
      </trkpt>
      <trkpt lat="43.93456" lon="5.14073">
        <ele>1001.794</ele>
        <time>2020-09-03T14:50:28Z</time>
      </trkpt>
      <trkpt lat="43.93436" lon="5.14069">
        <ele>1000.902</ele>
        <time>2020-09-03T14:50:30Z</time>
      </trkpt>
      <trkpt lat="43.93426" lon="5.14067">
        <ele>999.889</ele>
        <time>2020-09-03T14:50:31Z</time>
      </trkpt>
      <trkpt lat="43.93416" lon="5.14065">
        <ele>999.003</ele>
        <time>2020-09-03T14:50:32Z</time>
      </trkpt>
      <trkpt lat="43.93406" lon="5.14063">
        <ele>998.537</ele>
        <time>2020-09-03T14:50:33Z</time>
      </trkpt>
      <trkpt lat="43.93395" lon="5.14064">
        <ele>998.174</ele>
        <time>2020-09-03T14:50:34Z</time>
      </trkpt>
      <trkpt lat="43.93385" lon="5.14064">
        <ele>997.828</ele>
        <time>2020-09-03T14:50:35Z</time>
      </trkpt>
      <trkpt lat="43.93374" lon="5.14063">
        <ele>997.453</ele>
        <time>2020-09-03T14:50:36Z</time>
      </trkpt>
      <trkpt lat="43.93363" lon="5.1406">
        <ele>997.245</ele>
        <time>2020-09-03T14:50:37Z</time>
      </trkpt>
      <trkpt lat="43.93353" lon="5.14055">
        <ele>997.167</ele>
        <time>2020-09-03T14:50:38Z</time>
      </trkpt>
      <trkpt lat="43.93343" lon="5.14051">
        <ele>997.134</ele>
        <time>2020-09-03T14:50:39Z</time>
      </trkpt>
      <trkpt lat="43.93332" lon="5.14048">
        <ele>997.079</ele>
        <time>2020-09-03T14:50:40Z</time>
      </trkpt>
      <trkpt lat="43.93321" lon="5.14047">
        <ele>996.986</ele>
        <time>2020-09-03T14:50:41Z</time>
      </trkpt>
      <trkpt lat="43.9331" lon="5.14046">
        <ele>997.006</ele>
        <time>2020-09-03T14:50:42Z</time>
      </trkpt>
      <trkpt lat="43.933" lon="5.14045">
        <ele>997.337</ele>
        <time>2020-09-03T14:50:43Z</time>
      </trkpt>
      <trkpt lat="43.93289" lon="5.14044">
        <ele>997.778</ele>
        <time>2020-09-03T14:50:44Z</time>
      </trkpt>
      <trkpt lat="43.93279" lon="5.14044">
        <ele>998.452</ele>
        <time>2020-09-03T14:50:45Z</time>
      </trkpt>
      <trkpt lat="43.93269" lon="5.14043">
        <ele>998.933</ele>
        <time>2020-09-03T14:50:46Z</time>
      </trkpt>
      <trkpt lat="43.93269" lon="5.14043">
        <ele>999.104</ele>
        <time>2020-09-03T14:50:46Z</time>
      </trkpt>
      <trkpt lat="43.93247" lon="5.14043">
        <ele>999.082</ele>
        <time>2020-09-03T14:50:48Z</time>
      </trkpt>
      <trkpt lat="43.93235" lon="5.14043">
        <ele>998.864</ele>
        <time>2020-09-03T14:50:49Z</time>
      </trkpt>
      <trkpt lat="43.93235" lon="5.14043">
        <ele>998.632</ele>
        <time>2020-09-03T14:50:49Z</time>
      </trkpt>
      <trkpt lat="43.93235" lon="5.14043">
        <ele>998.597</ele>
        <time>2020-09-03T14:50:49Z</time>
      </trkpt>
      <trkpt lat="43.93186" lon="5.14041">
        <ele>998.823</ele>
        <time>2020-09-03T14:50:53Z</time>
      </trkpt>
      <trkpt lat="43.93174" lon="5.1404">
        <ele>998.987</ele>
        <time>2020-09-03T14:50:54Z</time>
      </trkpt>
      <trkpt lat="43.93162" lon="5.14039">
        <ele>998.604</ele>
        <time>2020-09-03T14:50:55Z</time>
      </trkpt>
      <trkpt lat="43.93149" lon="5.14039">
        <ele>997.718</ele>
        <time>2020-09-03T14:50:56Z</time>
      </trkpt>
      <trkpt lat="43.93136" lon="5.14038">
        <ele>996.892</ele>
        <time>2020-09-03T14:50:57Z</time>
      </trkpt>
      <trkpt lat="43.93123" lon="5.14035">
        <ele>996.567</ele>
        <time>2020-09-03T14:50:58Z</time>
      </trkpt>
      <trkpt lat="43.93111" lon="5.14031">
        <ele>996.661</ele>
        <time>2020-09-03T14:50:59Z</time>
      </trkpt>
      <trkpt lat="43.93101" lon="5.14026">
        <ele>997.013</ele>
        <time>2020-09-03T14:51:00Z</time>
      </trkpt>
      <trkpt lat="43.93092" lon="5.14023">
        <ele>997.56</ele>
        <time>2020-09-03T14:51:01Z</time>
      </trkpt>
      <trkpt lat="43.93083" lon="5.14019">
        <ele>997.782</ele>
        <time>2020-09-03T14:51:02Z</time>
      </trkpt>
      <trkpt lat="43.93073" lon="5.14015">
        <ele>997.679</ele>
        <time>2020-09-03T14:51:03Z</time>
      </trkpt>
      <trkpt lat="43.93063" lon="5.14009">
        <ele>997.738</ele>
        <time>2020-09-03T14:51:04Z</time>
      </trkpt>
      <trkpt lat="43.93063" lon="5.14009">
        <ele>998.322</ele>
        <time>2020-09-03T14:51:04Z</time>
      </trkpt>
      <trkpt lat="43.93063" lon="5.14009">
        <ele>999.34</ele>
        <time>2020-09-03T14:51:04Z</time>
      </trkpt>
      <trkpt lat="43.93063" lon="5.14009">
        <ele>1000.687</ele>
        <time>2020-09-03T14:51:04Z</time>
      </trkpt>
      <trkpt lat="43.93063" lon="5.14009">
        <ele>1002.026</ele>
        <time>2020-09-03T14:51:04Z</time>
      </trkpt>
      <trkpt lat="43.93016" lon="5.13979">
        <ele>1003.406</ele>
        <time>2020-09-03T14:51:09Z</time>
      </trkpt>
      <trkpt lat="43.93001" lon="5.13964">
        <ele>1004.306</ele>
        <time>2020-09-03T14:51:11Z</time>
      </trkpt>
      <trkpt lat="43.92999" lon="5.13956">
        <ele>1004.877</ele>
        <time>2020-09-03T14:51:12Z</time>
      </trkpt>
      <trkpt lat="43.92999" lon="5.13949">
        <ele>1004.914</ele>
        <time>2020-09-03T14:51:13Z</time>
      </trkpt>
      <trkpt lat="43.93001" lon="5.13943">
        <ele>1004.463</ele>
        <time>2020-09-03T14:51:14Z</time>
      </trkpt>
      <trkpt lat="43.93005" lon="5.1394">
        <ele>1003.389</ele>
        <time>2020-09-03T14:51:15Z</time>
      </trkpt>
      <trkpt lat="43.93005" lon="5.1394">
        <ele>1002.361</ele>
        <time>2020-09-03T14:51:15Z</time>
      </trkpt>
      <trkpt lat="43.9302" lon="5.13946">
        <ele>1000.692</ele>
        <time>2020-09-03T14:51:17Z</time>
      </trkpt>
      <trkpt lat="43.9302" lon="5.13946">
        <ele>999.298</ele>
        <time>2020-09-03T14:51:17Z</time>
      </trkpt>
      <trkpt lat="43.9302" lon="5.13946">
        <ele>998.518</ele>
        <time>2020-09-03T14:51:17Z</time>
      </trkpt>
      <trkpt lat="43.93027" lon="5.13993">
        <ele>997.954</ele>
        <time>2020-09-03T14:51:21Z</time>
      </trkpt>
      <trkpt lat="43.93023" lon="5.14007">
        <ele>997.798</ele>
        <time>2020-09-03T14:51:22Z</time>
      </trkpt>
      <trkpt lat="43.93017" lon="5.1402">
        <ele>997.835</ele>
        <time>2020-09-03T14:51:23Z</time>
      </trkpt>
      <trkpt lat="43.93017" lon="5.1402">
        <ele>997.993</ele>
        <time>2020-09-03T14:51:23Z</time>
      </trkpt>
      <trkpt lat="43.93002" lon="5.14043">
        <ele>998.121</ele>
        <time>2020-09-03T14:51:25Z</time>
      </trkpt>
      <trkpt lat="43.92993" lon="5.14052">
        <ele>998.147</ele>
        <time>2020-09-03T14:51:26Z</time>
      </trkpt>
      <trkpt lat="43.92982" lon="5.14059">
        <ele>998.088</ele>
        <time>2020-09-03T14:51:27Z</time>
      </trkpt>
      <trkpt lat="43.92971" lon="5.14065">
        <ele>998.045</ele>
        <time>2020-09-03T14:51:28Z</time>
      </trkpt>
      <trkpt lat="43.9296" lon="5.14071">
        <ele>998.151</ele>
        <time>2020-09-03T14:51:29Z</time>
      </trkpt>
      <trkpt lat="43.92948" lon="5.14077">
        <ele>998.359</ele>
        <time>2020-09-03T14:51:30Z</time>
      </trkpt>
      <trkpt lat="43.92937" lon="5.14082">
        <ele>998.618</ele>
        <time>2020-09-03T14:51:31Z</time>
      </trkpt>
      <trkpt lat="43.92926" lon="5.14085">
        <ele>998.883</ele>
        <time>2020-09-03T14:51:32Z</time>
      </trkpt>
      <trkpt lat="43.92914" lon="5.14087">
        <ele>999.021</ele>
        <time>2020-09-03T14:51:33Z</time>
      </trkpt>
      <trkpt lat="43.92902" lon="5.14087">
        <ele>999.014</ele>
        <time>2020-09-03T14:51:34Z</time>
      </trkpt>
      <trkpt lat="43.9289" lon="5.14087">
        <ele>998.861</ele>
        <time>2020-09-03T14:51:35Z</time>
      </trkpt>
      <trkpt lat="43.92879" lon="5.14086">
        <ele>998.525</ele>
        <time>2020-09-03T14:51:36Z</time>
      </trkpt>
      <trkpt lat="43.92867" lon="5.14085">
        <ele>998.073</ele>
        <time>2020-09-03T14:51:37Z</time>
      </trkpt>
      <trkpt lat="43.92856" lon="5.14082">
        <ele>997.619</ele>
        <time>2020-09-03T14:51:38Z</time>
      </trkpt>
      <trkpt lat="43.92844" lon="5.14079">
        <ele>997.306</ele>
        <time>2020-09-03T14:51:39Z</time>
      </trkpt>
      <trkpt lat="43.92833" lon="5.14076">
        <ele>997.033</ele>
        <time>2020-09-03T14:51:40Z</time>
      </trkpt>
      <trkpt lat="43.9282" lon="5.14075">
        <ele>996.744</ele>
        <time>2020-09-03T14:51:41Z</time>
      </trkpt>
      <trkpt lat="43.92808" lon="5.14075">
        <ele>996.405</ele>
        <time>2020-09-03T14:51:42Z</time>
      </trkpt>
      <trkpt lat="43.92808" lon="5.14075">
        <ele>995.889</ele>
        <time>2020-09-03T14:51:42Z</time>
      </trkpt>
      <trkpt lat="43.92776" lon="5.14072">
        <ele>994.439</ele>
        <time>2020-09-03T14:51:45Z</time>
      </trkpt>
      <trkpt lat="43.92766" lon="5.14068">
        <ele>991.861</ele>
        <time>2020-09-03T14:51:46Z</time>
      </trkpt>
      <trkpt lat="43.92754" lon="5.14066">
        <ele>988.887</ele>
        <time>2020-09-03T14:51:47Z</time>
      </trkpt>
      <trkpt lat="43.92743" lon="5.14064">
        <ele>985.653</ele>
        <time>2020-09-03T14:51:48Z</time>
      </trkpt>
      <trkpt lat="43.92731" lon="5.14061">
        <ele>983.2</ele>
        <time>2020-09-03T14:51:49Z</time>
      </trkpt>
      <trkpt lat="43.92731" lon="5.14061">
        <ele>980.894</ele>
        <time>2020-09-03T14:51:49Z</time>
      </trkpt>
      <trkpt lat="43.92709" lon="5.14056">
        <ele>978.385</ele>
        <time>2020-09-03T14:51:51Z</time>
      </trkpt>
      <trkpt lat="43.92698" lon="5.14054">
        <ele>975.933</ele>
        <time>2020-09-03T14:51:52Z</time>
      </trkpt>
      <trkpt lat="43.92686" lon="5.14053">
        <ele>973.82</ele>
        <time>2020-09-03T14:51:53Z</time>
      </trkpt>
      <trkpt lat="43.92673" lon="5.14051">
        <ele>971.463</ele>
        <time>2020-09-03T14:51:54Z</time>
      </trkpt>
      <trkpt lat="43.9266" lon="5.14049">
        <ele>969.303</ele>
        <time>2020-09-03T14:51:55Z</time>
      </trkpt>
      <trkpt lat="43.92648" lon="5.14047">
        <ele>967.305</ele>
        <time>2020-09-03T14:51:56Z</time>
      </trkpt>
      <trkpt lat="43.92636" lon="5.14044">
        <ele>964.889</ele>
        <time>2020-09-03T14:51:57Z</time>
      </trkpt>
      <trkpt lat="43.92624" lon="5.14041">
        <ele>962.468</ele>
        <time>2020-09-03T14:51:58Z</time>
      </trkpt>
      <trkpt lat="43.92612" lon="5.14039">
        <ele>959.813</ele>
        <time>2020-09-03T14:51:59Z</time>
      </trkpt>
      <trkpt lat="43.926" lon="5.14036">
        <ele>957.023</ele>
        <time>2020-09-03T14:52:00Z</time>
      </trkpt>
      <trkpt lat="43.92589" lon="5.14033">
        <ele>954.316</ele>
        <time>2020-09-03T14:52:01Z</time>
      </trkpt>
      <trkpt lat="43.92578" lon="5.14028">
        <ele>950.6</ele>
        <time>2020-09-03T14:52:02Z</time>
      </trkpt>
      <trkpt lat="43.92566" lon="5.14022">
        <ele>947.343</ele>
        <time>2020-09-03T14:52:03Z</time>
      </trkpt>
      <trkpt lat="43.92555" lon="5.14017">
        <ele>943.464</ele>
        <time>2020-09-03T14:52:04Z</time>
      </trkpt>
      <trkpt lat="43.9253" lon="5.14013">
        <ele>940.484</ele>
        <time>2020-09-03T14:52:06Z</time>
      </trkpt>
      <trkpt lat="43.92519" lon="5.14012">
        <ele>937.795</ele>
        <time>2020-09-03T14:52:07Z</time>
      </trkpt>
      <trkpt lat="43.92507" lon="5.1401">
        <ele>935.665</ele>
        <time>2020-09-03T14:52:08Z</time>
      </trkpt>
      <trkpt lat="43.92507" lon="5.1401">
        <ele>933.14</ele>
        <time>2020-09-03T14:52:08Z</time>
      </trkpt>
      <trkpt lat="43.92482" lon="5.14005">
        <ele>930.879</ele>
        <time>2020-09-03T14:52:10Z</time>
      </trkpt>
      <trkpt lat="43.92469" lon="5.14002">
        <ele>927.999</ele>
        <time>2020-09-03T14:52:11Z</time>
      </trkpt>
      <trkpt lat="43.92457" lon="5.13999">
        <ele>926.52</ele>
        <time>2020-09-03T14:52:12Z</time>
      </trkpt>
      <trkpt lat="43.92446" lon="5.13995">
        <ele>923.984</ele>
        <time>2020-09-03T14:52:13Z</time>
      </trkpt>
      <trkpt lat="43.92434" lon="5.13992">
        <ele>919.943</ele>
        <time>2020-09-03T14:52:14Z</time>
      </trkpt>
      <trkpt lat="43.92421" lon="5.13989">
        <ele>916.804</ele>
        <time>2020-09-03T14:52:15Z</time>
      </trkpt>
      <trkpt lat="43.92408" lon="5.13987">
        <ele>913.001</ele>
        <time>2020-09-03T14:52:16Z</time>
      </trkpt>
      <trkpt lat="43.92395" lon="5.13985">
        <ele>909.912</ele>
        <time>2020-09-03T14:52:17Z</time>
      </trkpt>
      <trkpt lat="43.92381" lon="5.13982">
        <ele>906.577</ele>
        <time>2020-09-03T14:52:18Z</time>
      </trkpt>
      <trkpt lat="43.92369" lon="5.13978">
        <ele>903.588</ele>
        <time>2020-09-03T14:52:19Z</time>
      </trkpt>
      <trkpt lat="43.92356" lon="5.13975">
        <ele>900.996</ele>
        <time>2020-09-03T14:52:20Z</time>
      </trkpt>
      <trkpt lat="43.92343" lon="5.13971">
        <ele>898.164</ele>
        <time>2020-09-03T14:52:21Z</time>
      </trkpt>
      <trkpt lat="43.9233" lon="5.13968">
        <ele>895.983</ele>
        <time>2020-09-03T14:52:22Z</time>
      </trkpt>
      <trkpt lat="43.92317" lon="5.13965">
        <ele>893.896</ele>
        <time>2020-09-03T14:52:23Z</time>
      </trkpt>
      <trkpt lat="43.92305" lon="5.13963">
        <ele>891.842</ele>
        <time>2020-09-03T14:52:24Z</time>
      </trkpt>
      <trkpt lat="43.92294" lon="5.1396">
        <ele>889.918</ele>
        <time>2020-09-03T14:52:25Z</time>
      </trkpt>
      <trkpt lat="43.92282" lon="5.13958">
        <ele>887.766</ele>
        <time>2020-09-03T14:52:26Z</time>
      </trkpt>
      <trkpt lat="43.92271" lon="5.13957">
        <ele>884.843</ele>
        <time>2020-09-03T14:52:27Z</time>
      </trkpt>
      <trkpt lat="43.92271" lon="5.13957">
        <ele>881.562</ele>
        <time>2020-09-03T14:52:27Z</time>
      </trkpt>
      <trkpt lat="43.92234" lon="5.13951">
        <ele>878.185</ele>
        <time>2020-09-03T14:52:30Z</time>
      </trkpt>
      <trkpt lat="43.92221" lon="5.13948">
        <ele>875.832</ele>
        <time>2020-09-03T14:52:31Z</time>
      </trkpt>
      <trkpt lat="43.92209" lon="5.13945">
        <ele>873.803</ele>
        <time>2020-09-03T14:52:32Z</time>
      </trkpt>
      <trkpt lat="43.92197" lon="5.13942">
        <ele>871.838</ele>
        <time>2020-09-03T14:52:33Z</time>
      </trkpt>
      <trkpt lat="43.92184" lon="5.13939">
        <ele>869.83</ele>
        <time>2020-09-03T14:52:34Z</time>
      </trkpt>
      <trkpt lat="43.92172" lon="5.13933">
        <ele>867.131</ele>
        <time>2020-09-03T14:52:35Z</time>
      </trkpt>
      <trkpt lat="43.92161" lon="5.13927">
        <ele>864.5</ele>
        <time>2020-09-03T14:52:36Z</time>
      </trkpt>
      <trkpt lat="43.92149" lon="5.13921">
        <ele>860.91</ele>
        <time>2020-09-03T14:52:37Z</time>
      </trkpt>
      <trkpt lat="43.92136" lon="5.13915">
        <ele>857.651</ele>
        <time>2020-09-03T14:52:38Z</time>
      </trkpt>
      <trkpt lat="43.92112" lon="5.13904">
        <ele>854.804</ele>
        <time>2020-09-03T14:52:40Z</time>
      </trkpt>
      <trkpt lat="43.92101" lon="5.139">
        <ele>853.746</ele>
        <time>2020-09-03T14:52:41Z</time>
      </trkpt>
      <trkpt lat="43.92089" lon="5.13898">
        <ele>852.04</ele>
        <time>2020-09-03T14:52:42Z</time>
      </trkpt>
      <trkpt lat="43.92076" lon="5.13897">
        <ele>850.172</ele>
        <time>2020-09-03T14:52:43Z</time>
      </trkpt>
      <trkpt lat="43.92076" lon="5.13897">
        <ele>848.196</ele>
        <time>2020-09-03T14:52:43Z</time>
      </trkpt>
      <trkpt lat="43.9205" lon="5.13894">
        <ele>846.42</ele>
        <time>2020-09-03T14:52:45Z</time>
      </trkpt>
      <trkpt lat="43.92039" lon="5.13888">
        <ele>844.799</ele>
        <time>2020-09-03T14:52:46Z</time>
      </trkpt>
      <trkpt lat="43.92028" lon="5.13883">
        <ele>843.304</ele>
        <time>2020-09-03T14:52:47Z</time>
      </trkpt>
      <trkpt lat="43.92017" lon="5.13878">
        <ele>841.952</ele>
        <time>2020-09-03T14:52:48Z</time>
      </trkpt>
      <trkpt lat="43.92017" lon="5.13878">
        <ele>840.532</ele>
        <time>2020-09-03T14:52:48Z</time>
      </trkpt>
      <trkpt lat="43.91992" lon="5.13871">
        <ele>839.342</ele>
        <time>2020-09-03T14:52:50Z</time>
      </trkpt>
      <trkpt lat="43.91979" lon="5.13867">
        <ele>838.623</ele>
        <time>2020-09-03T14:52:51Z</time>
      </trkpt>
      <trkpt lat="43.91966" lon="5.13862">
        <ele>838.139</ele>
        <time>2020-09-03T14:52:52Z</time>
      </trkpt>
      <trkpt lat="43.91953" lon="5.13856">
        <ele>837.804</ele>
        <time>2020-09-03T14:52:53Z</time>
      </trkpt>
      <trkpt lat="43.91939" lon="5.13851">
        <ele>837.732</ele>
        <time>2020-09-03T14:52:54Z</time>
      </trkpt>
      <trkpt lat="43.91926" lon="5.13846">
        <ele>837.785</ele>
        <time>2020-09-03T14:52:55Z</time>
      </trkpt>
      <trkpt lat="43.91914" lon="5.13841">
        <ele>837.881</ele>
        <time>2020-09-03T14:52:56Z</time>
      </trkpt>
      <trkpt lat="43.91902" lon="5.13836">
        <ele>837.918</ele>
        <time>2020-09-03T14:52:57Z</time>
      </trkpt>
      <trkpt lat="43.91891" lon="5.13831">
        <ele>837.858</ele>
        <time>2020-09-03T14:52:58Z</time>
      </trkpt>
      <trkpt lat="43.91878" lon="5.13827">
        <ele>837.918</ele>
        <time>2020-09-03T14:52:59Z</time>
      </trkpt>
      <trkpt lat="43.91866" lon="5.13825">
        <ele>838.396</ele>
        <time>2020-09-03T14:53:00Z</time>
      </trkpt>
      <trkpt lat="43.91854" lon="5.13822">
        <ele>839.882</ele>
        <time>2020-09-03T14:53:01Z</time>
      </trkpt>
      <trkpt lat="43.91854" lon="5.13822">
        <ele>842.006</ele>
        <time>2020-09-03T14:53:01Z</time>
      </trkpt>
      <trkpt lat="43.91835" lon="5.13813">
        <ele>844.676</ele>
        <time>2020-09-03T14:53:03Z</time>
      </trkpt>
      <trkpt lat="43.91823" lon="5.13803">
        <ele>846.49</ele>
        <time>2020-09-03T14:53:05Z</time>
      </trkpt>
      <trkpt lat="43.91818" lon="5.13797">
        <ele>847.663</ele>
        <time>2020-09-03T14:53:06Z</time>
      </trkpt>
      <trkpt lat="43.91815" lon="5.13789">
        <ele>848.109</ele>
        <time>2020-09-03T14:53:07Z</time>
      </trkpt>
      <trkpt lat="43.91812" lon="5.13778">
        <ele>848.311</ele>
        <time>2020-09-03T14:53:08Z</time>
      </trkpt>
      <trkpt lat="43.9181" lon="5.13767">
        <ele>848.726</ele>
        <time>2020-09-03T14:53:09Z</time>
      </trkpt>
      <trkpt lat="43.91807" lon="5.13757">
        <ele>849.887</ele>
        <time>2020-09-03T14:53:10Z</time>
      </trkpt>
      <trkpt lat="43.91804" lon="5.13749">
        <ele>851.24</ele>
        <time>2020-09-03T14:53:11Z</time>
      </trkpt>
      <trkpt lat="43.91801" lon="5.13742">
        <ele>852.405</ele>
        <time>2020-09-03T14:53:12Z</time>
      </trkpt>
      <trkpt lat="43.91799" lon="5.13735">
        <ele>853.042</ele>
        <time>2020-09-03T14:53:13Z</time>
      </trkpt>
      <trkpt lat="43.91801" lon="5.13729">
        <ele>852.808</ele>
        <time>2020-09-03T14:53:14Z</time>
      </trkpt>
      <trkpt lat="43.91803" lon="5.13723">
        <ele>852.033</ele>
        <time>2020-09-03T14:53:15Z</time>
      </trkpt>
      <trkpt lat="43.91808" lon="5.13722">
        <ele>850.907</ele>
        <time>2020-09-03T14:53:16Z</time>
      </trkpt>
      <trkpt lat="43.91814" lon="5.13727">
        <ele>849.776</ele>
        <time>2020-09-03T14:53:17Z</time>
      </trkpt>
      <trkpt lat="43.91817" lon="5.13737">
        <ele>848.738</ele>
        <time>2020-09-03T14:53:18Z</time>
      </trkpt>
      <trkpt lat="43.91818" lon="5.13749">
        <ele>847.709</ele>
        <time>2020-09-03T14:53:19Z</time>
      </trkpt>
      <trkpt lat="43.91816" lon="5.13764">
        <ele>846.853</ele>
        <time>2020-09-03T14:53:20Z</time>
      </trkpt>
      <trkpt lat="43.91811" lon="5.13778">
        <ele>846.445</ele>
        <time>2020-09-03T14:53:21Z</time>
      </trkpt>
      <trkpt lat="43.91806" lon="5.13791">
        <ele>846.37</ele>
        <time>2020-09-03T14:53:22Z</time>
      </trkpt>
      <trkpt lat="43.91797" lon="5.138">
        <ele>846.371</ele>
        <time>2020-09-03T14:53:23Z</time>
      </trkpt>
      <trkpt lat="43.91787" lon="5.13807">
        <ele>846.428</ele>
        <time>2020-09-03T14:53:24Z</time>
      </trkpt>
      <trkpt lat="43.91776" lon="5.13811">
        <ele>846.531</ele>
        <time>2020-09-03T14:53:25Z</time>
      </trkpt>
      <trkpt lat="43.91752" lon="5.1381">
        <ele>846.578</ele>
        <time>2020-09-03T14:53:27Z</time>
      </trkpt>
      <trkpt lat="43.91739" lon="5.13807">
        <ele>846.721</ele>
        <time>2020-09-03T14:53:28Z</time>
      </trkpt>
      <trkpt lat="43.91739" lon="5.13807">
        <ele>847.043</ele>
        <time>2020-09-03T14:53:28Z</time>
      </trkpt>
      <trkpt lat="43.91715" lon="5.13801">
        <ele>847.74</ele>
        <time>2020-09-03T14:53:30Z</time>
      </trkpt>
      <trkpt lat="43.91704" lon="5.13796">
        <ele>848.683</ele>
        <time>2020-09-03T14:53:31Z</time>
      </trkpt>
      <trkpt lat="43.91695" lon="5.13791">
        <ele>849.65</ele>
        <time>2020-09-03T14:53:32Z</time>
      </trkpt>
      <trkpt lat="43.91687" lon="5.13786">
        <ele>850.362</ele>
        <time>2020-09-03T14:53:33Z</time>
      </trkpt>
      <trkpt lat="43.9168" lon="5.13782">
        <ele>850.649</ele>
        <time>2020-09-03T14:53:34Z</time>
      </trkpt>
      <trkpt lat="43.91672" lon="5.13778">
        <ele>850.227</ele>
        <time>2020-09-03T14:53:35Z</time>
      </trkpt>
      <trkpt lat="43.91664" lon="5.13776">
        <ele>849.371</ele>
        <time>2020-09-03T14:53:36Z</time>
      </trkpt>
      <trkpt lat="43.91653" lon="5.13773">
        <ele>847.081</ele>
        <time>2020-09-03T14:53:37Z</time>
      </trkpt>
      <trkpt lat="43.91643" lon="5.1377">
        <ele>844.464</ele>
        <time>2020-09-03T14:53:38Z</time>
      </trkpt>
      <trkpt lat="43.91632" lon="5.13768">
        <ele>841.932</ele>
        <time>2020-09-03T14:53:39Z</time>
      </trkpt>
      <trkpt lat="43.91622" lon="5.13764">
        <ele>839.631</ele>
        <time>2020-09-03T14:53:40Z</time>
      </trkpt>
      <trkpt lat="43.91611" lon="5.1376">
        <ele>838.517</ele>
        <time>2020-09-03T14:53:41Z</time>
      </trkpt>
      <trkpt lat="43.91601" lon="5.13757">
        <ele>838.12</ele>
        <time>2020-09-03T14:53:42Z</time>
      </trkpt>
      <trkpt lat="43.91591" lon="5.13756">
        <ele>838.119</ele>
        <time>2020-09-03T14:53:43Z</time>
      </trkpt>
      <trkpt lat="43.91582" lon="5.13755">
        <ele>838.299</ele>
        <time>2020-09-03T14:53:44Z</time>
      </trkpt>
      <trkpt lat="43.91574" lon="5.13754">
        <ele>837.942</ele>
        <time>2020-09-03T14:53:45Z</time>
      </trkpt>
      <trkpt lat="43.91565" lon="5.13752">
        <ele>837.024</ele>
        <time>2020-09-03T14:53:46Z</time>
      </trkpt>
      <trkpt lat="43.91547" lon="5.13742">
        <ele>835.427</ele>
        <time>2020-09-03T14:53:48Z</time>
      </trkpt>
      <trkpt lat="43.91547" lon="5.13742">
        <ele>834.505</ele>
        <time>2020-09-03T14:53:48Z</time>
      </trkpt>
      <trkpt lat="43.91526" lon="5.13731">
        <ele>834.706</ele>
        <time>2020-09-03T14:53:50Z</time>
      </trkpt>
      <trkpt lat="43.91517" lon="5.13728">
        <ele>835.917</ele>
        <time>2020-09-03T14:53:51Z</time>
      </trkpt>
      <trkpt lat="43.91509" lon="5.13724">
        <ele>837.383</ele>
        <time>2020-09-03T14:53:52Z</time>
      </trkpt>
      <trkpt lat="43.91501" lon="5.1372">
        <ele>838.683</ele>
        <time>2020-09-03T14:53:53Z</time>
      </trkpt>
      <trkpt lat="43.91494" lon="5.13716">
        <ele>839.661</ele>
        <time>2020-09-03T14:53:54Z</time>
      </trkpt>
      <trkpt lat="43.91489" lon="5.13709">
        <ele>840.17</ele>
        <time>2020-09-03T14:53:55Z</time>
      </trkpt>
      <trkpt lat="43.91487" lon="5.13701">
        <ele>840.354</ele>
        <time>2020-09-03T14:53:56Z</time>
      </trkpt>
      <trkpt lat="43.91487" lon="5.13693">
        <ele>840.24</ele>
        <time>2020-09-03T14:53:57Z</time>
      </trkpt>
      <trkpt lat="43.9149" lon="5.13686">
        <ele>839.958</ele>
        <time>2020-09-03T14:53:58Z</time>
      </trkpt>
      <trkpt lat="43.91494" lon="5.13681">
        <ele>839.67</ele>
        <time>2020-09-03T14:53:59Z</time>
      </trkpt>
      <trkpt lat="43.915" lon="5.1368">
        <ele>839.418</ele>
        <time>2020-09-03T14:54:00Z</time>
      </trkpt>
      <trkpt lat="43.91505" lon="5.13682">
        <ele>839.3</ele>
        <time>2020-09-03T14:54:01Z</time>
      </trkpt>
      <trkpt lat="43.91511" lon="5.13687">
        <ele>839.136</ele>
        <time>2020-09-03T14:54:02Z</time>
      </trkpt>
      <trkpt lat="43.91515" lon="5.13694">
        <ele>838.845</ele>
        <time>2020-09-03T14:54:03Z</time>
      </trkpt>
      <trkpt lat="43.91518" lon="5.13702">
        <ele>838.469</ele>
        <time>2020-09-03T14:54:04Z</time>
      </trkpt>
      <trkpt lat="43.9152" lon="5.13714">
        <ele>837.678</ele>
        <time>2020-09-03T14:54:05Z</time>
      </trkpt>
      <trkpt lat="43.91521" lon="5.13728">
        <ele>836.621</ele>
        <time>2020-09-03T14:54:06Z</time>
      </trkpt>
      <trkpt lat="43.91518" lon="5.13743">
        <ele>835.472</ele>
        <time>2020-09-03T14:54:07Z</time>
      </trkpt>
      <trkpt lat="43.91513" lon="5.13758">
        <ele>834.383</ele>
        <time>2020-09-03T14:54:08Z</time>
      </trkpt>
      <trkpt lat="43.91506" lon="5.13771">
        <ele>833.441</ele>
        <time>2020-09-03T14:54:09Z</time>
      </trkpt>
      <trkpt lat="43.91506" lon="5.13771">
        <ele>832.741</ele>
        <time>2020-09-03T14:54:09Z</time>
      </trkpt>
      <trkpt lat="43.91477" lon="5.13797">
        <ele>832.482</ele>
        <time>2020-09-03T14:54:12Z</time>
      </trkpt>
      <trkpt lat="43.91467" lon="5.13801">
        <ele>832.644</ele>
        <time>2020-09-03T14:54:13Z</time>
      </trkpt>
      <trkpt lat="43.91458" lon="5.13803">
        <ele>832.983</ele>
        <time>2020-09-03T14:54:14Z</time>
      </trkpt>
      <trkpt lat="43.91449" lon="5.13803">
        <ele>833.014</ele>
        <time>2020-09-03T14:54:15Z</time>
      </trkpt>
      <trkpt lat="43.91441" lon="5.13801">
        <ele>832.589</ele>
        <time>2020-09-03T14:54:16Z</time>
      </trkpt>
      <trkpt lat="43.91433" lon="5.13797">
        <ele>831.804</ele>
        <time>2020-09-03T14:54:17Z</time>
      </trkpt>
      <trkpt lat="43.91425" lon="5.13791">
        <ele>830.868</ele>
        <time>2020-09-03T14:54:18Z</time>
      </trkpt>
      <trkpt lat="43.91417" lon="5.13786">
        <ele>830.086</ele>
        <time>2020-09-03T14:54:19Z</time>
      </trkpt>
      <trkpt lat="43.91409" lon="5.1378">
        <ele>829.765</ele>
        <time>2020-09-03T14:54:20Z</time>
      </trkpt>
      <trkpt lat="43.91409" lon="5.1378">
        <ele>829.575</ele>
        <time>2020-09-03T14:54:20Z</time>
      </trkpt>
      <trkpt lat="43.91385" lon="5.13765">
        <ele>829.249</ele>
        <time>2020-09-03T14:54:23Z</time>
      </trkpt>
      <trkpt lat="43.91385" lon="5.13765">
        <ele>828.91</ele>
        <time>2020-09-03T14:54:23Z</time>
      </trkpt>
      <trkpt lat="43.91367" lon="5.13753">
        <ele>828.838</ele>
        <time>2020-09-03T14:54:25Z</time>
      </trkpt>
      <trkpt lat="43.91358" lon="5.13749">
        <ele>829.019</ele>
        <time>2020-09-03T14:54:26Z</time>
      </trkpt>
      <trkpt lat="43.91348" lon="5.13745">
        <ele>829.321</ele>
        <time>2020-09-03T14:54:27Z</time>
      </trkpt>
      <trkpt lat="43.91337" lon="5.13742">
        <ele>829.52</ele>
        <time>2020-09-03T14:54:28Z</time>
      </trkpt>
      <trkpt lat="43.91337" lon="5.13742">
        <ele>829.546</ele>
        <time>2020-09-03T14:54:28Z</time>
      </trkpt>
      <trkpt lat="43.91318" lon="5.1373">
        <ele>829.466</ele>
        <time>2020-09-03T14:54:30Z</time>
      </trkpt>
      <trkpt lat="43.91309" lon="5.13723">
        <ele>829.399</ele>
        <time>2020-09-03T14:54:31Z</time>
      </trkpt>
      <trkpt lat="43.913" lon="5.13717">
        <ele>829.374</ele>
        <time>2020-09-03T14:54:32Z</time>
      </trkpt>
      <trkpt lat="43.91291" lon="5.13712">
        <ele>829.325</ele>
        <time>2020-09-03T14:54:33Z</time>
      </trkpt>
      <trkpt lat="43.91291" lon="5.13712">
        <ele>829.037</ele>
        <time>2020-09-03T14:54:33Z</time>
      </trkpt>
      <trkpt lat="43.91273" lon="5.137">
        <ele>828.386</ele>
        <time>2020-09-03T14:54:35Z</time>
      </trkpt>
      <trkpt lat="43.91264" lon="5.13693">
        <ele>827.275</ele>
        <time>2020-09-03T14:54:36Z</time>
      </trkpt>
      <trkpt lat="43.91254" lon="5.13687">
        <ele>826.199</ele>
        <time>2020-09-03T14:54:37Z</time>
      </trkpt>
      <trkpt lat="43.91245" lon="5.13681">
        <ele>825.601</ele>
        <time>2020-09-03T14:54:38Z</time>
      </trkpt>
      <trkpt lat="43.91236" lon="5.13676">
        <ele>825.049</ele>
        <time>2020-09-03T14:54:39Z</time>
      </trkpt>
      <trkpt lat="43.91227" lon="5.13672">
        <ele>824.161</ele>
        <time>2020-09-03T14:54:40Z</time>
      </trkpt>
      <trkpt lat="43.91217" lon="5.13667">
        <ele>822.478</ele>
        <time>2020-09-03T14:54:41Z</time>
      </trkpt>
      <trkpt lat="43.91207" lon="5.13661">
        <ele>820.394</ele>
        <time>2020-09-03T14:54:42Z</time>
      </trkpt>
      <trkpt lat="43.91207" lon="5.13661">
        <ele>818.372</ele>
        <time>2020-09-03T14:54:42Z</time>
      </trkpt>
      <trkpt lat="43.91176" lon="5.13643">
        <ele>817.095</ele>
        <time>2020-09-03T14:54:45Z</time>
      </trkpt>
      <trkpt lat="43.91167" lon="5.13638">
        <ele>816.225</ele>
        <time>2020-09-03T14:54:46Z</time>
      </trkpt>
      <trkpt lat="43.91158" lon="5.13633">
        <ele>815.403</ele>
        <time>2020-09-03T14:54:47Z</time>
      </trkpt>
      <trkpt lat="43.91149" lon="5.13629">
        <ele>814.201</ele>
        <time>2020-09-03T14:54:48Z</time>
      </trkpt>
      <trkpt lat="43.91139" lon="5.13624">
        <ele>812.727</ele>
        <time>2020-09-03T14:54:49Z</time>
      </trkpt>
      <trkpt lat="43.91129" lon="5.13618">
        <ele>810.889</ele>
        <time>2020-09-03T14:54:50Z</time>
      </trkpt>
      <trkpt lat="43.91118" lon="5.13612">
        <ele>809.247</ele>
        <time>2020-09-03T14:54:51Z</time>
      </trkpt>
      <trkpt lat="43.91107" lon="5.13605">
        <ele>807.731</ele>
        <time>2020-09-03T14:54:52Z</time>
      </trkpt>
      <trkpt lat="43.91096" lon="5.136">
        <ele>806.464</ele>
        <time>2020-09-03T14:54:53Z</time>
      </trkpt>
      <trkpt lat="43.91086" lon="5.13595">
        <ele>805.32</ele>
        <time>2020-09-03T14:54:54Z</time>
      </trkpt>
      <trkpt lat="43.91076" lon="5.1359">
        <ele>803.778</ele>
        <time>2020-09-03T14:54:55Z</time>
      </trkpt>
      <trkpt lat="43.91066" lon="5.13584">
        <ele>802.015</ele>
        <time>2020-09-03T14:54:56Z</time>
      </trkpt>
      <trkpt lat="43.91055" lon="5.13577">
        <ele>799.575</ele>
        <time>2020-09-03T14:54:57Z</time>
      </trkpt>
      <trkpt lat="43.91045" lon="5.13569">
        <ele>797.45</ele>
        <time>2020-09-03T14:54:58Z</time>
      </trkpt>
      <trkpt lat="43.91035" lon="5.13561">
        <ele>795.423</ele>
        <time>2020-09-03T14:54:59Z</time>
      </trkpt>
      <trkpt lat="43.91035" lon="5.13561">
        <ele>794.385</ele>
        <time>2020-09-03T14:54:59Z</time>
      </trkpt>
      <trkpt lat="43.91015" lon="5.13547">
        <ele>792.5</ele>
        <time>2020-09-03T14:55:01Z</time>
      </trkpt>
      <trkpt lat="43.91005" lon="5.1354">
        <ele>790.516</ele>
        <time>2020-09-03T14:55:02Z</time>
      </trkpt>
      <trkpt lat="43.90995" lon="5.13534">
        <ele>787.924</ele>
        <time>2020-09-03T14:55:03Z</time>
      </trkpt>
      <trkpt lat="43.90985" lon="5.13526">
        <ele>785.916</ele>
        <time>2020-09-03T14:55:04Z</time>
      </trkpt>
      <trkpt lat="43.90966" lon="5.13511">
        <ele>783.179</ele>
        <time>2020-09-03T14:55:06Z</time>
      </trkpt>
      <trkpt lat="43.90956" lon="5.13504">
        <ele>780.279</ele>
        <time>2020-09-03T14:55:07Z</time>
      </trkpt>
      <trkpt lat="43.90945" lon="5.13496">
        <ele>777.701</ele>
        <time>2020-09-03T14:55:08Z</time>
      </trkpt>
      <trkpt lat="43.90934" lon="5.13487">
        <ele>775.465</ele>
        <time>2020-09-03T14:55:09Z</time>
      </trkpt>
      <trkpt lat="43.90925" lon="5.13478">
        <ele>774.009</ele>
        <time>2020-09-03T14:55:10Z</time>
      </trkpt>
      <trkpt lat="43.90915" lon="5.13469">
        <ele>773.238</ele>
        <time>2020-09-03T14:55:11Z</time>
      </trkpt>
      <trkpt lat="43.90906" lon="5.13461">
        <ele>772.865</ele>
        <time>2020-09-03T14:55:12Z</time>
      </trkpt>
      <trkpt lat="43.90897" lon="5.13453">
        <ele>772.625</ele>
        <time>2020-09-03T14:55:13Z</time>
      </trkpt>
      <trkpt lat="43.90888" lon="5.13445">
        <ele>772.239</ele>
        <time>2020-09-03T14:55:14Z</time>
      </trkpt>
      <trkpt lat="43.90888" lon="5.13445">
        <ele>772.016</ele>
        <time>2020-09-03T14:55:14Z</time>
      </trkpt>
      <trkpt lat="43.90888" lon="5.13445">
        <ele>772.132</ele>
        <time>2020-09-03T14:55:14Z</time>
      </trkpt>
      <trkpt lat="43.90888" lon="5.13445">
        <ele>772.887</ele>
        <time>2020-09-03T14:55:14Z</time>
      </trkpt>
      <trkpt lat="43.90888" lon="5.13445">
        <ele>773.965</ele>
        <time>2020-09-03T14:55:14Z</time>
      </trkpt>
      <trkpt lat="43.90838" lon="5.13401">
        <ele>775.57</ele>
        <time>2020-09-03T14:55:19Z</time>
      </trkpt>
      <trkpt lat="43.9083" lon="5.13394">
        <ele>776.987</ele>
        <time>2020-09-03T14:55:20Z</time>
      </trkpt>
      <trkpt lat="43.90816" lon="5.13378">
        <ele>778.066</ele>
        <time>2020-09-03T14:55:22Z</time>
      </trkpt>
      <trkpt lat="43.90808" lon="5.1337">
        <ele>779.349</ele>
        <time>2020-09-03T14:55:23Z</time>
      </trkpt>
      <trkpt lat="43.90808" lon="5.1337">
        <ele>780.907</ele>
        <time>2020-09-03T14:55:23Z</time>
      </trkpt>
      <trkpt lat="43.90794" lon="5.13357">
        <ele>782.563</ele>
        <time>2020-09-03T14:55:25Z</time>
      </trkpt>
      <trkpt lat="43.90788" lon="5.13351">
        <ele>784.233</ele>
        <time>2020-09-03T14:55:26Z</time>
      </trkpt>
      <trkpt lat="43.90782" lon="5.13346">
        <ele>785.638</ele>
        <time>2020-09-03T14:55:27Z</time>
      </trkpt>
      <trkpt lat="43.90776" lon="5.1334">
        <ele>786.293</ele>
        <time>2020-09-03T14:55:28Z</time>
      </trkpt>
      <trkpt lat="43.90771" lon="5.13334">
        <ele>786.791</ele>
        <time>2020-09-03T14:55:29Z</time>
      </trkpt>
      <trkpt lat="43.90768" lon="5.13327">
        <ele>787.735</ele>
        <time>2020-09-03T14:55:30Z</time>
      </trkpt>
      <trkpt lat="43.90766" lon="5.13319">
        <ele>789.12</ele>
        <time>2020-09-03T14:55:31Z</time>
      </trkpt>
      <trkpt lat="43.90766" lon="5.13314">
        <ele>790.911</ele>
        <time>2020-09-03T14:55:32Z</time>
      </trkpt>
      <trkpt lat="43.90766" lon="5.1331">
        <ele>793.048</ele>
        <time>2020-09-03T14:55:33Z</time>
      </trkpt>
      <trkpt lat="43.90766" lon="5.13307">
        <ele>794.354</ele>
        <time>2020-09-03T14:55:34Z</time>
      </trkpt>
      <trkpt lat="43.90767" lon="5.13304">
        <ele>795.398</ele>
        <time>2020-09-03T14:55:35Z</time>
      </trkpt>
      <trkpt lat="43.90768" lon="5.13299">
        <ele>796.097</ele>
        <time>2020-09-03T14:55:36Z</time>
      </trkpt>
      <trkpt lat="43.90775" lon="5.13295">
        <ele>796.532</ele>
        <time>2020-09-03T14:55:38Z</time>
      </trkpt>
      <trkpt lat="43.9078" lon="5.13298">
        <ele>796.991</ele>
        <time>2020-09-03T14:55:39Z</time>
      </trkpt>
      <trkpt lat="43.90785" lon="5.13304">
        <ele>797.483</ele>
        <time>2020-09-03T14:55:40Z</time>
      </trkpt>
      <trkpt lat="43.90789" lon="5.13313">
        <ele>798.123</ele>
        <time>2020-09-03T14:55:41Z</time>
      </trkpt>
      <trkpt lat="43.90791" lon="5.13325">
        <ele>798.653</ele>
        <time>2020-09-03T14:55:42Z</time>
      </trkpt>
      <trkpt lat="43.90789" lon="5.1334">
        <ele>799.232</ele>
        <time>2020-09-03T14:55:43Z</time>
      </trkpt>
      <trkpt lat="43.90785" lon="5.13354">
        <ele>799.905</ele>
        <time>2020-09-03T14:55:44Z</time>
      </trkpt>
      <trkpt lat="43.9078" lon="5.13368">
        <ele>800.756</ele>
        <time>2020-09-03T14:55:45Z</time>
      </trkpt>
      <trkpt lat="43.90775" lon="5.13381">
        <ele>801.716</ele>
        <time>2020-09-03T14:55:46Z</time>
      </trkpt>
      <trkpt lat="43.90768" lon="5.13392">
        <ele>802.674</ele>
        <time>2020-09-03T14:55:47Z</time>
      </trkpt>
      <trkpt lat="43.9076" lon="5.13403">
        <ele>803.732</ele>
        <time>2020-09-03T14:55:48Z</time>
      </trkpt>
      <trkpt lat="43.9075" lon="5.13409">
        <ele>804.584</ele>
        <time>2020-09-03T14:55:49Z</time>
      </trkpt>
      <trkpt lat="43.90738" lon="5.13412">
        <ele>804.928</ele>
        <time>2020-09-03T14:55:50Z</time>
      </trkpt>
      <trkpt lat="43.90727" lon="5.13412">
        <ele>805.298</ele>
        <time>2020-09-03T14:55:51Z</time>
      </trkpt>
      <trkpt lat="43.90717" lon="5.13408">
        <ele>805.833</ele>
        <time>2020-09-03T14:55:52Z</time>
      </trkpt>
      <trkpt lat="43.90708" lon="5.13403">
        <ele>806.891</ele>
        <time>2020-09-03T14:55:53Z</time>
      </trkpt>
      <trkpt lat="43.90703" lon="5.13398">
        <ele>808.081</ele>
        <time>2020-09-03T14:55:54Z</time>
      </trkpt>
      <trkpt lat="43.90699" lon="5.13393">
        <ele>809.006</ele>
        <time>2020-09-03T14:55:55Z</time>
      </trkpt>
      <trkpt lat="43.90696" lon="5.13389">
        <ele>809.876</ele>
        <time>2020-09-03T14:55:56Z</time>
      </trkpt>
      <trkpt lat="43.90696" lon="5.13389">
        <ele>810.355</ele>
        <time>2020-09-03T14:55:56Z</time>
      </trkpt>
      <trkpt lat="43.90695" lon="5.13382">
        <ele>811.093</ele>
        <time>2020-09-03T14:55:58Z</time>
      </trkpt>
      <trkpt lat="43.90697" lon="5.13378">
        <ele>811.906</ele>
        <time>2020-09-03T14:55:59Z</time>
      </trkpt>
      <trkpt lat="43.90703" lon="5.13375">
        <ele>812.717</ele>
        <time>2020-09-03T14:56:01Z</time>
      </trkpt>
      <trkpt lat="43.90706" lon="5.13373">
        <ele>813.879</ele>
        <time>2020-09-03T14:56:02Z</time>
      </trkpt>
      <trkpt lat="43.90708" lon="5.1337">
        <ele>815.079</ele>
        <time>2020-09-03T14:56:03Z</time>
      </trkpt>
      <trkpt lat="43.90709" lon="5.13365">
        <ele>816.068</ele>
        <time>2020-09-03T14:56:04Z</time>
      </trkpt>
      <trkpt lat="43.90711" lon="5.1336">
        <ele>816.271</ele>
        <time>2020-09-03T14:56:05Z</time>
      </trkpt>
      <trkpt lat="43.90714" lon="5.13357">
        <ele>816.166</ele>
        <time>2020-09-03T14:56:06Z</time>
      </trkpt>
      <trkpt lat="43.90719" lon="5.13357">
        <ele>815.813</ele>
        <time>2020-09-03T14:56:07Z</time>
      </trkpt>
      <trkpt lat="43.90724" lon="5.13363">
        <ele>815.206</ele>
        <time>2020-09-03T14:56:08Z</time>
      </trkpt>
      <trkpt lat="43.90727" lon="5.13374">
        <ele>814.823</ele>
        <time>2020-09-03T14:56:09Z</time>
      </trkpt>
      <trkpt lat="43.9073" lon="5.13386">
        <ele>814.924</ele>
        <time>2020-09-03T14:56:10Z</time>
      </trkpt>
      <trkpt lat="43.90731" lon="5.13399">
        <ele>815.503</ele>
        <time>2020-09-03T14:56:11Z</time>
      </trkpt>
      <trkpt lat="43.90731" lon="5.1341">
        <ele>816.337</ele>
        <time>2020-09-03T14:56:12Z</time>
      </trkpt>
      <trkpt lat="43.90729" lon="5.13421">
        <ele>816.924</ele>
        <time>2020-09-03T14:56:13Z</time>
      </trkpt>
      <trkpt lat="43.90724" lon="5.13431">
        <ele>816.973</ele>
        <time>2020-09-03T14:56:14Z</time>
      </trkpt>
      <trkpt lat="43.90716" lon="5.13441">
        <ele>816.587</ele>
        <time>2020-09-03T14:56:15Z</time>
      </trkpt>
      <trkpt lat="43.90706" lon="5.13449">
        <ele>816.084</ele>
        <time>2020-09-03T14:56:16Z</time>
      </trkpt>
      <trkpt lat="43.90696" lon="5.13453">
        <ele>815.748</ele>
        <time>2020-09-03T14:56:17Z</time>
      </trkpt>
      <trkpt lat="43.90685" lon="5.13456">
        <ele>815.653</ele>
        <time>2020-09-03T14:56:18Z</time>
      </trkpt>
      <trkpt lat="43.90675" lon="5.13457">
        <ele>816.063</ele>
        <time>2020-09-03T14:56:19Z</time>
      </trkpt>
      <trkpt lat="43.90665" lon="5.13458">
        <ele>816.972</ele>
        <time>2020-09-03T14:56:20Z</time>
      </trkpt>
      <trkpt lat="43.90665" lon="5.13458">
        <ele>818.332</ele>
        <time>2020-09-03T14:56:20Z</time>
      </trkpt>
      <trkpt lat="43.90665" lon="5.13458">
        <ele>820.316</ele>
        <time>2020-09-03T14:56:20Z</time>
      </trkpt>
      <trkpt lat="43.90665" lon="5.13458">
        <ele>823.217</ele>
        <time>2020-09-03T14:56:20Z</time>
      </trkpt>
      <trkpt lat="43.90613" lon="5.13488">
        <ele>825.007</ele>
        <time>2020-09-03T14:56:25Z</time>
      </trkpt>
      <trkpt lat="43.90605" lon="5.13494">
        <ele>828.751</ele>
        <time>2020-09-03T14:56:26Z</time>
      </trkpt>
      <trkpt lat="43.90597" lon="5.13497">
        <ele>831.37</ele>
        <time>2020-09-03T14:56:27Z</time>
      </trkpt>
      <trkpt lat="43.90589" lon="5.13496">
        <ele>833.638</ele>
        <time>2020-09-03T14:56:28Z</time>
      </trkpt>
      <trkpt lat="43.90583" lon="5.13492">
        <ele>835.109</ele>
        <time>2020-09-03T14:56:29Z</time>
      </trkpt>
      <trkpt lat="43.90579" lon="5.13484">
        <ele>836.552</ele>
        <time>2020-09-03T14:56:30Z</time>
      </trkpt>
      <trkpt lat="43.90579" lon="5.13476">
        <ele>837.73</ele>
        <time>2020-09-03T14:56:31Z</time>
      </trkpt>
      <trkpt lat="43.90583" lon="5.13472">
        <ele>838.628</ele>
        <time>2020-09-03T14:56:32Z</time>
      </trkpt>
      <trkpt lat="43.9059" lon="5.13476">
        <ele>839.555</ele>
        <time>2020-09-03T14:56:33Z</time>
      </trkpt>
      <trkpt lat="43.90597" lon="5.13486">
        <ele>840.885</ele>
        <time>2020-09-03T14:56:34Z</time>
      </trkpt>
      <trkpt lat="43.906" lon="5.135">
        <ele>842.43</ele>
        <time>2020-09-03T14:56:35Z</time>
      </trkpt>
      <trkpt lat="43.90599" lon="5.13517">
        <ele>844.067</ele>
        <time>2020-09-03T14:56:36Z</time>
      </trkpt>
      <trkpt lat="43.90595" lon="5.13532">
        <ele>845.754</ele>
        <time>2020-09-03T14:56:37Z</time>
      </trkpt>
      <trkpt lat="43.90587" lon="5.13546">
        <ele>847.413</ele>
        <time>2020-09-03T14:56:38Z</time>
      </trkpt>
      <trkpt lat="43.90578" lon="5.13557">
        <ele>848.965</ele>
        <time>2020-09-03T14:56:39Z</time>
      </trkpt>
      <trkpt lat="43.90568" lon="5.13565">
        <ele>850.353</ele>
        <time>2020-09-03T14:56:40Z</time>
      </trkpt>
      <trkpt lat="43.90557" lon="5.13569">
        <ele>852.15</ele>
        <time>2020-09-03T14:56:41Z</time>
      </trkpt>
      <trkpt lat="43.90557" lon="5.13569">
        <ele>853.798</ele>
        <time>2020-09-03T14:56:41Z</time>
      </trkpt>
      <trkpt lat="43.90557" lon="5.13569">
        <ele>855.8</ele>
        <time>2020-09-03T14:56:41Z</time>
      </trkpt>
      <trkpt lat="43.9053" lon="5.13557">
        <ele>858.033</ele>
        <time>2020-09-03T14:56:45Z</time>
      </trkpt>
      <trkpt lat="43.90528" lon="5.13551">
        <ele>859.886</ele>
        <time>2020-09-03T14:56:46Z</time>
      </trkpt>
      <trkpt lat="43.90528" lon="5.13547">
        <ele>861.691</ele>
        <time>2020-09-03T14:56:47Z</time>
      </trkpt>
      <trkpt lat="43.9053" lon="5.13544">
        <ele>863.407</ele>
        <time>2020-09-03T14:56:48Z</time>
      </trkpt>
      <trkpt lat="43.90535" lon="5.13546">
        <ele>865.197</ele>
        <time>2020-09-03T14:56:49Z</time>
      </trkpt>
      <trkpt lat="43.9054" lon="5.13552">
        <ele>866.705</ele>
        <time>2020-09-03T14:56:50Z</time>
      </trkpt>
      <trkpt lat="43.90544" lon="5.13563">
        <ele>868.053</ele>
        <time>2020-09-03T14:56:51Z</time>
      </trkpt>
      <trkpt lat="43.90545" lon="5.13578">
        <ele>869.434</ele>
        <time>2020-09-03T14:56:52Z</time>
      </trkpt>
      <trkpt lat="43.90545" lon="5.13578">
        <ele>870.737</ele>
        <time>2020-09-03T14:56:52Z</time>
      </trkpt>
      <trkpt lat="43.90541" lon="5.13608">
        <ele>872.599</ele>
        <time>2020-09-03T14:56:54Z</time>
      </trkpt>
      <trkpt lat="43.90529" lon="5.13637">
        <ele>875.18</ele>
        <time>2020-09-03T14:56:56Z</time>
      </trkpt>
      <trkpt lat="43.90521" lon="5.13651">
        <ele>876.687</ele>
        <time>2020-09-03T14:56:57Z</time>
      </trkpt>
      <trkpt lat="43.90512" lon="5.13666">
        <ele>878.076</ele>
        <time>2020-09-03T14:56:58Z</time>
      </trkpt>
      <trkpt lat="43.90512" lon="5.13666">
        <ele>879.759</ele>
        <time>2020-09-03T14:56:58Z</time>
      </trkpt>
      <trkpt lat="43.90491" lon="5.13684">
        <ele>881.425</ele>
        <time>2020-09-03T14:57:00Z</time>
      </trkpt>
      <trkpt lat="43.90481" lon="5.13684">
        <ele>882.748</ele>
        <time>2020-09-03T14:57:01Z</time>
      </trkpt>
      <trkpt lat="43.90475" lon="5.13679">
        <ele>883.889</ele>
        <time>2020-09-03T14:57:02Z</time>
      </trkpt>
      <trkpt lat="43.90471" lon="5.13672">
        <ele>884.651</ele>
        <time>2020-09-03T14:57:03Z</time>
      </trkpt>
      <trkpt lat="43.90471" lon="5.13672">
        <ele>885.452</ele>
        <time>2020-09-03T14:57:03Z</time>
      </trkpt>
      <trkpt lat="43.90471" lon="5.13658">
        <ele>886.724</ele>
        <time>2020-09-03T14:57:05Z</time>
      </trkpt>
      <trkpt lat="43.90474" lon="5.13654">
        <ele>888.058</ele>
        <time>2020-09-03T14:57:06Z</time>
      </trkpt>
      <trkpt lat="43.90479" lon="5.13654">
        <ele>889.627</ele>
        <time>2020-09-03T14:57:07Z</time>
      </trkpt>
      <trkpt lat="43.90479" lon="5.13654">
        <ele>891.297</ele>
        <time>2020-09-03T14:57:07Z</time>
      </trkpt>
      <trkpt lat="43.90479" lon="5.13654">
        <ele>892.812</ele>
        <time>2020-09-03T14:57:07Z</time>
      </trkpt>
      <trkpt lat="43.90496" lon="5.13679">
        <ele>894.447</ele>
        <time>2020-09-03T14:57:10Z</time>
      </trkpt>
      <trkpt lat="43.90496" lon="5.13696">
        <ele>895.635</ele>
        <time>2020-09-03T14:57:11Z</time>
      </trkpt>
      <trkpt lat="43.90491" lon="5.13713">
        <ele>896.821</ele>
        <time>2020-09-03T14:57:12Z</time>
      </trkpt>
      <trkpt lat="43.90484" lon="5.1373">
        <ele>897.963</ele>
        <time>2020-09-03T14:57:13Z</time>
      </trkpt>
      <trkpt lat="43.90474" lon="5.13746">
        <ele>900.029</ele>
        <time>2020-09-03T14:57:14Z</time>
      </trkpt>
      <trkpt lat="43.90452" lon="5.13764">
        <ele>902.544</ele>
        <time>2020-09-03T14:57:16Z</time>
      </trkpt>
      <trkpt lat="43.90442" lon="5.13764">
        <ele>904.617</ele>
        <time>2020-09-03T14:57:17Z</time>
      </trkpt>
      <trkpt lat="43.90435" lon="5.1376">
        <ele>906.468</ele>
        <time>2020-09-03T14:57:18Z</time>
      </trkpt>
      <trkpt lat="43.90429" lon="5.13754">
        <ele>907.481</ele>
        <time>2020-09-03T14:57:19Z</time>
      </trkpt>
      <trkpt lat="43.90425" lon="5.13748">
        <ele>908.473</ele>
        <time>2020-09-03T14:57:20Z</time>
      </trkpt>
      <trkpt lat="43.90425" lon="5.13748">
        <ele>909.462</ele>
        <time>2020-09-03T14:57:20Z</time>
      </trkpt>
      <trkpt lat="43.90425" lon="5.13748">
        <ele>909.96</ele>
        <time>2020-09-03T14:57:20Z</time>
      </trkpt>
      <trkpt lat="43.90431" lon="5.13737">
        <ele>911.357</ele>
        <time>2020-09-03T14:57:23Z</time>
      </trkpt>
      <trkpt lat="43.90431" lon="5.13737">
        <ele>912.801</ele>
        <time>2020-09-03T14:57:23Z</time>
      </trkpt>
      <trkpt lat="43.90441" lon="5.13743">
        <ele>914.349</ele>
        <time>2020-09-03T14:57:25Z</time>
      </trkpt>
      <trkpt lat="43.90446" lon="5.13749">
        <ele>915.518</ele>
        <time>2020-09-03T14:57:26Z</time>
      </trkpt>
      <trkpt lat="43.90451" lon="5.1376">
        <ele>916.637</ele>
        <time>2020-09-03T14:57:27Z</time>
      </trkpt>
      <trkpt lat="43.90451" lon="5.1376">
        <ele>917.865</ele>
        <time>2020-09-03T14:57:27Z</time>
      </trkpt>
      <trkpt lat="43.90454" lon="5.13792">
        <ele>919.075</ele>
        <time>2020-09-03T14:57:29Z</time>
      </trkpt>
      <trkpt lat="43.90452" lon="5.13809">
        <ele>920.607</ele>
        <time>2020-09-03T14:57:30Z</time>
      </trkpt>
      <trkpt lat="43.90452" lon="5.13809">
        <ele>922.012</ele>
        <time>2020-09-03T14:57:30Z</time>
      </trkpt>
      <trkpt lat="43.90452" lon="5.13809">
        <ele>923.811</ele>
        <time>2020-09-03T14:57:30Z</time>
      </trkpt>
      <trkpt lat="43.90452" lon="5.13809">
        <ele>925.592</ele>
        <time>2020-09-03T14:57:30Z</time>
      </trkpt>
      <trkpt lat="43.90419" lon="5.13859">
        <ele>927.197</ele>
        <time>2020-09-03T14:57:34Z</time>
      </trkpt>
      <trkpt lat="43.90398" lon="5.1386">
        <ele>929.168</ele>
        <time>2020-09-03T14:57:36Z</time>
      </trkpt>
      <trkpt lat="43.90389" lon="5.13856">
        <ele>930.565</ele>
        <time>2020-09-03T14:57:37Z</time>
      </trkpt>
      <trkpt lat="43.90381" lon="5.13851">
        <ele>931.872</ele>
        <time>2020-09-03T14:57:38Z</time>
      </trkpt>
      <trkpt lat="43.90378" lon="5.13846">
        <ele>933.009</ele>
        <time>2020-09-03T14:57:39Z</time>
      </trkpt>
      <trkpt lat="43.90378" lon="5.13846">
        <ele>934.308</ele>
        <time>2020-09-03T14:57:39Z</time>
      </trkpt>
      <trkpt lat="43.90379" lon="5.13835">
        <ele>935.536</ele>
        <time>2020-09-03T14:57:41Z</time>
      </trkpt>
      <trkpt lat="43.90384" lon="5.13832">
        <ele>936.668</ele>
        <time>2020-09-03T14:57:42Z</time>
      </trkpt>
      <trkpt lat="43.90391" lon="5.13833">
        <ele>937.65</ele>
        <time>2020-09-03T14:57:43Z</time>
      </trkpt>
      <trkpt lat="43.90399" lon="5.1384">
        <ele>938.688</ele>
        <time>2020-09-03T14:57:44Z</time>
      </trkpt>
      <trkpt lat="43.90411" lon="5.13858">
        <ele>939.989</ele>
        <time>2020-09-03T14:57:46Z</time>
      </trkpt>
      <trkpt lat="43.90417" lon="5.13865">
        <ele>941.372</ele>
        <time>2020-09-03T14:57:47Z</time>
      </trkpt>
      <trkpt lat="43.90422" lon="5.1387">
        <ele>943.36</ele>
        <time>2020-09-03T14:57:48Z</time>
      </trkpt>
      <trkpt lat="43.90422" lon="5.1387">
        <ele>945.04</ele>
        <time>2020-09-03T14:57:48Z</time>
      </trkpt>
      <trkpt lat="43.90433" lon="5.13873">
        <ele>946.121</ele>
        <time>2020-09-03T14:57:50Z</time>
      </trkpt>
      <trkpt lat="43.90438" lon="5.13873">
        <ele>947.725</ele>
        <time>2020-09-03T14:57:51Z</time>
      </trkpt>
      <trkpt lat="43.90442" lon="5.1387">
        <ele>949.424</ele>
        <time>2020-09-03T14:57:52Z</time>
      </trkpt>
      <trkpt lat="43.90445" lon="5.13865">
        <ele>951.101</ele>
        <time>2020-09-03T14:57:53Z</time>
      </trkpt>
      <trkpt lat="43.90447" lon="5.13859">
        <ele>953.155</ele>
        <time>2020-09-03T14:57:54Z</time>
      </trkpt>
      <trkpt lat="43.90448" lon="5.13852">
        <ele>955.289</ele>
        <time>2020-09-03T14:57:55Z</time>
      </trkpt>
      <trkpt lat="43.90449" lon="5.13847">
        <ele>957.156</ele>
        <time>2020-09-03T14:57:56Z</time>
      </trkpt>
      <trkpt lat="43.90449" lon="5.13841">
        <ele>959.366</ele>
        <time>2020-09-03T14:57:57Z</time>
      </trkpt>
      <trkpt lat="43.90449" lon="5.13836">
        <ele>961.186</ele>
        <time>2020-09-03T14:57:58Z</time>
      </trkpt>
      <trkpt lat="43.90449" lon="5.13836">
        <ele>962.854</ele>
        <time>2020-09-03T14:57:58Z</time>
      </trkpt>
      <trkpt lat="43.90452" lon="5.13824">
        <ele>965.14</ele>
        <time>2020-09-03T14:58:00Z</time>
      </trkpt>
      <trkpt lat="43.90453" lon="5.13818">
        <ele>968.711</ele>
        <time>2020-09-03T14:58:01Z</time>
      </trkpt>
      <trkpt lat="43.90453" lon="5.13811">
        <ele>972.265</ele>
        <time>2020-09-03T14:58:02Z</time>
      </trkpt>
      <trkpt lat="43.90451" lon="5.13804">
        <ele>976.014</ele>
        <time>2020-09-03T14:58:03Z</time>
      </trkpt>
      <trkpt lat="43.90449" lon="5.13796">
        <ele>978.995</ele>
        <time>2020-09-03T14:58:04Z</time>
      </trkpt>
      <trkpt lat="43.90449" lon="5.13782">
        <ele>980.94</ele>
        <time>2020-09-03T14:58:06Z</time>
      </trkpt>
      <trkpt lat="43.90452" lon="5.13778">
        <ele>982.529</ele>
        <time>2020-09-03T14:58:07Z</time>
      </trkpt>
      <trkpt lat="43.90457" lon="5.13779">
        <ele>983.922</ele>
        <time>2020-09-03T14:58:08Z</time>
      </trkpt>
      <trkpt lat="43.90461" lon="5.13786">
        <ele>984.904</ele>
        <time>2020-09-03T14:58:09Z</time>
      </trkpt>
      <trkpt lat="43.90464" lon="5.13798">
        <ele>985.151</ele>
        <time>2020-09-03T14:58:10Z</time>
      </trkpt>
      <trkpt lat="43.90464" lon="5.13798">
        <ele>985.187</ele>
        <time>2020-09-03T14:58:10Z</time>
      </trkpt>
      <trkpt lat="43.9046" lon="5.13831">
        <ele>986.096</ele>
        <time>2020-09-03T14:58:12Z</time>
      </trkpt>
      <trkpt lat="43.9046" lon="5.13831">
        <ele>987.815</ele>
        <time>2020-09-03T14:58:12Z</time>
      </trkpt>
      <trkpt lat="43.90445" lon="5.13855">
        <ele>989.871</ele>
        <time>2020-09-03T14:58:14Z</time>
      </trkpt>
      <trkpt lat="43.90437" lon="5.13862">
        <ele>992.443</ele>
        <time>2020-09-03T14:58:15Z</time>
      </trkpt>
      <trkpt lat="43.90426" lon="5.13864">
        <ele>994.779</ele>
        <time>2020-09-03T14:58:16Z</time>
      </trkpt>
      <trkpt lat="43.90415" lon="5.13866">
        <ele>996.927</ele>
        <time>2020-09-03T14:58:17Z</time>
      </trkpt>
      <trkpt lat="43.90404" lon="5.13866">
        <ele>998.678</ele>
        <time>2020-09-03T14:58:18Z</time>
      </trkpt>
      <trkpt lat="43.9039" lon="5.13858">
        <ele>1000.517</ele>
        <time>2020-09-03T14:58:20Z</time>
      </trkpt>
      <trkpt lat="43.90388" lon="5.1385">
        <ele>1001.712</ele>
        <time>2020-09-03T14:58:21Z</time>
      </trkpt>
      <trkpt lat="43.90387" lon="5.13843">
        <ele>1002.219</ele>
        <time>2020-09-03T14:58:22Z</time>
      </trkpt>
      <trkpt lat="43.90389" lon="5.13837">
        <ele>1002.165</ele>
        <time>2020-09-03T14:58:23Z</time>
      </trkpt>
      <trkpt lat="43.90389" lon="5.13837">
        <ele>1002.023</ele>
        <time>2020-09-03T14:58:23Z</time>
      </trkpt>
      <trkpt lat="43.90396" lon="5.13827">
        <ele>1001.983</ele>
        <time>2020-09-03T14:58:25Z</time>
      </trkpt>
      <trkpt lat="43.904" lon="5.13823">
        <ele>1002.104</ele>
        <time>2020-09-03T14:58:26Z</time>
      </trkpt>
      <trkpt lat="43.90403" lon="5.13818">
        <ele>1002.321</ele>
        <time>2020-09-03T14:58:27Z</time>
      </trkpt>
      <trkpt lat="43.90405" lon="5.13812">
        <ele>1002.632</ele>
        <time>2020-09-03T14:58:28Z</time>
      </trkpt>
      <trkpt lat="43.90407" lon="5.13807">
        <ele>1002.994</ele>
        <time>2020-09-03T14:58:29Z</time>
      </trkpt>
      <trkpt lat="43.90408" lon="5.138">
        <ele>1003.137</ele>
        <time>2020-09-03T14:58:30Z</time>
      </trkpt>
      <trkpt lat="43.90408" lon="5.13793">
        <ele>1003.235</ele>
        <time>2020-09-03T14:58:31Z</time>
      </trkpt>
      <trkpt lat="43.90408" lon="5.13786">
        <ele>1003.245</ele>
        <time>2020-09-03T14:58:32Z</time>
      </trkpt>
      <trkpt lat="43.90408" lon="5.13786">
        <ele>1003.142</ele>
        <time>2020-09-03T14:58:32Z</time>
      </trkpt>
      <trkpt lat="43.90411" lon="5.13766">
        <ele>1002.591</ele>
        <time>2020-09-03T14:58:35Z</time>
      </trkpt>
      <trkpt lat="43.90416" lon="5.13763">
        <ele>1001.451</ele>
        <time>2020-09-03T14:58:36Z</time>
      </trkpt>
      <trkpt lat="43.90423" lon="5.13767">
        <ele>1000.284</ele>
        <time>2020-09-03T14:58:37Z</time>
      </trkpt>
      <trkpt lat="43.90429" lon="5.13775">
        <ele>999.538</ele>
        <time>2020-09-03T14:58:38Z</time>
      </trkpt>
      <trkpt lat="43.90434" lon="5.13784">
        <ele>999.394</ele>
        <time>2020-09-03T14:58:39Z</time>
      </trkpt>
      <trkpt lat="43.90437" lon="5.13793">
        <ele>999.6</ele>
        <time>2020-09-03T14:58:40Z</time>
      </trkpt>
      <trkpt lat="43.9044" lon="5.13802">
        <ele>1000.025</ele>
        <time>2020-09-03T14:58:41Z</time>
      </trkpt>
      <trkpt lat="43.90444" lon="5.13811">
        <ele>1000.456</ele>
        <time>2020-09-03T14:58:42Z</time>
      </trkpt>
      <trkpt lat="43.90448" lon="5.13819">
        <ele>1000.678</ele>
        <time>2020-09-03T14:58:43Z</time>
      </trkpt>
      <trkpt lat="43.90452" lon="5.13826">
        <ele>1000.655</ele>
        <time>2020-09-03T14:58:44Z</time>
      </trkpt>
      <trkpt lat="43.90455" lon="5.13834">
        <ele>1000.436</ele>
        <time>2020-09-03T14:58:45Z</time>
      </trkpt>
      <trkpt lat="43.90459" lon="5.1384">
        <ele>1000.172</ele>
        <time>2020-09-03T14:58:46Z</time>
      </trkpt>
      <trkpt lat="43.90459" lon="5.1384">
        <ele>1000.003</ele>
        <time>2020-09-03T14:58:46Z</time>
      </trkpt>
      <trkpt lat="43.90467" lon="5.13852">
        <ele>999.569</ele>
        <time>2020-09-03T14:58:48Z</time>
      </trkpt>
      <trkpt lat="43.90469" lon="5.13859">
        <ele>998.759</ele>
        <time>2020-09-03T14:58:49Z</time>
      </trkpt>
      <trkpt lat="43.90469" lon="5.1387">
        <ele>997.319</ele>
        <time>2020-09-03T14:58:50Z</time>
      </trkpt>
      <trkpt lat="43.90467" lon="5.13881">
        <ele>995.325</ele>
        <time>2020-09-03T14:58:51Z</time>
      </trkpt>
      <trkpt lat="43.90461" lon="5.13896">
        <ele>992.653</ele>
        <time>2020-09-03T14:58:52Z</time>
      </trkpt>
      <trkpt lat="43.90452" lon="5.13906">
        <ele>990.063</ele>
        <time>2020-09-03T14:58:53Z</time>
      </trkpt>
      <trkpt lat="43.90441" lon="5.13912">
        <ele>987.889</ele>
        <time>2020-09-03T14:58:54Z</time>
      </trkpt>
      <trkpt lat="43.90417" lon="5.13914">
        <ele>986.003</ele>
        <time>2020-09-03T14:58:56Z</time>
      </trkpt>
      <trkpt lat="43.90407" lon="5.1391">
        <ele>984.813</ele>
        <time>2020-09-03T14:58:57Z</time>
      </trkpt>
      <trkpt lat="43.90396" lon="5.13905">
        <ele>984.604</ele>
        <time>2020-09-03T14:58:58Z</time>
      </trkpt>
      <trkpt lat="43.90388" lon="5.13898">
        <ele>985.068</ele>
        <time>2020-09-03T14:58:59Z</time>
      </trkpt>
      <trkpt lat="43.90379" lon="5.13891">
        <ele>985.754</ele>
        <time>2020-09-03T14:59:00Z</time>
      </trkpt>
      <trkpt lat="43.90371" lon="5.13884">
        <ele>986.5</ele>
        <time>2020-09-03T14:59:01Z</time>
      </trkpt>
      <trkpt lat="43.90363" lon="5.13877">
        <ele>986.902</ele>
        <time>2020-09-03T14:59:02Z</time>
      </trkpt>
      <trkpt lat="43.90353" lon="5.13872">
        <ele>986.971</ele>
        <time>2020-09-03T14:59:03Z</time>
      </trkpt>
      <trkpt lat="43.90335" lon="5.13861">
        <ele>986.604</ele>
        <time>2020-09-03T14:59:05Z</time>
      </trkpt>
      <trkpt lat="43.90327" lon="5.13855">
        <ele>986.122</ele>
        <time>2020-09-03T14:59:06Z</time>
      </trkpt>
      <trkpt lat="43.90319" lon="5.13848">
        <ele>985.532</ele>
        <time>2020-09-03T14:59:07Z</time>
      </trkpt>
      <trkpt lat="43.90311" lon="5.13841">
        <ele>984.572</ele>
        <time>2020-09-03T14:59:08Z</time>
      </trkpt>
      <trkpt lat="43.90311" lon="5.13841">
        <ele>983.511</ele>
        <time>2020-09-03T14:59:08Z</time>
      </trkpt>
      <trkpt lat="43.90294" lon="5.13829">
        <ele>982.132</ele>
        <time>2020-09-03T14:59:10Z</time>
      </trkpt>
      <trkpt lat="43.90286" lon="5.13822">
        <ele>980.564</ele>
        <time>2020-09-03T14:59:11Z</time>
      </trkpt>
      <trkpt lat="43.90278" lon="5.13815">
        <ele>979.243</ele>
        <time>2020-09-03T14:59:12Z</time>
      </trkpt>
      <trkpt lat="43.90272" lon="5.13808">
        <ele>977.68</ele>
        <time>2020-09-03T14:59:13Z</time>
      </trkpt>
      <trkpt lat="43.90272" lon="5.13808">
        <ele>976.371</ele>
        <time>2020-09-03T14:59:13Z</time>
      </trkpt>
      <trkpt lat="43.90258" lon="5.13795">
        <ele>975.277</ele>
        <time>2020-09-03T14:59:15Z</time>
      </trkpt>
      <trkpt lat="43.90251" lon="5.13787">
        <ele>973.961</ele>
        <time>2020-09-03T14:59:16Z</time>
      </trkpt>
      <trkpt lat="43.90244" lon="5.13779">
        <ele>973.042</ele>
        <time>2020-09-03T14:59:17Z</time>
      </trkpt>
      <trkpt lat="43.90237" lon="5.13771">
        <ele>972.686</ele>
        <time>2020-09-03T14:59:18Z</time>
      </trkpt>
      <trkpt lat="43.9023" lon="5.13764">
        <ele>972.933</ele>
        <time>2020-09-03T14:59:19Z</time>
      </trkpt>
      <trkpt lat="43.90224" lon="5.13758">
        <ele>973.52</ele>
        <time>2020-09-03T14:59:20Z</time>
      </trkpt>
      <trkpt lat="43.90218" lon="5.13753">
        <ele>973.698</ele>
        <time>2020-09-03T14:59:21Z</time>
      </trkpt>
      <trkpt lat="43.90212" lon="5.13747">
        <ele>973.213</ele>
        <time>2020-09-03T14:59:22Z</time>
      </trkpt>
      <trkpt lat="43.90205" lon="5.13741">
        <ele>972.441</ele>
        <time>2020-09-03T14:59:23Z</time>
      </trkpt>
      <trkpt lat="43.90198" lon="5.13733">
        <ele>971.684</ele>
        <time>2020-09-03T14:59:24Z</time>
      </trkpt>
      <trkpt lat="43.90191" lon="5.13727">
        <ele>971.363</ele>
        <time>2020-09-03T14:59:25Z</time>
      </trkpt>
      <trkpt lat="43.90184" lon="5.13721">
        <ele>971.338</ele>
        <time>2020-09-03T14:59:26Z</time>
      </trkpt>
      <trkpt lat="43.90171" lon="5.1371">
        <ele>971.53</ele>
        <time>2020-09-03T14:59:28Z</time>
      </trkpt>
      <trkpt lat="43.90171" lon="5.1371">
        <ele>971.749</ele>
        <time>2020-09-03T14:59:28Z</time>
      </trkpt>
      <trkpt lat="43.90159" lon="5.13696">
        <ele>972.124</ele>
        <time>2020-09-03T14:59:30Z</time>
      </trkpt>
      <trkpt lat="43.90153" lon="5.13689">
        <ele>972.612</ele>
        <time>2020-09-03T14:59:31Z</time>
      </trkpt>
      <trkpt lat="43.90146" lon="5.13684">
        <ele>973.258</ele>
        <time>2020-09-03T14:59:32Z</time>
      </trkpt>
      <trkpt lat="43.9014" lon="5.1368">
        <ele>973.798</ele>
        <time>2020-09-03T14:59:33Z</time>
      </trkpt>
      <trkpt lat="43.90136" lon="5.13676">
        <ele>974.21</ele>
        <time>2020-09-03T14:59:34Z</time>
      </trkpt>
      <trkpt lat="43.90133" lon="5.1367">
        <ele>974.226</ele>
        <time>2020-09-03T14:59:35Z</time>
      </trkpt>
      <trkpt lat="43.90132" lon="5.13665">
        <ele>973.757</ele>
        <time>2020-09-03T14:59:36Z</time>
      </trkpt>
      <trkpt lat="43.90131" lon="5.13659">
        <ele>973.017</ele>
        <time>2020-09-03T14:59:37Z</time>
      </trkpt>
      <trkpt lat="43.90132" lon="5.13654">
        <ele>972.048</ele>
        <time>2020-09-03T14:59:38Z</time>
      </trkpt>
      <trkpt lat="43.90133" lon="5.13649">
        <ele>971.146</ele>
        <time>2020-09-03T14:59:39Z</time>
      </trkpt>
      <trkpt lat="43.90135" lon="5.13644">
        <ele>969.756</ele>
        <time>2020-09-03T14:59:40Z</time>
      </trkpt>
      <trkpt lat="43.90137" lon="5.13639">
        <ele>968.642</ele>
        <time>2020-09-03T14:59:41Z</time>
      </trkpt>
      <trkpt lat="43.90138" lon="5.13634">
        <ele>967.893</ele>
        <time>2020-09-03T14:59:42Z</time>
      </trkpt>
      <trkpt lat="43.9014" lon="5.13628">
        <ele>967.535</ele>
        <time>2020-09-03T14:59:43Z</time>
      </trkpt>
      <trkpt lat="43.9014" lon="5.13628">
        <ele>966.848</ele>
        <time>2020-09-03T14:59:43Z</time>
      </trkpt>
      <trkpt lat="43.90142" lon="5.1362">
        <ele>965.888</ele>
        <time>2020-09-03T14:59:45Z</time>
      </trkpt>
      <trkpt lat="43.90142" lon="5.13616">
        <ele>964.376</ele>
        <time>2020-09-03T14:59:46Z</time>
      </trkpt>
      <trkpt lat="43.9014" lon="5.13602">
        <ele>962.602</ele>
        <time>2020-09-03T14:59:48Z</time>
      </trkpt>
      <trkpt lat="43.9014" lon="5.13602">
        <ele>959.739</ele>
        <time>2020-09-03T14:59:48Z</time>
      </trkpt>
      <trkpt lat="43.90129" lon="5.13583">
        <ele>957.851</ele>
        <time>2020-09-03T14:59:50Z</time>
      </trkpt>
      <trkpt lat="43.90123" lon="5.13575">
        <ele>956.56</ele>
        <time>2020-09-03T14:59:51Z</time>
      </trkpt>
      <trkpt lat="43.90117" lon="5.13568">
        <ele>956.238</ele>
        <time>2020-09-03T14:59:52Z</time>
      </trkpt>
      <trkpt lat="43.90111" lon="5.13561">
        <ele>955.988</ele>
        <time>2020-09-03T14:59:53Z</time>
      </trkpt>
      <trkpt lat="43.90104" lon="5.13555">
        <ele>955</ele>
        <time>2020-09-03T14:59:54Z</time>
      </trkpt>
      <trkpt lat="43.90099" lon="5.13548">
        <ele>953.224</ele>
        <time>2020-09-03T14:59:55Z</time>
      </trkpt>
      <trkpt lat="43.90093" lon="5.1354">
        <ele>951.179</ele>
        <time>2020-09-03T14:59:56Z</time>
      </trkpt>
      <trkpt lat="43.90093" lon="5.1354">
        <ele>949.247</ele>
        <time>2020-09-03T14:59:56Z</time>
      </trkpt>
      <trkpt lat="43.90093" lon="5.1354">
        <ele>947.796</ele>
        <time>2020-09-03T14:59:56Z</time>
      </trkpt>
      <trkpt lat="43.90073" lon="5.13513">
        <ele>946.893</ele>
        <time>2020-09-03T14:59:59Z</time>
      </trkpt>
      <trkpt lat="43.90073" lon="5.13513">
        <ele>946.2</ele>
        <time>2020-09-03T14:59:59Z</time>
      </trkpt>
      <trkpt lat="43.90073" lon="5.13513">
        <ele>945.446</ele>
        <time>2020-09-03T14:59:59Z</time>
      </trkpt>
      <trkpt lat="43.90073" lon="5.13513">
        <ele>944.41</ele>
        <time>2020-09-03T14:59:59Z</time>
      </trkpt>
      <trkpt lat="43.90073" lon="5.13513">
        <ele>942.961</ele>
        <time>2020-09-03T14:59:59Z</time>
      </trkpt>
      <trkpt lat="43.90034" lon="5.13477">
        <ele>941.645</ele>
        <time>2020-09-03T15:00:04Z</time>
      </trkpt>
      <trkpt lat="43.90023" lon="5.13468">
        <ele>940.709</ele>
        <time>2020-09-03T15:00:05Z</time>
      </trkpt>
      <trkpt lat="43.90011" lon="5.13461">
        <ele>940.397</ele>
        <time>2020-09-03T15:00:06Z</time>
      </trkpt>
      <trkpt lat="43.9" lon="5.13455">
        <ele>940.469</ele>
        <time>2020-09-03T15:00:07Z</time>
      </trkpt>
      <trkpt lat="43.89989" lon="5.13449">
        <ele>940.711</ele>
        <time>2020-09-03T15:00:08Z</time>
      </trkpt>
      <trkpt lat="43.8997" lon="5.13439">
        <ele>940.71</ele>
        <time>2020-09-03T15:00:10Z</time>
      </trkpt>
      <trkpt lat="43.89961" lon="5.13433">
        <ele>940.585</ele>
        <time>2020-09-03T15:00:11Z</time>
      </trkpt>
      <trkpt lat="43.89952" lon="5.13426">
        <ele>940.402</ele>
        <time>2020-09-03T15:00:12Z</time>
      </trkpt>
      <trkpt lat="43.89944" lon="5.13418">
        <ele>939.901</ele>
        <time>2020-09-03T15:00:13Z</time>
      </trkpt>
      <trkpt lat="43.89935" lon="5.1341">
        <ele>939.203</ele>
        <time>2020-09-03T15:00:14Z</time>
      </trkpt>
      <trkpt lat="43.89925" lon="5.13402">
        <ele>938.863</ele>
        <time>2020-09-03T15:00:15Z</time>
      </trkpt>
      <trkpt lat="43.89915" lon="5.13394">
        <ele>939.222</ele>
        <time>2020-09-03T15:00:16Z</time>
      </trkpt>
      <trkpt lat="43.89904" lon="5.13387">
        <ele>940.104</ele>
        <time>2020-09-03T15:00:17Z</time>
      </trkpt>
      <trkpt lat="43.89894" lon="5.13382">
        <ele>941.355</ele>
        <time>2020-09-03T15:00:18Z</time>
      </trkpt>
      <trkpt lat="43.89885" lon="5.13376">
        <ele>942.51</ele>
        <time>2020-09-03T15:00:19Z</time>
      </trkpt>
      <trkpt lat="43.89868" lon="5.13363">
        <ele>943.67</ele>
        <time>2020-09-03T15:00:21Z</time>
      </trkpt>
      <trkpt lat="43.89861" lon="5.13356">
        <ele>944.525</ele>
        <time>2020-09-03T15:00:22Z</time>
      </trkpt>
      <trkpt lat="43.89855" lon="5.13349">
        <ele>945.222</ele>
        <time>2020-09-03T15:00:23Z</time>
      </trkpt>
      <trkpt lat="43.89855" lon="5.13349">
        <ele>945.853</ele>
        <time>2020-09-03T15:00:23Z</time>
      </trkpt>
      <trkpt lat="43.89853" lon="5.13337">
        <ele>946.298</ele>
        <time>2020-09-03T15:00:25Z</time>
      </trkpt>
      <trkpt lat="43.89856" lon="5.13334">
        <ele>946.306</ele>
        <time>2020-09-03T15:00:26Z</time>
      </trkpt>
      <trkpt lat="43.8986" lon="5.13335">
        <ele>946.016</ele>
        <time>2020-09-03T15:00:27Z</time>
      </trkpt>
      <trkpt lat="43.89865" lon="5.1334">
        <ele>945.601</ele>
        <time>2020-09-03T15:00:28Z</time>
      </trkpt>
      <trkpt lat="43.89865" lon="5.1334">
        <ele>945.546</ele>
        <time>2020-09-03T15:00:28Z</time>
      </trkpt>
      <trkpt lat="43.89868" lon="5.13365">
        <ele>946.234</ele>
        <time>2020-09-03T15:00:30Z</time>
      </trkpt>
      <trkpt lat="43.89865" lon="5.13379">
        <ele>947.168</ele>
        <time>2020-09-03T15:00:31Z</time>
      </trkpt>
      <trkpt lat="43.8986" lon="5.13394">
        <ele>948.332</ele>
        <time>2020-09-03T15:00:32Z</time>
      </trkpt>
      <trkpt lat="43.89853" lon="5.13407">
        <ele>949.145</ele>
        <time>2020-09-03T15:00:33Z</time>
      </trkpt>
      <trkpt lat="43.89853" lon="5.13407">
        <ele>949.601</ele>
        <time>2020-09-03T15:00:33Z</time>
      </trkpt>
      <trkpt lat="43.89835" lon="5.13434">
        <ele>949.72</ele>
        <time>2020-09-03T15:00:35Z</time>
      </trkpt>
      <trkpt lat="43.89823" lon="5.13445">
        <ele>949.645</ele>
        <time>2020-09-03T15:00:36Z</time>
      </trkpt>
      <trkpt lat="43.8981" lon="5.13454">
        <ele>949.584</ele>
        <time>2020-09-03T15:00:37Z</time>
      </trkpt>
      <trkpt lat="43.89797" lon="5.13463">
        <ele>949.92</ele>
        <time>2020-09-03T15:00:38Z</time>
      </trkpt>
      <trkpt lat="43.89784" lon="5.13472">
        <ele>950.59</ele>
        <time>2020-09-03T15:00:39Z</time>
      </trkpt>
      <trkpt lat="43.89784" lon="5.13472">
        <ele>950.988</ele>
        <time>2020-09-03T15:00:39Z</time>
      </trkpt>
      <trkpt lat="43.89759" lon="5.13491">
        <ele>951.526</ele>
        <time>2020-09-03T15:00:41Z</time>
      </trkpt>
      <trkpt lat="43.89747" lon="5.13501">
        <ele>951.937</ele>
        <time>2020-09-03T15:00:42Z</time>
      </trkpt>
      <trkpt lat="43.89747" lon="5.13501">
        <ele>952.015</ele>
        <time>2020-09-03T15:00:42Z</time>
      </trkpt>
      <trkpt lat="43.8972" lon="5.13519">
        <ele>951.651</ele>
        <time>2020-09-03T15:00:44Z</time>
      </trkpt>
      <trkpt lat="43.89692" lon="5.13524">
        <ele>950.697</ele>
        <time>2020-09-03T15:00:46Z</time>
      </trkpt>
      <trkpt lat="43.89679" lon="5.13521">
        <ele>949.359</ele>
        <time>2020-09-03T15:00:47Z</time>
      </trkpt>
      <trkpt lat="43.89668" lon="5.13515">
        <ele>947.747</ele>
        <time>2020-09-03T15:00:48Z</time>
      </trkpt>
      <trkpt lat="43.89668" lon="5.13515">
        <ele>946.112</ele>
        <time>2020-09-03T15:00:48Z</time>
      </trkpt>
      <trkpt lat="43.89649" lon="5.13501">
        <ele>943.65</ele>
        <time>2020-09-03T15:00:50Z</time>
      </trkpt>
      <trkpt lat="43.89641" lon="5.13493">
        <ele>941.081</ele>
        <time>2020-09-03T15:00:51Z</time>
      </trkpt>
      <trkpt lat="43.89633" lon="5.13486">
        <ele>937.678</ele>
        <time>2020-09-03T15:00:52Z</time>
      </trkpt>
      <trkpt lat="43.89626" lon="5.13478">
        <ele>934.17</ele>
        <time>2020-09-03T15:00:53Z</time>
      </trkpt>
      <trkpt lat="43.89626" lon="5.13478">
        <ele>930.34</ele>
        <time>2020-09-03T15:00:53Z</time>
      </trkpt>
      <trkpt lat="43.89614" lon="5.13459">
        <ele>926.762</ele>
        <time>2020-09-03T15:00:55Z</time>
      </trkpt>
      <trkpt lat="43.89608" lon="5.1345">
        <ele>923.008</ele>
        <time>2020-09-03T15:00:56Z</time>
      </trkpt>
      <trkpt lat="43.89602" lon="5.1344">
        <ele>919.094</ele>
        <time>2020-09-03T15:00:57Z</time>
      </trkpt>
      <trkpt lat="43.89596" lon="5.13431">
        <ele>915.868</ele>
        <time>2020-09-03T15:00:58Z</time>
      </trkpt>
      <trkpt lat="43.89596" lon="5.13431">
        <ele>912.131</ele>
        <time>2020-09-03T15:00:58Z</time>
      </trkpt>
      <trkpt lat="43.89584" lon="5.13411">
        <ele>908.283</ele>
        <time>2020-09-03T15:01:00Z</time>
      </trkpt>
      <trkpt lat="43.89578" lon="5.13401">
        <ele>904.779</ele>
        <time>2020-09-03T15:01:01Z</time>
      </trkpt>
      <trkpt lat="43.89573" lon="5.13391">
        <ele>901.635</ele>
        <time>2020-09-03T15:01:02Z</time>
      </trkpt>
      <trkpt lat="43.89566" lon="5.13381">
        <ele>899.15</ele>
        <time>2020-09-03T15:01:03Z</time>
      </trkpt>
      <trkpt lat="43.89559" lon="5.13372">
        <ele>896.585</ele>
        <time>2020-09-03T15:01:04Z</time>
      </trkpt>
      <trkpt lat="43.89552" lon="5.13363">
        <ele>894.419</ele>
        <time>2020-09-03T15:01:05Z</time>
      </trkpt>
      <trkpt lat="43.89545" lon="5.13355">
        <ele>891.774</ele>
        <time>2020-09-03T15:01:06Z</time>
      </trkpt>
      <trkpt lat="43.89545" lon="5.13355">
        <ele>890.771</ele>
        <time>2020-09-03T15:01:06Z</time>
      </trkpt>
      <trkpt lat="43.89545" lon="5.13355">
        <ele>888.032</ele>
        <time>2020-09-03T15:01:06Z</time>
      </trkpt>
      <trkpt lat="43.89518" lon="5.13326">
        <ele>885.039</ele>
        <time>2020-09-03T15:01:10Z</time>
      </trkpt>
      <trkpt lat="43.8951" lon="5.13319">
        <ele>882.225</ele>
        <time>2020-09-03T15:01:11Z</time>
      </trkpt>
      <trkpt lat="43.89502" lon="5.13313">
        <ele>879.282</ele>
        <time>2020-09-03T15:01:12Z</time>
      </trkpt>
      <trkpt lat="43.89495" lon="5.13306">
        <ele>875.823</ele>
        <time>2020-09-03T15:01:13Z</time>
      </trkpt>
      <trkpt lat="43.89487" lon="5.133">
        <ele>872.519</ele>
        <time>2020-09-03T15:01:14Z</time>
      </trkpt>
      <trkpt lat="43.8948" lon="5.13292">
        <ele>869.057</ele>
        <time>2020-09-03T15:01:15Z</time>
      </trkpt>
      <trkpt lat="43.89472" lon="5.13284">
        <ele>865.587</ele>
        <time>2020-09-03T15:01:16Z</time>
      </trkpt>
      <trkpt lat="43.89465" lon="5.13275">
        <ele>862.519</ele>
        <time>2020-09-03T15:01:17Z</time>
      </trkpt>
      <trkpt lat="43.89465" lon="5.13275">
        <ele>860.054</ele>
        <time>2020-09-03T15:01:17Z</time>
      </trkpt>
      <trkpt lat="43.8945" lon="5.13259">
        <ele>857.424</ele>
        <time>2020-09-03T15:01:19Z</time>
      </trkpt>
      <trkpt lat="43.89443" lon="5.13251">
        <ele>854.383</ele>
        <time>2020-09-03T15:01:20Z</time>
      </trkpt>
      <trkpt lat="43.89437" lon="5.13244">
        <ele>850.85</ele>
        <time>2020-09-03T15:01:21Z</time>
      </trkpt>
      <trkpt lat="43.8943" lon="5.13234">
        <ele>846.825</ele>
        <time>2020-09-03T15:01:22Z</time>
      </trkpt>
      <trkpt lat="43.89423" lon="5.13224">
        <ele>843.292</ele>
        <time>2020-09-03T15:01:23Z</time>
      </trkpt>
      <trkpt lat="43.89415" lon="5.13215">
        <ele>840.136</ele>
        <time>2020-09-03T15:01:24Z</time>
      </trkpt>
      <trkpt lat="43.89406" lon="5.13206">
        <ele>837.585</ele>
        <time>2020-09-03T15:01:25Z</time>
      </trkpt>
      <trkpt lat="43.89398" lon="5.13198">
        <ele>834.161</ele>
        <time>2020-09-03T15:01:26Z</time>
      </trkpt>
      <trkpt lat="43.89388" lon="5.13189">
        <ele>830.267</ele>
        <time>2020-09-03T15:01:27Z</time>
      </trkpt>
      <trkpt lat="43.89378" lon="5.1318">
        <ele>826.282</ele>
        <time>2020-09-03T15:01:28Z</time>
      </trkpt>
      <trkpt lat="43.89356" lon="5.13162">
        <ele>822.868</ele>
        <time>2020-09-03T15:01:30Z</time>
      </trkpt>
      <trkpt lat="43.89346" lon="5.13153">
        <ele>820.007</ele>
        <time>2020-09-03T15:01:31Z</time>
      </trkpt>
      <trkpt lat="43.89337" lon="5.13145">
        <ele>817.581</ele>
        <time>2020-09-03T15:01:32Z</time>
      </trkpt>
      <trkpt lat="43.89328" lon="5.13137">
        <ele>815.253</ele>
        <time>2020-09-03T15:01:33Z</time>
      </trkpt>
      <trkpt lat="43.89318" lon="5.1313">
        <ele>811.981</ele>
        <time>2020-09-03T15:01:34Z</time>
      </trkpt>
      <trkpt lat="43.89307" lon="5.13123">
        <ele>808.81</ele>
        <time>2020-09-03T15:01:35Z</time>
      </trkpt>
      <trkpt lat="43.89307" lon="5.13123">
        <ele>806.515</ele>
        <time>2020-09-03T15:01:35Z</time>
      </trkpt>
      <trkpt lat="43.89289" lon="5.13103">
        <ele>803.894</ele>
        <time>2020-09-03T15:01:37Z</time>
      </trkpt>
      <trkpt lat="43.89282" lon="5.13093">
        <ele>802.288</ele>
        <time>2020-09-03T15:01:38Z</time>
      </trkpt>
      <trkpt lat="43.89274" lon="5.13084">
        <ele>801.191</ele>
        <time>2020-09-03T15:01:39Z</time>
      </trkpt>
      <trkpt lat="43.89265" lon="5.13076">
        <ele>800.253</ele>
        <time>2020-09-03T15:01:40Z</time>
      </trkpt>
      <trkpt lat="43.89257" lon="5.13069">
        <ele>799.631</ele>
        <time>2020-09-03T15:01:41Z</time>
      </trkpt>
      <trkpt lat="43.8925" lon="5.1306">
        <ele>798.892</ele>
        <time>2020-09-03T15:01:42Z</time>
      </trkpt>
      <trkpt lat="43.89244" lon="5.13052">
        <ele>797.965</ele>
        <time>2020-09-03T15:01:43Z</time>
      </trkpt>
      <trkpt lat="43.89236" lon="5.13044">
        <ele>796.6</ele>
        <time>2020-09-03T15:01:44Z</time>
      </trkpt>
      <trkpt lat="43.89228" lon="5.13037">
        <ele>794.654</ele>
        <time>2020-09-03T15:01:45Z</time>
      </trkpt>
      <trkpt lat="43.89228" lon="5.13037">
        <ele>792.494</ele>
        <time>2020-09-03T15:01:45Z</time>
      </trkpt>
      <trkpt lat="43.89228" lon="5.13037">
        <ele>790.342</ele>
        <time>2020-09-03T15:01:45Z</time>
      </trkpt>
      <trkpt lat="43.89228" lon="5.13037">
        <ele>788.723</ele>
        <time>2020-09-03T15:01:45Z</time>
      </trkpt>
      <trkpt lat="43.89188" lon="5.13003">
        <ele>786.876</ele>
        <time>2020-09-03T15:01:49Z</time>
      </trkpt>
      <trkpt lat="43.89176" lon="5.12997">
        <ele>785.566</ele>
        <time>2020-09-03T15:01:50Z</time>
      </trkpt>
      <trkpt lat="43.89155" lon="5.12985">
        <ele>784.059</ele>
        <time>2020-09-03T15:01:52Z</time>
      </trkpt>
      <trkpt lat="43.89144" lon="5.12979">
        <ele>781.976</ele>
        <time>2020-09-03T15:01:53Z</time>
      </trkpt>
      <trkpt lat="43.89144" lon="5.12979">
        <ele>779.407</ele>
        <time>2020-09-03T15:01:53Z</time>
      </trkpt>
      <trkpt lat="43.8912" lon="5.12965">
        <ele>776.889</ele>
        <time>2020-09-03T15:01:55Z</time>
      </trkpt>
      <trkpt lat="43.89108" lon="5.1296">
        <ele>774.611</ele>
        <time>2020-09-03T15:01:56Z</time>
      </trkpt>
      <trkpt lat="43.89095" lon="5.12955">
        <ele>773.155</ele>
        <time>2020-09-03T15:01:57Z</time>
      </trkpt>
      <trkpt lat="43.89084" lon="5.1295">
        <ele>771.62</ele>
        <time>2020-09-03T15:01:58Z</time>
      </trkpt>
      <trkpt lat="43.89073" lon="5.12944">
        <ele>769.768</ele>
        <time>2020-09-03T15:01:59Z</time>
      </trkpt>
      <trkpt lat="43.89062" lon="5.12938">
        <ele>767.319</ele>
        <time>2020-09-03T15:02:00Z</time>
      </trkpt>
      <trkpt lat="43.89049" lon="5.12932">
        <ele>764.931</ele>
        <time>2020-09-03T15:02:01Z</time>
      </trkpt>
      <trkpt lat="43.89037" lon="5.12925">
        <ele>762.43</ele>
        <time>2020-09-03T15:02:02Z</time>
      </trkpt>
      <trkpt lat="43.89025" lon="5.12919">
        <ele>759.977</ele>
        <time>2020-09-03T15:02:03Z</time>
      </trkpt>
      <trkpt lat="43.89025" lon="5.12919">
        <ele>759.054</ele>
        <time>2020-09-03T15:02:03Z</time>
      </trkpt>
      <trkpt lat="43.89" lon="5.12908">
        <ele>756.758</ele>
        <time>2020-09-03T15:02:05Z</time>
      </trkpt>
      <trkpt lat="43.88988" lon="5.12904">
        <ele>754.779</ele>
        <time>2020-09-03T15:02:06Z</time>
      </trkpt>
      <trkpt lat="43.88976" lon="5.12898">
        <ele>752.484</ele>
        <time>2020-09-03T15:02:07Z</time>
      </trkpt>
      <trkpt lat="43.88964" lon="5.12892">
        <ele>749.923</ele>
        <time>2020-09-03T15:02:08Z</time>
      </trkpt>
      <trkpt lat="43.88937" lon="5.12881">
        <ele>747.855</ele>
        <time>2020-09-03T15:02:10Z</time>
      </trkpt>
      <trkpt lat="43.88924" lon="5.12877">
        <ele>745.856</ele>
        <time>2020-09-03T15:02:11Z</time>
      </trkpt>
      <trkpt lat="43.88911" lon="5.12871">
        <ele>743.927</ele>
        <time>2020-09-03T15:02:12Z</time>
      </trkpt>
      <trkpt lat="43.88899" lon="5.12864">
        <ele>742.049</ele>
        <time>2020-09-03T15:02:13Z</time>
      </trkpt>
      <trkpt lat="43.88899" lon="5.12864">
        <ele>740.156</ele>
        <time>2020-09-03T15:02:13Z</time>
      </trkpt>
      <trkpt lat="43.88876" lon="5.12846">
        <ele>737.946</ele>
        <time>2020-09-03T15:02:15Z</time>
      </trkpt>
      <trkpt lat="43.88865" lon="5.12836">
        <ele>735.736</ele>
        <time>2020-09-03T15:02:16Z</time>
      </trkpt>
      <trkpt lat="43.88855" lon="5.12827">
        <ele>733.391</ele>
        <time>2020-09-03T15:02:17Z</time>
      </trkpt>
      <trkpt lat="43.88844" lon="5.12818">
        <ele>730.738</ele>
        <time>2020-09-03T15:02:18Z</time>
      </trkpt>
      <trkpt lat="43.88833" lon="5.1281">
        <ele>728.22</ele>
        <time>2020-09-03T15:02:19Z</time>
      </trkpt>
      <trkpt lat="43.88821" lon="5.12801">
        <ele>725.435</ele>
        <time>2020-09-03T15:02:20Z</time>
      </trkpt>
      <trkpt lat="43.88811" lon="5.12793">
        <ele>722.893</ele>
        <time>2020-09-03T15:02:21Z</time>
      </trkpt>
      <trkpt lat="43.88801" lon="5.12785">
        <ele>720.845</ele>
        <time>2020-09-03T15:02:22Z</time>
      </trkpt>
      <trkpt lat="43.88791" lon="5.12778">
        <ele>718.903</ele>
        <time>2020-09-03T15:02:23Z</time>
      </trkpt>
      <trkpt lat="43.88782" lon="5.12772">
        <ele>716.967</ele>
        <time>2020-09-03T15:02:24Z</time>
      </trkpt>
      <trkpt lat="43.88772" lon="5.12764">
        <ele>715.122</ele>
        <time>2020-09-03T15:02:25Z</time>
      </trkpt>
      <trkpt lat="43.88763" lon="5.12755">
        <ele>713.78</ele>
        <time>2020-09-03T15:02:26Z</time>
      </trkpt>
      <trkpt lat="43.88753" lon="5.12746">
        <ele>712.838</ele>
        <time>2020-09-03T15:02:27Z</time>
      </trkpt>
      <trkpt lat="43.88753" lon="5.12746">
        <ele>712.21</ele>
        <time>2020-09-03T15:02:27Z</time>
      </trkpt>
      <trkpt lat="43.88726" lon="5.12719">
        <ele>711.542</ele>
        <time>2020-09-03T15:02:30Z</time>
      </trkpt>
      <trkpt lat="43.88717" lon="5.1271">
        <ele>710.553</ele>
        <time>2020-09-03T15:02:31Z</time>
      </trkpt>
      <trkpt lat="43.88706" lon="5.12701">
        <ele>709.852</ele>
        <time>2020-09-03T15:02:32Z</time>
      </trkpt>
      <trkpt lat="43.88696" lon="5.12691">
        <ele>708.429</ele>
        <time>2020-09-03T15:02:33Z</time>
      </trkpt>
      <trkpt lat="43.88696" lon="5.12691">
        <ele>707.618</ele>
        <time>2020-09-03T15:02:33Z</time>
      </trkpt>
      <trkpt lat="43.88678" lon="5.12671">
        <ele>707.6</ele>
        <time>2020-09-03T15:02:35Z</time>
      </trkpt>
      <trkpt lat="43.88668" lon="5.12663">
        <ele>708.265</ele>
        <time>2020-09-03T15:02:36Z</time>
      </trkpt>
      <trkpt lat="43.88657" lon="5.12658">
        <ele>709.339</ele>
        <time>2020-09-03T15:02:37Z</time>
      </trkpt>
      <trkpt lat="43.88647" lon="5.12654">
        <ele>710.943</ele>
        <time>2020-09-03T15:02:38Z</time>
      </trkpt>
      <trkpt lat="43.88647" lon="5.12654">
        <ele>712.925</ele>
        <time>2020-09-03T15:02:38Z</time>
      </trkpt>
      <trkpt lat="43.8863" lon="5.12647">
        <ele>714.616</ele>
        <time>2020-09-03T15:02:40Z</time>
      </trkpt>
      <trkpt lat="43.88623" lon="5.12643">
        <ele>715.915</ele>
        <time>2020-09-03T15:02:41Z</time>
      </trkpt>
      <trkpt lat="43.88618" lon="5.12638">
        <ele>716.664</ele>
        <time>2020-09-03T15:02:42Z</time>
      </trkpt>
      <trkpt lat="43.88616" lon="5.12631">
        <ele>716.942</ele>
        <time>2020-09-03T15:02:43Z</time>
      </trkpt>
      <trkpt lat="43.88616" lon="5.12625">
        <ele>716.871</ele>
        <time>2020-09-03T15:02:44Z</time>
      </trkpt>
      <trkpt lat="43.88619" lon="5.1262">
        <ele>716.909</ele>
        <time>2020-09-03T15:02:45Z</time>
      </trkpt>
      <trkpt lat="43.88623" lon="5.12619">
        <ele>717.189</ele>
        <time>2020-09-03T15:02:46Z</time>
      </trkpt>
      <trkpt lat="43.88628" lon="5.12622">
        <ele>717.488</ele>
        <time>2020-09-03T15:02:47Z</time>
      </trkpt>
      <trkpt lat="43.88631" lon="5.12629">
        <ele>717.497</ele>
        <time>2020-09-03T15:02:48Z</time>
      </trkpt>
      <trkpt lat="43.88634" lon="5.12639">
        <ele>717.173</ele>
        <time>2020-09-03T15:02:49Z</time>
      </trkpt>
      <trkpt lat="43.88637" lon="5.12651">
        <ele>716.516</ele>
        <time>2020-09-03T15:02:50Z</time>
      </trkpt>
      <trkpt lat="43.88637" lon="5.12651">
        <ele>715.891</ele>
        <time>2020-09-03T15:02:50Z</time>
      </trkpt>
      <trkpt lat="43.88635" lon="5.12693">
        <ele>715.512</ele>
        <time>2020-09-03T15:02:53Z</time>
      </trkpt>
      <trkpt lat="43.88635" lon="5.12693">
        <ele>715.429</ele>
        <time>2020-09-03T15:02:53Z</time>
      </trkpt>
      <trkpt lat="43.88622" lon="5.12721">
        <ele>715.788</ele>
        <time>2020-09-03T15:02:55Z</time>
      </trkpt>
      <trkpt lat="43.88612" lon="5.1273">
        <ele>716.285</ele>
        <time>2020-09-03T15:02:56Z</time>
      </trkpt>
      <trkpt lat="43.88601" lon="5.12736">
        <ele>717.068</ele>
        <time>2020-09-03T15:02:57Z</time>
      </trkpt>
      <trkpt lat="43.8859" lon="5.12741">
        <ele>717.76</ele>
        <time>2020-09-03T15:02:58Z</time>
      </trkpt>
      <trkpt lat="43.88579" lon="5.12745">
        <ele>718.457</ele>
        <time>2020-09-03T15:02:59Z</time>
      </trkpt>
      <trkpt lat="43.88568" lon="5.12747">
        <ele>718.896</ele>
        <time>2020-09-03T15:03:00Z</time>
      </trkpt>
      <trkpt lat="43.88557" lon="5.12748">
        <ele>719.488</ele>
        <time>2020-09-03T15:03:01Z</time>
      </trkpt>
      <trkpt lat="43.88545" lon="5.12748">
        <ele>720.12</ele>
        <time>2020-09-03T15:03:02Z</time>
      </trkpt>
      <trkpt lat="43.88535" lon="5.12747">
        <ele>720.752</ele>
        <time>2020-09-03T15:03:03Z</time>
      </trkpt>
      <trkpt lat="43.88526" lon="5.12743">
        <ele>721.211</ele>
        <time>2020-09-03T15:03:04Z</time>
      </trkpt>
      <trkpt lat="43.8852" lon="5.12736">
        <ele>721.59</ele>
        <time>2020-09-03T15:03:05Z</time>
      </trkpt>
      <trkpt lat="43.88515" lon="5.12728">
        <ele>721.863</ele>
        <time>2020-09-03T15:03:06Z</time>
      </trkpt>
      <trkpt lat="43.88513" lon="5.12721">
        <ele>722.423</ele>
        <time>2020-09-03T15:03:07Z</time>
      </trkpt>
      <trkpt lat="43.88512" lon="5.12714">
        <ele>723.224</ele>
        <time>2020-09-03T15:03:08Z</time>
      </trkpt>
      <trkpt lat="43.88512" lon="5.12708">
        <ele>724.592</ele>
        <time>2020-09-03T15:03:09Z</time>
      </trkpt>
      <trkpt lat="43.88512" lon="5.12701">
        <ele>725.708</ele>
        <time>2020-09-03T15:03:10Z</time>
      </trkpt>
      <trkpt lat="43.88512" lon="5.12695">
        <ele>726.813</ele>
        <time>2020-09-03T15:03:11Z</time>
      </trkpt>
      <trkpt lat="43.88511" lon="5.12689">
        <ele>727.542</ele>
        <time>2020-09-03T15:03:12Z</time>
      </trkpt>
      <trkpt lat="43.88511" lon="5.12689">
        <ele>728.285</ele>
        <time>2020-09-03T15:03:12Z</time>
      </trkpt>
      <trkpt lat="43.88519" lon="5.12676">
        <ele>728.719</ele>
        <time>2020-09-03T15:03:15Z</time>
      </trkpt>
      <trkpt lat="43.88524" lon="5.12676">
        <ele>729.072</ele>
        <time>2020-09-03T15:03:16Z</time>
      </trkpt>
      <trkpt lat="43.8853" lon="5.12681">
        <ele>729.56</ele>
        <time>2020-09-03T15:03:17Z</time>
      </trkpt>
      <trkpt lat="43.88535" lon="5.12689">
        <ele>730.004</ele>
        <time>2020-09-03T15:03:18Z</time>
      </trkpt>
      <trkpt lat="43.88537" lon="5.12701">
        <ele>730.373</ele>
        <time>2020-09-03T15:03:19Z</time>
      </trkpt>
      <trkpt lat="43.88537" lon="5.12716">
        <ele>730.371</ele>
        <time>2020-09-03T15:03:20Z</time>
      </trkpt>
      <trkpt lat="43.88534" lon="5.12732">
        <ele>730.011</ele>
        <time>2020-09-03T15:03:21Z</time>
      </trkpt>
      <trkpt lat="43.88529" lon="5.12747">
        <ele>729.2</ele>
        <time>2020-09-03T15:03:22Z</time>
      </trkpt>
      <trkpt lat="43.88521" lon="5.12761">
        <ele>728.081</ele>
        <time>2020-09-03T15:03:23Z</time>
      </trkpt>
      <trkpt lat="43.88511" lon="5.12773">
        <ele>726.545</ele>
        <time>2020-09-03T15:03:24Z</time>
      </trkpt>
      <trkpt lat="43.88499" lon="5.12782">
        <ele>724.92</ele>
        <time>2020-09-03T15:03:25Z</time>
      </trkpt>
      <trkpt lat="43.88486" lon="5.12789">
        <ele>723.979</ele>
        <time>2020-09-03T15:03:26Z</time>
      </trkpt>
      <trkpt lat="43.88472" lon="5.12793">
        <ele>723.836</ele>
        <time>2020-09-03T15:03:27Z</time>
      </trkpt>
      <trkpt lat="43.88472" lon="5.12793">
        <ele>724.179</ele>
        <time>2020-09-03T15:03:27Z</time>
      </trkpt>
      <trkpt lat="43.88448" lon="5.128">
        <ele>725.069</ele>
        <time>2020-09-03T15:03:29Z</time>
      </trkpt>
      <trkpt lat="43.88436" lon="5.12805">
        <ele>726.126</ele>
        <time>2020-09-03T15:03:30Z</time>
      </trkpt>
      <trkpt lat="43.88425" lon="5.1281">
        <ele>727.335</ele>
        <time>2020-09-03T15:03:31Z</time>
      </trkpt>
      <trkpt lat="43.88413" lon="5.12815">
        <ele>728.64</ele>
        <time>2020-09-03T15:03:32Z</time>
      </trkpt>
      <trkpt lat="43.88404" lon="5.12818">
        <ele>729.681</ele>
        <time>2020-09-03T15:03:33Z</time>
      </trkpt>
      <trkpt lat="43.88394" lon="5.12817">
        <ele>730.502</ele>
        <time>2020-09-03T15:03:34Z</time>
      </trkpt>
      <trkpt lat="43.88379" lon="5.12805">
        <ele>730.702</ele>
        <time>2020-09-03T15:03:36Z</time>
      </trkpt>
      <trkpt lat="43.88376" lon="5.12796">
        <ele>730.36</ele>
        <time>2020-09-03T15:03:37Z</time>
      </trkpt>
      <trkpt lat="43.88376" lon="5.12789">
        <ele>729.979</ele>
        <time>2020-09-03T15:03:38Z</time>
      </trkpt>
      <trkpt lat="43.8838" lon="5.12787">
        <ele>729.539</ele>
        <time>2020-09-03T15:03:39Z</time>
      </trkpt>
      <trkpt lat="43.88385" lon="5.12789">
        <ele>729.124</ele>
        <time>2020-09-03T15:03:40Z</time>
      </trkpt>
      <trkpt lat="43.8839" lon="5.12794">
        <ele>728.733</ele>
        <time>2020-09-03T15:03:41Z</time>
      </trkpt>
      <trkpt lat="43.88395" lon="5.12802">
        <ele>728.67</ele>
        <time>2020-09-03T15:03:42Z</time>
      </trkpt>
      <trkpt lat="43.88397" lon="5.12811">
        <ele>728.885</ele>
        <time>2020-09-03T15:03:43Z</time>
      </trkpt>
      <trkpt lat="43.88398" lon="5.12823">
        <ele>729.225</ele>
        <time>2020-09-03T15:03:44Z</time>
      </trkpt>
      <trkpt lat="43.88396" lon="5.12837">
        <ele>729.409</ele>
        <time>2020-09-03T15:03:45Z</time>
      </trkpt>
      <trkpt lat="43.8839" lon="5.12851">
        <ele>729.307</ele>
        <time>2020-09-03T15:03:46Z</time>
      </trkpt>
      <trkpt lat="43.8839" lon="5.12851">
        <ele>729.15</ele>
        <time>2020-09-03T15:03:46Z</time>
      </trkpt>
      <trkpt lat="43.8839" lon="5.12851">
        <ele>729.1</ele>
        <time>2020-09-03T15:03:46Z</time>
      </trkpt>
      <trkpt lat="43.8836" lon="5.12886">
        <ele>729.309</ele>
        <time>2020-09-03T15:03:49Z</time>
      </trkpt>
      <trkpt lat="43.88347" lon="5.12893">
        <ele>729.816</ele>
        <time>2020-09-03T15:03:50Z</time>
      </trkpt>
      <trkpt lat="43.88336" lon="5.12898">
        <ele>730.575</ele>
        <time>2020-09-03T15:03:51Z</time>
      </trkpt>
      <trkpt lat="43.88324" lon="5.12903">
        <ele>731.281</ele>
        <time>2020-09-03T15:03:52Z</time>
      </trkpt>
      <trkpt lat="43.88313" lon="5.12908">
        <ele>731.969</ele>
        <time>2020-09-03T15:03:53Z</time>
      </trkpt>
      <trkpt lat="43.88303" lon="5.12915">
        <ele>732.329</ele>
        <time>2020-09-03T15:03:54Z</time>
      </trkpt>
      <trkpt lat="43.88292" lon="5.12922">
        <ele>732.459</ele>
        <time>2020-09-03T15:03:55Z</time>
      </trkpt>
      <trkpt lat="43.8827" lon="5.12932">
        <ele>732.424</ele>
        <time>2020-09-03T15:03:57Z</time>
      </trkpt>
      <trkpt lat="43.88258" lon="5.12932">
        <ele>732.291</ele>
        <time>2020-09-03T15:03:58Z</time>
      </trkpt>
      <trkpt lat="43.88258" lon="5.12932">
        <ele>731.924</ele>
        <time>2020-09-03T15:03:58Z</time>
      </trkpt>
      <trkpt lat="43.88235" lon="5.12927">
        <ele>731.291</ele>
        <time>2020-09-03T15:04:00Z</time>
      </trkpt>
      <trkpt lat="43.88224" lon="5.12924">
        <ele>730.483</ele>
        <time>2020-09-03T15:04:01Z</time>
      </trkpt>
      <trkpt lat="43.88213" lon="5.12921">
        <ele>729.613</ele>
        <time>2020-09-03T15:04:02Z</time>
      </trkpt>
      <trkpt lat="43.88202" lon="5.12917">
        <ele>728.424</ele>
        <time>2020-09-03T15:04:03Z</time>
      </trkpt>
      <trkpt lat="43.88191" lon="5.12911">
        <ele>727.497</ele>
        <time>2020-09-03T15:04:04Z</time>
      </trkpt>
      <trkpt lat="43.88181" lon="5.12904">
        <ele>726.937</ele>
        <time>2020-09-03T15:04:05Z</time>
      </trkpt>
      <trkpt lat="43.88173" lon="5.12897">
        <ele>726.594</ele>
        <time>2020-09-03T15:04:06Z</time>
      </trkpt>
      <trkpt lat="43.88165" lon="5.1289">
        <ele>725.985</ele>
        <time>2020-09-03T15:04:07Z</time>
      </trkpt>
      <trkpt lat="43.88165" lon="5.1289">
        <ele>724.858</ele>
        <time>2020-09-03T15:04:07Z</time>
      </trkpt>
      <trkpt lat="43.88143" lon="5.12866">
        <ele>723.315</ele>
        <time>2020-09-03T15:04:10Z</time>
      </trkpt>
      <trkpt lat="43.88136" lon="5.12857">
        <ele>721.973</ele>
        <time>2020-09-03T15:04:11Z</time>
      </trkpt>
      <trkpt lat="43.88129" lon="5.12849">
        <ele>720.917</ele>
        <time>2020-09-03T15:04:12Z</time>
      </trkpt>
      <trkpt lat="43.88122" lon="5.12841">
        <ele>720.036</ele>
        <time>2020-09-03T15:04:13Z</time>
      </trkpt>
      <trkpt lat="43.88115" lon="5.12835">
        <ele>719.174</ele>
        <time>2020-09-03T15:04:14Z</time>
      </trkpt>
      <trkpt lat="43.88108" lon="5.12828">
        <ele>717.915</ele>
        <time>2020-09-03T15:04:15Z</time>
      </trkpt>
      <trkpt lat="43.88101" lon="5.12821">
        <ele>716.628</ele>
        <time>2020-09-03T15:04:16Z</time>
      </trkpt>
      <trkpt lat="43.88093" lon="5.12813">
        <ele>715.482</ele>
        <time>2020-09-03T15:04:17Z</time>
      </trkpt>
      <trkpt lat="43.88086" lon="5.12806">
        <ele>714.565</ele>
        <time>2020-09-03T15:04:18Z</time>
      </trkpt>
      <trkpt lat="43.88079" lon="5.128">
        <ele>713.808</ele>
        <time>2020-09-03T15:04:19Z</time>
      </trkpt>
      <trkpt lat="43.88072" lon="5.12793">
        <ele>713.116</ele>
        <time>2020-09-03T15:04:20Z</time>
      </trkpt>
      <trkpt lat="43.88065" lon="5.12787">
        <ele>712.496</ele>
        <time>2020-09-03T15:04:21Z</time>
      </trkpt>
      <trkpt lat="43.88059" lon="5.1278">
        <ele>711.582</ele>
        <time>2020-09-03T15:04:22Z</time>
      </trkpt>
      <trkpt lat="43.88052" lon="5.12772">
        <ele>710.349</ele>
        <time>2020-09-03T15:04:23Z</time>
      </trkpt>
      <trkpt lat="43.88045" lon="5.12765">
        <ele>709.335</ele>
        <time>2020-09-03T15:04:24Z</time>
      </trkpt>
      <trkpt lat="43.88037" lon="5.12759">
        <ele>707.452</ele>
        <time>2020-09-03T15:04:25Z</time>
      </trkpt>
      <trkpt lat="43.88029" lon="5.12752">
        <ele>705.715</ele>
        <time>2020-09-03T15:04:26Z</time>
      </trkpt>
      <trkpt lat="43.88021" lon="5.12745">
        <ele>703.744</ele>
        <time>2020-09-03T15:04:27Z</time>
      </trkpt>
      <trkpt lat="43.88013" lon="5.12738">
        <ele>701.757</ele>
        <time>2020-09-03T15:04:28Z</time>
      </trkpt>
      <trkpt lat="43.88005" lon="5.1273">
        <ele>699.809</ele>
        <time>2020-09-03T15:04:29Z</time>
      </trkpt>
      <trkpt lat="43.87997" lon="5.12722">
        <ele>698.244</ele>
        <time>2020-09-03T15:04:30Z</time>
      </trkpt>
      <trkpt lat="43.87997" lon="5.12722">
        <ele>696.804</ele>
        <time>2020-09-03T15:04:30Z</time>
      </trkpt>
      <trkpt lat="43.8798" lon="5.12709">
        <ele>695.304</ele>
        <time>2020-09-03T15:04:32Z</time>
      </trkpt>
      <trkpt lat="43.87971" lon="5.12702">
        <ele>693.987</ele>
        <time>2020-09-03T15:04:33Z</time>
      </trkpt>
      <trkpt lat="43.87954" lon="5.12689">
        <ele>692.263</ele>
        <time>2020-09-03T15:04:35Z</time>
      </trkpt>
      <trkpt lat="43.87946" lon="5.12682">
        <ele>689.782</ele>
        <time>2020-09-03T15:04:36Z</time>
      </trkpt>
      <trkpt lat="43.87938" lon="5.12674">
        <ele>687.305</ele>
        <time>2020-09-03T15:04:37Z</time>
      </trkpt>
      <trkpt lat="43.8793" lon="5.12667">
        <ele>684.711</ele>
        <time>2020-09-03T15:04:38Z</time>
      </trkpt>
      <trkpt lat="43.87921" lon="5.1266">
        <ele>682.565</ele>
        <time>2020-09-03T15:04:39Z</time>
      </trkpt>
      <trkpt lat="43.87913" lon="5.12653">
        <ele>680.113</ele>
        <time>2020-09-03T15:04:40Z</time>
      </trkpt>
      <trkpt lat="43.87904" lon="5.12647">
        <ele>677.913</ele>
        <time>2020-09-03T15:04:41Z</time>
      </trkpt>
      <trkpt lat="43.87896" lon="5.12641">
        <ele>675.688</ele>
        <time>2020-09-03T15:04:42Z</time>
      </trkpt>
      <trkpt lat="43.87887" lon="5.12635">
        <ele>673.309</ele>
        <time>2020-09-03T15:04:43Z</time>
      </trkpt>
      <trkpt lat="43.87877" lon="5.12629">
        <ele>670.801</ele>
        <time>2020-09-03T15:04:44Z</time>
      </trkpt>
      <trkpt lat="43.87867" lon="5.12624">
        <ele>668.27</ele>
        <time>2020-09-03T15:04:45Z</time>
      </trkpt>
      <trkpt lat="43.87857" lon="5.12619">
        <ele>665.894</ele>
        <time>2020-09-03T15:04:46Z</time>
      </trkpt>
      <trkpt lat="43.87847" lon="5.12614">
        <ele>663.922</ele>
        <time>2020-09-03T15:04:47Z</time>
      </trkpt>
      <trkpt lat="43.87837" lon="5.1261">
        <ele>662.007</ele>
        <time>2020-09-03T15:04:48Z</time>
      </trkpt>
      <trkpt lat="43.87827" lon="5.12606">
        <ele>660.067</ele>
        <time>2020-09-03T15:04:49Z</time>
      </trkpt>
      <trkpt lat="43.87817" lon="5.12603">
        <ele>658.098</ele>
        <time>2020-09-03T15:04:50Z</time>
      </trkpt>
      <trkpt lat="43.87806" lon="5.12599">
        <ele>655.642</ele>
        <time>2020-09-03T15:04:51Z</time>
      </trkpt>
      <trkpt lat="43.87806" lon="5.12599">
        <ele>654.505</ele>
        <time>2020-09-03T15:04:51Z</time>
      </trkpt>
      <trkpt lat="43.87785" lon="5.12592">
        <ele>651.276</ele>
        <time>2020-09-03T15:04:53Z</time>
      </trkpt>
      <trkpt lat="43.87775" lon="5.12588">
        <ele>647.837</ele>
        <time>2020-09-03T15:04:54Z</time>
      </trkpt>
      <trkpt lat="43.87764" lon="5.12585">
        <ele>645.123</ele>
        <time>2020-09-03T15:04:55Z</time>
      </trkpt>
      <trkpt lat="43.87753" lon="5.12581">
        <ele>642.313</ele>
        <time>2020-09-03T15:04:56Z</time>
      </trkpt>
      <trkpt lat="43.87742" lon="5.12578">
        <ele>639.967</ele>
        <time>2020-09-03T15:04:57Z</time>
      </trkpt>
      <trkpt lat="43.87732" lon="5.12575">
        <ele>637.189</ele>
        <time>2020-09-03T15:04:58Z</time>
      </trkpt>
      <trkpt lat="43.87711" lon="5.12571">
        <ele>634.851</ele>
        <time>2020-09-03T15:05:00Z</time>
      </trkpt>
      <trkpt lat="43.877" lon="5.12568">
        <ele>632.27</ele>
        <time>2020-09-03T15:05:01Z</time>
      </trkpt>
      <trkpt lat="43.87688" lon="5.12566">
        <ele>630.187</ele>
        <time>2020-09-03T15:05:02Z</time>
      </trkpt>
      <trkpt lat="43.87676" lon="5.12564">
        <ele>627.504</ele>
        <time>2020-09-03T15:05:03Z</time>
      </trkpt>
      <trkpt lat="43.87665" lon="5.12563">
        <ele>625.519</ele>
        <time>2020-09-03T15:05:04Z</time>
      </trkpt>
      <trkpt lat="43.87653" lon="5.12563">
        <ele>623.424</ele>
        <time>2020-09-03T15:05:05Z</time>
      </trkpt>
      <trkpt lat="43.87641" lon="5.12563">
        <ele>621.503</ele>
        <time>2020-09-03T15:05:06Z</time>
      </trkpt>
      <trkpt lat="43.8763" lon="5.12563">
        <ele>619.512</ele>
        <time>2020-09-03T15:05:07Z</time>
      </trkpt>
      <trkpt lat="43.87618" lon="5.12562">
        <ele>617.79</ele>
        <time>2020-09-03T15:05:08Z</time>
      </trkpt>
      <trkpt lat="43.87606" lon="5.1256">
        <ele>615.625</ele>
        <time>2020-09-03T15:05:09Z</time>
      </trkpt>
      <trkpt lat="43.87594" lon="5.12559">
        <ele>613.817</ele>
        <time>2020-09-03T15:05:10Z</time>
      </trkpt>
      <trkpt lat="43.87582" lon="5.12559">
        <ele>611.949</ele>
        <time>2020-09-03T15:05:11Z</time>
      </trkpt>
      <trkpt lat="43.8757" lon="5.12559">
        <ele>610.741</ele>
        <time>2020-09-03T15:05:12Z</time>
      </trkpt>
      <trkpt lat="43.87558" lon="5.12559">
        <ele>609.756</ele>
        <time>2020-09-03T15:05:13Z</time>
      </trkpt>
      <trkpt lat="43.87547" lon="5.12559">
        <ele>609.137</ele>
        <time>2020-09-03T15:05:14Z</time>
      </trkpt>
      <trkpt lat="43.87537" lon="5.12559">
        <ele>608.442</ele>
        <time>2020-09-03T15:05:15Z</time>
      </trkpt>
      <trkpt lat="43.87526" lon="5.12559">
        <ele>607.568</ele>
        <time>2020-09-03T15:05:16Z</time>
      </trkpt>
      <trkpt lat="43.87516" lon="5.12559">
        <ele>606.573</ele>
        <time>2020-09-03T15:05:17Z</time>
      </trkpt>
      <trkpt lat="43.87505" lon="5.12559">
        <ele>605.302</ele>
        <time>2020-09-03T15:05:18Z</time>
      </trkpt>
      <trkpt lat="43.87494" lon="5.12557">
        <ele>604.012</ele>
        <time>2020-09-03T15:05:19Z</time>
      </trkpt>
      <trkpt lat="43.87494" lon="5.12557">
        <ele>603.092</ele>
        <time>2020-09-03T15:05:19Z</time>
      </trkpt>
      <trkpt lat="43.87473" lon="5.12557">
        <ele>601.175</ele>
        <time>2020-09-03T15:05:21Z</time>
      </trkpt>
      <trkpt lat="43.87473" lon="5.12557">
        <ele>599.288</ele>
        <time>2020-09-03T15:05:21Z</time>
      </trkpt>
      <trkpt lat="43.87451" lon="5.12559">
        <ele>597.611</ele>
        <time>2020-09-03T15:05:23Z</time>
      </trkpt>
      <trkpt lat="43.8743" lon="5.12558">
        <ele>595.805</ele>
        <time>2020-09-03T15:05:25Z</time>
      </trkpt>
      <trkpt lat="43.87419" lon="5.12557">
        <ele>594.513</ele>
        <time>2020-09-03T15:05:26Z</time>
      </trkpt>
      <trkpt lat="43.87409" lon="5.12557">
        <ele>592.97</ele>
        <time>2020-09-03T15:05:27Z</time>
      </trkpt>
      <trkpt lat="43.87398" lon="5.12558">
        <ele>591.298</ele>
        <time>2020-09-03T15:05:28Z</time>
      </trkpt>
      <trkpt lat="43.87388" lon="5.12557">
        <ele>589.836</ele>
        <time>2020-09-03T15:05:29Z</time>
      </trkpt>
      <trkpt lat="43.87377" lon="5.12556">
        <ele>588.547</ele>
        <time>2020-09-03T15:05:30Z</time>
      </trkpt>
      <trkpt lat="43.87367" lon="5.12554">
        <ele>587.113</ele>
        <time>2020-09-03T15:05:31Z</time>
      </trkpt>
      <trkpt lat="43.87356" lon="5.12552">
        <ele>585.979</ele>
        <time>2020-09-03T15:05:32Z</time>
      </trkpt>
      <trkpt lat="43.87345" lon="5.12551">
        <ele>584.683</ele>
        <time>2020-09-03T15:05:33Z</time>
      </trkpt>
      <trkpt lat="43.87335" lon="5.1255">
        <ele>583.606</ele>
        <time>2020-09-03T15:05:34Z</time>
      </trkpt>
      <trkpt lat="43.87324" lon="5.12549">
        <ele>582.363</ele>
        <time>2020-09-03T15:05:35Z</time>
      </trkpt>
      <trkpt lat="43.87314" lon="5.12547">
        <ele>581.066</ele>
        <time>2020-09-03T15:05:36Z</time>
      </trkpt>
      <trkpt lat="43.87304" lon="5.12544">
        <ele>579.653</ele>
        <time>2020-09-03T15:05:37Z</time>
      </trkpt>
      <trkpt lat="43.87294" lon="5.12541">
        <ele>578.349</ele>
        <time>2020-09-03T15:05:38Z</time>
      </trkpt>
      <trkpt lat="43.87284" lon="5.12538">
        <ele>577.049</ele>
        <time>2020-09-03T15:05:39Z</time>
      </trkpt>
      <trkpt lat="43.87274" lon="5.12535">
        <ele>575.715</ele>
        <time>2020-09-03T15:05:40Z</time>
      </trkpt>
      <trkpt lat="43.87265" lon="5.12531">
        <ele>574.424</ele>
        <time>2020-09-03T15:05:41Z</time>
      </trkpt>
      <trkpt lat="43.87255" lon="5.12528">
        <ele>572.64</ele>
        <time>2020-09-03T15:05:42Z</time>
      </trkpt>
      <trkpt lat="43.87255" lon="5.12528">
        <ele>571.369</ele>
        <time>2020-09-03T15:05:42Z</time>
      </trkpt>
      <trkpt lat="43.87235" lon="5.1252">
        <ele>570.157</ele>
        <time>2020-09-03T15:05:44Z</time>
      </trkpt>
      <trkpt lat="43.87216" lon="5.12512">
        <ele>569.046</ele>
        <time>2020-09-03T15:05:46Z</time>
      </trkpt>
      <trkpt lat="43.87207" lon="5.12508">
        <ele>567.912</ele>
        <time>2020-09-03T15:05:47Z</time>
      </trkpt>
      <trkpt lat="43.87198" lon="5.12503">
        <ele>567.093</ele>
        <time>2020-09-03T15:05:48Z</time>
      </trkpt>
      <trkpt lat="43.87189" lon="5.12499">
        <ele>565.929</ele>
        <time>2020-09-03T15:05:49Z</time>
      </trkpt>
      <trkpt lat="43.8718" lon="5.12494">
        <ele>564.398</ele>
        <time>2020-09-03T15:05:50Z</time>
      </trkpt>
      <trkpt lat="43.8717" lon="5.1249">
        <ele>562.805</ele>
        <time>2020-09-03T15:05:51Z</time>
      </trkpt>
      <trkpt lat="43.87161" lon="5.12486">
        <ele>561.588</ele>
        <time>2020-09-03T15:05:52Z</time>
      </trkpt>
      <trkpt lat="43.87151" lon="5.12481">
        <ele>560.191</ele>
        <time>2020-09-03T15:05:53Z</time>
      </trkpt>
      <trkpt lat="43.87142" lon="5.12477">
        <ele>558.71</ele>
        <time>2020-09-03T15:05:54Z</time>
      </trkpt>
      <trkpt lat="43.87133" lon="5.12473">
        <ele>557.562</ele>
        <time>2020-09-03T15:05:55Z</time>
      </trkpt>
      <trkpt lat="43.87124" lon="5.12468">
        <ele>556.455</ele>
        <time>2020-09-03T15:05:56Z</time>
      </trkpt>
      <trkpt lat="43.87114" lon="5.12464">
        <ele>555.132</ele>
        <time>2020-09-03T15:05:57Z</time>
      </trkpt>
      <trkpt lat="43.87104" lon="5.1246">
        <ele>553.918</ele>
        <time>2020-09-03T15:05:58Z</time>
      </trkpt>
      <trkpt lat="43.87095" lon="5.12455">
        <ele>552.663</ele>
        <time>2020-09-03T15:05:59Z</time>
      </trkpt>
      <trkpt lat="43.87086" lon="5.12451">
        <ele>551.5</ele>
        <time>2020-09-03T15:06:00Z</time>
      </trkpt>
      <trkpt lat="43.87076" lon="5.12446">
        <ele>550.147</ele>
        <time>2020-09-03T15:06:01Z</time>
      </trkpt>
      <trkpt lat="43.87066" lon="5.12443">
        <ele>548.599</ele>
        <time>2020-09-03T15:06:02Z</time>
      </trkpt>
      <trkpt lat="43.87056" lon="5.12439">
        <ele>547.06</ele>
        <time>2020-09-03T15:06:03Z</time>
      </trkpt>
      <trkpt lat="43.87046" lon="5.12436">
        <ele>545.573</ele>
        <time>2020-09-03T15:06:04Z</time>
      </trkpt>
      <trkpt lat="43.87036" lon="5.12432">
        <ele>543.89</ele>
        <time>2020-09-03T15:06:05Z</time>
      </trkpt>
      <trkpt lat="43.87036" lon="5.12432">
        <ele>542.226</ele>
        <time>2020-09-03T15:06:05Z</time>
      </trkpt>
      <trkpt lat="43.87036" lon="5.12432">
        <ele>540.384</ele>
        <time>2020-09-03T15:06:05Z</time>
      </trkpt>
      <trkpt lat="43.87006" lon="5.12422">
        <ele>538.478</ele>
        <time>2020-09-03T15:06:08Z</time>
      </trkpt>
      <trkpt lat="43.86986" lon="5.12415">
        <ele>536.787</ele>
        <time>2020-09-03T15:06:10Z</time>
      </trkpt>
      <trkpt lat="43.86976" lon="5.12411">
        <ele>534.936</ele>
        <time>2020-09-03T15:06:11Z</time>
      </trkpt>
      <trkpt lat="43.86966" lon="5.12406">
        <ele>533.524</ele>
        <time>2020-09-03T15:06:12Z</time>
      </trkpt>
      <trkpt lat="43.86956" lon="5.12403">
        <ele>531.965</ele>
        <time>2020-09-03T15:06:13Z</time>
      </trkpt>
      <trkpt lat="43.86946" lon="5.12399">
        <ele>530.197</ele>
        <time>2020-09-03T15:06:14Z</time>
      </trkpt>
      <trkpt lat="43.86935" lon="5.12396">
        <ele>528.365</ele>
        <time>2020-09-03T15:06:15Z</time>
      </trkpt>
      <trkpt lat="43.86935" lon="5.12396">
        <ele>527.389</ele>
        <time>2020-09-03T15:06:15Z</time>
      </trkpt>
      <trkpt lat="43.86914" lon="5.12388">
        <ele>525.714</ele>
        <time>2020-09-03T15:06:17Z</time>
      </trkpt>
      <trkpt lat="43.86904" lon="5.12385">
        <ele>523.885</ele>
        <time>2020-09-03T15:06:18Z</time>
      </trkpt>
      <trkpt lat="43.86893" lon="5.12381">
        <ele>521.925</ele>
        <time>2020-09-03T15:06:19Z</time>
      </trkpt>
      <trkpt lat="43.86872" lon="5.12376">
        <ele>520.275</ele>
        <time>2020-09-03T15:06:21Z</time>
      </trkpt>
      <trkpt lat="43.86861" lon="5.12374">
        <ele>518.669</ele>
        <time>2020-09-03T15:06:22Z</time>
      </trkpt>
      <trkpt lat="43.86849" lon="5.12372">
        <ele>517.174</ele>
        <time>2020-09-03T15:06:23Z</time>
      </trkpt>
      <trkpt lat="43.86849" lon="5.12372">
        <ele>515.394</ele>
        <time>2020-09-03T15:06:23Z</time>
      </trkpt>
      <trkpt lat="43.86825" lon="5.12371">
        <ele>513.387</ele>
        <time>2020-09-03T15:06:25Z</time>
      </trkpt>
      <trkpt lat="43.86812" lon="5.12371">
        <ele>511.795</ele>
        <time>2020-09-03T15:06:26Z</time>
      </trkpt>
      <trkpt lat="43.86801" lon="5.12369">
        <ele>510.636</ele>
        <time>2020-09-03T15:06:27Z</time>
      </trkpt>
      <trkpt lat="43.86789" lon="5.12367">
        <ele>509.719</ele>
        <time>2020-09-03T15:06:28Z</time>
      </trkpt>
      <trkpt lat="43.86789" lon="5.12367">
        <ele>508.869</ele>
        <time>2020-09-03T15:06:28Z</time>
      </trkpt>
      <trkpt lat="43.86768" lon="5.12362">
        <ele>507.881</ele>
        <time>2020-09-03T15:06:30Z</time>
      </trkpt>
      <trkpt lat="43.86757" lon="5.12359">
        <ele>506.24</ele>
        <time>2020-09-03T15:06:31Z</time>
      </trkpt>
      <trkpt lat="43.86746" lon="5.12355">
        <ele>504.562</ele>
        <time>2020-09-03T15:06:32Z</time>
      </trkpt>
      <trkpt lat="43.86735" lon="5.12352">
        <ele>502.352</ele>
        <time>2020-09-03T15:06:33Z</time>
      </trkpt>
      <trkpt lat="43.86723" lon="5.1235">
        <ele>500.387</ele>
        <time>2020-09-03T15:06:34Z</time>
      </trkpt>
      <trkpt lat="43.86711" lon="5.12347">
        <ele>498.585</ele>
        <time>2020-09-03T15:06:35Z</time>
      </trkpt>
      <trkpt lat="43.867" lon="5.12344">
        <ele>497.269</ele>
        <time>2020-09-03T15:06:36Z</time>
      </trkpt>
      <trkpt lat="43.8669" lon="5.1234">
        <ele>496.068</ele>
        <time>2020-09-03T15:06:37Z</time>
      </trkpt>
      <trkpt lat="43.86679" lon="5.12336">
        <ele>494.818</ele>
        <time>2020-09-03T15:06:38Z</time>
      </trkpt>
      <trkpt lat="43.86667" lon="5.12332">
        <ele>493.236</ele>
        <time>2020-09-03T15:06:39Z</time>
      </trkpt>
      <trkpt lat="43.86656" lon="5.12327">
        <ele>491.957</ele>
        <time>2020-09-03T15:06:40Z</time>
      </trkpt>
      <trkpt lat="43.86645" lon="5.12323">
        <ele>490.656</ele>
        <time>2020-09-03T15:06:41Z</time>
      </trkpt>
      <trkpt lat="43.86634" lon="5.12319">
        <ele>489.464</ele>
        <time>2020-09-03T15:06:42Z</time>
      </trkpt>
      <trkpt lat="43.86623" lon="5.12316">
        <ele>487.946</ele>
        <time>2020-09-03T15:06:43Z</time>
      </trkpt>
      <trkpt lat="43.86601" lon="5.12308">
        <ele>486.678</ele>
        <time>2020-09-03T15:06:45Z</time>
      </trkpt>
      <trkpt lat="43.8659" lon="5.12303">
        <ele>484.788</ele>
        <time>2020-09-03T15:06:46Z</time>
      </trkpt>
      <trkpt lat="43.86578" lon="5.12297">
        <ele>483.574</ele>
        <time>2020-09-03T15:06:47Z</time>
      </trkpt>
      <trkpt lat="43.86568" lon="5.12292">
        <ele>483.144</ele>
        <time>2020-09-03T15:06:48Z</time>
      </trkpt>
      <trkpt lat="43.86568" lon="5.12292">
        <ele>483.591</ele>
        <time>2020-09-03T15:06:48Z</time>
      </trkpt>
      <trkpt lat="43.86548" lon="5.12287">
        <ele>484.295</ele>
        <time>2020-09-03T15:06:50Z</time>
      </trkpt>
      <trkpt lat="43.86539" lon="5.12286">
        <ele>484.871</ele>
        <time>2020-09-03T15:06:51Z</time>
      </trkpt>
      <trkpt lat="43.8653" lon="5.12284">
        <ele>485.179</ele>
        <time>2020-09-03T15:06:52Z</time>
      </trkpt>
      <trkpt lat="43.86521" lon="5.12281">
        <ele>485.064</ele>
        <time>2020-09-03T15:06:53Z</time>
      </trkpt>
      <trkpt lat="43.86521" lon="5.12281">
        <ele>484.371</ele>
        <time>2020-09-03T15:06:53Z</time>
      </trkpt>
      <trkpt lat="43.865" lon="5.12275">
        <ele>483.331</ele>
        <time>2020-09-03T15:06:55Z</time>
      </trkpt>
      <trkpt lat="43.86489" lon="5.12275">
        <ele>481.969</ele>
        <time>2020-09-03T15:06:56Z</time>
      </trkpt>
      <trkpt lat="43.86477" lon="5.12275">
        <ele>481.123</ele>
        <time>2020-09-03T15:06:57Z</time>
      </trkpt>
      <trkpt lat="43.86467" lon="5.12275">
        <ele>480.806</ele>
        <time>2020-09-03T15:06:58Z</time>
      </trkpt>
      <trkpt lat="43.86456" lon="5.12274">
        <ele>480.769</ele>
        <time>2020-09-03T15:06:59Z</time>
      </trkpt>
      <trkpt lat="43.86446" lon="5.12273">
        <ele>480.488</ele>
        <time>2020-09-03T15:07:00Z</time>
      </trkpt>
      <trkpt lat="43.86435" lon="5.12271">
        <ele>479.613</ele>
        <time>2020-09-03T15:07:01Z</time>
      </trkpt>
      <trkpt lat="43.86424" lon="5.12268">
        <ele>478.499</ele>
        <time>2020-09-03T15:07:02Z</time>
      </trkpt>
      <trkpt lat="43.86413" lon="5.12265">
        <ele>477.298</ele>
        <time>2020-09-03T15:07:03Z</time>
      </trkpt>
      <trkpt lat="43.86402" lon="5.12263">
        <ele>476.256</ele>
        <time>2020-09-03T15:07:04Z</time>
      </trkpt>
      <trkpt lat="43.86392" lon="5.12261">
        <ele>475.266</ele>
        <time>2020-09-03T15:07:05Z</time>
      </trkpt>
      <trkpt lat="43.86382" lon="5.12261">
        <ele>474.357</ele>
        <time>2020-09-03T15:07:06Z</time>
      </trkpt>
      <trkpt lat="43.86373" lon="5.1226">
        <ele>473.495</ele>
        <time>2020-09-03T15:07:07Z</time>
      </trkpt>
      <trkpt lat="43.86363" lon="5.12258">
        <ele>472.468</ele>
        <time>2020-09-03T15:07:08Z</time>
      </trkpt>
      <trkpt lat="43.86353" lon="5.12255">
        <ele>471.235</ele>
        <time>2020-09-03T15:07:09Z</time>
      </trkpt>
      <trkpt lat="43.86342" lon="5.12253">
        <ele>470.392</ele>
        <time>2020-09-03T15:07:10Z</time>
      </trkpt>
      <trkpt lat="43.86331" lon="5.12251">
        <ele>469.762</ele>
        <time>2020-09-03T15:07:11Z</time>
      </trkpt>
      <trkpt lat="43.86312" lon="5.12248">
        <ele>469.541</ele>
        <time>2020-09-03T15:07:13Z</time>
      </trkpt>
      <trkpt lat="43.86312" lon="5.12248">
        <ele>468.816</ele>
        <time>2020-09-03T15:07:13Z</time>
      </trkpt>
      <trkpt lat="43.86292" lon="5.12245">
        <ele>467.704</ele>
        <time>2020-09-03T15:07:15Z</time>
      </trkpt>
      <trkpt lat="43.86281" lon="5.12243">
        <ele>466.103</ele>
        <time>2020-09-03T15:07:16Z</time>
      </trkpt>
      <trkpt lat="43.86269" lon="5.12242">
        <ele>464.347</ele>
        <time>2020-09-03T15:07:17Z</time>
      </trkpt>
      <trkpt lat="43.86259" lon="5.12241">
        <ele>462.785</ele>
        <time>2020-09-03T15:07:18Z</time>
      </trkpt>
      <trkpt lat="43.86259" lon="5.12241">
        <ele>461.596</ele>
        <time>2020-09-03T15:07:18Z</time>
      </trkpt>
      <trkpt lat="43.86241" lon="5.12239">
        <ele>460.401</ele>
        <time>2020-09-03T15:07:20Z</time>
      </trkpt>
      <trkpt lat="43.86232" lon="5.12238">
        <ele>458.877</ele>
        <time>2020-09-03T15:07:21Z</time>
      </trkpt>
      <trkpt lat="43.86222" lon="5.12237">
        <ele>457.019</ele>
        <time>2020-09-03T15:07:22Z</time>
      </trkpt>
      <trkpt lat="43.86212" lon="5.12235">
        <ele>454.865</ele>
        <time>2020-09-03T15:07:23Z</time>
      </trkpt>
      <trkpt lat="43.86212" lon="5.12235">
        <ele>452.721</ele>
        <time>2020-09-03T15:07:23Z</time>
      </trkpt>
      <trkpt lat="43.86191" lon="5.12232">
        <ele>450.648</ele>
        <time>2020-09-03T15:07:25Z</time>
      </trkpt>
      <trkpt lat="43.86182" lon="5.1223">
        <ele>448.822</ele>
        <time>2020-09-03T15:07:26Z</time>
      </trkpt>
      <trkpt lat="43.86172" lon="5.12229">
        <ele>446.804</ele>
        <time>2020-09-03T15:07:27Z</time>
      </trkpt>
      <trkpt lat="43.86162" lon="5.12227">
        <ele>444.456</ele>
        <time>2020-09-03T15:07:28Z</time>
      </trkpt>
      <trkpt lat="43.86152" lon="5.12226">
        <ele>442.043</ele>
        <time>2020-09-03T15:07:29Z</time>
      </trkpt>
      <trkpt lat="43.86142" lon="5.12224">
        <ele>439.253</ele>
        <time>2020-09-03T15:07:30Z</time>
      </trkpt>
      <trkpt lat="43.86132" lon="5.12223">
        <ele>436.175</ele>
        <time>2020-09-03T15:07:31Z</time>
      </trkpt>
      <trkpt lat="43.86122" lon="5.1222">
        <ele>433.392</ele>
        <time>2020-09-03T15:07:32Z</time>
      </trkpt>
      <trkpt lat="43.86113" lon="5.12218">
        <ele>431.024</ele>
        <time>2020-09-03T15:07:33Z</time>
      </trkpt>
      <trkpt lat="43.86103" lon="5.12216">
        <ele>428.374</ele>
        <time>2020-09-03T15:07:34Z</time>
      </trkpt>
      <trkpt lat="43.86103" lon="5.12216">
        <ele>425.442</ele>
        <time>2020-09-03T15:07:34Z</time>
      </trkpt>
      <trkpt lat="43.86074" lon="5.12212">
        <ele>422.631</ele>
        <time>2020-09-03T15:07:37Z</time>
      </trkpt>
      <trkpt lat="43.86063" lon="5.12209">
        <ele>419.758</ele>
        <time>2020-09-03T15:07:38Z</time>
      </trkpt>
      <trkpt lat="43.86063" lon="5.12209">
        <ele>416.826</ele>
        <time>2020-09-03T15:07:38Z</time>
      </trkpt>
      <trkpt lat="43.86043" lon="5.12205">
        <ele>415.457</ele>
        <time>2020-09-03T15:07:40Z</time>
      </trkpt>
      <trkpt lat="43.86032" lon="5.12204">
        <ele>412.624</ele>
        <time>2020-09-03T15:07:41Z</time>
      </trkpt>
      <trkpt lat="43.86022" lon="5.12202">
        <ele>409.796</ele>
        <time>2020-09-03T15:07:42Z</time>
      </trkpt>
      <trkpt lat="43.86012" lon="5.12201">
        <ele>406.868</ele>
        <time>2020-09-03T15:07:43Z</time>
      </trkpt>
      <trkpt lat="43.86012" lon="5.12201">
        <ele>404.522</ele>
        <time>2020-09-03T15:07:43Z</time>
      </trkpt>
      <trkpt lat="43.85994" lon="5.12196">
        <ele>401.779</ele>
        <time>2020-09-03T15:07:45Z</time>
      </trkpt>
      <trkpt lat="43.85985" lon="5.12192">
        <ele>399.216</ele>
        <time>2020-09-03T15:07:46Z</time>
      </trkpt>
      <trkpt lat="43.85976" lon="5.12189">
        <ele>396.721</ele>
        <time>2020-09-03T15:07:47Z</time>
      </trkpt>
      <trkpt lat="43.85967" lon="5.12186">
        <ele>394.543</ele>
        <time>2020-09-03T15:07:48Z</time>
      </trkpt>
      <trkpt lat="43.85967" lon="5.12186">
        <ele>392.275</ele>
        <time>2020-09-03T15:07:48Z</time>
      </trkpt>
      <trkpt lat="43.85948" lon="5.12181">
        <ele>389.484</ele>
        <time>2020-09-03T15:07:50Z</time>
      </trkpt>
      <trkpt lat="43.85938" lon="5.12177">
        <ele>386.856</ele>
        <time>2020-09-03T15:07:51Z</time>
      </trkpt>
      <trkpt lat="43.85929" lon="5.12174">
        <ele>384.881</ele>
        <time>2020-09-03T15:07:52Z</time>
      </trkpt>
      <trkpt lat="43.85919" lon="5.1217">
        <ele>382.357</ele>
        <time>2020-09-03T15:07:53Z</time>
      </trkpt>
      <trkpt lat="43.85909" lon="5.12168">
        <ele>380.135</ele>
        <time>2020-09-03T15:07:54Z</time>
      </trkpt>
      <trkpt lat="43.859" lon="5.12166">
        <ele>377.797</ele>
        <time>2020-09-03T15:07:55Z</time>
      </trkpt>
      <trkpt lat="43.8589" lon="5.12163">
        <ele>375.839</ele>
        <time>2020-09-03T15:07:56Z</time>
      </trkpt>
      <trkpt lat="43.8589" lon="5.12163">
        <ele>373.697</ele>
        <time>2020-09-03T15:07:56Z</time>
      </trkpt>
      <trkpt lat="43.8589" lon="5.12163">
        <ele>371.521</ele>
        <time>2020-09-03T15:07:56Z</time>
      </trkpt>
      <trkpt lat="43.85862" lon="5.12156">
        <ele>369.179</ele>
        <time>2020-09-03T15:07:59Z</time>
      </trkpt>
      <trkpt lat="43.85843" lon="5.12151">
        <ele>366.68</ele>
        <time>2020-09-03T15:08:01Z</time>
      </trkpt>
      <trkpt lat="43.85834" lon="5.12147">
        <ele>363.894</ele>
        <time>2020-09-03T15:08:02Z</time>
      </trkpt>
      <trkpt lat="43.85825" lon="5.12143">
        <ele>361.474</ele>
        <time>2020-09-03T15:08:03Z</time>
      </trkpt>
      <trkpt lat="43.85814" lon="5.1214">
        <ele>359.165</ele>
        <time>2020-09-03T15:08:04Z</time>
      </trkpt>
      <trkpt lat="43.85804" lon="5.12136">
        <ele>356.993</ele>
        <time>2020-09-03T15:08:05Z</time>
      </trkpt>
      <trkpt lat="43.85794" lon="5.12133">
        <ele>354.977</ele>
        <time>2020-09-03T15:08:06Z</time>
      </trkpt>
      <trkpt lat="43.85785" lon="5.1213">
        <ele>353.213</ele>
        <time>2020-09-03T15:08:07Z</time>
      </trkpt>
      <trkpt lat="43.85776" lon="5.12127">
        <ele>352.003</ele>
        <time>2020-09-03T15:08:08Z</time>
      </trkpt>
      <trkpt lat="43.85765" lon="5.12125">
        <ele>349.47</ele>
        <time>2020-09-03T15:08:09Z</time>
      </trkpt>
      <trkpt lat="43.85754" lon="5.12123">
        <ele>346.903</ele>
        <time>2020-09-03T15:08:10Z</time>
      </trkpt>
      <trkpt lat="43.85742" lon="5.12123">
        <ele>344.686</ele>
        <time>2020-09-03T15:08:11Z</time>
      </trkpt>
      <trkpt lat="43.85732" lon="5.12121">
        <ele>342.38</ele>
        <time>2020-09-03T15:08:12Z</time>
      </trkpt>
      <trkpt lat="43.85722" lon="5.12119">
        <ele>340.47</ele>
        <time>2020-09-03T15:08:13Z</time>
      </trkpt>
      <trkpt lat="43.85711" lon="5.12116">
        <ele>338.054</ele>
        <time>2020-09-03T15:08:14Z</time>
      </trkpt>
      <trkpt lat="43.857" lon="5.12115">
        <ele>335.849</ele>
        <time>2020-09-03T15:08:15Z</time>
      </trkpt>
      <trkpt lat="43.85687" lon="5.12114">
        <ele>333.235</ele>
        <time>2020-09-03T15:08:16Z</time>
      </trkpt>
      <trkpt lat="43.85675" lon="5.12113">
        <ele>330.208</ele>
        <time>2020-09-03T15:08:17Z</time>
      </trkpt>
      <trkpt lat="43.85664" lon="5.12112">
        <ele>328.061</ele>
        <time>2020-09-03T15:08:18Z</time>
      </trkpt>
      <trkpt lat="43.85653" lon="5.12111">
        <ele>325.928</ele>
        <time>2020-09-03T15:08:19Z</time>
      </trkpt>
      <trkpt lat="43.85653" lon="5.12111">
        <ele>323.584</ele>
        <time>2020-09-03T15:08:19Z</time>
      </trkpt>
      <trkpt lat="43.85618" lon="5.12111">
        <ele>320.901</ele>
        <time>2020-09-03T15:08:22Z</time>
      </trkpt>
      <trkpt lat="43.85606" lon="5.1211">
        <ele>317.997</ele>
        <time>2020-09-03T15:08:23Z</time>
      </trkpt>
      <trkpt lat="43.85594" lon="5.1211">
        <ele>316.541</ele>
        <time>2020-09-03T15:08:24Z</time>
      </trkpt>
      <trkpt lat="43.85583" lon="5.12111">
        <ele>315.439</ele>
        <time>2020-09-03T15:08:25Z</time>
      </trkpt>
      <trkpt lat="43.85572" lon="5.12113">
        <ele>314.518</ele>
        <time>2020-09-03T15:08:26Z</time>
      </trkpt>
      <trkpt lat="43.85561" lon="5.12114">
        <ele>313.264</ele>
        <time>2020-09-03T15:08:27Z</time>
      </trkpt>
      <trkpt lat="43.8555" lon="5.12115">
        <ele>311.708</ele>
        <time>2020-09-03T15:08:28Z</time>
      </trkpt>
      <trkpt lat="43.85538" lon="5.12115">
        <ele>310.02</ele>
        <time>2020-09-03T15:08:29Z</time>
      </trkpt>
      <trkpt lat="43.85526" lon="5.12116">
        <ele>308.616</ele>
        <time>2020-09-03T15:08:30Z</time>
      </trkpt>
      <trkpt lat="43.85514" lon="5.12118">
        <ele>307.448</ele>
        <time>2020-09-03T15:08:31Z</time>
      </trkpt>
      <trkpt lat="43.85502" lon="5.1212">
        <ele>306.314</ele>
        <time>2020-09-03T15:08:32Z</time>
      </trkpt>
      <trkpt lat="43.85491" lon="5.12123">
        <ele>305.18</ele>
        <time>2020-09-03T15:08:33Z</time>
      </trkpt>
      <trkpt lat="43.85479" lon="5.12125">
        <ele>303.79</ele>
        <time>2020-09-03T15:08:34Z</time>
      </trkpt>
      <trkpt lat="43.85467" lon="5.12127">
        <ele>302.498</ele>
        <time>2020-09-03T15:08:35Z</time>
      </trkpt>
      <trkpt lat="43.85467" lon="5.12127">
        <ele>301.495</ele>
        <time>2020-09-03T15:08:35Z</time>
      </trkpt>
      <trkpt lat="43.85442" lon="5.12131">
        <ele>300.466</ele>
        <time>2020-09-03T15:08:37Z</time>
      </trkpt>
      <trkpt lat="43.85429" lon="5.12132">
        <ele>300.613</ele>
        <time>2020-09-03T15:08:38Z</time>
      </trkpt>
      <trkpt lat="43.85418" lon="5.12133">
        <ele>301.963</ele>
        <time>2020-09-03T15:08:39Z</time>
      </trkpt>
      <trkpt lat="43.85409" lon="5.12135">
        <ele>304.279</ele>
        <time>2020-09-03T15:08:40Z</time>
      </trkpt>
      <trkpt lat="43.85398" lon="5.12136">
        <ele>306.933</ele>
        <time>2020-09-03T15:08:41Z</time>
      </trkpt>
      <trkpt lat="43.85388" lon="5.12136">
        <ele>308.373</ele>
        <time>2020-09-03T15:08:42Z</time>
      </trkpt>
      <trkpt lat="43.85378" lon="5.12136">
        <ele>308.975</ele>
        <time>2020-09-03T15:08:43Z</time>
      </trkpt>
      <trkpt lat="43.85369" lon="5.12133">
        <ele>309.137</ele>
        <time>2020-09-03T15:08:44Z</time>
      </trkpt>
      <trkpt lat="43.85359" lon="5.12122">
        <ele>308.978</ele>
        <time>2020-09-03T15:08:46Z</time>
      </trkpt>
      <trkpt lat="43.85362" lon="5.12114">
        <ele>308.729</ele>
        <time>2020-09-03T15:08:47Z</time>
      </trkpt>
      <trkpt lat="43.85363" lon="5.12108">
        <ele>308.613</ele>
        <time>2020-09-03T15:08:48Z</time>
      </trkpt>
      <trkpt lat="43.85365" lon="5.12103">
        <ele>308.652</ele>
        <time>2020-09-03T15:08:49Z</time>
      </trkpt>
      <trkpt lat="43.85365" lon="5.12103">
        <ele>308.632</ele>
        <time>2020-09-03T15:08:49Z</time>
      </trkpt>
      <trkpt lat="43.85373" lon="5.12098">
        <ele>308.334</ele>
        <time>2020-09-03T15:08:51Z</time>
      </trkpt>
      <trkpt lat="43.85379" lon="5.121">
        <ele>308.006</ele>
        <time>2020-09-03T15:08:52Z</time>
      </trkpt>
      <trkpt lat="43.85385" lon="5.12106">
        <ele>308.079</ele>
        <time>2020-09-03T15:08:53Z</time>
      </trkpt>
      <trkpt lat="43.85391" lon="5.12115">
        <ele>308.601</ele>
        <time>2020-09-03T15:08:54Z</time>
      </trkpt>
      <trkpt lat="43.85395" lon="5.12125">
        <ele>309.349</ele>
        <time>2020-09-03T15:08:55Z</time>
      </trkpt>
      <trkpt lat="43.85397" lon="5.12135">
        <ele>310.044</ele>
        <time>2020-09-03T15:08:56Z</time>
      </trkpt>
      <trkpt lat="43.85398" lon="5.12145">
        <ele>310.658</ele>
        <time>2020-09-03T15:08:57Z</time>
      </trkpt>
      <trkpt lat="43.85398" lon="5.12156">
        <ele>310.967</ele>
        <time>2020-09-03T15:08:58Z</time>
      </trkpt>
      <trkpt lat="43.85397" lon="5.12167">
        <ele>310.873</ele>
        <time>2020-09-03T15:08:59Z</time>
      </trkpt>
      <trkpt lat="43.85395" lon="5.12178">
        <ele>310.288</ele>
        <time>2020-09-03T15:09:00Z</time>
      </trkpt>
      <trkpt lat="43.85392" lon="5.1219">
        <ele>309.229</ele>
        <time>2020-09-03T15:09:01Z</time>
      </trkpt>
      <trkpt lat="43.85392" lon="5.1219">
        <ele>307.996</ele>
        <time>2020-09-03T15:09:01Z</time>
      </trkpt>
      <trkpt lat="43.85392" lon="5.1219">
        <ele>307.256</ele>
        <time>2020-09-03T15:09:01Z</time>
      </trkpt>
      <trkpt lat="43.85374" lon="5.12226">
        <ele>306.61</ele>
        <time>2020-09-03T15:09:04Z</time>
      </trkpt>
      <trkpt lat="43.85374" lon="5.12226">
        <ele>306.343</ele>
        <time>2020-09-03T15:09:04Z</time>
      </trkpt>
      <trkpt lat="43.85374" lon="5.12226">
        <ele>306.175</ele>
        <time>2020-09-03T15:09:04Z</time>
      </trkpt>
      <trkpt lat="43.85342" lon="5.12266">
        <ele>305.729</ele>
        <time>2020-09-03T15:09:08Z</time>
      </trkpt>
      <trkpt lat="43.85342" lon="5.12266">
        <ele>305.017</ele>
        <time>2020-09-03T15:09:08Z</time>
      </trkpt>
      <trkpt lat="43.85324" lon="5.12289">
        <ele>303.928</ele>
        <time>2020-09-03T15:09:10Z</time>
      </trkpt>
      <trkpt lat="43.85314" lon="5.12302">
        <ele>303.009</ele>
        <time>2020-09-03T15:09:11Z</time>
      </trkpt>
      <trkpt lat="43.85305" lon="5.12315">
        <ele>302.362</ele>
        <time>2020-09-03T15:09:12Z</time>
      </trkpt>
      <trkpt lat="43.85299" lon="5.1233">
        <ele>301.975</ele>
        <time>2020-09-03T15:09:13Z</time>
      </trkpt>
      <trkpt lat="43.85292" lon="5.12344">
        <ele>301.372</ele>
        <time>2020-09-03T15:09:14Z</time>
      </trkpt>
      <trkpt lat="43.85285" lon="5.12359">
        <ele>300.585</ele>
        <time>2020-09-03T15:09:15Z</time>
      </trkpt>
      <trkpt lat="43.85277" lon="5.12373">
        <ele>299.825</ele>
        <time>2020-09-03T15:09:16Z</time>
      </trkpt>
      <trkpt lat="43.85268" lon="5.12385">
        <ele>298.83</ele>
        <time>2020-09-03T15:09:17Z</time>
      </trkpt>
      <trkpt lat="43.85257" lon="5.12394">
        <ele>297.711</ele>
        <time>2020-09-03T15:09:18Z</time>
      </trkpt>
      <trkpt lat="43.85247" lon="5.12398">
        <ele>296.843</ele>
        <time>2020-09-03T15:09:19Z</time>
      </trkpt>
      <trkpt lat="43.85247" lon="5.12398">
        <ele>296.057</ele>
        <time>2020-09-03T15:09:19Z</time>
      </trkpt>
      <trkpt lat="43.85247" lon="5.12398">
        <ele>295.377</ele>
        <time>2020-09-03T15:09:19Z</time>
      </trkpt>
      <trkpt lat="43.85247" lon="5.12398">
        <ele>294.566</ele>
        <time>2020-09-03T15:09:19Z</time>
      </trkpt>
      <trkpt lat="43.85247" lon="5.12398">
        <ele>293.598</ele>
        <time>2020-09-03T15:09:19Z</time>
      </trkpt>
      <trkpt lat="43.85203" lon="5.12393">
        <ele>292.445</ele>
        <time>2020-09-03T15:09:24Z</time>
      </trkpt>
      <trkpt lat="43.85203" lon="5.12393">
        <ele>291.383</ele>
        <time>2020-09-03T15:09:24Z</time>
      </trkpt>
      <trkpt lat="43.85203" lon="5.12393">
        <ele>290.759</ele>
        <time>2020-09-03T15:09:24Z</time>
      </trkpt>
      <trkpt lat="43.85185" lon="5.12374">
        <ele>290.284</ele>
        <time>2020-09-03T15:09:27Z</time>
      </trkpt>
      <trkpt lat="43.85182" lon="5.12369">
        <ele>289.862</ele>
        <time>2020-09-03T15:09:28Z</time>
      </trkpt>
      <trkpt lat="43.85179" lon="5.12364">
        <ele>289.067</ele>
        <time>2020-09-03T15:09:29Z</time>
      </trkpt>
      <trkpt lat="43.85175" lon="5.12358">
        <ele>288.084</ele>
        <time>2020-09-03T15:09:30Z</time>
      </trkpt>
      <trkpt lat="43.85166" lon="5.12346">
        <ele>287.357</ele>
        <time>2020-09-03T15:09:32Z</time>
      </trkpt>
      <trkpt lat="43.85162" lon="5.12339">
        <ele>286.162</ele>
        <time>2020-09-03T15:09:33Z</time>
      </trkpt>
      <trkpt lat="43.85162" lon="5.12339">
        <ele>284.933</ele>
        <time>2020-09-03T15:09:33Z</time>
      </trkpt>
      <trkpt lat="43.85155" lon="5.12327">
        <ele>283.689</ele>
        <time>2020-09-03T15:09:35Z</time>
      </trkpt>
      <trkpt lat="43.85152" lon="5.12322">
        <ele>282.401</ele>
        <time>2020-09-03T15:09:36Z</time>
      </trkpt>
      <trkpt lat="43.85149" lon="5.12316">
        <ele>280.775</ele>
        <time>2020-09-03T15:09:37Z</time>
      </trkpt>
      <trkpt lat="43.85146" lon="5.1231">
        <ele>279.001</ele>
        <time>2020-09-03T15:09:38Z</time>
      </trkpt>
      <trkpt lat="43.85142" lon="5.12303">
        <ele>276.753</ele>
        <time>2020-09-03T15:09:39Z</time>
      </trkpt>
      <trkpt lat="43.85139" lon="5.12296">
        <ele>274.953</ele>
        <time>2020-09-03T15:09:40Z</time>
      </trkpt>
      <trkpt lat="43.85136" lon="5.12288">
        <ele>273.204</ele>
        <time>2020-09-03T15:09:41Z</time>
      </trkpt>
      <trkpt lat="43.85133" lon="5.12282">
        <ele>271.81</ele>
        <time>2020-09-03T15:09:42Z</time>
      </trkpt>
      <trkpt lat="43.8513" lon="5.12276">
        <ele>270.58</ele>
        <time>2020-09-03T15:09:43Z</time>
      </trkpt>
      <trkpt lat="43.85127" lon="5.1227">
        <ele>268.912</ele>
        <time>2020-09-03T15:09:44Z</time>
      </trkpt>
      <trkpt lat="43.85124" lon="5.12263">
        <ele>267.314</ele>
        <time>2020-09-03T15:09:45Z</time>
      </trkpt>
      <trkpt lat="43.85122" lon="5.12256">
        <ele>265.611</ele>
        <time>2020-09-03T15:09:46Z</time>
      </trkpt>
      <trkpt lat="43.85119" lon="5.12249">
        <ele>264.12</ele>
        <time>2020-09-03T15:09:47Z</time>
      </trkpt>
      <trkpt lat="43.85115" lon="5.12243">
        <ele>262.863</ele>
        <time>2020-09-03T15:09:48Z</time>
      </trkpt>
      <trkpt lat="43.85109" lon="5.1223">
        <ele>261.894</ele>
        <time>2020-09-03T15:09:50Z</time>
      </trkpt>
      <trkpt lat="43.85106" lon="5.12223">
        <ele>260.781</ele>
        <time>2020-09-03T15:09:51Z</time>
      </trkpt>
      <trkpt lat="43.85103" lon="5.12216">
        <ele>259.39</ele>
        <time>2020-09-03T15:09:52Z</time>
      </trkpt>
      <trkpt lat="43.85101" lon="5.12208">
        <ele>257.904</ele>
        <time>2020-09-03T15:09:53Z</time>
      </trkpt>
      <trkpt lat="43.85101" lon="5.12208">
        <ele>256.408</ele>
        <time>2020-09-03T15:09:53Z</time>
      </trkpt>
      <trkpt lat="43.85096" lon="5.12193">
        <ele>255.207</ele>
        <time>2020-09-03T15:09:55Z</time>
      </trkpt>
      <trkpt lat="43.85095" lon="5.12188">
        <ele>253.945</ele>
        <time>2020-09-03T15:09:56Z</time>
      </trkpt>
      <trkpt lat="43.85094" lon="5.12183">
        <ele>252.817</ele>
        <time>2020-09-03T15:09:57Z</time>
      </trkpt>
      <trkpt lat="43.85095" lon="5.12177">
        <ele>251.309</ele>
        <time>2020-09-03T15:09:58Z</time>
      </trkpt>
      <trkpt lat="43.85095" lon="5.12171">
        <ele>249.389</ele>
        <time>2020-09-03T15:09:59Z</time>
      </trkpt>
      <trkpt lat="43.85096" lon="5.12164">
        <ele>248.374</ele>
        <time>2020-09-03T15:10:00Z</time>
      </trkpt>
      <trkpt lat="43.85096" lon="5.12158">
        <ele>246.018</ele>
        <time>2020-09-03T15:10:01Z</time>
      </trkpt>
      <trkpt lat="43.85098" lon="5.12153">
        <ele>243.743</ele>
        <time>2020-09-03T15:10:02Z</time>
      </trkpt>
      <trkpt lat="43.851" lon="5.12147">
        <ele>241.808</ele>
        <time>2020-09-03T15:10:03Z</time>
      </trkpt>
      <trkpt lat="43.85103" lon="5.12142">
        <ele>240.045</ele>
        <time>2020-09-03T15:10:04Z</time>
      </trkpt>
      <trkpt lat="43.85105" lon="5.12135">
        <ele>238.545</ele>
        <time>2020-09-03T15:10:05Z</time>
      </trkpt>
      <trkpt lat="43.85108" lon="5.1213">
        <ele>237.244</ele>
        <time>2020-09-03T15:10:06Z</time>
      </trkpt>
      <trkpt lat="43.85111" lon="5.12125">
        <ele>236.12</ele>
        <time>2020-09-03T15:10:07Z</time>
      </trkpt>
      <trkpt lat="43.85111" lon="5.12125">
        <ele>235.309</ele>
        <time>2020-09-03T15:10:07Z</time>
      </trkpt>
      <trkpt lat="43.85119" lon="5.12115">
        <ele>234.554</ele>
        <time>2020-09-03T15:10:10Z</time>
      </trkpt>
      <trkpt lat="43.8512" lon="5.12111">
        <ele>233.706</ele>
        <time>2020-09-03T15:10:11Z</time>
      </trkpt>
      <trkpt lat="43.85122" lon="5.12108">
        <ele>232.913</ele>
        <time>2020-09-03T15:10:12Z</time>
      </trkpt>
      <trkpt lat="43.85123" lon="5.12104">
        <ele>231.776</ele>
        <time>2020-09-03T15:10:13Z</time>
      </trkpt>
      <trkpt lat="43.85124" lon="5.121">
        <ele>230.721</ele>
        <time>2020-09-03T15:10:14Z</time>
      </trkpt>
      <trkpt lat="43.85124" lon="5.12096">
        <ele>229.806</ele>
        <time>2020-09-03T15:10:15Z</time>
      </trkpt>
      <trkpt lat="43.85125" lon="5.12092">
        <ele>228.785</ele>
        <time>2020-09-03T15:10:16Z</time>
      </trkpt>
      <trkpt lat="43.85125" lon="5.12087">
        <ele>227.693</ele>
        <time>2020-09-03T15:10:17Z</time>
      </trkpt>
      <trkpt lat="43.85125" lon="5.12082">
        <ele>226.506</ele>
        <time>2020-09-03T15:10:18Z</time>
      </trkpt>
      <trkpt lat="43.85123" lon="5.12077">
        <ele>225.298</ele>
        <time>2020-09-03T15:10:19Z</time>
      </trkpt>
      <trkpt lat="43.85119" lon="5.12072">
        <ele>224.121</ele>
        <time>2020-09-03T15:10:20Z</time>
      </trkpt>
      <trkpt lat="43.85114" lon="5.12067">
        <ele>222.681</ele>
        <time>2020-09-03T15:10:21Z</time>
      </trkpt>
      <trkpt lat="43.85109" lon="5.12063">
        <ele>221.266</ele>
        <time>2020-09-03T15:10:22Z</time>
      </trkpt>
      <trkpt lat="43.85105" lon="5.12059">
        <ele>219.766</ele>
        <time>2020-09-03T15:10:23Z</time>
      </trkpt>
      <trkpt lat="43.851" lon="5.12053">
        <ele>218.628</ele>
        <time>2020-09-03T15:10:24Z</time>
      </trkpt>
      <trkpt lat="43.85096" lon="5.12047">
        <ele>217.224</ele>
        <time>2020-09-03T15:10:25Z</time>
      </trkpt>
      <trkpt lat="43.85092" lon="5.12041">
        <ele>216.157</ele>
        <time>2020-09-03T15:10:26Z</time>
      </trkpt>
      <trkpt lat="43.85092" lon="5.12041">
        <ele>214.865</ele>
        <time>2020-09-03T15:10:26Z</time>
      </trkpt>
      <trkpt lat="43.85092" lon="5.12041">
        <ele>214.032</ele>
        <time>2020-09-03T15:10:26Z</time>
      </trkpt>
      <trkpt lat="43.85082" lon="5.12027">
        <ele>212.388</ele>
        <time>2020-09-03T15:10:29Z</time>
      </trkpt>
      <trkpt lat="43.85082" lon="5.12027">
        <ele>210.148</ele>
        <time>2020-09-03T15:10:29Z</time>
      </trkpt>
      <trkpt lat="43.85082" lon="5.12027">
        <ele>207.782</ele>
        <time>2020-09-03T15:10:29Z</time>
      </trkpt>
      <trkpt lat="43.85074" lon="5.12002">
        <ele>205.679</ele>
        <time>2020-09-03T15:10:33Z</time>
      </trkpt>
      <trkpt lat="43.85074" lon="5.12002">
        <ele>204.232</ele>
        <time>2020-09-03T15:10:33Z</time>
      </trkpt>
      <trkpt lat="43.85075" lon="5.11994">
        <ele>203.013</ele>
        <time>2020-09-03T15:10:35Z</time>
      </trkpt>
      <trkpt lat="43.85077" lon="5.11992">
        <ele>201.871</ele>
        <time>2020-09-03T15:10:36Z</time>
      </trkpt>
      <trkpt lat="43.85079" lon="5.11991">
        <ele>200.439</ele>
        <time>2020-09-03T15:10:37Z</time>
      </trkpt>
      <trkpt lat="43.85081" lon="5.11989">
        <ele>198.732</ele>
        <time>2020-09-03T15:10:38Z</time>
      </trkpt>
      <trkpt lat="43.85084" lon="5.11986">
        <ele>196.826</ele>
        <time>2020-09-03T15:10:39Z</time>
      </trkpt>
      <trkpt lat="43.85088" lon="5.11984">
        <ele>195.071</ele>
        <time>2020-09-03T15:10:40Z</time>
      </trkpt>
      <trkpt lat="43.85091" lon="5.11982">
        <ele>193.303</ele>
        <time>2020-09-03T15:10:41Z</time>
      </trkpt>
      <trkpt lat="43.85093" lon="5.11978">
        <ele>191.98</ele>
        <time>2020-09-03T15:10:42Z</time>
      </trkpt>
      <trkpt lat="43.85093" lon="5.11974">
        <ele>190.845</ele>
        <time>2020-09-03T15:10:43Z</time>
      </trkpt>
      <trkpt lat="43.85092" lon="5.11971">
        <ele>189.411</ele>
        <time>2020-09-03T15:10:44Z</time>
      </trkpt>
      <trkpt lat="43.85092" lon="5.11967">
        <ele>187.786</ele>
        <time>2020-09-03T15:10:45Z</time>
      </trkpt>
      <trkpt lat="43.85092" lon="5.11964">
        <ele>185.907</ele>
        <time>2020-09-03T15:10:46Z</time>
      </trkpt>
      <trkpt lat="43.85094" lon="5.11961">
        <ele>183.826</ele>
        <time>2020-09-03T15:10:47Z</time>
      </trkpt>
      <trkpt lat="43.85096" lon="5.11958">
        <ele>181.913</ele>
        <time>2020-09-03T15:10:48Z</time>
      </trkpt>
      <trkpt lat="43.85097" lon="5.11955">
        <ele>180.028</ele>
        <time>2020-09-03T15:10:49Z</time>
      </trkpt>
      <trkpt lat="43.85099" lon="5.11953">
        <ele>178.369</ele>
        <time>2020-09-03T15:10:50Z</time>
      </trkpt>
      <trkpt lat="43.85101" lon="5.11951">
        <ele>176.967</ele>
        <time>2020-09-03T15:10:51Z</time>
      </trkpt>
      <trkpt lat="43.85101" lon="5.11951">
        <ele>175.846</ele>
        <time>2020-09-03T15:10:51Z</time>
      </trkpt>
      <trkpt lat="43.85101" lon="5.11951">
        <ele>174.708</ele>
        <time>2020-09-03T15:10:51Z</time>
      </trkpt>
      <trkpt lat="43.85105" lon="5.11934">
        <ele>173.829</ele>
        <time>2020-09-03T15:10:55Z</time>
      </trkpt>
      <trkpt lat="43.85107" lon="5.11928">
        <ele>173.309</ele>
        <time>2020-09-03T15:10:56Z</time>
      </trkpt>
      <trkpt lat="43.85112" lon="5.11924">
        <ele>172.85</ele>
        <time>2020-09-03T15:10:57Z</time>
      </trkpt>
      <trkpt lat="43.85117" lon="5.11922">
        <ele>172.5</ele>
        <time>2020-09-03T15:10:58Z</time>
      </trkpt>
      <trkpt lat="43.85121" lon="5.11919">
        <ele>172.096</ele>
        <time>2020-09-03T15:10:59Z</time>
      </trkpt>
      <trkpt lat="43.85121" lon="5.11915">
        <ele>170.942</ele>
        <time>2020-09-03T15:11:00Z</time>
      </trkpt>
      <trkpt lat="43.85119" lon="5.11909">
        <ele>169.266</ele>
        <time>2020-09-03T15:11:01Z</time>
      </trkpt>
      <trkpt lat="43.85116" lon="5.11903">
        <ele>167.203</ele>
        <time>2020-09-03T15:11:02Z</time>
      </trkpt>
      <trkpt lat="43.8511" lon="5.11897">
        <ele>166.032</ele>
        <time>2020-09-03T15:11:03Z</time>
      </trkpt>
      <trkpt lat="43.85105" lon="5.11894">
        <ele>165.394</ele>
        <time>2020-09-03T15:11:04Z</time>
      </trkpt>
      <trkpt lat="43.85102" lon="5.1189">
        <ele>164.706</ele>
        <time>2020-09-03T15:11:05Z</time>
      </trkpt>
      <trkpt lat="43.851" lon="5.11886">
        <ele>163.729</ele>
        <time>2020-09-03T15:11:06Z</time>
      </trkpt>
      <trkpt lat="43.85098" lon="5.11879">
        <ele>162.359</ele>
        <time>2020-09-03T15:11:07Z</time>
      </trkpt>
      <trkpt lat="43.85097" lon="5.11872">
        <ele>160.699</ele>
        <time>2020-09-03T15:11:08Z</time>
      </trkpt>
      <trkpt lat="43.85095" lon="5.11864">
        <ele>159.001</ele>
        <time>2020-09-03T15:11:09Z</time>
      </trkpt>
      <trkpt lat="43.85095" lon="5.11855">
        <ele>157.517</ele>
        <time>2020-09-03T15:11:10Z</time>
      </trkpt>
      <trkpt lat="43.85096" lon="5.11846">
        <ele>156.49</ele>
        <time>2020-09-03T15:11:11Z</time>
      </trkpt>
      <trkpt lat="43.85096" lon="5.11846">
        <ele>155.972</ele>
        <time>2020-09-03T15:11:11Z</time>
      </trkpt>
      <trkpt lat="43.85098" lon="5.11833">
        <ele>155.729</ele>
        <time>2020-09-03T15:11:13Z</time>
      </trkpt>
      <trkpt lat="43.85099" lon="5.11829">
        <ele>155.414</ele>
        <time>2020-09-03T15:11:14Z</time>
      </trkpt>
      <trkpt lat="43.851" lon="5.11827">
        <ele>155.246</ele>
        <time>2020-09-03T15:11:15Z</time>
      </trkpt>
      <trkpt lat="43.851" lon="5.11827">
        <ele>155.21</ele>
        <time>2020-09-03T15:11:16Z</time>
      </trkpt>
      <trkpt lat="43.851" lon="5.11827">
        <ele>155.241</ele>
        <time>2020-09-03T15:11:16Z</time>
      </trkpt>
      <trkpt lat="43.851" lon="5.11827">
        <ele>155.228</ele>
        <time>2020-09-03T15:11:16Z</time>
      </trkpt>
      <trkpt lat="43.85101" lon="5.11827">
        <ele>155.195</ele>
        <time>2020-09-03T15:11:20Z</time>
      </trkpt>
      <trkpt lat="43.85101" lon="5.11827">
        <ele>155.179</ele>
        <time>2020-09-03T15:11:21Z</time>
      </trkpt>
      <trkpt lat="43.85101" lon="5.11827">
        <ele>155.223</ele>
        <time>2020-09-03T15:11:22Z</time>
      </trkpt>
      <trkpt lat="43.85101" lon="5.11827">
        <ele>155.246</ele>
        <time>2020-09-03T15:11:23Z</time>
      </trkpt>
      <trkpt lat="43.85101" lon="5.11827">
        <ele>155.262</ele>
        <time>2020-09-03T15:11:24Z</time>
      </trkpt>
      <trkpt lat="43.85101" lon="5.11827">
        <ele>155.291</ele>
        <time>2020-09-03T15:11:25Z</time>
      </trkpt>
      <trkpt lat="43.85101" lon="5.11827">
        <ele>155.309</ele>
        <time>2020-09-03T15:11:26Z</time>
      </trkpt>
      <trkpt lat="43.85101" lon="5.11827">
        <ele>155.291</ele>
        <time>2020-09-03T15:11:27Z</time>
      </trkpt>
      <trkpt lat="43.85101" lon="5.11827">
        <ele>155.268</ele>
        <time>2020-09-03T15:11:27Z</time>
      </trkpt>
      <trkpt lat="43.85101" lon="5.11827">
        <ele>155.263</ele>
        <time>2020-09-03T15:11:29Z</time>
      </trkpt>
      <trkpt lat="43.85102" lon="5.11827">
        <ele>155.261</ele>
        <time>2020-09-03T15:11:31Z</time>
      </trkpt>
      <trkpt lat="43.85102" lon="5.11827">
        <ele>155.243</ele>
        <time>2020-09-03T15:11:32Z</time>
      </trkpt>
      <trkpt lat="43.85102" lon="5.11826">
        <ele>155.221</ele>
        <time>2020-09-03T15:11:33Z</time>
      </trkpt>
      <trkpt lat="43.85102" lon="5.11826">
        <ele>155.214</ele>
        <time>2020-09-03T15:11:33Z</time>
      </trkpt>
      <trkpt lat="43.85102" lon="5.11826">
        <ele>155.203</ele>
        <time>2020-09-03T15:11:35Z</time>
      </trkpt>
      <trkpt lat="43.85102" lon="5.11826">
        <ele>155.199</ele>
        <time>2020-09-03T15:11:36Z</time>
      </trkpt>
      <trkpt lat="43.85102" lon="5.11826">
        <ele>155.209</ele>
        <time>2020-09-03T15:11:36Z</time>
      </trkpt>
      <trkpt lat="43.85102" lon="5.11826">
        <ele>155.224</ele>
        <time>2020-09-03T15:11:38Z</time>
      </trkpt>
      <trkpt lat="43.85102" lon="5.11826">
        <ele>155.217</ele>
        <time>2020-09-03T15:11:38Z</time>
      </trkpt>
      <trkpt lat="43.85102" lon="5.11826">
        <ele>155.189</ele>
        <time>2020-09-03T15:11:40Z</time>
      </trkpt>
      <trkpt lat="43.85102" lon="5.11826">
        <ele>155.128</ele>
        <time>2020-09-03T15:11:41Z</time>
      </trkpt>
      <trkpt lat="43.85102" lon="5.11826">
        <ele>155.104</ele>
        <time>2020-09-03T15:11:42Z</time>
      </trkpt>
      <trkpt lat="43.85102" lon="5.11826">
        <ele>155.106</ele>
        <time>2020-09-03T15:11:43Z</time>
      </trkpt>
      <trkpt lat="43.85102" lon="5.11826">
        <ele>155.146</ele>
        <time>2020-09-03T15:11:44Z</time>
      </trkpt>
      <trkpt lat="43.85102" lon="5.11827">
        <ele>155.218</ele>
        <time>2020-09-03T15:11:45Z</time>
      </trkpt>
      <trkpt lat="43.85102" lon="5.11827">
        <ele>155.265</ele>
        <time>2020-09-03T15:11:46Z</time>
      </trkpt>
      <trkpt lat="43.85102" lon="5.11827">
        <ele>155.259</ele>
        <time>2020-09-03T15:11:47Z</time>
      </trkpt>
      <trkpt lat="43.85102" lon="5.11827">
        <ele>155.271</ele>
        <time>2020-09-03T15:11:48Z</time>
      </trkpt>
      <trkpt lat="43.85102" lon="5.11827">
        <ele>155.281</ele>
        <time>2020-09-03T15:11:49Z</time>
      </trkpt>
      <trkpt lat="43.85102" lon="5.11827">
        <ele>155.287</ele>
        <time>2020-09-03T15:11:51Z</time>
      </trkpt>
      <trkpt lat="43.85102" lon="5.11828">
        <ele>155.276</ele>
        <time>2020-09-03T15:11:52Z</time>
      </trkpt>
      <trkpt lat="43.85102" lon="5.11828">
        <ele>155.271</ele>
        <time>2020-09-03T15:11:53Z</time>
      </trkpt>
      <trkpt lat="43.85102" lon="5.11828">
        <ele>155.257</ele>
        <time>2020-09-03T15:11:53Z</time>
      </trkpt>
      <trkpt lat="43.85102" lon="5.11828">
        <ele>155.221</ele>
        <time>2020-09-03T15:11:55Z</time>
      </trkpt>
      <trkpt lat="43.85102" lon="5.11828">
        <ele>155.183</ele>
        <time>2020-09-03T15:11:55Z</time>
      </trkpt>
      <trkpt lat="43.85102" lon="5.11828">
        <ele>155.181</ele>
        <time>2020-09-03T15:11:57Z</time>
      </trkpt>
      <trkpt lat="43.85102" lon="5.11828">
        <ele>155.193</ele>
        <time>2020-09-03T15:11:58Z</time>
      </trkpt>
      <trkpt lat="43.85102" lon="5.11828">
        <ele>155.18</ele>
        <time>2020-09-03T15:11:58Z</time>
      </trkpt>
      <trkpt lat="43.85102" lon="5.11828">
        <ele>155.152</ele>
        <time>2020-09-03T15:12:00Z</time>
      </trkpt>
      <trkpt lat="43.85102" lon="5.11828">
        <ele>155.132</ele>
        <time>2020-09-03T15:12:01Z</time>
      </trkpt>
      <trkpt lat="43.85102" lon="5.11828">
        <ele>155.116</ele>
        <time>2020-09-03T15:12:02Z</time>
      </trkpt>
      <trkpt lat="43.85102" lon="5.11828">
        <ele>155.133</ele>
        <time>2020-09-03T15:12:03Z</time>
      </trkpt>
      <trkpt lat="43.85102" lon="5.11828">
        <ele>155.155</ele>
        <time>2020-09-03T15:12:03Z</time>
      </trkpt>
      <trkpt lat="43.85102" lon="5.11828">
        <ele>155.184</ele>
        <time>2020-09-03T15:12:05Z</time>
      </trkpt>
      <trkpt lat="43.85103" lon="5.11829">
        <ele>155.193</ele>
        <time>2020-09-03T15:12:06Z</time>
      </trkpt>
      <trkpt lat="43.85103" lon="5.11829">
        <ele>155.195</ele>
        <time>2020-09-03T15:12:07Z</time>
      </trkpt>
      <trkpt lat="43.85103" lon="5.11829">
        <ele>155.169</ele>
        <time>2020-09-03T15:12:08Z</time>
      </trkpt>
      <trkpt lat="43.85103" lon="5.11829">
        <ele>155.144</ele>
        <time>2020-09-03T15:12:08Z</time>
      </trkpt>
      <trkpt lat="43.85103" lon="5.11829">
        <ele>155.135</ele>
        <time>2020-09-03T15:12:10Z</time>
      </trkpt>
      <trkpt lat="43.85103" lon="5.11829">
        <ele>155.143</ele>
        <time>2020-09-03T15:12:11Z</time>
      </trkpt>
      <trkpt lat="43.85103" lon="5.11829">
        <ele>155.149</ele>
        <time>2020-09-03T15:12:12Z</time>
      </trkpt>
      <trkpt lat="43.85103" lon="5.11829">
        <ele>155.13</ele>
        <time>2020-09-03T15:12:12Z</time>
      </trkpt>
      <trkpt lat="43.85103" lon="5.11829">
        <ele>155.129</ele>
        <time>2020-09-03T15:12:15Z</time>
      </trkpt>
      <trkpt lat="43.85103" lon="5.11829">
        <ele>155.148</ele>
        <time>2020-09-03T15:12:16Z</time>
      </trkpt>
      <trkpt lat="43.85103" lon="5.11829">
        <ele>155.172</ele>
        <time>2020-09-03T15:12:17Z</time>
      </trkpt>
      <trkpt lat="43.85103" lon="5.11829">
        <ele>155.178</ele>
        <time>2020-09-03T15:12:18Z</time>
      </trkpt>
      <trkpt lat="43.85103" lon="5.11829">
        <ele>155.173</ele>
        <time>2020-09-03T15:12:19Z</time>
      </trkpt>
      <trkpt lat="43.85103" lon="5.11829">
        <ele>155.184</ele>
        <time>2020-09-03T15:12:20Z</time>
      </trkpt>
      <trkpt lat="43.85103" lon="5.11829">
        <ele>155.228</ele>
        <time>2020-09-03T15:12:21Z</time>
      </trkpt>
      <trkpt lat="43.85103" lon="5.11829">
        <ele>155.251</ele>
        <time>2020-09-03T15:12:22Z</time>
      </trkpt>
      <trkpt lat="43.85103" lon="5.11829">
        <ele>155.257</ele>
        <time>2020-09-03T15:12:23Z</time>
      </trkpt>
      <trkpt lat="43.85103" lon="5.11829">
        <ele>155.235</ele>
        <time>2020-09-03T15:12:24Z</time>
      </trkpt>
      <trkpt lat="43.85103" lon="5.11829">
        <ele>155.222</ele>
        <time>2020-09-03T15:12:24Z</time>
      </trkpt>
      <trkpt lat="43.85103" lon="5.11829">
        <ele>155.215</ele>
        <time>2020-09-03T15:12:24Z</time>
      </trkpt>
      <trkpt lat="43.85103" lon="5.11829">
        <ele>155.211</ele>
        <time>2020-09-03T15:12:27Z</time>
      </trkpt>
      <trkpt lat="43.85103" lon="5.11829">
        <ele>155.227</ele>
        <time>2020-09-03T15:12:28Z</time>
      </trkpt>
      <trkpt lat="43.85104" lon="5.11829">
        <ele>155.228</ele>
        <time>2020-09-03T15:12:29Z</time>
      </trkpt>
      <trkpt lat="43.85104" lon="5.11829">
        <ele>155.217</ele>
        <time>2020-09-03T15:12:30Z</time>
      </trkpt>
      <trkpt lat="43.85104" lon="5.11829">
        <ele>155.224</ele>
        <time>2020-09-03T15:12:31Z</time>
      </trkpt>
      <trkpt lat="43.85104" lon="5.11829">
        <ele>155.255</ele>
        <time>2020-09-03T15:12:32Z</time>
      </trkpt>
      <trkpt lat="43.85104" lon="5.11829">
        <ele>155.28</ele>
        <time>2020-09-03T15:12:32Z</time>
      </trkpt>
      <trkpt lat="43.85104" lon="5.11829">
        <ele>155.311</ele>
        <time>2020-09-03T15:12:34Z</time>
      </trkpt>
      <trkpt lat="43.85104" lon="5.11829">
        <ele>155.322</ele>
        <time>2020-09-03T15:12:35Z</time>
      </trkpt>
      <trkpt lat="43.85104" lon="5.11829">
        <ele>155.317</ele>
        <time>2020-09-03T15:12:35Z</time>
      </trkpt>
      <trkpt lat="43.85104" lon="5.11829">
        <ele>155.319</ele>
        <time>2020-09-03T15:12:35Z</time>
      </trkpt>
      <trkpt lat="43.85104" lon="5.11829">
        <ele>155.323</ele>
        <time>2020-09-03T15:12:35Z</time>
      </trkpt>
      <trkpt lat="43.85104" lon="5.11829">
        <ele>155.307</ele>
        <time>2020-09-03T15:12:40Z</time>
      </trkpt>
      <trkpt lat="43.85104" lon="5.11829">
        <ele>155.306</ele>
        <time>2020-09-03T15:12:41Z</time>
      </trkpt>
      <trkpt lat="43.85104" lon="5.11829">
        <ele>155.29</ele>
        <time>2020-09-03T15:12:42Z</time>
      </trkpt>
      <trkpt lat="43.85103" lon="5.11829">
        <ele>155.279</ele>
        <time>2020-09-03T15:12:43Z</time>
      </trkpt>
      <trkpt lat="43.85103" lon="5.11829">
        <ele>155.278</ele>
        <time>2020-09-03T15:12:44Z</time>
      </trkpt>
      <trkpt lat="43.85103" lon="5.11829">
        <ele>155.283</ele>
        <time>2020-09-03T15:12:45Z</time>
      </trkpt>
      <trkpt lat="43.85103" lon="5.11829">
        <ele>155.301</ele>
        <time>2020-09-03T15:12:46Z</time>
      </trkpt>
      <trkpt lat="43.85103" lon="5.11829">
        <ele>155.305</ele>
        <time>2020-09-03T15:12:47Z</time>
      </trkpt>
      <trkpt lat="43.85103" lon="5.11829">
        <ele>155.316</ele>
        <time>2020-09-03T15:12:47Z</time>
      </trkpt>
      <trkpt lat="43.85103" lon="5.11829">
        <ele>155.357</ele>
        <time>2020-09-03T15:12:49Z</time>
      </trkpt>
      <trkpt lat="43.85103" lon="5.11829">
        <ele>155.376</ele>
        <time>2020-09-03T15:12:50Z</time>
      </trkpt>
      <trkpt lat="43.85103" lon="5.11829">
        <ele>155.367</ele>
        <time>2020-09-03T15:12:50Z</time>
      </trkpt>
      <trkpt lat="43.85103" lon="5.11829">
        <ele>155.352</ele>
        <time>2020-09-03T15:12:52Z</time>
      </trkpt>
      <trkpt lat="43.85103" lon="5.11829">
        <ele>155.342</ele>
        <time>2020-09-03T15:12:53Z</time>
      </trkpt>
      <trkpt lat="43.85103" lon="5.11828">
        <ele>155.331</ele>
        <time>2020-09-03T15:12:54Z</time>
      </trkpt>
      <trkpt lat="43.85103" lon="5.11828">
        <ele>155.313</ele>
        <time>2020-09-03T15:12:55Z</time>
      </trkpt>
      <trkpt lat="43.85103" lon="5.11828">
        <ele>155.307</ele>
        <time>2020-09-03T15:12:56Z</time>
      </trkpt>
      <trkpt lat="43.85103" lon="5.11828">
        <ele>155.305</ele>
        <time>2020-09-03T15:12:57Z</time>
      </trkpt>
      <trkpt lat="43.85103" lon="5.11828">
        <ele>155.304</ele>
        <time>2020-09-03T15:12:58Z</time>
      </trkpt>
      <trkpt lat="43.85103" lon="5.11828">
        <ele>155.286</ele>
        <time>2020-09-03T15:12:59Z</time>
      </trkpt>
      <trkpt lat="43.85103" lon="5.11828">
        <ele>155.268</ele>
        <time>2020-09-03T15:13:01Z</time>
      </trkpt>
      <trkpt lat="43.85103" lon="5.11828">
        <ele>155.271</ele>
        <time>2020-09-03T15:13:01Z</time>
      </trkpt>
      <trkpt lat="43.85103" lon="5.11828">
        <ele>155.291</ele>
        <time>2020-09-03T15:13:01Z</time>
      </trkpt>
      <trkpt lat="43.85103" lon="5.11828">
        <ele>155.312</ele>
        <time>2020-09-03T15:13:04Z</time>
      </trkpt>
      <trkpt lat="43.85103" lon="5.11828">
        <ele>155.327</ele>
        <time>2020-09-03T15:13:05Z</time>
      </trkpt>
      <trkpt lat="43.85103" lon="5.11828">
        <ele>155.341</ele>
        <time>2020-09-03T15:13:06Z</time>
      </trkpt>
      <trkpt lat="43.85103" lon="5.11828">
        <ele>155.35</ele>
        <time>2020-09-03T15:13:07Z</time>
      </trkpt>
      <trkpt lat="43.85103" lon="5.11828">
        <ele>155.337</ele>
        <time>2020-09-03T15:13:08Z</time>
      </trkpt>
      <trkpt lat="43.85103" lon="5.11828">
        <ele>155.316</ele>
        <time>2020-09-03T15:13:09Z</time>
      </trkpt>
      <trkpt lat="43.85103" lon="5.11828">
        <ele>155.317</ele>
        <time>2020-09-03T15:13:10Z</time>
      </trkpt>
      <trkpt lat="43.85103" lon="5.11828">
        <ele>155.361</ele>
        <time>2020-09-03T15:13:11Z</time>
      </trkpt>
      <trkpt lat="43.85103" lon="5.11828">
        <ele>155.412</ele>
        <time>2020-09-03T15:13:12Z</time>
      </trkpt>
      <trkpt lat="43.85103" lon="5.11828">
        <ele>155.454</ele>
        <time>2020-09-03T15:13:13Z</time>
      </trkpt>
      <trkpt lat="43.85103" lon="5.11828">
        <ele>155.462</ele>
        <time>2020-09-03T15:13:14Z</time>
      </trkpt>
      <trkpt lat="43.85103" lon="5.11828">
        <ele>155.46</ele>
        <time>2020-09-03T15:13:15Z</time>
      </trkpt>
      <trkpt lat="43.85103" lon="5.11828">
        <ele>155.464</ele>
        <time>2020-09-03T15:13:15Z</time>
      </trkpt>
      <trkpt lat="43.85103" lon="5.11828">
        <ele>155.481</ele>
        <time>2020-09-03T15:13:15Z</time>
      </trkpt>
      <trkpt lat="43.85103" lon="5.11828">
        <ele>155.497</ele>
        <time>2020-09-03T15:13:15Z</time>
      </trkpt>
      <trkpt lat="43.85103" lon="5.11828">
        <ele>155.487</ele>
        <time>2020-09-03T15:13:19Z</time>
      </trkpt>
      <trkpt lat="43.85103" lon="5.11828">
        <ele>155.479</ele>
        <time>2020-09-03T15:13:19Z</time>
      </trkpt>
      <trkpt lat="43.85103" lon="5.11828">
        <ele>155.469</ele>
        <time>2020-09-03T15:13:19Z</time>
      </trkpt>
      <trkpt lat="43.85103" lon="5.11828">
        <ele>155.461</ele>
        <time>2020-09-03T15:13:19Z</time>
      </trkpt>
      <trkpt lat="43.85103" lon="5.11828">
        <ele>155.464</ele>
        <time>2020-09-03T15:13:19Z</time>
      </trkpt>
      <trkpt lat="43.85103" lon="5.11828">
        <ele>155.469</ele>
        <time>2020-09-03T15:13:24Z</time>
      </trkpt>
      <trkpt lat="43.85103" lon="5.11828">
        <ele>155.48</ele>
        <time>2020-09-03T15:13:26Z</time>
      </trkpt>
      <trkpt lat="43.85103" lon="5.11828">
        <ele>155.467</ele>
        <time>2020-09-03T15:13:27Z</time>
      </trkpt>
      <trkpt lat="43.85103" lon="5.11828">
        <ele>155.436</ele>
        <time>2020-09-03T15:13:28Z</time>
      </trkpt>
      <trkpt lat="43.85103" lon="5.11828">
        <ele>155.421</ele>
        <time>2020-09-03T15:13:29Z</time>
      </trkpt>
      <trkpt lat="43.85103" lon="5.11828">
        <ele>155.413</ele>
        <time>2020-09-03T15:13:30Z</time>
      </trkpt>
      <trkpt lat="43.85103" lon="5.11828">
        <ele>155.413</ele>
        <time>2020-09-03T15:13:31Z</time>
      </trkpt>
      <trkpt lat="43.85103" lon="5.11828">
        <ele>155.42</ele>
        <time>2020-09-03T15:13:33Z</time>
      </trkpt>
      <trkpt lat="43.85103" lon="5.11828">
        <ele>155.422</ele>
        <time>2020-09-03T15:13:33Z</time>
      </trkpt>
      <trkpt lat="43.85103" lon="5.11828">
        <ele>155.417</ele>
        <time>2020-09-03T15:13:35Z</time>
      </trkpt>
      <trkpt lat="43.85103" lon="5.11828">
        <ele>155.4</ele>
        <time>2020-09-03T15:13:36Z</time>
      </trkpt>
      <trkpt lat="43.85103" lon="5.11828">
        <ele>155.369</ele>
        <time>2020-09-03T15:13:37Z</time>
      </trkpt>
      <trkpt lat="43.85103" lon="5.11828">
        <ele>155.356</ele>
        <time>2020-09-03T15:13:38Z</time>
      </trkpt>
      <trkpt lat="43.85103" lon="5.11828">
        <ele>155.377</ele>
        <time>2020-09-03T15:13:39Z</time>
      </trkpt>
      <trkpt lat="43.85103" lon="5.11828">
        <ele>155.394</ele>
        <time>2020-09-03T15:13:40Z</time>
      </trkpt>
      <trkpt lat="43.85103" lon="5.11828">
        <ele>155.379</ele>
        <time>2020-09-03T15:13:41Z</time>
      </trkpt>
      <trkpt lat="43.85103" lon="5.11828">
        <ele>155.36</ele>
        <time>2020-09-03T15:13:42Z</time>
      </trkpt>
      <trkpt lat="43.85103" lon="5.11828">
        <ele>155.348</ele>
        <time>2020-09-03T15:13:42Z</time>
      </trkpt>
      <trkpt lat="43.85103" lon="5.11828">
        <ele>155.346</ele>
        <time>2020-09-03T15:13:44Z</time>
      </trkpt>
      <trkpt lat="43.85103" lon="5.11828">
        <ele>155.354</ele>
        <time>2020-09-03T15:13:45Z</time>
      </trkpt>
      <trkpt lat="43.85103" lon="5.11828">
        <ele>155.373</ele>
        <time>2020-09-03T15:13:46Z</time>
      </trkpt>
      <trkpt lat="43.85103" lon="5.11828">
        <ele>155.369</ele>
        <time>2020-09-03T15:13:47Z</time>
      </trkpt>
      <trkpt lat="43.85103" lon="5.11828">
        <ele>155.372</ele>
        <time>2020-09-03T15:13:48Z</time>
      </trkpt>
      <trkpt lat="43.85103" lon="5.11828">
        <ele>155.383</ele>
        <time>2020-09-03T15:13:49Z</time>
      </trkpt>
      <trkpt lat="43.85103" lon="5.11828">
        <ele>155.37</ele>
        <time>2020-09-03T15:13:50Z</time>
      </trkpt>
      <trkpt lat="43.85103" lon="5.11828">
        <ele>155.342</ele>
        <time>2020-09-03T15:13:51Z</time>
      </trkpt>
      <trkpt lat="43.85103" lon="5.11828">
        <ele>155.314</ele>
        <time>2020-09-03T15:13:52Z</time>
      </trkpt>
      <trkpt lat="43.85103" lon="5.11828">
        <ele>155.293</ele>
        <time>2020-09-03T15:13:52Z</time>
      </trkpt>
      <trkpt lat="43.85103" lon="5.11828">
        <ele>155.297</ele>
        <time>2020-09-03T15:13:55Z</time>
      </trkpt>
      <trkpt lat="43.85103" lon="5.11828">
        <ele>155.299</ele>
        <time>2020-09-03T15:13:55Z</time>
      </trkpt>
      <trkpt lat="43.85103" lon="5.11828">
        <ele>155.296</ele>
        <time>2020-09-03T15:13:57Z</time>
      </trkpt>
      <trkpt lat="43.85103" lon="5.11828">
        <ele>155.293</ele>
        <time>2020-09-03T15:13:57Z</time>
      </trkpt>
      <trkpt lat="43.85103" lon="5.11828">
        <ele>155.282</ele>
        <time>2020-09-03T15:13:59Z</time>
      </trkpt>
      <trkpt lat="43.85103" lon="5.11828">
        <ele>155.247</ele>
        <time>2020-09-03T15:14:00Z</time>
      </trkpt>
      <trkpt lat="43.85103" lon="5.11828">
        <ele>155.24</ele>
        <time>2020-09-03T15:14:01Z</time>
      </trkpt>
      <trkpt lat="43.85103" lon="5.11828">
        <ele>155.229</ele>
        <time>2020-09-03T15:14:02Z</time>
      </trkpt>
      <trkpt lat="43.85103" lon="5.11828">
        <ele>155.214</ele>
        <time>2020-09-03T15:14:03Z</time>
      </trkpt>
      <trkpt lat="43.85103" lon="5.11828">
        <ele>155.209</ele>
        <time>2020-09-03T15:14:04Z</time>
      </trkpt>
      <trkpt lat="43.85103" lon="5.11828">
        <ele>155.205</ele>
        <time>2020-09-03T15:14:05Z</time>
      </trkpt>
      <trkpt lat="43.85104" lon="5.11828">
        <ele>155.216</ele>
        <time>2020-09-03T15:14:06Z</time>
      </trkpt>
      <trkpt lat="43.85104" lon="5.11828">
        <ele>155.249</ele>
        <time>2020-09-03T15:14:07Z</time>
      </trkpt>
      <trkpt lat="43.85104" lon="5.11828">
        <ele>155.271</ele>
        <time>2020-09-03T15:14:08Z</time>
      </trkpt>
      <trkpt lat="43.85104" lon="5.11828">
        <ele>155.292</ele>
        <time>2020-09-03T15:14:09Z</time>
      </trkpt>
      <trkpt lat="43.85104" lon="5.11828">
        <ele>155.301</ele>
        <time>2020-09-03T15:14:10Z</time>
      </trkpt>
      <trkpt lat="43.85104" lon="5.11828">
        <ele>155.313</ele>
        <time>2020-09-03T15:14:11Z</time>
      </trkpt>
      <trkpt lat="43.85104" lon="5.11828">
        <ele>155.322</ele>
        <time>2020-09-03T15:14:11Z</time>
      </trkpt>
      <trkpt lat="43.85104" lon="5.11828">
        <ele>155.319</ele>
        <time>2020-09-03T15:14:13Z</time>
      </trkpt>
      <trkpt lat="43.85104" lon="5.11828">
        <ele>155.283</ele>
        <time>2020-09-03T15:14:14Z</time>
      </trkpt>
      <trkpt lat="43.85104" lon="5.11828">
        <ele>155.237</ele>
        <time>2020-09-03T15:14:15Z</time>
      </trkpt>
      <trkpt lat="43.85104" lon="5.11828">
        <ele>155.206</ele>
        <time>2020-09-03T15:14:17Z</time>
      </trkpt>
      <trkpt lat="43.85104" lon="5.11828">
        <ele>155.206</ele>
        <time>2020-09-03T15:14:18Z</time>
      </trkpt>
      <trkpt lat="43.85104" lon="5.11828">
        <ele>155.169</ele>
        <time>2020-09-03T15:14:19Z</time>
      </trkpt>
      <trkpt lat="43.85104" lon="5.11827">
        <ele>155.127</ele>
        <time>2020-09-03T15:14:20Z</time>
      </trkpt>
      <trkpt lat="43.85104" lon="5.11827">
        <ele>155.087</ele>
        <time>2020-09-03T15:14:20Z</time>
      </trkpt>
      <trkpt lat="43.85104" lon="5.11827">
        <ele>155.067</ele>
        <time>2020-09-03T15:14:20Z</time>
      </trkpt>
      <trkpt lat="43.85104" lon="5.11827">
        <ele>155.078</ele>
        <time>2020-09-03T15:14:23Z</time>
      </trkpt>
      <trkpt lat="43.85104" lon="5.11827">
        <ele>155.079</ele>
        <time>2020-09-03T15:14:24Z</time>
      </trkpt>
      <trkpt lat="43.85104" lon="5.11827">
        <ele>155.108</ele>
        <time>2020-09-03T15:14:25Z</time>
      </trkpt>
      <trkpt lat="43.85104" lon="5.11828">
        <ele>155.149</ele>
        <time>2020-09-03T15:14:27Z</time>
      </trkpt>
      <trkpt lat="43.85104" lon="5.11828">
        <ele>155.191</ele>
        <time>2020-09-03T15:14:28Z</time>
      </trkpt>
      <trkpt lat="43.85104" lon="5.11828">
        <ele>155.228</ele>
        <time>2020-09-03T15:14:28Z</time>
      </trkpt>
      <trkpt lat="43.85104" lon="5.11828">
        <ele>155.248</ele>
        <time>2020-09-03T15:14:28Z</time>
      </trkpt>
      <trkpt lat="43.85104" lon="5.11827">
        <ele>155.257</ele>
        <time>2020-09-03T15:14:31Z</time>
      </trkpt>
      <trkpt lat="43.85104" lon="5.11827">
        <ele>155.261</ele>
        <time>2020-09-03T15:14:32Z</time>
      </trkpt>
      <trkpt lat="43.85104" lon="5.11827">
        <ele>155.269</ele>
        <time>2020-09-03T15:14:33Z</time>
      </trkpt>
      <trkpt lat="43.85104" lon="5.11827">
        <ele>155.268</ele>
        <time>2020-09-03T15:14:33Z</time>
      </trkpt>
      <trkpt lat="43.85104" lon="5.11827">
        <ele>155.283</ele>
        <time>2020-09-03T15:14:35Z</time>
      </trkpt>
      <trkpt lat="43.85104" lon="5.11827">
        <ele>155.294</ele>
        <time>2020-09-03T15:14:36Z</time>
      </trkpt>
      <trkpt lat="43.85104" lon="5.11827">
        <ele>155.285</ele>
        <time>2020-09-03T15:14:37Z</time>
      </trkpt>
      <trkpt lat="43.85104" lon="5.11827">
        <ele>155.284</ele>
        <time>2020-09-03T15:14:38Z</time>
      </trkpt>
    </trkseg>
  </trk>
</gpx>